<?xml version='1.0' encoding='UTF-8'?><gpx version="1.1" creator="JPX - https://github.com/jenetics/jpx" xmlns="http://www.topografix.com/GPX/1/1"><trk><trkseg><trkpt lat="40.185534219891" lon="18.202610672033785"><ele>86.0</ele><time>2026-04-06T05:08:25.001Z</time></trkpt><trkpt lat="40.185575613603504" lon="18.202745898893397"><ele>86.0</ele><time>2026-04-06T05:08:27.001Z</time></trkpt><trkpt lat="40.1856110368805" lon="18.20285930582962"><ele>86.0</ele><time>2026-04-06T05:08:28.001Z</time></trkpt><trkpt lat="40.18564020839973" lon="18.202973654234597"><ele>86.0</ele><time>2026-04-06T05:08:29.001Z</time></trkpt><trkpt lat="40.1856481448206" lon="18.203114914562455"><ele>86.0</ele><time>2026-04-06T05:08:30.001Z</time></trkpt><trkpt lat="40.18569310148231" lon="18.203253550434823"><ele>86.5</ele><time>2026-04-06T05:08:31.001Z</time></trkpt><trkpt lat="40.18573546159605" lon="18.203384179678665"><ele>87.0</ele><time>2026-04-06T05:08:32.001Z</time></trkpt><trkpt lat="40.18578201916895" lon="18.20352684445618"><ele>87.5</ele><time>2026-04-06T05:08:33.001Z</time></trkpt><trkpt lat="40.18584485990795" lon="18.203719917548273"><ele>88.0</ele><time>2026-04-06T05:08:34.001Z</time></trkpt><trkpt lat="40.1858824701862" lon="18.20383547207355"><ele>88.0</ele><time>2026-04-06T05:08:35.001Z</time></trkpt><trkpt lat="40.18592017704221" lon="18.203953046812998"><ele>88.0</ele><time>2026-04-06T05:08:36.001Z</time></trkpt><trkpt lat="40.185959176491494" lon="18.204054977491204"><ele>88.0</ele><time>2026-04-06T05:08:36.999Z</time></trkpt><trkpt lat="40.185997060180654" lon="18.204164452031215"><ele>88.0</ele><time>2026-04-06T05:08:37.999Z</time></trkpt><trkpt lat="40.18602937091919" lon="18.204263142941972"><ele>88.0</ele><time>2026-04-06T05:08:38.999Z</time></trkpt><trkpt lat="40.186061192870234" lon="18.20434722450508"><ele>88.0</ele><time>2026-04-06T05:08:39.999Z</time></trkpt><trkpt lat="40.18608254204392" lon="18.20446511263844"><ele>87.75</ele><time>2026-04-06T05:08:40.999Z</time></trkpt><trkpt lat="40.18612452925428" lon="18.204597881111027"><ele>87.5</ele><time>2026-04-06T05:08:42Z</time></trkpt><trkpt lat="40.186179214317704" lon="18.204770801912343"><ele>87.25</ele><time>2026-04-06T05:08:43Z</time></trkpt><trkpt lat="40.186237823720134" lon="18.204953543553973"><ele>87.0</ele><time>2026-04-06T05:08:44Z</time></trkpt><trkpt lat="40.18629601102602" lon="18.205137060841654"><ele>87.39999999999999</ele><time>2026-04-06T05:08:45Z</time></trkpt><trkpt lat="40.186342737009696" lon="18.205287372265968"><ele>87.8</ele><time>2026-04-06T05:08:46Z</time></trkpt><trkpt lat="40.18638094520774" lon="18.205414196044437"><ele>88.2</ele><time>2026-04-06T05:08:47Z</time></trkpt><trkpt lat="40.1864230622069" lon="18.20549917676919"><ele>88.6</ele><time>2026-04-06T05:08:48Z</time></trkpt><trkpt lat="40.18643769576434" lon="18.20560308753239"><ele>89.0</ele><time>2026-04-06T05:08:50Z</time></trkpt><trkpt lat="40.186403624811355" lon="18.205673901160587"><ele>89.16666666666667</ele><time>2026-04-06T05:08:54Z</time></trkpt><trkpt lat="40.18633673838525" lon="18.205733407121173"><ele>89.33333333333334</ele><time>2026-04-06T05:08:55Z</time></trkpt><trkpt lat="40.18625228066971" lon="18.205789761129267"><ele>89.5</ele><time>2026-04-06T05:08:56Z</time></trkpt><trkpt lat="40.18618153627096" lon="18.205856662775705"><ele>89.66666666666667</ele><time>2026-04-06T05:08:57Z</time></trkpt><trkpt lat="40.18612059147298" lon="18.205945373086987"><ele>89.83333333333333</ele><time>2026-04-06T05:08:58Z</time></trkpt><trkpt lat="40.18609668508744" lon="18.20605837752359"><ele>90.0</ele><time>2026-04-06T05:08:59Z</time></trkpt><trkpt lat="40.18608828511578" lon="18.206179057014072"><ele>90.0</ele><time>2026-04-06T05:09:00Z</time></trkpt><trkpt lat="40.18608970804261" lon="18.206288641858563"><ele>90.0</ele><time>2026-04-06T05:09:01Z</time></trkpt><trkpt lat="40.186094293245716" lon="18.20640135471803"><ele>90.0</ele><time>2026-04-06T05:09:02Z</time></trkpt><trkpt lat="40.18609917094399" lon="18.20651864468552"><ele>90.0</ele><time>2026-04-06T05:09:03Z</time></trkpt><trkpt lat="40.18611097663619" lon="18.206641179037117"><ele>90.0</ele><time>2026-04-06T05:09:04Z</time></trkpt><trkpt lat="40.186114118415084" lon="18.20676707225574"><ele>90.33333333333333</ele><time>2026-04-06T05:09:05Z</time></trkpt><trkpt lat="40.18611726560735" lon="18.20689302601397"><ele>90.66666666666667</ele><time>2026-04-06T05:09:06Z</time></trkpt><trkpt lat="40.18611666962922" lon="18.207003167531788"><ele>91.0</ele><time>2026-04-06T05:09:07Z</time></trkpt><trkpt lat="40.186115360586065" lon="18.207102928216827"><ele>91.33333333333334</ele><time>2026-04-06T05:09:08Z</time></trkpt><trkpt lat="40.18611525122164" lon="18.20720758285014"><ele>91.66666666666667</ele><time>2026-04-06T05:09:09Z</time></trkpt><trkpt lat="40.18612186323168" lon="18.207309487080174"><ele>92.0</ele><time>2026-04-06T05:09:10Z</time></trkpt><trkpt lat="40.18612515526816" lon="18.20741229842845"><ele>92.0</ele><time>2026-04-06T05:09:11Z</time></trkpt><trkpt lat="40.186135532776056" lon="18.207527539047692"><ele>92.0</ele><time>2026-04-06T05:09:12Z</time></trkpt><trkpt lat="40.186153311635614" lon="18.207645306382386"><ele>92.0</ele><time>2026-04-06T05:09:13Z</time></trkpt><trkpt lat="40.18617780932504" lon="18.207769067786646"><ele>92.0</ele><time>2026-04-06T05:09:14Z</time></trkpt><trkpt lat="40.18620393301666" lon="18.207895825293573"><ele>92.0</ele><time>2026-04-06T05:09:15Z</time></trkpt><trkpt lat="40.18622778062458" lon="18.208041933300354"><ele>92.0</ele><time>2026-04-06T05:09:16Z</time></trkpt><trkpt lat="40.1862484349349" lon="18.20817210002075"><ele>92.0</ele><time>2026-04-06T05:09:17Z</time></trkpt><trkpt lat="40.18628092703242" lon="18.208288659146763"><ele>92.0</ele><time>2026-04-06T05:09:18Z</time></trkpt><trkpt lat="40.18631425903253" lon="18.20841029816801"><ele>92.0</ele><time>2026-04-06T05:09:19Z</time></trkpt><trkpt lat="40.186374822292464" lon="18.2085308259092"><ele>92.0</ele><time>2026-04-06T05:09:20Z</time></trkpt><trkpt lat="40.18644153459437" lon="18.208649008576554"><ele>92.19999999999999</ele><time>2026-04-06T05:09:21Z</time></trkpt><trkpt lat="40.186516418574826" lon="18.20875964493561"><ele>92.4</ele><time>2026-04-06T05:09:22Z</time></trkpt><trkpt lat="40.18658719630755" lon="18.208869555076326"><ele>92.6</ele><time>2026-04-06T05:09:23Z</time></trkpt><trkpt lat="40.18666050489161" lon="18.208968759587773"><ele>92.80000000000001</ele><time>2026-04-06T05:09:24Z</time></trkpt><trkpt lat="40.186730606553816" lon="18.209069281847572"><ele>93.0</ele><time>2026-04-06T05:09:25Z</time></trkpt><trkpt lat="40.18679915158008" lon="18.209174000502802"><ele>93.0</ele><time>2026-04-06T05:09:26Z</time></trkpt><trkpt lat="40.1868631772045" lon="18.209264902848933"><ele>93.0</ele><time>2026-04-06T05:09:27Z</time></trkpt><trkpt lat="40.18690970809236" lon="18.20935029742683"><ele>93.0</ele><time>2026-04-06T05:09:28Z</time></trkpt><trkpt lat="40.18695762023325" lon="18.209424247454823"><ele>93.0</ele><time>2026-04-06T05:09:29Z</time></trkpt><trkpt lat="40.18701481522208" lon="18.209476360513307"><ele>93.0</ele><time>2026-04-06T05:09:30Z</time></trkpt><trkpt lat="40.18707850323439" lon="18.209505294850405"><ele>93.0</ele><time>2026-04-06T05:09:31Z</time></trkpt><trkpt lat="40.187144533469215" lon="18.209518950669448"><ele>93.0</ele><time>2026-04-06T05:09:32Z</time></trkpt><trkpt lat="40.18722944597855" lon="18.209470699031055"><ele>93.0</ele><time>2026-04-06T05:09:33Z</time></trkpt><trkpt lat="40.18732522011489" lon="18.209420286110873"><ele>93.0</ele><time>2026-04-06T05:09:34Z</time></trkpt><trkpt lat="40.187402924488055" lon="18.2093418599942"><ele>93.0</ele><time>2026-04-06T05:09:35Z</time></trkpt><trkpt lat="40.18747943755857" lon="18.209284469696115"><ele>93.0</ele><time>2026-04-06T05:09:36Z</time></trkpt><trkpt lat="40.18753695585282" lon="18.209223886470053"><ele>93.0</ele><time>2026-04-06T05:09:37Z</time></trkpt><trkpt lat="40.1875958251505" lon="18.209185004820046"><ele>93.0</ele><time>2026-04-06T05:09:38Z</time></trkpt><trkpt lat="40.18769413026127" lon="18.209150080639414"><ele>93.0</ele><time>2026-04-06T05:09:40Z</time></trkpt><trkpt lat="40.18775685378598" lon="18.20910088263753"><ele>93.0</ele><time>2026-04-06T05:09:42.001Z</time></trkpt><trkpt lat="40.187827082056174" lon="18.20924516055022"><ele>93.0</ele><time>2026-04-06T05:09:43.001Z</time></trkpt><trkpt lat="40.18785909017461" lon="18.20933311100338"><ele>93.0</ele><time>2026-04-06T05:09:44.001Z</time></trkpt><trkpt lat="40.18787612195912" lon="18.209448480539336"><ele>93.0</ele><time>2026-04-06T05:09:45.001Z</time></trkpt><trkpt lat="40.187896373782124" lon="18.20958356389026"><ele>93.0</ele><time>2026-04-06T05:09:46.001Z</time></trkpt><trkpt lat="40.18790979560907" lon="18.20973532479772"><ele>93.0</ele><time>2026-04-06T05:09:47.001Z</time></trkpt><trkpt lat="40.187931542524744" lon="18.20988273026658"><ele>93.0</ele><time>2026-04-06T05:09:48.001Z</time></trkpt><trkpt lat="40.18796349615771" lon="18.21004593160007"><ele>93.0</ele><time>2026-04-06T05:09:49.001Z</time></trkpt><trkpt lat="40.18797465476675" lon="18.2102155568761"><ele>93.0</ele><time>2026-04-06T05:09:50.001Z</time></trkpt><trkpt lat="40.18801122906054" lon="18.210384935091195"><ele>93.0</ele><time>2026-04-06T05:09:51.001Z</time></trkpt><trkpt lat="40.18803508696665" lon="18.210565780295266"><ele>93.0</ele><time>2026-04-06T05:09:52.001Z</time></trkpt><trkpt lat="40.18805916191576" lon="18.210739597810516"><ele>92.80000000000001</ele><time>2026-04-06T05:09:53.001Z</time></trkpt><trkpt lat="40.18807528190493" lon="18.210889978325827"><ele>92.6</ele><time>2026-04-06T05:09:54.001Z</time></trkpt><trkpt lat="40.188100824917946" lon="18.211035905840323"><ele>92.4</ele><time>2026-04-06T05:09:55.001Z</time></trkpt><trkpt lat="40.188131747393804" lon="18.21116931302652"><ele>92.19999999999999</ele><time>2026-04-06T05:09:56.001Z</time></trkpt><trkpt lat="40.18814853137186" lon="18.2112874069685"><ele>92.0</ele><time>2026-04-06T05:09:57.001Z</time></trkpt><trkpt lat="40.18818632389269" lon="18.211380363395342"><ele>91.83333333333334</ele><time>2026-04-06T05:09:58.001Z</time></trkpt><trkpt lat="40.18820129035351" lon="18.211466128969285"><ele>91.66666666666667</ele><time>2026-04-06T05:09:59.001Z</time></trkpt><trkpt lat="40.18822448797632" lon="18.211605447018986"><ele>91.5</ele><time>2026-04-06T05:10:01.001Z</time></trkpt><trkpt lat="40.18821030833806" lon="18.211732132783546"><ele>91.33333333333333</ele><time>2026-04-06T05:10:03.001Z</time></trkpt><trkpt lat="40.18825638041635" lon="18.21181640120253"><ele>91.16666666666666</ele><time>2026-04-06T05:10:04.001Z</time></trkpt><trkpt lat="40.188269795672355" lon="18.211937348401836"><ele>91.0</ele><time>2026-04-06T05:10:05.001Z</time></trkpt><trkpt lat="40.18828572913169" lon="18.21207376376878"><ele>91.0</ele><time>2026-04-06T05:10:06.001Z</time></trkpt><trkpt lat="40.18830863740559" lon="18.212227911011393"><ele>91.0</ele><time>2026-04-06T05:10:07.001Z</time></trkpt><trkpt lat="40.1883365327078" lon="18.212387297190997"><ele>91.0</ele><time>2026-04-06T05:10:08.001Z</time></trkpt><trkpt lat="40.188369523279675" lon="18.212542646553434"><ele>91.0</ele><time>2026-04-06T05:10:09.001Z</time></trkpt><trkpt lat="40.18839384080898" lon="18.212704941196584"><ele>91.0</ele><time>2026-04-06T05:10:10.001Z</time></trkpt><trkpt lat="40.188415201920265" lon="18.21287591678668"><ele>91.0</ele><time>2026-04-06T05:10:11.001Z</time></trkpt><trkpt lat="40.188438142433945" lon="18.213049888980645"><ele>91.0</ele><time>2026-04-06T05:10:12.001Z</time></trkpt><trkpt lat="40.18846304543992" lon="18.21322649623599"><ele>91.0</ele><time>2026-04-06T05:10:13.001Z</time></trkpt><trkpt lat="40.188494551843434" lon="18.213406053860666"><ele>91.25</ele><time>2026-04-06T05:10:14.001Z</time></trkpt><trkpt lat="40.18852705105724" lon="18.21359224714006"><ele>91.5</ele><time>2026-04-06T05:10:15.001Z</time></trkpt><trkpt lat="40.188559702416995" lon="18.21378484015655"><ele>91.75</ele><time>2026-04-06T05:10:16.001Z</time></trkpt><trkpt lat="40.188592589945344" lon="18.213979537864617"><ele>92.0</ele><time>2026-04-06T05:10:17.001Z</time></trkpt><trkpt lat="40.18859429803582" lon="18.21418907448485"><ele>91.33333333333334</ele><time>2026-04-06T05:10:18.001Z</time></trkpt><trkpt lat="40.188625744703096" lon="18.214402702322335"><ele>90.66666666666667</ele><time>2026-04-06T05:10:19.001Z</time></trkpt><trkpt lat="40.188660648959825" lon="18.21462580056938"><ele>90.0</ele><time>2026-04-06T05:10:20.001Z</time></trkpt><trkpt lat="40.18869551323706" lon="18.214847348186435"><ele>89.33333333333333</ele><time>2026-04-06T05:10:21.001Z</time></trkpt><trkpt lat="40.18873057651061" lon="18.215070160480337"><ele>88.66666666666666</ele><time>2026-04-06T05:10:22.001Z</time></trkpt><trkpt lat="40.18876410599824" lon="18.215296894921167"><ele>88.0</ele><time>2026-04-06T05:10:23.001Z</time></trkpt><trkpt lat="40.188799969085515" lon="18.215533416051002"><ele>88.0</ele><time>2026-04-06T05:10:24.001Z</time></trkpt><trkpt lat="40.18883631371972" lon="18.215772218028818"><ele>88.0</ele><time>2026-04-06T05:10:25.001Z</time></trkpt><trkpt lat="40.1888741034128" lon="18.216020514754536"><ele>88.0</ele><time>2026-04-06T05:10:26.001Z</time></trkpt><trkpt lat="40.18891332310001" lon="18.21627820725576"><ele>87.66666666666666</ele><time>2026-04-06T05:10:27.001Z</time></trkpt><trkpt lat="40.188988764438115" lon="18.216527280927473"><ele>87.33333333333333</ele><time>2026-04-06T05:10:28.001Z</time></trkpt><trkpt lat="40.189027260649176" lon="18.216797516538946"><ele>87.0</ele><time>2026-04-06T05:10:29.001Z</time></trkpt><trkpt lat="40.18906638260369" lon="18.21706360283362"><ele>87.33333333333333</ele><time>2026-04-06T05:10:30.001Z</time></trkpt><trkpt lat="40.18910901965014" lon="18.21733299514813"><ele>87.66666666666666</ele><time>2026-04-06T05:10:31.001Z</time></trkpt><trkpt lat="40.18911587709184" lon="18.217613815444178"><ele>88.0</ele><time>2026-04-06T05:10:32.001Z</time></trkpt><trkpt lat="40.18915767651215" lon="18.21788986936787"><ele>87.33333333333333</ele><time>2026-04-06T05:10:33.001Z</time></trkpt><trkpt lat="40.18919914184507" lon="18.218160918279647"><ele>86.66666666666667</ele><time>2026-04-06T05:10:34.001Z</time></trkpt><trkpt lat="40.18924035568115" lon="18.2184303232477"><ele>86.0</ele><time>2026-04-06T05:10:35.001Z</time></trkpt><trkpt lat="40.18928117723657" lon="18.218697163945418"><ele>86.0</ele><time>2026-04-06T05:10:36.001Z</time></trkpt><trkpt lat="40.189321285949504" lon="18.21895349013961"><ele>86.0</ele><time>2026-04-06T05:10:37.001Z</time></trkpt><trkpt lat="40.189361116067715" lon="18.21920787348893"><ele>86.0</ele><time>2026-04-06T05:10:38.001Z</time></trkpt><trkpt lat="40.18940017982459" lon="18.219464904912385"><ele>85.66666666666667</ele><time>2026-04-06T05:10:39.001Z</time></trkpt><trkpt lat="40.189439420447385" lon="18.219719448015198"><ele>85.33333333333333</ele><time>2026-04-06T05:10:40.001Z</time></trkpt><trkpt lat="40.189480277402524" lon="18.219972356194543"><ele>85.0</ele><time>2026-04-06T05:10:41.001Z</time></trkpt><trkpt lat="40.18952119938458" lon="18.220225666895892"><ele>85.0</ele><time>2026-04-06T05:10:42.001Z</time></trkpt><trkpt lat="40.18956235901967" lon="18.22048044869369"><ele>85.0</ele><time>2026-04-06T05:10:43Z</time></trkpt><trkpt lat="40.189602846617106" lon="18.220740023979182"><ele>85.0</ele><time>2026-04-06T05:10:44Z</time></trkpt><trkpt lat="40.1896402914926" lon="18.22100304037623"><ele>85.33333333333333</ele><time>2026-04-06T05:10:45Z</time></trkpt><trkpt lat="40.18968031193286" lon="18.221268067564477"><ele>85.66666666666667</ele><time>2026-04-06T05:10:46Z</time></trkpt><trkpt lat="40.189722615073485" lon="18.22153639629488"><ele>86.0</ele><time>2026-04-06T05:10:47Z</time></trkpt><trkpt lat="40.18976460453813" lon="18.221802086673318"><ele>86.0</ele><time>2026-04-06T05:10:48Z</time></trkpt><trkpt lat="40.189807079434175" lon="18.222070870112077"><ele>86.0</ele><time>2026-04-06T05:10:49Z</time></trkpt><trkpt lat="40.18984755662952" lon="18.22233163173117"><ele>86.0</ele><time>2026-04-06T05:10:50Z</time></trkpt><trkpt lat="40.189889045622046" lon="18.222599506824434"><ele>86.0</ele><time>2026-04-06T05:10:51Z</time></trkpt><trkpt lat="40.189930231171864" lon="18.222865422753824"><ele>86.0</ele><time>2026-04-06T05:10:52Z</time></trkpt><trkpt lat="40.18997157340812" lon="18.2231323503329"><ele>86.0</ele><time>2026-04-06T05:10:53Z</time></trkpt><trkpt lat="40.1900129932597" lon="18.223402579860533"><ele>85.66666666666667</ele><time>2026-04-06T05:10:54Z</time></trkpt><trkpt lat="40.19005375091667" lon="18.22366797282998"><ele>85.33333333333333</ele><time>2026-04-06T05:10:55Z</time></trkpt><trkpt lat="40.190095830656155" lon="18.223939841624553"><ele>85.0</ele><time>2026-04-06T05:10:56Z</time></trkpt><trkpt lat="40.19013605967333" lon="18.224211032394724"><ele>85.0</ele><time>2026-04-06T05:10:57Z</time></trkpt><trkpt lat="40.19017903083678" lon="18.22448558681779"><ele>85.0</ele><time>2026-04-06T05:10:58Z</time></trkpt><trkpt lat="40.19022192846156" lon="18.224764134727646"><ele>85.0</ele><time>2026-04-06T05:10:59Z</time></trkpt><trkpt lat="40.19026439839218" lon="18.225041261281845"><ele>85.0</ele><time>2026-04-06T05:11:00Z</time></trkpt><trkpt lat="40.19030709170862" lon="18.225320670012852"><ele>85.0</ele><time>2026-04-06T05:11:01Z</time></trkpt><trkpt lat="40.19035095857307" lon="18.225604959084222"><ele>85.0</ele><time>2026-04-06T05:11:02Z</time></trkpt><trkpt lat="40.19039532490176" lon="18.2258922869833"><ele>84.66666666666666</ele><time>2026-04-06T05:11:03Z</time></trkpt><trkpt lat="40.19043967361501" lon="18.22617950195972"><ele>84.33333333333333</ele><time>2026-04-06T05:11:04Z</time></trkpt><trkpt lat="40.19048432135988" lon="18.226468653539555"><ele>84.0</ele><time>2026-04-06T05:11:05Z</time></trkpt><trkpt lat="40.190530454129814" lon="18.22675787009576"><ele>83.0</ele><time>2026-04-06T05:11:06Z</time></trkpt><trkpt lat="40.19059968761797" lon="18.22704211366359"><ele>82.0</ele><time>2026-04-06T05:11:07Z</time></trkpt><trkpt lat="40.19064801932245" lon="18.227329779491846"><ele>82.5</ele><time>2026-04-06T05:11:08Z</time></trkpt><trkpt lat="40.19069158055709" lon="18.227620355983134"><ele>83.0</ele><time>2026-04-06T05:11:09Z</time></trkpt><trkpt lat="40.19073559057211" lon="18.22790999860137"><ele>83.0</ele><time>2026-04-06T05:11:10Z</time></trkpt><trkpt lat="40.19077380586666" lon="18.228201055977866"><ele>83.0</ele><time>2026-04-06T05:11:11Z</time></trkpt><trkpt lat="40.19081581764274" lon="18.228499637126923"><ele>83.0</ele><time>2026-04-06T05:11:12Z</time></trkpt><trkpt lat="40.19086155287465" lon="18.228805126879923"><ele>83.0</ele><time>2026-04-06T05:11:13Z</time></trkpt><trkpt lat="40.19091056544439" lon="18.22909798031204"><ele>82.5</ele><time>2026-04-06T05:11:14Z</time></trkpt><trkpt lat="40.19095685200016" lon="18.22939474803893"><ele>82.0</ele><time>2026-04-06T05:11:15Z</time></trkpt><trkpt lat="40.191001755375126" lon="18.229695953214947"><ele>82.0</ele><time>2026-04-06T05:11:16Z</time></trkpt><trkpt lat="40.191044183090476" lon="18.229997899375796"><ele>82.0</ele><time>2026-04-06T05:11:17Z</time></trkpt><trkpt lat="40.19109138906408" lon="18.230303712240346"><ele>82.0</ele><time>2026-04-06T05:11:18Z</time></trkpt><trkpt lat="40.19114221090417" lon="18.230609163126633"><ele>82.0</ele><time>2026-04-06T05:11:19Z</time></trkpt><trkpt lat="40.191190311867324" lon="18.23091716461322"><ele>82.5</ele><time>2026-04-06T05:11:20Z</time></trkpt><trkpt lat="40.19123587919932" lon="18.231229886308697"><ele>83.0</ele><time>2026-04-06T05:11:21Z</time></trkpt><trkpt lat="40.191282964621855" lon="18.231542678642704"><ele>82.0</ele><time>2026-04-06T05:11:22Z</time></trkpt><trkpt lat="40.19132697266773" lon="18.23185636128539"><ele>81.0</ele><time>2026-04-06T05:11:23Z</time></trkpt><trkpt lat="40.19137765730434" lon="18.232169417544455"><ele>79.0</ele><time>2026-04-06T05:11:24Z</time></trkpt><trkpt lat="40.1914247991165" lon="18.232476761233244"><ele>77.0</ele><time>2026-04-06T05:11:25Z</time></trkpt><trkpt lat="40.19147160273538" lon="18.23278229300032"><ele>77.0</ele><time>2026-04-06T05:11:26Z</time></trkpt><trkpt lat="40.19151960000263" lon="18.233088749662087"><ele>77.0</ele><time>2026-04-06T05:11:27Z</time></trkpt><trkpt lat="40.19156632614929" lon="18.233398578772793"><ele>77.0</ele><time>2026-04-06T05:11:28Z</time></trkpt><trkpt lat="40.191614264612284" lon="18.23371107673408"><ele>77.0</ele><time>2026-04-06T05:11:29Z</time></trkpt><trkpt lat="40.19166377443223" lon="18.234021269277967"><ele>77.0</ele><time>2026-04-06T05:11:30Z</time></trkpt><trkpt lat="40.19171300036233" lon="18.234334207737817"><ele>77.0</ele><time>2026-04-06T05:11:31Z</time></trkpt><trkpt lat="40.19175498235165" lon="18.234646173361966"><ele>76.0</ele><time>2026-04-06T05:11:32Z</time></trkpt><trkpt lat="40.191789805911476" lon="18.23495305414138"><ele>75.0</ele><time>2026-04-06T05:11:33Z</time></trkpt><trkpt lat="40.19181998989175" lon="18.235273353259206"><ele>75.0</ele><time>2026-04-06T05:11:34Z</time></trkpt><trkpt lat="40.191840354347406" lon="18.23558152970774"><ele>75.0</ele><time>2026-04-06T05:11:35Z</time></trkpt><trkpt lat="40.19186712424892" lon="18.235901231192766"><ele>75.5</ele><time>2026-04-06T05:11:36Z</time></trkpt><trkpt lat="40.191891560127054" lon="18.236223446497895"><ele>76.0</ele><time>2026-04-06T05:11:37Z</time></trkpt><trkpt lat="40.19192076764963" lon="18.236547938142817"><ele>76.0</ele><time>2026-04-06T05:11:38Z</time></trkpt><trkpt lat="40.19195216982627" lon="18.23686566255045"><ele>76.0</ele><time>2026-04-06T05:11:39Z</time></trkpt><trkpt lat="40.191981075282996" lon="18.23715952684045"><ele>76.0</ele><time>2026-04-06T05:11:40Z</time></trkpt><trkpt lat="40.19200293250433" lon="18.237447467588435"><ele>76.0</ele><time>2026-04-06T05:11:41Z</time></trkpt><trkpt lat="40.19202581953433" lon="18.237731319526013"><ele>76.0</ele><time>2026-04-06T05:11:42Z</time></trkpt><trkpt lat="40.192052660965714" lon="18.238026313168533"><ele>76.0</ele><time>2026-04-06T05:11:43Z</time></trkpt><trkpt lat="40.19209124984937" lon="18.23832586747073"><ele>76.0</ele><time>2026-04-06T05:11:44Z</time></trkpt><trkpt lat="40.19213310404681" lon="18.238626582345418"><ele>76.0</ele><time>2026-04-06T05:11:45Z</time></trkpt><trkpt lat="40.192185563864655" lon="18.238934244611897"><ele>76.0</ele><time>2026-04-06T05:11:46Z</time></trkpt><trkpt lat="40.1922503015986" lon="18.239238254342137"><ele>76.5</ele><time>2026-04-06T05:11:47.001Z</time></trkpt><trkpt lat="40.192311362634065" lon="18.239535612881042"><ele>77.0</ele><time>2026-04-06T05:11:48.001Z</time></trkpt><trkpt lat="40.192373700837365" lon="18.23982705507735"><ele>77.0</ele><time>2026-04-06T05:11:49.001Z</time></trkpt><trkpt lat="40.19243889211737" lon="18.240117236742496"><ele>77.0</ele><time>2026-04-06T05:11:50.001Z</time></trkpt><trkpt lat="40.19251535600818" lon="18.240416677325115"><ele>77.0</ele><time>2026-04-06T05:11:51.001Z</time></trkpt><trkpt lat="40.19259435548887" lon="18.240722813299502"><ele>77.0</ele><time>2026-04-06T05:11:52.001Z</time></trkpt><trkpt lat="40.19267001437838" lon="18.241032395902447"><ele>77.0</ele><time>2026-04-06T05:11:53.001Z</time></trkpt><trkpt lat="40.19274633105264" lon="18.241342560274287"><ele>77.0</ele><time>2026-04-06T05:11:54.001Z</time></trkpt><trkpt lat="40.192819595996674" lon="18.241657796757135"><ele>77.0</ele><time>2026-04-06T05:11:55.001Z</time></trkpt><trkpt lat="40.192887559540296" lon="18.24198748296831"><ele>77.0</ele><time>2026-04-06T05:11:56.001Z</time></trkpt><trkpt lat="40.192945975347584" lon="18.242327051422667"><ele>77.0</ele><time>2026-04-06T05:11:57.001Z</time></trkpt><trkpt lat="40.19299898479702" lon="18.24267110109753"><ele>77.0</ele><time>2026-04-06T05:11:58.001Z</time></trkpt><trkpt lat="40.1930471365895" lon="18.243011916934776"><ele>77.0</ele><time>2026-04-06T05:11:59.001Z</time></trkpt><trkpt lat="40.193095520473086" lon="18.24334015821084"><ele>77.0</ele><time>2026-04-06T05:12:00.001Z</time></trkpt><trkpt lat="40.19314327832782" lon="18.24366739631738"><ele>77.0</ele><time>2026-04-06T05:12:01.001Z</time></trkpt><trkpt lat="40.19319677342369" lon="18.24398936057244"><ele>77.0</ele><time>2026-04-06T05:12:02.001Z</time></trkpt><trkpt lat="40.193243738397285" lon="18.244307608300986"><ele>77.0</ele><time>2026-04-06T05:12:03.001Z</time></trkpt><trkpt lat="40.1932900610095" lon="18.244626123031008"><ele>77.0</ele><time>2026-04-06T05:12:04.001Z</time></trkpt><trkpt lat="40.193337466782324" lon="18.244941688323905"><ele>77.5</ele><time>2026-04-06T05:12:05.001Z</time></trkpt><trkpt lat="40.19338663161703" lon="18.24525858941694"><ele>78.0</ele><time>2026-04-06T05:12:06.001Z</time></trkpt><trkpt lat="40.19343486494386" lon="18.24557058585882"><ele>78.5</ele><time>2026-04-06T05:12:07.001Z</time></trkpt><trkpt lat="40.19347898854442" lon="18.24588561105988"><ele>79.0</ele><time>2026-04-06T05:12:08.001Z</time></trkpt><trkpt lat="40.193526769404045" lon="18.24619821481278"><ele>77.5</ele><time>2026-04-06T05:12:09.001Z</time></trkpt><trkpt lat="40.19357537613191" lon="18.246516329595295"><ele>76.0</ele><time>2026-04-06T05:12:10.001Z</time></trkpt><trkpt lat="40.19362644188308" lon="18.246834190249203"><ele>76.0</ele><time>2026-04-06T05:12:11.001Z</time></trkpt><trkpt lat="40.19367502833013" lon="18.2471585957599"><ele>76.0</ele><time>2026-04-06T05:12:12.001Z</time></trkpt><trkpt lat="40.19372391329388" lon="18.247489000003775"><ele>76.0</ele><time>2026-04-06T05:12:13.001Z</time></trkpt><trkpt lat="40.193771006373936" lon="18.24782054727849"><ele>76.0</ele><time>2026-04-06T05:12:14.001Z</time></trkpt><trkpt lat="40.19382089605773" lon="18.248156429445995"><ele>76.5</ele><time>2026-04-06T05:12:15.001Z</time></trkpt><trkpt lat="40.19387202163527" lon="18.248491822856813"><ele>77.0</ele><time>2026-04-06T05:12:16.001Z</time></trkpt><trkpt lat="40.193923238471726" lon="18.248824323258884"><ele>77.0</ele><time>2026-04-06T05:12:17.001Z</time></trkpt><trkpt lat="40.19397829584051" lon="18.24915929512073"><ele>77.0</ele><time>2026-04-06T05:12:18.001Z</time></trkpt><trkpt lat="40.19403040594773" lon="18.24949575122959"><ele>78.0</ele><time>2026-04-06T05:12:19.001Z</time></trkpt><trkpt lat="40.19408067314211" lon="18.24983016895549"><ele>79.0</ele><time>2026-04-06T05:12:20.001Z</time></trkpt><trkpt lat="40.19413038504076" lon="18.250165734836457"><ele>79.0</ele><time>2026-04-06T05:12:21.001Z</time></trkpt><trkpt lat="40.19418202921627" lon="18.25050235937581"><ele>79.0</ele><time>2026-04-06T05:12:22.001Z</time></trkpt><trkpt lat="40.19423474310415" lon="18.250838240330108"><ele>79.5</ele><time>2026-04-06T05:12:23.001Z</time></trkpt><trkpt lat="40.19428526456159" lon="18.25117347715348"><ele>80.0</ele><time>2026-04-06T05:12:24.001Z</time></trkpt><trkpt lat="40.194335999571265" lon="18.25150818064984"><ele>80.5</ele><time>2026-04-06T05:12:25.001Z</time></trkpt><trkpt lat="40.194387089233814" lon="18.25184612953915"><ele>81.0</ele><time>2026-04-06T05:12:26.001Z</time></trkpt><trkpt lat="40.194441155742496" lon="18.252188660066853"><ele>81.5</ele><time>2026-04-06T05:12:27.001Z</time></trkpt><trkpt lat="40.19449700844739" lon="18.252531188366167"><ele>82.0</ele><time>2026-04-06T05:12:28.001Z</time></trkpt><trkpt lat="40.19455370472513" lon="18.25287573431158"><ele>82.0</ele><time>2026-04-06T05:12:29.001Z</time></trkpt><trkpt lat="40.194609101976" lon="18.2532238886779"><ele>82.0</ele><time>2026-04-06T05:12:30.001Z</time></trkpt><trkpt lat="40.19466115250808" lon="18.253568845450857"><ele>82.0</ele><time>2026-04-06T05:12:31.001Z</time></trkpt><trkpt lat="40.19471065411782" lon="18.253913009596154"><ele>82.0</ele><time>2026-04-06T05:12:32.001Z</time></trkpt><trkpt lat="40.194764399955076" lon="18.254258446737225"><ele>81.0</ele><time>2026-04-06T05:12:33.001Z</time></trkpt><trkpt lat="40.19481660341284" lon="18.254609039564862"><ele>80.0</ele><time>2026-04-06T05:12:34.001Z</time></trkpt><trkpt lat="40.19487014529305" lon="18.25496581999438"><ele>80.0</ele><time>2026-04-06T05:12:35.001Z</time></trkpt><trkpt lat="40.194926219920596" lon="18.255320336492417"><ele>80.0</ele><time>2026-04-06T05:12:36.001Z</time></trkpt><trkpt lat="40.194975398338705" lon="18.255673452787484"><ele>79.5</ele><time>2026-04-06T05:12:37.001Z</time></trkpt><trkpt lat="40.19502216509304" lon="18.25602631926817"><ele>79.0</ele><time>2026-04-06T05:12:38.001Z</time></trkpt><trkpt lat="40.19507151821418" lon="18.256369578708156"><ele>79.5</ele><time>2026-04-06T05:12:39.001Z</time></trkpt><trkpt lat="40.195124481726744" lon="18.256710573247613"><ele>80.0</ele><time>2026-04-06T05:12:40.001Z</time></trkpt><trkpt lat="40.19517554124997" lon="18.257050352578073"><ele>80.5</ele><time>2026-04-06T05:12:41.001Z</time></trkpt><trkpt lat="40.19521922875766" lon="18.257390172080047"><ele>81.0</ele><time>2026-04-06T05:12:42.001Z</time></trkpt><trkpt lat="40.19526872762341" lon="18.2577365536207"><ele>81.0</ele><time>2026-04-06T05:12:43.001Z</time></trkpt><trkpt lat="40.195311283959725" lon="18.25809001679267"><ele>81.0</ele><time>2026-04-06T05:12:44.001Z</time></trkpt><trkpt lat="40.19534665346" lon="18.258451761228763"><ele>81.5</ele><time>2026-04-06T05:12:45.001Z</time></trkpt><trkpt lat="40.195395571011076" lon="18.25880696809563"><ele>82.0</ele><time>2026-04-06T05:12:46.001Z</time></trkpt><trkpt lat="40.195449713836254" lon="18.25914978269529"><ele>82.5</ele><time>2026-04-06T05:12:47.001Z</time></trkpt><trkpt lat="40.19550491480059" lon="18.259500068438975"><ele>83.0</ele><time>2026-04-06T05:12:48.001Z</time></trkpt><trkpt lat="40.19555972475146" lon="18.259848430139122"><ele>83.5</ele><time>2026-04-06T05:12:49Z</time></trkpt><trkpt lat="40.19567666993066" lon="18.260217042660557"><ele>84.0</ele><time>2026-04-06T05:12:50Z</time></trkpt><trkpt lat="40.19573846318905" lon="18.26058007163537"><ele>84.5</ele><time>2026-04-06T05:12:51Z</time></trkpt><trkpt lat="40.19580080634332" lon="18.260946498460974"><ele>85.0</ele><time>2026-04-06T05:12:52Z</time></trkpt><trkpt lat="40.19586269079925" lon="18.261316663754624"><ele>83.5</ele><time>2026-04-06T05:12:53Z</time></trkpt><trkpt lat="40.19591921624566" lon="18.26168690141904"><ele>82.0</ele><time>2026-04-06T05:12:54Z</time></trkpt><trkpt lat="40.19597339075933" lon="18.262053726847057"><ele>81.5</ele><time>2026-04-06T05:12:55Z</time></trkpt><trkpt lat="40.196026164420985" lon="18.262416133646475"><ele>81.0</ele><time>2026-04-06T05:12:56Z</time></trkpt><trkpt lat="40.19608051711011" lon="18.262779171883565"><ele>80.5</ele><time>2026-04-06T05:12:57Z</time></trkpt><trkpt lat="40.196138024089876" lon="18.263139749493387"><ele>80.0</ele><time>2026-04-06T05:12:58Z</time></trkpt><trkpt lat="40.196193961826516" lon="18.26348908004275"><ele>80.0</ele><time>2026-04-06T05:12:59Z</time></trkpt><trkpt lat="40.196247794110874" lon="18.263828985078888"><ele>80.0</ele><time>2026-04-06T05:13:00Z</time></trkpt><trkpt lat="40.19630044393212" lon="18.264165379903538"><ele>79.5</ele><time>2026-04-06T05:13:01Z</time></trkpt><trkpt lat="40.19635586851505" lon="18.26450137745136"><ele>79.0</ele><time>2026-04-06T05:13:02Z</time></trkpt><trkpt lat="40.19640977850794" lon="18.26485655983706"><ele>79.0</ele><time>2026-04-06T05:13:03Z</time></trkpt><trkpt lat="40.19646241917099" lon="18.26522322796721"><ele>79.0</ele><time>2026-04-06T05:13:04Z</time></trkpt><trkpt lat="40.19651630233492" lon="18.265593233045834"><ele>79.5</ele><time>2026-04-06T05:13:05Z</time></trkpt><trkpt lat="40.19656677930919" lon="18.265967787515546"><ele>80.0</ele><time>2026-04-06T05:13:06Z</time></trkpt><trkpt lat="40.19662152004888" lon="18.26634063426799"><ele>80.0</ele><time>2026-04-06T05:13:07Z</time></trkpt><trkpt lat="40.196675836589094" lon="18.266709517628996"><ele>80.0</ele><time>2026-04-06T05:13:08Z</time></trkpt><trkpt lat="40.19673095602525" lon="18.267073269505158"><ele>80.5</ele><time>2026-04-06T05:13:09Z</time></trkpt><trkpt lat="40.19678975695053" lon="18.267426831785887"><ele>81.0</ele><time>2026-04-06T05:13:10Z</time></trkpt><trkpt lat="40.19684417076182" lon="18.26777460004038"><ele>81.5</ele><time>2026-04-06T05:13:11Z</time></trkpt><trkpt lat="40.19690059277196" lon="18.2681235037005"><ele>82.0</ele><time>2026-04-06T05:13:12Z</time></trkpt><trkpt lat="40.19694958901658" lon="18.268466462073363"><ele>82.0</ele><time>2026-04-06T05:13:13Z</time></trkpt><trkpt lat="40.19700078878345" lon="18.26880975775173"><ele>82.0</ele><time>2026-04-06T05:13:14Z</time></trkpt><trkpt lat="40.19704602264702" lon="18.269150603328555"><ele>82.0</ele><time>2026-04-06T05:13:15Z</time></trkpt><trkpt lat="40.19710099607719" lon="18.269487418564417"><ele>82.0</ele><time>2026-04-06T05:13:16Z</time></trkpt><trkpt lat="40.197153016225215" lon="18.269819296801575"><ele>82.0</ele><time>2026-04-06T05:13:17Z</time></trkpt><trkpt lat="40.197209234545966" lon="18.27015165695286"><ele>82.0</ele><time>2026-04-06T05:13:18Z</time></trkpt><trkpt lat="40.197261748931915" lon="18.27049302042174"><ele>82.0</ele><time>2026-04-06T05:13:19Z</time></trkpt><trkpt lat="40.197312789026306" lon="18.27083185321264"><ele>82.0</ele><time>2026-04-06T05:13:20Z</time></trkpt><trkpt lat="40.197363270488424" lon="18.271172489380568"><ele>82.5</ele><time>2026-04-06T05:13:21Z</time></trkpt><trkpt lat="40.197414480205595" lon="18.271518421193676"><ele>83.0</ele><time>2026-04-06T05:13:22Z</time></trkpt><trkpt lat="40.19746731138304" lon="18.27186566278881"><ele>83.0</ele><time>2026-04-06T05:13:23Z</time></trkpt><trkpt lat="40.19751885089493" lon="18.27221399317666"><ele>83.0</ele><time>2026-04-06T05:13:24Z</time></trkpt><trkpt lat="40.197577534886115" lon="18.272561861444917"><ele>83.0</ele><time>2026-04-06T05:13:25Z</time></trkpt><trkpt lat="40.19763267494295" lon="18.27291700889289"><ele>83.0</ele><time>2026-04-06T05:13:26Z</time></trkpt><trkpt lat="40.197689749966074" lon="18.27327531746271"><ele>83.0</ele><time>2026-04-06T05:13:27Z</time></trkpt><trkpt lat="40.19774404566387" lon="18.273635902047843"><ele>83.0</ele><time>2026-04-06T05:13:28Z</time></trkpt><trkpt lat="40.1978000381376" lon="18.273998166932483"><ele>82.5</ele><time>2026-04-06T05:13:29Z</time></trkpt><trkpt lat="40.19785514834584" lon="18.274359475747367"><ele>82.0</ele><time>2026-04-06T05:13:30Z</time></trkpt><trkpt lat="40.19791390636473" lon="18.274721402665755"><ele>82.0</ele><time>2026-04-06T05:13:31Z</time></trkpt><trkpt lat="40.19796775973687" lon="18.275080714412503"><ele>82.0</ele><time>2026-04-06T05:13:32Z</time></trkpt><trkpt lat="40.19802401971935" lon="18.275440002504396"><ele>80.5</ele><time>2026-04-06T05:13:33Z</time></trkpt><trkpt lat="40.19807652854546" lon="18.27580593128729"><ele>79.0</ele><time>2026-04-06T05:13:34Z</time></trkpt><trkpt lat="40.198130763180416" lon="18.276170025972654"><ele>78.5</ele><time>2026-04-06T05:13:35Z</time></trkpt><trkpt lat="40.198191073412694" lon="18.276536545647172"><ele>78.0</ele><time>2026-04-06T05:13:36Z</time></trkpt><trkpt lat="40.198246234349625" lon="18.276903372283225"><ele>78.0</ele><time>2026-04-06T05:13:37Z</time></trkpt><trkpt lat="40.198304269010094" lon="18.277269831285448"><ele>78.0</ele><time>2026-04-06T05:13:38Z</time></trkpt><trkpt lat="40.19836066232491" lon="18.27763350579618"><ele>78.0</ele><time>2026-04-06T05:13:39Z</time></trkpt><trkpt lat="40.19841749882571" lon="18.278004500107002"><ele>78.0</ele><time>2026-04-06T05:13:40Z</time></trkpt><trkpt lat="40.19847588613419" lon="18.27836990391859"><ele>78.0</ele><time>2026-04-06T05:13:41Z</time></trkpt><trkpt lat="40.1985334312703" lon="18.27873605403659"><ele>78.0</ele><time>2026-04-06T05:13:42Z</time></trkpt><trkpt lat="40.19859046082419" lon="18.27909964803924"><ele>78.0</ele><time>2026-04-06T05:13:43.001Z</time></trkpt><trkpt lat="40.1986471712548" lon="18.2794566359232"><ele>78.0</ele><time>2026-04-06T05:13:44.001Z</time></trkpt><trkpt lat="40.19869728408941" lon="18.279810738748147"><ele>78.0</ele><time>2026-04-06T05:13:45.001Z</time></trkpt><trkpt lat="40.19875021929466" lon="18.28016197335229"><ele>78.0</ele><time>2026-04-06T05:13:46.001Z</time></trkpt><trkpt lat="40.1988046182075" lon="18.280514095490904"><ele>78.5</ele><time>2026-04-06T05:13:47.001Z</time></trkpt><trkpt lat="40.19885531486808" lon="18.280865263552098"><ele>79.0</ele><time>2026-04-06T05:13:48.001Z</time></trkpt><trkpt lat="40.19890814214051" lon="18.28121570892707"><ele>79.0</ele><time>2026-04-06T05:13:49.001Z</time></trkpt><trkpt lat="40.19896384911052" lon="18.281558779222138"><ele>79.0</ele><time>2026-04-06T05:13:50.001Z</time></trkpt><trkpt lat="40.19901521791894" lon="18.281903041203112"><ele>79.5</ele><time>2026-04-06T05:13:51.001Z</time></trkpt><trkpt lat="40.199066929917784" lon="18.28224344510443"><ele>80.0</ele><time>2026-04-06T05:13:52.001Z</time></trkpt><trkpt lat="40.199119871840516" lon="18.28258151059494"><ele>80.5</ele><time>2026-04-06T05:13:53.001Z</time></trkpt><trkpt lat="40.19917056058031" lon="18.28291594995642"><ele>81.0</ele><time>2026-04-06T05:13:54.001Z</time></trkpt><trkpt lat="40.199225144932754" lon="18.2832508019948"><ele>81.5</ele><time>2026-04-06T05:13:55.001Z</time></trkpt><trkpt lat="40.19927617424548" lon="18.28358564623172"><ele>82.0</ele><time>2026-04-06T05:13:56.001Z</time></trkpt><trkpt lat="40.19932587951642" lon="18.2839135669871"><ele>82.0</ele><time>2026-04-06T05:13:57.001Z</time></trkpt><trkpt lat="40.199375446283014" lon="18.28424202990815"><ele>82.0</ele><time>2026-04-06T05:13:58.001Z</time></trkpt><trkpt lat="40.19942675280098" lon="18.28456724898942"><ele>81.0</ele><time>2026-04-06T05:13:59.001Z</time></trkpt><trkpt lat="40.199479791882084" lon="18.28488595314974"><ele>80.0</ele><time>2026-04-06T05:14:00.001Z</time></trkpt><trkpt lat="40.199529432983944" lon="18.285192785562394"><ele>80.0</ele><time>2026-04-06T05:14:01.001Z</time></trkpt><trkpt lat="40.19956647777437" lon="18.285473599101007"><ele>80.0</ele><time>2026-04-06T05:14:02.001Z</time></trkpt><trkpt lat="40.1996131801715" lon="18.285744772515923"><ele>80.0</ele><time>2026-04-06T05:14:03.001Z</time></trkpt><trkpt lat="40.199653332101725" lon="18.28601610712142"><ele>79.66666666666667</ele><time>2026-04-06T05:14:04.001Z</time></trkpt><trkpt lat="40.199694048811" lon="18.28629647677496"><ele>79.33333333333333</ele><time>2026-04-06T05:14:05.001Z</time></trkpt><trkpt lat="40.19973631024041" lon="18.286583370702083"><ele>79.0</ele><time>2026-04-06T05:14:06.001Z</time></trkpt><trkpt lat="40.19977391172902" lon="18.28686167705867"><ele>79.0</ele><time>2026-04-06T05:14:07.001Z</time></trkpt><trkpt lat="40.19981932819773" lon="18.287128332343492"><ele>79.0</ele><time>2026-04-06T05:14:08.001Z</time></trkpt><trkpt lat="40.19985732033738" lon="18.287389308947"><ele>79.0</ele><time>2026-04-06T05:14:09.001Z</time></trkpt><trkpt lat="40.19990291831124" lon="18.287652780379116"><ele>79.0</ele><time>2026-04-06T05:14:10.001Z</time></trkpt><trkpt lat="40.19994878535151" lon="18.28792769896548"><ele>79.0</ele><time>2026-04-06T05:14:11.001Z</time></trkpt><trkpt lat="40.19999556437781" lon="18.28821468518413"><ele>79.0</ele><time>2026-04-06T05:14:12.001Z</time></trkpt><trkpt lat="40.20003827950342" lon="18.288503131461386"><ele>79.0</ele><time>2026-04-06T05:14:13.001Z</time></trkpt><trkpt lat="40.20008391605319" lon="18.288787034621862"><ele>79.0</ele><time>2026-04-06T05:14:14.001Z</time></trkpt><trkpt lat="40.20012389861916" lon="18.289065355212912"><ele>79.0</ele><time>2026-04-06T05:14:15.001Z</time></trkpt><trkpt lat="40.200165001490845" lon="18.28933140011405"><ele>79.0</ele><time>2026-04-06T05:14:16.001Z</time></trkpt><trkpt lat="40.20020281572436" lon="18.28958111064482"><ele>79.0</ele><time>2026-04-06T05:14:17.001Z</time></trkpt><trkpt lat="40.20024328625444" lon="18.289826120891398"><ele>79.0</ele><time>2026-04-06T05:14:18.001Z</time></trkpt><trkpt lat="40.200279207679834" lon="18.290063296989825"><ele>79.33333333333333</ele><time>2026-04-06T05:14:19.001Z</time></trkpt><trkpt lat="40.20031017513222" lon="18.290283379977765"><ele>79.66666666666667</ele><time>2026-04-06T05:14:20.001Z</time></trkpt><trkpt lat="40.20034113802298" lon="18.290476738518908"><ele>80.0</ele><time>2026-04-06T05:14:21.001Z</time></trkpt><trkpt lat="40.20036633263207" lon="18.290647169725553"><ele>80.4</ele><time>2026-04-06T05:14:22.001Z</time></trkpt><trkpt lat="40.20037909610388" lon="18.290799467625327"><ele>80.8</ele><time>2026-04-06T05:14:23.001Z</time></trkpt><trkpt lat="40.200386456170314" lon="18.290931185215143"><ele>81.19999999999999</ele><time>2026-04-06T05:14:24.001Z</time></trkpt><trkpt lat="40.200388400580344" lon="18.29105330172656"><ele>81.6</ele><time>2026-04-06T05:14:25.001Z</time></trkpt><trkpt lat="40.200385394385854" lon="18.29115488816732"><ele>82.0</ele><time>2026-04-06T05:14:26.001Z</time></trkpt><trkpt lat="40.200368713365776" lon="18.291239136619872"><ele>82.0</ele><time>2026-04-06T05:14:27.001Z</time></trkpt><trkpt lat="40.20034842282788" lon="18.2913297582308"><ele>82.0</ele><time>2026-04-06T05:14:28.001Z</time></trkpt><trkpt lat="40.20032389334175" lon="18.2914189782518"><ele>82.0</ele><time>2026-04-06T05:14:29.001Z</time></trkpt><trkpt lat="40.20033572738964" lon="18.29153432428829"><ele>82.0</ele><time>2026-04-06T05:14:31.001Z</time></trkpt><trkpt lat="40.200361610382195" lon="18.29161181947739"><ele>82.0</ele><time>2026-04-06T05:14:32.001Z</time></trkpt><trkpt lat="40.20044962060549" lon="18.29164592546175"><ele>82.0</ele><time>2026-04-06T05:14:33.001Z</time></trkpt><trkpt lat="40.200525116309365" lon="18.291690903708343"><ele>82.0</ele><time>2026-04-06T05:14:34.001Z</time></trkpt><trkpt lat="40.200571021617584" lon="18.29175912984435"><ele>82.0</ele><time>2026-04-06T05:14:35.001Z</time></trkpt><trkpt lat="40.20059310054917" lon="18.291854078049504"><ele>82.0</ele><time>2026-04-06T05:14:36.001Z</time></trkpt><trkpt lat="40.2005794644249" lon="18.292014158611405"><ele>82.0</ele><time>2026-04-06T05:14:37.001Z</time></trkpt><trkpt lat="40.20060532406748" lon="18.292186108735564"><ele>82.0</ele><time>2026-04-06T05:14:38.001Z</time></trkpt><trkpt lat="40.200630642587505" lon="18.29235289466373"><ele>82.19999999999999</ele><time>2026-04-06T05:14:39.001Z</time></trkpt><trkpt lat="40.20065506702774" lon="18.292513534359436"><ele>82.4</ele><time>2026-04-06T05:14:40.001Z</time></trkpt><trkpt lat="40.200691234829264" lon="18.292649295618542"><ele>82.6</ele><time>2026-04-06T05:14:41.001Z</time></trkpt><trkpt lat="40.200696304324836" lon="18.29275519416382"><ele>82.80000000000001</ele><time>2026-04-06T05:14:42.001Z</time></trkpt><trkpt lat="40.20071514864547" lon="18.29283960778083"><ele>83.0</ele><time>2026-04-06T05:14:43.001Z</time></trkpt><trkpt lat="40.200721807103605" lon="18.29294582617418"><ele>83.5</ele><time>2026-04-06T05:14:45.001Z</time></trkpt><trkpt lat="40.20074467141835" lon="18.29303794783161"><ele>84.0</ele><time>2026-04-06T05:14:54.002Z</time></trkpt><trkpt lat="40.20077036777477" lon="18.293191806168505"><ele>84.5</ele><time>2026-04-06T05:14:56Z</time></trkpt><trkpt lat="40.20077588446439" lon="18.293317441441364"><ele>85.0</ele><time>2026-04-06T05:14:58Z</time></trkpt><trkpt lat="40.200948965293506" lon="18.293308229954235"><ele>85.2</ele><time>2026-04-06T05:15:00Z</time></trkpt><trkpt lat="40.2010294985842" lon="18.293270738226084"><ele>85.4</ele><time>2026-04-06T05:15:01Z</time></trkpt><trkpt lat="40.20111250985854" lon="18.29321870854697"><ele>85.6</ele><time>2026-04-06T05:15:02Z</time></trkpt><trkpt lat="40.20120555065403" lon="18.293182699809027"><ele>85.8</ele><time>2026-04-06T05:15:03Z</time></trkpt><trkpt lat="40.20131929559116" lon="18.293153140700618"><ele>86.0</ele><time>2026-04-06T05:15:04Z</time></trkpt><trkpt lat="40.20144895758744" lon="18.293131917486004"><ele>86.25</ele><time>2026-04-06T05:15:05Z</time></trkpt><trkpt lat="40.20157061008743" lon="18.293102702048657"><ele>86.5</ele><time>2026-04-06T05:15:06Z</time></trkpt><trkpt lat="40.20170094117416" lon="18.29308388117543"><ele>86.75</ele><time>2026-04-06T05:15:07Z</time></trkpt><trkpt lat="40.20183560685208" lon="18.29305352034813"><ele>87.0</ele><time>2026-04-06T05:15:08Z</time></trkpt><trkpt lat="40.20197215947759" lon="18.293026044528617"><ele>86.5</ele><time>2026-04-06T05:15:09Z</time></trkpt><trkpt lat="40.20210584346231" lon="18.29299380051314"><ele>86.0</ele><time>2026-04-06T05:15:10Z</time></trkpt><trkpt lat="40.20223316087852" lon="18.29297630675736"><ele>85.5</ele><time>2026-04-06T05:15:11Z</time></trkpt><trkpt lat="40.20234380275949" lon="18.292934358887138"><ele>85.0</ele><time>2026-04-06T05:15:12Z</time></trkpt><trkpt lat="40.202451269713414" lon="18.292935669549685"><ele>84.8</ele><time>2026-04-06T05:15:13Z</time></trkpt><trkpt lat="40.2025555967616" lon="18.2929069557608"><ele>84.6</ele><time>2026-04-06T05:15:14Z</time></trkpt><trkpt lat="40.20263827625843" lon="18.29290572311425"><ele>84.4</ele><time>2026-04-06T05:15:15Z</time></trkpt><trkpt lat="40.20270987176467" lon="18.292926193132896"><ele>84.2</ele><time>2026-04-06T05:15:16Z</time></trkpt><trkpt lat="40.20280908576653" lon="18.29293144957364"><ele>84.0</ele><time>2026-04-06T05:15:18Z</time></trkpt><trkpt lat="40.20284526738479" lon="18.293147607123718"><ele>84.5</ele><time>2026-04-06T05:15:19Z</time></trkpt><trkpt lat="40.20288990101126" lon="18.29326395349018"><ele>85.0</ele><time>2026-04-06T05:15:20Z</time></trkpt><trkpt lat="40.20292906747623" lon="18.29340647000384"><ele>85.5</ele><time>2026-04-06T05:15:21Z</time></trkpt><trkpt lat="40.20290758824799" lon="18.293566939418458"><ele>86.0</ele><time>2026-04-06T05:15:22Z</time></trkpt><trkpt lat="40.202915241996344" lon="18.29371905407468"><ele>86.0</ele><time>2026-04-06T05:15:23Z</time></trkpt><trkpt lat="40.20293600042349" lon="18.29386357779596"><ele>86.0</ele><time>2026-04-06T05:15:24Z</time></trkpt><trkpt lat="40.20298288554995" lon="18.2939956740428"><ele>86.0</ele><time>2026-04-06T05:15:25Z</time></trkpt><trkpt lat="40.20304106780735" lon="18.294147367001337"><ele>86.0</ele><time>2026-04-06T05:15:26Z</time></trkpt><trkpt lat="40.20310760329835" lon="18.294300106887583"><ele>86.25</ele><time>2026-04-06T05:15:27Z</time></trkpt><trkpt lat="40.20316367501098" lon="18.294465773219606"><ele>86.5</ele><time>2026-04-06T05:15:28Z</time></trkpt><trkpt lat="40.20323399823882" lon="18.294636184679895"><ele>86.75</ele><time>2026-04-06T05:15:29Z</time></trkpt><trkpt lat="40.203304580868796" lon="18.294807366431368"><ele>87.0</ele><time>2026-04-06T05:15:30Z</time></trkpt><trkpt lat="40.20337542174707" lon="18.294979538405332"><ele>87.25</ele><time>2026-04-06T05:15:31Z</time></trkpt><trkpt lat="40.20344290640667" lon="18.29514355341902"><ele>87.5</ele><time>2026-04-06T05:15:32Z</time></trkpt><trkpt lat="40.20350564650177" lon="18.295296037220744"><ele>87.75</ele><time>2026-04-06T05:15:33Z</time></trkpt><trkpt lat="40.20356521264409" lon="18.295440412185428"><ele>88.0</ele><time>2026-04-06T05:15:34Z</time></trkpt><trkpt lat="40.20362046805234" lon="18.29557390551923"><ele>88.0</ele><time>2026-04-06T05:15:35Z</time></trkpt><trkpt lat="40.20366889569402" lon="18.29569090342053"><ele>88.0</ele><time>2026-04-06T05:15:36Z</time></trkpt><trkpt lat="40.203708181355864" lon="18.295785814925527"><ele>88.0</ele><time>2026-04-06T05:15:37Z</time></trkpt><trkpt lat="40.203740420654185" lon="18.295863702885896"><ele>88.0</ele><time>2026-04-06T05:15:38Z</time></trkpt><trkpt lat="40.20378631812452" lon="18.295974588068397"><ele>88.0</ele><time>2026-04-06T05:15:40Z</time></trkpt><trkpt lat="40.20382457057542" lon="18.29606700339278"><ele>88.0</ele><time>2026-04-06T05:15:43Z</time></trkpt><trkpt lat="40.20400398452664" lon="18.295932827229937"><ele>88.0</ele><time>2026-04-06T05:15:45Z</time></trkpt><trkpt lat="40.20406417525193" lon="18.29587519788545"><ele>88.0</ele><time>2026-04-06T05:15:46Z</time></trkpt><trkpt lat="40.20413014252333" lon="18.29580855890426"><ele>88.0</ele><time>2026-04-06T05:15:47Z</time></trkpt><trkpt lat="40.20420836496039" lon="18.29573064052557"><ele>88.0</ele><time>2026-04-06T05:15:48Z</time></trkpt><trkpt lat="40.20429510668353" lon="18.295650043300018"><ele>88.0</ele><time>2026-04-06T05:15:49Z</time></trkpt><trkpt lat="40.20438522917369" lon="18.29556069802958"><ele>88.0</ele><time>2026-04-06T05:15:50Z</time></trkpt><trkpt lat="40.2044787335434" lon="18.295472874276076"><ele>88.0</ele><time>2026-04-06T05:15:51Z</time></trkpt><trkpt lat="40.20456207996617" lon="18.295398603286788"><ele>88.0</ele><time>2026-04-06T05:15:52Z</time></trkpt><trkpt lat="40.204644026389104" lon="18.2953208975866"><ele>88.0</ele><time>2026-04-06T05:15:53Z</time></trkpt><trkpt lat="40.20471684966855" lon="18.295251138357795"><ele>88.0</ele><time>2026-04-06T05:15:54Z</time></trkpt><trkpt lat="40.20479577675477" lon="18.29521197461432"><ele>88.0</ele><time>2026-04-06T05:15:55Z</time></trkpt><trkpt lat="40.20487858269193" lon="18.29512661102451"><ele>88.0</ele><time>2026-04-06T05:15:57Z</time></trkpt><trkpt lat="40.20494229745532" lon="18.295088142387666"><ele>88.0</ele><time>2026-04-06T05:15:59Z</time></trkpt><trkpt lat="40.20500206945166" lon="18.295316067819698"><ele>88.0</ele><time>2026-04-06T05:16:03Z</time></trkpt><trkpt lat="40.20502486259111" lon="18.295431715165527"><ele>88.0</ele><time>2026-04-06T05:16:04Z</time></trkpt><trkpt lat="40.20504603131542" lon="18.295547109840502"><ele>88.0</ele><time>2026-04-06T05:16:05Z</time></trkpt><trkpt lat="40.20506347686034" lon="18.295670198287596"><ele>88.0</ele><time>2026-04-06T05:16:06Z</time></trkpt><trkpt lat="40.20509300469436" lon="18.295801203677236"><ele>88.0</ele><time>2026-04-06T05:16:07Z</time></trkpt><trkpt lat="40.20512689607331" lon="18.29593581396299"><ele>88.0</ele><time>2026-04-06T05:16:08Z</time></trkpt><trkpt lat="40.20513393756357" lon="18.29607437786013"><ele>88.2</ele><time>2026-04-06T05:16:09Z</time></trkpt><trkpt lat="40.20515473448947" lon="18.296210093764298"><ele>88.4</ele><time>2026-04-06T05:16:10Z</time></trkpt><trkpt lat="40.20517656267776" lon="18.296357557761347"><ele>88.60000000000001</ele><time>2026-04-06T05:16:11.001Z</time></trkpt><trkpt lat="40.20520153053386" lon="18.296499841681438"><ele>88.80000000000001</ele><time>2026-04-06T05:16:12.001Z</time></trkpt><trkpt lat="40.20522996559855" lon="18.29664784703141"><ele>89.0</ele><time>2026-04-06T05:16:13.001Z</time></trkpt><trkpt lat="40.20523676142516" lon="18.296802709851857"><ele>88.5</ele><time>2026-04-06T05:16:14.001Z</time></trkpt><trkpt lat="40.205258432114476" lon="18.296960417674146"><ele>88.0</ele><time>2026-04-06T05:16:15.001Z</time></trkpt><trkpt lat="40.20527897371142" lon="18.297114492667223"><ele>87.5</ele><time>2026-04-06T05:16:16.001Z</time></trkpt><trkpt lat="40.20530072256285" lon="18.297277566997508"><ele>87.0</ele><time>2026-04-06T05:16:17.001Z</time></trkpt><trkpt lat="40.205321808803944" lon="18.29743567301369"><ele>87.0</ele><time>2026-04-06T05:16:18.001Z</time></trkpt><trkpt lat="40.2053545349085" lon="18.297599979981356"><ele>87.0</ele><time>2026-04-06T05:16:19.001Z</time></trkpt><trkpt lat="40.2053540985868" lon="18.29776505770385"><ele>87.0</ele><time>2026-04-06T05:16:20.018Z</time></trkpt><trkpt lat="40.20537821592424" lon="18.29793865124532"><ele>87.0</ele><time>2026-04-06T05:16:21.019Z</time></trkpt><trkpt lat="40.20541222298806" lon="18.298103011475476"><ele>87.0</ele><time>2026-04-06T05:16:22.022Z</time></trkpt><trkpt lat="40.20543879742949" lon="18.298261524156995"><ele>87.0</ele><time>2026-04-06T05:16:23.025Z</time></trkpt><trkpt lat="40.20546854542026" lon="18.29841031554775"><ele>87.0</ele><time>2026-04-06T05:16:24.022Z</time></trkpt><trkpt lat="40.205485014060976" lon="18.29855021588839"><ele>87.0</ele><time>2026-04-06T05:16:25.001Z</time></trkpt><trkpt lat="40.20550597205069" lon="18.29868199633707"><ele>87.0</ele><time>2026-04-06T05:16:26.001Z</time></trkpt><trkpt lat="40.20552580901868" lon="18.29879233817122"><ele>87.0</ele><time>2026-04-06T05:16:27.001Z</time></trkpt><trkpt lat="40.20552117035033" lon="18.298928206722504"><ele>87.0</ele><time>2026-04-06T05:16:29.001Z</time></trkpt><trkpt lat="40.20553822884605" lon="18.29902689792295"><ele>87.0</ele><time>2026-04-06T05:16:31.001Z</time></trkpt><trkpt lat="40.205533788291184" lon="18.299119792488415"><ele>87.0</ele><time>2026-04-06T05:16:34.001Z</time></trkpt><trkpt lat="40.20543149099054" lon="18.299125169268457"><ele>87.0</ele><time>2026-04-06T05:16:35.001Z</time></trkpt><trkpt lat="40.20532027226752" lon="18.299179676527576"><ele>87.19999999999999</ele><time>2026-04-06T05:16:37.001Z</time></trkpt><trkpt lat="40.20525776126492" lon="18.299224721290102"><ele>87.4</ele><time>2026-04-06T05:16:53.001Z</time></trkpt><trkpt lat="40.20518223680731" lon="18.29922088005691"><ele>87.6</ele><time>2026-04-06T05:16:55.001Z</time></trkpt><trkpt lat="40.205215998248796" lon="18.299459569554795"><ele>87.80000000000001</ele><time>2026-04-06T05:16:57.001Z</time></trkpt><trkpt lat="40.205248720209035" lon="18.299538881146834"><ele>88.0</ele><time>2026-04-06T05:16:58.001Z</time></trkpt><trkpt lat="40.20529900593636" lon="18.299620293752398"><ele>88.0</ele><time>2026-04-06T05:16:59.001Z</time></trkpt><trkpt lat="40.205333702003976" lon="18.299731358888955"><ele>88.0</ele><time>2026-04-06T05:17:00.001Z</time></trkpt><trkpt lat="40.20536834322383" lon="18.299850487479453"><ele>88.0</ele><time>2026-04-06T05:17:01Z</time></trkpt><trkpt lat="40.205425113259956" lon="18.29996460154236"><ele>88.0</ele><time>2026-04-06T05:17:02Z</time></trkpt><trkpt lat="40.20547601105137" lon="18.300079876683473"><ele>88.0</ele><time>2026-04-06T05:17:03Z</time></trkpt><trkpt lat="40.20553635650075" lon="18.300184165916605"><ele>88.2</ele><time>2026-04-06T05:17:04Z</time></trkpt><trkpt lat="40.20557723518048" lon="18.300319687835465"><ele>88.4</ele><time>2026-04-06T05:17:05Z</time></trkpt><trkpt lat="40.205627111871856" lon="18.300437851236833"><ele>88.60000000000001</ele><time>2026-04-06T05:17:06Z</time></trkpt><trkpt lat="40.20567407199852" lon="18.30054910496591"><ele>88.80000000000001</ele><time>2026-04-06T05:17:07Z</time></trkpt><trkpt lat="40.20570936975712" lon="18.30065464510498"><ele>89.0</ele><time>2026-04-06T05:17:08Z</time></trkpt><trkpt lat="40.20575071521664" lon="18.300768250602133"><ele>88.2</ele><time>2026-04-06T05:17:09Z</time></trkpt><trkpt lat="40.205790964926926" lon="18.300873519364917"><ele>87.4</ele><time>2026-04-06T05:17:10Z</time></trkpt><trkpt lat="40.205858755407704" lon="18.300991648059316"><ele>86.6</ele><time>2026-04-06T05:17:11Z</time></trkpt><trkpt lat="40.2059000420683" lon="18.301093882926903"><ele>85.8</ele><time>2026-04-06T05:17:12Z</time></trkpt><trkpt lat="40.20594638834404" lon="18.30119749196378"><ele>85.0</ele><time>2026-04-06T05:17:13Z</time></trkpt><trkpt lat="40.20598444924397" lon="18.301295257032617"><ele>85.0</ele><time>2026-04-06T05:17:14Z</time></trkpt><trkpt lat="40.20603217449298" lon="18.301404995323935"><ele>85.0</ele><time>2026-04-06T05:17:15Z</time></trkpt><trkpt lat="40.206082417955145" lon="18.301523426802262"><ele>85.0</ele><time>2026-04-06T05:17:16Z</time></trkpt><trkpt lat="40.20611597225217" lon="18.301627049901228"><ele>85.0</ele><time>2026-04-06T05:17:17Z</time></trkpt><trkpt lat="40.20615366556278" lon="18.301733011301486"><ele>85.0</ele><time>2026-04-06T05:17:18Z</time></trkpt><trkpt lat="40.20619306917119" lon="18.30184103940335"><ele>84.5</ele><time>2026-04-06T05:17:19Z</time></trkpt><trkpt lat="40.206224081144754" lon="18.3019364025229"><ele>84.0</ele><time>2026-04-06T05:17:20Z</time></trkpt><trkpt lat="40.206257587962156" lon="18.30202644867394"><ele>83.5</ele><time>2026-04-06T05:17:21Z</time></trkpt><trkpt lat="40.20628014074574" lon="18.302115190707696"><ele>83.0</ele><time>2026-04-06T05:17:22Z</time></trkpt><trkpt lat="40.2063107940432" lon="18.302223987737417"><ele>82.5</ele><time>2026-04-06T05:17:23Z</time></trkpt><trkpt lat="40.20633872811586" lon="18.302358691096575"><ele>82.0</ele><time>2026-04-06T05:17:24Z</time></trkpt><trkpt lat="40.20635573835896" lon="18.302527065203755"><ele>81.75</ele><time>2026-04-06T05:17:25Z</time></trkpt><trkpt lat="40.206401506209794" lon="18.302687360571387"><ele>81.5</ele><time>2026-04-06T05:17:26Z</time></trkpt><trkpt lat="40.2064042207581" lon="18.302854473683826"><ele>81.25</ele><time>2026-04-06T05:17:27Z</time></trkpt><trkpt lat="40.20644034113567" lon="18.303010074879875"><ele>81.0</ele><time>2026-04-06T05:17:28Z</time></trkpt><trkpt lat="40.20649014071301" lon="18.30314534408292"><ele>80.75</ele><time>2026-04-06T05:17:29Z</time></trkpt><trkpt lat="40.206518748751776" lon="18.3032709614067"><ele>80.5</ele><time>2026-04-06T05:17:30Z</time></trkpt><trkpt lat="40.2065582671685" lon="18.303420932894213"><ele>80.25</ele><time>2026-04-06T05:17:31Z</time></trkpt><trkpt lat="40.20659983338447" lon="18.303574596475944"><ele>80.0</ele><time>2026-04-06T05:17:32Z</time></trkpt><trkpt lat="40.206631152874984" lon="18.30371569741561"><ele>80.0</ele><time>2026-04-06T05:17:33Z</time></trkpt><trkpt lat="40.20666625067741" lon="18.303869309783256"><ele>80.0</ele><time>2026-04-06T05:17:34Z</time></trkpt><trkpt lat="40.2066959227985" lon="18.304032081912478"><ele>80.0</ele><time>2026-04-06T05:17:35Z</time></trkpt><trkpt lat="40.20674006920569" lon="18.30419559696219"><ele>80.0</ele><time>2026-04-06T05:17:36Z</time></trkpt><trkpt lat="40.206758284890114" lon="18.30435094156161"><ele>79.75</ele><time>2026-04-06T05:17:37Z</time></trkpt><trkpt lat="40.20679156176465" lon="18.304498719373967"><ele>79.5</ele><time>2026-04-06T05:17:38Z</time></trkpt><trkpt lat="40.2068248958679" lon="18.30464667666408"><ele>79.25</ele><time>2026-04-06T05:17:39Z</time></trkpt><trkpt lat="40.20685640642587" lon="18.304786539948793"><ele>79.0</ele><time>2026-04-06T05:17:40Z</time></trkpt><trkpt lat="40.206888203036144" lon="18.304927672896834"><ele>78.75</ele><time>2026-04-06T05:17:41Z</time></trkpt><trkpt lat="40.20691994124668" lon="18.305068546612805"><ele>78.5</ele><time>2026-04-06T05:17:42Z</time></trkpt><trkpt lat="40.20695169107108" lon="18.305204639011222"><ele>78.25</ele><time>2026-04-06T05:17:43Z</time></trkpt><trkpt lat="40.20700116540216" lon="18.305343578561374"><ele>78.0</ele><time>2026-04-06T05:17:44Z</time></trkpt><trkpt lat="40.20705002285317" lon="18.30548307262979"><ele>78.0</ele><time>2026-04-06T05:17:45Z</time></trkpt><trkpt lat="40.20710898778993" lon="18.305615829879198"><ele>78.0</ele><time>2026-04-06T05:17:46Z</time></trkpt><trkpt lat="40.20716154762548" lon="18.305743928158677"><ele>78.0</ele><time>2026-04-06T05:17:47Z</time></trkpt><trkpt lat="40.207215337720164" lon="18.3058641210928"><ele>78.0</ele><time>2026-04-06T05:17:48Z</time></trkpt><trkpt lat="40.20726406077955" lon="18.30597049550484"><ele>78.0</ele><time>2026-04-06T05:17:49Z</time></trkpt><trkpt lat="40.20731598735888" lon="18.30608525648457"><ele>78.0</ele><time>2026-04-06T05:17:50Z</time></trkpt><trkpt lat="40.20737318934086" lon="18.306205465560538"><ele>78.0</ele><time>2026-04-06T05:17:51Z</time></trkpt><trkpt lat="40.207421803556834" lon="18.306323682157252"><ele>78.0</ele><time>2026-04-06T05:17:52Z</time></trkpt><trkpt lat="40.207486230642246" lon="18.30645184157407"><ele>78.0</ele><time>2026-04-06T05:17:53.001Z</time></trkpt><trkpt lat="40.20755081532708" lon="18.30657993017935"><ele>78.0</ele><time>2026-04-06T05:17:54.001Z</time></trkpt><trkpt lat="40.207590098032355" lon="18.306706996241303"><ele>78.0</ele><time>2026-04-06T05:17:55.001Z</time></trkpt><trkpt lat="40.20764068156371" lon="18.30682242784288"><ele>78.0</ele><time>2026-04-06T05:17:56.001Z</time></trkpt><trkpt lat="40.207693112541946" lon="18.30693756069826"><ele>78.0</ele><time>2026-04-06T05:17:57.001Z</time></trkpt><trkpt lat="40.20775861252535" lon="18.30703976600392"><ele>78.0</ele><time>2026-04-06T05:17:58.001Z</time></trkpt><trkpt lat="40.20781124114482" lon="18.307149880706238"><ele>78.0</ele><time>2026-04-06T05:17:59.001Z</time></trkpt><trkpt lat="40.20786596067386" lon="18.307242704436085"><ele>78.0</ele><time>2026-04-06T05:18:00.001Z</time></trkpt><trkpt lat="40.20791515904616" lon="18.307337635197577"><ele>78.0</ele><time>2026-04-06T05:18:01.001Z</time></trkpt><trkpt lat="40.2079755745922" lon="18.307441862160744"><ele>78.0</ele><time>2026-04-06T05:18:02.001Z</time></trkpt><trkpt lat="40.20802723807862" lon="18.307552741582313"><ele>78.0</ele><time>2026-04-06T05:18:03.001Z</time></trkpt><trkpt lat="40.20807983866792" lon="18.30765801903268"><ele>78.0</ele><time>2026-04-06T05:18:04.001Z</time></trkpt><trkpt lat="40.20813508961545" lon="18.307771611528697"><ele>77.6</ele><time>2026-04-06T05:18:05.001Z</time></trkpt><trkpt lat="40.20819535778952" lon="18.307878073723593"><ele>77.19999999999999</ele><time>2026-04-06T05:18:06.001Z</time></trkpt><trkpt lat="40.208253406938574" lon="18.307979297465145"><ele>76.8</ele><time>2026-04-06T05:18:07.001Z</time></trkpt><trkpt lat="40.20829559497104" lon="18.30809131286513"><ele>76.39999999999999</ele><time>2026-04-06T05:18:08.001Z</time></trkpt><trkpt lat="40.20835920658961" lon="18.308194986131614"><ele>76.0</ele><time>2026-04-06T05:18:09.001Z</time></trkpt><trkpt lat="40.2084175927928" lon="18.30830368521653"><ele>76.0</ele><time>2026-04-06T05:18:10.001Z</time></trkpt><trkpt lat="40.20847140398631" lon="18.308423349365196"><ele>76.0</ele><time>2026-04-06T05:18:11.001Z</time></trkpt><trkpt lat="40.20853156472516" lon="18.30852879429941"><ele>76.0</ele><time>2026-04-06T05:18:12.001Z</time></trkpt><trkpt lat="40.20858455747003" lon="18.308635296813353"><ele>76.0</ele><time>2026-04-06T05:18:13.001Z</time></trkpt><trkpt lat="40.20863407739249" lon="18.308729972304626"><ele>76.0</ele><time>2026-04-06T05:18:14.001Z</time></trkpt><trkpt lat="40.20868619075698" lon="18.308806651180465"><ele>76.0</ele><time>2026-04-06T05:18:15.001Z</time></trkpt><trkpt lat="40.20873663032337" lon="18.30887685088759"><ele>76.0</ele><time>2026-04-06T05:18:16.001Z</time></trkpt><trkpt lat="40.208792116094614" lon="18.308934175675947"><ele>76.0</ele><time>2026-04-06T05:18:17.001Z</time></trkpt><trkpt lat="40.20886018184517" lon="18.308975726932122"><ele>76.0</ele><time>2026-04-06T05:18:18.001Z</time></trkpt><trkpt lat="40.208922577404195" lon="18.30899435716975"><ele>76.0</ele><time>2026-04-06T05:18:19.001Z</time></trkpt><trkpt lat="40.20894054665202" lon="18.30908790066535"><ele>76.0</ele><time>2026-04-06T05:18:20.001Z</time></trkpt><trkpt lat="40.209044954962835" lon="18.30912067867466"><ele>75.8</ele><time>2026-04-06T05:18:22.001Z</time></trkpt><trkpt lat="40.209120337104224" lon="18.309118013870137"><ele>75.6</ele><time>2026-04-06T05:18:23.001Z</time></trkpt><trkpt lat="40.20920490818245" lon="18.30909275710153"><ele>75.4</ele><time>2026-04-06T05:18:24.001Z</time></trkpt><trkpt lat="40.20929886803372" lon="18.309056668690552"><ele>75.2</ele><time>2026-04-06T05:18:25.001Z</time></trkpt><trkpt lat="40.209399757002465" lon="18.30901573968011"><ele>75.0</ele><time>2026-04-06T05:18:26.001Z</time></trkpt><trkpt lat="40.20951029738874" lon="18.308983698392954"><ele>75.0</ele><time>2026-04-06T05:18:27.001Z</time></trkpt><trkpt lat="40.209620405214764" lon="18.309001130674524"><ele>75.0</ele><time>2026-04-06T05:18:28.001Z</time></trkpt><trkpt lat="40.20972719947897" lon="18.309005835816727"><ele>75.0</ele><time>2026-04-06T05:18:29.001Z</time></trkpt><trkpt lat="40.20987058149015" lon="18.309018381681035"><ele>75.0</ele><time>2026-04-06T05:18:30.001Z</time></trkpt><trkpt lat="40.210012550892436" lon="18.309036668411764"><ele>74.33333333333333</ele><time>2026-04-06T05:18:31.001Z</time></trkpt><trkpt lat="40.21018365305958" lon="18.30905290640334"><ele>73.66666666666666</ele><time>2026-04-06T05:18:32.001Z</time></trkpt><trkpt lat="40.210378908239875" lon="18.30907302254636"><ele>73.0</ele><time>2026-04-06T05:18:33.001Z</time></trkpt><trkpt lat="40.21056117120256" lon="18.309088093998515"><ele>73.0</ele><time>2026-04-06T05:18:34.001Z</time></trkpt><trkpt lat="40.210741958894054" lon="18.309144000624375"><ele>73.0</ele><time>2026-04-06T05:18:35.001Z</time></trkpt><trkpt lat="40.21090039697471" lon="18.3092016630366"><ele>73.0</ele><time>2026-04-06T05:18:36.001Z</time></trkpt><trkpt lat="40.21102558750711" lon="18.309259995590118"><ele>73.0</ele><time>2026-04-06T05:18:37.001Z</time></trkpt><trkpt lat="40.21113370904022" lon="18.309314905995684"><ele>73.0</ele><time>2026-04-06T05:18:38.001Z</time></trkpt><trkpt lat="40.211217774360335" lon="18.30935839729813"><ele>73.0</ele><time>2026-04-06T05:18:39.001Z</time></trkpt><trkpt lat="40.21128607608508" lon="18.309403949115328"><ele>73.0</ele><time>2026-04-06T05:18:40.001Z</time></trkpt><trkpt lat="40.211341857658404" lon="18.309449329317516"><ele>73.0</ele><time>2026-04-06T05:18:41.001Z</time></trkpt><trkpt lat="40.211381509721576" lon="18.30951611147613"><ele>73.0</ele><time>2026-04-06T05:18:42.001Z</time></trkpt><trkpt lat="40.21141313612257" lon="18.30961149322799"><ele>73.0</ele><time>2026-04-06T05:18:43.001Z</time></trkpt><trkpt lat="40.21143665238589" lon="18.30971748072178"><ele>73.0</ele><time>2026-04-06T05:18:44.001Z</time></trkpt><trkpt lat="40.211470010390975" lon="18.30979940824382"><ele>73.0</ele><time>2026-04-06T05:18:45.001Z</time></trkpt><trkpt lat="40.21150812457478" lon="18.309888832901915"><ele>73.0</ele><time>2026-04-06T05:18:46.001Z</time></trkpt><trkpt lat="40.211587084468164" lon="18.309902244689756"><ele>73.0</ele><time>2026-04-06T05:18:47.001Z</time></trkpt><trkpt lat="40.21165012680335" lon="18.309902878374093"><ele>73.0</ele><time>2026-04-06T05:18:48.001Z</time></trkpt><trkpt lat="40.21171487825582" lon="18.309891614641096"><ele>73.0</ele><time>2026-04-06T05:18:49.001Z</time></trkpt><trkpt lat="40.211849200210416" lon="18.309892192602586"><ele>72.75</ele><time>2026-04-06T05:18:51.001Z</time></trkpt><trkpt lat="40.21194008177816" lon="18.309894628481338"><ele>72.5</ele><time>2026-04-06T05:18:52.001Z</time></trkpt><trkpt lat="40.212025535288895" lon="18.31001363209539"><ele>72.25</ele><time>2026-04-06T05:18:53.001Z</time></trkpt><trkpt lat="40.2121243298279" lon="18.31009842328688"><ele>72.0</ele><time>2026-04-06T05:18:54.001Z</time></trkpt><trkpt lat="40.212240446827394" lon="18.310189230824637"><ele>72.0</ele><time>2026-04-06T05:18:55.001Z</time></trkpt><trkpt lat="40.2123411770577" lon="18.310283614782495"><ele>72.0</ele><time>2026-04-06T05:18:56.001Z</time></trkpt><trkpt lat="40.21246718116207" lon="18.31038400570057"><ele>72.0</ele><time>2026-04-06T05:18:57.001Z</time></trkpt><trkpt lat="40.212586660115996" lon="18.310494510001508"><ele>72.0</ele><time>2026-04-06T05:18:58.001Z</time></trkpt><trkpt lat="40.2126996255042" lon="18.310623750675408"><ele>71.66666666666667</ele><time>2026-04-06T05:18:59.002Z</time></trkpt><trkpt lat="40.21283659192185" lon="18.31075062196196"><ele>71.33333333333334</ele><time>2026-04-06T05:19:00.002Z</time></trkpt><trkpt lat="40.21298301157381" lon="18.310889726949"><ele>71.0</ele><time>2026-04-06T05:19:01.002Z</time></trkpt><trkpt lat="40.2131371879379" lon="18.311044107522374"><ele>71.0</ele><time>2026-04-06T05:19:02.002Z</time></trkpt><trkpt lat="40.21329706262903" lon="18.311194134577367"><ele>71.0</ele><time>2026-04-06T05:19:03.002Z</time></trkpt><trkpt lat="40.21344239763624" lon="18.31134470332701"><ele>71.0</ele><time>2026-04-06T05:19:04.002Z</time></trkpt><trkpt lat="40.213603644179194" lon="18.311500583008666"><ele>70.66666666666667</ele><time>2026-04-06T05:19:05.002Z</time></trkpt><trkpt lat="40.2137443201204" lon="18.311670856081907"><ele>70.33333333333333</ele><time>2026-04-06T05:19:06.002Z</time></trkpt><trkpt lat="40.213882522898786" lon="18.3118637329809"><ele>70.0</ele><time>2026-04-06T05:19:07Z</time></trkpt><trkpt lat="40.214011685243854" lon="18.312045505602374"><ele>70.0</ele><time>2026-04-06T05:19:08Z</time></trkpt><trkpt lat="40.214138753831605" lon="18.31223401359533"><ele>70.0</ele><time>2026-04-06T05:19:09Z</time></trkpt><trkpt lat="40.214271381829484" lon="18.312433218478933"><ele>70.0</ele><time>2026-04-06T05:19:10Z</time></trkpt><trkpt lat="40.21440116076128" lon="18.312631866075904"><ele>70.0</ele><time>2026-04-06T05:19:11Z</time></trkpt><trkpt lat="40.2145326057119" lon="18.31283575555656"><ele>70.0</ele><time>2026-04-06T05:19:12Z</time></trkpt><trkpt lat="40.21467006724822" lon="18.313052583096493"><ele>70.0</ele><time>2026-04-06T05:19:13Z</time></trkpt><trkpt lat="40.21480462636106" lon="18.31327025519314"><ele>70.0</ele><time>2026-04-06T05:19:14Z</time></trkpt><trkpt lat="40.21494493031057" lon="18.313468151148314"><ele>70.0</ele><time>2026-04-06T05:19:15Z</time></trkpt><trkpt lat="40.21507796257681" lon="18.31368139270434"><ele>70.0</ele><time>2026-04-06T05:19:16Z</time></trkpt><trkpt lat="40.215221544935545" lon="18.313891545603305"><ele>70.33333333333333</ele><time>2026-04-06T05:19:17Z</time></trkpt><trkpt lat="40.21537532319262" lon="18.31409388644953"><ele>70.66666666666667</ele><time>2026-04-06T05:19:18Z</time></trkpt><trkpt lat="40.21553610955969" lon="18.314295100758102"><ele>71.0</ele><time>2026-04-06T05:19:19Z</time></trkpt><trkpt lat="40.215708877872544" lon="18.314483272170165"><ele>70.5</ele><time>2026-04-06T05:19:20Z</time></trkpt><trkpt lat="40.21588072929262" lon="18.31467294033933"><ele>70.0</ele><time>2026-04-06T05:19:21Z</time></trkpt><trkpt lat="40.216065451958634" lon="18.314850644897565"><ele>70.0</ele><time>2026-04-06T05:19:22Z</time></trkpt><trkpt lat="40.216257882878935" lon="18.315012900579518"><ele>70.0</ele><time>2026-04-06T05:19:23Z</time></trkpt><trkpt lat="40.216462959114025" lon="18.315168133970364"><ele>69.33333333333333</ele><time>2026-04-06T05:19:24Z</time></trkpt><trkpt lat="40.21666369979021" lon="18.315317427764867"><ele>68.66666666666667</ele><time>2026-04-06T05:19:25Z</time></trkpt><trkpt lat="40.21685107126724" lon="18.315459141110253"><ele>68.0</ele><time>2026-04-06T05:19:26Z</time></trkpt><trkpt lat="40.21703458263192" lon="18.315589839608993"><ele>68.0</ele><time>2026-04-06T05:19:27Z</time></trkpt><trkpt lat="40.217215408247434" lon="18.31572511568095"><ele>68.0</ele><time>2026-04-06T05:19:28Z</time></trkpt><trkpt lat="40.21738940384653" lon="18.315887618744096"><ele>68.0</ele><time>2026-04-06T05:19:29Z</time></trkpt><trkpt lat="40.217564090562306" lon="18.316036363250085"><ele>67.66666666666667</ele><time>2026-04-06T05:19:30Z</time></trkpt><trkpt lat="40.217739792915495" lon="18.316202058292596"><ele>67.33333333333333</ele><time>2026-04-06T05:19:31Z</time></trkpt><trkpt lat="40.217921333404504" lon="18.31638066367521"><ele>67.0</ele><time>2026-04-06T05:19:32Z</time></trkpt><trkpt lat="40.21810756578948" lon="18.31656120097006"><ele>66.5</ele><time>2026-04-06T05:19:33Z</time></trkpt><trkpt lat="40.21828310612896" lon="18.316776473643333"><ele>66.0</ele><time>2026-04-06T05:19:34Z</time></trkpt><trkpt lat="40.21845098119366" lon="18.316995895731587"><ele>66.0</ele><time>2026-04-06T05:19:35Z</time></trkpt><trkpt lat="40.21861943147456" lon="18.317231326793436"><ele>66.0</ele><time>2026-04-06T05:19:36Z</time></trkpt><trkpt lat="40.21878510946053" lon="18.317470182081998"><ele>66.0</ele><time>2026-04-06T05:19:37Z</time></trkpt><trkpt lat="40.218954117178654" lon="18.317716279087215"><ele>66.0</ele><time>2026-04-06T05:19:38Z</time></trkpt><trkpt lat="40.21911831454275" lon="18.317947807407432"><ele>66.5</ele><time>2026-04-06T05:19:39Z</time></trkpt><trkpt lat="40.21927630155458" lon="18.318174480449912"><ele>67.0</ele><time>2026-04-06T05:19:40Z</time></trkpt><trkpt lat="40.21943417372491" lon="18.318398092511966"><ele>67.0</ele><time>2026-04-06T05:19:41Z</time></trkpt><trkpt lat="40.21956983442923" lon="18.318640421552818"><ele>67.0</ele><time>2026-04-06T05:19:42Z</time></trkpt><trkpt lat="40.21970815595683" lon="18.318874122721223"><ele>67.0</ele><time>2026-04-06T05:19:43Z</time></trkpt><trkpt lat="40.219844044216195" lon="18.319122763573972"><ele>67.0</ele><time>2026-04-06T05:19:44Z</time></trkpt><trkpt lat="40.21997259295644" lon="18.31938196579838"><ele>67.0</ele><time>2026-04-06T05:19:45Z</time></trkpt><trkpt lat="40.22011285739657" lon="18.319636811698683"><ele>67.0</ele><time>2026-04-06T05:19:46.001Z</time></trkpt><trkpt lat="40.220210887023846" lon="18.31992227112615"><ele>67.0</ele><time>2026-04-06T05:19:47.001Z</time></trkpt><trkpt lat="40.22031879911993" lon="18.320214645851216"><ele>67.0</ele><time>2026-04-06T05:19:48.001Z</time></trkpt><trkpt lat="40.22042315387841" lon="18.32050577945055"><ele>66.5</ele><time>2026-04-06T05:19:49.001Z</time></trkpt><trkpt lat="40.22054064467846" lon="18.32079093251664"><ele>66.0</ele><time>2026-04-06T05:19:50.001Z</time></trkpt><trkpt lat="40.220639174573535" lon="18.321080563817183"><ele>66.0</ele><time>2026-04-06T05:19:51.001Z</time></trkpt><trkpt lat="40.22073734533527" lon="18.3213763943077"><ele>66.0</ele><time>2026-04-06T05:19:52.001Z</time></trkpt><trkpt lat="40.22084166591665" lon="18.321666706505873"><ele>65.33333333333333</ele><time>2026-04-06T05:19:53.001Z</time></trkpt><trkpt lat="40.22093998033696" lon="18.32193860199378"><ele>64.66666666666666</ele><time>2026-04-06T05:19:54.001Z</time></trkpt><trkpt lat="40.22102692696045" lon="18.32219250285778"><ele>64.0</ele><time>2026-04-06T05:19:55.001Z</time></trkpt><trkpt lat="40.2211088191507" lon="18.322437858043955"><ele>64.0</ele><time>2026-04-06T05:19:56.001Z</time></trkpt><trkpt lat="40.22120201357185" lon="18.32269166844221"><ele>64.0</ele><time>2026-04-06T05:19:57.001Z</time></trkpt><trkpt lat="40.221293332741915" lon="18.322945585283644"><ele>64.0</ele><time>2026-04-06T05:19:58.001Z</time></trkpt><trkpt lat="40.221384509745945" lon="18.323199891319305"><ele>64.0</ele><time>2026-04-06T05:19:59.001Z</time></trkpt><trkpt lat="40.22147015182119" lon="18.32347016415937"><ele>64.0</ele><time>2026-04-06T05:20:00.001Z</time></trkpt><trkpt lat="40.221544891100464" lon="18.323757394984355"><ele>64.5</ele><time>2026-04-06T05:20:01.001Z</time></trkpt><trkpt lat="40.221608441665055" lon="18.324061859894012"><ele>65.0</ele><time>2026-04-06T05:20:02.001Z</time></trkpt><trkpt lat="40.2216820711676" lon="18.324377006879136"><ele>65.0</ele><time>2026-04-06T05:20:03.001Z</time></trkpt><trkpt lat="40.221750655182674" lon="18.324670247040025"><ele>65.0</ele><time>2026-04-06T05:20:04.001Z</time></trkpt><trkpt lat="40.22182274932155" lon="18.324963986998085"><ele>65.0</ele><time>2026-04-06T05:20:05.001Z</time></trkpt><trkpt lat="40.221886959107614" lon="18.325242684181678"><ele>65.0</ele><time>2026-04-06T05:20:06.001Z</time></trkpt><trkpt lat="40.22194825749085" lon="18.325515277959518"><ele>65.0</ele><time>2026-04-06T05:20:07.001Z</time></trkpt><trkpt lat="40.22201358487811" lon="18.32578933645432"><ele>65.33333333333334</ele><time>2026-04-06T05:20:08.001Z</time></trkpt><trkpt lat="40.22207815847428" lon="18.326061061561017"><ele>65.66666666666667</ele><time>2026-04-06T05:20:09.001Z</time></trkpt><trkpt lat="40.2221462289491" lon="18.326339625224048"><ele>66.0</ele><time>2026-04-06T05:20:10.001Z</time></trkpt><trkpt lat="40.22221124940498" lon="18.32661136373021"><ele>66.0</ele><time>2026-04-06T05:20:11.001Z</time></trkpt><trkpt lat="40.22227134638825" lon="18.32686471861767"><ele>66.0</ele><time>2026-04-06T05:20:12.001Z</time></trkpt><trkpt lat="40.22233934053938" lon="18.32709402193469"><ele>66.0</ele><time>2026-04-06T05:20:13.001Z</time></trkpt><trkpt lat="40.222436461504046" lon="18.327334434925824"><ele>65.33333333333333</ele><time>2026-04-06T05:20:14.001Z</time></trkpt><trkpt lat="40.22253793991953" lon="18.327563966734782"><ele>64.66666666666666</ele><time>2026-04-06T05:20:15.001Z</time></trkpt><trkpt lat="40.222647300802635" lon="18.32776697519821"><ele>64.0</ele><time>2026-04-06T05:20:16.001Z</time></trkpt><trkpt lat="40.22277472698023" lon="18.32793244565176"><ele>63.666666666666664</ele><time>2026-04-06T05:20:17.001Z</time></trkpt><trkpt lat="40.222917553776064" lon="18.32810655332529"><ele>63.33333333333333</ele><time>2026-04-06T05:20:18.001Z</time></trkpt><trkpt lat="40.223075917036496" lon="18.32827679903746"><ele>63.0</ele><time>2026-04-06T05:20:19.001Z</time></trkpt><trkpt lat="40.22325811553245" lon="18.328453524700624"><ele>63.0</ele><time>2026-04-06T05:20:20.001Z</time></trkpt><trkpt lat="40.223414916301515" lon="18.328605182460677"><ele>63.0</ele><time>2026-04-06T05:20:21.001Z</time></trkpt><trkpt lat="40.223556937061765" lon="18.328739064964154"><ele>63.0</ele><time>2026-04-06T05:20:22.001Z</time></trkpt><trkpt lat="40.22367103980304" lon="18.328851726798156"><ele>62.599999999999994</ele><time>2026-04-06T05:20:23.001Z</time></trkpt><trkpt lat="40.223767104027964" lon="18.32895210098747"><ele>62.199999999999996</ele><time>2026-04-06T05:20:24.001Z</time></trkpt><trkpt lat="40.22386035150425" lon="18.329041617656678"><ele>61.8</ele><time>2026-04-06T05:20:25.001Z</time></trkpt><trkpt lat="40.2239447808959" lon="18.32912963839617"><ele>61.4</ele><time>2026-04-06T05:20:26.001Z</time></trkpt><trkpt lat="40.223997742283544" lon="18.329197820644342"><ele>61.0</ele><time>2026-04-06T05:20:27.001Z</time></trkpt><trkpt lat="40.22404210632991" lon="18.329299633111212"><ele>61.0</ele><time>2026-04-06T05:20:29.001Z</time></trkpt><trkpt lat="40.22407167700589" lon="18.329406417215438"><ele>60.99999999999999</ele><time>2026-04-06T05:20:31.001Z</time></trkpt><trkpt lat="40.22408656284717" lon="18.329536985978923"><ele>60.99999999999999</ele><time>2026-04-06T05:20:33.001Z</time></trkpt><trkpt lat="40.22411562132843" lon="18.3296551423602"><ele>61.0</ele><time>2026-04-06T05:20:35.001Z</time></trkpt><trkpt lat="40.22418367149757" lon="18.329731679855882"><ele>61.0</ele><time>2026-04-06T05:20:37.001Z</time></trkpt><trkpt lat="40.22427981393751" lon="18.32977020221964"><ele>61.0</ele><time>2026-04-06T05:20:39.001Z</time></trkpt><trkpt lat="40.224370288024545" lon="18.329834613286618"><ele>60.99999999999999</ele><time>2026-04-06T05:20:41.001Z</time></trkpt><trkpt lat="40.22445262424458" lon="18.329912400050482"><ele>60.99999999999999</ele><time>2026-04-06T05:20:43.001Z</time></trkpt><trkpt lat="40.224536553895454" lon="18.330022200275586"><ele>61.0</ele><time>2026-04-06T05:20:45.001Z</time></trkpt><trkpt lat="40.22459020228739" lon="18.33008488200324"><ele>61.0</ele><time>2026-04-06T05:20:46.001Z</time></trkpt><trkpt lat="40.22464165994339" lon="18.33014701333939"><ele>61.0</ele><time>2026-04-06T05:20:47.001Z</time></trkpt><trkpt lat="40.22468873063684" lon="18.33021063247107"><ele>60.99999999999999</ele><time>2026-04-06T05:20:48.001Z</time></trkpt><trkpt lat="40.22476800006481" lon="18.330324699583908"><ele>60.99999999999999</ele><time>2026-04-06T05:20:50.001Z</time></trkpt><trkpt lat="40.22483505051505" lon="18.330440592046468"><ele>61.0</ele><time>2026-04-06T05:20:52.001Z</time></trkpt><trkpt lat="40.22488564467968" lon="18.330557301777834"><ele>61.0</ele><time>2026-04-06T05:20:54.002Z</time></trkpt><trkpt lat="40.22493967682949" lon="18.330682714474207"><ele>60.599999999999994</ele><time>2026-04-06T05:20:56.002Z</time></trkpt><trkpt lat="40.224982225656696" lon="18.330793566336137"><ele>60.199999999999996</ele><time>2026-04-06T05:20:58.002Z</time></trkpt><trkpt lat="40.22502244894373" lon="18.330907669363693"><ele>59.800000000000004</ele><time>2026-04-06T05:21:00.002Z</time></trkpt><trkpt lat="40.22507305936398" lon="18.33105822466597"><ele>59.400000000000006</ele><time>2026-04-06T05:21:02.002Z</time></trkpt><trkpt lat="40.22510073584397" lon="18.33115013627764"><ele>59.0</ele><time>2026-04-06T05:21:03.002Z</time></trkpt><trkpt lat="40.22513521830993" lon="18.331255577370424"><ele>59.0</ele><time>2026-04-06T05:21:04.002Z</time></trkpt><trkpt lat="40.22516910781729" lon="18.33135706844875"><ele>59.00000000000001</ele><time>2026-04-06T05:21:05.002Z</time></trkpt><trkpt lat="40.22520285746538" lon="18.33146604305913"><ele>59.00000000000001</ele><time>2026-04-06T05:21:06.002Z</time></trkpt><trkpt lat="40.22523481235069" lon="18.331576496298233"><ele>59.0</ele><time>2026-04-06T05:21:07.002Z</time></trkpt><trkpt lat="40.225270557305194" lon="18.33169098124359"><ele>59.0</ele><time>2026-04-06T05:21:08.002Z</time></trkpt><trkpt lat="40.225305918734925" lon="18.33180624926798"><ele>59.400000000000006</ele><time>2026-04-06T05:21:09.002Z</time></trkpt><trkpt lat="40.225339812259335" lon="18.33192096878722"><ele>59.800000000000004</ele><time>2026-04-06T05:21:10.002Z</time></trkpt><trkpt lat="40.22537617073444" lon="18.332040302240497"><ele>60.199999999999996</ele><time>2026-04-06T05:21:11.002Z</time></trkpt><trkpt lat="40.22541239455743" lon="18.332156887336566"><ele>60.599999999999994</ele><time>2026-04-06T05:21:12.002Z</time></trkpt><trkpt lat="40.225437441952586" lon="18.332274018219756"><ele>61.0</ele><time>2026-04-06T05:21:13Z</time></trkpt><trkpt lat="40.22548216168184" lon="18.332393841731168"><ele>61.0</ele><time>2026-04-06T05:21:14Z</time></trkpt><trkpt lat="40.22551117602676" lon="18.33252949090266"><ele>60.99999999999999</ele><time>2026-04-06T05:21:15Z</time></trkpt><trkpt lat="40.225552661591166" lon="18.33265323450208"><ele>60.99999999999999</ele><time>2026-04-06T05:21:16Z</time></trkpt><trkpt lat="40.22559436552498" lon="18.332786210914044"><ele>61.0</ele><time>2026-04-06T05:21:17Z</time></trkpt><trkpt lat="40.22564229570804" lon="18.33293396784913"><ele>61.0</ele><time>2026-04-06T05:21:18Z</time></trkpt><trkpt lat="40.22568743605779" lon="18.333088690256897"><ele>60.75</ele><time>2026-04-06T05:21:19Z</time></trkpt><trkpt lat="40.22573349315736" lon="18.33325292827194"><ele>60.5</ele><time>2026-04-06T05:21:20Z</time></trkpt><trkpt lat="40.22576668228512" lon="18.333426736919623"><ele>60.25</ele><time>2026-04-06T05:21:21Z</time></trkpt><trkpt lat="40.22578648247362" lon="18.333602749190778"><ele>60.0</ele><time>2026-04-06T05:21:22Z</time></trkpt><trkpt lat="40.22580133399101" lon="18.33378484237252"><ele>59.66666666666667</ele><time>2026-04-06T05:21:23Z</time></trkpt><trkpt lat="40.225807945857376" lon="18.333981896356565"><ele>59.333333333333336</ele><time>2026-04-06T05:21:24Z</time></trkpt><trkpt lat="40.225798841757815" lon="18.33419466764327"><ele>59.0</ele><time>2026-04-06T05:21:25Z</time></trkpt><trkpt lat="40.22578350204064" lon="18.334411074989603"><ele>59.0</ele><time>2026-04-06T05:21:26Z</time></trkpt><trkpt lat="40.22576441697963" lon="18.334619860742688"><ele>59.0</ele><time>2026-04-06T05:21:27Z</time></trkpt><trkpt lat="40.22573910842698" lon="18.334832181238653"><ele>59.0</ele><time>2026-04-06T05:21:28Z</time></trkpt><trkpt lat="40.22571622757996" lon="18.335047843083757"><ele>58.66666666666667</ele><time>2026-04-06T05:21:29Z</time></trkpt><trkpt lat="40.225699123979524" lon="18.33527087267749"><ele>58.33333333333333</ele><time>2026-04-06T05:21:30Z</time></trkpt><trkpt lat="40.225684745811044" lon="18.335496293388015"><ele>58.0</ele><time>2026-04-06T05:21:31Z</time></trkpt><trkpt lat="40.22567699016558" lon="18.335723726209377"><ele>58.0</ele><time>2026-04-06T05:21:32Z</time></trkpt><trkpt lat="40.22568830452231" lon="18.33595260428716"><ele>58.0</ele><time>2026-04-06T05:21:33Z</time></trkpt><trkpt lat="40.22570400373538" lon="18.33617339898159"><ele>58.0</ele><time>2026-04-06T05:21:34Z</time></trkpt><trkpt lat="40.22571382501406" lon="18.33640459610144"><ele>57.0</ele><time>2026-04-06T05:21:35Z</time></trkpt><trkpt lat="40.22572415114184" lon="18.336645873565434"><ele>56.0</ele><time>2026-04-06T05:21:36Z</time></trkpt><trkpt lat="40.22572874559487" lon="18.336893830830498"><ele>55.0</ele><time>2026-04-06T05:21:37Z</time></trkpt><trkpt lat="40.22573228959677" lon="18.337146699313337"><ele>55.0</ele><time>2026-04-06T05:21:38Z</time></trkpt><trkpt lat="40.22573933931061" lon="18.337416168907477"><ele>55.0</ele><time>2026-04-06T05:21:39Z</time></trkpt><trkpt lat="40.2257416225656" lon="18.337676585168136"><ele>55.0</ele><time>2026-04-06T05:21:40Z</time></trkpt><trkpt lat="40.22574758294059" lon="18.337940482272412"><ele>54.666666666666664</ele><time>2026-04-06T05:21:41Z</time></trkpt><trkpt lat="40.225750305398314" lon="18.338198847847195"><ele>54.33333333333333</ele><time>2026-04-06T05:21:42Z</time></trkpt><trkpt lat="40.22575338463568" lon="18.338462687312582"><ele>54.0</ele><time>2026-04-06T05:21:43Z</time></trkpt><trkpt lat="40.22576267283143" lon="18.33870874019413"><ele>53.33333333333333</ele><time>2026-04-06T05:21:44Z</time></trkpt><trkpt lat="40.225783095689906" lon="18.338952432961026"><ele>52.666666666666664</ele><time>2026-04-06T05:21:45Z</time></trkpt><trkpt lat="40.225818494783354" lon="18.33918255235088"><ele>52.0</ele><time>2026-04-06T05:21:46Z</time></trkpt><trkpt lat="40.22587696112559" lon="18.339416476938407"><ele>52.0</ele><time>2026-04-06T05:21:47Z</time></trkpt><trkpt lat="40.225950763031776" lon="18.33966384838739"><ele>52.0</ele><time>2026-04-06T05:21:48Z</time></trkpt><trkpt lat="40.22603449636548" lon="18.33989374578643"><ele>52.0</ele><time>2026-04-06T05:21:49Z</time></trkpt><trkpt lat="40.226112894622254" lon="18.340134144465882"><ele>52.0</ele><time>2026-04-06T05:21:50Z</time></trkpt><trkpt lat="40.22619459518446" lon="18.34038406089028"><ele>52.0</ele><time>2026-04-06T05:21:51Z</time></trkpt><trkpt lat="40.226274562261636" lon="18.340631359466933"><ele>52.0</ele><time>2026-04-06T05:21:52Z</time></trkpt><trkpt lat="40.226357971627245" lon="18.340884304926718"><ele>52.33333333333333</ele><time>2026-04-06T05:21:53Z</time></trkpt><trkpt lat="40.226439256405094" lon="18.34114154806705"><ele>52.66666666666667</ele><time>2026-04-06T05:21:54Z</time></trkpt><trkpt lat="40.22651673813155" lon="18.34140216304687"><ele>53.0</ele><time>2026-04-06T05:21:55Z</time></trkpt><trkpt lat="40.22659731854886" lon="18.341658348612285"><ele>52.333333333333336</ele><time>2026-04-06T05:21:56Z</time></trkpt><trkpt lat="40.22668557676077" lon="18.34192534151657"><ele>51.66666666666667</ele><time>2026-04-06T05:21:57Z</time></trkpt><trkpt lat="40.22676805985692" lon="18.342189432943204"><ele>51.0</ele><time>2026-04-06T05:21:58Z</time></trkpt><trkpt lat="40.22685037996693" lon="18.342452266099"><ele>51.0</ele><time>2026-04-06T05:21:59Z</time></trkpt><trkpt lat="40.226931580091154" lon="18.34271658718998"><ele>51.0</ele><time>2026-04-06T05:22:00Z</time></trkpt><trkpt lat="40.22701657785565" lon="18.342975614022595"><ele>51.0</ele><time>2026-04-06T05:22:01Z</time></trkpt><trkpt lat="40.227099026338784" lon="18.343238576422134"><ele>50.66666666666667</ele><time>2026-04-06T05:22:02Z</time></trkpt><trkpt lat="40.227186176873694" lon="18.343494647755527"><ele>50.333333333333336</ele><time>2026-04-06T05:22:03Z</time></trkpt><trkpt lat="40.22726941394501" lon="18.343750573437255"><ele>50.0</ele><time>2026-04-06T05:22:04Z</time></trkpt><trkpt lat="40.22734724768138" lon="18.344002132244828"><ele>49.66666666666667</ele><time>2026-04-06T05:22:05Z</time></trkpt><trkpt lat="40.227429230738046" lon="18.34426371971933"><ele>49.33333333333333</ele><time>2026-04-06T05:22:06.001Z</time></trkpt><trkpt lat="40.22750731320657" lon="18.344515072512426"><ele>49.0</ele><time>2026-04-06T05:22:07.001Z</time></trkpt><trkpt lat="40.227590829543914" lon="18.344770741159017"><ele>49.0</ele><time>2026-04-06T05:22:08.001Z</time></trkpt><trkpt lat="40.22767048763366" lon="18.345009962241654"><ele>49.0</ele><time>2026-04-06T05:22:09.001Z</time></trkpt><trkpt lat="40.22776363136044" lon="18.34523597588417"><ele>49.0</ele><time>2026-04-06T05:22:10.001Z</time></trkpt><trkpt lat="40.227867040074564" lon="18.34546125806641"><ele>49.0</ele><time>2026-04-06T05:22:11.001Z</time></trkpt><trkpt lat="40.227983633318495" lon="18.34568196491979"><ele>49.0</ele><time>2026-04-06T05:22:12.001Z</time></trkpt><trkpt lat="40.22810355967878" lon="18.345895311468393"><ele>49.0</ele><time>2026-04-06T05:22:13.001Z</time></trkpt><trkpt lat="40.22822937009378" lon="18.34610362509838"><ele>49.0</ele><time>2026-04-06T05:22:14.001Z</time></trkpt><trkpt lat="40.22835752427835" lon="18.346313171256856"><ele>49.0</ele><time>2026-04-06T05:22:15.001Z</time></trkpt><trkpt lat="40.22848431171669" lon="18.3464791104863"><ele>49.0</ele><time>2026-04-06T05:22:16.001Z</time></trkpt><trkpt lat="40.22858958415921" lon="18.346651717481947"><ele>49.33333333333333</ele><time>2026-04-06T05:22:17.001Z</time></trkpt><trkpt lat="40.22869333136329" lon="18.34682486343929"><ele>49.66666666666667</ele><time>2026-04-06T05:22:18.001Z</time></trkpt><trkpt lat="40.22879346896676" lon="18.34699421460173"><ele>50.0</ele><time>2026-04-06T05:22:19.001Z</time></trkpt><trkpt lat="40.22888252675427" lon="18.34718358705767"><ele>49.333333333333336</ele><time>2026-04-06T05:22:20.001Z</time></trkpt><trkpt lat="40.22894538454732" lon="18.347399778016936"><ele>48.66666666666667</ele><time>2026-04-06T05:22:21.001Z</time></trkpt><trkpt lat="40.229012394616674" lon="18.34762458835313"><ele>48.0</ele><time>2026-04-06T05:22:22.001Z</time></trkpt><trkpt lat="40.22906306074389" lon="18.347869136252964"><ele>46.333333333333336</ele><time>2026-04-06T05:22:23.001Z</time></trkpt><trkpt lat="40.22911014458416" lon="18.348145494204513"><ele>44.66666666666667</ele><time>2026-04-06T05:22:24.001Z</time></trkpt><trkpt lat="40.22916684206599" lon="18.348420514093352"><ele>43.0</ele><time>2026-04-06T05:22:25.001Z</time></trkpt><trkpt lat="40.22920164347791" lon="18.348726921773213"><ele>43.333333333333336</ele><time>2026-04-06T05:22:26.001Z</time></trkpt><trkpt lat="40.229241094799455" lon="18.349023407017363"><ele>43.666666666666664</ele><time>2026-04-06T05:22:27.001Z</time></trkpt><trkpt lat="40.22928206631811" lon="18.349304889894754"><ele>44.0</ele><time>2026-04-06T05:22:28.001Z</time></trkpt><trkpt lat="40.22932801888565" lon="18.349581913440574"><ele>44.0</ele><time>2026-04-06T05:22:29.001Z</time></trkpt><trkpt lat="40.22936981752551" lon="18.349862476084038"><ele>44.0</ele><time>2026-04-06T05:22:30.001Z</time></trkpt><trkpt lat="40.22940567912868" lon="18.350145287771003"><ele>44.0</ele><time>2026-04-06T05:22:31.001Z</time></trkpt><trkpt lat="40.22945338878425" lon="18.350437160214938"><ele>43.666666666666664</ele><time>2026-04-06T05:22:32.001Z</time></trkpt><trkpt lat="40.229498576929984" lon="18.350715302289778"><ele>43.333333333333336</ele><time>2026-04-06T05:22:33.001Z</time></trkpt><trkpt lat="40.22953729418396" lon="18.350996371678157"><ele>43.0</ele><time>2026-04-06T05:22:34.001Z</time></trkpt><trkpt lat="40.22958297547721" lon="18.351286580811788"><ele>42.333333333333336</ele><time>2026-04-06T05:22:35.001Z</time></trkpt><trkpt lat="40.229631036667875" lon="18.351566167232797"><ele>41.666666666666664</ele><time>2026-04-06T05:22:36.001Z</time></trkpt><trkpt lat="40.22967511380777" lon="18.351839770701055"><ele>41.0</ele><time>2026-04-06T05:22:37.001Z</time></trkpt><trkpt lat="40.22971715198152" lon="18.352115441643097"><ele>40.666666666666664</ele><time>2026-04-06T05:22:38.001Z</time></trkpt><trkpt lat="40.229758741184575" lon="18.352388122937445"><ele>40.333333333333336</ele><time>2026-04-06T05:22:39.001Z</time></trkpt><trkpt lat="40.22980218400891" lon="18.352664575958226"><ele>40.0</ele><time>2026-04-06T05:22:40.001Z</time></trkpt><trkpt lat="40.22984415777729" lon="18.35293838103756"><ele>40.0</ele><time>2026-04-06T05:22:41.001Z</time></trkpt><trkpt lat="40.22988782657393" lon="18.353209855191157"><ele>40.0</ele><time>2026-04-06T05:22:42.001Z</time></trkpt><trkpt lat="40.22992610068226" lon="18.35347968801574"><ele>40.0</ele><time>2026-04-06T05:22:43.001Z</time></trkpt><trkpt lat="40.22996863022389" lon="18.353746389376848"><ele>40.333333333333336</ele><time>2026-04-06T05:22:44.001Z</time></trkpt><trkpt lat="40.230010771358096" lon="18.354009030478085"><ele>40.666666666666664</ele><time>2026-04-06T05:22:45.001Z</time></trkpt><trkpt lat="40.23005190023554" lon="18.354268742120745"><ele>41.0</ele><time>2026-04-06T05:22:46.001Z</time></trkpt><trkpt lat="40.23009913934607" lon="18.354535400951736"><ele>40.666666666666664</ele><time>2026-04-06T05:22:47.001Z</time></trkpt><trkpt lat="40.230145118289485" lon="18.35479399848407"><ele>40.333333333333336</ele><time>2026-04-06T05:22:48.001Z</time></trkpt><trkpt lat="40.230196822657526" lon="18.35506067729089"><ele>40.0</ele><time>2026-04-06T05:22:49.001Z</time></trkpt><trkpt lat="40.23024390255097" lon="18.35532673250438"><ele>39.333333333333336</ele><time>2026-04-06T05:22:50.001Z</time></trkpt><trkpt lat="40.23029544578809" lon="18.355592634064468"><ele>38.666666666666664</ele><time>2026-04-06T05:22:51.001Z</time></trkpt><trkpt lat="40.230346684145196" lon="18.355860186961934"><ele>38.0</ele><time>2026-04-06T05:22:52.001Z</time></trkpt><trkpt lat="40.23039709962362" lon="18.356114398346588"><ele>38.0</ele><time>2026-04-06T05:22:53.001Z</time></trkpt><trkpt lat="40.230452449737584" lon="18.35636806970621"><ele>38.0</ele><time>2026-04-06T05:22:54.001Z</time></trkpt><trkpt lat="40.23050357001109" lon="18.356628424261"><ele>38.0</ele><time>2026-04-06T05:22:55.001Z</time></trkpt><trkpt lat="40.23055527019575" lon="18.35688301635754"><ele>38.0</ele><time>2026-04-06T05:22:56.001Z</time></trkpt><trkpt lat="40.230609770273446" lon="18.357145426861056"><ele>38.0</ele><time>2026-04-06T05:22:57.001Z</time></trkpt><trkpt lat="40.23066284754101" lon="18.357410775033255"><ele>38.0</ele><time>2026-04-06T05:22:58.001Z</time></trkpt><trkpt lat="40.23071821271857" lon="18.357684279751474"><ele>38.0</ele><time>2026-04-06T05:22:59.001Z</time></trkpt><trkpt lat="40.23077563279385" lon="18.357961971155472"><ele>38.0</ele><time>2026-04-06T05:23:00.001Z</time></trkpt><trkpt lat="40.23083206497824" lon="18.35823936545885"><ele>38.0</ele><time>2026-04-06T05:23:01.001Z</time></trkpt><trkpt lat="40.23088257489763" lon="18.35850979296042"><ele>38.0</ele><time>2026-04-06T05:23:02.001Z</time></trkpt><trkpt lat="40.23093771709302" lon="18.358794860137962"><ele>38.0</ele><time>2026-04-06T05:23:03.001Z</time></trkpt><trkpt lat="40.23100160252012" lon="18.35908992459715"><ele>37.5</ele><time>2026-04-06T05:23:04.001Z</time></trkpt><trkpt lat="40.23106536041581" lon="18.35939640398983"><ele>37.0</ele><time>2026-04-06T05:23:05.001Z</time></trkpt><trkpt lat="40.23113822029917" lon="18.35970823347115"><ele>37.0</ele><time>2026-04-06T05:23:06.001Z</time></trkpt><trkpt lat="40.23121366237281" lon="18.360022228621947"><ele>37.0</ele><time>2026-04-06T05:23:07.001Z</time></trkpt><trkpt lat="40.23128551345125" lon="18.36033670813433"><ele>37.0</ele><time>2026-04-06T05:23:08.001Z</time></trkpt><trkpt lat="40.2313706217014" lon="18.360642614337735"><ele>37.0</ele><time>2026-04-06T05:23:09.001Z</time></trkpt><trkpt lat="40.231464465932184" lon="18.360949582994124"><ele>37.5</ele><time>2026-04-06T05:23:10.001Z</time></trkpt><trkpt lat="40.23156923850721" lon="18.361263314449083"><ele>38.0</ele><time>2026-04-06T05:23:11.001Z</time></trkpt><trkpt lat="40.231679193627386" lon="18.36156316447196"><ele>38.0</ele><time>2026-04-06T05:23:12.001Z</time></trkpt><trkpt lat="40.231770928135084" lon="18.361849199408393"><ele>38.0</ele><time>2026-04-06T05:23:13.001Z</time></trkpt><trkpt lat="40.231837663875886" lon="18.362105538440442"><ele>38.0</ele><time>2026-04-06T05:23:14.002Z</time></trkpt><trkpt lat="40.231893394589974" lon="18.362354198667003"><ele>38.666666666666664</ele><time>2026-04-06T05:23:15.002Z</time></trkpt><trkpt lat="40.23196015612243" lon="18.362602760448322"><ele>39.333333333333336</ele><time>2026-04-06T05:23:16.002Z</time></trkpt><trkpt lat="40.232032294126554" lon="18.362857419323266"><ele>40.0</ele><time>2026-04-06T05:23:17.002Z</time></trkpt><trkpt lat="40.232093639070385" lon="18.36311305822546"><ele>40.0</ele><time>2026-04-06T05:23:18.002Z</time></trkpt><trkpt lat="40.2321509876521" lon="18.363386906636677"><ele>40.0</ele><time>2026-04-06T05:23:19Z</time></trkpt><trkpt lat="40.232195132013366" lon="18.363668587520497"><ele>40.0</ele><time>2026-04-06T05:23:20Z</time></trkpt><trkpt lat="40.232239023978806" lon="18.363947001225828"><ele>40.0</ele><time>2026-04-06T05:23:21Z</time></trkpt><trkpt lat="40.23226207291961" lon="18.364200154688127"><ele>40.0</ele><time>2026-04-06T05:23:22Z</time></trkpt><trkpt lat="40.2322872949844" lon="18.364432989955134"><ele>40.0</ele><time>2026-04-06T05:23:23Z</time></trkpt><trkpt lat="40.232319865944824" lon="18.364643606097367"><ele>39.66666666666667</ele><time>2026-04-06T05:23:24Z</time></trkpt><trkpt lat="40.232369419022454" lon="18.364849974010173"><ele>39.333333333333336</ele><time>2026-04-06T05:23:25Z</time></trkpt><trkpt lat="40.23244020932942" lon="18.365056381779453"><ele>39.0</ele><time>2026-04-06T05:23:26Z</time></trkpt><trkpt lat="40.232528103433076" lon="18.365260027621414"><ele>39.0</ele><time>2026-04-06T05:23:27Z</time></trkpt><trkpt lat="40.2326395856977" lon="18.365452622436404"><ele>39.0</ele><time>2026-04-06T05:23:28Z</time></trkpt><trkpt lat="40.23276417005938" lon="18.365655134795364"><ele>39.0</ele><time>2026-04-06T05:23:29Z</time></trkpt><trkpt lat="40.23290354764249" lon="18.365857553855125"><ele>38.666666666666664</ele><time>2026-04-06T05:23:30Z</time></trkpt><trkpt lat="40.23304368944525" lon="18.366060645112114"><ele>38.33333333333333</ele><time>2026-04-06T05:23:31Z</time></trkpt><trkpt lat="40.23318269829198" lon="18.366274637767134"><ele>38.0</ele><time>2026-04-06T05:23:32Z</time></trkpt><trkpt lat="40.233333818010266" lon="18.36650125746946"><ele>36.666666666666664</ele><time>2026-04-06T05:23:33Z</time></trkpt><trkpt lat="40.233474126262" lon="18.366714756806417"><ele>35.333333333333336</ele><time>2026-04-06T05:23:34Z</time></trkpt><trkpt lat="40.233611441404506" lon="18.366925943956453"><ele>34.0</ele><time>2026-04-06T05:23:35Z</time></trkpt><trkpt lat="40.233744932730865" lon="18.367128054927413"><ele>34.0</ele><time>2026-04-06T05:23:36Z</time></trkpt><trkpt lat="40.23387873627209" lon="18.36733178356472"><ele>34.0</ele><time>2026-04-06T05:23:37Z</time></trkpt><trkpt lat="40.23401243907835" lon="18.367538281401263"><ele>34.0</ele><time>2026-04-06T05:23:38Z</time></trkpt><trkpt lat="40.23413977689128" lon="18.367759530796345"><ele>34.0</ele><time>2026-04-06T05:23:39Z</time></trkpt><trkpt lat="40.23426240712018" lon="18.367995290456268"><ele>34.0</ele><time>2026-04-06T05:23:40Z</time></trkpt><trkpt lat="40.23436463553637" lon="18.368217052441658"><ele>34.0</ele><time>2026-04-06T05:23:41Z</time></trkpt><trkpt lat="40.2344572116173" lon="18.368431656473767"><ele>33.0</ele><time>2026-04-06T05:23:42Z</time></trkpt><trkpt lat="40.2345348661522" lon="18.368634974039878"><ele>32.0</ele><time>2026-04-06T05:23:43Z</time></trkpt><trkpt lat="40.2346047454978" lon="18.36883345728186"><ele>31.0</ele><time>2026-04-06T05:23:44Z</time></trkpt><trkpt lat="40.23466552751972" lon="18.369022196216157"><ele>31.0</ele><time>2026-04-06T05:23:45Z</time></trkpt><trkpt lat="40.23472141170276" lon="18.36920812164492"><ele>31.0</ele><time>2026-04-06T05:23:46Z</time></trkpt><trkpt lat="40.2347678746566" lon="18.369388630514777"><ele>31.0</ele><time>2026-04-06T05:23:47Z</time></trkpt><trkpt lat="40.23481164350646" lon="18.369551959248575"><ele>31.0</ele><time>2026-04-06T05:23:48Z</time></trkpt><trkpt lat="40.234848546026676" lon="18.36970065032073"><ele>30.333333333333336</ele><time>2026-04-06T05:23:49Z</time></trkpt><trkpt lat="40.23487849538212" lon="18.36982077496918"><ele>29.666666666666668</ele><time>2026-04-06T05:23:50Z</time></trkpt><trkpt lat="40.23490321255423" lon="18.36992676137632"><ele>29.0</ele><time>2026-04-06T05:23:51Z</time></trkpt><trkpt lat="40.23491968118749" lon="18.370021396991298"><ele>28.333333333333336</ele><time>2026-04-06T05:23:52Z</time></trkpt><trkpt lat="40.23493130909694" lon="18.370153865967687"><ele>27.666666666666668</ele><time>2026-04-06T05:23:54Z</time></trkpt><trkpt lat="40.234927594541126" lon="18.370273766563724"><ele>27.0</ele><time>2026-04-06T05:23:58Z</time></trkpt><trkpt lat="40.234931237569796" lon="18.370357274478557"><ele>27.0</ele><time>2026-04-06T05:23:59Z</time></trkpt><trkpt lat="40.23493571884699" lon="18.370467942072317"><ele>27.000000000000004</ele><time>2026-04-06T05:24:00.001Z</time></trkpt><trkpt lat="40.23494234993711" lon="18.370594761553424"><ele>27.000000000000004</ele><time>2026-04-06T05:24:01.001Z</time></trkpt><trkpt lat="40.23494479690949" lon="18.370746196832922"><ele>27.0</ele><time>2026-04-06T05:24:02.001Z</time></trkpt><trkpt lat="40.23494936190924" lon="18.37093287938054"><ele>27.0</ele><time>2026-04-06T05:24:03.001Z</time></trkpt><trkpt lat="40.23494012053745" lon="18.37113309618252"><ele>26.0</ele><time>2026-04-06T05:24:04.001Z</time></trkpt><trkpt lat="40.23492439078212" lon="18.37135217541735"><ele>25.0</ele><time>2026-04-06T05:24:05.001Z</time></trkpt><trkpt lat="40.234897360035696" lon="18.371594033769313"><ele>24.0</ele><time>2026-04-06T05:24:06.001Z</time></trkpt><trkpt lat="40.23489787801851" lon="18.371818585220325"><ele>23.0</ele><time>2026-04-06T05:24:07.001Z</time></trkpt><trkpt lat="40.23487838534156" lon="18.372068310029483"><ele>22.0</ele><time>2026-04-06T05:24:08.001Z</time></trkpt><trkpt lat="40.23486156345038" lon="18.372314966924566"><ele>21.0</ele><time>2026-04-06T05:24:09.001Z</time></trkpt><trkpt lat="40.2348407290633" lon="18.372577175805052"><ele>21.333333333333332</ele><time>2026-04-06T05:24:10.001Z</time></trkpt><trkpt lat="40.23482363418732" lon="18.372849833829527"><ele>21.666666666666664</ele><time>2026-04-06T05:24:11.001Z</time></trkpt><trkpt lat="40.23478852448113" lon="18.373126271759737"><ele>22.0</ele><time>2026-04-06T05:24:12.001Z</time></trkpt><trkpt lat="40.234762932945685" lon="18.373411610875568"><ele>22.0</ele><time>2026-04-06T05:24:13.001Z</time></trkpt><trkpt lat="40.23473771100494" lon="18.37369391726987"><ele>22.0</ele><time>2026-04-06T05:24:14.001Z</time></trkpt><trkpt lat="40.234719371816745" lon="18.37396469601024"><ele>22.0</ele><time>2026-04-06T05:24:15.001Z</time></trkpt><trkpt lat="40.23469077334326" lon="18.374266129102992"><ele>21.5</ele><time>2026-04-06T05:24:16.001Z</time></trkpt><trkpt lat="40.23466398968715" lon="18.374581634637412"><ele>21.0</ele><time>2026-04-06T05:24:17.001Z</time></trkpt><trkpt lat="40.23463177978879" lon="18.37489673898784"><ele>21.0</ele><time>2026-04-06T05:24:18.001Z</time></trkpt><trkpt lat="40.23462236867921" lon="18.37521206611692"><ele>21.0</ele><time>2026-04-06T05:24:19.001Z</time></trkpt><trkpt lat="40.23459515866511" lon="18.375523180977797"><ele>20.5</ele><time>2026-04-06T05:24:20.001Z</time></trkpt><trkpt lat="40.234570994449435" lon="18.375822902352734"><ele>20.0</ele><time>2026-04-06T05:24:21.001Z</time></trkpt><trkpt lat="40.234582518679254" lon="18.376117002601756"><ele>19.0</ele><time>2026-04-06T05:24:22.001Z</time></trkpt><trkpt lat="40.23456648270508" lon="18.376415971545516"><ele>18.0</ele><time>2026-04-06T05:24:23.001Z</time></trkpt><trkpt lat="40.23455410366597" lon="18.376715634855184"><ele>18.0</ele><time>2026-04-06T05:24:24.001Z</time></trkpt><trkpt lat="40.234547378322816" lon="18.376977191816774"><ele>18.0</ele><time>2026-04-06T05:24:25.001Z</time></trkpt><trkpt lat="40.234544841568884" lon="18.377217886667204"><ele>18.0</ele><time>2026-04-06T05:24:26.001Z</time></trkpt><trkpt lat="40.234539911411254" lon="18.377454376853873"><ele>18.0</ele><time>2026-04-06T05:24:27.001Z</time></trkpt><trkpt lat="40.234545633276824" lon="18.377703488527143"><ele>18.0</ele><time>2026-04-06T05:24:28.001Z</time></trkpt><trkpt lat="40.23457367947202" lon="18.377948589594038"><ele>18.0</ele><time>2026-04-06T05:24:29.001Z</time></trkpt><trkpt lat="40.234607141689516" lon="18.37818390977197"><ele>17.666666666666668</ele><time>2026-04-06T05:24:30.001Z</time></trkpt><trkpt lat="40.23465234405497" lon="18.37841850758894"><ele>17.333333333333336</ele><time>2026-04-06T05:24:31.001Z</time></trkpt><trkpt lat="40.2346958123585" lon="18.378652584432725"><ele>17.0</ele><time>2026-04-06T05:24:32.001Z</time></trkpt><trkpt lat="40.234770426151584" lon="18.37887749485657"><ele>17.0</ele><time>2026-04-06T05:24:33.001Z</time></trkpt><trkpt lat="40.23485707078676" lon="18.37909677360515"><ele>17.0</ele><time>2026-04-06T05:24:34.001Z</time></trkpt><trkpt lat="40.23496673573178" lon="18.379326368812727"><ele>17.0</ele><time>2026-04-06T05:24:35.001Z</time></trkpt><trkpt lat="40.23509532018245" lon="18.379551758941755"><ele>17.0</ele><time>2026-04-06T05:24:36.001Z</time></trkpt><trkpt lat="40.23523576103565" lon="18.379775403221505"><ele>17.0</ele><time>2026-04-06T05:24:37.001Z</time></trkpt><trkpt lat="40.235385524714495" lon="18.379999244015288"><ele>17.0</ele><time>2026-04-06T05:24:38.001Z</time></trkpt><trkpt lat="40.235535359359744" lon="18.380222808349295"><ele>19.0</ele><time>2026-04-06T05:24:39.001Z</time></trkpt><trkpt lat="40.235698315234686" lon="18.380465149728906"><ele>21.0</ele><time>2026-04-06T05:24:40.001Z</time></trkpt><trkpt lat="40.235871703577715" lon="18.380720897940872"><ele>21.0</ele><time>2026-04-06T05:24:41.001Z</time></trkpt><trkpt lat="40.236049746662395" lon="18.380985563607304"><ele>21.0</ele><time>2026-04-06T05:24:42.001Z</time></trkpt><trkpt lat="40.23622408861832" lon="18.381248124559004"><ele>21.5</ele><time>2026-04-06T05:24:43.001Z</time></trkpt><trkpt lat="40.236394091545336" lon="18.38150039652851"><ele>22.0</ele><time>2026-04-06T05:24:44.001Z</time></trkpt><trkpt lat="40.23655515697708" lon="18.381739405905705"><ele>22.666666666666664</ele><time>2026-04-06T05:24:45.001Z</time></trkpt><trkpt lat="40.23671024203931" lon="18.38194349152942"><ele>23.333333333333332</ele><time>2026-04-06T05:24:46.001Z</time></trkpt><trkpt lat="40.23685432645007" lon="18.382166250925223"><ele>24.0</ele><time>2026-04-06T05:24:47.001Z</time></trkpt><trkpt lat="40.23700496997244" lon="18.382381338108175"><ele>25.0</ele><time>2026-04-06T05:24:48.001Z</time></trkpt><trkpt lat="40.23715192490793" lon="18.382606627450507"><ele>26.0</ele><time>2026-04-06T05:24:49.001Z</time></trkpt><trkpt lat="40.2373252151555" lon="18.38280031186474"><ele>26.5</ele><time>2026-04-06T05:24:50.001Z</time></trkpt><trkpt lat="40.23750357038426" lon="18.382983535953446"><ele>27.0</ele><time>2026-04-06T05:24:51.001Z</time></trkpt><trkpt lat="40.237701919353746" lon="18.383156019312928"><ele>27.0</ele><time>2026-04-06T05:24:52.001Z</time></trkpt><trkpt lat="40.23789203015883" lon="18.383304988047982"><ele>27.0</ele><time>2026-04-06T05:24:53.001Z</time></trkpt><trkpt lat="40.23809339088696" lon="18.383441528747834"><ele>27.0</ele><time>2026-04-06T05:24:54.001Z</time></trkpt><trkpt lat="40.23829599985431" lon="18.383559079675614"><ele>27.333333333333336</ele><time>2026-04-06T05:24:55.001Z</time></trkpt><trkpt lat="40.23850970755685" lon="18.383661885063518"><ele>27.666666666666668</ele><time>2026-04-06T05:24:56.001Z</time></trkpt><trkpt lat="40.238716222110135" lon="18.383745082499477"><ele>28.0</ele><time>2026-04-06T05:24:57.001Z</time></trkpt><trkpt lat="40.2389234020898" lon="18.383818491849507"><ele>28.0</ele><time>2026-04-06T05:24:58.001Z</time></trkpt><trkpt lat="40.23915198911808" lon="18.383859494632194"><ele>28.0</ele><time>2026-04-06T05:24:59.001Z</time></trkpt><trkpt lat="40.23936859676896" lon="18.383923808498782"><ele>28.0</ele><time>2026-04-06T05:25:00.001Z</time></trkpt><trkpt lat="40.23959322014234" lon="18.383996751474683"><ele>28.0</ele><time>2026-04-06T05:25:01.001Z</time></trkpt><trkpt lat="40.239818886205406" lon="18.38406381358921"><ele>28.0</ele><time>2026-04-06T05:25:02.001Z</time></trkpt><trkpt lat="40.24002720612302" lon="18.38418130990718"><ele>28.0</ele><time>2026-04-06T05:25:03.001Z</time></trkpt><trkpt lat="40.240240064342466" lon="18.384251435767954"><ele>28.0</ele><time>2026-04-06T05:25:04.002Z</time></trkpt><trkpt lat="40.24045172903352" lon="18.384321168407915"><ele>28.0</ele><time>2026-04-06T05:25:05.002Z</time></trkpt><trkpt lat="40.24065176304449" lon="18.38438706935603"><ele>28.0</ele><time>2026-04-06T05:25:06.002Z</time></trkpt><trkpt lat="40.24084863296172" lon="18.384451927888193"><ele>28.0</ele><time>2026-04-06T05:25:07.002Z</time></trkpt><trkpt lat="40.24102387935488" lon="18.384509662589892"><ele>28.0</ele><time>2026-04-06T05:25:08.002Z</time></trkpt><trkpt lat="40.2411973399047" lon="18.38456680893182"><ele>28.0</ele><time>2026-04-06T05:25:09.002Z</time></trkpt><trkpt lat="40.241349517678806" lon="18.384600242733214"><ele>28.0</ele><time>2026-04-06T05:25:10.002Z</time></trkpt><trkpt lat="40.24149030414027" lon="18.384646402384686"><ele>28.0</ele><time>2026-04-06T05:25:11.002Z</time></trkpt><trkpt lat="40.241614995692785" lon="18.38468902328911"><ele>27.999999999999996</ele><time>2026-04-06T05:25:12.002Z</time></trkpt><trkpt lat="40.241725989309536" lon="18.3847266977276"><ele>27.999999999999996</ele><time>2026-04-06T05:25:13.002Z</time></trkpt><trkpt lat="40.2418161010189" lon="18.38477605675429"><ele>28.0</ele><time>2026-04-06T05:25:14.002Z</time></trkpt><trkpt lat="40.2418954497539" lon="18.38482805906497"><ele>28.0</ele><time>2026-04-06T05:25:15.002Z</time></trkpt><trkpt lat="40.2419551745526" lon="18.38487951086439"><ele>28.0</ele><time>2026-04-06T05:25:16.002Z</time></trkpt><trkpt lat="40.242047083346726" lon="18.384982065062214"><ele>27.999999999999996</ele><time>2026-04-06T05:25:18.002Z</time></trkpt><trkpt lat="40.242089447519675" lon="18.385060850236993"><ele>27.999999999999996</ele><time>2026-04-06T05:25:20.002Z</time></trkpt><trkpt lat="40.24213811842782" lon="18.38517383381204"><ele>28.0</ele><time>2026-04-06T05:25:22.002Z</time></trkpt><trkpt lat="40.24216392163005" lon="18.385282679763456"><ele>28.0</ele><time>2026-04-06T05:25:23.002Z</time></trkpt><trkpt lat="40.24218868761642" lon="18.385414895103406"><ele>27.75</ele><time>2026-04-06T05:25:24.002Z</time></trkpt><trkpt lat="40.24221005656122" lon="18.385558962048826"><ele>27.5</ele><time>2026-04-06T05:25:25Z</time></trkpt><trkpt lat="40.2422380288057" lon="18.385720748276565"><ele>27.25</ele><time>2026-04-06T05:25:26Z</time></trkpt><trkpt lat="40.24227258255979" lon="18.385889185911196"><ele>27.0</ele><time>2026-04-06T05:25:27Z</time></trkpt><trkpt lat="40.242307178193315" lon="18.386095686058898"><ele>27.0</ele><time>2026-04-06T05:25:28Z</time></trkpt><trkpt lat="40.24235465713652" lon="18.386303731796477"><ele>27.0</ele><time>2026-04-06T05:25:29Z</time></trkpt><trkpt lat="40.2424041533199" lon="18.38652695027441"><ele>27.0</ele><time>2026-04-06T05:25:30Z</time></trkpt><trkpt lat="40.24245289308187" lon="18.386774545761657"><ele>27.0</ele><time>2026-04-06T05:25:31Z</time></trkpt><trkpt lat="40.242502871527726" lon="18.387040626665904"><ele>27.0</ele><time>2026-04-06T05:25:32Z</time></trkpt><trkpt lat="40.24256864295898" lon="18.38733192147438"><ele>27.0</ele><time>2026-04-06T05:25:33Z</time></trkpt><trkpt lat="40.24262874560567" lon="18.387606327244903"><ele>26.666666666666664</ele><time>2026-04-06T05:25:34Z</time></trkpt><trkpt lat="40.242691323634965" lon="18.38787439190969"><ele>26.333333333333332</ele><time>2026-04-06T05:25:35Z</time></trkpt><trkpt lat="40.24274219064216" lon="18.38816223750644"><ele>26.0</ele><time>2026-04-06T05:25:36Z</time></trkpt><trkpt lat="40.24280533502168" lon="18.388449403047836"><ele>25.666666666666664</ele><time>2026-04-06T05:25:37Z</time></trkpt><trkpt lat="40.24287962800977" lon="18.38871080864921"><ele>25.333333333333336</ele><time>2026-04-06T05:25:38Z</time></trkpt><trkpt lat="40.242938645509035" lon="18.388975134874215"><ele>25.0</ele><time>2026-04-06T05:25:39Z</time></trkpt><trkpt lat="40.242985330231754" lon="18.389237620398205"><ele>25.0</ele><time>2026-04-06T05:25:40Z</time></trkpt><trkpt lat="40.243012939911736" lon="18.389498333606554"><ele>25.0</ele><time>2026-04-06T05:25:41Z</time></trkpt><trkpt lat="40.24304373731749" lon="18.389778072691566"><ele>25.0</ele><time>2026-04-06T05:25:42Z</time></trkpt><trkpt lat="40.243071861162015" lon="18.390069429345722"><ele>25.0</ele><time>2026-04-06T05:25:43Z</time></trkpt><trkpt lat="40.2430993316858" lon="18.390354017608296"><ele>25.0</ele><time>2026-04-06T05:25:44Z</time></trkpt><trkpt lat="40.24312662904661" lon="18.390636811079958"><ele>25.0</ele><time>2026-04-06T05:25:45Z</time></trkpt><trkpt lat="40.24317049439342" lon="18.39092291102483"><ele>24.666666666666668</ele><time>2026-04-06T05:25:46Z</time></trkpt><trkpt lat="40.243185945616865" lon="18.391201367323866"><ele>24.333333333333336</ele><time>2026-04-06T05:25:47Z</time></trkpt><trkpt lat="40.24321403036875" lon="18.391480215713553"><ele>24.0</ele><time>2026-04-06T05:25:48Z</time></trkpt><trkpt lat="40.24324184634451" lon="18.391757385989035"><ele>24.0</ele><time>2026-04-06T05:25:49Z</time></trkpt><trkpt lat="40.24328284166541" lon="18.392039755501205"><ele>24.0</ele><time>2026-04-06T05:25:50Z</time></trkpt><trkpt lat="40.243340585176384" lon="18.39232791810407"><ele>24.0</ele><time>2026-04-06T05:25:51Z</time></trkpt><trkpt lat="40.243414850318565" lon="18.39261323482087"><ele>24.0</ele><time>2026-04-06T05:25:52Z</time></trkpt><trkpt lat="40.24349139386372" lon="18.392896716556862"><ele>24.0</ele><time>2026-04-06T05:25:53Z</time></trkpt><trkpt lat="40.243574715448254" lon="18.393191651154936"><ele>24.0</ele><time>2026-04-06T05:25:54Z</time></trkpt><trkpt lat="40.24365020631056" lon="18.39349481112871"><ele>24.0</ele><time>2026-04-06T05:25:55Z</time></trkpt><trkpt lat="40.243727619193535" lon="18.393795388830007"><ele>22.5</ele><time>2026-04-06T05:25:56Z</time></trkpt><trkpt lat="40.24379818453002" lon="18.39409819194095"><ele>21.0</ele><time>2026-04-06T05:25:57Z</time></trkpt><trkpt lat="40.243876552466375" lon="18.394404581162824"><ele>20.5</ele><time>2026-04-06T05:25:58Z</time></trkpt><trkpt lat="40.24395750902193" lon="18.394705020694996"><ele>20.0</ele><time>2026-04-06T05:25:59Z</time></trkpt><trkpt lat="40.24402947409574" lon="18.39500408521247"><ele>20.0</ele><time>2026-04-06T05:26:00Z</time></trkpt><trkpt lat="40.244102482802106" lon="18.395309398919654"><ele>20.0</ele><time>2026-04-06T05:26:01Z</time></trkpt><trkpt lat="40.24417616838484" lon="18.39560193605757"><ele>19.0</ele><time>2026-04-06T05:26:02Z</time></trkpt><trkpt lat="40.24424312349187" lon="18.3958852891568"><ele>18.0</ele><time>2026-04-06T05:26:03Z</time></trkpt><trkpt lat="40.244312300756015" lon="18.396163860056173"><ele>18.0</ele><time>2026-04-06T05:26:04Z</time></trkpt><trkpt lat="40.24438361374623" lon="18.39644726207115"><ele>18.0</ele><time>2026-04-06T05:26:05Z</time></trkpt><trkpt lat="40.24445164476422" lon="18.396727904813346"><ele>18.0</ele><time>2026-04-06T05:26:06Z</time></trkpt><trkpt lat="40.244516959022604" lon="18.397004192746586"><ele>18.0</ele><time>2026-04-06T05:26:07Z</time></trkpt><trkpt lat="40.24458794033918" lon="18.397286406340143"><ele>18.0</ele><time>2026-04-06T05:26:08Z</time></trkpt><trkpt lat="40.24468339484709" lon="18.397569187076446"><ele>18.0</ele><time>2026-04-06T05:26:09Z</time></trkpt><trkpt lat="40.24478866138457" lon="18.397857294678516"><ele>18.0</ele><time>2026-04-06T05:26:10Z</time></trkpt><trkpt lat="40.2449033048044" lon="18.39814035585685"><ele>18.0</ele><time>2026-04-06T05:26:11.001Z</time></trkpt><trkpt lat="40.2450369934569" lon="18.398435135038678"><ele>18.0</ele><time>2026-04-06T05:26:12.001Z</time></trkpt><trkpt lat="40.24513927187985" lon="18.398730264404943"><ele>17.5</ele><time>2026-04-06T05:26:13.001Z</time></trkpt><trkpt lat="40.24527295771236" lon="18.39902142302964"><ele>17.0</ele><time>2026-04-06T05:26:14.001Z</time></trkpt><trkpt lat="40.24540561287801" lon="18.399320891206333"><ele>17.0</ele><time>2026-04-06T05:26:15.001Z</time></trkpt><trkpt lat="40.24552307636025" lon="18.39961977005814"><ele>17.0</ele><time>2026-04-06T05:26:16.001Z</time></trkpt><trkpt lat="40.24563202484126" lon="18.399918764858125"><ele>18.5</ele><time>2026-04-06T05:26:17.001Z</time></trkpt><trkpt lat="40.245759810339756" lon="18.400214045616572"><ele>20.0</ele><time>2026-04-06T05:26:18.001Z</time></trkpt><trkpt lat="40.24587159965595" lon="18.400475808851585"><ele>19.666666666666668</ele><time>2026-04-06T05:26:19.001Z</time></trkpt><trkpt lat="40.24596951735938" lon="18.400741801346793"><ele>19.333333333333332</ele><time>2026-04-06T05:26:20.001Z</time></trkpt><trkpt lat="40.246072764896795" lon="18.400995581946297"><ele>19.0</ele><time>2026-04-06T05:26:21.001Z</time></trkpt><trkpt lat="40.24616085411024" lon="18.401225519342244"><ele>19.333333333333332</ele><time>2026-04-06T05:26:22.001Z</time></trkpt><trkpt lat="40.246270755854624" lon="18.401459092170008"><ele>19.666666666666668</ele><time>2026-04-06T05:26:23.001Z</time></trkpt><trkpt lat="40.24636018541657" lon="18.401709453752655"><ele>20.0</ele><time>2026-04-06T05:26:24.001Z</time></trkpt><trkpt lat="40.246436016792366" lon="18.401963264625643"><ele>19.666666666666668</ele><time>2026-04-06T05:26:25.001Z</time></trkpt><trkpt lat="40.246501352626815" lon="18.402221125314313"><ele>19.333333333333332</ele><time>2026-04-06T05:26:26.001Z</time></trkpt><trkpt lat="40.24657466535167" lon="18.402494325221742"><ele>19.0</ele><time>2026-04-06T05:26:27.001Z</time></trkpt><trkpt lat="40.24663900526836" lon="18.40276351906818"><ele>17.5</ele><time>2026-04-06T05:26:28.001Z</time></trkpt><trkpt lat="40.246684199356295" lon="18.403047963883992"><ele>16.0</ele><time>2026-04-06T05:26:29.001Z</time></trkpt><trkpt lat="40.24674286697104" lon="18.403342561143813"><ele>16.0</ele><time>2026-04-06T05:26:30.001Z</time></trkpt><trkpt lat="40.24679565227161" lon="18.40369085812244"><ele>16.0</ele><time>2026-04-06T05:26:31.001Z</time></trkpt><trkpt lat="40.246849811096645" lon="18.404028625373588"><ele>15.5</ele><time>2026-04-06T05:26:32.001Z</time></trkpt><trkpt lat="40.246868464716556" lon="18.404395778372614"><ele>15.0</ele><time>2026-04-06T05:26:33.001Z</time></trkpt><trkpt lat="40.24691052094444" lon="18.40471734093663"><ele>15.0</ele><time>2026-04-06T05:26:34.001Z</time></trkpt><trkpt lat="40.246952751682116" lon="18.4050088436823"><ele>15.0</ele><time>2026-04-06T05:26:35.001Z</time></trkpt><trkpt lat="40.24699113674704" lon="18.405278172593558"><ele>15.0</ele><time>2026-04-06T05:26:36.001Z</time></trkpt><trkpt lat="40.24702922890665" lon="18.40554868025778"><ele>15.0</ele><time>2026-04-06T05:26:37.001Z</time></trkpt><trkpt lat="40.24706954001649" lon="18.405813710436387"><ele>15.0</ele><time>2026-04-06T05:26:38.001Z</time></trkpt><trkpt lat="40.247108826929825" lon="18.40607346698242"><ele>15.0</ele><time>2026-04-06T05:26:39.001Z</time></trkpt><trkpt lat="40.24714740990878" lon="18.406326069465607"><ele>15.0</ele><time>2026-04-06T05:26:40.001Z</time></trkpt><trkpt lat="40.24719344542033" lon="18.406576907965746"><ele>15.0</ele><time>2026-04-06T05:26:41.001Z</time></trkpt><trkpt lat="40.24724752866563" lon="18.406820596631245"><ele>15.0</ele><time>2026-04-06T05:26:42.001Z</time></trkpt><trkpt lat="40.24731144930842" lon="18.40706305763841"><ele>14.666666666666668</ele><time>2026-04-06T05:26:43.001Z</time></trkpt><trkpt lat="40.24738081508543" lon="18.40730629508083"><ele>14.333333333333334</ele><time>2026-04-06T05:26:44.001Z</time></trkpt><trkpt lat="40.24745901969167" lon="18.407549231196725"><ele>14.0</ele><time>2026-04-06T05:26:45.001Z</time></trkpt><trkpt lat="40.24755313844623" lon="18.40780231411421"><ele>12.5</ele><time>2026-04-06T05:26:46.001Z</time></trkpt><trkpt lat="40.24766528215604" lon="18.408058466327724"><ele>11.0</ele><time>2026-04-06T05:26:47.001Z</time></trkpt><trkpt lat="40.247781583445196" lon="18.40831443812096"><ele>11.0</ele><time>2026-04-06T05:26:48.001Z</time></trkpt><trkpt lat="40.247907242262926" lon="18.408564781573237"><ele>11.0</ele><time>2026-04-06T05:26:49.001Z</time></trkpt><trkpt lat="40.248051467382744" lon="18.40881913215682"><ele>10.5</ele><time>2026-04-06T05:26:50.001Z</time></trkpt><trkpt lat="40.24821833796091" lon="18.40907288487483"><ele>10.0</ele><time>2026-04-06T05:26:51.001Z</time></trkpt><trkpt lat="40.248393235895136" lon="18.40936419289721"><ele>10.0</ele><time>2026-04-06T05:26:52.001Z</time></trkpt><trkpt lat="40.248575312876135" lon="18.40966052146992"><ele>10.0</ele><time>2026-04-06T05:26:53.001Z</time></trkpt><trkpt lat="40.248736277459756" lon="18.409932248195616"><ele>10.0</ele><time>2026-04-06T05:26:54.001Z</time></trkpt><trkpt lat="40.24889720736105" lon="18.41019493043921"><ele>10.0</ele><time>2026-04-06T05:26:55.001Z</time></trkpt><trkpt lat="40.24904035116551" lon="18.41044111007543"><ele>9.0</ele><time>2026-04-06T05:26:56.001Z</time></trkpt><trkpt lat="40.24918734962411" lon="18.410691248701003"><ele>8.0</ele><time>2026-04-06T05:26:57.001Z</time></trkpt><trkpt lat="40.249335963005215" lon="18.410950209663657"><ele>8.0</ele><time>2026-04-06T05:26:58.001Z</time></trkpt><trkpt lat="40.249496414100925" lon="18.4112089835649"><ele>8.0</ele><time>2026-04-06T05:26:59.001Z</time></trkpt><trkpt lat="40.24965054659287" lon="18.411471452259445"><ele>8.5</ele><time>2026-04-06T05:27:00.001Z</time></trkpt><trkpt lat="40.249810512218055" lon="18.41173891915608"><ele>9.0</ele><time>2026-04-06T05:27:01.001Z</time></trkpt><trkpt lat="40.24995280380573" lon="18.411976302782545"><ele>9.5</ele><time>2026-04-06T05:27:02.001Z</time></trkpt><trkpt lat="40.250099431280994" lon="18.412225722958038"><ele>10.0</ele><time>2026-04-06T05:27:03.001Z</time></trkpt><trkpt lat="40.25024833409683" lon="18.412459525574917"><ele>10.0</ele><time>2026-04-06T05:27:04.001Z</time></trkpt><trkpt lat="40.25038770288466" lon="18.412683802094406"><ele>10.0</ele><time>2026-04-06T05:27:05.001Z</time></trkpt><trkpt lat="40.25050897695098" lon="18.41288486386046"><ele>10.0</ele><time>2026-04-06T05:27:06.001Z</time></trkpt><trkpt lat="40.25062422680936" lon="18.413092371077333"><ele>10.666666666666668</ele><time>2026-04-06T05:27:07.001Z</time></trkpt><trkpt lat="40.25073708875304" lon="18.41331248693621"><ele>11.333333333333334</ele><time>2026-04-06T05:27:08.001Z</time></trkpt><trkpt lat="40.25084351528066" lon="18.413535837348476"><ele>12.0</ele><time>2026-04-06T05:27:09.001Z</time></trkpt><trkpt lat="40.250946206308505" lon="18.413763322804524"><ele>12.333333333333332</ele><time>2026-04-06T05:27:10.001Z</time></trkpt><trkpt lat="40.25104230364994" lon="18.413997222266943"><ele>12.666666666666666</ele><time>2026-04-06T05:27:11.001Z</time></trkpt><trkpt lat="40.25113467903107" lon="18.41423745214716"><ele>13.0</ele><time>2026-04-06T05:27:12.001Z</time></trkpt><trkpt lat="40.25122044795223" lon="18.414489671024402"><ele>13.5</ele><time>2026-04-06T05:27:13.001Z</time></trkpt><trkpt lat="40.251310625765726" lon="18.41474819987663"><ele>14.0</ele><time>2026-04-06T05:27:14.001Z</time></trkpt><trkpt lat="40.25139829870994" lon="18.415034262798727"><ele>16.0</ele><time>2026-04-06T05:27:15.001Z</time></trkpt><trkpt lat="40.25147879684407" lon="18.415318192922403"><ele>18.0</ele><time>2026-04-06T05:27:16.001Z</time></trkpt><trkpt lat="40.251557264872496" lon="18.415594069679692"><ele>18.5</ele><time>2026-04-06T05:27:17.001Z</time></trkpt><trkpt lat="40.25165204298231" lon="18.415895507490166"><ele>19.0</ele><time>2026-04-06T05:27:18.002Z</time></trkpt><trkpt lat="40.25173344121644" lon="18.41621299373635"><ele>19.0</ele><time>2026-04-06T05:27:19.002Z</time></trkpt><trkpt lat="40.25180225959524" lon="18.41650875627462"><ele>19.0</ele><time>2026-04-06T05:27:20.002Z</time></trkpt><trkpt lat="40.251889157354874" lon="18.416775408978303"><ele>19.0</ele><time>2026-04-06T05:27:21.002Z</time></trkpt><trkpt lat="40.25196630585992" lon="18.417032492955514"><ele>19.0</ele><time>2026-04-06T05:27:22.002Z</time></trkpt><trkpt lat="40.2520034358284" lon="18.41724731657219"><ele>19.0</ele><time>2026-04-06T05:27:23.002Z</time></trkpt><trkpt lat="40.25208941365235" lon="18.417496860205127"><ele>20.0</ele><time>2026-04-06T05:27:24.002Z</time></trkpt><trkpt lat="40.252155595284464" lon="18.417740717460806"><ele>21.0</ele><time>2026-04-06T05:27:25.002Z</time></trkpt><trkpt lat="40.2522157771115" lon="18.418006538891945"><ele>22.0</ele><time>2026-04-06T05:27:26.002Z</time></trkpt><trkpt lat="40.25226122112944" lon="18.418286163556107"><ele>22.0</ele><time>2026-04-06T05:27:27.002Z</time></trkpt><trkpt lat="40.25226972583798" lon="18.41860044209805"><ele>22.0</ele><time>2026-04-06T05:27:28.002Z</time></trkpt><trkpt lat="40.25231766815398" lon="18.418906242828037"><ele>23.0</ele><time>2026-04-06T05:27:29.002Z</time></trkpt><trkpt lat="40.25237284342703" lon="18.41919867355781"><ele>24.0</ele><time>2026-04-06T05:27:30.002Z</time></trkpt><trkpt lat="40.25240863029536" lon="18.419490490911013"><ele>23.333333333333332</ele><time>2026-04-06T05:27:31Z</time></trkpt><trkpt lat="40.2524529297975" lon="18.41978336944999"><ele>22.666666666666664</ele><time>2026-04-06T05:27:32Z</time></trkpt><trkpt lat="40.25249558840934" lon="18.420056321365937"><ele>22.0</ele><time>2026-04-06T05:27:33Z</time></trkpt><trkpt lat="40.252538979682235" lon="18.420335391113706"><ele>21.666666666666664</ele><time>2026-04-06T05:27:34Z</time></trkpt><trkpt lat="40.252586298974094" lon="18.420641339915115"><ele>21.333333333333332</ele><time>2026-04-06T05:27:35Z</time></trkpt><trkpt lat="40.252626411000456" lon="18.420900689253504"><ele>21.0</ele><time>2026-04-06T05:27:36Z</time></trkpt><trkpt lat="40.252657153988146" lon="18.421136078398597"><ele>21.666666666666668</ele><time>2026-04-06T05:27:37Z</time></trkpt><trkpt lat="40.25267634939858" lon="18.42138305045638"><ele>22.333333333333336</ele><time>2026-04-06T05:27:38Z</time></trkpt><trkpt lat="40.2527056107791" lon="18.42163045782816"><ele>23.0</ele><time>2026-04-06T05:27:39Z</time></trkpt><trkpt lat="40.25268256570201" lon="18.42187421138322"><ele>23.0</ele><time>2026-04-06T05:27:40Z</time></trkpt><trkpt lat="40.25266162731594" lon="18.422139670456815"><ele>23.0</ele><time>2026-04-06T05:27:41Z</time></trkpt><trkpt lat="40.2526231259632" lon="18.422402217756492"><ele>23.0</ele><time>2026-04-06T05:27:42Z</time></trkpt><trkpt lat="40.25255933240732" lon="18.422701974932565"><ele>22.0</ele><time>2026-04-06T05:27:43Z</time></trkpt><trkpt lat="40.25248765921647" lon="18.42300687191692"><ele>21.0</ele><time>2026-04-06T05:27:44Z</time></trkpt><trkpt lat="40.252407625508795" lon="18.423330025757277"><ele>21.0</ele><time>2026-04-06T05:27:45Z</time></trkpt><trkpt lat="40.25232396326919" lon="18.423667830587217"><ele>21.0</ele><time>2026-04-06T05:27:46Z</time></trkpt><trkpt lat="40.252247199363204" lon="18.42397778187262"><ele>22.0</ele><time>2026-04-06T05:27:47Z</time></trkpt><trkpt lat="40.25216635957831" lon="18.424303351780047"><ele>23.0</ele><time>2026-04-06T05:27:48Z</time></trkpt><trkpt lat="40.2520863041014" lon="18.424630788574078"><ele>22.5</ele><time>2026-04-06T05:27:49Z</time></trkpt><trkpt lat="40.25201594954014" lon="18.424924715879214"><ele>22.0</ele><time>2026-04-06T05:27:50Z</time></trkpt><trkpt lat="40.251952748857654" lon="18.425214455990503"><ele>21.666666666666664</ele><time>2026-04-06T05:27:51Z</time></trkpt><trkpt lat="40.25188366606443" lon="18.425496583790903"><ele>21.333333333333332</ele><time>2026-04-06T05:27:52Z</time></trkpt><trkpt lat="40.251819046456006" lon="18.425771841675456"><ele>21.0</ele><time>2026-04-06T05:27:53Z</time></trkpt><trkpt lat="40.25177252746559" lon="18.426052226840817"><ele>21.666666666666668</ele><time>2026-04-06T05:27:54Z</time></trkpt><trkpt lat="40.25172506282582" lon="18.426334575106946"><ele>22.333333333333336</ele><time>2026-04-06T05:27:55Z</time></trkpt><trkpt lat="40.251685572961804" lon="18.42662683566594"><ele>23.0</ele><time>2026-04-06T05:27:56Z</time></trkpt><trkpt lat="40.251657019592926" lon="18.426920225127294"><ele>22.666666666666668</ele><time>2026-04-06T05:27:57Z</time></trkpt><trkpt lat="40.25163967367823" lon="18.427202447959054"><ele>22.333333333333332</ele><time>2026-04-06T05:27:58Z</time></trkpt><trkpt lat="40.251624889769055" lon="18.427506702854604"><ele>22.0</ele><time>2026-04-06T05:27:59Z</time></trkpt><trkpt lat="40.25162427741205" lon="18.427817132668174"><ele>21.5</ele><time>2026-04-06T05:28:00Z</time></trkpt><trkpt lat="40.25163083710826" lon="18.428120084715793"><ele>21.0</ele><time>2026-04-06T05:28:01Z</time></trkpt><trkpt lat="40.251645322363856" lon="18.42841950224363"><ele>21.0</ele><time>2026-04-06T05:28:02Z</time></trkpt><trkpt lat="40.25166524081561" lon="18.42873583126358"><ele>21.0</ele><time>2026-04-06T05:28:03Z</time></trkpt><trkpt lat="40.25170460926813" lon="18.42902774302645"><ele>20.0</ele><time>2026-04-06T05:28:04Z</time></trkpt><trkpt lat="40.25175338741569" lon="18.42934170397787"><ele>19.0</ele><time>2026-04-06T05:28:05Z</time></trkpt><trkpt lat="40.25181348270698" lon="18.42965256488545"><ele>18.5</ele><time>2026-04-06T05:28:06Z</time></trkpt><trkpt lat="40.251902292953645" lon="18.42996450415306"><ele>18.0</ele><time>2026-04-06T05:28:07Z</time></trkpt><trkpt lat="40.2519904769395" lon="18.430295188390424"><ele>17.5</ele><time>2026-04-06T05:28:08Z</time></trkpt><trkpt lat="40.25209585483549" lon="18.430652969423132"><ele>17.0</ele><time>2026-04-06T05:28:09Z</time></trkpt><trkpt lat="40.25217460057273" lon="18.43099707228845"><ele>17.0</ele><time>2026-04-06T05:28:10Z</time></trkpt><trkpt lat="40.25226040861498" lon="18.43131569290203"><ele>17.0</ele><time>2026-04-06T05:28:11Z</time></trkpt><trkpt lat="40.25234059743953" lon="18.431622857110963"><ele>16.5</ele><time>2026-04-06T05:28:12Z</time></trkpt><trkpt lat="40.2524106919377" lon="18.43194849959397"><ele>16.0</ele><time>2026-04-06T05:28:13Z</time></trkpt><trkpt lat="40.25248656571887" lon="18.43227291517163"><ele>15.5</ele><time>2026-04-06T05:28:14.001Z</time></trkpt><trkpt lat="40.25256481554021" lon="18.432583309624434"><ele>15.0</ele><time>2026-04-06T05:28:15.001Z</time></trkpt><trkpt lat="40.252649574893546" lon="18.432915750199736"><ele>14.5</ele><time>2026-04-06T05:28:16.001Z</time></trkpt><trkpt lat="40.25272272818136" lon="18.433243898799745"><ele>14.0</ele><time>2026-04-06T05:28:17.001Z</time></trkpt><trkpt lat="40.25281300206799" lon="18.433563480435797"><ele>14.5</ele><time>2026-04-06T05:28:18.001Z</time></trkpt><trkpt lat="40.25289945050247" lon="18.43389934101515"><ele>15.0</ele><time>2026-04-06T05:28:19.001Z</time></trkpt><trkpt lat="40.25298194900165" lon="18.434221920152787"><ele>15.0</ele><time>2026-04-06T05:28:20.001Z</time></trkpt><trkpt lat="40.253049694253185" lon="18.434539831141812"><ele>15.0</ele><time>2026-04-06T05:28:21.001Z</time></trkpt><trkpt lat="40.253116075730816" lon="18.434844204335437"><ele>16.0</ele><time>2026-04-06T05:28:22.001Z</time></trkpt><trkpt lat="40.253187832896636" lon="18.43516330926491"><ele>17.0</ele><time>2026-04-06T05:28:23.001Z</time></trkpt><trkpt lat="40.25324328326555" lon="18.435476349033074"><ele>19.0</ele><time>2026-04-06T05:28:24.001Z</time></trkpt><trkpt lat="40.25329317760193" lon="18.435783990285643"><ele>21.0</ele><time>2026-04-06T05:28:25.001Z</time></trkpt><trkpt lat="40.25335301992533" lon="18.436087727392344"><ele>21.5</ele><time>2026-04-06T05:28:26.001Z</time></trkpt><trkpt lat="40.253401405425365" lon="18.436388280245538"><ele>22.0</ele><time>2026-04-06T05:28:27.001Z</time></trkpt><trkpt lat="40.25345264128207" lon="18.436669164367654"><ele>22.0</ele><time>2026-04-06T05:28:28.001Z</time></trkpt><trkpt lat="40.25349833965101" lon="18.436912564911935"><ele>22.0</ele><time>2026-04-06T05:28:29.001Z</time></trkpt><trkpt lat="40.253546488420724" lon="18.437152712771077"><ele>22.0</ele><time>2026-04-06T05:28:30.001Z</time></trkpt><trkpt lat="40.25358594651967" lon="18.43736229731966"><ele>22.0</ele><time>2026-04-06T05:28:31.001Z</time></trkpt><trkpt lat="40.253624447850406" lon="18.437548395789264"><ele>22.0</ele><time>2026-04-06T05:28:32.001Z</time></trkpt><trkpt lat="40.253651247244825" lon="18.43771662008529"><ele>22.0</ele><time>2026-04-06T05:28:33.001Z</time></trkpt><trkpt lat="40.25367899816926" lon="18.43786729416438"><ele>22.0</ele><time>2026-04-06T05:28:34.001Z</time></trkpt><trkpt lat="40.2537040421249" lon="18.438014311891255"><ele>22.0</ele><time>2026-04-06T05:28:35.001Z</time></trkpt><trkpt lat="40.25372348448661" lon="18.43813061270752"><ele>22.0</ele><time>2026-04-06T05:28:36.001Z</time></trkpt><trkpt lat="40.25373472834351" lon="18.438230263404062"><ele>22.0</ele><time>2026-04-06T05:28:37.001Z</time></trkpt><trkpt lat="40.253732805780096" lon="18.43832588878262"><ele>22.0</ele><time>2026-04-06T05:28:38.001Z</time></trkpt><trkpt lat="40.25371375919856" lon="18.438427513705896"><ele>22.0</ele><time>2026-04-06T05:28:39.001Z</time></trkpt><trkpt lat="40.253684212713395" lon="18.43852518817361"><ele>22.0</ele><time>2026-04-06T05:28:40.001Z</time></trkpt><trkpt lat="40.25366600030189" lon="18.438612504566553"><ele>22.0</ele><time>2026-04-06T05:28:41.001Z</time></trkpt><trkpt lat="40.25368301992708" lon="18.438754184830746"><ele>22.0</ele><time>2026-04-06T05:28:43.001Z</time></trkpt><trkpt lat="40.25375553443392" lon="18.438843091082457"><ele>22.0</ele><time>2026-04-06T05:28:45.001Z</time></trkpt><trkpt lat="40.25383946507687" lon="18.43893727130052"><ele>22.0</ele><time>2026-04-06T05:28:47.001Z</time></trkpt><trkpt lat="40.253889144532636" lon="18.439004710711156"><ele>22.0</ele><time>2026-04-06T05:28:48.001Z</time></trkpt><trkpt lat="40.25393093710721" lon="18.43910716212858"><ele>21.75</ele><time>2026-04-06T05:28:49.001Z</time></trkpt><trkpt lat="40.25396947656794" lon="18.439236335693316"><ele>21.5</ele><time>2026-04-06T05:28:50.001Z</time></trkpt><trkpt lat="40.25401241462031" lon="18.43939326141921"><ele>21.25</ele><time>2026-04-06T05:28:51.001Z</time></trkpt><trkpt lat="40.254052659010505" lon="18.439549580892265"><ele>21.0</ele><time>2026-04-06T05:28:52.001Z</time></trkpt><trkpt lat="40.25410514512841" lon="18.439729232972233"><ele>21.0</ele><time>2026-04-06T05:28:53.001Z</time></trkpt><trkpt lat="40.254166119973604" lon="18.439893716148045"><ele>21.0</ele><time>2026-04-06T05:28:54.001Z</time></trkpt><trkpt lat="40.254211335999436" lon="18.440043674179066"><ele>21.0</ele><time>2026-04-06T05:28:55.001Z</time></trkpt><trkpt lat="40.25426273015651" lon="18.44018629035038"><ele>21.0</ele><time>2026-04-06T05:28:56.001Z</time></trkpt><trkpt lat="40.25431974223068" lon="18.44035116997161"><ele>20.0</ele><time>2026-04-06T05:28:57.001Z</time></trkpt><trkpt lat="40.25436976546757" lon="18.440677978261302"><ele>19.0</ele><time>2026-04-06T05:28:58.001Z</time></trkpt><trkpt lat="40.254345497422754" lon="18.440936492485637"><ele>19.0</ele><time>2026-04-06T05:28:59.001Z</time></trkpt><trkpt lat="40.25441308959019" lon="18.441122547341784"><ele>19.0</ele><time>2026-04-06T05:29:00.001Z</time></trkpt><trkpt lat="40.2544704257321" lon="18.441312505198308"><ele>19.0</ele><time>2026-04-06T05:29:01.001Z</time></trkpt><trkpt lat="40.25451336385743" lon="18.44149245818963"><ele>18.25</ele><time>2026-04-06T05:29:02.001Z</time></trkpt><trkpt lat="40.25456471614544" lon="18.441676111604153"><ele>17.5</ele><time>2026-04-06T05:29:03.001Z</time></trkpt><trkpt lat="40.25460994492299" lon="18.441859023332697"><ele>16.75</ele><time>2026-04-06T05:29:04.001Z</time></trkpt><trkpt lat="40.25466062683065" lon="18.442041206955427"><ele>16.0</ele><time>2026-04-06T05:29:05.001Z</time></trkpt><trkpt lat="40.25470320581828" lon="18.442205632080757"><ele>15.75</ele><time>2026-04-06T05:29:06.001Z</time></trkpt><trkpt lat="40.254739772305875" lon="18.442368478783397"><ele>15.5</ele><time>2026-04-06T05:29:07.001Z</time></trkpt><trkpt lat="40.2547764051498" lon="18.4425183692339"><ele>15.25</ele><time>2026-04-06T05:29:08.001Z</time></trkpt><trkpt lat="40.2548108189003" lon="18.442664431927593"><ele>15.0</ele><time>2026-04-06T05:29:09.001Z</time></trkpt><trkpt lat="40.254846802093574" lon="18.442806893092875"><ele>15.0</ele><time>2026-04-06T05:29:10.001Z</time></trkpt><trkpt lat="40.25488046274883" lon="18.442943795987187"><ele>15.0</ele><time>2026-04-06T05:29:11.001Z</time></trkpt><trkpt lat="40.254914355531845" lon="18.443075563977374"><ele>15.0</ele><time>2026-04-06T05:29:12.001Z</time></trkpt><trkpt lat="40.25494590735271" lon="18.44320304565946"><ele>15.0</ele><time>2026-04-06T05:29:13.001Z</time></trkpt><trkpt lat="40.254980730527365" lon="18.44332171190739"><ele>15.0</ele><time>2026-04-06T05:29:14.001Z</time></trkpt><trkpt lat="40.25501451146086" lon="18.443439167551627"><ele>14.666666666666666</ele><time>2026-04-06T05:29:15.001Z</time></trkpt><trkpt lat="40.2550439354883" lon="18.44355695287065"><ele>14.333333333333332</ele><time>2026-04-06T05:29:16.001Z</time></trkpt><trkpt lat="40.25507307518981" lon="18.4436702763867"><ele>14.0</ele><time>2026-04-06T05:29:17.001Z</time></trkpt><trkpt lat="40.25509388106756" lon="18.44377824051092"><ele>13.666666666666666</ele><time>2026-04-06T05:29:18.001Z</time></trkpt><trkpt lat="40.255117153314984" lon="18.443881610565487"><ele>13.333333333333332</ele><time>2026-04-06T05:29:19.001Z</time></trkpt><trkpt lat="40.255134255141805" lon="18.443969622772336"><ele>13.0</ele><time>2026-04-06T05:29:20.001Z</time></trkpt><trkpt lat="40.25514889649717" lon="18.444123039407643"><ele>12.4</ele><time>2026-04-06T05:29:22.001Z</time></trkpt><trkpt lat="40.25512966561794" lon="18.444244702975762"><ele>11.8</ele><time>2026-04-06T05:29:24.002Z</time></trkpt><trkpt lat="40.25521545241103" lon="18.444366091276972"><ele>11.2</ele><time>2026-04-06T05:29:26.002Z</time></trkpt><trkpt lat="40.25526851802723" lon="18.444466433178007"><ele>10.6</ele><time>2026-04-06T05:29:28.002Z</time></trkpt><trkpt lat="40.25539579190916" lon="18.444491924729103"><ele>10.0</ele><time>2026-04-06T05:29:30.002Z</time></trkpt><trkpt lat="40.2554671329927" lon="18.44445054797619"><ele>10.0</ele><time>2026-04-06T05:29:32.002Z</time></trkpt><trkpt lat="40.255545423060184" lon="18.44441056100394"><ele>10.0</ele><time>2026-04-06T05:29:36.002Z</time></trkpt><trkpt lat="40.25554950094783" lon="18.444307971745697"><ele>10.0</ele><time>2026-04-06T05:29:43Z</time></trkpt><trkpt lat="40.25547020925811" lon="18.44429326301222"><ele>10.0</ele><time>2026-04-06T05:29:46Z</time></trkpt><trkpt lat="40.25539096860428" lon="18.444312250453134"><ele>10.0</ele><time>2026-04-06T05:29:48Z</time></trkpt><trkpt lat="40.25537532592166" lon="18.444507297940024"><ele>10.0</ele><time>2026-04-06T05:29:49Z</time></trkpt><trkpt lat="40.25526693292834" lon="18.44448395619926"><ele>10.0</ele><time>2026-04-06T05:29:51Z</time></trkpt><trkpt lat="40.25521780181264" lon="18.44443067850428"><ele>10.0</ele><time>2026-04-06T05:29:52Z</time></trkpt><trkpt lat="40.255236394799205" lon="18.44434371921253"><ele>10.0</ele><time>2026-04-06T05:29:53Z</time></trkpt><trkpt lat="40.255145489587235" lon="18.44417104377126"><ele>10.0</ele><time>2026-04-06T05:29:55Z</time></trkpt><trkpt lat="40.25516389666207" lon="18.444063140849156"><ele>10.0</ele><time>2026-04-06T05:29:56Z</time></trkpt><trkpt lat="40.25513920285022" lon="18.443976705622664"><ele>10.0</ele><time>2026-04-06T05:29:57Z</time></trkpt><trkpt lat="40.25512138220668" lon="18.443888593995936"><ele>10.0</ele><time>2026-04-06T05:29:58Z</time></trkpt><trkpt lat="40.25510182172334" lon="18.443803049984336"><ele>10.0</ele><time>2026-04-06T05:29:59Z</time></trkpt><trkpt lat="40.25508759345877" lon="18.4437210566139"><ele>10.0</ele><time>2026-04-06T05:30:00Z</time></trkpt><trkpt lat="40.25506737972787" lon="18.443642185530432"><ele>10.0</ele><time>2026-04-06T05:30:01Z</time></trkpt><trkpt lat="40.25505350526575" lon="18.443509298384985"><ele>10.0</ele><time>2026-04-06T05:30:03Z</time></trkpt><trkpt lat="40.255026433435745" lon="18.443406113363924"><ele>10.6</ele><time>2026-04-06T05:30:05Z</time></trkpt><trkpt lat="40.25498418828078" lon="18.443308913212974"><ele>11.2</ele><time>2026-04-06T05:30:53.001Z</time></trkpt><trkpt lat="40.25496167729902" lon="18.443217543953146"><ele>11.8</ele><time>2026-04-06T05:30:54.001Z</time></trkpt><trkpt lat="40.25493729391095" lon="18.443114906109187"><ele>12.4</ele><time>2026-04-06T05:30:55.001Z</time></trkpt><trkpt lat="40.25490705932904" lon="18.442986191009016"><ele>13.0</ele><time>2026-04-06T05:30:56.001Z</time></trkpt><trkpt lat="40.25487072395161" lon="18.44283182902736"><ele>13.0</ele><time>2026-04-06T05:30:57.001Z</time></trkpt><trkpt lat="40.254831922361745" lon="18.442674644374186"><ele>13.0</ele><time>2026-04-06T05:30:58.001Z</time></trkpt><trkpt lat="40.2547933888004" lon="18.442493393635882"><ele>13.0</ele><time>2026-04-06T05:30:59.001Z</time></trkpt><trkpt lat="40.254752248907096" lon="18.442307549941205"><ele>13.0</ele><time>2026-04-06T05:31:00.001Z</time></trkpt><trkpt lat="40.25471232009226" lon="18.44211943500407"><ele>14.0</ele><time>2026-04-06T05:31:01.001Z</time></trkpt><trkpt lat="40.25466758002916" lon="18.4419299517655"><ele>15.0</ele><time>2026-04-06T05:31:02.001Z</time></trkpt><trkpt lat="40.25462343770854" lon="18.44173508430753"><ele>16.0</ele><time>2026-04-06T05:31:03.001Z</time></trkpt><trkpt lat="40.25456894878045" lon="18.4415272470765"><ele>16.0</ele><time>2026-04-06T05:31:04.001Z</time></trkpt><trkpt lat="40.254521240241864" lon="18.44131363686481"><ele>16.0</ele><time>2026-04-06T05:31:05.001Z</time></trkpt><trkpt lat="40.254464151722544" lon="18.441080378885832"><ele>16.0</ele><time>2026-04-06T05:31:06.001Z</time></trkpt><trkpt lat="40.25439450769446" lon="18.440847184721413"><ele>17.0</ele><time>2026-04-06T05:31:07.001Z</time></trkpt><trkpt lat="40.254333162526535" lon="18.440619101268222"><ele>18.0</ele><time>2026-04-06T05:31:08.001Z</time></trkpt><trkpt lat="40.25427011190568" lon="18.440395467625983"><ele>19.0</ele><time>2026-04-06T05:31:09.001Z</time></trkpt><trkpt lat="40.25421543059634" lon="18.440197288736286"><ele>19.333333333333332</ele><time>2026-04-06T05:31:10.001Z</time></trkpt><trkpt lat="40.254158766221316" lon="18.439995906013245"><ele>19.666666666666668</ele><time>2026-04-06T05:31:11.001Z</time></trkpt><trkpt lat="40.25410714510911" lon="18.43980990352874"><ele>20.0</ele><time>2026-04-06T05:31:12.001Z</time></trkpt><trkpt lat="40.2540746889456" lon="18.439623067069146"><ele>20.0</ele><time>2026-04-06T05:31:13.001Z</time></trkpt><trkpt lat="40.25403484988529" lon="18.43946431314971"><ele>20.0</ele><time>2026-04-06T05:31:14.001Z</time></trkpt><trkpt lat="40.25398933877481" lon="18.439330563916783"><ele>20.0</ele><time>2026-04-06T05:31:15.001Z</time></trkpt><trkpt lat="40.25395256583304" lon="18.439196043979127"><ele>20.0</ele><time>2026-04-06T05:31:16.001Z</time></trkpt><trkpt lat="40.25392876226759" lon="18.439081162881784"><ele>20.0</ele><time>2026-04-06T05:31:17.001Z</time></trkpt><trkpt lat="40.25393125871851" lon="18.438978606947707"><ele>20.166666666666668</ele><time>2026-04-06T05:31:18.001Z</time></trkpt><trkpt lat="40.25393959117076" lon="18.438884720571696"><ele>20.333333333333336</ele><time>2026-04-06T05:31:19.001Z</time></trkpt><trkpt lat="40.2539709972817" lon="18.438789820680675"><ele>20.5</ele><time>2026-04-06T05:31:20.001Z</time></trkpt><trkpt lat="40.2540149831295" lon="18.43868874210664"><ele>20.666666666666668</ele><time>2026-04-06T05:31:21.001Z</time></trkpt><trkpt lat="40.254096373088366" lon="18.438604179423535"><ele>20.833333333333332</ele><time>2026-04-06T05:31:22.001Z</time></trkpt><trkpt lat="40.25417391369169" lon="18.43852666551321"><ele>21.0</ele><time>2026-04-06T05:31:23.001Z</time></trkpt><trkpt lat="40.254280259415104" lon="18.438457718285367"><ele>21.0</ele><time>2026-04-06T05:31:24.001Z</time></trkpt><trkpt lat="40.25440111186399" lon="18.43839159968188"><ele>21.0</ele><time>2026-04-06T05:31:25.001Z</time></trkpt><trkpt lat="40.25451536970504" lon="18.438325523992148"><ele>21.0</ele><time>2026-04-06T05:31:26.001Z</time></trkpt><trkpt lat="40.25463929010543" lon="18.438255788365172"><ele>21.0</ele><time>2026-04-06T05:31:27.002Z</time></trkpt><trkpt lat="40.25476520679629" lon="18.438169193896375"><ele>21.333333333333332</ele><time>2026-04-06T05:31:28.002Z</time></trkpt><trkpt lat="40.25492222820556" lon="18.438078748383194"><ele>21.666666666666664</ele><time>2026-04-06T05:31:29.002Z</time></trkpt><trkpt lat="40.25508468852519" lon="18.437976642007055"><ele>22.0</ele><time>2026-04-06T05:31:30.002Z</time></trkpt><trkpt lat="40.25525673694795" lon="18.43787494135117"><ele>22.0</ele><time>2026-04-06T05:31:31.002Z</time></trkpt><trkpt lat="40.25543334824402" lon="18.43776212991255"><ele>22.0</ele><time>2026-04-06T05:31:32.002Z</time></trkpt><trkpt lat="40.25559902638786" lon="18.437660958609175"><ele>22.0</ele><time>2026-04-06T05:31:33.002Z</time></trkpt><trkpt lat="40.255776172195326" lon="18.437550046097144"><ele>21.666666666666664</ele><time>2026-04-06T05:31:34.002Z</time></trkpt><trkpt lat="40.25596039179576" lon="18.43743854379075"><ele>21.333333333333332</ele><time>2026-04-06T05:31:35.002Z</time></trkpt><trkpt lat="40.25614897029225" lon="18.437326706189452"><ele>21.0</ele><time>2026-04-06T05:31:36.002Z</time></trkpt><trkpt lat="40.256337701607315" lon="18.437208532357705"><ele>20.666666666666668</ele><time>2026-04-06T05:31:37.002Z</time></trkpt><trkpt lat="40.25653937984315" lon="18.437090959034222"><ele>20.333333333333336</ele><time>2026-04-06T05:31:38.002Z</time></trkpt><trkpt lat="40.25673034527684" lon="18.436978118418796"><ele>20.0</ele><time>2026-04-06T05:31:39.002Z</time></trkpt><trkpt lat="40.25691322658383" lon="18.436868723912735"><ele>20.0</ele><time>2026-04-06T05:31:40.002Z</time></trkpt><trkpt lat="40.257097421097036" lon="18.436755053003086"><ele>20.0</ele><time>2026-04-06T05:31:41.002Z</time></trkpt><trkpt lat="40.25728114602844" lon="18.436650140349787"><ele>20.0</ele><time>2026-04-06T05:31:42.002Z</time></trkpt><trkpt lat="40.25745997106157" lon="18.436546019243842"><ele>20.0</ele><time>2026-04-06T05:31:43Z</time></trkpt><trkpt lat="40.2576330182967" lon="18.436442635835515"><ele>20.0</ele><time>2026-04-06T05:31:44Z</time></trkpt><trkpt lat="40.25780424098891" lon="18.43634007986527"><ele>20.0</ele><time>2026-04-06T05:31:45Z</time></trkpt><trkpt lat="40.25796618440179" lon="18.436231646472873"><ele>20.0</ele><time>2026-04-06T05:31:46Z</time></trkpt><trkpt lat="40.258116998609744" lon="18.436138406340646"><ele>20.0</ele><time>2026-04-06T05:31:47Z</time></trkpt><trkpt lat="40.25827310787041" lon="18.43605458533701"><ele>20.0</ele><time>2026-04-06T05:31:48Z</time></trkpt><trkpt lat="40.25843271767072" lon="18.43596885667169"><ele>20.0</ele><time>2026-04-06T05:31:49Z</time></trkpt><trkpt lat="40.258595255803385" lon="18.435876898518668"><ele>20.0</ele><time>2026-04-06T05:31:50Z</time></trkpt><trkpt lat="40.258765005321514" lon="18.43577580202061"><ele>20.0</ele><time>2026-04-06T05:31:51Z</time></trkpt><trkpt lat="40.25894187052544" lon="18.435673650713706"><ele>19.666666666666668</ele><time>2026-04-06T05:31:52Z</time></trkpt><trkpt lat="40.259126372439496" lon="18.435559495522995"><ele>19.333333333333332</ele><time>2026-04-06T05:31:53Z</time></trkpt><trkpt lat="40.25930920400537" lon="18.435445010428804"><ele>19.0</ele><time>2026-04-06T05:31:54Z</time></trkpt><trkpt lat="40.259502346182565" lon="18.43533381145994"><ele>18.666666666666664</ele><time>2026-04-06T05:31:55Z</time></trkpt><trkpt lat="40.25969728888458" lon="18.435212992442928"><ele>18.333333333333332</ele><time>2026-04-06T05:31:56Z</time></trkpt><trkpt lat="40.25989613554581" lon="18.435092853897217"><ele>18.0</ele><time>2026-04-06T05:31:57Z</time></trkpt><trkpt lat="40.26010347879875" lon="18.434972091724838"><ele>18.0</ele><time>2026-04-06T05:31:58Z</time></trkpt><trkpt lat="40.26031666410405" lon="18.43485069817839"><ele>18.0</ele><time>2026-04-06T05:31:59Z</time></trkpt><trkpt lat="40.260532029450864" lon="18.434722803055344"><ele>17.5</ele><time>2026-04-06T05:32:00Z</time></trkpt><trkpt lat="40.26074689802195" lon="18.434594548513545"><ele>17.0</ele><time>2026-04-06T05:32:01Z</time></trkpt><trkpt lat="40.26096677807095" lon="18.434469228840534"><ele>17.0</ele><time>2026-04-06T05:32:02Z</time></trkpt><trkpt lat="40.26118802548041" lon="18.43433647699492"><ele>17.0</ele><time>2026-04-06T05:32:03Z</time></trkpt><trkpt lat="40.26141490276627" lon="18.43420925673161"><ele>17.0</ele><time>2026-04-06T05:32:04Z</time></trkpt><trkpt lat="40.26164024476987" lon="18.43409727981908"><ele>17.0</ele><time>2026-04-06T05:32:05Z</time></trkpt><trkpt lat="40.26187150431918" lon="18.43397649446803"><ele>17.0</ele><time>2026-04-06T05:32:06Z</time></trkpt><trkpt lat="40.26209997853376" lon="18.43384716416032"><ele>17.0</ele><time>2026-04-06T05:32:07Z</time></trkpt><trkpt lat="40.26232281688256" lon="18.433709455280898"><ele>16.5</ele><time>2026-04-06T05:32:08Z</time></trkpt><trkpt lat="40.26254736799601" lon="18.433575683299463"><ele>16.0</ele><time>2026-04-06T05:32:09Z</time></trkpt><trkpt lat="40.26277031855513" lon="18.43344626843743"><ele>16.0</ele><time>2026-04-06T05:32:10Z</time></trkpt><trkpt lat="40.26299553791242" lon="18.433316745548233"><ele>16.0</ele><time>2026-04-06T05:32:11Z</time></trkpt><trkpt lat="40.26321464283099" lon="18.43318574480456"><ele>16.0</ele><time>2026-04-06T05:32:12Z</time></trkpt><trkpt lat="40.26343855381555" lon="18.433053910335623"><ele>16.0</ele><time>2026-04-06T05:32:13Z</time></trkpt><trkpt lat="40.26366415707903" lon="18.432923033348974"><ele>15.0</ele><time>2026-04-06T05:32:14Z</time></trkpt><trkpt lat="40.26389098770774" lon="18.432791796266113"><ele>14.0</ele><time>2026-04-06T05:32:15Z</time></trkpt><trkpt lat="40.264122153897254" lon="18.432662992376486"><ele>14.0</ele><time>2026-04-06T05:32:16Z</time></trkpt><trkpt lat="40.26434393106379" lon="18.43252594037626"><ele>14.0</ele><time>2026-04-06T05:32:17Z</time></trkpt><trkpt lat="40.26455554643179" lon="18.432403036577654"><ele>14.0</ele><time>2026-04-06T05:32:18Z</time></trkpt><trkpt lat="40.264743696859576" lon="18.43228914401536"><ele>14.0</ele><time>2026-04-06T05:32:19Z</time></trkpt><trkpt lat="40.26490010748578" lon="18.432195583104928"><ele>14.0</ele><time>2026-04-06T05:32:20Z</time></trkpt><trkpt lat="40.26505286105566" lon="18.43210227303577"><ele>14.0</ele><time>2026-04-06T05:32:21Z</time></trkpt><trkpt lat="40.26520022765368" lon="18.43202636974247"><ele>14.0</ele><time>2026-04-06T05:32:22Z</time></trkpt><trkpt lat="40.2653403484359" lon="18.43194627612109"><ele>14.0</ele><time>2026-04-06T05:32:23.001Z</time></trkpt><trkpt lat="40.26547888067844" lon="18.431884206856193"><ele>13.666666666666668</ele><time>2026-04-06T05:32:24.001Z</time></trkpt><trkpt lat="40.265623329407155" lon="18.431836469168346"><ele>13.333333333333332</ele><time>2026-04-06T05:32:25.001Z</time></trkpt><trkpt lat="40.2657794254661" lon="18.431802600322005"><ele>13.0</ele><time>2026-04-06T05:32:26.001Z</time></trkpt><trkpt lat="40.26593414698557" lon="18.43178153843954"><ele>13.0</ele><time>2026-04-06T05:32:27.001Z</time></trkpt><trkpt lat="40.26608970097809" lon="18.431758860574675"><ele>13.0</ele><time>2026-04-06T05:32:28.001Z</time></trkpt><trkpt lat="40.26624853160578" lon="18.43175231866927"><ele>13.0</ele><time>2026-04-06T05:32:29.001Z</time></trkpt><trkpt lat="40.266408929081045" lon="18.431783418443185"><ele>13.5</ele><time>2026-04-06T05:32:30.001Z</time></trkpt><trkpt lat="40.266552155526334" lon="18.431786423691687"><ele>14.0</ele><time>2026-04-06T05:32:31.001Z</time></trkpt><trkpt lat="40.26668786264382" lon="18.4317880188638"><ele>14.5</ele><time>2026-04-06T05:32:32.001Z</time></trkpt><trkpt lat="40.26683384771166" lon="18.43178569483329"><ele>15.0</ele><time>2026-04-06T05:32:33.001Z</time></trkpt><trkpt lat="40.26698815271322" lon="18.431774570307304"><ele>15.0</ele><time>2026-04-06T05:32:34.001Z</time></trkpt><trkpt lat="40.267154751540076" lon="18.431745767765374"><ele>15.0</ele><time>2026-04-06T05:32:35.001Z</time></trkpt><trkpt lat="40.26733568089219" lon="18.431746597568562"><ele>15.0</ele><time>2026-04-06T05:32:36.001Z</time></trkpt><trkpt lat="40.267522315003845" lon="18.43172398497468"><ele>15.0</ele><time>2026-04-06T05:32:37.001Z</time></trkpt><trkpt lat="40.26769628015994" lon="18.431663988525468"><ele>15.0</ele><time>2026-04-06T05:32:38.001Z</time></trkpt><trkpt lat="40.26786188151489" lon="18.431615238290572"><ele>15.0</ele><time>2026-04-06T05:32:39.001Z</time></trkpt><trkpt lat="40.26803272262461" lon="18.431548478361847"><ele>15.0</ele><time>2026-04-06T05:32:40.001Z</time></trkpt><trkpt lat="40.268187269906086" lon="18.431450060016985"><ele>15.0</ele><time>2026-04-06T05:32:41.001Z</time></trkpt><trkpt lat="40.268325151454256" lon="18.431327562650036"><ele>15.0</ele><time>2026-04-06T05:32:42.001Z</time></trkpt><trkpt lat="40.268461063988404" lon="18.43118695312417"><ele>13.666666666666666</ele><time>2026-04-06T05:32:43.001Z</time></trkpt><trkpt lat="40.268628060117855" lon="18.43105384336587"><ele>12.333333333333332</ele><time>2026-04-06T05:32:44.001Z</time></trkpt><trkpt lat="40.2687674165769" lon="18.430900899988103"><ele>11.0</ele><time>2026-04-06T05:32:45.001Z</time></trkpt><trkpt lat="40.26891000159382" lon="18.430726773742364"><ele>10.333333333333332</ele><time>2026-04-06T05:32:46.001Z</time></trkpt><trkpt lat="40.26906054994233" lon="18.4305582498896"><ele>9.666666666666666</ele><time>2026-04-06T05:32:47.001Z</time></trkpt><trkpt lat="40.26922829486127" lon="18.430421871632138"><ele>9.0</ele><time>2026-04-06T05:32:48.001Z</time></trkpt><trkpt lat="40.26938613085482" lon="18.430270934841936"><ele>9.666666666666666</ele><time>2026-04-06T05:32:49.001Z</time></trkpt><trkpt lat="40.26952794472089" lon="18.430135423806533"><ele>10.333333333333332</ele><time>2026-04-06T05:32:50.001Z</time></trkpt><trkpt lat="40.26965603917227" lon="18.42998763507103"><ele>11.0</ele><time>2026-04-06T05:32:51.001Z</time></trkpt><trkpt lat="40.2697807027683" lon="18.42987499387862"><ele>11.0</ele><time>2026-04-06T05:32:52.001Z</time></trkpt><trkpt lat="40.269898193497255" lon="18.42978291102665"><ele>11.0</ele><time>2026-04-06T05:32:53.001Z</time></trkpt><trkpt lat="40.27000698055648" lon="18.429678144551765"><ele>11.0</ele><time>2026-04-06T05:32:54.001Z</time></trkpt><trkpt lat="40.27010492039848" lon="18.429560895054372"><ele>11.0</ele><time>2026-04-06T05:32:55.001Z</time></trkpt><trkpt lat="40.27020576991942" lon="18.429469088555674"><ele>10.75</ele><time>2026-04-06T05:32:56.001Z</time></trkpt><trkpt lat="40.27030700986734" lon="18.429382935482533"><ele>10.5</ele><time>2026-04-06T05:32:57.001Z</time></trkpt><trkpt lat="40.270399907984874" lon="18.42931354952774"><ele>10.25</ele><time>2026-04-06T05:32:58.001Z</time></trkpt><trkpt lat="40.270508211660264" lon="18.429246461789166"><ele>10.0</ele><time>2026-04-06T05:32:59.001Z</time></trkpt><trkpt lat="40.27062272351023" lon="18.429187925853736"><ele>10.0</ele><time>2026-04-06T05:33:00.001Z</time></trkpt><trkpt lat="40.27073349235514" lon="18.429137878038528"><ele>10.0</ele><time>2026-04-06T05:33:01.001Z</time></trkpt><trkpt lat="40.27081760928166" lon="18.42909165626613"><ele>10.0</ele><time>2026-04-06T05:33:02.001Z</time></trkpt><trkpt lat="40.270900128312014" lon="18.42905137615398"><ele>10.0</ele><time>2026-04-06T05:33:03.001Z</time></trkpt><trkpt lat="40.2709821300666" lon="18.429031228967578"><ele>10.0</ele><time>2026-04-06T05:33:04.001Z</time></trkpt><trkpt lat="40.27108957172029" lon="18.428970416216636"><ele>10.0</ele><time>2026-04-06T05:33:06.001Z</time></trkpt><trkpt lat="40.271182614143164" lon="18.428934433761906"><ele>10.0</ele><time>2026-04-06T05:33:08.001Z</time></trkpt><trkpt lat="40.27116010602683" lon="18.428725806355086"><ele>10.0</ele><time>2026-04-06T05:33:10.001Z</time></trkpt><trkpt lat="40.271095627695" lon="18.42860800336189"><ele>10.0</ele><time>2026-04-06T05:33:11.001Z</time></trkpt><trkpt lat="40.271057478795974" lon="18.42847258425845"><ele>10.25</ele><time>2026-04-06T05:33:12.001Z</time></trkpt><trkpt lat="40.271012298544804" lon="18.42832410265328"><ele>10.5</ele><time>2026-04-06T05:33:13.001Z</time></trkpt><trkpt lat="40.27094518341749" lon="18.428180285804984"><ele>10.75</ele><time>2026-04-06T05:33:14.001Z</time></trkpt><trkpt lat="40.270910375317904" lon="18.42803480750318"><ele>11.0</ele><time>2026-04-06T05:33:15.001Z</time></trkpt><trkpt lat="40.27086532578629" lon="18.427876240601744"><ele>11.25</ele><time>2026-04-06T05:33:16.001Z</time></trkpt><trkpt lat="40.270806766615735" lon="18.427717313797974"><ele>11.5</ele><time>2026-04-06T05:33:17.001Z</time></trkpt><trkpt lat="40.270766643088066" lon="18.42756142845994"><ele>11.75</ele><time>2026-04-06T05:33:18.001Z</time></trkpt><trkpt lat="40.27073165819789" lon="18.427426689987005"><ele>12.0</ele><time>2026-04-06T05:33:19.001Z</time></trkpt><trkpt lat="40.27069774697582" lon="18.42730316083128"><ele>12.0</ele><time>2026-04-06T05:33:20.001Z</time></trkpt><trkpt lat="40.27067103137972" lon="18.42720269195479"><ele>12.0</ele><time>2026-04-06T05:33:21.001Z</time></trkpt><trkpt lat="40.27063778440997" lon="18.42709147226372"><ele>12.0</ele><time>2026-04-06T05:33:22.001Z</time></trkpt><trkpt lat="40.270609092653885" lon="18.426957920529137"><ele>12.0</ele><time>2026-04-06T05:33:23.001Z</time></trkpt><trkpt lat="40.270604092798976" lon="18.426819401580467"><ele>12.0</ele><time>2026-04-06T05:33:24.001Z</time></trkpt><trkpt lat="40.27060162840165" lon="18.42668101839722"><ele>12.2</ele><time>2026-04-06T05:33:25.001Z</time></trkpt><trkpt lat="40.27061488708711" lon="18.42654292988553"><ele>12.399999999999999</ele><time>2026-04-06T05:33:26.001Z</time></trkpt><trkpt lat="40.270637243724664" lon="18.426427118419962"><ele>12.600000000000001</ele><time>2026-04-06T05:33:27.001Z</time></trkpt><trkpt lat="40.27067594015294" lon="18.426322312457977"><ele>12.8</ele><time>2026-04-06T05:33:28.001Z</time></trkpt><trkpt lat="40.270727210423374" lon="18.42619985162355"><ele>13.0</ele><time>2026-04-06T05:33:29.001Z</time></trkpt><trkpt lat="40.27078450863977" lon="18.426111620797652"><ele>13.0</ele><time>2026-04-06T05:33:30.001Z</time></trkpt><trkpt lat="40.27086064761967" lon="18.426065240799062"><ele>13.0</ele><time>2026-04-06T05:33:31.001Z</time></trkpt><trkpt lat="40.270948136220035" lon="18.42597422986773"><ele>13.0</ele><time>2026-04-06T05:33:32.001Z</time></trkpt><trkpt lat="40.27102904365063" lon="18.425886662466496"><ele>13.0</ele><time>2026-04-06T05:33:33.001Z</time></trkpt><trkpt lat="40.27111143518081" lon="18.425798202509856"><ele>13.0</ele><time>2026-04-06T05:33:34.001Z</time></trkpt><trkpt lat="40.271201815877035" lon="18.42569829350062"><ele>13.0</ele><time>2026-04-06T05:33:35.001Z</time></trkpt><trkpt lat="40.27127389452734" lon="18.425588123278054"><ele>13.0</ele><time>2026-04-06T05:33:36.001Z</time></trkpt><trkpt lat="40.271364447496666" lon="18.425486191340546"><ele>13.0</ele><time>2026-04-06T05:33:37.001Z</time></trkpt><trkpt lat="40.2714574245454" lon="18.42543911691191"><ele>13.0</ele><time>2026-04-06T05:33:38.001Z</time></trkpt><trkpt lat="40.271542897168544" lon="18.42535510771834"><ele>13.0</ele><time>2026-04-06T05:33:39.001Z</time></trkpt><trkpt lat="40.27161826445296" lon="18.425241848445207"><ele>13.0</ele><time>2026-04-06T05:33:40.001Z</time></trkpt><trkpt lat="40.27166993866616" lon="18.425105153744386"><ele>13.0</ele><time>2026-04-06T05:33:41.001Z</time></trkpt><trkpt lat="40.271729201096406" lon="18.424982544519068"><ele>13.0</ele><time>2026-04-06T05:33:42.001Z</time></trkpt><trkpt lat="40.27179059024587" lon="18.42485672761498"><ele>13.0</ele><time>2026-04-06T05:33:43.001Z</time></trkpt><trkpt lat="40.27185780692931" lon="18.424699825206865"><ele>12.75</ele><time>2026-04-06T05:33:44.001Z</time></trkpt><trkpt lat="40.2719132342327" lon="18.42455869287773"><ele>12.5</ele><time>2026-04-06T05:33:45.002Z</time></trkpt><trkpt lat="40.271962033414" lon="18.42441993674428"><ele>12.25</ele><time>2026-04-06T05:33:46.002Z</time></trkpt><trkpt lat="40.272014507113475" lon="18.424279382409193"><ele>12.0</ele><time>2026-04-06T05:33:47.002Z</time></trkpt><trkpt lat="40.27206088727845" lon="18.42413969866101"><ele>12.0</ele><time>2026-04-06T05:33:48.002Z</time></trkpt><trkpt lat="40.272096284161464" lon="18.42401039242073"><ele>12.0</ele><time>2026-04-06T05:33:49Z</time></trkpt><trkpt lat="40.27212178724507" lon="18.423915022151782"><ele>12.0</ele><time>2026-04-06T05:33:50Z</time></trkpt><trkpt lat="40.27215042218643" lon="18.42383953018615"><ele>12.0</ele><time>2026-04-06T05:33:52Z</time></trkpt><trkpt lat="40.272274422035636" lon="18.423893383577507"><ele>12.0</ele><time>2026-04-06T05:33:54Z</time></trkpt><trkpt lat="40.27237154013825" lon="18.423922644744295"><ele>12.0</ele><time>2026-04-06T05:33:55Z</time></trkpt><trkpt lat="40.272478527747886" lon="18.423954879157904"><ele>12.0</ele><time>2026-04-06T05:33:56Z</time></trkpt><trkpt lat="40.272611172384195" lon="18.423982892091882"><ele>12.0</ele><time>2026-04-06T05:33:57Z</time></trkpt><trkpt lat="40.27273709574963" lon="18.42402336082177"><ele>12.0</ele><time>2026-04-06T05:33:58Z</time></trkpt><trkpt lat="40.272881007800535" lon="18.424061804278235"><ele>12.0</ele><time>2026-04-06T05:33:59Z</time></trkpt><trkpt lat="40.27301286914642" lon="18.42411210462678"><ele>12.0</ele><time>2026-04-06T05:34:00Z</time></trkpt><trkpt lat="40.273152245107354" lon="18.424164919161537"><ele>12.0</ele><time>2026-04-06T05:34:01Z</time></trkpt><trkpt lat="40.27330770410185" lon="18.42420431202086"><ele>12.0</ele><time>2026-04-06T05:34:02Z</time></trkpt><trkpt lat="40.273418685691745" lon="18.424251496936275"><ele>12.25</ele><time>2026-04-06T05:34:03Z</time></trkpt><trkpt lat="40.27352709014216" lon="18.42429374759993"><ele>12.5</ele><time>2026-04-06T05:34:04Z</time></trkpt><trkpt lat="40.27363461831279" lon="18.424337309704157"><ele>12.75</ele><time>2026-04-06T05:34:05Z</time></trkpt><trkpt lat="40.27376035508859" lon="18.424376546956243"><ele>13.0</ele><time>2026-04-06T05:34:06Z</time></trkpt><trkpt lat="40.273892746579364" lon="18.424417158809597"><ele>12.75</ele><time>2026-04-06T05:34:07Z</time></trkpt><trkpt lat="40.274028154424634" lon="18.42446135700399"><ele>12.5</ele><time>2026-04-06T05:34:08Z</time></trkpt><trkpt lat="40.27415967947409" lon="18.424499944536628"><ele>12.25</ele><time>2026-04-06T05:34:09Z</time></trkpt><trkpt lat="40.27429098122609" lon="18.424547213417778"><ele>12.0</ele><time>2026-04-06T05:34:10Z</time></trkpt><trkpt lat="40.274392621293494" lon="18.42458861127013"><ele>12.0</ele><time>2026-04-06T05:34:11Z</time></trkpt><trkpt lat="40.27449129608251" lon="18.424623298801095"><ele>12.0</ele><time>2026-04-06T05:34:12Z</time></trkpt><trkpt lat="40.27455508281316" lon="18.424645618345952"><ele>12.0</ele><time>2026-04-06T05:34:13Z</time></trkpt><trkpt lat="40.2746327472807" lon="18.424675002734016"><ele>12.0</ele><time>2026-04-06T05:34:14Z</time></trkpt><trkpt lat="40.2747078648195" lon="18.42469105854294"><ele>12.0</ele><time>2026-04-06T05:34:16Z</time></trkpt><trkpt lat="40.27463471928889" lon="18.42469322525921"><ele>12.0</ele><time>2026-04-06T05:34:19Z</time></trkpt><trkpt lat="40.274781477487906" lon="18.424690721730148"><ele>12.0</ele><time>2026-04-06T05:34:43.001Z</time></trkpt><trkpt lat="40.274926202860854" lon="18.424720849397133"><ele>12.0</ele><time>2026-04-06T05:34:45.001Z</time></trkpt><trkpt lat="40.27504718102767" lon="18.424740672199906"><ele>12.0</ele><time>2026-04-06T05:34:46.001Z</time></trkpt><trkpt lat="40.27517801271333" lon="18.424762883615433"><ele>12.0</ele><time>2026-04-06T05:34:47.001Z</time></trkpt><trkpt lat="40.275306155434265" lon="18.42479532849594"><ele>12.0</ele><time>2026-04-06T05:34:48.001Z</time></trkpt><trkpt lat="40.27545223964753" lon="18.42483420783141"><ele>12.0</ele><time>2026-04-06T05:34:49.001Z</time></trkpt><trkpt lat="40.27562253604286" lon="18.424874137655856"><ele>12.0</ele><time>2026-04-06T05:34:50.001Z</time></trkpt><trkpt lat="40.275780811308" lon="18.424908656579777"><ele>12.0</ele><time>2026-04-06T05:34:51.001Z</time></trkpt><trkpt lat="40.27595267006661" lon="18.424953538757638"><ele>12.0</ele><time>2026-04-06T05:34:52.001Z</time></trkpt><trkpt lat="40.27614679346973" lon="18.424983663201917"><ele>12.0</ele><time>2026-04-06T05:34:53.001Z</time></trkpt><trkpt lat="40.27633594661332" lon="18.425024682347694"><ele>12.0</ele><time>2026-04-06T05:34:54.001Z</time></trkpt><trkpt lat="40.27653798278173" lon="18.42507490719307"><ele>12.0</ele><time>2026-04-06T05:34:55.001Z</time></trkpt><trkpt lat="40.27673221259079" lon="18.425123166917963"><ele>12.0</ele><time>2026-04-06T05:34:56.001Z</time></trkpt><trkpt lat="40.27691463321841" lon="18.425163931606694"><ele>12.0</ele><time>2026-04-06T05:34:57.001Z</time></trkpt><trkpt lat="40.277089788260774" lon="18.425206942500633"><ele>12.0</ele><time>2026-04-06T05:34:58.001Z</time></trkpt><trkpt lat="40.27726750801171" lon="18.425250530873992"><ele>12.0</ele><time>2026-04-06T05:34:59.001Z</time></trkpt><trkpt lat="40.277451090127094" lon="18.425289762839917"><ele>11.333333333333334</ele><time>2026-04-06T05:35:00.001Z</time></trkpt><trkpt lat="40.27762450075455" lon="18.42532131786174"><ele>10.666666666666668</ele><time>2026-04-06T05:35:01.001Z</time></trkpt><trkpt lat="40.2777998772531" lon="18.42535796742885"><ele>10.0</ele><time>2026-04-06T05:35:02.001Z</time></trkpt><trkpt lat="40.27797604749984" lon="18.42539798226935"><ele>10.0</ele><time>2026-04-06T05:35:03.001Z</time></trkpt><trkpt lat="40.27813654374305" lon="18.42544156844983"><ele>10.0</ele><time>2026-04-06T05:35:04.001Z</time></trkpt><trkpt lat="40.278284766254295" lon="18.425505617054952"><ele>10.0</ele><time>2026-04-06T05:35:05.001Z</time></trkpt><trkpt lat="40.27841964003538" lon="18.425586574449483"><ele>10.0</ele><time>2026-04-06T05:35:06.001Z</time></trkpt><trkpt lat="40.27855852899758" lon="18.425692166575203"><ele>10.0</ele><time>2026-04-06T05:35:07.001Z</time></trkpt><trkpt lat="40.278689608851984" lon="18.425810913131354"><ele>10.0</ele><time>2026-04-06T05:35:08.001Z</time></trkpt><trkpt lat="40.27881140842587" lon="18.425954272027216"><ele>10.0</ele><time>2026-04-06T05:35:09.001Z</time></trkpt><trkpt lat="40.27892361566971" lon="18.42609838695413"><ele>10.0</ele><time>2026-04-06T05:35:10.001Z</time></trkpt><trkpt lat="40.279019328940905" lon="18.42625935075876"><ele>10.0</ele><time>2026-04-06T05:35:11.001Z</time></trkpt><trkpt lat="40.27910422551064" lon="18.426432445775554"><ele>11.333333333333334</ele><time>2026-04-06T05:35:12.001Z</time></trkpt><trkpt lat="40.2791824642901" lon="18.42663455091197"><ele>12.666666666666668</ele><time>2026-04-06T05:35:13.001Z</time></trkpt><trkpt lat="40.27923980249129" lon="18.42684502149356"><ele>14.0</ele><time>2026-04-06T05:35:14.001Z</time></trkpt><trkpt lat="40.279276668814106" lon="18.427063328096462"><ele>14.333333333333334</ele><time>2026-04-06T05:35:15.001Z</time></trkpt><trkpt lat="40.27930274275348" lon="18.427290460518883"><ele>14.666666666666668</ele><time>2026-04-06T05:35:16.001Z</time></trkpt><trkpt lat="40.27931512301483" lon="18.427533396276594"><ele>15.0</ele><time>2026-04-06T05:35:17.001Z</time></trkpt><trkpt lat="40.27932297585828" lon="18.427780151494144"><ele>14.666666666666668</ele><time>2026-04-06T05:35:18.001Z</time></trkpt><trkpt lat="40.27933240208514" lon="18.428016944974306"><ele>14.333333333333334</ele><time>2026-04-06T05:35:19.001Z</time></trkpt><trkpt lat="40.27933996501244" lon="18.428250594568464"><ele>14.0</ele><time>2026-04-06T05:35:20.001Z</time></trkpt><trkpt lat="40.27934986622543" lon="18.428474813588142"><ele>14.0</ele><time>2026-04-06T05:35:21.001Z</time></trkpt><trkpt lat="40.27936137537536" lon="18.428683818482384"><ele>14.0</ele><time>2026-04-06T05:35:22.001Z</time></trkpt><trkpt lat="40.27936825549436" lon="18.428880620125557"><ele>14.0</ele><time>2026-04-06T05:35:23.001Z</time></trkpt><trkpt lat="40.279372419316836" lon="18.429058906020458"><ele>14.0</ele><time>2026-04-06T05:35:24.001Z</time></trkpt><trkpt lat="40.279373351238725" lon="18.4292258524937"><ele>14.25</ele><time>2026-04-06T05:35:25.001Z</time></trkpt><trkpt lat="40.27936949666643" lon="18.429379570344445"><ele>14.5</ele><time>2026-04-06T05:35:26.001Z</time></trkpt><trkpt lat="40.27936254615132" lon="18.429535328312372"><ele>14.75</ele><time>2026-04-06T05:35:27.001Z</time></trkpt><trkpt lat="40.279356089219554" lon="18.429691055921147"><ele>15.0</ele><time>2026-04-06T05:35:28.001Z</time></trkpt><trkpt lat="40.279355180093845" lon="18.429848494435472"><ele>15.2</ele><time>2026-04-06T05:35:29.001Z</time></trkpt><trkpt lat="40.27935145003797" lon="18.43000125216735"><ele>15.4</ele><time>2026-04-06T05:35:30.001Z</time></trkpt><trkpt lat="40.27933155666465" lon="18.4301422473988"><ele>15.600000000000001</ele><time>2026-04-06T05:35:31.001Z</time></trkpt><trkpt lat="40.27932605685375" lon="18.430261938342127"><ele>15.8</ele><time>2026-04-06T05:35:32.001Z</time></trkpt><trkpt lat="40.27932094933292" lon="18.43036134778933"><ele>16.0</ele><time>2026-04-06T05:35:33.001Z</time></trkpt><trkpt lat="40.27930980129287" lon="18.430446659104593"><ele>15.571428571428571</ele><time>2026-04-06T05:35:34.001Z</time></trkpt><trkpt lat="40.27927733033914" lon="18.43052053497085"><ele>15.142857142857142</ele><time>2026-04-06T05:35:35.001Z</time></trkpt><trkpt lat="40.279263623461254" lon="18.43061886182356"><ele>14.714285714285714</ele><time>2026-04-06T05:35:36.001Z</time></trkpt><trkpt lat="40.27921690878212" lon="18.43068780865923"><ele>14.285714285714285</ele><time>2026-04-06T05:35:37.001Z</time></trkpt><trkpt lat="40.27917752467115" lon="18.430755839332157"><ele>13.857142857142858</ele><time>2026-04-06T05:35:38.001Z</time></trkpt><trkpt lat="40.27914005049588" lon="18.43083108177139"><ele>13.428571428571427</ele><time>2026-04-06T05:35:39.001Z</time></trkpt><trkpt lat="40.27909199568336" lon="18.430940352778688"><ele>13.0</ele><time>2026-04-06T05:35:41.001Z</time></trkpt><trkpt lat="40.279069078087055" lon="18.431018521867003"><ele>13.0</ele><time>2026-04-06T05:35:43.001Z</time></trkpt><trkpt lat="40.27907063087156" lon="18.4311069383102"><ele>13.0</ele><time>2026-04-06T05:35:46.001Z</time></trkpt><trkpt lat="40.27921364738395" lon="18.43122490283725"><ele>13.0</ele><time>2026-04-06T05:35:49.001Z</time></trkpt><trkpt lat="40.27927870354904" lon="18.43125561674829"><ele>13.0</ele><time>2026-04-06T05:35:50.001Z</time></trkpt><trkpt lat="40.27936073535187" lon="18.431293648350014"><ele>13.0</ele><time>2026-04-06T05:35:51.001Z</time></trkpt><trkpt lat="40.27945387185046" lon="18.43131656787744"><ele>12.0</ele><time>2026-04-06T05:35:52.001Z</time></trkpt><trkpt lat="40.27957072785061" lon="18.431313078154528"><ele>11.0</ele><time>2026-04-06T05:35:53.001Z</time></trkpt><trkpt lat="40.27967891899586" lon="18.43134120085689"><ele>10.0</ele><time>2026-04-06T05:35:54.001Z</time></trkpt><trkpt lat="40.27979222614352" lon="18.431343969438462"><ele>9.0</ele><time>2026-04-06T05:35:55Z</time></trkpt><trkpt lat="40.279913313905865" lon="18.431340558188463"><ele>9.0</ele><time>2026-04-06T05:35:56Z</time></trkpt><trkpt lat="40.28004195305241" lon="18.43133231437342"><ele>9.0</ele><time>2026-04-06T05:35:57Z</time></trkpt><trkpt lat="40.28018027026839" lon="18.431322777138828"><ele>9.0</ele><time>2026-04-06T05:35:58Z</time></trkpt><trkpt lat="40.280325252282545" lon="18.43131182996818"><ele>9.0</ele><time>2026-04-06T05:35:59Z</time></trkpt><trkpt lat="40.28047360881228" lon="18.43128140931349"><ele>10.25</ele><time>2026-04-06T05:36:00Z</time></trkpt><trkpt lat="40.28062573643276" lon="18.431286843390872"><ele>11.5</ele><time>2026-04-06T05:36:01Z</time></trkpt><trkpt lat="40.28077535103238" lon="18.431280745471945"><ele>12.75</ele><time>2026-04-06T05:36:02Z</time></trkpt><trkpt lat="40.28091594154494" lon="18.43127021819178"><ele>14.0</ele><time>2026-04-06T05:36:03Z</time></trkpt><trkpt lat="40.28106055639291" lon="18.43125502188791"><ele>14.0</ele><time>2026-04-06T05:36:04Z</time></trkpt><trkpt lat="40.2812041183126" lon="18.43123857929801"><ele>14.0</ele><time>2026-04-06T05:36:05Z</time></trkpt><trkpt lat="40.28134121898448" lon="18.431222090109674"><ele>14.0</ele><time>2026-04-06T05:36:06Z</time></trkpt><trkpt lat="40.28148137681881" lon="18.431229545422877"><ele>14.0</ele><time>2026-04-06T05:36:07Z</time></trkpt><trkpt lat="40.28162886011868" lon="18.431216521021152"><ele>14.333333333333334</ele><time>2026-04-06T05:36:08Z</time></trkpt><trkpt lat="40.28177640158877" lon="18.43120422239691"><ele>14.666666666666668</ele><time>2026-04-06T05:36:09Z</time></trkpt><trkpt lat="40.28192579148275" lon="18.4311940207238"><ele>15.0</ele><time>2026-04-06T05:36:10Z</time></trkpt><trkpt lat="40.28208134349599" lon="18.43118339794665"><ele>15.0</ele><time>2026-04-06T05:36:11Z</time></trkpt><trkpt lat="40.28223265360325" lon="18.43117521369941"><ele>15.0</ele><time>2026-04-06T05:36:12Z</time></trkpt><trkpt lat="40.28236892787547" lon="18.431147284505922"><ele>15.0</ele><time>2026-04-06T05:36:13Z</time></trkpt><trkpt lat="40.282509520251196" lon="18.431142473113212"><ele>15.0</ele><time>2026-04-06T05:36:14Z</time></trkpt><trkpt lat="40.28264473063047" lon="18.4311280922588"><ele>14.25</ele><time>2026-04-06T05:36:15Z</time></trkpt><trkpt lat="40.28279558185864" lon="18.431097363451137"><ele>13.5</ele><time>2026-04-06T05:36:16Z</time></trkpt><trkpt lat="40.282930375447414" lon="18.43104811796856"><ele>12.75</ele><time>2026-04-06T05:36:17Z</time></trkpt><trkpt lat="40.28305348736338" lon="18.430991588073468"><ele>12.0</ele><time>2026-04-06T05:36:18Z</time></trkpt><trkpt lat="40.28316434753798" lon="18.430925908363953"><ele>11.5</ele><time>2026-04-06T05:36:19Z</time></trkpt><trkpt lat="40.283261807950595" lon="18.43084455589991"><ele>11.0</ele><time>2026-04-06T05:36:20Z</time></trkpt><trkpt lat="40.2833610896567" lon="18.430747109838396"><ele>10.5</ele><time>2026-04-06T05:36:21Z</time></trkpt><trkpt lat="40.28345633031734" lon="18.430631226829572"><ele>10.0</ele><time>2026-04-06T05:36:22Z</time></trkpt><trkpt lat="40.283562939650906" lon="18.430514385805285"><ele>10.5</ele><time>2026-04-06T05:36:23Z</time></trkpt><trkpt lat="40.28364769485116" lon="18.43036658498446"><ele>11.0</ele><time>2026-04-06T05:36:24Z</time></trkpt><trkpt lat="40.28371270594311" lon="18.430191571725615"><ele>11.5</ele><time>2026-04-06T05:36:25Z</time></trkpt><trkpt lat="40.283799228781945" lon="18.430029665669256"><ele>12.0</ele><time>2026-04-06T05:36:26Z</time></trkpt><trkpt lat="40.283873955019814" lon="18.429848808596354"><ele>11.666666666666666</ele><time>2026-04-06T05:36:27Z</time></trkpt><trkpt lat="40.28395204972205" lon="18.429659799058633"><ele>11.333333333333332</ele><time>2026-04-06T05:36:28Z</time></trkpt><trkpt lat="40.2840356701763" lon="18.42945743470076"><ele>11.0</ele><time>2026-04-06T05:36:29Z</time></trkpt><trkpt lat="40.28412127553778" lon="18.42925037596945"><ele>11.0</ele><time>2026-04-06T05:36:30Z</time></trkpt><trkpt lat="40.284205480957674" lon="18.42904809995671"><ele>11.0</ele><time>2026-04-06T05:36:31Z</time></trkpt><trkpt lat="40.28429100955578" lon="18.428845072822767"><ele>11.0</ele><time>2026-04-06T05:36:32Z</time></trkpt><trkpt lat="40.28437769073233" lon="18.42863930994352"><ele>10.666666666666666</ele><time>2026-04-06T05:36:33Z</time></trkpt><trkpt lat="40.28445768529965" lon="18.428449419586798"><ele>10.333333333333334</ele><time>2026-04-06T05:36:34Z</time></trkpt><trkpt lat="40.28453338713028" lon="18.428269719431103"><ele>10.0</ele><time>2026-04-06T05:36:35Z</time></trkpt><trkpt lat="40.284605443761755" lon="18.428098672211874"><ele>10.0</ele><time>2026-04-06T05:36:36Z</time></trkpt><trkpt lat="40.28467499171511" lon="18.42793356708001"><ele>10.0</ele><time>2026-04-06T05:36:37Z</time></trkpt><trkpt lat="40.28474037337397" lon="18.42777834963357"><ele>10.0</ele><time>2026-04-06T05:36:38Z</time></trkpt><trkpt lat="40.28480175673627" lon="18.42763262467951"><ele>10.0</ele><time>2026-04-06T05:36:39Z</time></trkpt><trkpt lat="40.28485480419519" lon="18.42750668871798"><ele>10.0</ele><time>2026-04-06T05:36:40Z</time></trkpt><trkpt lat="40.28489823514714" lon="18.427404768060676"><ele>10.0</ele><time>2026-04-06T05:36:41Z</time></trkpt><trkpt lat="40.28493174779935" lon="18.427326799061294"><ele>10.0</ele><time>2026-04-06T05:36:42Z</time></trkpt><trkpt lat="40.28498868724302" lon="18.427194326235313"><ele>10.0</ele><time>2026-04-06T05:36:44Z</time></trkpt><trkpt lat="40.28503010069972" lon="18.427097975468357"><ele>10.0</ele><time>2026-04-06T05:36:45Z</time></trkpt><trkpt lat="40.28508126433443" lon="18.426979012457544"><ele>10.0</ele><time>2026-04-06T05:36:46Z</time></trkpt><trkpt lat="40.285136042180696" lon="18.42686303696734"><ele>10.0</ele><time>2026-04-06T05:36:47Z</time></trkpt><trkpt lat="40.28519146343469" lon="18.426735628098253"><ele>10.0</ele><time>2026-04-06T05:36:48Z</time></trkpt><trkpt lat="40.28525742376284" lon="18.426639143330735"><ele>10.0</ele><time>2026-04-06T05:36:49Z</time></trkpt><trkpt lat="40.285323647787074" lon="18.426555827975285"><ele>10.0</ele><time>2026-04-06T05:36:50Z</time></trkpt><trkpt lat="40.285399425586924" lon="18.426505970330442"><ele>10.0</ele><time>2026-04-06T05:36:51Z</time></trkpt><trkpt lat="40.28546643764649" lon="18.426477917538744"><ele>10.0</ele><time>2026-04-06T05:36:52Z</time></trkpt><trkpt lat="40.28557302086837" lon="18.426482484173505"><ele>10.0</ele><time>2026-04-06T05:36:54.001Z</time></trkpt><trkpt lat="40.285656053674266" lon="18.426477231403105"><ele>10.0</ele><time>2026-04-06T05:36:56.001Z</time></trkpt><trkpt lat="40.285739865100425" lon="18.426490065456697"><ele>10.0</ele><time>2026-04-06T05:36:58.001Z</time></trkpt><trkpt lat="40.28586855572483" lon="18.42649720179185"><ele>9.0</ele><time>2026-04-06T05:37:00.001Z</time></trkpt><trkpt lat="40.28594276941396" lon="18.426497253728193"><ele>8.0</ele><time>2026-04-06T05:37:01.001Z</time></trkpt><trkpt lat="40.28601900769667" lon="18.42648790880728"><ele>7.0</ele><time>2026-04-06T05:37:02.001Z</time></trkpt><trkpt lat="40.28610279734691" lon="18.426452704826023"><ele>6.0</ele><time>2026-04-06T05:37:03.001Z</time></trkpt><trkpt lat="40.2861940036952" lon="18.426397850947257"><ele>5.0</ele><time>2026-04-06T05:37:04.001Z</time></trkpt><trkpt lat="40.28629325905272" lon="18.426325561733403"><ele>5.5</ele><time>2026-04-06T05:37:05.001Z</time></trkpt><trkpt lat="40.28639089824696" lon="18.42624239538686"><ele>6.0</ele><time>2026-04-06T05:37:06.001Z</time></trkpt><trkpt lat="40.28650034774283" lon="18.4261523616894"><ele>6.5</ele><time>2026-04-06T05:37:07.001Z</time></trkpt><trkpt lat="40.28661039386878" lon="18.426058281740605"><ele>7.0</ele><time>2026-04-06T05:37:08.001Z</time></trkpt><trkpt lat="40.28673320553577" lon="18.42596610897113"><ele>7.0</ele><time>2026-04-06T05:37:09.001Z</time></trkpt><trkpt lat="40.286850466581306" lon="18.42585953433061"><ele>7.0</ele><time>2026-04-06T05:37:10.001Z</time></trkpt><trkpt lat="40.28696612849577" lon="18.42573533944208"><ele>7.0</ele><time>2026-04-06T05:37:11.001Z</time></trkpt><trkpt lat="40.28707007033975" lon="18.42558753621553"><ele>7.0</ele><time>2026-04-06T05:37:12.001Z</time></trkpt><trkpt lat="40.28716517177283" lon="18.42542707951113"><ele>7.0</ele><time>2026-04-06T05:37:13.001Z</time></trkpt><trkpt lat="40.287248358638564" lon="18.42526196696617"><ele>7.0</ele><time>2026-04-06T05:37:14.001Z</time></trkpt><trkpt lat="40.28734763307337" lon="18.42509817175955"><ele>7.0</ele><time>2026-04-06T05:37:15.001Z</time></trkpt><trkpt lat="40.287453801602005" lon="18.42496142700717"><ele>6.75</ele><time>2026-04-06T05:37:16.001Z</time></trkpt><trkpt lat="40.28754735335989" lon="18.42482282232753"><ele>6.5</ele><time>2026-04-06T05:37:17.001Z</time></trkpt><trkpt lat="40.28764816437417" lon="18.42470851748928"><ele>6.25</ele><time>2026-04-06T05:37:18.001Z</time></trkpt><trkpt lat="40.287766783360645" lon="18.42459986206387"><ele>6.0</ele><time>2026-04-06T05:37:19.001Z</time></trkpt><trkpt lat="40.28790260624519" lon="18.42449932712655"><ele>6.0</ele><time>2026-04-06T05:37:20.001Z</time></trkpt><trkpt lat="40.288059735389105" lon="18.424399688829823"><ele>6.0</ele><time>2026-04-06T05:37:21.001Z</time></trkpt><trkpt lat="40.288222235355" lon="18.424297323983755"><ele>6.0</ele><time>2026-04-06T05:37:22.001Z</time></trkpt><trkpt lat="40.28838477201265" lon="18.424194936170142"><ele>5.333333333333333</ele><time>2026-04-06T05:37:23.001Z</time></trkpt><trkpt lat="40.28854690997099" lon="18.424092673689277"><ele>4.666666666666666</ele><time>2026-04-06T05:37:24.001Z</time></trkpt><trkpt lat="40.28870901034706" lon="18.42398957504144"><ele>4.0</ele><time>2026-04-06T05:37:25.001Z</time></trkpt><trkpt lat="40.28886372709137" lon="18.423891170337154"><ele>4.666666666666666</ele><time>2026-04-06T05:37:26.001Z</time></trkpt><trkpt lat="40.28901231502404" lon="18.423796663557255"><ele>5.333333333333333</ele><time>2026-04-06T05:37:27.001Z</time></trkpt><trkpt lat="40.289163634055" lon="18.423706974346292"><ele>6.0</ele><time>2026-04-06T05:37:28.001Z</time></trkpt><trkpt lat="40.28930782453843" lon="18.423608265578366"><ele>6.0</ele><time>2026-04-06T05:37:29.001Z</time></trkpt><trkpt lat="40.289448423270656" lon="18.423544517870837"><ele>6.0</ele><time>2026-04-06T05:37:30.001Z</time></trkpt><trkpt lat="40.28958274806057" lon="18.42350454189619"><ele>6.0</ele><time>2026-04-06T05:37:31.001Z</time></trkpt><trkpt lat="40.28971673801223" lon="18.423450905443847"><ele>6.0</ele><time>2026-04-06T05:37:32.001Z</time></trkpt><trkpt lat="40.289844317380066" lon="18.423399836703805"><ele>6.0</ele><time>2026-04-06T05:37:33.001Z</time></trkpt><trkpt lat="40.28995932900722" lon="18.423353791338904"><ele>6.0</ele><time>2026-04-06T05:37:34.001Z</time></trkpt><trkpt lat="40.29007368056745" lon="18.423308008030382"><ele>6.0</ele><time>2026-04-06T05:37:35.001Z</time></trkpt><trkpt lat="40.29019793944725" lon="18.423257263628617"><ele>6.0</ele><time>2026-04-06T05:37:36.001Z</time></trkpt><trkpt lat="40.29032188887442" lon="18.423205394618115"><ele>6.0</ele><time>2026-04-06T05:37:37.001Z</time></trkpt><trkpt lat="40.290443663037415" lon="18.4231321311533"><ele>6.0</ele><time>2026-04-06T05:37:38.001Z</time></trkpt><trkpt lat="40.29057545182857" lon="18.423102790682076"><ele>6.0</ele><time>2026-04-06T05:37:39.001Z</time></trkpt><trkpt lat="40.29070924361998" lon="18.423049243114164"><ele>6.0</ele><time>2026-04-06T05:37:40.001Z</time></trkpt><trkpt lat="40.29084595710084" lon="18.422995204520838"><ele>5.75</ele><time>2026-04-06T05:37:41.001Z</time></trkpt><trkpt lat="40.2909734296832" lon="18.42294337101925"><ele>5.5</ele><time>2026-04-06T05:37:42.001Z</time></trkpt><trkpt lat="40.29109220719409" lon="18.422895073231683"><ele>5.25</ele><time>2026-04-06T05:37:43.001Z</time></trkpt><trkpt lat="40.2912016004752" lon="18.42283020722464"><ele>5.0</ele><time>2026-04-06T05:37:44.001Z</time></trkpt><trkpt lat="40.29130686700026" lon="18.422817788394457"><ele>5.0</ele><time>2026-04-06T05:37:45.001Z</time></trkpt><trkpt lat="40.29140404804655" lon="18.42277350961277"><ele>5.0</ele><time>2026-04-06T05:37:46.001Z</time></trkpt><trkpt lat="40.2915162244067" lon="18.42270137598346"><ele>5.0</ele><time>2026-04-06T05:37:47.001Z</time></trkpt><trkpt lat="40.291626441389006" lon="18.42264668108583"><ele>5.0</ele><time>2026-04-06T05:37:48.001Z</time></trkpt><trkpt lat="40.291744769913926" lon="18.422581737915237"><ele>5.25</ele><time>2026-04-06T05:37:49.001Z</time></trkpt><trkpt lat="40.291871086617846" lon="18.422515285168696"><ele>5.5</ele><time>2026-04-06T05:37:50.001Z</time></trkpt><trkpt lat="40.29200698740096" lon="18.42243830779701"><ele>5.75</ele><time>2026-04-06T05:37:51.001Z</time></trkpt><trkpt lat="40.29212685215533" lon="18.42234551091635"><ele>6.0</ele><time>2026-04-06T05:37:52.001Z</time></trkpt><trkpt lat="40.29224581576574" lon="18.422246994050703"><ele>6.0</ele><time>2026-04-06T05:37:53.001Z</time></trkpt><trkpt lat="40.292361402416155" lon="18.422131048726364"><ele>6.0</ele><time>2026-04-06T05:37:54.001Z</time></trkpt><trkpt lat="40.29247133758729" lon="18.422026227258545"><ele>6.0</ele><time>2026-04-06T05:37:55.001Z</time></trkpt><trkpt lat="40.29257092385884" lon="18.421928263254113"><ele>6.0</ele><time>2026-04-06T05:37:56.001Z</time></trkpt><trkpt lat="40.29265217192973" lon="18.421841538593025"><ele>6.0</ele><time>2026-04-06T05:37:57.001Z</time></trkpt><trkpt lat="40.29271722037217" lon="18.421771785045717"><ele>6.0</ele><time>2026-04-06T05:37:58.001Z</time></trkpt><trkpt lat="40.29276605628109" lon="18.42171027020927"><ele>6.0</ele><time>2026-04-06T05:37:59.001Z</time></trkpt><trkpt lat="40.29281862541705" lon="18.42162259568158"><ele>6.0</ele><time>2026-04-06T05:38:01Z</time></trkpt><trkpt lat="40.2928790491319" lon="18.421539911844338"><ele>6.0</ele><time>2026-04-06T05:38:24Z</time></trkpt><trkpt lat="40.29293064566246" lon="18.421455463738308"><ele>6.0</ele><time>2026-04-06T05:38:25Z</time></trkpt><trkpt lat="40.29298773199127" lon="18.421371899805486"><ele>5.5</ele><time>2026-04-06T05:38:26Z</time></trkpt><trkpt lat="40.293057428413185" lon="18.421265301481316"><ele>5.0</ele><time>2026-04-06T05:38:27Z</time></trkpt><trkpt lat="40.293140090573026" lon="18.42116477468612"><ele>4.5</ele><time>2026-04-06T05:38:28Z</time></trkpt><trkpt lat="40.293210548262614" lon="18.421039881988897"><ele>4.0</ele><time>2026-04-06T05:38:29Z</time></trkpt><trkpt lat="40.29326574987658" lon="18.42090486738254"><ele>3.8000000000000003</ele><time>2026-04-06T05:38:30Z</time></trkpt><trkpt lat="40.29334639378942" lon="18.42080003534118"><ele>3.6000000000000005</ele><time>2026-04-06T05:38:31Z</time></trkpt><trkpt lat="40.29339861504031" lon="18.420687628973695"><ele>3.4</ele><time>2026-04-06T05:38:32Z</time></trkpt><trkpt lat="40.29344166013913" lon="18.42058390540201"><ele>3.2</ele><time>2026-04-06T05:38:33Z</time></trkpt><trkpt lat="40.293478659962304" lon="18.420476238885545"><ele>3.0</ele><time>2026-04-06T05:38:34Z</time></trkpt><trkpt lat="40.29352635292915" lon="18.420357717060828"><ele>2.75</ele><time>2026-04-06T05:38:35Z</time></trkpt><trkpt lat="40.29357873666991" lon="18.420226997278853"><ele>2.5</ele><time>2026-04-06T05:38:36Z</time></trkpt><trkpt lat="40.29363883015192" lon="18.420085818382447"><ele>2.25</ele><time>2026-04-06T05:38:37Z</time></trkpt><trkpt lat="40.293728112327265" lon="18.4199237141324"><ele>2.0</ele><time>2026-04-06T05:38:38Z</time></trkpt><trkpt lat="40.293787993778075" lon="18.41975108028366"><ele>1.3333333333333333</ele><time>2026-04-06T05:38:39Z</time></trkpt><trkpt lat="40.29387447723252" lon="18.419589328139605"><ele>0.6666666666666666</ele><time>2026-04-06T05:38:40Z</time></trkpt><trkpt lat="40.29394763236916" lon="18.419410633949827"><ele>0.0</ele><time>2026-04-06T05:38:41Z</time></trkpt><trkpt lat="40.29402728136775" lon="18.41921762137564"><ele>-0.3333333333333333</ele><time>2026-04-06T05:38:42Z</time></trkpt><trkpt lat="40.29411292852451" lon="18.419029992561818"><ele>-0.6666666666666666</ele><time>2026-04-06T05:38:43Z</time></trkpt><trkpt lat="40.294196576770624" lon="18.41883866898627"><ele>-1.0</ele><time>2026-04-06T05:38:44Z</time></trkpt><trkpt lat="40.29427527527098" lon="18.418645207007742"><ele>-0.3333333333333333</ele><time>2026-04-06T05:38:45Z</time></trkpt><trkpt lat="40.2943722268319" lon="18.41846480969087"><ele>0.3333333333333333</ele><time>2026-04-06T05:38:46Z</time></trkpt><trkpt lat="40.29444598438777" lon="18.41826319424422"><ele>1.0</ele><time>2026-04-06T05:38:47Z</time></trkpt><trkpt lat="40.29454330171328" lon="18.418090317629968"><ele>1.0</ele><time>2026-04-06T05:38:48Z</time></trkpt><trkpt lat="40.294626294241354" lon="18.417903746623335"><ele>1.0</ele><time>2026-04-06T05:38:49Z</time></trkpt><trkpt lat="40.294720299967075" lon="18.417692420020703"><ele>1.0</ele><time>2026-04-06T05:38:50Z</time></trkpt><trkpt lat="40.2948163208254" lon="18.41747500233733"><ele>0.6666666666666666</ele><time>2026-04-06T05:38:51Z</time></trkpt><trkpt lat="40.29491638148206" lon="18.41724877971764"><ele>0.3333333333333333</ele><time>2026-04-06T05:38:52Z</time></trkpt><trkpt lat="40.2950233704553" lon="18.417007760862454"><ele>0.0</ele><time>2026-04-06T05:38:53Z</time></trkpt><trkpt lat="40.29513108513722" lon="18.416765515133243"><ele>0.0</ele><time>2026-04-06T05:38:54Z</time></trkpt><trkpt lat="40.2952307634211" lon="18.416541342825997"><ele>0.0</ele><time>2026-04-06T05:38:55Z</time></trkpt><trkpt lat="40.29531192865081" lon="18.4163173298104"><ele>0.0</ele><time>2026-04-06T05:38:56.001Z</time></trkpt><trkpt lat="40.295397368015344" lon="18.416129914349675"><ele>0.0</ele><time>2026-04-06T05:38:57.001Z</time></trkpt><trkpt lat="40.29546417385012" lon="18.415982192983996"><ele>0.0</ele><time>2026-04-06T05:38:58.001Z</time></trkpt><trkpt lat="40.29552732627022" lon="18.415857991086483"><ele>0.0</ele><time>2026-04-06T05:38:59.001Z</time></trkpt><trkpt lat="40.29558990917212" lon="18.415695624453125"><ele>0.0</ele><time>2026-04-06T05:39:00.001Z</time></trkpt><trkpt lat="40.29568199614891" lon="18.41552506000498"><ele>-0.3333333333333333</ele><time>2026-04-06T05:39:01.001Z</time></trkpt><trkpt lat="40.295771707407326" lon="18.41532181357724"><ele>-0.6666666666666666</ele><time>2026-04-06T05:39:02.001Z</time></trkpt><trkpt lat="40.295864018958206" lon="18.41511265127159"><ele>-1.0</ele><time>2026-04-06T05:39:03.001Z</time></trkpt><trkpt lat="40.295954666644064" lon="18.41490725885615"><ele>-1.0</ele><time>2026-04-06T05:39:04.001Z</time></trkpt><trkpt lat="40.29603723613086" lon="18.414720170491535"><ele>-1.0</ele><time>2026-04-06T05:39:05.001Z</time></trkpt><trkpt lat="40.29611789331909" lon="18.414537414879966"><ele>-1.0</ele><time>2026-04-06T05:39:06.001Z</time></trkpt><trkpt lat="40.29619584888862" lon="18.414353022384002"><ele>-0.6666666666666666</ele><time>2026-04-06T05:39:07.001Z</time></trkpt><trkpt lat="40.29624619830869" lon="18.41415973255442"><ele>-0.3333333333333333</ele><time>2026-04-06T05:39:08.001Z</time></trkpt><trkpt lat="40.296300941355085" lon="18.413957268215768"><ele>0.0</ele><time>2026-04-06T05:39:09.001Z</time></trkpt><trkpt lat="40.296351912628225" lon="18.41375002419171"><ele>0.0</ele><time>2026-04-06T05:39:10.001Z</time></trkpt><trkpt lat="40.296394761802716" lon="18.413529222378784"><ele>0.0</ele><time>2026-04-06T05:39:11.001Z</time></trkpt><trkpt lat="40.29643523499917" lon="18.413289538590664"><ele>0.0</ele><time>2026-04-06T05:39:12.001Z</time></trkpt><trkpt lat="40.296490479516294" lon="18.41304450346985"><ele>0.6666666666666666</ele><time>2026-04-06T05:39:13.001Z</time></trkpt><trkpt lat="40.29653194757302" lon="18.412793382954238"><ele>1.3333333333333333</ele><time>2026-04-06T05:39:14.001Z</time></trkpt><trkpt lat="40.296573171593174" lon="18.412543740295888"><ele>2.0</ele><time>2026-04-06T05:39:15.001Z</time></trkpt><trkpt lat="40.29659633056153" lon="18.412297837865918"><ele>2.0</ele><time>2026-04-06T05:39:16.001Z</time></trkpt><trkpt lat="40.29663265040269" lon="18.412072204527064"><ele>2.0</ele><time>2026-04-06T05:39:17.001Z</time></trkpt><trkpt lat="40.29667654259555" lon="18.41185141921128"><ele>2.0</ele><time>2026-04-06T05:39:18.001Z</time></trkpt><trkpt lat="40.29671442160561" lon="18.411657705023323"><ele>2.0</ele><time>2026-04-06T05:39:19.001Z</time></trkpt><trkpt lat="40.29674502454654" lon="18.41145796961013"><ele>2.0</ele><time>2026-04-06T05:39:20.001Z</time></trkpt><trkpt lat="40.296777819263745" lon="18.411242135034563"><ele>2.0</ele><time>2026-04-06T05:39:21.001Z</time></trkpt><trkpt lat="40.29681745145911" lon="18.411028902068608"><ele>3.0</ele><time>2026-04-06T05:39:22.001Z</time></trkpt><trkpt lat="40.29686041719809" lon="18.41083562578908"><ele>4.0</ele><time>2026-04-06T05:39:23.001Z</time></trkpt><trkpt lat="40.2969183170876" lon="18.410628004422197"><ele>5.0</ele><time>2026-04-06T05:39:24.001Z</time></trkpt><trkpt lat="40.29700378732285" lon="18.410440862796015"><ele>4.333333333333334</ele><time>2026-04-06T05:39:25.001Z</time></trkpt><trkpt lat="40.29708980241451" lon="18.4102495756896"><ele>3.666666666666667</ele><time>2026-04-06T05:39:26.001Z</time></trkpt><trkpt lat="40.29718770951821" lon="18.410067038702252"><ele>3.0</ele><time>2026-04-06T05:39:27.001Z</time></trkpt><trkpt lat="40.29730089067637" lon="18.40990719843588"><ele>3.0</ele><time>2026-04-06T05:39:28.001Z</time></trkpt><trkpt lat="40.29743682057633" lon="18.4097495269199"><ele>3.0</ele><time>2026-04-06T05:39:29.001Z</time></trkpt><trkpt lat="40.29758142393177" lon="18.40958239519606"><ele>3.0</ele><time>2026-04-06T05:39:30.001Z</time></trkpt><trkpt lat="40.29772431815358" lon="18.40941723899185"><ele>2.75</ele><time>2026-04-06T05:39:31.001Z</time></trkpt><trkpt lat="40.29783833946181" lon="18.40928495622821"><ele>2.5</ele><time>2026-04-06T05:39:32.001Z</time></trkpt><trkpt lat="40.29792146867797" lon="18.40915962369173"><ele>2.25</ele><time>2026-04-06T05:39:33.001Z</time></trkpt><trkpt lat="40.29801251219259" lon="18.409080737176982"><ele>2.0</ele><time>2026-04-06T05:39:34.001Z</time></trkpt><trkpt lat="40.298113824273145" lon="18.408971603823563"><ele>2.0</ele><time>2026-04-06T05:39:35.001Z</time></trkpt><trkpt lat="40.29821297830535" lon="18.408850301985435"><ele>2.0</ele><time>2026-04-06T05:39:36.001Z</time></trkpt><trkpt lat="40.298322860603236" lon="18.408726826692984"><ele>2.0</ele><time>2026-04-06T05:39:37.001Z</time></trkpt><trkpt lat="40.298424847090004" lon="18.408609802439923"><ele>2.0</ele><time>2026-04-06T05:39:38.001Z</time></trkpt><trkpt lat="40.29851665253507" lon="18.408487073156834"><ele>2.4000000000000004</ele><time>2026-04-06T05:39:39.001Z</time></trkpt><trkpt lat="40.298610342174314" lon="18.40837540829723"><ele>2.8000000000000003</ele><time>2026-04-06T05:39:40.001Z</time></trkpt><trkpt lat="40.298696789800964" lon="18.40827209908598"><ele>3.2</ele><time>2026-04-06T05:39:41.001Z</time></trkpt><trkpt lat="40.2987772180161" lon="18.408185078406937"><ele>3.6</ele><time>2026-04-06T05:39:42.001Z</time></trkpt><trkpt lat="40.2988307895928" lon="18.4081231568813"><ele>4.0</ele><time>2026-04-06T05:39:43.001Z</time></trkpt><trkpt lat="40.298878770323455" lon="18.408063903699222"><ele>4.0</ele><time>2026-04-06T05:39:44.001Z</time></trkpt><trkpt lat="40.298944340103475" lon="18.40798819582404"><ele>4.0</ele><time>2026-04-06T05:39:46.001Z</time></trkpt><trkpt lat="40.298844278177484" lon="18.40783019000108"><ele>4.0</ele><time>2026-04-06T05:39:49.001Z</time></trkpt><trkpt lat="40.2987903694669" lon="18.407747364376746"><ele>4.0</ele><time>2026-04-06T05:39:50.001Z</time></trkpt><trkpt lat="40.29873928442296" lon="18.40766887733191"><ele>4.0</ele><time>2026-04-06T05:39:51.001Z</time></trkpt><trkpt lat="40.29868528116461" lon="18.407569127459816"><ele>4.333333333333333</ele><time>2026-04-06T05:39:52.001Z</time></trkpt><trkpt lat="40.29862539293481" lon="18.407488493746435"><ele>4.666666666666666</ele><time>2026-04-06T05:39:53.001Z</time></trkpt><trkpt lat="40.29856308238152" lon="18.407415412063386"><ele>5.0</ele><time>2026-04-06T05:39:54.001Z</time></trkpt><trkpt lat="40.2985130778715" lon="18.40733870543241"><ele>5.333333333333333</ele><time>2026-04-06T05:39:55.001Z</time></trkpt><trkpt lat="40.298450863277594" lon="18.40724435603335"><ele>5.666666666666667</ele><time>2026-04-06T05:39:56.001Z</time></trkpt><trkpt lat="40.298383485380874" lon="18.40715412807627"><ele>6.0</ele><time>2026-04-06T05:39:57.001Z</time></trkpt><trkpt lat="40.29831761364396" lon="18.40704461346242"><ele>6.0</ele><time>2026-04-06T05:39:58.001Z</time></trkpt><trkpt lat="40.29825386450257" lon="18.406946882210008"><ele>6.0</ele><time>2026-04-06T05:39:59.001Z</time></trkpt><trkpt lat="40.298191435271356" lon="18.40685051577692"><ele>6.0</ele><time>2026-04-06T05:40:00.001Z</time></trkpt><trkpt lat="40.29812836663754" lon="18.406742849518736"><ele>6.0</ele><time>2026-04-06T05:40:01.001Z</time></trkpt><trkpt lat="40.29806650727187" lon="18.40662746421905"><ele>6.0</ele><time>2026-04-06T05:40:02.001Z</time></trkpt><trkpt lat="40.29799826212911" lon="18.406518689153746"><ele>6.199999999999999</ele><time>2026-04-06T05:40:03.001Z</time></trkpt><trkpt lat="40.297935525869946" lon="18.406399584886053"><ele>6.3999999999999995</ele><time>2026-04-06T05:40:04.001Z</time></trkpt><trkpt lat="40.29786314402468" lon="18.406288899678984"><ele>6.6</ele><time>2026-04-06T05:40:05.001Z</time></trkpt><trkpt lat="40.29779490509878" lon="18.406196794167656"><ele>6.8</ele><time>2026-04-06T05:40:06.001Z</time></trkpt><trkpt lat="40.297728620550124" lon="18.406088694196672"><ele>7.0</ele><time>2026-04-06T05:40:07Z</time></trkpt><trkpt lat="40.29764475324514" lon="18.405976614771905"><ele>7.25</ele><time>2026-04-06T05:40:08Z</time></trkpt><trkpt lat="40.297577227096134" lon="18.40587085145962"><ele>7.5</ele><time>2026-04-06T05:40:09Z</time></trkpt><trkpt lat="40.29750204358673" lon="18.405753094329192"><ele>7.75</ele><time>2026-04-06T05:40:10Z</time></trkpt><trkpt lat="40.297432551912976" lon="18.4056200349972"><ele>8.0</ele><time>2026-04-06T05:40:11Z</time></trkpt><trkpt lat="40.29735643383804" lon="18.405501461757257"><ele>7.999999999999999</ele><time>2026-04-06T05:40:12Z</time></trkpt><trkpt lat="40.297285379528326" lon="18.40540240132531"><ele>8.0</ele><time>2026-04-06T05:40:13Z</time></trkpt><trkpt lat="40.297235146600414" lon="18.405312497629396"><ele>8.0</ele><time>2026-04-06T05:40:14Z</time></trkpt><trkpt lat="40.29718816163678" lon="18.405250974528272"><ele>8.0</ele><time>2026-04-06T05:40:15Z</time></trkpt><trkpt lat="40.29714000800329" lon="18.405173235052928"><ele>7.999999999999999</ele><time>2026-04-06T05:40:16Z</time></trkpt><trkpt lat="40.29708698503456" lon="18.405081813796055"><ele>8.0</ele><time>2026-04-06T05:40:17Z</time></trkpt><trkpt lat="40.297021323328934" lon="18.404982350290386"><ele>8.166666666666666</ele><time>2026-04-06T05:40:18Z</time></trkpt><trkpt lat="40.29694971942425" lon="18.40488771097837"><ele>8.333333333333332</ele><time>2026-04-06T05:40:19Z</time></trkpt><trkpt lat="40.296894763515255" lon="18.404797951113423"><ele>8.5</ele><time>2026-04-06T05:40:20Z</time></trkpt><trkpt lat="40.29684428068669" lon="18.404720702297407"><ele>8.666666666666666</ele><time>2026-04-06T05:40:21Z</time></trkpt><trkpt lat="40.29680208773464" lon="18.404651790961267"><ele>8.833333333333334</ele><time>2026-04-06T05:40:22Z</time></trkpt><trkpt lat="40.29676294857129" lon="18.404585493917867"><ele>9.0</ele><time>2026-04-06T05:40:23Z</time></trkpt><trkpt lat="40.29670997613972" lon="18.40449686213379"><ele>9.0</ele><time>2026-04-06T05:40:25Z</time></trkpt><trkpt lat="40.29663757767211" lon="18.404404308779196"><ele>9.0</ele><time>2026-04-06T05:40:27Z</time></trkpt><trkpt lat="40.2966417384692" lon="18.404291476960612"><ele>9.0</ele><time>2026-04-06T05:40:28Z</time></trkpt><trkpt lat="40.29663900602979" lon="18.404192684509802"><ele>9.0</ele><time>2026-04-06T05:40:29Z</time></trkpt><trkpt lat="40.29663521357597" lon="18.40409986442944"><ele>9.0</ele><time>2026-04-06T05:40:30Z</time></trkpt><trkpt lat="40.29667541809198" lon="18.403967327475794"><ele>9.0</ele><time>2026-04-06T05:40:32Z</time></trkpt><trkpt lat="40.296719077280024" lon="18.403899136125027"><ele>9.0</ele><time>2026-04-06T05:40:33Z</time></trkpt><trkpt lat="40.296776477155795" lon="18.403846404880863"><ele>9.0</ele><time>2026-04-06T05:40:34Z</time></trkpt><trkpt lat="40.2968400339989" lon="18.40377751105578"><ele>9.0</ele><time>2026-04-06T05:40:35Z</time></trkpt><trkpt lat="40.29692100758696" lon="18.403704531169392"><ele>9.0</ele><time>2026-04-06T05:40:36Z</time></trkpt><trkpt lat="40.297009212858455" lon="18.403615510465965"><ele>9.0</ele><time>2026-04-06T05:40:37Z</time></trkpt><trkpt lat="40.29710549330592" lon="18.403529369768233"><ele>9.0</ele><time>2026-04-06T05:40:38Z</time></trkpt><trkpt lat="40.29719725649237" lon="18.4034394342079"><ele>9.0</ele><time>2026-04-06T05:40:39Z</time></trkpt><trkpt lat="40.29728657255226" lon="18.40334286621359"><ele>9.0</ele><time>2026-04-06T05:40:40Z</time></trkpt><trkpt lat="40.29738275823365" lon="18.40325009930027"><ele>9.0</ele><time>2026-04-06T05:40:41Z</time></trkpt><trkpt lat="40.29747049025919" lon="18.40315970358646"><ele>8.6</ele><time>2026-04-06T05:40:42Z</time></trkpt><trkpt lat="40.297564683316025" lon="18.40307989564073"><ele>8.2</ele><time>2026-04-06T05:40:43Z</time></trkpt><trkpt lat="40.297653520744795" lon="18.40298698318989"><ele>7.799999999999999</ele><time>2026-04-06T05:40:44Z</time></trkpt><trkpt lat="40.2977434353579" lon="18.402889770111088"><ele>7.3999999999999995</ele><time>2026-04-06T05:40:45Z</time></trkpt><trkpt lat="40.29782140854262" lon="18.402794176769493"><ele>7.0</ele><time>2026-04-06T05:40:46Z</time></trkpt><trkpt lat="40.29789511717403" lon="18.40271332796742"><ele>7.0</ele><time>2026-04-06T05:40:47Z</time></trkpt><trkpt lat="40.29796084906783" lon="18.402643199257643"><ele>6.999999999999999</ele><time>2026-04-06T05:40:48Z</time></trkpt><trkpt lat="40.29801722066134" lon="18.402595181613684"><ele>6.999999999999999</ele><time>2026-04-06T05:40:49Z</time></trkpt><trkpt lat="40.29807130693375" lon="18.402516004180185"><ele>7.0</ele><time>2026-04-06T05:40:51Z</time></trkpt><trkpt lat="40.29818604052354" lon="18.402400655079006"><ele>7.0</ele><time>2026-04-06T05:40:53Z</time></trkpt><trkpt lat="40.29827128445403" lon="18.402312490967226"><ele>7.0</ele><time>2026-04-06T05:40:54Z</time></trkpt><trkpt lat="40.29835314259309" lon="18.4022133039621"><ele>7.0</ele><time>2026-04-06T05:40:55Z</time></trkpt><trkpt lat="40.29844353385217" lon="18.40211881916558"><ele>7.0</ele><time>2026-04-06T05:40:56Z</time></trkpt><trkpt lat="40.29853669063918" lon="18.402028002800137"><ele>7.0</ele><time>2026-04-06T05:40:57.001Z</time></trkpt><trkpt lat="40.298633258950225" lon="18.401928899309663"><ele>7.0</ele><time>2026-04-06T05:40:58.001Z</time></trkpt><trkpt lat="40.29872087372232" lon="18.401838786968113"><ele>6.999999999999999</ele><time>2026-04-06T05:40:59.001Z</time></trkpt><trkpt lat="40.29881364683484" lon="18.40174937514237"><ele>6.999999999999999</ele><time>2026-04-06T05:41:00.001Z</time></trkpt><trkpt lat="40.2988786320782" lon="18.401638656433718"><ele>7.0</ele><time>2026-04-06T05:41:01.001Z</time></trkpt><trkpt lat="40.29895669138995" lon="18.401559434978275"><ele>7.0</ele><time>2026-04-06T05:41:02.001Z</time></trkpt><trkpt lat="40.29901895438465" lon="18.401494872948543"><ele>7.000000000000001</ele><time>2026-04-06T05:41:03.001Z</time></trkpt><trkpt lat="40.29909726430482" lon="18.40142387618935"><ele>7.0</ele><time>2026-04-06T05:41:05.001Z</time></trkpt><trkpt lat="40.29917229017541" lon="18.401339536362233"><ele>7.0</ele><time>2026-04-06T05:41:07.001Z</time></trkpt><trkpt lat="40.29922592402592" lon="18.40128336498524"><ele>7.0</ele><time>2026-04-06T05:41:08.001Z</time></trkpt><trkpt lat="40.29929110320589" lon="18.40122905470951"><ele>7.000000000000001</ele><time>2026-04-06T05:41:09.001Z</time></trkpt><trkpt lat="40.29935737303546" lon="18.401161049109472"><ele>7.0</ele><time>2026-04-06T05:41:10.001Z</time></trkpt><trkpt lat="40.29942998642377" lon="18.401078429470896"><ele>7.25</ele><time>2026-04-06T05:41:11.001Z</time></trkpt><trkpt lat="40.29950827345388" lon="18.400991835494924"><ele>7.5</ele><time>2026-04-06T05:41:12.001Z</time></trkpt><trkpt lat="40.299598901533834" lon="18.400897053119085"><ele>7.75</ele><time>2026-04-06T05:41:13.001Z</time></trkpt><trkpt lat="40.2996902617313" lon="18.400801016989284"><ele>8.0</ele><time>2026-04-06T05:41:14.001Z</time></trkpt><trkpt lat="40.29978469943325" lon="18.40069722453469"><ele>8.0</ele><time>2026-04-06T05:41:15.001Z</time></trkpt><trkpt lat="40.29987788552488" lon="18.40059563815977"><ele>8.0</ele><time>2026-04-06T05:41:16.001Z</time></trkpt><trkpt lat="40.29997875471294" lon="18.400490882925865"><ele>8.0</ele><time>2026-04-06T05:41:17.001Z</time></trkpt><trkpt lat="40.300088515118446" lon="18.40038508002642"><ele>8.0</ele><time>2026-04-06T05:41:18.001Z</time></trkpt><trkpt lat="40.30019000834145" lon="18.40027674115365"><ele>8.0</ele><time>2026-04-06T05:41:19.001Z</time></trkpt><trkpt lat="40.300289516841886" lon="18.400175782238836"><ele>8.0</ele><time>2026-04-06T05:41:20.001Z</time></trkpt><trkpt lat="40.30038003251826" lon="18.40007816780996"><ele>8.0</ele><time>2026-04-06T05:41:21.001Z</time></trkpt><trkpt lat="40.30047072219221" lon="18.399979182320354"><ele>8.0</ele><time>2026-04-06T05:41:22.001Z</time></trkpt><trkpt lat="40.300560458749906" lon="18.39987778748986"><ele>8.0</ele><time>2026-04-06T05:41:23.001Z</time></trkpt><trkpt lat="40.30064787615215" lon="18.399773968732884"><ele>8.0</ele><time>2026-04-06T05:41:24.001Z</time></trkpt><trkpt lat="40.30073537161651" lon="18.39966676456834"><ele>8.0</ele><time>2026-04-06T05:41:25.001Z</time></trkpt><trkpt lat="40.300819801171684" lon="18.39960325356132"><ele>8.0</ele><time>2026-04-06T05:41:26.001Z</time></trkpt><trkpt lat="40.300890490497196" lon="18.399527133710873"><ele>8.0</ele><time>2026-04-06T05:41:27.001Z</time></trkpt><trkpt lat="40.30094739849972" lon="18.399473281691204"><ele>7.999999999999999</ele><time>2026-04-06T05:41:28.001Z</time></trkpt><trkpt lat="40.30101424398075" lon="18.399412737754368"><ele>8.0</ele><time>2026-04-06T05:41:30.001Z</time></trkpt><trkpt lat="40.301079016744545" lon="18.399334852599686"><ele>8.0</ele><time>2026-04-06T05:41:34.001Z</time></trkpt><trkpt lat="40.30111846498639" lon="18.3991992156667"><ele>8.0</ele><time>2026-04-06T05:41:36.001Z</time></trkpt><trkpt lat="40.301096117231204" lon="18.399109668711663"><ele>7.999999999999999</ele><time>2026-04-06T05:41:37.001Z</time></trkpt><trkpt lat="40.301086577456154" lon="18.399025671070227"><ele>8.0</ele><time>2026-04-06T05:41:38.001Z</time></trkpt><trkpt lat="40.30106265838096" lon="18.39885922361378"><ele>8.0</ele><time>2026-04-06T05:41:40.001Z</time></trkpt><trkpt lat="40.3011007237184" lon="18.39874209400818"><ele>8.0</ele><time>2026-04-06T05:41:42.001Z</time></trkpt><trkpt lat="40.30111912716317" lon="18.39866252560451"><ele>8.0</ele><time>2026-04-06T05:41:44.001Z</time></trkpt><trkpt lat="40.30136232833366" lon="18.398514989139578"><ele>8.0</ele><time>2026-04-06T05:41:46.001Z</time></trkpt><trkpt lat="40.30144634161344" lon="18.398431956095546"><ele>8.0</ele><time>2026-04-06T05:41:47.001Z</time></trkpt><trkpt lat="40.301530222829555" lon="18.39834491644613"><ele>8.0</ele><time>2026-04-06T05:41:48.001Z</time></trkpt><trkpt lat="40.30161177678079" lon="18.398260662821535"><ele>8.0</ele><time>2026-04-06T05:41:49.001Z</time></trkpt><trkpt lat="40.30170282640777" lon="18.3981680812458"><ele>8.0</ele><time>2026-04-06T05:41:50.001Z</time></trkpt><trkpt lat="40.30180470265117" lon="18.398070742552903"><ele>7.75</ele><time>2026-04-06T05:41:51.001Z</time></trkpt><trkpt lat="40.301905440254075" lon="18.39797437164356"><ele>7.5</ele><time>2026-04-06T05:41:52.001Z</time></trkpt><trkpt lat="40.30200254989768" lon="18.39788722181687"><ele>7.25</ele><time>2026-04-06T05:41:53.001Z</time></trkpt><trkpt lat="40.302112818013065" lon="18.397818631364842"><ele>7.0</ele><time>2026-04-06T05:41:54.001Z</time></trkpt><trkpt lat="40.30221064875376" lon="18.397718730175637"><ele>7.0</ele><time>2026-04-06T05:41:55.001Z</time></trkpt><trkpt lat="40.30231047197427" lon="18.39762306011102"><ele>7.0</ele><time>2026-04-06T05:41:56.001Z</time></trkpt><trkpt lat="40.30240277828194" lon="18.397527523151872"><ele>7.0</ele><time>2026-04-06T05:41:57.001Z</time></trkpt><trkpt lat="40.30249771827943" lon="18.397423038851965"><ele>7.0</ele><time>2026-04-06T05:41:58.001Z</time></trkpt><trkpt lat="40.302592226186434" lon="18.39731329148616"><ele>7.0</ele><time>2026-04-06T05:41:59.001Z</time></trkpt><trkpt lat="40.302690456745005" lon="18.39721731688813"><ele>7.0</ele><time>2026-04-06T05:42:00.001Z</time></trkpt><trkpt lat="40.30279089639422" lon="18.39712739342303"><ele>7.0</ele><time>2026-04-06T05:42:01.001Z</time></trkpt><trkpt lat="40.30288749894471" lon="18.39703085487112"><ele>7.0</ele><time>2026-04-06T05:42:02.001Z</time></trkpt><trkpt lat="40.302970741761314" lon="18.396943579130227"><ele>6.8</ele><time>2026-04-06T05:42:03.001Z</time></trkpt><trkpt lat="40.30304161510779" lon="18.396872738569677"><ele>6.6</ele><time>2026-04-06T05:42:04.001Z</time></trkpt><trkpt lat="40.3031121365" lon="18.39680662865187"><ele>6.3999999999999995</ele><time>2026-04-06T05:42:05.001Z</time></trkpt><trkpt lat="40.303192034899396" lon="18.396722288339948"><ele>6.199999999999999</ele><time>2026-04-06T05:42:06.001Z</time></trkpt><trkpt lat="40.303273307732105" lon="18.396636786999785"><ele>6.0</ele><time>2026-04-06T05:42:07.002Z</time></trkpt><trkpt lat="40.30336443066517" lon="18.396549606639297"><ele>6.0</ele><time>2026-04-06T05:42:08.002Z</time></trkpt><trkpt lat="40.303446965189266" lon="18.3964633514311"><ele>6.0</ele><time>2026-04-06T05:42:09.002Z</time></trkpt><trkpt lat="40.303523986767225" lon="18.396389285934383"><ele>6.0</ele><time>2026-04-06T05:42:10.002Z</time></trkpt><trkpt lat="40.30359269762767" lon="18.396317497538043"><ele>6.0</ele><time>2026-04-06T05:42:11.002Z</time></trkpt><trkpt lat="40.30366417636547" lon="18.396243747032834"><ele>6.0</ele><time>2026-04-06T05:42:12.002Z</time></trkpt><trkpt lat="40.303727982617275" lon="18.396181783515477"><ele>6.0</ele><time>2026-04-06T05:42:13Z</time></trkpt><trkpt lat="40.30378470738211" lon="18.396126274790277"><ele>6.0</ele><time>2026-04-06T05:42:14Z</time></trkpt><trkpt lat="40.30385494009252" lon="18.39604041838656"><ele>6.0</ele><time>2026-04-06T05:42:16Z</time></trkpt><trkpt lat="40.30392839591988" lon="18.395977978719756"><ele>6.0</ele><time>2026-04-06T05:42:18Z</time></trkpt><trkpt lat="40.30400168281225" lon="18.395905920872448"><ele>6.0</ele><time>2026-04-06T05:42:20Z</time></trkpt><trkpt lat="40.30409104802321" lon="18.395818054385305"><ele>6.0</ele><time>2026-04-06T05:42:22Z</time></trkpt><trkpt lat="40.3041857703996" lon="18.39572305626225"><ele>6.0</ele><time>2026-04-06T05:42:24Z</time></trkpt><trkpt lat="40.30428200923993" lon="18.3956161307387"><ele>6.0</ele><time>2026-04-06T05:42:26Z</time></trkpt><trkpt lat="40.30434845400956" lon="18.39556234346856"><ele>6.0</ele><time>2026-04-06T05:42:27Z</time></trkpt><trkpt lat="40.30443950399993" lon="18.39544988360985"><ele>6.0</ele><time>2026-04-06T05:42:29Z</time></trkpt><trkpt lat="40.30452261803469" lon="18.39540062380964"><ele>5.8</ele><time>2026-04-06T05:42:31Z</time></trkpt><trkpt lat="40.30460664804741" lon="18.39538274828693"><ele>5.6</ele><time>2026-04-06T05:42:33Z</time></trkpt><trkpt lat="40.304702085061415" lon="18.395426464136076"><ele>5.4</ele><time>2026-04-06T05:42:35Z</time></trkpt><trkpt lat="40.30477165897746" lon="18.395487550088742"><ele>5.2</ele><time>2026-04-06T05:42:36Z</time></trkpt><trkpt lat="40.304834376569275" lon="18.395575861689117"><ele>5.0</ele><time>2026-04-06T05:42:37Z</time></trkpt><trkpt lat="40.30492487490741" lon="18.395669306134725"><ele>5.0</ele><time>2026-04-06T05:42:38Z</time></trkpt><trkpt lat="40.305019417782404" lon="18.395739193896414"><ele>5.0</ele><time>2026-04-06T05:42:39Z</time></trkpt><trkpt lat="40.3051172848576" lon="18.395826640766415"><ele>5.0</ele><time>2026-04-06T05:42:40Z</time></trkpt><trkpt lat="40.30522066851024" lon="18.395915890860522"><ele>5.0</ele><time>2026-04-06T05:42:41Z</time></trkpt><trkpt lat="40.3053330325521" lon="18.396000054809885"><ele>5.0</ele><time>2026-04-06T05:42:42Z</time></trkpt><trkpt lat="40.30547936915494" lon="18.396094371425633"><ele>5.0</ele><time>2026-04-06T05:42:43Z</time></trkpt><trkpt lat="40.30562066202044" lon="18.396150207425983"><ele>5.0</ele><time>2026-04-06T05:42:44Z</time></trkpt><trkpt lat="40.30576444365907" lon="18.396201894774812"><ele>4.666666666666667</ele><time>2026-04-06T05:42:45Z</time></trkpt><trkpt lat="40.30591267664459" lon="18.396261187510717"><ele>4.333333333333333</ele><time>2026-04-06T05:42:46Z</time></trkpt><trkpt lat="40.306057358342976" lon="18.396333431111145"><ele>4.0</ele><time>2026-04-06T05:42:47Z</time></trkpt><trkpt lat="40.30619793739022" lon="18.39637506662749"><ele>4.0</ele><time>2026-04-06T05:42:48Z</time></trkpt><trkpt lat="40.30632230275425" lon="18.396403642083868"><ele>4.0</ele><time>2026-04-06T05:42:49Z</time></trkpt><trkpt lat="40.306432263383236" lon="18.39642892894881"><ele>4.0</ele><time>2026-04-06T05:42:50Z</time></trkpt><trkpt lat="40.306549097441135" lon="18.39646349385377"><ele>4.0</ele><time>2026-04-06T05:42:51Z</time></trkpt><trkpt lat="40.30666768396825" lon="18.39650592691797"><ele>4.0</ele><time>2026-04-06T05:42:52Z</time></trkpt><trkpt lat="40.306768876940495" lon="18.396538545122514"><ele>4.0</ele><time>2026-04-06T05:42:53Z</time></trkpt><trkpt lat="40.30686492431856" lon="18.396578893563476"><ele>4.0</ele><time>2026-04-06T05:42:54Z</time></trkpt><trkpt lat="40.3069361287865" lon="18.396599694893755"><ele>4.0</ele><time>2026-04-06T05:42:55Z</time></trkpt><trkpt lat="40.30701809418563" lon="18.396621229515837"><ele>4.0</ele><time>2026-04-06T05:42:57Z</time></trkpt><trkpt lat="40.307129661422536" lon="18.39664787004567"><ele>4.0</ele><time>2026-04-06T05:43:22.001Z</time></trkpt><trkpt lat="40.30721302572282" lon="18.39669274372508"><ele>4.0</ele><time>2026-04-06T05:43:24.001Z</time></trkpt><trkpt lat="40.30728546086447" lon="18.396548249702096"><ele>4.0</ele><time>2026-04-06T05:43:25.001Z</time></trkpt><trkpt lat="40.30734690490014" lon="18.396484565665833"><ele>4.0</ele><time>2026-04-06T05:43:26.001Z</time></trkpt><trkpt lat="40.30739915142358" lon="18.3964013806152"><ele>4.0</ele><time>2026-04-06T05:43:27.001Z</time></trkpt><trkpt lat="40.30746710052926" lon="18.396315326187565"><ele>3.5</ele><time>2026-04-06T05:43:28.001Z</time></trkpt><trkpt lat="40.30753904403514" lon="18.396206473715534"><ele>3.0</ele><time>2026-04-06T05:43:29.001Z</time></trkpt><trkpt lat="40.30761359622777" lon="18.39608844216529"><ele>2.5</ele><time>2026-04-06T05:43:30.001Z</time></trkpt><trkpt lat="40.30769124233433" lon="18.395960386351398"><ele>2.0</ele><time>2026-04-06T05:43:31.001Z</time></trkpt><trkpt lat="40.307771713046876" lon="18.395826081950247"><ele>2.0</ele><time>2026-04-06T05:43:32.001Z</time></trkpt><trkpt lat="40.30785884650603" lon="18.395681288175634"><ele>2.0</ele><time>2026-04-06T05:43:33.001Z</time></trkpt><trkpt lat="40.30795051591182" lon="18.395528956882085"><ele>2.0</ele><time>2026-04-06T05:43:34.001Z</time></trkpt><trkpt lat="40.308047807751755" lon="18.395367282453563"><ele>2.0</ele><time>2026-04-06T05:43:35.001Z</time></trkpt><trkpt lat="40.30814585589436" lon="18.395201968105887"><ele>2.333333333333333</ele><time>2026-04-06T05:43:36.001Z</time></trkpt><trkpt lat="40.308247268507635" lon="18.395030693926635"><ele>2.6666666666666665</ele><time>2026-04-06T05:43:37.001Z</time></trkpt><trkpt lat="40.308346466004785" lon="18.39486316081091"><ele>3.0</ele><time>2026-04-06T05:43:38.001Z</time></trkpt><trkpt lat="40.308447989404016" lon="18.394691699545813"><ele>3.0</ele><time>2026-04-06T05:43:39.001Z</time></trkpt><trkpt lat="40.3085528112613" lon="18.394514667616406"><ele>3.0</ele><time>2026-04-06T05:43:40.001Z</time></trkpt><trkpt lat="40.30866316655234" lon="18.39433195309638"><ele>3.0</ele><time>2026-04-06T05:43:41.001Z</time></trkpt><trkpt lat="40.30877223656399" lon="18.394151586360127"><ele>3.0</ele><time>2026-04-06T05:43:42.001Z</time></trkpt><trkpt lat="40.3088835828506" lon="18.393968022860616"><ele>3.0</ele><time>2026-04-06T05:43:43.001Z</time></trkpt><trkpt lat="40.308991987438525" lon="18.393785623544517"><ele>3.0</ele><time>2026-04-06T05:43:44.001Z</time></trkpt><trkpt lat="40.309104258654045" lon="18.393595952267955"><ele>3.0</ele><time>2026-04-06T05:43:45.001Z</time></trkpt><trkpt lat="40.30921763357308" lon="18.393409895869112"><ele>3.0</ele><time>2026-04-06T05:43:46.001Z</time></trkpt><trkpt lat="40.30932239694721" lon="18.393236158358086"><ele>3.0</ele><time>2026-04-06T05:43:47.001Z</time></trkpt><trkpt lat="40.309429765643394" lon="18.393055893670756"><ele>2.6666666666666665</ele><time>2026-04-06T05:43:48.001Z</time></trkpt><trkpt lat="40.30954322244684" lon="18.39286518502789"><ele>2.333333333333333</ele><time>2026-04-06T05:43:49.001Z</time></trkpt><trkpt lat="40.30965495165123" lon="18.39267737951218"><ele>2.0</ele><time>2026-04-06T05:43:50.001Z</time></trkpt><trkpt lat="40.30976434557119" lon="18.39249379121527"><ele>2.0</ele><time>2026-04-06T05:43:51.001Z</time></trkpt><trkpt lat="40.30987360521132" lon="18.392312044430838"><ele>2.0</ele><time>2026-04-06T05:43:52.001Z</time></trkpt><trkpt lat="40.309979731377005" lon="18.3921354127863"><ele>2.0</ele><time>2026-04-06T05:43:53.001Z</time></trkpt><trkpt lat="40.310074273013996" lon="18.391977544508638"><ele>2.25</ele><time>2026-04-06T05:43:54.001Z</time></trkpt><trkpt lat="40.310167885696124" lon="18.391820427859734"><ele>2.5</ele><time>2026-04-06T05:43:55.001Z</time></trkpt><trkpt lat="40.31025662715907" lon="18.391670196067732"><ele>2.75</ele><time>2026-04-06T05:43:56.001Z</time></trkpt><trkpt lat="40.31032348352969" lon="18.39152430701676"><ele>3.0</ele><time>2026-04-06T05:43:57.001Z</time></trkpt><trkpt lat="40.3103967310213" lon="18.39140397619923"><ele>3.2</ele><time>2026-04-06T05:43:58.001Z</time></trkpt><trkpt lat="40.3104625507471" lon="18.39129944885495"><ele>3.4</ele><time>2026-04-06T05:43:59.001Z</time></trkpt><trkpt lat="40.310538215550345" lon="18.39120861803034"><ele>3.6000000000000005</ele><time>2026-04-06T05:44:00.001Z</time></trkpt><trkpt lat="40.3105867624338" lon="18.391113106096178"><ele>3.8000000000000003</ele><time>2026-04-06T05:44:01.001Z</time></trkpt><trkpt lat="40.31063935146401" lon="18.391021862799224"><ele>4.0</ele><time>2026-04-06T05:44:02.001Z</time></trkpt><trkpt lat="40.310708837225384" lon="18.390914253839384"><ele>4.0</ele><time>2026-04-06T05:44:03.001Z</time></trkpt><trkpt lat="40.310782914444346" lon="18.39078012396696"><ele>4.0</ele><time>2026-04-06T05:44:04.001Z</time></trkpt><trkpt lat="40.31086137641551" lon="18.390641329611213"><ele>4.0</ele><time>2026-04-06T05:44:05.001Z</time></trkpt><trkpt lat="40.31095237801629" lon="18.390495914557828"><ele>4.0</ele><time>2026-04-06T05:44:06.001Z</time></trkpt><trkpt lat="40.31104464376315" lon="18.39034152636048"><ele>3.6666666666666665</ele><time>2026-04-06T05:44:07.001Z</time></trkpt><trkpt lat="40.31114199002432" lon="18.390168948377465"><ele>3.333333333333333</ele><time>2026-04-06T05:44:08.001Z</time></trkpt><trkpt lat="40.31124379953897" lon="18.389986727887003"><ele>3.0</ele><time>2026-04-06T05:44:09.001Z</time></trkpt><trkpt lat="40.3113724121105" lon="18.38981348759616"><ele>3.333333333333333</ele><time>2026-04-06T05:44:10.002Z</time></trkpt><trkpt lat="40.31148715970297" lon="18.3896104401279"><ele>3.6666666666666665</ele><time>2026-04-06T05:44:11.002Z</time></trkpt><trkpt lat="40.311606142557494" lon="18.389409359025997"><ele>4.0</ele><time>2026-04-06T05:44:12.002Z</time></trkpt><trkpt lat="40.311720236765005" lon="18.389209544566864"><ele>4.0</ele><time>2026-04-06T05:44:13.002Z</time></trkpt><trkpt lat="40.31183781056299" lon="18.38901243353164"><ele>4.0</ele><time>2026-04-06T05:44:14.002Z</time></trkpt><trkpt lat="40.311956040160105" lon="18.38881747097537"><ele>4.0</ele><time>2026-04-06T05:44:15.002Z</time></trkpt><trkpt lat="40.312060905790695" lon="18.388629691999235"><ele>4.0</ele><time>2026-04-06T05:44:16.002Z</time></trkpt><trkpt lat="40.31217438597564" lon="18.388443901406937"><ele>4.0</ele><time>2026-04-06T05:44:17.002Z</time></trkpt><trkpt lat="40.31228395307535" lon="18.38824811405378"><ele>4.0</ele><time>2026-04-06T05:44:18.002Z</time></trkpt><trkpt lat="40.31239406240814" lon="18.38806197899893"><ele>5.0</ele><time>2026-04-06T05:44:19Z</time></trkpt><trkpt lat="40.31251091555128" lon="18.38787427182726"><ele>6.0</ele><time>2026-04-06T05:44:20Z</time></trkpt><trkpt lat="40.312628658737225" lon="18.387679863286724"><ele>7.0</ele><time>2026-04-06T05:44:21Z</time></trkpt><trkpt lat="40.31274896243954" lon="18.387489842314654"><ele>7.0</ele><time>2026-04-06T05:44:22Z</time></trkpt><trkpt lat="40.312866365723465" lon="18.3872925739454"><ele>7.0</ele><time>2026-04-06T05:44:23Z</time></trkpt><trkpt lat="40.31297406198724" lon="18.38710492340385"><ele>7.0</ele><time>2026-04-06T05:44:24Z</time></trkpt><trkpt lat="40.31307839041302" lon="18.386922184841833"><ele>6.0</ele><time>2026-04-06T05:44:25Z</time></trkpt><trkpt lat="40.31319344380425" lon="18.386750925993496"><ele>5.0</ele><time>2026-04-06T05:44:26Z</time></trkpt><trkpt lat="40.31330051804936" lon="18.386571417001328"><ele>4.0</ele><time>2026-04-06T05:44:27Z</time></trkpt><trkpt lat="40.3133868700181" lon="18.386397183947057"><ele>3.6666666666666665</ele><time>2026-04-06T05:44:28Z</time></trkpt><trkpt lat="40.31350096788333" lon="18.386234162726467"><ele>3.333333333333333</ele><time>2026-04-06T05:44:29Z</time></trkpt><trkpt lat="40.313608545259186" lon="18.386065855539588"><ele>3.0</ele><time>2026-04-06T05:44:30Z</time></trkpt><trkpt lat="40.31374296285822" lon="18.38591896529617"><ele>3.0</ele><time>2026-04-06T05:44:31Z</time></trkpt><trkpt lat="40.31387580455926" lon="18.385760979623843"><ele>3.0</ele><time>2026-04-06T05:44:32Z</time></trkpt><trkpt lat="40.31402341925462" lon="18.385601047437987"><ele>3.0</ele><time>2026-04-06T05:44:33Z</time></trkpt><trkpt lat="40.31418391722605" lon="18.385447650076806"><ele>3.666666666666667</ele><time>2026-04-06T05:44:34Z</time></trkpt><trkpt lat="40.31433881243408" lon="18.38527804398977"><ele>4.333333333333334</ele><time>2026-04-06T05:44:35Z</time></trkpt><trkpt lat="40.31450040271815" lon="18.385131109896513"><ele>5.0</ele><time>2026-04-06T05:44:36Z</time></trkpt><trkpt lat="40.31465237803523" lon="18.384989081448268"><ele>5.0</ele><time>2026-04-06T05:44:37Z</time></trkpt><trkpt lat="40.31481063205711" lon="18.384846480514174"><ele>5.0</ele><time>2026-04-06T05:44:38Z</time></trkpt><trkpt lat="40.31497033934742" lon="18.38470005764055"><ele>5.0</ele><time>2026-04-06T05:44:39Z</time></trkpt><trkpt lat="40.31512897174525" lon="18.384549529323333"><ele>5.0</ele><time>2026-04-06T05:44:40Z</time></trkpt><trkpt lat="40.31529620342613" lon="18.384395703986552"><ele>5.0</ele><time>2026-04-06T05:44:41Z</time></trkpt><trkpt lat="40.31546185285365" lon="18.38422766446414"><ele>5.0</ele><time>2026-04-06T05:44:42Z</time></trkpt><trkpt lat="40.31563335184969" lon="18.384068127487527"><ele>5.0</ele><time>2026-04-06T05:44:43Z</time></trkpt><trkpt lat="40.31580927618557" lon="18.38390735127626"><ele>5.0</ele><time>2026-04-06T05:44:44Z</time></trkpt><trkpt lat="40.31596561512744" lon="18.383743861247414"><ele>5.0</ele><time>2026-04-06T05:44:45Z</time></trkpt><trkpt lat="40.316129728131216" lon="18.383588092815746"><ele>5.333333333333334</ele><time>2026-04-06T05:44:46Z</time></trkpt><trkpt lat="40.31629851163497" lon="18.38343856418135"><ele>5.666666666666667</ele><time>2026-04-06T05:44:47Z</time></trkpt><trkpt lat="40.316467071465325" lon="18.383296864010436"><ele>6.0</ele><time>2026-04-06T05:44:48Z</time></trkpt><trkpt lat="40.31662456689096" lon="18.383147266498455"><ele>5.666666666666667</ele><time>2026-04-06T05:44:49Z</time></trkpt><trkpt lat="40.3167782703521" lon="18.38297491525848"><ele>5.333333333333334</ele><time>2026-04-06T05:44:50Z</time></trkpt><trkpt lat="40.31694330858769" lon="18.38282953388411"><ele>5.0</ele><time>2026-04-06T05:44:51Z</time></trkpt><trkpt lat="40.31711146893121" lon="18.382668556726347"><ele>4.0</ele><time>2026-04-06T05:44:52Z</time></trkpt><trkpt lat="40.31727231316415" lon="18.382509380571044"><ele>3.0</ele><time>2026-04-06T05:44:53Z</time></trkpt><trkpt lat="40.31744105665955" lon="18.38235355030256"><ele>2.0</ele><time>2026-04-06T05:44:54Z</time></trkpt><trkpt lat="40.31761713032626" lon="18.38221049799004"><ele>2.333333333333333</ele><time>2026-04-06T05:44:55Z</time></trkpt><trkpt lat="40.31778629405863" lon="18.382051461885013"><ele>2.6666666666666665</ele><time>2026-04-06T05:44:56Z</time></trkpt><trkpt lat="40.31795868101729" lon="18.381887347892395"><ele>3.0</ele><time>2026-04-06T05:44:57Z</time></trkpt><trkpt lat="40.31813404876702" lon="18.38172039605188"><ele>3.0</ele><time>2026-04-06T05:44:58Z</time></trkpt><trkpt lat="40.31831327241705" lon="18.38155063005291"><ele>3.0</ele><time>2026-04-06T05:44:59Z</time></trkpt><trkpt lat="40.31848565338232" lon="18.381390820604768"><ele>3.0</ele><time>2026-04-06T05:45:00Z</time></trkpt><trkpt lat="40.318653631164324" lon="18.381235096772283"><ele>2.6666666666666665</ele><time>2026-04-06T05:45:01Z</time></trkpt><trkpt lat="40.31882083247036" lon="18.381074505365905"><ele>2.333333333333333</ele><time>2026-04-06T05:45:02Z</time></trkpt><trkpt lat="40.31899150688788" lon="18.380912098725233"><ele>2.0</ele><time>2026-04-06T05:45:03Z</time></trkpt><trkpt lat="40.319167747063666" lon="18.38074655146185"><ele>2.0</ele><time>2026-04-06T05:45:04Z</time></trkpt><trkpt lat="40.319346087158486" lon="18.38057946858377"><ele>2.0</ele><time>2026-04-06T05:45:05Z</time></trkpt><trkpt lat="40.31951412506464" lon="18.38041946951466"><ele>2.0</ele><time>2026-04-06T05:45:06Z</time></trkpt><trkpt lat="40.319670821541244" lon="18.380270268136996"><ele>3.0</ele><time>2026-04-06T05:45:07.001Z</time></trkpt><trkpt lat="40.319816812595576" lon="18.380104725985916"><ele>4.0</ele><time>2026-04-06T05:45:08.001Z</time></trkpt><trkpt lat="40.319974134211975" lon="18.379959500360556"><ele>5.0</ele><time>2026-04-06T05:45:09.001Z</time></trkpt><trkpt lat="40.32013283359308" lon="18.379810848018845"><ele>5.333333333333334</ele><time>2026-04-06T05:45:10.001Z</time></trkpt><trkpt lat="40.32028944628819" lon="18.379664094979454"><ele>5.666666666666667</ele><time>2026-04-06T05:45:11.001Z</time></trkpt><trkpt lat="40.320435921556275" lon="18.379522245382162"><ele>6.0</ele><time>2026-04-06T05:45:12.001Z</time></trkpt><trkpt lat="40.3205799387624" lon="18.379412301591987"><ele>6.0</ele><time>2026-04-06T05:45:13.001Z</time></trkpt><trkpt lat="40.32071365215469" lon="18.379286434146575"><ele>6.0</ele><time>2026-04-06T05:45:14.001Z</time></trkpt><trkpt lat="40.32083821076797" lon="18.379169184146736"><ele>6.0</ele><time>2026-04-06T05:45:15.001Z</time></trkpt><trkpt lat="40.32094561879533" lon="18.379068325851883"><ele>6.0</ele><time>2026-04-06T05:45:16.001Z</time></trkpt><trkpt lat="40.321041572731176" lon="18.37897828636137"><ele>6.0</ele><time>2026-04-06T05:45:17.001Z</time></trkpt><trkpt lat="40.32114505582573" lon="18.37888118180684"><ele>6.0</ele><time>2026-04-06T05:45:18.001Z</time></trkpt><trkpt lat="40.321260435517175" lon="18.378772913669227"><ele>6.0</ele><time>2026-04-06T05:45:19.001Z</time></trkpt><trkpt lat="40.32136512683711" lon="18.378673067263737"><ele>6.0</ele><time>2026-04-06T05:45:20.001Z</time></trkpt><trkpt lat="40.32148191929801" lon="18.378562827962977"><ele>6.0</ele><time>2026-04-06T05:45:21.001Z</time></trkpt><trkpt lat="40.321609943651325" lon="18.378442202400727"><ele>6.0</ele><time>2026-04-06T05:45:22.001Z</time></trkpt><trkpt lat="40.32175190860734" lon="18.378307360325493"><ele>6.0</ele><time>2026-04-06T05:45:23.001Z</time></trkpt><trkpt lat="40.32190038261226" lon="18.378166335725574"><ele>6.0</ele><time>2026-04-06T05:45:24.001Z</time></trkpt><trkpt lat="40.3220586969699" lon="18.378015964602568"><ele>6.0</ele><time>2026-04-06T05:45:25.001Z</time></trkpt><trkpt lat="40.32222186516972" lon="18.377861194499967"><ele>5.333333333333333</ele><time>2026-04-06T05:45:26.001Z</time></trkpt><trkpt lat="40.32238528070577" lon="18.377708295010937"><ele>4.666666666666666</ele><time>2026-04-06T05:45:27.001Z</time></trkpt><trkpt lat="40.322541578077356" lon="18.377561612841898"><ele>4.0</ele><time>2026-04-06T05:45:28.001Z</time></trkpt><trkpt lat="40.32268616383094" lon="18.377423238805008"><ele>4.0</ele><time>2026-04-06T05:45:29.001Z</time></trkpt><trkpt lat="40.32282656381402" lon="18.377288870769963"><ele>4.0</ele><time>2026-04-06T05:45:30.001Z</time></trkpt><trkpt lat="40.32295633626451" lon="18.37716467385721"><ele>4.0</ele><time>2026-04-06T05:45:31.001Z</time></trkpt><trkpt lat="40.323079437618084" lon="18.377048559634456"><ele>4.5</ele><time>2026-04-06T05:45:32.001Z</time></trkpt><trkpt lat="40.32319060027308" lon="18.37692242476719"><ele>5.0</ele><time>2026-04-06T05:45:33.001Z</time></trkpt><trkpt lat="40.32331289004876" lon="18.376822055577176"><ele>5.5</ele><time>2026-04-06T05:45:34.001Z</time></trkpt><trkpt lat="40.32345174002977" lon="18.376739646989982"><ele>6.0</ele><time>2026-04-06T05:45:35.001Z</time></trkpt><trkpt lat="40.32359988043165" lon="18.376662041791377"><ele>6.0</ele><time>2026-04-06T05:45:36.001Z</time></trkpt><trkpt lat="40.32376300049758" lon="18.376592866770398"><ele>6.0</ele><time>2026-04-06T05:45:37.001Z</time></trkpt><trkpt lat="40.32392400058568" lon="18.376517010446154"><ele>6.0</ele><time>2026-04-06T05:45:38.001Z</time></trkpt><trkpt lat="40.324059564520844" lon="18.37644105162588"><ele>5.3999999999999995</ele><time>2026-04-06T05:45:39.001Z</time></trkpt><trkpt lat="40.32418065258958" lon="18.376378351450594"><ele>4.8</ele><time>2026-04-06T05:45:40.001Z</time></trkpt><trkpt lat="40.32428296051174" lon="18.37631997281092"><ele>4.199999999999999</ele><time>2026-04-06T05:45:41.001Z</time></trkpt><trkpt lat="40.3243801423374" lon="18.376287416739594"><ele>3.5999999999999996</ele><time>2026-04-06T05:45:42.001Z</time></trkpt><trkpt lat="40.32446183435402" lon="18.376244161078585"><ele>3.0</ele><time>2026-04-06T05:45:43.001Z</time></trkpt><trkpt lat="40.32456179990967" lon="18.376196558631342"><ele>3.0</ele><time>2026-04-06T05:45:44.001Z</time></trkpt><trkpt lat="40.32467480949636" lon="18.3761446486682"><ele>3.0</ele><time>2026-04-06T05:45:45.001Z</time></trkpt><trkpt lat="40.32481260334914" lon="18.376100105569623"><ele>3.0</ele><time>2026-04-06T05:45:46.001Z</time></trkpt><trkpt lat="40.324949752152484" lon="18.376039206952164"><ele>3.0</ele><time>2026-04-06T05:45:47.001Z</time></trkpt><trkpt lat="40.32508319226545" lon="18.37597364297606"><ele>3.0</ele><time>2026-04-06T05:45:48.001Z</time></trkpt><trkpt lat="40.3252187029362" lon="18.375908385053368"><ele>3.0</ele><time>2026-04-06T05:45:49.001Z</time></trkpt><trkpt lat="40.325353959859946" lon="18.37583247915467"><ele>3.0</ele><time>2026-04-06T05:45:50.001Z</time></trkpt><trkpt lat="40.32549955950686" lon="18.375764387930932"><ele>3.0</ele><time>2026-04-06T05:45:51.001Z</time></trkpt><trkpt lat="40.325648686506234" lon="18.375683175958336"><ele>3.0</ele><time>2026-04-06T05:45:52.001Z</time></trkpt><trkpt lat="40.32581401315801" lon="18.37561404073151"><ele>3.0</ele><time>2026-04-06T05:45:53.001Z</time></trkpt><trkpt lat="40.32597169571091" lon="18.375531331561724"><ele>3.0</ele><time>2026-04-06T05:45:54.001Z</time></trkpt><trkpt lat="40.3261334558467" lon="18.37544913824466"><ele>3.333333333333333</ele><time>2026-04-06T05:45:55.001Z</time></trkpt><trkpt lat="40.32629440875982" lon="18.375367545593306"><ele>3.6666666666666665</ele><time>2026-04-06T05:45:56.001Z</time></trkpt><trkpt lat="40.32646148539022" lon="18.375294434782976"><ele>4.0</ele><time>2026-04-06T05:45:57.001Z</time></trkpt><trkpt lat="40.32662341051357" lon="18.37521609521421"><ele>3.333333333333333</ele><time>2026-04-06T05:45:58.001Z</time></trkpt><trkpt lat="40.326782961373496" lon="18.375143287087532"><ele>2.6666666666666665</ele><time>2026-04-06T05:45:59.001Z</time></trkpt><trkpt lat="40.326931110207774" lon="18.37507501802739"><ele>2.0</ele><time>2026-04-06T05:46:00.001Z</time></trkpt><trkpt lat="40.32707647006662" lon="18.375008138718172"><ele>2.0</ele><time>2026-04-06T05:46:01.001Z</time></trkpt><trkpt lat="40.32722316667349" lon="18.374939167889146"><ele>2.0</ele><time>2026-04-06T05:46:02.001Z</time></trkpt><trkpt lat="40.32739526534843" lon="18.374888244804247"><ele>2.0</ele><time>2026-04-06T05:46:03.001Z</time></trkpt><trkpt lat="40.3275442913616" lon="18.37480034328112"><ele>2.333333333333333</ele><time>2026-04-06T05:46:04.001Z</time></trkpt><trkpt lat="40.32769072085072" lon="18.374690724909456"><ele>2.6666666666666665</ele><time>2026-04-06T05:46:05.001Z</time></trkpt><trkpt lat="40.32784590359778" lon="18.374567031282538"><ele>3.0</ele><time>2026-04-06T05:46:06.001Z</time></trkpt><trkpt lat="40.3279958011662" lon="18.37442703391415"><ele>2.6666666666666665</ele><time>2026-04-06T05:46:07.001Z</time></trkpt><trkpt lat="40.32814303798023" lon="18.3742940023042"><ele>2.333333333333333</ele><time>2026-04-06T05:46:08.001Z</time></trkpt><trkpt lat="40.32828748171849" lon="18.374164670189344"><ele>2.0</ele><time>2026-04-06T05:46:09.001Z</time></trkpt><trkpt lat="40.328420151375994" lon="18.37404169600687"><ele>2.0</ele><time>2026-04-06T05:46:10.001Z</time></trkpt><trkpt lat="40.328549642869255" lon="18.373921818273597"><ele>2.0</ele><time>2026-04-06T05:46:11.001Z</time></trkpt><trkpt lat="40.32868551911661" lon="18.373800094744478"><ele>2.0</ele><time>2026-04-06T05:46:12.001Z</time></trkpt><trkpt lat="40.328825183509565" lon="18.37367838557485"><ele>1.3333333333333333</ele><time>2026-04-06T05:46:13.001Z</time></trkpt><trkpt lat="40.32897517756529" lon="18.373572255796503"><ele>0.6666666666666666</ele><time>2026-04-06T05:46:14.002Z</time></trkpt><trkpt lat="40.32911679816115" lon="18.37345009067053"><ele>0.0</ele><time>2026-04-06T05:46:15.002Z</time></trkpt><trkpt lat="40.329258360386746" lon="18.373328206541068"><ele>0.0</ele><time>2026-04-06T05:46:16.002Z</time></trkpt><trkpt lat="40.32940015495439" lon="18.373206122188847"><ele>0.0</ele><time>2026-04-06T05:46:17.002Z</time></trkpt><trkpt lat="40.3295428735801" lon="18.373084583404403"><ele>0.0</ele><time>2026-04-06T05:46:18.002Z</time></trkpt><trkpt lat="40.32967749117948" lon="18.37296962816112"><ele>-0.3333333333333333</ele><time>2026-04-06T05:46:19.002Z</time></trkpt><trkpt lat="40.32981324567786" lon="18.372852716281542"><ele>-0.6666666666666666</ele><time>2026-04-06T05:46:20.002Z</time></trkpt><trkpt lat="40.329949382776626" lon="18.37273654032886"><ele>-1.0</ele><time>2026-04-06T05:46:21.002Z</time></trkpt><trkpt lat="40.33009052385866" lon="18.372616071753832"><ele>-1.0</ele><time>2026-04-06T05:46:22.002Z</time></trkpt><trkpt lat="40.33023599376992" lon="18.372491908389645"><ele>-1.0</ele><time>2026-04-06T05:46:23.002Z</time></trkpt><trkpt lat="40.330382527207135" lon="18.372366549415904"><ele>-1.0</ele><time>2026-04-06T05:46:24.002Z</time></trkpt><trkpt lat="40.330535524983176" lon="18.37223529752288"><ele>-0.3333333333333333</ele><time>2026-04-06T05:46:25Z</time></trkpt><trkpt lat="40.33069140622873" lon="18.372101571981748"><ele>0.3333333333333333</ele><time>2026-04-06T05:46:26Z</time></trkpt><trkpt lat="40.330850760412716" lon="18.37196486712228"><ele>1.0</ele><time>2026-04-06T05:46:27Z</time></trkpt><trkpt lat="40.33101289870536" lon="18.37182544513059"><ele>1.0</ele><time>2026-04-06T05:46:28Z</time></trkpt><trkpt lat="40.3311780097716" lon="18.37168328833189"><ele>1.0</ele><time>2026-04-06T05:46:29Z</time></trkpt><trkpt lat="40.33133666153979" lon="18.371514440207704"><ele>1.0</ele><time>2026-04-06T05:46:30Z</time></trkpt><trkpt lat="40.33150192829945" lon="18.371375126136204"><ele>2.0</ele><time>2026-04-06T05:46:31Z</time></trkpt><trkpt lat="40.3316548742357" lon="18.37123585802869"><ele>3.0</ele><time>2026-04-06T05:46:32Z</time></trkpt><trkpt lat="40.331813831675696" lon="18.371100673372407"><ele>4.0</ele><time>2026-04-06T05:46:33Z</time></trkpt><trkpt lat="40.331972502957825" lon="18.370963840535325"><ele>4.0</ele><time>2026-04-06T05:46:34Z</time></trkpt><trkpt lat="40.33212935584944" lon="18.37082665703389"><ele>4.0</ele><time>2026-04-06T05:46:35Z</time></trkpt><trkpt lat="40.33228212801147" lon="18.370694298158128"><ele>4.0</ele><time>2026-04-06T05:46:36Z</time></trkpt><trkpt lat="40.332435077900115" lon="18.370569488888428"><ele>4.666666666666666</ele><time>2026-04-06T05:46:37Z</time></trkpt><trkpt lat="40.332589311940836" lon="18.37043983119834"><ele>5.333333333333333</ele><time>2026-04-06T05:46:38Z</time></trkpt><trkpt lat="40.33276156421717" lon="18.370325681135917"><ele>6.0</ele><time>2026-04-06T05:46:39Z</time></trkpt><trkpt lat="40.332913699798915" lon="18.370170577368285"><ele>4.666666666666667</ele><time>2026-04-06T05:46:40Z</time></trkpt><trkpt lat="40.333074507330075" lon="18.370034924580533"><ele>3.333333333333333</ele><time>2026-04-06T05:46:41Z</time></trkpt><trkpt lat="40.333247705171964" lon="18.369912100145278"><ele>2.0</ele><time>2026-04-06T05:46:42Z</time></trkpt><trkpt lat="40.33341027305453" lon="18.36977379667159"><ele>2.0</ele><time>2026-04-06T05:46:43Z</time></trkpt><trkpt lat="40.33358132115213" lon="18.3696277222804"><ele>2.0</ele><time>2026-04-06T05:46:44Z</time></trkpt><trkpt lat="40.33374716705655" lon="18.369485552782056"><ele>2.0</ele><time>2026-04-06T05:46:45Z</time></trkpt><trkpt lat="40.33391596453343" lon="18.369342274846232"><ele>1.6666666666666665</ele><time>2026-04-06T05:46:46Z</time></trkpt><trkpt lat="40.33408040404091" lon="18.36920258250543"><ele>1.3333333333333333</ele><time>2026-04-06T05:46:47Z</time></trkpt><trkpt lat="40.33423477396675" lon="18.36906710061157"><ele>1.0</ele><time>2026-04-06T05:46:48Z</time></trkpt><trkpt lat="40.33438307651991" lon="18.368931630031128"><ele>1.6666666666666665</ele><time>2026-04-06T05:46:49Z</time></trkpt><trkpt lat="40.3345318226274" lon="18.368777674625075"><ele>2.3333333333333335</ele><time>2026-04-06T05:46:50Z</time></trkpt><trkpt lat="40.334659307016906" lon="18.368598050776175"><ele>3.0</ele><time>2026-04-06T05:46:51Z</time></trkpt><trkpt lat="40.33479033254054" lon="18.36843595896243"><ele>2.6666666666666665</ele><time>2026-04-06T05:46:52Z</time></trkpt><trkpt lat="40.334916392411245" lon="18.36825027973999"><ele>2.333333333333333</ele><time>2026-04-06T05:46:53Z</time></trkpt><trkpt lat="40.33503419211001" lon="18.368051758951424"><ele>2.0</ele><time>2026-04-06T05:46:54Z</time></trkpt><trkpt lat="40.33513354281598" lon="18.367839174628028"><ele>2.0</ele><time>2026-04-06T05:46:55Z</time></trkpt><trkpt lat="40.33522460289864" lon="18.367602993813055"><ele>2.0</ele><time>2026-04-06T05:46:56Z</time></trkpt><trkpt lat="40.33529555054619" lon="18.36734217676323"><ele>2.0</ele><time>2026-04-06T05:46:57Z</time></trkpt><trkpt lat="40.33536306204551" lon="18.36707888784545"><ele>3.333333333333333</ele><time>2026-04-06T05:46:58Z</time></trkpt><trkpt lat="40.33542750171287" lon="18.36683555022032"><ele>4.666666666666667</ele><time>2026-04-06T05:46:59Z</time></trkpt><trkpt lat="40.33548361266376" lon="18.366603146327996"><ele>6.0</ele><time>2026-04-06T05:47:00Z</time></trkpt><trkpt lat="40.33554361109816" lon="18.366380779847038"><ele>4.666666666666667</ele><time>2026-04-06T05:47:01Z</time></trkpt><trkpt lat="40.33560312389692" lon="18.36616866685506"><ele>3.333333333333333</ele><time>2026-04-06T05:47:02Z</time></trkpt><trkpt lat="40.33565342555257" lon="18.36596505162988"><ele>2.0</ele><time>2026-04-06T05:47:03Z</time></trkpt><trkpt lat="40.335706781992" lon="18.365752352188714"><ele>2.0</ele><time>2026-04-06T05:47:04Z</time></trkpt><trkpt lat="40.33576131493517" lon="18.365545018609946"><ele>2.0</ele><time>2026-04-06T05:47:05Z</time></trkpt><trkpt lat="40.335819293387786" lon="18.365345943813725"><ele>2.0</ele><time>2026-04-06T05:47:06Z</time></trkpt><trkpt lat="40.33586753582422" lon="18.36516006737762"><ele>1.75</ele><time>2026-04-06T05:47:07Z</time></trkpt><trkpt lat="40.33591502590816" lon="18.36497678062881"><ele>1.5</ele><time>2026-04-06T05:47:08Z</time></trkpt><trkpt lat="40.335955220244365" lon="18.364794561144794"><ele>1.25</ele><time>2026-04-06T05:47:09Z</time></trkpt><trkpt lat="40.33600435219724" lon="18.364613474847506"><ele>1.0</ele><time>2026-04-06T05:47:10Z</time></trkpt><trkpt lat="40.33605681255896" lon="18.364432703004322"><ele>1.0</ele><time>2026-04-06T05:47:11.001Z</time></trkpt><trkpt lat="40.33610713273678" lon="18.364247357201176"><ele>1.0</ele><time>2026-04-06T05:47:12.001Z</time></trkpt><trkpt lat="40.3361614046323" lon="18.364051783123184"><ele>1.0</ele><time>2026-04-06T05:47:13.001Z</time></trkpt><trkpt lat="40.336212077431775" lon="18.363849596880172"><ele>0.3333333333333333</ele><time>2026-04-06T05:47:14.001Z</time></trkpt><trkpt lat="40.33626656875733" lon="18.363648319278656"><ele>-0.3333333333333333</ele><time>2026-04-06T05:47:15.001Z</time></trkpt><trkpt lat="40.33632194437099" lon="18.363443254333824"><ele>-1.0</ele><time>2026-04-06T05:47:16.001Z</time></trkpt><trkpt lat="40.33637626643757" lon="18.36323303715591"><ele>-0.6666666666666666</ele><time>2026-04-06T05:47:17.001Z</time></trkpt><trkpt lat="40.33643163459473" lon="18.363022066784712"><ele>-0.3333333333333333</ele><time>2026-04-06T05:47:18.001Z</time></trkpt><trkpt lat="40.33648644915944" lon="18.362811525550985"><ele>0.0</ele><time>2026-04-06T05:47:19.001Z</time></trkpt><trkpt lat="40.336545264932894" lon="18.36259150001479"><ele>0.0</ele><time>2026-04-06T05:47:20.001Z</time></trkpt><trkpt lat="40.336603637773145" lon="18.36235989963186"><ele>0.0</ele><time>2026-04-06T05:47:21.001Z</time></trkpt><trkpt lat="40.33666931180991" lon="18.362121480190204"><ele>0.0</ele><time>2026-04-06T05:47:22.001Z</time></trkpt><trkpt lat="40.33673167439864" lon="18.361870350984137"><ele>0.0</ele><time>2026-04-06T05:47:23.001Z</time></trkpt><trkpt lat="40.33678770999877" lon="18.36161909111778"><ele>0.0</ele><time>2026-04-06T05:47:24.001Z</time></trkpt><trkpt lat="40.33684309172754" lon="18.361380679318874"><ele>0.0</ele><time>2026-04-06T05:47:25.001Z</time></trkpt><trkpt lat="40.33690173418192" lon="18.361157224784247"><ele>0.0</ele><time>2026-04-06T05:47:26.001Z</time></trkpt><trkpt lat="40.33696311768107" lon="18.360930780648506"><ele>0.0</ele><time>2026-04-06T05:47:27.001Z</time></trkpt><trkpt lat="40.337025459603076" lon="18.360704007065802"><ele>0.0</ele><time>2026-04-06T05:47:28.001Z</time></trkpt><trkpt lat="40.33708833555189" lon="18.360474877561163"><ele>0.0</ele><time>2026-04-06T05:47:29.001Z</time></trkpt><trkpt lat="40.33714487341173" lon="18.360250015369235"><ele>0.0</ele><time>2026-04-06T05:47:30.001Z</time></trkpt><trkpt lat="40.3372050131377" lon="18.360030192289717"><ele>0.0</ele><time>2026-04-06T05:47:31.001Z</time></trkpt><trkpt lat="40.337267937908635" lon="18.359809202852905"><ele>-0.3333333333333333</ele><time>2026-04-06T05:47:32.001Z</time></trkpt><trkpt lat="40.337336228014316" lon="18.35958212653086"><ele>-0.6666666666666666</ele><time>2026-04-06T05:47:33.001Z</time></trkpt><trkpt lat="40.3374292697233" lon="18.35934915982492"><ele>-1.0</ele><time>2026-04-06T05:47:34.001Z</time></trkpt><trkpt lat="40.3375352325381" lon="18.359112084353875"><ele>-1.0</ele><time>2026-04-06T05:47:35.001Z</time></trkpt><trkpt lat="40.337641005609676" lon="18.358867227511702"><ele>-1.0</ele><time>2026-04-06T05:47:36.001Z</time></trkpt><trkpt lat="40.33775121912436" lon="18.358624468876048"><ele>-1.0</ele><time>2026-04-06T05:47:37.001Z</time></trkpt><trkpt lat="40.3378532105179" lon="18.35838235433657"><ele>-1.0</ele><time>2026-04-06T05:47:38.001Z</time></trkpt><trkpt lat="40.33795147867841" lon="18.358137922699285"><ele>-1.0</ele><time>2026-04-06T05:47:39.001Z</time></trkpt><trkpt lat="40.33805766812468" lon="18.357913599966793"><ele>-1.0</ele><time>2026-04-06T05:47:40.001Z</time></trkpt><trkpt lat="40.338157616981206" lon="18.35768449919223"><ele>-1.0</ele><time>2026-04-06T05:47:41.001Z</time></trkpt><trkpt lat="40.33825215073487" lon="18.357457302204555"><ele>-1.0</ele><time>2026-04-06T05:47:42.001Z</time></trkpt><trkpt lat="40.338351985961026" lon="18.357231277206466"><ele>-1.0</ele><time>2026-04-06T05:47:43.001Z</time></trkpt><trkpt lat="40.338446056478276" lon="18.357020070531096"><ele>-0.6666666666666666</ele><time>2026-04-06T05:47:44.001Z</time></trkpt><trkpt lat="40.33853633064" lon="18.35682553087831"><ele>-0.3333333333333333</ele><time>2026-04-06T05:47:45.001Z</time></trkpt><trkpt lat="40.338619075136805" lon="18.356635958066576"><ele>0.0</ele><time>2026-04-06T05:47:46.001Z</time></trkpt><trkpt lat="40.33869602752759" lon="18.35645219560575"><ele>0.25</ele><time>2026-04-06T05:47:47.001Z</time></trkpt><trkpt lat="40.33877317231648" lon="18.356271850866317"><ele>0.5</ele><time>2026-04-06T05:47:48.001Z</time></trkpt><trkpt lat="40.33884703940341" lon="18.356110374877968"><ele>0.75</ele><time>2026-04-06T05:47:49.001Z</time></trkpt><trkpt lat="40.338905542801086" lon="18.355970840491928"><ele>1.0</ele><time>2026-04-06T05:47:50.001Z</time></trkpt><trkpt lat="40.33896385601004" lon="18.355841517638815"><ele>1.0</ele><time>2026-04-06T05:47:51.001Z</time></trkpt><trkpt lat="40.339019860290676" lon="18.355721641432094"><ele>1.0</ele><time>2026-04-06T05:47:52.001Z</time></trkpt><trkpt lat="40.339066324158374" lon="18.35561237795111"><ele>1.0</ele><time>2026-04-06T05:47:53.001Z</time></trkpt><trkpt lat="40.33910811813706" lon="18.355517838452617"><ele>1.0</ele><time>2026-04-06T05:47:54.001Z</time></trkpt><trkpt lat="40.339140330689894" lon="18.355444361243702"><ele>1.0</ele><time>2026-04-06T05:47:55.001Z</time></trkpt><trkpt lat="40.33918947955407" lon="18.355312702454153"><ele>1.0</ele><time>2026-04-06T05:47:57.001Z</time></trkpt><trkpt lat="40.33919969745915" lon="18.355195710144354"><ele>1.0</ele><time>2026-04-06T05:47:59.001Z</time></trkpt><trkpt lat="40.33917741090437" lon="18.355064041866424"><ele>1.0</ele><time>2026-04-06T05:48:01.001Z</time></trkpt><trkpt lat="40.33912880924046" lon="18.35499918619246"><ele>1.0</ele><time>2026-04-06T05:48:02.001Z</time></trkpt><trkpt lat="40.339045703330484" lon="18.354931201950166"><ele>1.0</ele><time>2026-04-06T05:48:03.001Z</time></trkpt><trkpt lat="40.33896108270906" lon="18.354848595824528"><ele>1.0</ele><time>2026-04-06T05:48:04.001Z</time></trkpt><trkpt lat="40.33888269664042" lon="18.354730660967597"><ele>1.0</ele><time>2026-04-06T05:48:05.001Z</time></trkpt><trkpt lat="40.338822245092416" lon="18.354614774490067"><ele>1.0</ele><time>2026-04-06T05:48:06.001Z</time></trkpt><trkpt lat="40.33876550679784" lon="18.35449880776308"><ele>1.0</ele><time>2026-04-06T05:48:07.001Z</time></trkpt><trkpt lat="40.338705733873915" lon="18.354389113479378"><ele>1.0</ele><time>2026-04-06T05:48:08.001Z</time></trkpt><trkpt lat="40.33863715440841" lon="18.354275713712543"><ele>1.0</ele><time>2026-04-06T05:48:09.001Z</time></trkpt><trkpt lat="40.33856997740163" lon="18.354166677882482"><ele>1.0</ele><time>2026-04-06T05:48:10.001Z</time></trkpt><trkpt lat="40.3385071714657" lon="18.354064948778795"><ele>1.0</ele><time>2026-04-06T05:48:11.001Z</time></trkpt><trkpt lat="40.338451003927794" lon="18.353969589613037"><ele>1.0</ele><time>2026-04-06T05:48:12.001Z</time></trkpt><trkpt lat="40.33840455806801" lon="18.353882747406754"><ele>1.0</ele><time>2026-04-06T05:48:13.001Z</time></trkpt><trkpt lat="40.338348879455275" lon="18.353775194508895"><ele>0.8333333333333333</ele><time>2026-04-06T05:48:15.001Z</time></trkpt><trkpt lat="40.338313355870476" lon="18.353693287481672"><ele>0.6666666666666666</ele><time>2026-04-06T05:48:18.002Z</time></trkpt><trkpt lat="40.33823181906691" lon="18.3535905272288"><ele>0.5</ele><time>2026-04-06T05:48:55Z</time></trkpt><trkpt lat="40.338188274236806" lon="18.35351742708913"><ele>0.3333333333333333</ele><time>2026-04-06T05:48:56Z</time></trkpt><trkpt lat="40.338138028215766" lon="18.353436743091493"><ele>0.16666666666666666</ele><time>2026-04-06T05:48:57Z</time></trkpt><trkpt lat="40.338074204023265" lon="18.353331671966952"><ele>0.0</ele><time>2026-04-06T05:48:58Z</time></trkpt><trkpt lat="40.33800021333332" lon="18.35320465174655"><ele>0.0</ele><time>2026-04-06T05:48:59Z</time></trkpt><trkpt lat="40.3379291329137" lon="18.353054516940816"><ele>0.0</ele><time>2026-04-06T05:49:00Z</time></trkpt><trkpt lat="40.3378525358187" lon="18.352921862952407"><ele>0.0</ele><time>2026-04-06T05:49:01Z</time></trkpt><trkpt lat="40.33775827903946" lon="18.352759448636274"><ele>0.0</ele><time>2026-04-06T05:49:02Z</time></trkpt><trkpt lat="40.33763800070863" lon="18.352586607075075"><ele>0.0</ele><time>2026-04-06T05:49:03Z</time></trkpt><trkpt lat="40.337544975793676" lon="18.35239773501959"><ele>0.0</ele><time>2026-04-06T05:49:04Z</time></trkpt><trkpt lat="40.337434291718736" lon="18.352204461939838"><ele>0.0</ele><time>2026-04-06T05:49:05Z</time></trkpt><trkpt lat="40.337318814305405" lon="18.352010027977045"><ele>0.3333333333333333</ele><time>2026-04-06T05:49:06Z</time></trkpt><trkpt lat="40.33720387060485" lon="18.351814422341924"><ele>0.6666666666666666</ele><time>2026-04-06T05:49:07Z</time></trkpt><trkpt lat="40.33708434641954" lon="18.35161688607308"><ele>1.0</ele><time>2026-04-06T05:49:08Z</time></trkpt><trkpt lat="40.336977088163756" lon="18.35140213736867"><ele>0.6666666666666666</ele><time>2026-04-06T05:49:09Z</time></trkpt><trkpt lat="40.336860497896055" lon="18.351198214892133"><ele>0.3333333333333333</ele><time>2026-04-06T05:49:10Z</time></trkpt><trkpt lat="40.33674023644435" lon="18.350987871322523"><ele>0.0</ele><time>2026-04-06T05:49:11Z</time></trkpt><trkpt lat="40.336616691862396" lon="18.35077207977582"><ele>0.0</ele><time>2026-04-06T05:49:12.001Z</time></trkpt><trkpt lat="40.33649421038437" lon="18.350558397538823"><ele>0.0</ele><time>2026-04-06T05:49:13.001Z</time></trkpt><trkpt lat="40.33637001163296" lon="18.350341719330963"><ele>0.0</ele><time>2026-04-06T05:49:14.001Z</time></trkpt><trkpt lat="40.336243965948896" lon="18.3501218189495"><ele>1.3333333333333333</ele><time>2026-04-06T05:49:15.001Z</time></trkpt><trkpt lat="40.33611955853859" lon="18.349904776716382"><ele>2.6666666666666665</ele><time>2026-04-06T05:49:16.001Z</time></trkpt><trkpt lat="40.33599810476713" lon="18.349692433734514"><ele>4.0</ele><time>2026-04-06T05:49:17.001Z</time></trkpt><trkpt lat="40.33587598636739" lon="18.349478807419647"><ele>4.0</ele><time>2026-04-06T05:49:18.001Z</time></trkpt><trkpt lat="40.335752621601344" lon="18.349263000787733"><ele>4.0</ele><time>2026-04-06T05:49:19.001Z</time></trkpt><trkpt lat="40.33562991207214" lon="18.349048340387263"><ele>4.0</ele><time>2026-04-06T05:49:20.001Z</time></trkpt><trkpt lat="40.335501196518535" lon="18.34882591877932"><ele>4.666666666666666</ele><time>2026-04-06T05:49:21.001Z</time></trkpt><trkpt lat="40.33536921507187" lon="18.348611621276902"><ele>5.333333333333333</ele><time>2026-04-06T05:49:22.001Z</time></trkpt><trkpt lat="40.33522795665813" lon="18.348401669737367"><ele>6.0</ele><time>2026-04-06T05:49:23.001Z</time></trkpt><trkpt lat="40.33508291807559" lon="18.348193468447896"><ele>6.0</ele><time>2026-04-06T05:49:24.001Z</time></trkpt><trkpt lat="40.33494471811596" lon="18.347995445598812"><ele>6.0</ele><time>2026-04-06T05:49:25.001Z</time></trkpt><trkpt lat="40.3348025982523" lon="18.347793517376427"><ele>6.0</ele><time>2026-04-06T05:49:26.001Z</time></trkpt><trkpt lat="40.334663444298585" lon="18.347596006779483"><ele>6.0</ele><time>2026-04-06T05:49:27.001Z</time></trkpt><trkpt lat="40.33453170888796" lon="18.347410068963782"><ele>6.0</ele><time>2026-04-06T05:49:28.001Z</time></trkpt><trkpt lat="40.33440070457685" lon="18.347225163062188"><ele>6.0</ele><time>2026-04-06T05:49:29.001Z</time></trkpt><trkpt lat="40.33426740672176" lon="18.347038522455815"><ele>6.0</ele><time>2026-04-06T05:49:30.001Z</time></trkpt><trkpt lat="40.33411270383157" lon="18.34688226853783"><ele>6.0</ele><time>2026-04-06T05:49:31.001Z</time></trkpt><trkpt lat="40.33395128919922" lon="18.346709608380223"><ele>6.0</ele><time>2026-04-06T05:49:32.001Z</time></trkpt><trkpt lat="40.3337795800839" lon="18.34654748406405"><ele>7.0</ele><time>2026-04-06T05:49:33.001Z</time></trkpt><trkpt lat="40.333599246418366" lon="18.346386375090578"><ele>8.0</ele><time>2026-04-06T05:49:34.001Z</time></trkpt><trkpt lat="40.33341965635521" lon="18.346228009252428"><ele>9.0</ele><time>2026-04-06T05:49:35.001Z</time></trkpt><trkpt lat="40.333242228370906" lon="18.346068913354667"><ele>9.0</ele><time>2026-04-06T05:49:36.001Z</time></trkpt><trkpt lat="40.333067867263814" lon="18.34591112450662"><ele>9.0</ele><time>2026-04-06T05:49:37.001Z</time></trkpt><trkpt lat="40.33289553213167" lon="18.345753844065285"><ele>9.0</ele><time>2026-04-06T05:49:38.001Z</time></trkpt><trkpt lat="40.332715049092066" lon="18.34559017504238"><ele>9.0</ele><time>2026-04-06T05:49:39.001Z</time></trkpt><trkpt lat="40.332537893956136" lon="18.345425628249405"><ele>9.0</ele><time>2026-04-06T05:49:40.001Z</time></trkpt><trkpt lat="40.3323617291007" lon="18.34527296991878"><ele>9.0</ele><time>2026-04-06T05:49:41.001Z</time></trkpt><trkpt lat="40.33218981358399" lon="18.345124614482394"><ele>9.333333333333334</ele><time>2026-04-06T05:49:42.001Z</time></trkpt><trkpt lat="40.33202273530258" lon="18.344977397429734"><ele>9.666666666666668</ele><time>2026-04-06T05:49:43.001Z</time></trkpt><trkpt lat="40.33186026000444" lon="18.34482630029098"><ele>10.0</ele><time>2026-04-06T05:49:44.001Z</time></trkpt><trkpt lat="40.33169807502598" lon="18.344672032194346"><ele>10.333333333333334</ele><time>2026-04-06T05:49:45.001Z</time></trkpt><trkpt lat="40.33153979892025" lon="18.344518939616712"><ele>10.666666666666666</ele><time>2026-04-06T05:49:46.001Z</time></trkpt><trkpt lat="40.33138365399871" lon="18.344360995540487"><ele>11.0</ele><time>2026-04-06T05:49:47.001Z</time></trkpt><trkpt lat="40.33122849429002" lon="18.344194561781027"><ele>11.666666666666666</ele><time>2026-04-06T05:49:48.001Z</time></trkpt><trkpt lat="40.331078551146305" lon="18.344024614987042"><ele>12.333333333333332</ele><time>2026-04-06T05:49:49.001Z</time></trkpt><trkpt lat="40.33093018320966" lon="18.343852151981576"><ele>13.0</ele><time>2026-04-06T05:49:50.001Z</time></trkpt><trkpt lat="40.33079305226671" lon="18.34368936967885"><ele>13.0</ele><time>2026-04-06T05:49:51.001Z</time></trkpt><trkpt lat="40.33065988957627" lon="18.343538238826724"><ele>13.0</ele><time>2026-04-06T05:49:52.001Z</time></trkpt><trkpt lat="40.33052925345519" lon="18.34338421413133"><ele>13.0</ele><time>2026-04-06T05:49:53.001Z</time></trkpt><trkpt lat="40.33040115182029" lon="18.343222568071745"><ele>13.333333333333332</ele><time>2026-04-06T05:49:54.001Z</time></trkpt><trkpt lat="40.330285126858406" lon="18.34305144617716"><ele>13.666666666666668</ele><time>2026-04-06T05:49:55.001Z</time></trkpt><trkpt lat="40.33018804020294" lon="18.34286369903202"><ele>14.0</ele><time>2026-04-06T05:49:56.001Z</time></trkpt><trkpt lat="40.330100560380544" lon="18.342659986676356"><ele>14.0</ele><time>2026-04-06T05:49:57.001Z</time></trkpt><trkpt lat="40.33002503435943" lon="18.34244128488004"><ele>14.0</ele><time>2026-04-06T05:49:58.001Z</time></trkpt><trkpt lat="40.32996352090098" lon="18.34220299690935"><ele>14.0</ele><time>2026-04-06T05:49:59.001Z</time></trkpt><trkpt lat="40.32990815399342" lon="18.341959490416734"><ele>14.0</ele><time>2026-04-06T05:50:00.001Z</time></trkpt><trkpt lat="40.32985485205729" lon="18.341697500823823"><ele>14.0</ele><time>2026-04-06T05:50:01.001Z</time></trkpt><trkpt lat="40.329791943569965" lon="18.34143077997995"><ele>14.0</ele><time>2026-04-06T05:50:02.001Z</time></trkpt><trkpt lat="40.32973185028669" lon="18.34115767083582"><ele>13.0</ele><time>2026-04-06T05:50:03.001Z</time></trkpt><trkpt lat="40.329669498035315" lon="18.340870183556913"><ele>12.0</ele><time>2026-04-06T05:50:04.001Z</time></trkpt><trkpt lat="40.32959757770047" lon="18.340574650491675"><ele>13.0</ele><time>2026-04-06T05:50:05.001Z</time></trkpt><trkpt lat="40.32952454252475" lon="18.340278608841835"><ele>14.0</ele><time>2026-04-06T05:50:06.001Z</time></trkpt><trkpt lat="40.32945422631094" lon="18.339989838546042"><ele>14.0</ele><time>2026-04-06T05:50:07.001Z</time></trkpt><trkpt lat="40.329381975028575" lon="18.33972438625843"><ele>14.0</ele><time>2026-04-06T05:50:08.001Z</time></trkpt><trkpt lat="40.32931591722905" lon="18.33945598666003"><ele>14.0</ele><time>2026-04-06T05:50:09.001Z</time></trkpt><trkpt lat="40.32926081788665" lon="18.339193533916838"><ele>14.333333333333334</ele><time>2026-04-06T05:50:10.001Z</time></trkpt><trkpt lat="40.32920944128831" lon="18.33893277997729"><ele>14.666666666666668</ele><time>2026-04-06T05:50:11.001Z</time></trkpt><trkpt lat="40.329158844972696" lon="18.338677199667675"><ele>15.0</ele><time>2026-04-06T05:50:12.001Z</time></trkpt><trkpt lat="40.32911823279045" lon="18.33844778667487"><ele>15.666666666666668</ele><time>2026-04-06T05:50:13.001Z</time></trkpt><trkpt lat="40.32908238807972" lon="18.33823879239841"><ele>16.333333333333336</ele><time>2026-04-06T05:50:14.001Z</time></trkpt><trkpt lat="40.32904756708869" lon="18.338042264200904"><ele>17.0</ele><time>2026-04-06T05:50:15.001Z</time></trkpt><trkpt lat="40.32901236136409" lon="18.337854108338348"><ele>17.0</ele><time>2026-04-06T05:50:16.001Z</time></trkpt><trkpt lat="40.3289872278015" lon="18.337683611816434"><ele>17.0</ele><time>2026-04-06T05:50:17.001Z</time></trkpt><trkpt lat="40.328974815639135" lon="18.33753517741411"><ele>17.0</ele><time>2026-04-06T05:50:18.001Z</time></trkpt><trkpt lat="40.32896993372429" lon="18.33739356997115"><ele>17.0</ele><time>2026-04-06T05:50:19.001Z</time></trkpt><trkpt lat="40.32898508969432" lon="18.337269126436983"><ele>17.333333333333336</ele><time>2026-04-06T05:50:20.001Z</time></trkpt><trkpt lat="40.32902218167008" lon="18.33715498654305"><ele>17.666666666666668</ele><time>2026-04-06T05:50:21.001Z</time></trkpt><trkpt lat="40.32907381270655" lon="18.337056411943507"><ele>18.0</ele><time>2026-04-06T05:50:22.001Z</time></trkpt><trkpt lat="40.32911481198618" lon="18.336961675772486"><ele>18.333333333333332</ele><time>2026-04-06T05:50:23.001Z</time></trkpt><trkpt lat="40.3291284710424" lon="18.336867362629093"><ele>18.666666666666664</ele><time>2026-04-06T05:50:24.001Z</time></trkpt><trkpt lat="40.32911809848536" lon="18.3367755444237"><ele>19.0</ele><time>2026-04-06T05:50:25.001Z</time></trkpt><trkpt lat="40.32908080901496" lon="18.336693270443714"><ele>19.0</ele><time>2026-04-06T05:50:26.002Z</time></trkpt><trkpt lat="40.32901758760096" lon="18.336631430766733"><ele>19.0</ele><time>2026-04-06T05:50:27.002Z</time></trkpt><trkpt lat="40.328934006170954" lon="18.336584633585776"><ele>19.0</ele><time>2026-04-06T05:50:28.002Z</time></trkpt><trkpt lat="40.32883831041479" lon="18.3365373892472"><ele>19.0</ele><time>2026-04-06T05:50:29.002Z</time></trkpt><trkpt lat="40.32874401811413" lon="18.33645672631553"><ele>19.0</ele><time>2026-04-06T05:50:30.002Z</time></trkpt><trkpt lat="40.32865893071298" lon="18.336340326685782"><ele>18.666666666666664</ele><time>2026-04-06T05:50:31.002Z</time></trkpt><trkpt lat="40.32858319490684" lon="18.336190578686406"><ele>18.333333333333332</ele><time>2026-04-06T05:50:32.002Z</time></trkpt><trkpt lat="40.32851912251974" lon="18.3360085154608"><ele>18.0</ele><time>2026-04-06T05:50:33.002Z</time></trkpt><trkpt lat="40.328459872624045" lon="18.335798097601607"><ele>18.0</ele><time>2026-04-06T05:50:34.002Z</time></trkpt><trkpt lat="40.32840828348527" lon="18.335566733388855"><ele>18.0</ele><time>2026-04-06T05:50:35.002Z</time></trkpt><trkpt lat="40.32835839714412" lon="18.335342038670845"><ele>18.0</ele><time>2026-04-06T05:50:36.002Z</time></trkpt><trkpt lat="40.328299391114925" lon="18.335096947118306"><ele>18.0</ele><time>2026-04-06T05:50:37Z</time></trkpt><trkpt lat="40.32823363898738" lon="18.33485658650988"><ele>18.0</ele><time>2026-04-06T05:50:38Z</time></trkpt><trkpt lat="40.328150937894364" lon="18.3346251506583"><ele>18.0</ele><time>2026-04-06T05:50:39Z</time></trkpt><trkpt lat="40.32805340675875" lon="18.334401185041155"><ele>18.0</ele><time>2026-04-06T05:50:40Z</time></trkpt><trkpt lat="40.327938505668484" lon="18.33417277419982"><ele>18.0</ele><time>2026-04-06T05:50:41Z</time></trkpt><trkpt lat="40.327803948435964" lon="18.333943674025893"><ele>18.0</ele><time>2026-04-06T05:50:42Z</time></trkpt><trkpt lat="40.32765925524947" lon="18.33372617745778"><ele>17.666666666666668</ele><time>2026-04-06T05:50:43Z</time></trkpt><trkpt lat="40.32751231662702" lon="18.333504772184565"><ele>17.333333333333336</ele><time>2026-04-06T05:50:44Z</time></trkpt><trkpt lat="40.32736527254577" lon="18.333282897770314"><ele>17.0</ele><time>2026-04-06T05:50:45Z</time></trkpt><trkpt lat="40.32722160427905" lon="18.33305383391154"><ele>15.0</ele><time>2026-04-06T05:50:46Z</time></trkpt><trkpt lat="40.32707740218589" lon="18.33282862535151"><ele>13.0</ele><time>2026-04-06T05:50:47Z</time></trkpt><trkpt lat="40.32693772693165" lon="18.332588690229663"><ele>13.0</ele><time>2026-04-06T05:50:48Z</time></trkpt><trkpt lat="40.32679451567292" lon="18.332353206574496"><ele>13.0</ele><time>2026-04-06T05:50:49Z</time></trkpt><trkpt lat="40.32664649054854" lon="18.332119774816558"><ele>12.5</ele><time>2026-04-06T05:50:50Z</time></trkpt><trkpt lat="40.32649498851715" lon="18.331886550326434"><ele>12.0</ele><time>2026-04-06T05:50:51Z</time></trkpt><trkpt lat="40.32634123502745" lon="18.331649699948233"><ele>12.0</ele><time>2026-04-06T05:50:52Z</time></trkpt><trkpt lat="40.326200397410325" lon="18.331414858088788"><ele>12.0</ele><time>2026-04-06T05:50:53Z</time></trkpt><trkpt lat="40.32604888732197" lon="18.33118404469353"><ele>14.5</ele><time>2026-04-06T05:50:54Z</time></trkpt><trkpt lat="40.32589895208883" lon="18.3309504160968"><ele>17.0</ele><time>2026-04-06T05:50:55Z</time></trkpt><trkpt lat="40.32575187524727" lon="18.330710427442433"><ele>18.0</ele><time>2026-04-06T05:50:56Z</time></trkpt><trkpt lat="40.3256043805572" lon="18.330471883290517"><ele>19.0</ele><time>2026-04-06T05:50:57Z</time></trkpt><trkpt lat="40.32548098635798" lon="18.330207743977144"><ele>19.0</ele><time>2026-04-06T05:50:58Z</time></trkpt><trkpt lat="40.32533284461552" lon="18.3299706675381"><ele>19.0</ele><time>2026-04-06T05:50:59Z</time></trkpt><trkpt lat="40.32518857743608" lon="18.32973821721481"><ele>18.0</ele><time>2026-04-06T05:51:00Z</time></trkpt><trkpt lat="40.325044997603854" lon="18.32950687434191"><ele>17.0</ele><time>2026-04-06T05:51:01Z</time></trkpt><trkpt lat="40.3249001738375" lon="18.32927527249811"><ele>17.0</ele><time>2026-04-06T05:51:02Z</time></trkpt><trkpt lat="40.32475270208863" lon="18.329044994543924"><ele>17.0</ele><time>2026-04-06T05:51:03Z</time></trkpt><trkpt lat="40.324604965158876" lon="18.32881730123095"><ele>18.5</ele><time>2026-04-06T05:51:04Z</time></trkpt><trkpt lat="40.32445045205192" lon="18.328589287626563"><ele>20.0</ele><time>2026-04-06T05:51:05Z</time></trkpt><trkpt lat="40.3242895826387" lon="18.328365581104066"><ele>20.0</ele><time>2026-04-06T05:51:06Z</time></trkpt><trkpt lat="40.32413049410466" lon="18.328140029312408"><ele>20.0</ele><time>2026-04-06T05:51:07Z</time></trkpt><trkpt lat="40.323969598340426" lon="18.32791191523183"><ele>20.0</ele><time>2026-04-06T05:51:08.001Z</time></trkpt><trkpt lat="40.32381399195593" lon="18.327691300294735"><ele>20.0</ele><time>2026-04-06T05:51:09.001Z</time></trkpt><trkpt lat="40.323645267363766" lon="18.32748377366405"><ele>20.0</ele><time>2026-04-06T05:51:10.001Z</time></trkpt><trkpt lat="40.3234898336726" lon="18.327257387949892"><ele>20.0</ele><time>2026-04-06T05:51:11.001Z</time></trkpt><trkpt lat="40.323328389906855" lon="18.327031083287526"><ele>21.0</ele><time>2026-04-06T05:51:12.001Z</time></trkpt><trkpt lat="40.32317440467459" lon="18.326805443940014"><ele>22.0</ele><time>2026-04-06T05:51:13.001Z</time></trkpt><trkpt lat="40.32302746364414" lon="18.326590582283718"><ele>22.666666666666664</ele><time>2026-04-06T05:51:14.001Z</time></trkpt><trkpt lat="40.32288307368325" lon="18.326384067882792"><ele>23.333333333333332</ele><time>2026-04-06T05:51:15.001Z</time></trkpt><trkpt lat="40.32275276972392" lon="18.326190351767856"><ele>24.0</ele><time>2026-04-06T05:51:16.001Z</time></trkpt><trkpt lat="40.32263864759682" lon="18.3260134163052"><ele>24.0</ele><time>2026-04-06T05:51:17.001Z</time></trkpt><trkpt lat="40.32252049205427" lon="18.32584988390068"><ele>24.0</ele><time>2026-04-06T05:51:18.001Z</time></trkpt><trkpt lat="40.32241263851714" lon="18.325680187684494"><ele>24.0</ele><time>2026-04-06T05:51:19.001Z</time></trkpt><trkpt lat="40.32231673444902" lon="18.325497650152855"><ele>24.333333333333336</ele><time>2026-04-06T05:51:20.001Z</time></trkpt><trkpt lat="40.322241579885315" lon="18.325300168412543"><ele>24.666666666666668</ele><time>2026-04-06T05:51:21.001Z</time></trkpt><trkpt lat="40.32218297420602" lon="18.325100467730916"><ele>25.0</ele><time>2026-04-06T05:51:22.001Z</time></trkpt><trkpt lat="40.3221370550452" lon="18.32489034089678"><ele>25.333333333333336</ele><time>2026-04-06T05:51:23.001Z</time></trkpt><trkpt lat="40.32210211012319" lon="18.324670441866434"><ele>25.666666666666664</ele><time>2026-04-06T05:51:24.001Z</time></trkpt><trkpt lat="40.32208256916045" lon="18.32444329916966"><ele>26.0</ele><time>2026-04-06T05:51:25.001Z</time></trkpt><trkpt lat="40.3220854718129" lon="18.32420044504684"><ele>26.0</ele><time>2026-04-06T05:51:26.001Z</time></trkpt><trkpt lat="40.322104435313626" lon="18.32395438301817"><ele>26.0</ele><time>2026-04-06T05:51:27.001Z</time></trkpt><trkpt lat="40.32214443987123" lon="18.323697846570422"><ele>26.0</ele><time>2026-04-06T05:51:28.001Z</time></trkpt><trkpt lat="40.32218121162112" lon="18.32343976972087"><ele>26.0</ele><time>2026-04-06T05:51:29.001Z</time></trkpt><trkpt lat="40.32221830467804" lon="18.323178423193184"><ele>26.0</ele><time>2026-04-06T05:51:30.001Z</time></trkpt><trkpt lat="40.32224945341229" lon="18.322935223546462"><ele>26.0</ele><time>2026-04-06T05:51:31.001Z</time></trkpt><trkpt lat="40.32227895329868" lon="18.322706481496436"><ele>25.75</ele><time>2026-04-06T05:51:32.001Z</time></trkpt><trkpt lat="40.32230748538485" lon="18.322490321693483"><ele>25.5</ele><time>2026-04-06T05:51:33.001Z</time></trkpt><trkpt lat="40.322332071433834" lon="18.322301860070695"><ele>25.25</ele><time>2026-04-06T05:51:34.001Z</time></trkpt><trkpt lat="40.32235295061958" lon="18.322128243438524"><ele>25.0</ele><time>2026-04-06T05:51:35.001Z</time></trkpt><trkpt lat="40.322369624343665" lon="18.321975990444507"><ele>25.6</ele><time>2026-04-06T05:51:36.001Z</time></trkpt><trkpt lat="40.322388958725284" lon="18.321826153230923"><ele>26.2</ele><time>2026-04-06T05:51:37.001Z</time></trkpt><trkpt lat="40.322402793379574" lon="18.32168699592351"><ele>26.799999999999997</ele><time>2026-04-06T05:51:38.001Z</time></trkpt><trkpt lat="40.322420632719506" lon="18.321546666372168"><ele>27.4</ele><time>2026-04-06T05:51:39.001Z</time></trkpt><trkpt lat="40.32243556523634" lon="18.321410930943962"><ele>28.0</ele><time>2026-04-06T05:51:40.001Z</time></trkpt><trkpt lat="40.32245276046323" lon="18.321281580979207"><ele>28.4</ele><time>2026-04-06T05:51:41.001Z</time></trkpt><trkpt lat="40.322475349935445" lon="18.32115461005568"><ele>28.799999999999997</ele><time>2026-04-06T05:51:42.001Z</time></trkpt><trkpt lat="40.32249732754771" lon="18.32102140997562"><ele>29.2</ele><time>2026-04-06T05:51:43.001Z</time></trkpt><trkpt lat="40.32251633995229" lon="18.320885074112205"><ele>29.6</ele><time>2026-04-06T05:51:44.001Z</time></trkpt><trkpt lat="40.322532823907636" lon="18.320749812448632"><ele>30.0</ele><time>2026-04-06T05:51:45.001Z</time></trkpt><trkpt lat="40.32253964906709" lon="18.320614980995764"><ele>30.5</ele><time>2026-04-06T05:51:46.001Z</time></trkpt><trkpt lat="40.32252062478037" lon="18.320493493734677"><ele>31.0</ele><time>2026-04-06T05:51:47.001Z</time></trkpt><trkpt lat="40.32251701292799" lon="18.320392361518437"><ele>31.5</ele><time>2026-04-06T05:51:48.001Z</time></trkpt><trkpt lat="40.32252537909584" lon="18.320289235148476"><ele>32.0</ele><time>2026-04-06T05:51:49.001Z</time></trkpt><trkpt lat="40.32251261377473" lon="18.32017539055554"><ele>32.5</ele><time>2026-04-06T05:51:50.001Z</time></trkpt><trkpt lat="40.322502492521764" lon="18.32008879153795"><ele>33.0</ele><time>2026-04-06T05:51:51.001Z</time></trkpt><trkpt lat="40.322497992783155" lon="18.32000448843913"><ele>33.0</ele><time>2026-04-06T05:51:52.001Z</time></trkpt><trkpt lat="40.32250737067681" lon="18.319854646534736"><ele>33.0</ele><time>2026-04-06T05:51:54.001Z</time></trkpt><trkpt lat="40.3225923503432" lon="18.319810521982248"><ele>33.0</ele><time>2026-04-06T05:51:56.001Z</time></trkpt><trkpt lat="40.32265192695782" lon="18.3197471871311"><ele>33.0</ele><time>2026-04-06T05:51:58.001Z</time></trkpt><trkpt lat="40.32277749913102" lon="18.319849460386337"><ele>33.0</ele><time>2026-04-06T05:51:59.001Z</time></trkpt><trkpt lat="40.32286943032954" lon="18.319855454937223"><ele>33.0</ele><time>2026-04-06T05:52:00.001Z</time></trkpt><trkpt lat="40.32298274569539" lon="18.31986195348438"><ele>33.0</ele><time>2026-04-06T05:52:01.001Z</time></trkpt><trkpt lat="40.32309217081189" lon="18.319861848334593"><ele>33.0</ele><time>2026-04-06T05:52:02.001Z</time></trkpt><trkpt lat="40.32319930215509" lon="18.31983856253607"><ele>33.0</ele><time>2026-04-06T05:52:03.001Z</time></trkpt><trkpt lat="40.323300631057606" lon="18.319844864449593"><ele>33.0</ele><time>2026-04-06T05:52:04.001Z</time></trkpt><trkpt lat="40.323399727365974" lon="18.319825708927"><ele>32.6</ele><time>2026-04-06T05:52:05.001Z</time></trkpt><trkpt lat="40.32349518756087" lon="18.31980216667574"><ele>32.199999999999996</ele><time>2026-04-06T05:52:06.001Z</time></trkpt><trkpt lat="40.32358624997547" lon="18.319779709046927"><ele>31.8</ele><time>2026-04-06T05:52:07.001Z</time></trkpt><trkpt lat="40.32367676426721" lon="18.319757386778193"><ele>31.4</ele><time>2026-04-06T05:52:08.001Z</time></trkpt><trkpt lat="40.32376278927933" lon="18.319702779483922"><ele>31.0</ele><time>2026-04-06T05:52:09.001Z</time></trkpt><trkpt lat="40.323847996174926" lon="18.319647820561595"><ele>30.8</ele><time>2026-04-06T05:52:10.001Z</time></trkpt><trkpt lat="40.32393321917902" lon="18.319565554439006"><ele>30.6</ele><time>2026-04-06T05:52:11.001Z</time></trkpt><trkpt lat="40.32401832600282" lon="18.31948002033372"><ele>30.4</ele><time>2026-04-06T05:52:12.001Z</time></trkpt><trkpt lat="40.32411162676641" lon="18.31939196905406"><ele>30.2</ele><time>2026-04-06T05:52:13.001Z</time></trkpt><trkpt lat="40.324204164058735" lon="18.319300262125832"><ele>30.0</ele><time>2026-04-06T05:52:14.001Z</time></trkpt><trkpt lat="40.32429103569009" lon="18.31920462423255"><ele>30.0</ele><time>2026-04-06T05:52:15.001Z</time></trkpt><trkpt lat="40.324389178435815" lon="18.319120140257095"><ele>30.0</ele><time>2026-04-06T05:52:16.001Z</time></trkpt><trkpt lat="40.324486801848636" lon="18.319020915754663"><ele>30.0</ele><time>2026-04-06T05:52:17.001Z</time></trkpt><trkpt lat="40.32459413401393" lon="18.318921642397818"><ele>30.0</ele><time>2026-04-06T05:52:18.001Z</time></trkpt><trkpt lat="40.324693952109094" lon="18.318811158905596"><ele>29.25</ele><time>2026-04-06T05:52:19.001Z</time></trkpt><trkpt lat="40.324788066952834" lon="18.31869475761533"><ele>28.5</ele><time>2026-04-06T05:52:20.001Z</time></trkpt><trkpt lat="40.32487261814714" lon="18.31857851920239"><ele>27.75</ele><time>2026-04-06T05:52:21.001Z</time></trkpt><trkpt lat="40.32495798629201" lon="18.31845494282383"><ele>27.0</ele><time>2026-04-06T05:52:22.001Z</time></trkpt><trkpt lat="40.32502803190632" lon="18.318331484184743"><ele>27.0</ele><time>2026-04-06T05:52:23.001Z</time></trkpt><trkpt lat="40.32509422613668" lon="18.318186342475723"><ele>27.0</ele><time>2026-04-06T05:52:24.001Z</time></trkpt><trkpt lat="40.32517454843496" lon="18.31803100972358"><ele>27.0</ele><time>2026-04-06T05:52:25.001Z</time></trkpt><trkpt lat="40.32525772725685" lon="18.317856571377465"><ele>27.0</ele><time>2026-04-06T05:52:26.001Z</time></trkpt><trkpt lat="40.32534473060203" lon="18.3176791317228"><ele>27.0</ele><time>2026-04-06T05:52:27.001Z</time></trkpt><trkpt lat="40.325423868672196" lon="18.31751558677069"><ele>27.0</ele><time>2026-04-06T05:52:28.001Z</time></trkpt><trkpt lat="40.32550970432033" lon="18.317347606191888"><ele>27.0</ele><time>2026-04-06T05:52:29.001Z</time></trkpt><trkpt lat="40.325596079273524" lon="18.3171787784004"><ele>27.333333333333336</ele><time>2026-04-06T05:52:30.001Z</time></trkpt><trkpt lat="40.32568833377146" lon="18.316997202515708"><ele>27.666666666666668</ele><time>2026-04-06T05:52:31.001Z</time></trkpt><trkpt lat="40.32578768018108" lon="18.316814055960887"><ele>28.0</ele><time>2026-04-06T05:52:32.002Z</time></trkpt><trkpt lat="40.32588272871275" lon="18.316626990290985"><ele>28.0</ele><time>2026-04-06T05:52:33.002Z</time></trkpt><trkpt lat="40.325981260783365" lon="18.316430584649947"><ele>28.0</ele><time>2026-04-06T05:52:34.002Z</time></trkpt><trkpt lat="40.32606509393243" lon="18.316242949949913"><ele>28.0</ele><time>2026-04-06T05:52:35.002Z</time></trkpt><trkpt lat="40.32615930602487" lon="18.316065789205034"><ele>28.0</ele><time>2026-04-06T05:52:36.002Z</time></trkpt><trkpt lat="40.326249495026275" lon="18.315882059504165"><ele>28.0</ele><time>2026-04-06T05:52:37.002Z</time></trkpt><trkpt lat="40.326342292367336" lon="18.315678637719948"><ele>28.0</ele><time>2026-04-06T05:52:38.002Z</time></trkpt><trkpt lat="40.32641169269909" lon="18.315449664390222"><ele>28.0</ele><time>2026-04-06T05:52:39.002Z</time></trkpt><trkpt lat="40.326469029796506" lon="18.315196892933784"><ele>28.0</ele><time>2026-04-06T05:52:40.002Z</time></trkpt><trkpt lat="40.326502423977026" lon="18.314921225140985"><ele>28.0</ele><time>2026-04-06T05:52:41.002Z</time></trkpt><trkpt lat="40.326560362562475" lon="18.314655383507088"><ele>28.0</ele><time>2026-04-06T05:52:42.002Z</time></trkpt><trkpt lat="40.32659133922542" lon="18.314401938812683"><ele>28.0</ele><time>2026-04-06T05:52:43Z</time></trkpt><trkpt lat="40.32662543402977" lon="18.31416306227681"><ele>28.0</ele><time>2026-04-06T05:52:44Z</time></trkpt><trkpt lat="40.326669376579346" lon="18.313926001911707"><ele>28.333333333333336</ele><time>2026-04-06T05:52:45Z</time></trkpt><trkpt lat="40.32671387124713" lon="18.313692571724488"><ele>28.666666666666664</ele><time>2026-04-06T05:52:46Z</time></trkpt><trkpt lat="40.32674873064256" lon="18.313455398669372"><ele>29.0</ele><time>2026-04-06T05:52:47Z</time></trkpt><trkpt lat="40.32677882330262" lon="18.313222414512794"><ele>29.0</ele><time>2026-04-06T05:52:48Z</time></trkpt><trkpt lat="40.32682135000185" lon="18.312990860144808"><ele>29.0</ele><time>2026-04-06T05:52:49Z</time></trkpt><trkpt lat="40.32685821423742" lon="18.312771344715618"><ele>29.0</ele><time>2026-04-06T05:52:50Z</time></trkpt><trkpt lat="40.326899614231166" lon="18.312545922604947"><ele>29.0</ele><time>2026-04-06T05:52:51Z</time></trkpt><trkpt lat="40.32694536228649" lon="18.31232566781395"><ele>29.0</ele><time>2026-04-06T05:52:52Z</time></trkpt><trkpt lat="40.32701626261683" lon="18.312128766469176"><ele>29.0</ele><time>2026-04-06T05:52:53Z</time></trkpt><trkpt lat="40.32709479144821" lon="18.311919969522062"><ele>28.666666666666664</ele><time>2026-04-06T05:52:54Z</time></trkpt><trkpt lat="40.3271883534206" lon="18.311715793871986"><ele>28.333333333333336</ele><time>2026-04-06T05:52:55Z</time></trkpt><trkpt lat="40.32728513032933" lon="18.31151619320797"><ele>28.0</ele><time>2026-04-06T05:52:56Z</time></trkpt><trkpt lat="40.32738428239194" lon="18.311319334083024"><ele>29.333333333333336</ele><time>2026-04-06T05:52:57Z</time></trkpt><trkpt lat="40.32748981744357" lon="18.311111896058822"><ele>30.666666666666664</ele><time>2026-04-06T05:52:58Z</time></trkpt><trkpt lat="40.32759732600895" lon="18.310900577728557"><ele>32.0</ele><time>2026-04-06T05:52:59Z</time></trkpt><trkpt lat="40.327694212385865" lon="18.310664855527104"><ele>31.666666666666664</ele><time>2026-04-06T05:53:00Z</time></trkpt><trkpt lat="40.327801749054686" lon="18.310447952506642"><ele>31.333333333333336</ele><time>2026-04-06T05:53:01Z</time></trkpt><trkpt lat="40.327902889841184" lon="18.31025504987616"><ele>31.0</ele><time>2026-04-06T05:53:02Z</time></trkpt><trkpt lat="40.327989989642575" lon="18.310072827641996"><ele>30.333333333333336</ele><time>2026-04-06T05:53:03Z</time></trkpt><trkpt lat="40.32808324433613" lon="18.309906345096238"><ele>29.666666666666664</ele><time>2026-04-06T05:53:04Z</time></trkpt><trkpt lat="40.328174229605025" lon="18.30973865662116"><ele>29.0</ele><time>2026-04-06T05:53:05Z</time></trkpt><trkpt lat="40.32825628890484" lon="18.30956908370074"><ele>28.666666666666664</ele><time>2026-04-06T05:53:06Z</time></trkpt><trkpt lat="40.328324439700644" lon="18.30937232884557"><ele>28.333333333333336</ele><time>2026-04-06T05:53:07Z</time></trkpt><trkpt lat="40.32837777490482" lon="18.309154837002108"><ele>28.0</ele><time>2026-04-06T05:53:08Z</time></trkpt><trkpt lat="40.328437077337384" lon="18.308929358615554"><ele>28.333333333333336</ele><time>2026-04-06T05:53:09Z</time></trkpt><trkpt lat="40.32849704336166" lon="18.30869079444891"><ele>28.666666666666664</ele><time>2026-04-06T05:53:10Z</time></trkpt><trkpt lat="40.328549469530415" lon="18.30842522683247"><ele>29.0</ele><time>2026-04-06T05:53:11Z</time></trkpt><trkpt lat="40.32861798230687" lon="18.308151723793383"><ele>29.5</ele><time>2026-04-06T05:53:12Z</time></trkpt><trkpt lat="40.3286960744822" lon="18.30786218302508"><ele>30.0</ele><time>2026-04-06T05:53:13Z</time></trkpt><trkpt lat="40.32875477822001" lon="18.30756951478946"><ele>30.0</ele><time>2026-04-06T05:53:14Z</time></trkpt><trkpt lat="40.328824833733634" lon="18.307274298107856"><ele>30.0</ele><time>2026-04-06T05:53:15Z</time></trkpt><trkpt lat="40.32888500399686" lon="18.306982354973123"><ele>30.0</ele><time>2026-04-06T05:53:16Z</time></trkpt><trkpt lat="40.32895658672105" lon="18.30669122109621"><ele>30.0</ele><time>2026-04-06T05:53:17Z</time></trkpt><trkpt lat="40.32902457755302" lon="18.306432349110203"><ele>30.0</ele><time>2026-04-06T05:53:18Z</time></trkpt><trkpt lat="40.32908838770111" lon="18.306180809755027"><ele>30.333333333333336</ele><time>2026-04-06T05:53:19Z</time></trkpt><trkpt lat="40.32914440149747" lon="18.305946583552483"><ele>30.666666666666668</ele><time>2026-04-06T05:53:20Z</time></trkpt><trkpt lat="40.329194629279144" lon="18.305704399019493"><ele>31.0</ele><time>2026-04-06T05:53:21Z</time></trkpt><trkpt lat="40.32924780979947" lon="18.30546989209631"><ele>31.0</ele><time>2026-04-06T05:53:22Z</time></trkpt><trkpt lat="40.329278667308984" lon="18.305211235792278"><ele>31.0</ele><time>2026-04-06T05:53:23.001Z</time></trkpt><trkpt lat="40.329311653956054" lon="18.304940435284085"><ele>31.0</ele><time>2026-04-06T05:53:24.001Z</time></trkpt><trkpt lat="40.329327815640305" lon="18.30465114786222"><ele>31.0</ele><time>2026-04-06T05:53:25.001Z</time></trkpt><trkpt lat="40.3293200119997" lon="18.3043692234555"><ele>31.0</ele><time>2026-04-06T05:53:26.001Z</time></trkpt><trkpt lat="40.329303057980106" lon="18.30408928836436"><ele>31.0</ele><time>2026-04-06T05:53:27.001Z</time></trkpt><trkpt lat="40.32929854936642" lon="18.303815195010138"><ele>31.333333333333336</ele><time>2026-04-06T05:53:28.001Z</time></trkpt><trkpt lat="40.32930705335926" lon="18.303552034770142"><ele>31.666666666666664</ele><time>2026-04-06T05:53:29.001Z</time></trkpt><trkpt lat="40.329309622590756" lon="18.303313827698272"><ele>32.0</ele><time>2026-04-06T05:53:30.001Z</time></trkpt><trkpt lat="40.32931861473435" lon="18.303103096021477"><ele>32.33333333333333</ele><time>2026-04-06T05:53:31.001Z</time></trkpt><trkpt lat="40.32933212051011" lon="18.30291539375773"><ele>32.666666666666664</ele><time>2026-04-06T05:53:32.001Z</time></trkpt><trkpt lat="40.32938476669009" lon="18.302713685027914"><ele>33.0</ele><time>2026-04-06T05:53:33.001Z</time></trkpt><trkpt lat="40.32941601098989" lon="18.302508569025424"><ele>33.0</ele><time>2026-04-06T05:53:34.001Z</time></trkpt><trkpt lat="40.32947436644926" lon="18.302312694277546"><ele>33.0</ele><time>2026-04-06T05:53:35.001Z</time></trkpt><trkpt lat="40.32955610436073" lon="18.302126791784495"><ele>33.0</ele><time>2026-04-06T05:53:36.001Z</time></trkpt><trkpt lat="40.329644365761574" lon="18.301927648122764"><ele>33.0</ele><time>2026-04-06T05:53:37.001Z</time></trkpt><trkpt lat="40.32974601416796" lon="18.301734985543806"><ele>33.0</ele><time>2026-04-06T05:53:38.001Z</time></trkpt><trkpt lat="40.32985678967267" lon="18.30152973128729"><ele>33.0</ele><time>2026-04-06T05:53:39.001Z</time></trkpt><trkpt lat="40.32998243557627" lon="18.301297058308737"><ele>33.0</ele><time>2026-04-06T05:53:40.001Z</time></trkpt><trkpt lat="40.33009232967854" lon="18.301058012721008"><ele>33.0</ele><time>2026-04-06T05:53:41.001Z</time></trkpt><trkpt lat="40.33022633443622" lon="18.30081797807864"><ele>33.0</ele><time>2026-04-06T05:53:42.001Z</time></trkpt><trkpt lat="40.3303604891879" lon="18.300579063437215"><ele>33.0</ele><time>2026-04-06T05:53:43.001Z</time></trkpt><trkpt lat="40.330491568412306" lon="18.300322674911598"><ele>33.0</ele><time>2026-04-06T05:53:44.001Z</time></trkpt><trkpt lat="40.33062354763931" lon="18.300078347594233"><ele>33.0</ele><time>2026-04-06T05:53:45.001Z</time></trkpt><trkpt lat="40.33075269393892" lon="18.29983946687731"><ele>33.0</ele><time>2026-04-06T05:53:46.001Z</time></trkpt><trkpt lat="40.33088197331382" lon="18.29959848736728"><ele>33.0</ele><time>2026-04-06T05:53:47.001Z</time></trkpt><trkpt lat="40.33100366316858" lon="18.29936143864106"><ele>33.333333333333336</ele><time>2026-04-06T05:53:48.001Z</time></trkpt><trkpt lat="40.33111790506286" lon="18.299146609484524"><ele>33.66666666666667</ele><time>2026-04-06T05:53:49.001Z</time></trkpt><trkpt lat="40.33122084812485" lon="18.29895534244644"><ele>34.0</ele><time>2026-04-06T05:53:50.001Z</time></trkpt><trkpt lat="40.33132294472351" lon="18.298773441288905"><ele>34.0</ele><time>2026-04-06T05:53:51.001Z</time></trkpt><trkpt lat="40.33141705543247" lon="18.298598732130294"><ele>34.0</ele><time>2026-04-06T05:53:52.001Z</time></trkpt><trkpt lat="40.33150636931475" lon="18.298434183281824"><ele>34.0</ele><time>2026-04-06T05:53:53.001Z</time></trkpt><trkpt lat="40.3315891686415" lon="18.298277041796688"><ele>34.0</ele><time>2026-04-06T05:53:54.001Z</time></trkpt><trkpt lat="40.33166873986266" lon="18.29812766535381"><ele>34.0</ele><time>2026-04-06T05:53:55.001Z</time></trkpt><trkpt lat="40.33174662137724" lon="18.297986777563647"><ele>34.0</ele><time>2026-04-06T05:53:56.001Z</time></trkpt><trkpt lat="40.33181792154805" lon="18.297851058268442"><ele>34.0</ele><time>2026-04-06T05:53:57.001Z</time></trkpt><trkpt lat="40.331885258017415" lon="18.297726169326644"><ele>34.0</ele><time>2026-04-06T05:53:58.001Z</time></trkpt><trkpt lat="40.331942958616175" lon="18.29761547419134"><ele>34.0</ele><time>2026-04-06T05:53:59.001Z</time></trkpt><trkpt lat="40.33199879623759" lon="18.297515145577563"><ele>34.0</ele><time>2026-04-06T05:54:00.001Z</time></trkpt><trkpt lat="40.33203418192508" lon="18.297446340480928"><ele>34.0</ele><time>2026-04-06T05:54:01.001Z</time></trkpt><trkpt lat="40.332115698702836" lon="18.29734739078888"><ele>34.0</ele><time>2026-04-06T05:54:03.001Z</time></trkpt><trkpt lat="40.33222257551491" lon="18.297294577200468"><ele>34.25</ele><time>2026-04-06T05:54:05.001Z</time></trkpt><trkpt lat="40.33233601950315" lon="18.297275294063844"><ele>34.5</ele><time>2026-04-06T05:54:07.001Z</time></trkpt><trkpt lat="40.332463013423926" lon="18.2972592428049"><ele>34.75</ele><time>2026-04-06T05:54:09.001Z</time></trkpt><trkpt lat="40.33257457703825" lon="18.29720352893327"><ele>35.0</ele><time>2026-04-06T05:54:11.001Z</time></trkpt><trkpt lat="40.33267626143357" lon="18.297127937768437"><ele>35.0</ele><time>2026-04-06T05:54:13.001Z</time></trkpt><trkpt lat="40.33277628223353" lon="18.29707593380499"><ele>35.0</ele><time>2026-04-06T05:54:15.001Z</time></trkpt><trkpt lat="40.33287876251959" lon="18.297054772193356"><ele>35.0</ele><time>2026-04-06T05:54:17.001Z</time></trkpt><trkpt lat="40.3329543899919" lon="18.297049701745113"><ele>35.0</ele><time>2026-04-06T05:54:19.001Z</time></trkpt><trkpt lat="40.33301981666863" lon="18.297048516039872"><ele>35.0</ele><time>2026-04-06T05:54:22.001Z</time></trkpt><trkpt lat="40.333107290784795" lon="18.297048736590803"><ele>35.0</ele><time>2026-04-06T05:54:26.001Z</time></trkpt><trkpt lat="40.33317103520172" lon="18.297071607966643"><ele>34.83333333333333</ele><time>2026-04-06T05:54:30.001Z</time></trkpt><trkpt lat="40.33325267898576" lon="18.297074892681916"><ele>34.666666666666664</ele><time>2026-04-06T06:00:42Z</time></trkpt><trkpt lat="40.33333304945364" lon="18.29703920470427"><ele>34.5</ele><time>2026-04-06T06:00:44Z</time></trkpt><trkpt lat="40.333414185210735" lon="18.297027750285682"><ele>34.333333333333336</ele><time>2026-04-06T06:00:48Z</time></trkpt><trkpt lat="40.333477693461006" lon="18.297029830422318"><ele>34.16666666666667</ele><time>2026-04-06T06:00:52Z</time></trkpt><trkpt lat="40.33355694301949" lon="18.297156104581777"><ele>34.0</ele><time>2026-04-06T06:00:56Z</time></trkpt><trkpt lat="40.3335634292421" lon="18.297319957176594"><ele>34.0</ele><time>2026-04-06T06:00:58.001Z</time></trkpt><trkpt lat="40.33358655855015" lon="18.297417645692096"><ele>34.0</ele><time>2026-04-06T06:00:59.001Z</time></trkpt><trkpt lat="40.3336282786723" lon="18.297557028701185"><ele>34.0</ele><time>2026-04-06T06:01:00.001Z</time></trkpt><trkpt lat="40.33364651200675" lon="18.297696102795065"><ele>34.0</ele><time>2026-04-06T06:01:01.001Z</time></trkpt><trkpt lat="40.333672404495324" lon="18.297831507627205"><ele>34.0</ele><time>2026-04-06T06:01:02.001Z</time></trkpt><trkpt lat="40.3337190086281" lon="18.297945332712022"><ele>34.0</ele><time>2026-04-06T06:01:03.001Z</time></trkpt><trkpt lat="40.33374761781053" lon="18.298043017746682"><ele>34.0</ele><time>2026-04-06T06:01:04.001Z</time></trkpt><trkpt lat="40.333753871584776" lon="18.298145783272705"><ele>34.0</ele><time>2026-04-06T06:01:05.001Z</time></trkpt><trkpt lat="40.33377936330038" lon="18.2982614114325"><ele>34.0</ele><time>2026-04-06T06:01:06.001Z</time></trkpt><trkpt lat="40.333805359341056" lon="18.298367244506792"><ele>34.0</ele><time>2026-04-06T06:01:07.001Z</time></trkpt><trkpt lat="40.333828213551065" lon="18.298467450066557"><ele>34.0</ele><time>2026-04-06T06:01:08.001Z</time></trkpt><trkpt lat="40.33385266104392" lon="18.29861140816877"><ele>34.25</ele><time>2026-04-06T06:01:10.001Z</time></trkpt><trkpt lat="40.33390494112118" lon="18.298721825740245"><ele>34.5</ele><time>2026-04-06T06:01:12.001Z</time></trkpt><trkpt lat="40.334130938359706" lon="18.298591381857147"><ele>34.75</ele><time>2026-04-06T06:01:15.001Z</time></trkpt><trkpt lat="40.3342262235398" lon="18.298563725149766"><ele>35.0</ele><time>2026-04-06T06:01:16.001Z</time></trkpt><trkpt lat="40.3343269532641" lon="18.298483844763364"><ele>35.0</ele><time>2026-04-06T06:01:17.001Z</time></trkpt><trkpt lat="40.33440632738252" lon="18.298448320895844"><ele>35.0</ele><time>2026-04-06T06:01:18.001Z</time></trkpt><trkpt lat="40.33451803225253" lon="18.298410849320565"><ele>35.0</ele><time>2026-04-06T06:01:19.001Z</time></trkpt><trkpt lat="40.334604283836924" lon="18.298382461657805"><ele>35.0</ele><time>2026-04-06T06:01:20.001Z</time></trkpt><trkpt lat="40.33469720144882" lon="18.298350900952055"><ele>35.0</ele><time>2026-04-06T06:01:21.001Z</time></trkpt><trkpt lat="40.33478617444361" lon="18.298314823285075"><ele>34.8</ele><time>2026-04-06T06:01:22.001Z</time></trkpt><trkpt lat="40.334848269890685" lon="18.298278324444617"><ele>34.6</ele><time>2026-04-06T06:01:23.001Z</time></trkpt><trkpt lat="40.33493614620061" lon="18.298243871640388"><ele>34.4</ele><time>2026-04-06T06:01:25.001Z</time></trkpt><trkpt lat="40.335034628428794" lon="18.29821024227358"><ele>34.2</ele><time>2026-04-06T06:01:27.001Z</time></trkpt><trkpt lat="40.33515531630468" lon="18.298206394860177"><ele>34.0</ele><time>2026-04-06T06:01:29.001Z</time></trkpt><trkpt lat="40.33520623576922" lon="18.29851761521879"><ele>34.0</ele><time>2026-04-06T06:01:30.001Z</time></trkpt><trkpt lat="40.33522594770288" lon="18.29862754827076"><ele>34.0</ele><time>2026-04-06T06:01:31.001Z</time></trkpt><trkpt lat="40.33531709368076" lon="18.298733280195098"><ele>34.0</ele><time>2026-04-06T06:01:32.001Z</time></trkpt><trkpt lat="40.335372155979954" lon="18.298805121737388"><ele>34.0</ele><time>2026-04-06T06:01:33.001Z</time></trkpt><trkpt lat="40.335411835729246" lon="18.29893266356866"><ele>34.0</ele><time>2026-04-06T06:01:34.001Z</time></trkpt><trkpt lat="40.33548418501764" lon="18.299025161060904"><ele>33.6</ele><time>2026-04-06T06:01:35.001Z</time></trkpt><trkpt lat="40.335568527244554" lon="18.299132991005557"><ele>33.2</ele><time>2026-04-06T06:01:36.001Z</time></trkpt><trkpt lat="40.33563422109101" lon="18.299216979883504"><ele>32.800000000000004</ele><time>2026-04-06T06:01:37.001Z</time></trkpt><trkpt lat="40.33569691943787" lon="18.29929661325326"><ele>32.4</ele><time>2026-04-06T06:01:38.001Z</time></trkpt><trkpt lat="40.33580247626039" lon="18.299430522030754"><ele>32.0</ele><time>2026-04-06T06:01:39.001Z</time></trkpt><trkpt lat="40.33590830455216" lon="18.299547868650652"><ele>32.0</ele><time>2026-04-06T06:01:40.001Z</time></trkpt><trkpt lat="40.33599661205256" lon="18.299662400171258"><ele>32.0</ele><time>2026-04-06T06:01:41.001Z</time></trkpt><trkpt lat="40.336081703460046" lon="18.29978122436782"><ele>32.0</ele><time>2026-04-06T06:01:42.001Z</time></trkpt><trkpt lat="40.33616885682499" lon="18.29989672315439"><ele>32.0</ele><time>2026-04-06T06:01:42.999Z</time></trkpt><trkpt lat="40.336283240622315" lon="18.30004254371557"><ele>31.666666666666664</ele><time>2026-04-06T06:01:43.999Z</time></trkpt><trkpt lat="40.336396137207515" lon="18.300191144223305"><ele>31.333333333333336</ele><time>2026-04-06T06:01:44.999Z</time></trkpt><trkpt lat="40.336500853000274" lon="18.300330682892795"><ele>31.0</ele><time>2026-04-06T06:01:45.999Z</time></trkpt><trkpt lat="40.33660006569046" lon="18.300476449806794"><ele>31.0</ele><time>2026-04-06T06:01:46.999Z</time></trkpt><trkpt lat="40.336701539936634" lon="18.300644908684056"><ele>31.0</ele><time>2026-04-06T06:01:47.999Z</time></trkpt><trkpt lat="40.33679128314412" lon="18.300832555129787"><ele>31.0</ele><time>2026-04-06T06:01:48.999Z</time></trkpt><trkpt lat="40.33688495924331" lon="18.30103457290063"><ele>31.0</ele><time>2026-04-06T06:01:49.999Z</time></trkpt><trkpt lat="40.33698241857545" lon="18.301251710569478"><ele>31.0</ele><time>2026-04-06T06:01:50.999Z</time></trkpt><trkpt lat="40.33708647183748" lon="18.30147885582861"><ele>31.0</ele><time>2026-04-06T06:01:51.999Z</time></trkpt><trkpt lat="40.33718330728989" lon="18.30170099152557"><ele>29.666666666666668</ele><time>2026-04-06T06:01:52.999Z</time></trkpt><trkpt lat="40.33728532894598" lon="18.301918641797467"><ele>28.333333333333336</ele><time>2026-04-06T06:01:54Z</time></trkpt><trkpt lat="40.33738655388604" lon="18.302159215568565"><ele>27.0</ele><time>2026-04-06T06:01:55Z</time></trkpt><trkpt lat="40.337490567586485" lon="18.302364190535226"><ele>27.0</ele><time>2026-04-06T06:01:56Z</time></trkpt><trkpt lat="40.33759062547245" lon="18.30256570445959"><ele>27.0</ele><time>2026-04-06T06:01:57Z</time></trkpt><trkpt lat="40.337692519333366" lon="18.302785156519402"><ele>27.0</ele><time>2026-04-06T06:01:58Z</time></trkpt><trkpt lat="40.33779126111412" lon="18.303001508217317"><ele>27.0</ele><time>2026-04-06T06:01:59Z</time></trkpt><trkpt lat="40.33789195154131" lon="18.30321641929062"><ele>27.0</ele><time>2026-04-06T06:02:00Z</time></trkpt><trkpt lat="40.337993426608094" lon="18.303425666118798"><ele>27.0</ele><time>2026-04-06T06:02:01Z</time></trkpt><trkpt lat="40.3380926674873" lon="18.303640574552713"><ele>27.0</ele><time>2026-04-06T06:02:02Z</time></trkpt><trkpt lat="40.33819126576494" lon="18.30385346116554"><ele>27.0</ele><time>2026-04-06T06:02:03Z</time></trkpt><trkpt lat="40.33828334930564" lon="18.304061094006695"><ele>27.0</ele><time>2026-04-06T06:02:04Z</time></trkpt><trkpt lat="40.338379269862074" lon="18.304264896209283"><ele>27.0</ele><time>2026-04-06T06:02:05Z</time></trkpt><trkpt lat="40.33847252668759" lon="18.30447185326998"><ele>27.0</ele><time>2026-04-06T06:02:06Z</time></trkpt><trkpt lat="40.338566903109054" lon="18.304678245908164"><ele>27.0</ele><time>2026-04-06T06:02:07Z</time></trkpt><trkpt lat="40.33866360505152" lon="18.304882476754262"><ele>27.0</ele><time>2026-04-06T06:02:08Z</time></trkpt><trkpt lat="40.338758214142366" lon="18.30508814848966"><ele>27.0</ele><time>2026-04-06T06:02:09Z</time></trkpt><trkpt lat="40.338854727558974" lon="18.305291303781104"><ele>27.0</ele><time>2026-04-06T06:02:10Z</time></trkpt><trkpt lat="40.33895176949509" lon="18.30550311342149"><ele>26.0</ele><time>2026-04-06T06:02:11Z</time></trkpt><trkpt lat="40.33905266935102" lon="18.305711952898573"><ele>25.0</ele><time>2026-04-06T06:02:12Z</time></trkpt><trkpt lat="40.33915593362912" lon="18.305927432824"><ele>24.0</ele><time>2026-04-06T06:02:13Z</time></trkpt><trkpt lat="40.339267214974576" lon="18.306134509154294"><ele>24.0</ele><time>2026-04-06T06:02:14Z</time></trkpt><trkpt lat="40.33938637564775" lon="18.30633999497998"><ele>24.0</ele><time>2026-04-06T06:02:15Z</time></trkpt><trkpt lat="40.339507321541234" lon="18.30653552389425"><ele>24.0</ele><time>2026-04-06T06:02:16Z</time></trkpt><trkpt lat="40.339638449669124" lon="18.306725273418746"><ele>24.333333333333336</ele><time>2026-04-06T06:02:17Z</time></trkpt><trkpt lat="40.33977193680227" lon="18.30690782247857"><ele>24.666666666666668</ele><time>2026-04-06T06:02:18Z</time></trkpt><trkpt lat="40.339906293136586" lon="18.307078188959878"><ele>25.0</ele><time>2026-04-06T06:02:19Z</time></trkpt><trkpt lat="40.34002537635931" lon="18.307222379553178"><ele>24.333333333333336</ele><time>2026-04-06T06:02:20Z</time></trkpt><trkpt lat="40.340135532196115" lon="18.307379406883463"><ele>23.666666666666668</ele><time>2026-04-06T06:02:21Z</time></trkpt><trkpt lat="40.34026478143646" lon="18.307519975496067"><ele>23.0</ele><time>2026-04-06T06:02:22Z</time></trkpt><trkpt lat="40.34040010044335" lon="18.3076576884703"><ele>23.0</ele><time>2026-04-06T06:02:23Z</time></trkpt><trkpt lat="40.3405433250174" lon="18.307795303670215"><ele>23.0</ele><time>2026-04-06T06:02:24Z</time></trkpt><trkpt lat="40.34069757772735" lon="18.307933977476814"><ele>23.0</ele><time>2026-04-06T06:02:25Z</time></trkpt><trkpt lat="40.340866645747475" lon="18.30807833860447"><ele>23.0</ele><time>2026-04-06T06:02:26Z</time></trkpt><trkpt lat="40.34105124100926" lon="18.308234802215424"><ele>23.0</ele><time>2026-04-06T06:02:27Z</time></trkpt><trkpt lat="40.341228148247815" lon="18.308384749414124"><ele>23.0</ele><time>2026-04-06T06:02:28Z</time></trkpt><trkpt lat="40.341409393486295" lon="18.308515084143824"><ele>22.333333333333336</ele><time>2026-04-06T06:02:29Z</time></trkpt><trkpt lat="40.34157480778284" lon="18.308643468337575"><ele>21.666666666666668</ele><time>2026-04-06T06:02:30Z</time></trkpt><trkpt lat="40.34175471427044" lon="18.308768462776218"><ele>21.0</ele><time>2026-04-06T06:02:31Z</time></trkpt><trkpt lat="40.341931711133086" lon="18.30885942951623"><ele>21.0</ele><time>2026-04-06T06:02:32Z</time></trkpt><trkpt lat="40.342120143441086" lon="18.308937601619196"><ele>21.0</ele><time>2026-04-06T06:02:33Z</time></trkpt><trkpt lat="40.342324261731285" lon="18.309002330669585"><ele>21.0</ele><time>2026-04-06T06:02:34Z</time></trkpt><trkpt lat="40.34254734329481" lon="18.309068142916228"><ele>20.666666666666668</ele><time>2026-04-06T06:02:35Z</time></trkpt><trkpt lat="40.34276320625812" lon="18.309110896444814"><ele>20.333333333333336</ele><time>2026-04-06T06:02:36Z</time></trkpt><trkpt lat="40.342981006541216" lon="18.309160940347066"><ele>20.0</ele><time>2026-04-06T06:02:37Z</time></trkpt><trkpt lat="40.343196867441925" lon="18.3092082713932"><ele>19.0</ele><time>2026-04-06T06:02:38Z</time></trkpt><trkpt lat="40.34341617506258" lon="18.309268812936228"><ele>18.0</ele><time>2026-04-06T06:02:39.001Z</time></trkpt><trkpt lat="40.34362860416503" lon="18.30932042069009"><ele>17.0</ele><time>2026-04-06T06:02:40.001Z</time></trkpt><trkpt lat="40.34382438915412" lon="18.30937204279787"><ele>16.666666666666668</ele><time>2026-04-06T06:02:41.001Z</time></trkpt><trkpt lat="40.344021575531634" lon="18.309424050368996"><ele>16.333333333333332</ele><time>2026-04-06T06:02:42.001Z</time></trkpt><trkpt lat="40.34421968542866" lon="18.309477099431138"><ele>16.0</ele><time>2026-04-06T06:02:43.001Z</time></trkpt><trkpt lat="40.34441790720751" lon="18.30953314498185"><ele>16.0</ele><time>2026-04-06T06:02:44.001Z</time></trkpt><trkpt lat="40.344604884866754" lon="18.309607106170382"><ele>16.0</ele><time>2026-04-06T06:02:45.001Z</time></trkpt><trkpt lat="40.344798899329085" lon="18.309680654588828"><ele>16.0</ele><time>2026-04-06T06:02:46.001Z</time></trkpt><trkpt lat="40.344986000761175" lon="18.309759166025746"><ele>15.333333333333332</ele><time>2026-04-06T06:02:47.001Z</time></trkpt><trkpt lat="40.345176253336284" lon="18.309852954804988"><ele>14.666666666666668</ele><time>2026-04-06T06:02:48.001Z</time></trkpt><trkpt lat="40.345361875955" lon="18.309957925384893"><ele>14.0</ele><time>2026-04-06T06:02:49.001Z</time></trkpt><trkpt lat="40.34554648494236" lon="18.310070565923738"><ele>13.666666666666668</ele><time>2026-04-06T06:02:50.001Z</time></trkpt><trkpt lat="40.34573601126334" lon="18.3102020964814"><ele>13.333333333333332</ele><time>2026-04-06T06:02:51.001Z</time></trkpt><trkpt lat="40.345929314139234" lon="18.310351875583684"><ele>13.0</ele><time>2026-04-06T06:02:52.001Z</time></trkpt><trkpt lat="40.34612389629967" lon="18.310512739171923"><ele>12.5</ele><time>2026-04-06T06:02:53.001Z</time></trkpt><trkpt lat="40.34633694220197" lon="18.31068888669294"><ele>12.0</ele><time>2026-04-06T06:02:54.001Z</time></trkpt><trkpt lat="40.346531171993554" lon="18.310849476946967"><ele>12.0</ele><time>2026-04-06T06:02:55.001Z</time></trkpt><trkpt lat="40.3467222421594" lon="18.31100821423234"><ele>12.0</ele><time>2026-04-06T06:02:56.001Z</time></trkpt><trkpt lat="40.34690595945777" lon="18.311142684793136"><ele>12.0</ele><time>2026-04-06T06:02:57.001Z</time></trkpt><trkpt lat="40.347068102713656" lon="18.311286625785964"><ele>12.333333333333332</ele><time>2026-04-06T06:02:58.001Z</time></trkpt><trkpt lat="40.347212966184806" lon="18.311424596760222"><ele>12.666666666666666</ele><time>2026-04-06T06:02:59.001Z</time></trkpt><trkpt lat="40.347355897288935" lon="18.311578545752955"><ele>13.0</ele><time>2026-04-06T06:03:00.001Z</time></trkpt><trkpt lat="40.34749439716359" lon="18.311742059996423"><ele>13.0</ele><time>2026-04-06T06:03:01.001Z</time></trkpt><trkpt lat="40.347625189249605" lon="18.31193769752312"><ele>13.0</ele><time>2026-04-06T06:03:02.001Z</time></trkpt><trkpt lat="40.34775847807592" lon="18.31213059721179"><ele>13.0</ele><time>2026-04-06T06:03:03.001Z</time></trkpt><trkpt lat="40.347887630202855" lon="18.312333366147183"><ele>13.0</ele><time>2026-04-06T06:03:04.001Z</time></trkpt><trkpt lat="40.348013330877926" lon="18.31254664283145"><ele>13.0</ele><time>2026-04-06T06:03:05.001Z</time></trkpt><trkpt lat="40.348141332219555" lon="18.312768449291315"><ele>13.0</ele><time>2026-04-06T06:03:06.001Z</time></trkpt><trkpt lat="40.34826335147158" lon="18.312982451653017"><ele>13.0</ele><time>2026-04-06T06:03:07.001Z</time></trkpt><trkpt lat="40.34839635078711" lon="18.313215711497147"><ele>13.0</ele><time>2026-04-06T06:03:08.001Z</time></trkpt><trkpt lat="40.34852670107243" lon="18.313443632843413"><ele>13.0</ele><time>2026-04-06T06:03:09.001Z</time></trkpt><trkpt lat="40.34865672894201" lon="18.313671001527897"><ele>13.0</ele><time>2026-04-06T06:03:10.001Z</time></trkpt><trkpt lat="40.34878861293597" lon="18.313901615859532"><ele>13.0</ele><time>2026-04-06T06:03:11.001Z</time></trkpt><trkpt lat="40.34892527523048" lon="18.314140585586717"><ele>13.0</ele><time>2026-04-06T06:03:12.001Z</time></trkpt><trkpt lat="40.349075028587585" lon="18.314366989567866"><ele>13.0</ele><time>2026-04-06T06:03:13.001Z</time></trkpt><trkpt lat="40.34920069356127" lon="18.314620576781596"><ele>13.0</ele><time>2026-04-06T06:03:14.001Z</time></trkpt><trkpt lat="40.34933823147895" lon="18.314860110286585"><ele>13.333333333333332</ele><time>2026-04-06T06:03:15.001Z</time></trkpt><trkpt lat="40.34947241118743" lon="18.315093795193764"><ele>13.666666666666668</ele><time>2026-04-06T06:03:16.001Z</time></trkpt><trkpt lat="40.349608790296216" lon="18.315298414728403"><ele>14.0</ele><time>2026-04-06T06:03:17.001Z</time></trkpt><trkpt lat="40.34972976994878" lon="18.315510713833728"><ele>13.0</ele><time>2026-04-06T06:03:18.001Z</time></trkpt><trkpt lat="40.3498473573583" lon="18.315725358100003"><ele>12.0</ele><time>2026-04-06T06:03:19.001Z</time></trkpt><trkpt lat="40.34997280924866" lon="18.31594871642939"><ele>11.0</ele><time>2026-04-06T06:03:20.001Z</time></trkpt><trkpt lat="40.350098410894475" lon="18.316169367569245"><ele>11.0</ele><time>2026-04-06T06:03:21.001Z</time></trkpt><trkpt lat="40.350227929591576" lon="18.31638836370266"><ele>11.0</ele><time>2026-04-06T06:03:22.001Z</time></trkpt><trkpt lat="40.350352454715136" lon="18.316607157723453"><ele>11.0</ele><time>2026-04-06T06:03:23.001Z</time></trkpt><trkpt lat="40.35047606090553" lon="18.31682660952551"><ele>11.0</ele><time>2026-04-06T06:03:24.001Z</time></trkpt><trkpt lat="40.350596752726766" lon="18.317032742092437"><ele>11.0</ele><time>2026-04-06T06:03:25.001Z</time></trkpt><trkpt lat="40.35070870867432" lon="18.31722885646477"><ele>11.0</ele><time>2026-04-06T06:03:26.001Z</time></trkpt><trkpt lat="40.350824302999555" lon="18.31741847869368"><ele>11.0</ele><time>2026-04-06T06:03:27.001Z</time></trkpt><trkpt lat="40.35094115463111" lon="18.317597688988503"><ele>11.0</ele><time>2026-04-06T06:03:28.001Z</time></trkpt><trkpt lat="40.351067269903346" lon="18.317766135920465"><ele>11.0</ele><time>2026-04-06T06:03:29.001Z</time></trkpt><trkpt lat="40.35120378548739" lon="18.317918859696626"><ele>11.0</ele><time>2026-04-06T06:03:30.001Z</time></trkpt><trkpt lat="40.35134708078808" lon="18.318056007516578"><ele>11.0</ele><time>2026-04-06T06:03:31.001Z</time></trkpt><trkpt lat="40.35150277310996" lon="18.318176800189782"><ele>11.0</ele><time>2026-04-06T06:03:32.001Z</time></trkpt><trkpt lat="40.35164674069442" lon="18.31827360601702"><ele>11.0</ele><time>2026-04-06T06:03:33.001Z</time></trkpt><trkpt lat="40.35179652511807" lon="18.318357946690067"><ele>11.0</ele><time>2026-04-06T06:03:34.001Z</time></trkpt><trkpt lat="40.35194908228845" lon="18.318430013357425"><ele>11.0</ele><time>2026-04-06T06:03:35.001Z</time></trkpt><trkpt lat="40.35210038903345" lon="18.31848920485922"><ele>10.8</ele><time>2026-04-06T06:03:36.001Z</time></trkpt><trkpt lat="40.352232312518964" lon="18.318530736545064"><ele>10.600000000000001</ele><time>2026-04-06T06:03:37.002Z</time></trkpt><trkpt lat="40.352338611425125" lon="18.318543095480432"><ele>10.4</ele><time>2026-04-06T06:03:38.002Z</time></trkpt><trkpt lat="40.35243622839129" lon="18.318555857486135"><ele>10.2</ele><time>2026-04-06T06:03:39.002Z</time></trkpt><trkpt lat="40.35251954897629" lon="18.318591840169034"><ele>10.0</ele><time>2026-04-06T06:03:40.002Z</time></trkpt><trkpt lat="40.35258465631284" lon="18.318598436984836"><ele>10.0</ele><time>2026-04-06T06:03:41.002Z</time></trkpt><trkpt lat="40.3527077152076" lon="18.3186696929031"><ele>10.0</ele><time>2026-04-06T06:03:43.002Z</time></trkpt><trkpt lat="40.352730135260074" lon="18.318760630661064"><ele>10.0</ele><time>2026-04-06T06:03:44.002Z</time></trkpt><trkpt lat="40.35278390672227" lon="18.318887200747312"><ele>10.0</ele><time>2026-04-06T06:03:46.002Z</time></trkpt><trkpt lat="40.3528329263602" lon="18.318956871287817"><ele>10.0</ele><time>2026-04-06T06:03:48.002Z</time></trkpt><trkpt lat="40.352918673320154" lon="18.318926323632244"><ele>10.0</ele><time>2026-04-06T06:03:48.999Z</time></trkpt><trkpt lat="40.35298838104288" lon="18.318877667442546"><ele>10.0</ele><time>2026-04-06T06:03:49.999Z</time></trkpt><trkpt lat="40.35306549697983" lon="18.318814706739484"><ele>10.0</ele><time>2026-04-06T06:03:50.999Z</time></trkpt><trkpt lat="40.35317317536746" lon="18.318733335508494"><ele>10.0</ele><time>2026-04-06T06:03:51.999Z</time></trkpt><trkpt lat="40.35329050149767" lon="18.318649100108562"><ele>10.0</ele><time>2026-04-06T06:03:52.999Z</time></trkpt><trkpt lat="40.353423301962835" lon="18.318555775031154"><ele>9.666666666666668</ele><time>2026-04-06T06:03:53.999Z</time></trkpt><trkpt lat="40.353569919094255" lon="18.31844318829019"><ele>9.333333333333334</ele><time>2026-04-06T06:03:54.999Z</time></trkpt><trkpt lat="40.35372629306513" lon="18.318336082870868"><ele>9.0</ele><time>2026-04-06T06:03:55.999Z</time></trkpt><trkpt lat="40.353894650565024" lon="18.318216699173373"><ele>9.0</ele><time>2026-04-06T06:03:57Z</time></trkpt><trkpt lat="40.35406880020202" lon="18.31809278516417"><ele>9.0</ele><time>2026-04-06T06:03:58Z</time></trkpt><trkpt lat="40.354252223820104" lon="18.317958823327604"><ele>9.0</ele><time>2026-04-06T06:03:59Z</time></trkpt><trkpt lat="40.354440553552806" lon="18.3178194878662"><ele>9.0</ele><time>2026-04-06T06:04:00Z</time></trkpt><trkpt lat="40.35462683015694" lon="18.317683806505954"><ele>9.0</ele><time>2026-04-06T06:04:01Z</time></trkpt><trkpt lat="40.35481195895179" lon="18.31754164948455"><ele>9.0</ele><time>2026-04-06T06:04:02Z</time></trkpt><trkpt lat="40.355003379999104" lon="18.317395374042672"><ele>9.0</ele><time>2026-04-06T06:04:03Z</time></trkpt><trkpt lat="40.355202544339335" lon="18.31724910874802"><ele>9.0</ele><time>2026-04-06T06:04:04Z</time></trkpt><trkpt lat="40.355401747178995" lon="18.317095859820583"><ele>8.5</ele><time>2026-04-06T06:04:05Z</time></trkpt><trkpt lat="40.355602675785164" lon="18.31694975894101"><ele>8.0</ele><time>2026-04-06T06:04:06Z</time></trkpt><trkpt lat="40.355795621633995" lon="18.31680923477058"><ele>8.0</ele><time>2026-04-06T06:04:07Z</time></trkpt><trkpt lat="40.35597657502421" lon="18.316675265689515"><ele>8.0</ele><time>2026-04-06T06:04:08Z</time></trkpt><trkpt lat="40.356169658601246" lon="18.31654050361507"><ele>8.0</ele><time>2026-04-06T06:04:09Z</time></trkpt><trkpt lat="40.35638175220237" lon="18.31642661874873"><ele>8.0</ele><time>2026-04-06T06:04:10Z</time></trkpt><trkpt lat="40.35658683010827" lon="18.316317892329646"><ele>8.0</ele><time>2026-04-06T06:04:11Z</time></trkpt><trkpt lat="40.356794360617364" lon="18.31621119211059"><ele>8.0</ele><time>2026-04-06T06:04:12Z</time></trkpt><trkpt lat="40.35700347386386" lon="18.316080496482712"><ele>8.5</ele><time>2026-04-06T06:04:13Z</time></trkpt><trkpt lat="40.35722249847704" lon="18.31598177743857"><ele>9.0</ele><time>2026-04-06T06:04:14Z</time></trkpt><trkpt lat="40.35744511178412" lon="18.315874856860958"><ele>9.0</ele><time>2026-04-06T06:04:15Z</time></trkpt><trkpt lat="40.35765183970796" lon="18.315762457511287"><ele>9.0</ele><time>2026-04-06T06:04:16Z</time></trkpt><trkpt lat="40.357866730741556" lon="18.31565332511741"><ele>8.333333333333334</ele><time>2026-04-06T06:04:17Z</time></trkpt><trkpt lat="40.35807528349017" lon="18.315542760973415"><ele>7.666666666666667</ele><time>2026-04-06T06:04:18Z</time></trkpt><trkpt lat="40.35828465159111" lon="18.315438798203328"><ele>7.0</ele><time>2026-04-06T06:04:19Z</time></trkpt><trkpt lat="40.35849181925949" lon="18.315330620699555"><ele>7.0</ele><time>2026-04-06T06:04:20Z</time></trkpt><trkpt lat="40.35867842771146" lon="18.31523193661683"><ele>7.0</ele><time>2026-04-06T06:04:21Z</time></trkpt><trkpt lat="40.35887338561401" lon="18.31514252329284"><ele>7.0</ele><time>2026-04-06T06:04:22Z</time></trkpt><trkpt lat="40.35907215189965" lon="18.315060913492886"><ele>8.0</ele><time>2026-04-06T06:04:23Z</time></trkpt><trkpt lat="40.35927189574999" lon="18.315001999695845"><ele>9.0</ele><time>2026-04-06T06:04:24Z</time></trkpt><trkpt lat="40.35947885824002" lon="18.31496379608267"><ele>10.0</ele><time>2026-04-06T06:04:25Z</time></trkpt><trkpt lat="40.35969187970668" lon="18.31494517314529"><ele>9.5</ele><time>2026-04-06T06:04:26Z</time></trkpt><trkpt lat="40.359916728713465" lon="18.314976732264668"><ele>9.0</ele><time>2026-04-06T06:04:27Z</time></trkpt><trkpt lat="40.36015321234441" lon="18.3149935551837"><ele>9.0</ele><time>2026-04-06T06:04:28Z</time></trkpt><trkpt lat="40.360384127372335" lon="18.31500998364665"><ele>9.0</ele><time>2026-04-06T06:04:29Z</time></trkpt><trkpt lat="40.3606103020692" lon="18.315006644107758"><ele>8.666666666666666</ele><time>2026-04-06T06:04:30Z</time></trkpt><trkpt lat="40.360816751564016" lon="18.315020316179577"><ele>8.333333333333332</ele><time>2026-04-06T06:04:31Z</time></trkpt><trkpt lat="40.36102493100843" lon="18.314980964237087"><ele>8.0</ele><time>2026-04-06T06:04:32Z</time></trkpt><trkpt lat="40.361237186906905" lon="18.31494037614387"><ele>7.666666666666666</ele><time>2026-04-06T06:04:33Z</time></trkpt><trkpt lat="40.36143865091918" lon="18.314876369186756"><ele>7.333333333333334</ele><time>2026-04-06T06:04:34Z</time></trkpt><trkpt lat="40.361643756335866" lon="18.31479767165532"><ele>7.0</ele><time>2026-04-06T06:04:35Z</time></trkpt><trkpt lat="40.36186167855352" lon="18.31471982302221"><ele>7.0</ele><time>2026-04-06T06:04:36Z</time></trkpt><trkpt lat="40.36206719698636" lon="18.314639221484153"><ele>7.0</ele><time>2026-04-06T06:04:37Z</time></trkpt><trkpt lat="40.36226320610742" lon="18.314562349374796"><ele>7.0</ele><time>2026-04-06T06:04:38Z</time></trkpt><trkpt lat="40.362457152187524" lon="18.31446001170838"><ele>7.0</ele><time>2026-04-06T06:04:39Z</time></trkpt><trkpt lat="40.36264815917025" lon="18.314388381905893"><ele>7.0</ele><time>2026-04-06T06:04:40Z</time></trkpt><trkpt lat="40.36282855884025" lon="18.314316856511013"><ele>7.0</ele><time>2026-04-06T06:04:41.001Z</time></trkpt><trkpt lat="40.363011992366346" lon="18.314246254924665"><ele>6.0</ele><time>2026-04-06T06:04:42.001Z</time></trkpt><trkpt lat="40.36319150258837" lon="18.31416930141629"><ele>5.0</ele><time>2026-04-06T06:04:43.001Z</time></trkpt><trkpt lat="40.36337262190584" lon="18.31408515063662"><ele>4.0</ele><time>2026-04-06T06:04:44.001Z</time></trkpt><trkpt lat="40.363545942450855" lon="18.313990797148715"><ele>4.333333333333333</ele><time>2026-04-06T06:04:45.001Z</time></trkpt><trkpt lat="40.363717451993196" lon="18.313868692659142"><ele>4.666666666666667</ele><time>2026-04-06T06:04:46.001Z</time></trkpt><trkpt lat="40.36388894269467" lon="18.313733379798645"><ele>5.0</ele><time>2026-04-06T06:04:47.001Z</time></trkpt><trkpt lat="40.36406179609569" lon="18.313588292432346"><ele>5.0</ele><time>2026-04-06T06:04:48.001Z</time></trkpt><trkpt lat="40.364235057359785" lon="18.313440140959138"><ele>5.0</ele><time>2026-04-06T06:04:49.001Z</time></trkpt><trkpt lat="40.3644083436273" lon="18.31328959870247"><ele>5.0</ele><time>2026-04-06T06:04:50.001Z</time></trkpt><trkpt lat="40.36457723034173" lon="18.31314189580896"><ele>5.666666666666667</ele><time>2026-04-06T06:04:51.001Z</time></trkpt><trkpt lat="40.36473502286319" lon="18.312998461829217"><ele>6.333333333333334</ele><time>2026-04-06T06:04:52.001Z</time></trkpt><trkpt lat="40.36488738770773" lon="18.3128772755045"><ele>7.0</ele><time>2026-04-06T06:04:53.001Z</time></trkpt><trkpt lat="40.365031622140776" lon="18.31275502315684"><ele>7.0</ele><time>2026-04-06T06:04:54.001Z</time></trkpt><trkpt lat="40.36517400756632" lon="18.312628060325586"><ele>7.0</ele><time>2026-04-06T06:04:55.001Z</time></trkpt><trkpt lat="40.36531497403206" lon="18.312501725197627"><ele>7.0</ele><time>2026-04-06T06:04:56.001Z</time></trkpt><trkpt lat="40.36545532784746" lon="18.312375799596154"><ele>8.333333333333334</ele><time>2026-04-06T06:04:57.001Z</time></trkpt><trkpt lat="40.36560712051284" lon="18.31225132831029"><ele>9.666666666666666</ele><time>2026-04-06T06:04:58.001Z</time></trkpt><trkpt lat="40.36575518205966" lon="18.312117846364465"><ele>11.0</ele><time>2026-04-06T06:04:59.001Z</time></trkpt><trkpt lat="40.36591150205819" lon="18.311989645438448"><ele>11.0</ele><time>2026-04-06T06:05:00.001Z</time></trkpt><trkpt lat="40.36606234095263" lon="18.311865297927472"><ele>11.0</ele><time>2026-04-06T06:05:01.001Z</time></trkpt><trkpt lat="40.3662310389061" lon="18.311765394334422"><ele>11.0</ele><time>2026-04-06T06:05:02.001Z</time></trkpt><trkpt lat="40.36638220845187" lon="18.311639632415815"><ele>11.0</ele><time>2026-04-06T06:05:03.001Z</time></trkpt><trkpt lat="40.36654756732694" lon="18.311487778970168"><ele>11.0</ele><time>2026-04-06T06:05:04.001Z</time></trkpt><trkpt lat="40.36670737719473" lon="18.311357603971544"><ele>11.0</ele><time>2026-04-06T06:05:05.001Z</time></trkpt><trkpt lat="40.36685892601976" lon="18.311239069251346"><ele>11.0</ele><time>2026-04-06T06:05:06.001Z</time></trkpt><trkpt lat="40.3669922978864" lon="18.311109533277968"><ele>11.0</ele><time>2026-04-06T06:05:07.001Z</time></trkpt><trkpt lat="40.3671180889038" lon="18.310985803119387"><ele>11.0</ele><time>2026-04-06T06:05:08.001Z</time></trkpt><trkpt lat="40.367234194473546" lon="18.310875535333228"><ele>11.0</ele><time>2026-04-06T06:05:09.001Z</time></trkpt><trkpt lat="40.36734438663078" lon="18.310780585650427"><ele>11.0</ele><time>2026-04-06T06:05:10.001Z</time></trkpt><trkpt lat="40.367429222662636" lon="18.310690726329472"><ele>11.0</ele><time>2026-04-06T06:05:11.001Z</time></trkpt><trkpt lat="40.367514327031046" lon="18.31062084759854"><ele>11.0</ele><time>2026-04-06T06:05:12.001Z</time></trkpt><trkpt lat="40.367595920795914" lon="18.31055248533262"><ele>11.0</ele><time>2026-04-06T06:05:13.001Z</time></trkpt><trkpt lat="40.367669341314766" lon="18.31048984132507"><ele>11.200000000000001</ele><time>2026-04-06T06:05:14.001Z</time></trkpt><trkpt lat="40.36774348916668" lon="18.31042126593167"><ele>11.4</ele><time>2026-04-06T06:05:15.001Z</time></trkpt><trkpt lat="40.367827786100584" lon="18.310352597368034"><ele>11.6</ele><time>2026-04-06T06:05:16.001Z</time></trkpt><trkpt lat="40.36791853996801" lon="18.310288472785825"><ele>11.8</ele><time>2026-04-06T06:05:17.001Z</time></trkpt><trkpt lat="40.36800708382948" lon="18.310205749983055"><ele>12.0</ele><time>2026-04-06T06:05:18.001Z</time></trkpt><trkpt lat="40.36811000565189" lon="18.310119690030245"><ele>12.0</ele><time>2026-04-06T06:05:19.001Z</time></trkpt><trkpt lat="40.36822523149584" lon="18.310031014907715"><ele>12.0</ele><time>2026-04-06T06:05:20.001Z</time></trkpt><trkpt lat="40.36834378986649" lon="18.3099302706383"><ele>12.0</ele><time>2026-04-06T06:05:21.001Z</time></trkpt><trkpt lat="40.368469105291105" lon="18.309823299956015"><ele>12.0</ele><time>2026-04-06T06:05:22.001Z</time></trkpt><trkpt lat="40.36860086454345" lon="18.309711344827228"><ele>11.25</ele><time>2026-04-06T06:05:23.001Z</time></trkpt><trkpt lat="40.36872399373425" lon="18.309596492339363"><ele>10.5</ele><time>2026-04-06T06:05:24.001Z</time></trkpt><trkpt lat="40.36883024841632" lon="18.30948646697958"><ele>9.75</ele><time>2026-04-06T06:05:25.001Z</time></trkpt><trkpt lat="40.3689248028144" lon="18.309392776440742"><ele>9.0</ele><time>2026-04-06T06:05:26.001Z</time></trkpt><trkpt lat="40.36900442842464" lon="18.309304815924353"><ele>9.0</ele><time>2026-04-06T06:05:27.001Z</time></trkpt><trkpt lat="40.36907474346412" lon="18.30924085579205"><ele>9.0</ele><time>2026-04-06T06:05:28.001Z</time></trkpt><trkpt lat="40.36914793788906" lon="18.309194602983965"><ele>9.0</ele><time>2026-04-06T06:05:29.001Z</time></trkpt><trkpt lat="40.36923273104469" lon="18.30920028954247"><ele>9.0</ele><time>2026-04-06T06:05:30.001Z</time></trkpt><trkpt lat="40.36930501646016" lon="18.30922154419355"><ele>9.0</ele><time>2026-04-06T06:05:31.001Z</time></trkpt><trkpt lat="40.3693795808497" lon="18.30928060298686"><ele>9.0</ele><time>2026-04-06T06:05:32.001Z</time></trkpt><trkpt lat="40.36945007148542" lon="18.309370975981675"><ele>9.0</ele><time>2026-04-06T06:05:33.001Z</time></trkpt><trkpt lat="40.36952300816741" lon="18.30948904779581"><ele>9.0</ele><time>2026-04-06T06:05:34.002Z</time></trkpt><trkpt lat="40.36959782446664" lon="18.30962565971182"><ele>9.0</ele><time>2026-04-06T06:05:35.002Z</time></trkpt><trkpt lat="40.36968554575288" lon="18.30976726526507"><ele>9.0</ele><time>2026-04-06T06:05:36.002Z</time></trkpt><trkpt lat="40.369785665170326" lon="18.309915214696492"><ele>10.5</ele><time>2026-04-06T06:05:37.002Z</time></trkpt><trkpt lat="40.36987673759915" lon="18.310082782932387"><ele>12.0</ele><time>2026-04-06T06:05:38.002Z</time></trkpt><trkpt lat="40.369994199233396" lon="18.310215852387813"><ele>13.5</ele><time>2026-04-06T06:05:39.002Z</time></trkpt><trkpt lat="40.37008343544731" lon="18.310333588883466"><ele>15.0</ele><time>2026-04-06T06:05:40.002Z</time></trkpt><trkpt lat="40.370189367850465" lon="18.310440388041552"><ele>15.0</ele><time>2026-04-06T06:05:41.002Z</time></trkpt><trkpt lat="40.370288587042346" lon="18.310514022574168"><ele>15.0</ele><time>2026-04-06T06:05:42.002Z</time></trkpt><trkpt lat="40.37038054215375" lon="18.310610066134767"><ele>15.0</ele><time>2026-04-06T06:05:43.002Z</time></trkpt><trkpt lat="40.37048089776492" lon="18.31066704738712"><ele>15.0</ele><time>2026-04-06T06:05:44.002Z</time></trkpt><trkpt lat="40.370577756178534" lon="18.31069901460207"><ele>15.0</ele><time>2026-04-06T06:05:45.002Z</time></trkpt><trkpt lat="40.37065420314854" lon="18.31078573401744"><ele>14.8</ele><time>2026-04-06T06:05:46.002Z</time></trkpt><trkpt lat="40.37075327882636" lon="18.3108292640124"><ele>14.6</ele><time>2026-04-06T06:05:47.002Z</time></trkpt><trkpt lat="40.37084995131947" lon="18.31089253753383"><ele>14.399999999999999</ele><time>2026-04-06T06:05:48.002Z</time></trkpt><trkpt lat="40.370945521088274" lon="18.310950040186068"><ele>14.2</ele><time>2026-04-06T06:05:49.002Z</time></trkpt><trkpt lat="40.37104090839752" lon="18.31101473192188"><ele>14.0</ele><time>2026-04-06T06:05:50.002Z</time></trkpt><trkpt lat="40.37113146946355" lon="18.311110108958587"><ele>14.0</ele><time>2026-04-06T06:05:51.002Z</time></trkpt><trkpt lat="40.37122660835999" lon="18.31121218401189"><ele>14.0</ele><time>2026-04-06T06:05:52.002Z</time></trkpt><trkpt lat="40.37131623036476" lon="18.311311478373614"><ele>14.0</ele><time>2026-04-06T06:05:53.002Z</time></trkpt><trkpt lat="40.37140462029786" lon="18.311433950165174"><ele>14.0</ele><time>2026-04-06T06:05:54.002Z</time></trkpt><trkpt lat="40.37148114142008" lon="18.311568773651192"><ele>13.75</ele><time>2026-04-06T06:05:55Z</time></trkpt><trkpt lat="40.37156617085026" lon="18.311692521466327"><ele>13.5</ele><time>2026-04-06T06:05:56Z</time></trkpt><trkpt lat="40.37164667792251" lon="18.31182157447031"><ele>13.25</ele><time>2026-04-06T06:05:57Z</time></trkpt><trkpt lat="40.37173243981801" lon="18.31194825834779"><ele>13.0</ele><time>2026-04-06T06:05:58Z</time></trkpt><trkpt lat="40.37181971125887" lon="18.312088654316145"><ele>13.0</ele><time>2026-04-06T06:05:59Z</time></trkpt><trkpt lat="40.371890791403054" lon="18.312217185621456"><ele>13.0</ele><time>2026-04-06T06:06:00Z</time></trkpt><trkpt lat="40.371975521399406" lon="18.31234897276536"><ele>13.0</ele><time>2026-04-06T06:06:01Z</time></trkpt><trkpt lat="40.37205254653624" lon="18.312472066043004"><ele>13.0</ele><time>2026-04-06T06:06:02Z</time></trkpt><trkpt lat="40.37213241416731" lon="18.312603095944464"><ele>12.25</ele><time>2026-04-06T06:06:03Z</time></trkpt><trkpt lat="40.3722088365084" lon="18.312744594449946"><ele>11.5</ele><time>2026-04-06T06:06:04Z</time></trkpt><trkpt lat="40.37227090746724" lon="18.312860111998635"><ele>10.75</ele><time>2026-04-06T06:06:05Z</time></trkpt><trkpt lat="40.37234962334195" lon="18.312976231677688"><ele>10.0</ele><time>2026-04-06T06:06:06Z</time></trkpt><trkpt lat="40.37242533842269" lon="18.313088785122545"><ele>10.0</ele><time>2026-04-06T06:06:07Z</time></trkpt><trkpt lat="40.372504135052786" lon="18.31320864755016"><ele>10.0</ele><time>2026-04-06T06:06:08Z</time></trkpt><trkpt lat="40.372573638365395" lon="18.313333811315218"><ele>10.0</ele><time>2026-04-06T06:06:09Z</time></trkpt><trkpt lat="40.37263916982004" lon="18.313466210799508"><ele>10.0</ele><time>2026-04-06T06:06:10Z</time></trkpt><trkpt lat="40.372708142557975" lon="18.313587929252535"><ele>10.0</ele><time>2026-04-06T06:06:11Z</time></trkpt><trkpt lat="40.37278325180349" lon="18.313718997948815"><ele>10.0</ele><time>2026-04-06T06:06:12Z</time></trkpt><trkpt lat="40.37286767031668" lon="18.31384095654122"><ele>10.0</ele><time>2026-04-06T06:06:13Z</time></trkpt><trkpt lat="40.372940127827306" lon="18.313946134226082"><ele>10.0</ele><time>2026-04-06T06:06:14Z</time></trkpt><trkpt lat="40.37298906959909" lon="18.314051634456813"><ele>8.833333333333334</ele><time>2026-04-06T06:06:15Z</time></trkpt><trkpt lat="40.37304907087434" lon="18.314139785594236"><ele>7.666666666666667</ele><time>2026-04-06T06:06:16Z</time></trkpt><trkpt lat="40.373115482327954" lon="18.314188578001374"><ele>6.5</ele><time>2026-04-06T06:06:17Z</time></trkpt><trkpt lat="40.373193036711854" lon="18.31420354255071"><ele>5.333333333333334</ele><time>2026-04-06T06:06:18Z</time></trkpt><trkpt lat="40.3732569853439" lon="18.314199282621562"><ele>4.166666666666667</ele><time>2026-04-06T06:06:19Z</time></trkpt><trkpt lat="40.37333746369847" lon="18.314212408341813"><ele>3.0</ele><time>2026-04-06T06:06:20Z</time></trkpt><trkpt lat="40.37342367480601" lon="18.314180561623587"><ele>3.0</ele><time>2026-04-06T06:06:21Z</time></trkpt><trkpt lat="40.373484910977375" lon="18.314155650114092"><ele>3.0</ele><time>2026-04-06T06:06:22Z</time></trkpt><trkpt lat="40.37353235085266" lon="18.314066329662467"><ele>3.0</ele><time>2026-04-06T06:06:23Z</time></trkpt><trkpt lat="40.373582894707454" lon="18.314009562572483"><ele>3.0</ele><time>2026-04-06T06:06:24Z</time></trkpt><trkpt lat="40.37363415662255" lon="18.31395942556471"><ele>3.0</ele><time>2026-04-06T06:06:25Z</time></trkpt><trkpt lat="40.37368877071997" lon="18.313914952806623"><ele>3.0</ele><time>2026-04-06T06:06:26Z</time></trkpt><trkpt lat="40.37378782725511" lon="18.313834396849245"><ele>3.2</ele><time>2026-04-06T06:06:28Z</time></trkpt><trkpt lat="40.373885295718516" lon="18.313748431283884"><ele>3.4</ele><time>2026-04-06T06:06:30Z</time></trkpt><trkpt lat="40.373981175182905" lon="18.313675747883412"><ele>3.6000000000000005</ele><time>2026-04-06T06:06:32Z</time></trkpt><trkpt lat="40.3740551106585" lon="18.313606821208644"><ele>3.8000000000000003</ele><time>2026-04-06T06:06:34Z</time></trkpt><trkpt lat="40.374108812436084" lon="18.313538210216795"><ele>4.0</ele><time>2026-04-06T06:06:37.001Z</time></trkpt><trkpt lat="40.37399708740728" lon="18.313474728260015"><ele>4.0</ele><time>2026-04-06T06:06:45.001Z</time></trkpt><trkpt lat="40.37392086019956" lon="18.313494403994998"><ele>4.0</ele><time>2026-04-06T06:06:46.001Z</time></trkpt><trkpt lat="40.373857189958805" lon="18.31351095673389"><ele>4.0</ele><time>2026-04-06T06:06:47.001Z</time></trkpt><trkpt lat="40.373782803787016" lon="18.313530295362856"><ele>4.0</ele><time>2026-04-06T06:06:48.001Z</time></trkpt><trkpt lat="40.37365745448933" lon="18.313506940572314"><ele>4.0</ele><time>2026-04-06T06:06:49.001Z</time></trkpt><trkpt lat="40.37354802768588" lon="18.313487220725467"><ele>4.5</ele><time>2026-04-06T06:06:50.001Z</time></trkpt><trkpt lat="40.373443466113784" lon="18.313463066226987"><ele>5.0</ele><time>2026-04-06T06:06:51.001Z</time></trkpt><trkpt lat="40.3733231182411" lon="18.313429456481238"><ele>5.5</ele><time>2026-04-06T06:06:52.001Z</time></trkpt><trkpt lat="40.37320459855101" lon="18.313392254379057"><ele>6.0</ele><time>2026-04-06T06:06:53.001Z</time></trkpt><trkpt lat="40.37307979236048" lon="18.313346965639816"><ele>7.0</ele><time>2026-04-06T06:06:54.001Z</time></trkpt><trkpt lat="40.3729579935255" lon="18.31329424533738"><ele>8.0</ele><time>2026-04-06T06:06:55.001Z</time></trkpt><trkpt lat="40.3728367471081" lon="18.313237532486767"><ele>9.0</ele><time>2026-04-06T06:06:56.001Z</time></trkpt><trkpt lat="40.37273282318173" lon="18.313188393839866"><ele>10.0</ele><time>2026-04-06T06:06:57.001Z</time></trkpt><trkpt lat="40.372635152089565" lon="18.313140841275725"><ele>10.0</ele><time>2026-04-06T06:06:58.001Z</time></trkpt><trkpt lat="40.37255495416847" lon="18.313093007646607"><ele>10.0</ele><time>2026-04-06T06:06:59.001Z</time></trkpt><trkpt lat="40.372480025796015" lon="18.313025026939457"><ele>10.0</ele><time>2026-04-06T06:07:00.001Z</time></trkpt><trkpt lat="40.372388714161396" lon="18.31297429163017"><ele>10.0</ele><time>2026-04-06T06:07:01.001Z</time></trkpt><trkpt lat="40.37231428805575" lon="18.312875906200173"><ele>10.0</ele><time>2026-04-06T06:07:02.001Z</time></trkpt><trkpt lat="40.37225560480676" lon="18.312761545620724"><ele>10.75</ele><time>2026-04-06T06:07:03.001Z</time></trkpt><trkpt lat="40.37218159052598" lon="18.312643281519378"><ele>11.5</ele><time>2026-04-06T06:07:04.001Z</time></trkpt><trkpt lat="40.37211233712684" lon="18.31252700684467"><ele>12.25</ele><time>2026-04-06T06:07:05.001Z</time></trkpt><trkpt lat="40.372041993433676" lon="18.312406899292583"><ele>13.0</ele><time>2026-04-06T06:07:06.001Z</time></trkpt><trkpt lat="40.37196681880121" lon="18.31227854320862"><ele>13.0</ele><time>2026-04-06T06:07:07.001Z</time></trkpt><trkpt lat="40.37188975019993" lon="18.312148013157373"><ele>13.0</ele><time>2026-04-06T06:07:08.001Z</time></trkpt><trkpt lat="40.37180880384365" lon="18.31201166952523"><ele>13.0</ele><time>2026-04-06T06:07:09.001Z</time></trkpt><trkpt lat="40.37173149095867" lon="18.311881446005003"><ele>13.0</ele><time>2026-04-06T06:07:10.001Z</time></trkpt><trkpt lat="40.37165618481487" lon="18.311754602280217"><ele>13.0</ele><time>2026-04-06T06:07:11.001Z</time></trkpt><trkpt lat="40.371590049022174" lon="18.31164320387168"><ele>13.0</ele><time>2026-04-06T06:07:12.001Z</time></trkpt><trkpt lat="40.37151611727127" lon="18.31151867402948"><ele>13.0</ele><time>2026-04-06T06:07:13.001Z</time></trkpt><trkpt lat="40.37143973264348" lon="18.31139361613498"><ele>13.0</ele><time>2026-04-06T06:07:14.001Z</time></trkpt><trkpt lat="40.37136177979702" lon="18.31128319432074"><ele>13.25</ele><time>2026-04-06T06:07:15.001Z</time></trkpt><trkpt lat="40.371264280588925" lon="18.311166073600255"><ele>13.5</ele><time>2026-04-06T06:07:16.001Z</time></trkpt><trkpt lat="40.37115535326925" lon="18.31105495717414"><ele>13.75</ele><time>2026-04-06T06:07:17.001Z</time></trkpt><trkpt lat="40.371018123014196" lon="18.310947126716986"><ele>14.0</ele><time>2026-04-06T06:07:18.001Z</time></trkpt><trkpt lat="40.37089169785196" lon="18.3108632677257"><ele>14.0</ele><time>2026-04-06T06:07:19.001Z</time></trkpt><trkpt lat="40.37075508734264" lon="18.310779724349974"><ele>14.0</ele><time>2026-04-06T06:07:20.001Z</time></trkpt><trkpt lat="40.37062144645203" lon="18.310700718216523"><ele>14.0</ele><time>2026-04-06T06:07:21.001Z</time></trkpt><trkpt lat="40.37050443089606" lon="18.310632803226937"><ele>14.0</ele><time>2026-04-06T06:07:22.001Z</time></trkpt><trkpt lat="40.3703926409871" lon="18.31058942162686"><ele>14.25</ele><time>2026-04-06T06:07:23.001Z</time></trkpt><trkpt lat="40.370291476915476" lon="18.310502969899485"><ele>14.5</ele><time>2026-04-06T06:07:24.001Z</time></trkpt><trkpt lat="40.37017220161188" lon="18.31042499649397"><ele>14.75</ele><time>2026-04-06T06:07:25.001Z</time></trkpt><trkpt lat="40.37007388770328" lon="18.310351548182776"><ele>15.0</ele><time>2026-04-06T06:07:26.001Z</time></trkpt><trkpt lat="40.369964173610626" lon="18.31025089184544"><ele>15.0</ele><time>2026-04-06T06:07:27.001Z</time></trkpt><trkpt lat="40.36987305298745" lon="18.310134954132"><ele>15.0</ele><time>2026-04-06T06:07:28.002Z</time></trkpt><trkpt lat="40.36980707276616" lon="18.310019928232"><ele>15.0</ele><time>2026-04-06T06:07:29.002Z</time></trkpt><trkpt lat="40.36974145312464" lon="18.30989829494164"><ele>15.0</ele><time>2026-04-06T06:07:30.002Z</time></trkpt><trkpt lat="40.36968595537083" lon="18.309792593284"><ele>15.0</ele><time>2026-04-06T06:07:31.002Z</time></trkpt><trkpt lat="40.36961514370333" lon="18.30969233808836"><ele>14.0</ele><time>2026-04-06T06:07:32.002Z</time></trkpt><trkpt lat="40.36958421097912" lon="18.30956299414516"><ele>13.0</ele><time>2026-04-06T06:07:33.002Z</time></trkpt><trkpt lat="40.36953999854123" lon="18.309472660092943"><ele>12.0</ele><time>2026-04-06T06:07:34.002Z</time></trkpt><trkpt lat="40.369491635100154" lon="18.30940595615268"><ele>11.0</ele><time>2026-04-06T06:07:35.002Z</time></trkpt><trkpt lat="40.36946604511808" lon="18.30931789528037"><ele>10.0</ele><time>2026-04-06T06:07:36.002Z</time></trkpt><trkpt lat="40.3694414948923" lon="18.309173437516232"><ele>9.0</ele><time>2026-04-06T06:07:38.002Z</time></trkpt><trkpt lat="40.36938902022633" lon="18.309062862484993"><ele>9.0</ele><time>2026-04-06T06:07:52.002Z</time></trkpt><trkpt lat="40.369471664382" lon="18.30894887229807"><ele>9.0</ele><time>2026-04-06T06:07:53.002Z</time></trkpt><trkpt lat="40.36952764448626" lon="18.308871263219025"><ele>9.0</ele><time>2026-04-06T06:07:54.002Z</time></trkpt><trkpt lat="40.369621161309055" lon="18.308779497380364"><ele>9.0</ele><time>2026-04-06T06:07:55.002Z</time></trkpt><trkpt lat="40.36972831086474" lon="18.308676731336163"><ele>8.5</ele><time>2026-04-06T06:07:56.002Z</time></trkpt><trkpt lat="40.369824758551694" lon="18.30858154999204"><ele>8.0</ele><time>2026-04-06T06:07:57.002Z</time></trkpt><trkpt lat="40.36993290939476" lon="18.30848447972486"><ele>7.5</ele><time>2026-04-06T06:07:58.002Z</time></trkpt><trkpt lat="40.3700539005098" lon="18.308379752203585"><ele>7.0</ele><time>2026-04-06T06:07:59.002Z</time></trkpt><trkpt lat="40.37017392191282" lon="18.30828037988005"><ele>7.0</ele><time>2026-04-06T06:08:00.002Z</time></trkpt><trkpt lat="40.370299689009066" lon="18.308169034878315"><ele>7.0</ele><time>2026-04-06T06:08:01Z</time></trkpt><trkpt lat="40.37043672694999" lon="18.308061213697883"><ele>7.0</ele><time>2026-04-06T06:08:02Z</time></trkpt><trkpt lat="40.37058522001079" lon="18.307937927915965"><ele>8.0</ele><time>2026-04-06T06:08:03Z</time></trkpt><trkpt lat="40.37073115772817" lon="18.307822676226586"><ele>9.0</ele><time>2026-04-06T06:08:04Z</time></trkpt><trkpt lat="40.37088289194031" lon="18.307692387802625"><ele>10.0</ele><time>2026-04-06T06:08:05Z</time></trkpt><trkpt lat="40.37104552098679" lon="18.307547328118588"><ele>10.0</ele><time>2026-04-06T06:08:06Z</time></trkpt><trkpt lat="40.37120763650628" lon="18.307408470411076"><ele>10.0</ele><time>2026-04-06T06:08:07Z</time></trkpt><trkpt lat="40.37135922295467" lon="18.307277533809735"><ele>10.0</ele><time>2026-04-06T06:08:08Z</time></trkpt><trkpt lat="40.3715058292581" lon="18.307118002596553"><ele>9.333333333333334</ele><time>2026-04-06T06:08:09Z</time></trkpt><trkpt lat="40.371660740092295" lon="18.306965610070094"><ele>8.666666666666666</ele><time>2026-04-06T06:08:10Z</time></trkpt><trkpt lat="40.371807163751356" lon="18.306832380025142"><ele>8.0</ele><time>2026-04-06T06:08:11Z</time></trkpt><trkpt lat="40.3719560284423" lon="18.30670417778145"><ele>8.0</ele><time>2026-04-06T06:08:12Z</time></trkpt><trkpt lat="40.372105147464715" lon="18.306576457853154"><ele>8.0</ele><time>2026-04-06T06:08:13Z</time></trkpt><trkpt lat="40.37225613867869" lon="18.306459048214435"><ele>8.0</ele><time>2026-04-06T06:08:14Z</time></trkpt><trkpt lat="40.37239796257648" lon="18.30631004261302"><ele>7.333333333333333</ele><time>2026-04-06T06:08:15Z</time></trkpt><trkpt lat="40.37255382437352" lon="18.306169102400215"><ele>6.666666666666666</ele><time>2026-04-06T06:08:16Z</time></trkpt><trkpt lat="40.37272379623898" lon="18.306030339936356"><ele>6.0</ele><time>2026-04-06T06:08:17Z</time></trkpt><trkpt lat="40.37287745496971" lon="18.305893814866533"><ele>5.666666666666667</ele><time>2026-04-06T06:08:18Z</time></trkpt><trkpt lat="40.37303898930012" lon="18.305751014301435"><ele>5.333333333333334</ele><time>2026-04-06T06:08:19Z</time></trkpt><trkpt lat="40.37319404762907" lon="18.305613920283694"><ele>5.0</ele><time>2026-04-06T06:08:20Z</time></trkpt><trkpt lat="40.373352621091435" lon="18.305474607588877"><ele>5.0</ele><time>2026-04-06T06:08:21Z</time></trkpt><trkpt lat="40.37352089335338" lon="18.305327721506732"><ele>5.0</ele><time>2026-04-06T06:08:22Z</time></trkpt><trkpt lat="40.37368152196608" lon="18.30518750761519"><ele>5.0</ele><time>2026-04-06T06:08:23Z</time></trkpt><trkpt lat="40.373846960952896" lon="18.30504657186586"><ele>5.333333333333334</ele><time>2026-04-06T06:08:24Z</time></trkpt><trkpt lat="40.37402977908017" lon="18.3049044918298"><ele>5.666666666666667</ele><time>2026-04-06T06:08:25Z</time></trkpt><trkpt lat="40.374205295331464" lon="18.304781545260056"><ele>6.0</ele><time>2026-04-06T06:08:26Z</time></trkpt><trkpt lat="40.37439343551567" lon="18.304636939890596"><ele>6.0</ele><time>2026-04-06T06:08:27Z</time></trkpt><trkpt lat="40.37460438685544" lon="18.304532483406252"><ele>6.0</ele><time>2026-04-06T06:08:28Z</time></trkpt><trkpt lat="40.3748093669434" lon="18.30438696809668"><ele>7.0</ele><time>2026-04-06T06:08:29.001Z</time></trkpt><trkpt lat="40.37502268088482" lon="18.304281667261044"><ele>8.0</ele><time>2026-04-06T06:08:30.001Z</time></trkpt><trkpt lat="40.37523531354518" lon="18.304154168397595"><ele>8.0</ele><time>2026-04-06T06:08:31.001Z</time></trkpt><trkpt lat="40.375450292455085" lon="18.30402526267402"><ele>8.0</ele><time>2026-04-06T06:08:32.001Z</time></trkpt><trkpt lat="40.375668857324065" lon="18.303894581052834"><ele>5.5</ele><time>2026-04-06T06:08:33.001Z</time></trkpt><trkpt lat="40.37588371443969" lon="18.303766165884383"><ele>3.0</ele><time>2026-04-06T06:08:34.001Z</time></trkpt><trkpt lat="40.37609586791076" lon="18.303639099758744"><ele>3.0</ele><time>2026-04-06T06:08:35.001Z</time></trkpt><trkpt lat="40.37631213720864" lon="18.30350922935978"><ele>3.0</ele><time>2026-04-06T06:08:36.001Z</time></trkpt><trkpt lat="40.37652871225832" lon="18.30337900777833"><ele>3.5</ele><time>2026-04-06T06:08:37.001Z</time></trkpt><trkpt lat="40.37674845132089" lon="18.30324676996557"><ele>4.0</ele><time>2026-04-06T06:08:38.001Z</time></trkpt><trkpt lat="40.376963957111776" lon="18.303118139084795"><ele>3.5</ele><time>2026-04-06T06:08:39.001Z</time></trkpt><trkpt lat="40.377182893000516" lon="18.302987497454982"><ele>3.0</ele><time>2026-04-06T06:08:40.001Z</time></trkpt><trkpt lat="40.377402904236426" lon="18.302856039962954"><ele>3.0</ele><time>2026-04-06T06:08:41.001Z</time></trkpt><trkpt lat="40.37761715258917" lon="18.30272790919445"><ele>3.0</ele><time>2026-04-06T06:08:42.001Z</time></trkpt><trkpt lat="40.377825030197805" lon="18.30260358845486"><ele>3.333333333333333</ele><time>2026-04-06T06:08:43.001Z</time></trkpt><trkpt lat="40.37802384806797" lon="18.302484685844842"><ele>3.6666666666666665</ele><time>2026-04-06T06:08:44.001Z</time></trkpt><trkpt lat="40.378218431486125" lon="18.30236831565947"><ele>4.0</ele><time>2026-04-06T06:08:45.001Z</time></trkpt><trkpt lat="40.378403277060784" lon="18.302257769167877"><ele>4.0</ele><time>2026-04-06T06:08:46.001Z</time></trkpt><trkpt lat="40.3785881961725" lon="18.302146142453868"><ele>4.0</ele><time>2026-04-06T06:08:47.001Z</time></trkpt><trkpt lat="40.37877095884667" lon="18.302035780278192"><ele>4.0</ele><time>2026-04-06T06:08:48.001Z</time></trkpt><trkpt lat="40.378944777433645" lon="18.301930819040308"><ele>5.333333333333333</ele><time>2026-04-06T06:08:49.001Z</time></trkpt><trkpt lat="40.37911577006042" lon="18.301831402736724"><ele>6.666666666666666</ele><time>2026-04-06T06:08:50.001Z</time></trkpt><trkpt lat="40.37929696819658" lon="18.301733903165456"><ele>8.0</ele><time>2026-04-06T06:08:51.001Z</time></trkpt><trkpt lat="40.379484507957166" lon="18.301646572244316"><ele>8.0</ele><time>2026-04-06T06:08:52.001Z</time></trkpt><trkpt lat="40.379680775852286" lon="18.30156946817194"><ele>8.0</ele><time>2026-04-06T06:08:53.001Z</time></trkpt><trkpt lat="40.379888961788375" lon="18.301495109686755"><ele>8.0</ele><time>2026-04-06T06:08:54.001Z</time></trkpt><trkpt lat="40.3800999879603" lon="18.30142569629057"><ele>7.333333333333333</ele><time>2026-04-06T06:08:55.001Z</time></trkpt><trkpt lat="40.380319426523606" lon="18.30135374283879"><ele>6.666666666666666</ele><time>2026-04-06T06:08:56.001Z</time></trkpt><trkpt lat="40.380535984277245" lon="18.301282732912313"><ele>6.0</ele><time>2026-04-06T06:08:57.001Z</time></trkpt><trkpt lat="40.38073141068211" lon="18.30117292149336"><ele>6.0</ele><time>2026-04-06T06:08:58.001Z</time></trkpt><trkpt lat="40.38093175580266" lon="18.30110530045532"><ele>6.0</ele><time>2026-04-06T06:08:59.001Z</time></trkpt><trkpt lat="40.38112135803838" lon="18.301033324039945"><ele>6.0</ele><time>2026-04-06T06:09:00.001Z</time></trkpt><trkpt lat="40.38130567236954" lon="18.300944420442175"><ele>6.333333333333334</ele><time>2026-04-06T06:09:01.001Z</time></trkpt><trkpt lat="40.38148701860542" lon="18.3008338613188"><ele>6.666666666666667</ele><time>2026-04-06T06:09:02.001Z</time></trkpt><trkpt lat="40.38167034129769" lon="18.300703985367246"><ele>7.0</ele><time>2026-04-06T06:09:03.001Z</time></trkpt><trkpt lat="40.38185764334467" lon="18.30056082988083"><ele>7.0</ele><time>2026-04-06T06:09:04.001Z</time></trkpt><trkpt lat="40.38204838894829" lon="18.300421266125714"><ele>7.0</ele><time>2026-04-06T06:09:05.001Z</time></trkpt><trkpt lat="40.38223735163789" lon="18.300266161081385"><ele>7.0</ele><time>2026-04-06T06:09:06.001Z</time></trkpt><trkpt lat="40.38240029531887" lon="18.300099024247473"><ele>7.0</ele><time>2026-04-06T06:09:07.001Z</time></trkpt><trkpt lat="40.38255413781571" lon="18.299946854468462"><ele>7.0</ele><time>2026-04-06T06:09:08.001Z</time></trkpt><trkpt lat="40.38271499056404" lon="18.29981057704134"><ele>7.0</ele><time>2026-04-06T06:09:09.001Z</time></trkpt><trkpt lat="40.38285982480532" lon="18.299649448306425"><ele>6.333333333333334</ele><time>2026-04-06T06:09:10.001Z</time></trkpt><trkpt lat="40.382994226525206" lon="18.2994801343431"><ele>5.666666666666667</ele><time>2026-04-06T06:09:11.001Z</time></trkpt><trkpt lat="40.38312939903661" lon="18.29929084574927"><ele>5.0</ele><time>2026-04-06T06:09:12.001Z</time></trkpt><trkpt lat="40.38326054395699" lon="18.299085338986597"><ele>5.333333333333334</ele><time>2026-04-06T06:09:13.001Z</time></trkpt><trkpt lat="40.38338628809011" lon="18.29888185468057"><ele>5.666666666666667</ele><time>2026-04-06T06:09:14.001Z</time></trkpt><trkpt lat="40.383486472380774" lon="18.298687928349302"><ele>6.0</ele><time>2026-04-06T06:09:15.001Z</time></trkpt><trkpt lat="40.383592767280476" lon="18.298534288409442"><ele>6.0</ele><time>2026-04-06T06:09:16.001Z</time></trkpt><trkpt lat="40.38368761767322" lon="18.298373799017224"><ele>6.0</ele><time>2026-04-06T06:09:17.001Z</time></trkpt><trkpt lat="40.38378598589606" lon="18.298243941503767"><ele>6.0</ele><time>2026-04-06T06:09:18.001Z</time></trkpt><trkpt lat="40.38389902605769" lon="18.298135603674677"><ele>6.0</ele><time>2026-04-06T06:09:19.001Z</time></trkpt><trkpt lat="40.38401645241763" lon="18.29803179637893"><ele>6.0</ele><time>2026-04-06T06:09:20.001Z</time></trkpt><trkpt lat="40.38415425718218" lon="18.297939431160906"><ele>6.0</ele><time>2026-04-06T06:09:21.001Z</time></trkpt><trkpt lat="40.38430434412732" lon="18.297849884370052"><ele>6.0</ele><time>2026-04-06T06:09:22.001Z</time></trkpt><trkpt lat="40.38447839387317" lon="18.29778392009608"><ele>6.0</ele><time>2026-04-06T06:09:23.001Z</time></trkpt><trkpt lat="40.38465352276678" lon="18.297704423416"><ele>6.0</ele><time>2026-04-06T06:09:24.001Z</time></trkpt><trkpt lat="40.384829113795796" lon="18.29763121908091"><ele>6.0</ele><time>2026-04-06T06:09:25.001Z</time></trkpt><trkpt lat="40.38498753881622" lon="18.297555249607303"><ele>5.666666666666667</ele><time>2026-04-06T06:09:26.002Z</time></trkpt><trkpt lat="40.385158450514666" lon="18.297476038570363"><ele>5.333333333333334</ele><time>2026-04-06T06:09:27.002Z</time></trkpt><trkpt lat="40.385333924506355" lon="18.297407005325944"><ele>5.0</ele><time>2026-04-06T06:09:28.002Z</time></trkpt><trkpt lat="40.385501346143684" lon="18.29734009188588"><ele>5.0</ele><time>2026-04-06T06:09:29.002Z</time></trkpt><trkpt lat="40.385663764693405" lon="18.29725638595498"><ele>5.0</ele><time>2026-04-06T06:09:30.002Z</time></trkpt><trkpt lat="40.385832269268555" lon="18.297184869608596"><ele>5.0</ele><time>2026-04-06T06:09:31.002Z</time></trkpt><trkpt lat="40.38599753514303" lon="18.297115799208168"><ele>5.0</ele><time>2026-04-06T06:09:32.002Z</time></trkpt><trkpt lat="40.38616141742432" lon="18.29704325283725"><ele>5.0</ele><time>2026-04-06T06:09:33.002Z</time></trkpt><trkpt lat="40.38632727746318" lon="18.296968301342197"><ele>5.0</ele><time>2026-04-06T06:09:34.002Z</time></trkpt><trkpt lat="40.38649501491925" lon="18.2968948665907"><ele>4.333333333333334</ele><time>2026-04-06T06:09:35.002Z</time></trkpt><trkpt lat="40.3866539101723" lon="18.296820762773677"><ele>3.666666666666667</ele><time>2026-04-06T06:09:36.002Z</time></trkpt><trkpt lat="40.38680418049255" lon="18.296743686426264"><ele>3.0</ele><time>2026-04-06T06:09:37.002Z</time></trkpt><trkpt lat="40.38694261753374" lon="18.2966724934554"><ele>3.0</ele><time>2026-04-06T06:09:38.002Z</time></trkpt><trkpt lat="40.38707086174458" lon="18.296617020968732"><ele>3.0</ele><time>2026-04-06T06:09:39.002Z</time></trkpt><trkpt lat="40.387152094012094" lon="18.296563159169185"><ele>3.0</ele><time>2026-04-06T06:09:40.002Z</time></trkpt><trkpt lat="40.387229240132044" lon="18.296540202615873"><ele>3.0</ele><time>2026-04-06T06:09:41.002Z</time></trkpt><trkpt lat="40.38730440506016" lon="18.296501187342663"><ele>3.0</ele><time>2026-04-06T06:09:42.002Z</time></trkpt><trkpt lat="40.38741786320207" lon="18.29647481395439"><ele>3.1666666666666665</ele><time>2026-04-06T06:09:44.002Z</time></trkpt><trkpt lat="40.38748390685835" lon="18.296499643381704"><ele>3.333333333333333</ele><time>2026-04-06T06:09:46.002Z</time></trkpt><trkpt lat="40.3875683011026" lon="18.296608959092218"><ele>3.5</ele><time>2026-04-06T06:09:49.002Z</time></trkpt><trkpt lat="40.38759486576691" lon="18.29668424424062"><ele>3.6666666666666665</ele><time>2026-04-06T06:09:50.002Z</time></trkpt><trkpt lat="40.38762366601889" lon="18.296762474369864"><ele>3.833333333333333</ele><time>2026-04-06T06:09:51.002Z</time></trkpt><trkpt lat="40.38764727224683" lon="18.296875507060925"><ele>4.0</ele><time>2026-04-06T06:09:52.002Z</time></trkpt><trkpt lat="40.38767408574564" lon="18.297052283438067"><ele>4.0</ele><time>2026-04-06T06:09:53.002Z</time></trkpt><trkpt lat="40.387726593804274" lon="18.297226674134137"><ele>4.0</ele><time>2026-04-06T06:09:54.002Z</time></trkpt><trkpt lat="40.3877644234803" lon="18.29739567573235"><ele>4.0</ele><time>2026-04-06T06:09:55.002Z</time></trkpt><trkpt lat="40.387816865368215" lon="18.297578243077016"><ele>4.0</ele><time>2026-04-06T06:09:56.002Z</time></trkpt><trkpt lat="40.3878677444663" lon="18.297760077240937"><ele>4.0</ele><time>2026-04-06T06:09:57.002Z</time></trkpt><trkpt lat="40.38792956379698" lon="18.297957041493863"><ele>4.0</ele><time>2026-04-06T06:09:58.002Z</time></trkpt><trkpt lat="40.387982995640826" lon="18.298157371526973"><ele>4.0</ele><time>2026-04-06T06:09:59.002Z</time></trkpt><trkpt lat="40.3880449236324" lon="18.29837410744968"><ele>4.0</ele><time>2026-04-06T06:10:00.002Z</time></trkpt><trkpt lat="40.388107436565996" lon="18.298582890138384"><ele>4.0</ele><time>2026-04-06T06:10:01.002Z</time></trkpt><trkpt lat="40.38816329354755" lon="18.29878454000427"><ele>4.0</ele><time>2026-04-06T06:10:02.002Z</time></trkpt><trkpt lat="40.38822055513923" lon="18.298971609698874"><ele>3.75</ele><time>2026-04-06T06:10:03.002Z</time></trkpt><trkpt lat="40.38827322413544" lon="18.299142559024506"><ele>3.5</ele><time>2026-04-06T06:10:04.002Z</time></trkpt><trkpt lat="40.38831834425339" lon="18.299323741130916"><ele>3.25</ele><time>2026-04-06T06:10:05.002Z</time></trkpt><trkpt lat="40.38835704398371" lon="18.29952246477996"><ele>3.0</ele><time>2026-04-06T06:10:06.002Z</time></trkpt><trkpt lat="40.38840819400875" lon="18.299732426533314"><ele>3.0</ele><time>2026-04-06T06:10:07Z</time></trkpt><trkpt lat="40.38845806274236" lon="18.299935117099963"><ele>3.0</ele><time>2026-04-06T06:10:08Z</time></trkpt><trkpt lat="40.388522140502445" lon="18.300146990601284"><ele>3.0</ele><time>2026-04-06T06:10:09Z</time></trkpt><trkpt lat="40.38857023855826" lon="18.30034141595662"><ele>3.0</ele><time>2026-04-06T06:10:10Z</time></trkpt><trkpt lat="40.38862446144889" lon="18.300544506725313"><ele>3.0</ele><time>2026-04-06T06:10:11Z</time></trkpt><trkpt lat="40.38867271399808" lon="18.30073068804971"><ele>3.0</ele><time>2026-04-06T06:10:12Z</time></trkpt><trkpt lat="40.38872693169053" lon="18.30091952362054"><ele>3.0</ele><time>2026-04-06T06:10:13Z</time></trkpt><trkpt lat="40.388775149682395" lon="18.30109869777021"><ele>3.0</ele><time>2026-04-06T06:10:14Z</time></trkpt><trkpt lat="40.38881411974377" lon="18.301263938560833"><ele>3.0</ele><time>2026-04-06T06:10:15Z</time></trkpt><trkpt lat="40.38886106968335" lon="18.301423801980064"><ele>3.0</ele><time>2026-04-06T06:10:16Z</time></trkpt><trkpt lat="40.38890147881359" lon="18.301585225211518"><ele>2.75</ele><time>2026-04-06T06:10:17Z</time></trkpt><trkpt lat="40.388945289382804" lon="18.30174612611306"><ele>2.5</ele><time>2026-04-06T06:10:18Z</time></trkpt><trkpt lat="40.38899855037724" lon="18.30189868234931"><ele>2.25</ele><time>2026-04-06T06:10:19Z</time></trkpt><trkpt lat="40.389045696141636" lon="18.302065456175264"><ele>2.0</ele><time>2026-04-06T06:10:20Z</time></trkpt><trkpt lat="40.38909212451967" lon="18.302240055794453"><ele>2.0</ele><time>2026-04-06T06:10:21Z</time></trkpt><trkpt lat="40.389136295821224" lon="18.302410449845244"><ele>2.0</ele><time>2026-04-06T06:10:22Z</time></trkpt><trkpt lat="40.38917798375738" lon="18.30256625753281"><ele>2.0</ele><time>2026-04-06T06:10:23Z</time></trkpt><trkpt lat="40.38920931000251" lon="18.30271405319429"><ele>2.0</ele><time>2026-04-06T06:10:24Z</time></trkpt><trkpt lat="40.38924833491216" lon="18.302851584732394"><ele>2.0</ele><time>2026-04-06T06:10:25Z</time></trkpt><trkpt lat="40.38928638007449" lon="18.302980543925425"><ele>2.0</ele><time>2026-04-06T06:10:26Z</time></trkpt><trkpt lat="40.389321303629536" lon="18.30310467117126"><ele>2.0</ele><time>2026-04-06T06:10:27Z</time></trkpt><trkpt lat="40.38935311909455" lon="18.303234587653407"><ele>2.0</ele><time>2026-04-06T06:10:28Z</time></trkpt><trkpt lat="40.38939029666321" lon="18.303371149869506"><ele>2.0</ele><time>2026-04-06T06:10:29Z</time></trkpt><trkpt lat="40.38942443673684" lon="18.30351230190229"><ele>1.75</ele><time>2026-04-06T06:10:30Z</time></trkpt><trkpt lat="40.38946719831035" lon="18.303648681121842"><ele>1.5</ele><time>2026-04-06T06:10:31Z</time></trkpt><trkpt lat="40.38950626055315" lon="18.303800326972098"><ele>1.25</ele><time>2026-04-06T06:10:32Z</time></trkpt><trkpt lat="40.3895482757917" lon="18.30394688120232"><ele>1.0</ele><time>2026-04-06T06:10:33Z</time></trkpt><trkpt lat="40.38958621332887" lon="18.304088585576917"><ele>1.0</ele><time>2026-04-06T06:10:34Z</time></trkpt><trkpt lat="40.389620529306704" lon="18.30422453591624"><ele>1.0</ele><time>2026-04-06T06:10:35Z</time></trkpt><trkpt lat="40.389660133216076" lon="18.304364948629164"><ele>1.0</ele><time>2026-04-06T06:10:36Z</time></trkpt><trkpt lat="40.38969285334635" lon="18.304505958382663"><ele>1.0</ele><time>2026-04-06T06:10:37Z</time></trkpt><trkpt lat="40.389733065333985" lon="18.304647739109583"><ele>0.8333333333333333</ele><time>2026-04-06T06:10:38Z</time></trkpt><trkpt lat="40.38976407429961" lon="18.304774182185064"><ele>0.6666666666666666</ele><time>2026-04-06T06:10:39Z</time></trkpt><trkpt lat="40.38978705515154" lon="18.30488386250759"><ele>0.5</ele><time>2026-04-06T06:10:40.001Z</time></trkpt><trkpt lat="40.38980888139803" lon="18.304983211761037"><ele>0.3333333333333333</ele><time>2026-04-06T06:10:41.001Z</time></trkpt><trkpt lat="40.389823080796916" lon="18.30508248690214"><ele>0.16666666666666666</ele><time>2026-04-06T06:10:42.001Z</time></trkpt><trkpt lat="40.38982354829712" lon="18.30517080472096"><ele>0.0</ele><time>2026-04-06T06:10:43.001Z</time></trkpt><trkpt lat="40.389798834746685" lon="18.30525706781675"><ele>0.0</ele><time>2026-04-06T06:10:44.001Z</time></trkpt><trkpt lat="40.389760419049246" lon="18.305342718533975"><ele>0.0</ele><time>2026-04-06T06:10:45.001Z</time></trkpt><trkpt lat="40.38970552212986" lon="18.305414316320544"><ele>0.0</ele><time>2026-04-06T06:10:46.001Z</time></trkpt><trkpt lat="40.389648602664536" lon="18.30547414619371"><ele>0.0</ele><time>2026-04-06T06:10:47.001Z</time></trkpt><trkpt lat="40.38959086454602" lon="18.30561289759322"><ele>0.0</ele><time>2026-04-06T06:10:49.001Z</time></trkpt><trkpt lat="40.38959167330091" lon="18.305706841289158"><ele>0.0</ele><time>2026-04-06T06:10:50.001Z</time></trkpt><trkpt lat="40.389609984210495" lon="18.305792785856706"><ele>0.0</ele><time>2026-04-06T06:10:51.001Z</time></trkpt><trkpt lat="40.38965014788795" lon="18.305867243250432"><ele>0.0</ele><time>2026-04-06T06:10:52.001Z</time></trkpt><trkpt lat="40.389702465894324" lon="18.30592877399244"><ele>0.0</ele><time>2026-04-06T06:10:53.001Z</time></trkpt><trkpt lat="40.38976018458254" lon="18.30596763275651"><ele>0.0</ele><time>2026-04-06T06:10:54.001Z</time></trkpt><trkpt lat="40.389825899575534" lon="18.305969933469534"><ele>0.0</ele><time>2026-04-06T06:10:55.001Z</time></trkpt><trkpt lat="40.38995344756034" lon="18.30590707006924"><ele>0.0</ele><time>2026-04-06T06:10:57.001Z</time></trkpt><trkpt lat="40.390020924998936" lon="18.305845515172805"><ele>0.0</ele><time>2026-04-06T06:10:58.001Z</time></trkpt><trkpt lat="40.39008914490042" lon="18.30578179597744"><ele>0.0</ele><time>2026-04-06T06:10:59.001Z</time></trkpt><trkpt lat="40.39017300951063" lon="18.305723699005704"><ele>0.0</ele><time>2026-04-06T06:11:00.001Z</time></trkpt><trkpt lat="40.3902531485369" lon="18.305674940509988"><ele>0.0</ele><time>2026-04-06T06:11:01.001Z</time></trkpt><trkpt lat="40.39033471158566" lon="18.305626365883484"><ele>0.0</ele><time>2026-04-06T06:11:02.001Z</time></trkpt><trkpt lat="40.39041529578557" lon="18.305589913385827"><ele>0.0</ele><time>2026-04-06T06:11:03.001Z</time></trkpt><trkpt lat="40.390491391398974" lon="18.305549382191312"><ele>0.16666666666666666</ele><time>2026-04-06T06:11:04.001Z</time></trkpt><trkpt lat="40.390572229333245" lon="18.305513624673985"><ele>0.3333333333333333</ele><time>2026-04-06T06:11:05.001Z</time></trkpt><trkpt lat="40.390650273822786" lon="18.3054785835694"><ele>0.5</ele><time>2026-04-06T06:11:06.001Z</time></trkpt><trkpt lat="40.39072615926113" lon="18.30544229536602"><ele>0.6666666666666666</ele><time>2026-04-06T06:11:07.001Z</time></trkpt><trkpt lat="40.390803023458496" lon="18.305399743200102"><ele>0.8333333333333333</ele><time>2026-04-06T06:11:08.001Z</time></trkpt><trkpt lat="40.3908888335583" lon="18.305353226283316"><ele>1.0</ele><time>2026-04-06T06:11:09.001Z</time></trkpt><trkpt lat="40.39097501925087" lon="18.30530933395102"><ele>1.0</ele><time>2026-04-06T06:11:10.001Z</time></trkpt><trkpt lat="40.39106638494214" lon="18.305266101152167"><ele>1.0</ele><time>2026-04-06T06:11:11.001Z</time></trkpt><trkpt lat="40.391157212586656" lon="18.305221930341997"><ele>1.0</ele><time>2026-04-06T06:11:12.001Z</time></trkpt><trkpt lat="40.39124807145934" lon="18.305177905384337"><ele>1.0</ele><time>2026-04-06T06:11:13.001Z</time></trkpt><trkpt lat="40.39133487628087" lon="18.305132242316013"><ele>1.0</ele><time>2026-04-06T06:11:14.001Z</time></trkpt><trkpt lat="40.39142223001493" lon="18.305092200059423"><ele>0.9999999999999999</ele><time>2026-04-06T06:11:15.001Z</time></trkpt><trkpt lat="40.391501834580765" lon="18.305051104003056"><ele>1.0</ele><time>2026-04-06T06:11:16.001Z</time></trkpt><trkpt lat="40.391569819337825" lon="18.305019625939956"><ele>1.0</ele><time>2026-04-06T06:11:17.001Z</time></trkpt><trkpt lat="40.391627760307614" lon="18.304984827537453"><ele>1.0</ele><time>2026-04-06T06:11:18.001Z</time></trkpt><trkpt lat="40.39172631936246" lon="18.304904721407194"><ele>0.9999999999999999</ele><time>2026-04-06T06:11:20.001Z</time></trkpt><trkpt lat="40.39174406168694" lon="18.304822575643204"><ele>1.0</ele><time>2026-04-06T06:11:21.001Z</time></trkpt><trkpt lat="40.39172141841505" lon="18.30473644215454"><ele>0.8333333333333333</ele><time>2026-04-06T06:11:22.001Z</time></trkpt><trkpt lat="40.391700302047255" lon="18.304646083011843"><ele>0.6666666666666666</ele><time>2026-04-06T06:11:23.001Z</time></trkpt><trkpt lat="40.3916761671082" lon="18.304543424696355"><ele>0.5</ele><time>2026-04-06T06:11:24.001Z</time></trkpt><trkpt lat="40.391646724460784" lon="18.304451754463216"><ele>0.3333333333333333</ele><time>2026-04-06T06:11:25.001Z</time></trkpt><trkpt lat="40.39161588811949" lon="18.30435624335309"><ele>0.16666666666666666</ele><time>2026-04-06T06:11:26.001Z</time></trkpt><trkpt lat="40.39159023488898" lon="18.304265002108103"><ele>0.0</ele><time>2026-04-06T06:11:27.001Z</time></trkpt><trkpt lat="40.391571342292416" lon="18.304178626500285"><ele>0.0</ele><time>2026-04-06T06:11:28.001Z</time></trkpt><trkpt lat="40.39155957768047" lon="18.304044914524944"><ele>0.0</ele><time>2026-04-06T06:11:30.001Z</time></trkpt><trkpt lat="40.391701073539174" lon="18.30390541019025"><ele>0.0</ele><time>2026-04-06T06:11:32.001Z</time></trkpt><trkpt lat="40.391778988865966" lon="18.30385593667024"><ele>0.0</ele><time>2026-04-06T06:11:33.001Z</time></trkpt><trkpt lat="40.39186299365944" lon="18.30380632139127"><ele>0.0</ele><time>2026-04-06T06:11:34.001Z</time></trkpt><trkpt lat="40.39194318993664" lon="18.30375722901568"><ele>0.0</ele><time>2026-04-06T06:11:35.001Z</time></trkpt><trkpt lat="40.39202666246419" lon="18.303703522494228"><ele>0.0</ele><time>2026-04-06T06:11:36.001Z</time></trkpt><trkpt lat="40.39210435426472" lon="18.303634359133223"><ele>0.0</ele><time>2026-04-06T06:11:37.001Z</time></trkpt><trkpt lat="40.39218464486696" lon="18.303560170263637"><ele>0.0</ele><time>2026-04-06T06:11:38.001Z</time></trkpt><trkpt lat="40.392266398936606" lon="18.303479742160473"><ele>0.0</ele><time>2026-04-06T06:11:39.001Z</time></trkpt><trkpt lat="40.39234523027739" lon="18.303385604227046"><ele>0.0</ele><time>2026-04-06T06:11:40.001Z</time></trkpt><trkpt lat="40.392413115467846" lon="18.303261453957596"><ele>0.0</ele><time>2026-04-06T06:11:41.002Z</time></trkpt><trkpt lat="40.392496172974795" lon="18.303146980648172"><ele>0.0</ele><time>2026-04-06T06:11:42.002Z</time></trkpt><trkpt lat="40.39257818130485" lon="18.303035681253082"><ele>0.0</ele><time>2026-04-06T06:11:43.002Z</time></trkpt><trkpt lat="40.39266616274068" lon="18.302916318031787"><ele>0.0</ele><time>2026-04-06T06:11:44.002Z</time></trkpt><trkpt lat="40.392752062493464" lon="18.30280646415227"><ele>0.0</ele><time>2026-04-06T06:11:45.002Z</time></trkpt><trkpt lat="40.39283593280639" lon="18.302695988312532"><ele>0.0</ele><time>2026-04-06T06:11:46.002Z</time></trkpt><trkpt lat="40.39291547036431" lon="18.302583990536586"><ele>0.0</ele><time>2026-04-06T06:11:47.002Z</time></trkpt><trkpt lat="40.392994109928914" lon="18.30247573119309"><ele>0.0</ele><time>2026-04-06T06:11:48.002Z</time></trkpt><trkpt lat="40.393069537297606" lon="18.302372169226118"><ele>0.0</ele><time>2026-04-06T06:11:49.002Z</time></trkpt><trkpt lat="40.393144872700375" lon="18.302267935063306"><ele>0.0</ele><time>2026-04-06T06:11:50.002Z</time></trkpt><trkpt lat="40.39322201897595" lon="18.30216683291389"><ele>0.0</ele><time>2026-04-06T06:11:51.002Z</time></trkpt><trkpt lat="40.393286330452895" lon="18.302065100845745"><ele>0.0</ele><time>2026-04-06T06:11:52.002Z</time></trkpt><trkpt lat="40.39335557168466" lon="18.30196516325535"><ele>0.0</ele><time>2026-04-06T06:11:53.002Z</time></trkpt><trkpt lat="40.393427816490174" lon="18.301857848458"><ele>0.0</ele><time>2026-04-06T06:11:54.002Z</time></trkpt><trkpt lat="40.39350123237717" lon="18.301749071231036"><ele>0.0</ele><time>2026-04-06T06:11:55.002Z</time></trkpt><trkpt lat="40.39358672886038" lon="18.301663100567204"><ele>0.0</ele><time>2026-04-06T06:11:56.002Z</time></trkpt><trkpt lat="40.39366286054798" lon="18.30156000419807"><ele>0.0</ele><time>2026-04-06T06:11:57.002Z</time></trkpt><trkpt lat="40.393736983300066" lon="18.30146526404286"><ele>0.0</ele><time>2026-04-06T06:11:58.002Z</time></trkpt><trkpt lat="40.39381229957328" lon="18.30138198767315"><ele>0.0</ele><time>2026-04-06T06:11:59.002Z</time></trkpt><trkpt lat="40.39389095843418" lon="18.30129319435876"><ele>0.0</ele><time>2026-04-06T06:12:00.002Z</time></trkpt><trkpt lat="40.39396516480445" lon="18.30120711469325"><ele>0.0</ele><time>2026-04-06T06:12:01.002Z</time></trkpt><trkpt lat="40.39403479577918" lon="18.30111790613577"><ele>0.2</ele><time>2026-04-06T06:12:02.002Z</time></trkpt><trkpt lat="40.394103111852715" lon="18.301025300488817"><ele>0.4</ele><time>2026-04-06T06:12:03.002Z</time></trkpt><trkpt lat="40.39417203412178" lon="18.300919587534196"><ele>0.6000000000000001</ele><time>2026-04-06T06:12:04.002Z</time></trkpt><trkpt lat="40.39424077421825" lon="18.30080296186069"><ele>0.8</ele><time>2026-04-06T06:12:05.002Z</time></trkpt><trkpt lat="40.394314521640425" lon="18.30069203994641"><ele>1.0</ele><time>2026-04-06T06:12:06.002Z</time></trkpt><trkpt lat="40.39439035823933" lon="18.3005835755625"><ele>1.0</ele><time>2026-04-06T06:12:07.002Z</time></trkpt><trkpt lat="40.39446393304451" lon="18.300482349611283"><ele>1.0</ele><time>2026-04-06T06:12:08.002Z</time></trkpt><trkpt lat="40.39453474022576" lon="18.300385203883938"><ele>1.0</ele><time>2026-04-06T06:12:09.002Z</time></trkpt><trkpt lat="40.39460688812614" lon="18.30029015890883"><ele>1.0</ele><time>2026-04-06T06:12:10.002Z</time></trkpt><trkpt lat="40.39467652566374" lon="18.300199721344622"><ele>1.0</ele><time>2026-04-06T06:12:11.002Z</time></trkpt><trkpt lat="40.39475424973629" lon="18.300127205207325"><ele>0.9999999999999999</ele><time>2026-04-06T06:12:12.002Z</time></trkpt><trkpt lat="40.39481741929403" lon="18.3000455672783"><ele>1.0</ele><time>2026-04-06T06:12:13Z</time></trkpt><trkpt lat="40.394873019649886" lon="18.299973711510322"><ele>1.0</ele><time>2026-04-06T06:12:14Z</time></trkpt><trkpt lat="40.39492001901955" lon="18.29991297132982"><ele>1.0</ele><time>2026-04-06T06:12:15Z</time></trkpt><trkpt lat="40.39498335715005" lon="18.299791799589713"><ele>0.9999999999999999</ele><time>2026-04-06T06:12:17Z</time></trkpt><trkpt lat="40.395042408579485" lon="18.29970284271481"><ele>1.0</ele><time>2026-04-06T06:12:19Z</time></trkpt><trkpt lat="40.395049557046754" lon="18.299609117215972"><ele>1.0</ele><time>2026-04-06T06:12:21Z</time></trkpt><trkpt lat="40.39499388633607" lon="18.299506661990964"><ele>1.0</ele><time>2026-04-06T06:12:23Z</time></trkpt><trkpt lat="40.394897982334726" lon="18.29945204951617"><ele>1.0</ele><time>2026-04-06T06:12:25Z</time></trkpt><trkpt lat="40.39481471741732" lon="18.299361189832073"><ele>1.0</ele><time>2026-04-06T06:12:27Z</time></trkpt><trkpt lat="40.394755015393656" lon="18.299274592288587"><ele>1.0</ele><time>2026-04-06T06:12:29Z</time></trkpt><trkpt lat="40.39471682820173" lon="18.299175752565287"><ele>1.0</ele><time>2026-04-06T06:12:31Z</time></trkpt><trkpt lat="40.394660805158686" lon="18.299097169632773"><ele>1.0</ele><time>2026-04-06T06:12:33Z</time></trkpt><trkpt lat="40.39472404780158" lon="18.29895105586296"><ele>1.0</ele><time>2026-04-06T06:12:35Z</time></trkpt><trkpt lat="40.394750384669706" lon="18.29882820516461"><ele>1.0</ele><time>2026-04-06T06:12:37Z</time></trkpt><trkpt lat="40.394807140978166" lon="18.29871069612109"><ele>1.0</ele><time>2026-04-06T06:12:39Z</time></trkpt><trkpt lat="40.39486098515591" lon="18.298592024667705"><ele>0.6666666666666666</ele><time>2026-04-06T06:12:41Z</time></trkpt><trkpt lat="40.39490825292641" lon="18.298471442358245"><ele>0.3333333333333333</ele><time>2026-04-06T06:12:43Z</time></trkpt><trkpt lat="40.39493854609504" lon="18.298367687659155"><ele>0.0</ele><time>2026-04-06T06:12:45Z</time></trkpt><trkpt lat="40.394980844768455" lon="18.298287211614362"><ele>-0.3333333333333333</ele><time>2026-04-06T06:12:47Z</time></trkpt><trkpt lat="40.39491052296635" lon="18.298208384308822"><ele>-0.6666666666666666</ele><time>2026-04-06T06:12:48.001Z</time></trkpt><trkpt lat="40.394837977691786" lon="18.29813332681842"><ele>-1.0</ele><time>2026-04-06T06:12:50.001Z</time></trkpt><trkpt lat="40.39475071450922" lon="18.29809351620699"><ele>-1.0</ele><time>2026-04-06T06:12:52.001Z</time></trkpt><trkpt lat="40.394681878168676" lon="18.29803832755004"><ele>-1.0</ele><time>2026-04-06T06:12:54.001Z</time></trkpt><trkpt lat="40.39453285651606" lon="18.298231237767034"><ele>-1.0</ele><time>2026-04-06T06:12:57.001Z</time></trkpt><trkpt lat="40.394469448901766" lon="18.29837713884798"><ele>-1.0</ele><time>2026-04-06T06:12:59.001Z</time></trkpt><trkpt lat="40.39443810398868" lon="18.29845647350388"><ele>-0.49999999999999994</ele><time>2026-04-06T06:13:00.001Z</time></trkpt><trkpt lat="40.3944109359405" lon="18.29853839503814"><ele>0.0</ele><time>2026-04-06T06:13:01.001Z</time></trkpt><trkpt lat="40.394387245850716" lon="18.298615947812007"><ele>0.5</ele><time>2026-04-06T06:13:02.001Z</time></trkpt><trkpt lat="40.39433894127065" lon="18.2987352035984"><ele>1.0</ele><time>2026-04-06T06:13:04.001Z</time></trkpt><trkpt lat="40.394323860821906" lon="18.298829561967647"><ele>1.4999999999999998</ele><time>2026-04-06T06:13:06.001Z</time></trkpt><trkpt lat="40.394420460917665" lon="18.298953191009442"><ele>2.0</ele><time>2026-04-06T06:13:08.001Z</time></trkpt><trkpt lat="40.39453218725991" lon="18.299035543836975"><ele>2.1666666666666665</ele><time>2026-04-06T06:13:10.001Z</time></trkpt><trkpt lat="40.394585251965125" lon="18.299102001033965"><ele>2.333333333333333</ele><time>2026-04-06T06:13:11.001Z</time></trkpt><trkpt lat="40.39463690050543" lon="18.299176221751765"><ele>2.5</ele><time>2026-04-06T06:13:12.001Z</time></trkpt><trkpt lat="40.394688332722126" lon="18.29926404133089"><ele>2.6666666666666665</ele><time>2026-04-06T06:13:13.001Z</time></trkpt><trkpt lat="40.394752203818676" lon="18.29936400049528"><ele>2.8333333333333335</ele><time>2026-04-06T06:13:14.001Z</time></trkpt><trkpt lat="40.394820208265436" lon="18.29944493942644"><ele>3.0</ele><time>2026-04-06T06:13:15.001Z</time></trkpt><trkpt lat="40.39488302768202" lon="18.299507658994532"><ele>2.6</ele><time>2026-04-06T06:13:16.001Z</time></trkpt><trkpt lat="40.39493732302422" lon="18.29955724894748"><ele>2.1999999999999997</ele><time>2026-04-06T06:13:17.001Z</time></trkpt><trkpt lat="40.39499238499666" lon="18.299657197286034"><ele>1.8</ele><time>2026-04-06T06:13:19.001Z</time></trkpt><trkpt lat="40.39497850022045" lon="18.299794813711586"><ele>1.4</ele><time>2026-04-06T06:13:21.001Z</time></trkpt><trkpt lat="40.39487502788259" lon="18.299909849895187"><ele>1.0</ele><time>2026-04-06T06:13:23.001Z</time></trkpt><trkpt lat="40.3948088112236" lon="18.299995425738803"><ele>1.0</ele><time>2026-04-06T06:13:24.001Z</time></trkpt><trkpt lat="40.39474785706605" lon="18.30010359766207"><ele>1.0</ele><time>2026-04-06T06:13:25.001Z</time></trkpt><trkpt lat="40.394655069944946" lon="18.300190258314924"><ele>1.0</ele><time>2026-04-06T06:13:26.001Z</time></trkpt><trkpt lat="40.394572631910485" lon="18.300314888701962"><ele>1.0</ele><time>2026-04-06T06:13:27.001Z</time></trkpt><trkpt lat="40.3944755525105" lon="18.30042611656087"><ele>1.0</ele><time>2026-04-06T06:13:28.001Z</time></trkpt><trkpt lat="40.394377541555194" lon="18.30054480562935"><ele>1.0</ele><time>2026-04-06T06:13:29.001Z</time></trkpt><trkpt lat="40.394274309416886" lon="18.300672452202125"><ele>1.0</ele><time>2026-04-06T06:13:30.001Z</time></trkpt><trkpt lat="40.3941781575186" lon="18.300812665231895"><ele>1.0</ele><time>2026-04-06T06:13:31.001Z</time></trkpt><trkpt lat="40.3940801846807" lon="18.300957321585994"><ele>1.0</ele><time>2026-04-06T06:13:32.001Z</time></trkpt><trkpt lat="40.39397974721792" lon="18.30108963924353"><ele>1.0</ele><time>2026-04-06T06:13:33.001Z</time></trkpt><trkpt lat="40.3938687720796" lon="18.301223622552623"><ele>1.0</ele><time>2026-04-06T06:13:34.001Z</time></trkpt><trkpt lat="40.393764990711034" lon="18.301368423627082"><ele>1.0</ele><time>2026-04-06T06:13:35.001Z</time></trkpt><trkpt lat="40.393655315028816" lon="18.301512772239246"><ele>0.75</ele><time>2026-04-06T06:13:36.001Z</time></trkpt><trkpt lat="40.39355295917182" lon="18.30164611779944"><ele>0.5</ele><time>2026-04-06T06:13:37.001Z</time></trkpt><trkpt lat="40.393455216970125" lon="18.301778419778348"><ele>0.25</ele><time>2026-04-06T06:13:38.001Z</time></trkpt><trkpt lat="40.39335369739578" lon="18.301901671997996"><ele>0.0</ele><time>2026-04-06T06:13:39.001Z</time></trkpt><trkpt lat="40.393252912296916" lon="18.302027858912986"><ele>0.0</ele><time>2026-04-06T06:13:40.001Z</time></trkpt><trkpt lat="40.3931579153615" lon="18.302158011802746"><ele>0.0</ele><time>2026-04-06T06:13:41.001Z</time></trkpt><trkpt lat="40.39306614314815" lon="18.30228107988841"><ele>0.0</ele><time>2026-04-06T06:13:42.001Z</time></trkpt><trkpt lat="40.392960132421976" lon="18.302419981532918"><ele>0.0</ele><time>2026-04-06T06:13:43.001Z</time></trkpt><trkpt lat="40.392845645051466" lon="18.302565826241125"><ele>0.0</ele><time>2026-04-06T06:13:44.001Z</time></trkpt><trkpt lat="40.39272957522067" lon="18.30271458264409"><ele>0.0</ele><time>2026-04-06T06:13:45.001Z</time></trkpt><trkpt lat="40.39261272506982" lon="18.302870685508424"><ele>0.0</ele><time>2026-04-06T06:13:46.001Z</time></trkpt><trkpt lat="40.392495426492914" lon="18.303032696272783"><ele>0.0</ele><time>2026-04-06T06:13:47.001Z</time></trkpt><trkpt lat="40.39240118323791" lon="18.30318347990934"><ele>0.0</ele><time>2026-04-06T06:13:48.001Z</time></trkpt><trkpt lat="40.392310624236686" lon="18.303301539846995"><ele>0.0</ele><time>2026-04-06T06:13:49.002Z</time></trkpt><trkpt lat="40.39220269169373" lon="18.303440737822466"><ele>0.0</ele><time>2026-04-06T06:13:50.002Z</time></trkpt><trkpt lat="40.39210611029844" lon="18.30355786778051"><ele>0.0</ele><time>2026-04-06T06:13:51.002Z</time></trkpt><trkpt lat="40.39200790375105" lon="18.303646943628234"><ele>0.0</ele><time>2026-04-06T06:13:52.002Z</time></trkpt><trkpt lat="40.39189122071085" lon="18.303731429000926"><ele>0.0</ele><time>2026-04-06T06:13:53.002Z</time></trkpt><trkpt lat="40.39178943553607" lon="18.30379684750301"><ele>0.0</ele><time>2026-04-06T06:13:54.002Z</time></trkpt><trkpt lat="40.391697342876064" lon="18.30384331007251"><ele>0.0</ele><time>2026-04-06T06:13:55.002Z</time></trkpt><trkpt lat="40.39162763164514" lon="18.303883681752904"><ele>0.0</ele><time>2026-04-06T06:13:56.002Z</time></trkpt><trkpt lat="40.391563611035274" lon="18.303932563274508"><ele>0.0</ele><time>2026-04-06T06:13:58.002Z</time></trkpt><trkpt lat="40.39152874254874" lon="18.30415665722542"><ele>0.0</ele><time>2026-04-06T06:14:02.002Z</time></trkpt><trkpt lat="40.39155686118249" lon="18.304273780296523"><ele>0.0</ele><time>2026-04-06T06:14:03.002Z</time></trkpt><trkpt lat="40.39158355449348" lon="18.304407136349745"><ele>0.0</ele><time>2026-04-06T06:14:04.002Z</time></trkpt><trkpt lat="40.391609805400655" lon="18.304524765801272"><ele>0.0</ele><time>2026-04-06T06:14:05.002Z</time></trkpt><trkpt lat="40.39163975886952" lon="18.304619158129697"><ele>0.0</ele><time>2026-04-06T06:14:06.002Z</time></trkpt><trkpt lat="40.39168334016067" lon="18.304786064860977"><ele>0.0</ele><time>2026-04-06T06:14:08.002Z</time></trkpt><trkpt lat="40.39163619917371" lon="18.30492557934232"><ele>0.0</ele><time>2026-04-06T06:14:10.002Z</time></trkpt><trkpt lat="40.391557847789414" lon="18.304976941947203"><ele>0.2</ele><time>2026-04-06T06:14:11.002Z</time></trkpt><trkpt lat="40.39147585846302" lon="18.305031725427646"><ele>0.4</ele><time>2026-04-06T06:14:12.002Z</time></trkpt><trkpt lat="40.39137550197926" lon="18.30508200600264"><ele>0.6000000000000001</ele><time>2026-04-06T06:14:13.002Z</time></trkpt><trkpt lat="40.39127018215649" lon="18.305134622994462"><ele>0.8</ele><time>2026-04-06T06:14:14.002Z</time></trkpt><trkpt lat="40.391162081365685" lon="18.305188604004233"><ele>1.0</ele><time>2026-04-06T06:14:15.002Z</time></trkpt><trkpt lat="40.39104605890143" lon="18.305246540752407"><ele>1.0</ele><time>2026-04-06T06:14:16.002Z</time></trkpt><trkpt lat="40.39094371029788" lon="18.30529588204932"><ele>1.0</ele><time>2026-04-06T06:14:17.002Z</time></trkpt><trkpt lat="40.390837188322955" lon="18.3053472890431"><ele>1.0</ele><time>2026-04-06T06:14:18.002Z</time></trkpt><trkpt lat="40.390736305710845" lon="18.305396912915832"><ele>1.0</ele><time>2026-04-06T06:14:19Z</time></trkpt><trkpt lat="40.39063661924819" lon="18.305445673470473"><ele>1.0</ele><time>2026-04-06T06:14:20Z</time></trkpt><trkpt lat="40.39055744368881" lon="18.30548440133756"><ele>0.8</ele><time>2026-04-06T06:14:21Z</time></trkpt><trkpt lat="40.390459974009694" lon="18.305531231208562"><ele>0.6000000000000001</ele><time>2026-04-06T06:14:23Z</time></trkpt><trkpt lat="40.39039469676627" lon="18.305617557733388"><ele>0.4</ele><time>2026-04-06T06:14:24Z</time></trkpt><trkpt lat="40.390339559553404" lon="18.305478584435694"><ele>0.2</ele><time>2026-04-06T06:14:25Z</time></trkpt><trkpt lat="40.390263233124244" lon="18.30546299367056"><ele>0.0</ele><time>2026-04-06T06:14:26Z</time></trkpt><trkpt lat="40.39018860932729" lon="18.305434740647925"><ele>0.0</ele><time>2026-04-06T06:14:27Z</time></trkpt><trkpt lat="40.39012565729404" lon="18.305423409035555"><ele>0.0</ele><time>2026-04-06T06:14:28Z</time></trkpt><trkpt lat="40.390032573757956" lon="18.305407581608993"><ele>0.0</ele><time>2026-04-06T06:14:30Z</time></trkpt><trkpt lat="40.38996357690074" lon="18.305331018483436"><ele>0.0</ele><time>2026-04-06T06:14:32Z</time></trkpt><trkpt lat="40.3899470539232" lon="18.305242102835756"><ele>0.0</ele><time>2026-04-06T06:14:33Z</time></trkpt><trkpt lat="40.38994285729441" lon="18.30512254173517"><ele>0.0</ele><time>2026-04-06T06:14:34Z</time></trkpt><trkpt lat="40.389902236823836" lon="18.304984032419764"><ele>0.0</ele><time>2026-04-06T06:14:35Z</time></trkpt><trkpt lat="40.38986993701637" lon="18.30485578781843"><ele>0.0</ele><time>2026-04-06T06:14:36Z</time></trkpt><trkpt lat="40.38984076628484" lon="18.304714008344487"><ele>0.0</ele><time>2026-04-06T06:14:37Z</time></trkpt><trkpt lat="40.38980879087145" lon="18.304567968500415"><ele>0.0</ele><time>2026-04-06T06:14:38Z</time></trkpt><trkpt lat="40.389768678935795" lon="18.30442691878665"><ele>0.0</ele><time>2026-04-06T06:14:39Z</time></trkpt><trkpt lat="40.38973087350557" lon="18.304269727279685"><ele>0.2</ele><time>2026-04-06T06:14:40Z</time></trkpt><trkpt lat="40.38970052454134" lon="18.304127889903203"><ele>0.4</ele><time>2026-04-06T06:14:41Z</time></trkpt><trkpt lat="40.38966538087756" lon="18.30399454020001"><ele>0.6000000000000001</ele><time>2026-04-06T06:14:42Z</time></trkpt><trkpt lat="40.38962850772411" lon="18.303866588761377"><ele>0.8</ele><time>2026-04-06T06:14:43Z</time></trkpt><trkpt lat="40.38958915937963" lon="18.30375271056052"><ele>1.0</ele><time>2026-04-06T06:14:44Z</time></trkpt><trkpt lat="40.38956230514206" lon="18.303654009244248"><ele>1.1666666666666665</ele><time>2026-04-06T06:14:45Z</time></trkpt><trkpt lat="40.38954125069562" lon="18.303572476257433"><ele>1.3333333333333333</ele><time>2026-04-06T06:14:46Z</time></trkpt><trkpt lat="40.38950852765525" lon="18.30346879728078"><ele>1.5</ele><time>2026-04-06T06:14:48Z</time></trkpt><trkpt lat="40.38948599551683" lon="18.303387742182437"><ele>1.6666666666666665</ele><time>2026-04-06T06:14:53Z</time></trkpt><trkpt lat="40.389454203923684" lon="18.303207000743775"><ele>1.8333333333333333</ele><time>2026-04-06T06:15:31.001Z</time></trkpt><trkpt lat="40.38942884269193" lon="18.303108160153517"><ele>2.0</ele><time>2026-04-06T06:15:32.001Z</time></trkpt><trkpt lat="40.38939717057182" lon="18.30298831926912"><ele>2.0</ele><time>2026-04-06T06:15:33.001Z</time></trkpt><trkpt lat="40.38935536105678" lon="18.30286269170961"><ele>2.0</ele><time>2026-04-06T06:15:34.001Z</time></trkpt><trkpt lat="40.389307186845144" lon="18.302732259040454"><ele>2.0</ele><time>2026-04-06T06:15:35.001Z</time></trkpt><trkpt lat="40.389264215864515" lon="18.302587037565857"><ele>2.0</ele><time>2026-04-06T06:15:36.001Z</time></trkpt><trkpt lat="40.389219012667" lon="18.302428494716334"><ele>2.0</ele><time>2026-04-06T06:15:37.001Z</time></trkpt><trkpt lat="40.38916946982311" lon="18.302265279218403"><ele>2.0</ele><time>2026-04-06T06:15:38.001Z</time></trkpt><trkpt lat="40.38912524305977" lon="18.30209575816118"><ele>2.0</ele><time>2026-04-06T06:15:39.001Z</time></trkpt><trkpt lat="40.38907505866384" lon="18.30192616329724"><ele>2.0</ele><time>2026-04-06T06:15:40.001Z</time></trkpt><trkpt lat="40.389037515068786" lon="18.301741559101295"><ele>2.0</ele><time>2026-04-06T06:15:41.001Z</time></trkpt><trkpt lat="40.388982353092764" lon="18.30155934229998"><ele>2.0</ele><time>2026-04-06T06:15:42.001Z</time></trkpt><trkpt lat="40.388927846457186" lon="18.30138410698526"><ele>2.0</ele><time>2026-04-06T06:15:43.001Z</time></trkpt><trkpt lat="40.38888663982909" lon="18.301237482546213"><ele>2.0</ele><time>2026-04-06T06:15:44.001Z</time></trkpt><trkpt lat="40.3888626283498" lon="18.30109157216294"><ele>2.25</ele><time>2026-04-06T06:15:45.001Z</time></trkpt><trkpt lat="40.388821134755034" lon="18.300960437067374"><ele>2.5</ele><time>2026-04-06T06:15:46.001Z</time></trkpt><trkpt lat="40.38878704067625" lon="18.300828000483023"><ele>2.75</ele><time>2026-04-06T06:15:47.001Z</time></trkpt><trkpt lat="40.388747865720845" lon="18.300681483684997"><ele>3.0</ele><time>2026-04-06T06:15:48.001Z</time></trkpt><trkpt lat="40.388715241164164" lon="18.30052714693611"><ele>3.0</ele><time>2026-04-06T06:15:49.001Z</time></trkpt><trkpt lat="40.38868466620314" lon="18.300371602121974"><ele>3.0</ele><time>2026-04-06T06:15:50.001Z</time></trkpt><trkpt lat="40.38861976958248" lon="18.300176014316676"><ele>3.0</ele><time>2026-04-06T06:15:51.001Z</time></trkpt><trkpt lat="40.388575585423354" lon="18.299990767011103"><ele>3.0</ele><time>2026-04-06T06:15:52.001Z</time></trkpt><trkpt lat="40.38853387875486" lon="18.299818041064782"><ele>3.0</ele><time>2026-04-06T06:15:53.001Z</time></trkpt><trkpt lat="40.388488112518246" lon="18.29965807453555"><ele>3.0</ele><time>2026-04-06T06:15:54.001Z</time></trkpt><trkpt lat="40.388448528416184" lon="18.299492122289635"><ele>3.0</ele><time>2026-04-06T06:15:55.001Z</time></trkpt><trkpt lat="40.388407474734194" lon="18.299323950883824"><ele>3.0</ele><time>2026-04-06T06:15:56.002Z</time></trkpt><trkpt lat="40.38833078620446" lon="18.299130193849507"><ele>3.0</ele><time>2026-04-06T06:15:57.002Z</time></trkpt><trkpt lat="40.388291005137404" lon="18.29894844322631"><ele>3.0</ele><time>2026-04-06T06:15:58.002Z</time></trkpt><trkpt lat="40.38824684086633" lon="18.2987663987121"><ele>3.0</ele><time>2026-04-06T06:15:59.002Z</time></trkpt><trkpt lat="40.38820235048978" lon="18.29856506443647"><ele>3.0</ele><time>2026-04-06T06:16:00.002Z</time></trkpt><trkpt lat="40.38814282269545" lon="18.298362516063577"><ele>3.333333333333333</ele><time>2026-04-06T06:16:01.002Z</time></trkpt><trkpt lat="40.388092795572334" lon="18.298175265444613"><ele>3.6666666666666665</ele><time>2026-04-06T06:16:02.002Z</time></trkpt><trkpt lat="40.38803481942253" lon="18.29795826170341"><ele>4.0</ele><time>2026-04-06T06:16:03.002Z</time></trkpt><trkpt lat="40.38797398015953" lon="18.29773054169241"><ele>4.0</ele><time>2026-04-06T06:16:04.002Z</time></trkpt><trkpt lat="40.387919079620275" lon="18.297525049942177"><ele>4.0</ele><time>2026-04-06T06:16:05.002Z</time></trkpt><trkpt lat="40.387866584712924" lon="18.297329411233097"><ele>4.0</ele><time>2026-04-06T06:16:06.002Z</time></trkpt><trkpt lat="40.387813890689145" lon="18.297134638831775"><ele>4.0</ele><time>2026-04-06T06:16:07.002Z</time></trkpt><trkpt lat="40.387725562252655" lon="18.296808151006704"><ele>4.0</ele><time>2026-04-06T06:16:08.002Z</time></trkpt><trkpt lat="40.38766557696456" lon="18.296587170244"><ele>4.0</ele><time>2026-04-06T06:16:09.002Z</time></trkpt><trkpt lat="40.38761763071764" lon="18.29636479680069"><ele>4.0</ele><time>2026-04-06T06:16:10.002Z</time></trkpt><trkpt lat="40.38754422626109" lon="18.296141944501986"><ele>4.0</ele><time>2026-04-06T06:16:11.002Z</time></trkpt><trkpt lat="40.38748333389563" lon="18.295919021823213"><ele>4.0</ele><time>2026-04-06T06:16:12.002Z</time></trkpt><trkpt lat="40.3874172843148" lon="18.295677218723075"><ele>4.333333333333333</ele><time>2026-04-06T06:16:13.002Z</time></trkpt><trkpt lat="40.38735599584938" lon="18.295397121701246"><ele>4.666666666666667</ele><time>2026-04-06T06:16:14.002Z</time></trkpt><trkpt lat="40.38728175896996" lon="18.295174000214374"><ele>5.0</ele><time>2026-04-06T06:16:15.002Z</time></trkpt><trkpt lat="40.38721741247278" lon="18.294927721129234"><ele>5.666666666666667</ele><time>2026-04-06T06:16:16.002Z</time></trkpt><trkpt lat="40.387151513943415" lon="18.29467084714696"><ele>6.333333333333334</ele><time>2026-04-06T06:16:17.002Z</time></trkpt><trkpt lat="40.387078202423325" lon="18.294391049291384"><ele>7.0</ele><time>2026-04-06T06:16:18.002Z</time></trkpt><trkpt lat="40.38700833368163" lon="18.29413842790837"><ele>6.333333333333334</ele><time>2026-04-06T06:16:19.002Z</time></trkpt><trkpt lat="40.386944815610526" lon="18.293896565535647"><ele>5.666666666666667</ele><time>2026-04-06T06:16:20.002Z</time></trkpt><trkpt lat="40.38687343698744" lon="18.293646294264352"><ele>5.0</ele><time>2026-04-06T06:16:21.002Z</time></trkpt><trkpt lat="40.38682127844954" lon="18.293387492273375"><ele>5.0</ele><time>2026-04-06T06:16:22.002Z</time></trkpt><trkpt lat="40.38674768572048" lon="18.293122001951897"><ele>5.0</ele><time>2026-04-06T06:16:23.002Z</time></trkpt><trkpt lat="40.38666102231476" lon="18.292841074825102"><ele>5.0</ele><time>2026-04-06T06:16:24.002Z</time></trkpt><trkpt lat="40.38659514303868" lon="18.292580026945004"><ele>5.0</ele><time>2026-04-06T06:16:25Z</time></trkpt><trkpt lat="40.38653276298804" lon="18.2923293218599"><ele>5.0</ele><time>2026-04-06T06:16:26Z</time></trkpt><trkpt lat="40.38645346515828" lon="18.292052690637902"><ele>5.0</ele><time>2026-04-06T06:16:27Z</time></trkpt><trkpt lat="40.38638944834696" lon="18.29179067377688"><ele>4.666666666666667</ele><time>2026-04-06T06:16:28Z</time></trkpt><trkpt lat="40.38631933952189" lon="18.29153118298781"><ele>4.333333333333333</ele><time>2026-04-06T06:16:29Z</time></trkpt><trkpt lat="40.3862448922603" lon="18.2912674008315"><ele>4.0</ele><time>2026-04-06T06:16:30Z</time></trkpt><trkpt lat="40.386176825608544" lon="18.291019678316083"><ele>4.0</ele><time>2026-04-06T06:16:31Z</time></trkpt><trkpt lat="40.386108659569416" lon="18.290781004009595"><ele>4.0</ele><time>2026-04-06T06:16:32Z</time></trkpt><trkpt lat="40.38604432083371" lon="18.29055083065849"><ele>4.0</ele><time>2026-04-06T06:16:33Z</time></trkpt><trkpt lat="40.38599275726619" lon="18.290332850008575"><ele>4.25</ele><time>2026-04-06T06:16:34Z</time></trkpt><trkpt lat="40.38594401508639" lon="18.290136722226404"><ele>4.5</ele><time>2026-04-06T06:16:35Z</time></trkpt><trkpt lat="40.3858934484852" lon="18.28996441976073"><ele>4.75</ele><time>2026-04-06T06:16:36Z</time></trkpt><trkpt lat="40.38585310477286" lon="18.28981734652135"><ele>5.0</ele><time>2026-04-06T06:16:37Z</time></trkpt><trkpt lat="40.38580979078919" lon="18.289676337608892"><ele>5.0</ele><time>2026-04-06T06:16:38Z</time></trkpt><trkpt lat="40.38578500952206" lon="18.289583619271333"><ele>5.0</ele><time>2026-04-06T06:16:39Z</time></trkpt><trkpt lat="40.38575423042991" lon="18.289442221556133"><ele>5.0</ele><time>2026-04-06T06:16:41Z</time></trkpt><trkpt lat="40.38573089337264" lon="18.289356773037056"><ele>5.0</ele><time>2026-04-06T06:16:43Z</time></trkpt><trkpt lat="40.38570382695811" lon="18.2892189806291"><ele>5.0</ele><time>2026-04-06T06:16:57Z</time></trkpt><trkpt lat="40.38566508935153" lon="18.289135176945763"><ele>5.0</ele><time>2026-04-06T06:16:58Z</time></trkpt><trkpt lat="40.38563962391244" lon="18.28903908466105"><ele>4.8</ele><time>2026-04-06T06:16:59Z</time></trkpt><trkpt lat="40.38560857362912" lon="18.28892253487973"><ele>4.6</ele><time>2026-04-06T06:17:00Z</time></trkpt><trkpt lat="40.385571894141364" lon="18.288784855568885"><ele>4.4</ele><time>2026-04-06T06:17:01.001Z</time></trkpt><trkpt lat="40.38553671495635" lon="18.288652807651584"><ele>4.2</ele><time>2026-04-06T06:17:02.001Z</time></trkpt><trkpt lat="40.385486451201864" lon="18.288489030838402"><ele>4.0</ele><time>2026-04-06T06:17:03.001Z</time></trkpt><trkpt lat="40.385446343584235" lon="18.288336058856345"><ele>3.75</ele><time>2026-04-06T06:17:04.001Z</time></trkpt><trkpt lat="40.38540946895097" lon="18.288182432739145"><ele>3.5</ele><time>2026-04-06T06:17:05.001Z</time></trkpt><trkpt lat="40.38536763752242" lon="18.288017889290163"><ele>3.25</ele><time>2026-04-06T06:17:06.001Z</time></trkpt><trkpt lat="40.385324973323726" lon="18.28785243807081"><ele>3.0</ele><time>2026-04-06T06:17:07.001Z</time></trkpt><trkpt lat="40.385278243251875" lon="18.287674765290387"><ele>3.5</ele><time>2026-04-06T06:17:08.001Z</time></trkpt><trkpt lat="40.38522545032149" lon="18.287490451047386"><ele>4.0</ele><time>2026-04-06T06:17:09.001Z</time></trkpt><trkpt lat="40.385173773549035" lon="18.287298120436432"><ele>4.5</ele><time>2026-04-06T06:17:10.001Z</time></trkpt><trkpt lat="40.38512859346178" lon="18.28711856943869"><ele>5.0</ele><time>2026-04-06T06:17:11.001Z</time></trkpt><trkpt lat="40.38508003365563" lon="18.286938397984695"><ele>5.0</ele><time>2026-04-06T06:17:12.001Z</time></trkpt><trkpt lat="40.38503311574257" lon="18.286761821654697"><ele>5.0</ele><time>2026-04-06T06:17:13.001Z</time></trkpt><trkpt lat="40.38498074593606" lon="18.28657885145865"><ele>5.0</ele><time>2026-04-06T06:17:14.001Z</time></trkpt><trkpt lat="40.38492354852001" lon="18.286392933246653"><ele>5.0</ele><time>2026-04-06T06:17:15.001Z</time></trkpt><trkpt lat="40.38487306425702" lon="18.28620582986602"><ele>5.333333333333334</ele><time>2026-04-06T06:17:16.001Z</time></trkpt><trkpt lat="40.38482058789528" lon="18.28600928597609"><ele>5.666666666666667</ele><time>2026-04-06T06:17:17.001Z</time></trkpt><trkpt lat="40.38475733160638" lon="18.28581212887687"><ele>6.0</ele><time>2026-04-06T06:17:18.001Z</time></trkpt><trkpt lat="40.3847119448035" lon="18.285603247129888"><ele>6.333333333333334</ele><time>2026-04-06T06:17:19.001Z</time></trkpt><trkpt lat="40.38465955322921" lon="18.28538838150844"><ele>6.666666666666667</ele><time>2026-04-06T06:17:20.001Z</time></trkpt><trkpt lat="40.384603465076005" lon="18.285178170346974"><ele>7.0</ele><time>2026-04-06T06:17:21.001Z</time></trkpt><trkpt lat="40.38454429890291" lon="18.284956423166086"><ele>7.333333333333334</ele><time>2026-04-06T06:17:22.001Z</time></trkpt><trkpt lat="40.38447682079017" lon="18.284703523725852"><ele>7.666666666666666</ele><time>2026-04-06T06:17:23.001Z</time></trkpt><trkpt lat="40.38442760480288" lon="18.28445662941999"><ele>8.0</ele><time>2026-04-06T06:17:24.001Z</time></trkpt><trkpt lat="40.384339591961805" lon="18.284189207862187"><ele>8.0</ele><time>2026-04-06T06:17:25.001Z</time></trkpt><trkpt lat="40.38428111000942" lon="18.283943083264543"><ele>8.0</ele><time>2026-04-06T06:17:26.001Z</time></trkpt><trkpt lat="40.38421269907622" lon="18.283702776628274"><ele>8.0</ele><time>2026-04-06T06:17:27.001Z</time></trkpt><trkpt lat="40.38415466035598" lon="18.283466183515504"><ele>8.0</ele><time>2026-04-06T06:17:28.001Z</time></trkpt><trkpt lat="40.38407689099076" lon="18.283230495620025"><ele>8.0</ele><time>2026-04-06T06:17:29.001Z</time></trkpt><trkpt lat="40.384028867906935" lon="18.282990202733103"><ele>8.0</ele><time>2026-04-06T06:17:30.001Z</time></trkpt><trkpt lat="40.383938026912055" lon="18.282728269667338"><ele>7.666666666666666</ele><time>2026-04-06T06:17:31.001Z</time></trkpt><trkpt lat="40.38387598908532" lon="18.282452283866384"><ele>7.333333333333334</ele><time>2026-04-06T06:17:32.001Z</time></trkpt><trkpt lat="40.383797902611406" lon="18.2821996794774"><ele>7.0</ele><time>2026-04-06T06:17:33.001Z</time></trkpt><trkpt lat="40.383717663470954" lon="18.281930761572948"><ele>8.0</ele><time>2026-04-06T06:17:34.001Z</time></trkpt><trkpt lat="40.38366056998084" lon="18.281680951351838"><ele>9.0</ele><time>2026-04-06T06:17:35.001Z</time></trkpt><trkpt lat="40.383604862037735" lon="18.281425069328954"><ele>10.0</ele><time>2026-04-06T06:17:36.001Z</time></trkpt><trkpt lat="40.38353508370503" lon="18.281152022801443"><ele>10.333333333333334</ele><time>2026-04-06T06:17:37.001Z</time></trkpt><trkpt lat="40.383453920604495" lon="18.280897476364334"><ele>10.666666666666666</ele><time>2026-04-06T06:17:38.001Z</time></trkpt><trkpt lat="40.38339372299913" lon="18.280639736698717"><ele>11.0</ele><time>2026-04-06T06:17:39.001Z</time></trkpt><trkpt lat="40.38332158134875" lon="18.28040624282884"><ele>10.666666666666666</ele><time>2026-04-06T06:17:40.001Z</time></trkpt><trkpt lat="40.38325089059694" lon="18.28014626111597"><ele>10.333333333333334</ele><time>2026-04-06T06:17:41.001Z</time></trkpt><trkpt lat="40.38318450707064" lon="18.279900943662522"><ele>10.0</ele><time>2026-04-06T06:17:42.001Z</time></trkpt><trkpt lat="40.38311533521083" lon="18.279642275650513"><ele>10.0</ele><time>2026-04-06T06:17:43.001Z</time></trkpt><trkpt lat="40.38305046235676" lon="18.279399683611565"><ele>10.0</ele><time>2026-04-06T06:17:44.001Z</time></trkpt><trkpt lat="40.38297930426995" lon="18.279133587914476"><ele>10.0</ele><time>2026-04-06T06:17:45.001Z</time></trkpt><trkpt lat="40.38291189152631" lon="18.278881498119723"><ele>10.0</ele><time>2026-04-06T06:17:46.001Z</time></trkpt><trkpt lat="40.38284216509478" lon="18.27862075590271"><ele>10.0</ele><time>2026-04-06T06:17:47.001Z</time></trkpt><trkpt lat="40.382776228263516" lon="18.2783741854092"><ele>10.0</ele><time>2026-04-06T06:17:48.001Z</time></trkpt><trkpt lat="40.38269900910802" lon="18.278085424444857"><ele>10.0</ele><time>2026-04-06T06:17:49.001Z</time></trkpt><trkpt lat="40.3826310639816" lon="18.277828431407997"><ele>10.0</ele><time>2026-04-06T06:17:50.001Z</time></trkpt><trkpt lat="40.38256954982637" lon="18.27759505113097"><ele>10.0</ele><time>2026-04-06T06:17:51.001Z</time></trkpt><trkpt lat="40.382511825551944" lon="18.277356505302805"><ele>10.333333333333334</ele><time>2026-04-06T06:17:52.001Z</time></trkpt><trkpt lat="40.38246595781757" lon="18.27714911501413"><ele>10.666666666666666</ele><time>2026-04-06T06:17:53.001Z</time></trkpt><trkpt lat="40.38241379581074" lon="18.27694376915494"><ele>11.0</ele><time>2026-04-06T06:17:54.001Z</time></trkpt><trkpt lat="40.38235408506032" lon="18.276743739598142"><ele>11.0</ele><time>2026-04-06T06:17:55.001Z</time></trkpt><trkpt lat="40.382307430719756" lon="18.276525240027215"><ele>11.0</ele><time>2026-04-06T06:17:56.001Z</time></trkpt><trkpt lat="40.38225613668364" lon="18.27636698528347"><ele>11.0</ele><time>2026-04-06T06:17:57.001Z</time></trkpt><trkpt lat="40.38219710231009" lon="18.27620465286784"><ele>11.0</ele><time>2026-04-06T06:17:58.001Z</time></trkpt><trkpt lat="40.38214582816386" lon="18.27605016715087"><ele>11.166666666666666</ele><time>2026-04-06T06:17:59.001Z</time></trkpt><trkpt lat="40.38210699511505" lon="18.275921596700403"><ele>11.333333333333332</ele><time>2026-04-06T06:18:00.001Z</time></trkpt><trkpt lat="40.382092019708075" lon="18.27581064126373"><ele>11.5</ele><time>2026-04-06T06:18:01.001Z</time></trkpt><trkpt lat="40.38207626074641" lon="18.275720776190777"><ele>11.666666666666666</ele><time>2026-04-06T06:18:02.001Z</time></trkpt><trkpt lat="40.38205516590658" lon="18.275625317233608"><ele>11.833333333333334</ele><time>2026-04-06T06:18:03.001Z</time></trkpt><trkpt lat="40.38202036085747" lon="18.275544631752474"><ele>12.0</ele><time>2026-04-06T06:18:04.001Z</time></trkpt><trkpt lat="40.38198293734266" lon="18.275418762826174"><ele>11.6</ele><time>2026-04-06T06:18:06.002Z</time></trkpt><trkpt lat="40.38195652495954" lon="18.27531303904361"><ele>11.2</ele><time>2026-04-06T06:18:27.002Z</time></trkpt><trkpt lat="40.38192422036083" lon="18.275136250736534"><ele>10.8</ele><time>2026-04-06T06:18:29.002Z</time></trkpt><trkpt lat="40.38190526927098" lon="18.275033615427006"><ele>10.4</ele><time>2026-04-06T06:18:30.002Z</time></trkpt><trkpt lat="40.38188161653622" lon="18.274916988442666"><ele>10.0</ele><time>2026-04-06T06:18:31Z</time></trkpt><trkpt lat="40.38185241676675" lon="18.274790535883607"><ele>10.25</ele><time>2026-04-06T06:18:32Z</time></trkpt><trkpt lat="40.38180859744353" lon="18.27464184951604"><ele>10.5</ele><time>2026-04-06T06:18:33Z</time></trkpt><trkpt lat="40.3817490056438" lon="18.274475351072777"><ele>10.75</ele><time>2026-04-06T06:18:34Z</time></trkpt><trkpt lat="40.38169259190435" lon="18.27432473701051"><ele>11.0</ele><time>2026-04-06T06:18:35Z</time></trkpt><trkpt lat="40.381647057425596" lon="18.274155123866933"><ele>11.0</ele><time>2026-04-06T06:18:36Z</time></trkpt><trkpt lat="40.381594332156666" lon="18.273958725703412"><ele>11.0</ele><time>2026-04-06T06:18:37Z</time></trkpt><trkpt lat="40.381540246687564" lon="18.273757260987544"><ele>11.0</ele><time>2026-04-06T06:18:38Z</time></trkpt><trkpt lat="40.38149604597496" lon="18.273530209736936"><ele>11.333333333333332</ele><time>2026-04-06T06:18:39Z</time></trkpt><trkpt lat="40.381395230374416" lon="18.273302667807233"><ele>11.666666666666666</ele><time>2026-04-06T06:18:40Z</time></trkpt><trkpt lat="40.381330833874934" lon="18.273043575353615"><ele>12.0</ele><time>2026-04-06T06:18:41Z</time></trkpt><trkpt lat="40.38126376793268" lon="18.2727944454548"><ele>12.0</ele><time>2026-04-06T06:18:42Z</time></trkpt><trkpt lat="40.381189297806365" lon="18.272517811113666"><ele>12.0</ele><time>2026-04-06T06:18:43Z</time></trkpt><trkpt lat="40.38112096973594" lon="18.27226428591886"><ele>12.0</ele><time>2026-04-06T06:18:44Z</time></trkpt><trkpt lat="40.38104928001074" lon="18.272055589755304"><ele>12.666666666666668</ele><time>2026-04-06T06:18:45Z</time></trkpt><trkpt lat="40.3809976918149" lon="18.271800812619695"><ele>13.333333333333334</ele><time>2026-04-06T06:18:46Z</time></trkpt><trkpt lat="40.380937663684485" lon="18.271552862641148"><ele>14.0</ele><time>2026-04-06T06:18:47Z</time></trkpt><trkpt lat="40.38089562907053" lon="18.271310187505417"><ele>14.333333333333334</ele><time>2026-04-06T06:18:48Z</time></trkpt><trkpt lat="40.380811562207136" lon="18.271049803035886"><ele>14.666666666666668</ele><time>2026-04-06T06:18:49Z</time></trkpt><trkpt lat="40.38073903798556" lon="18.270780077404698"><ele>15.0</ele><time>2026-04-06T06:18:50Z</time></trkpt><trkpt lat="40.38066450628597" lon="18.2705028136699"><ele>15.5</ele><time>2026-04-06T06:18:51Z</time></trkpt><trkpt lat="40.38059485254695" lon="18.270203695976207"><ele>16.0</ele><time>2026-04-06T06:18:52Z</time></trkpt><trkpt lat="40.38051594979502" lon="18.26991518245393"><ele>16.5</ele><time>2026-04-06T06:18:53Z</time></trkpt><trkpt lat="40.38043819103023" lon="18.269617912790114"><ele>17.0</ele><time>2026-04-06T06:18:54Z</time></trkpt><trkpt lat="40.38036114188352" lon="18.26932642018869"><ele>17.0</ele><time>2026-04-06T06:18:55Z</time></trkpt><trkpt lat="40.38027998144621" lon="18.2690423575028"><ele>17.0</ele><time>2026-04-06T06:18:56Z</time></trkpt><trkpt lat="40.38019952029889" lon="18.268765611539983"><ele>17.0</ele><time>2026-04-06T06:18:57Z</time></trkpt><trkpt lat="40.38013653781344" lon="18.26847303151444"><ele>17.0</ele><time>2026-04-06T06:18:58Z</time></trkpt><trkpt lat="40.380043626193235" lon="18.268185693842764"><ele>17.5</ele><time>2026-04-06T06:18:59Z</time></trkpt><trkpt lat="40.37996177999771" lon="18.267884758253043"><ele>18.0</ele><time>2026-04-06T06:19:00Z</time></trkpt><trkpt lat="40.379890822729934" lon="18.267576269808888"><ele>16.5</ele><time>2026-04-06T06:19:01Z</time></trkpt><trkpt lat="40.37980826596983" lon="18.267268836413734"><ele>15.0</ele><time>2026-04-06T06:19:02Z</time></trkpt><trkpt lat="40.379722556325596" lon="18.266953408651748"><ele>16.0</ele><time>2026-04-06T06:19:03Z</time></trkpt><trkpt lat="40.379641846806884" lon="18.26664096050132"><ele>17.0</ele><time>2026-04-06T06:19:04Z</time></trkpt><trkpt lat="40.379558389681904" lon="18.26633682807902"><ele>18.0</ele><time>2026-04-06T06:19:05Z</time></trkpt><trkpt lat="40.37946790867225" lon="18.266035079791187"><ele>19.0</ele><time>2026-04-06T06:19:06Z</time></trkpt><trkpt lat="40.379385837916665" lon="18.26573378042611"><ele>18.0</ele><time>2026-04-06T06:19:07Z</time></trkpt><trkpt lat="40.37930609774549" lon="18.265433200311723"><ele>17.0</ele><time>2026-04-06T06:19:08Z</time></trkpt><trkpt lat="40.37922792152473" lon="18.265122189709555"><ele>17.0</ele><time>2026-04-06T06:19:09Z</time></trkpt><trkpt lat="40.37914963369717" lon="18.2648239982505"><ele>17.0</ele><time>2026-04-06T06:19:10Z</time></trkpt><trkpt lat="40.37906855363806" lon="18.264521479124188"><ele>17.666666666666668</ele><time>2026-04-06T06:19:11Z</time></trkpt><trkpt lat="40.378994061760736" lon="18.264236280369634"><ele>18.333333333333332</ele><time>2026-04-06T06:19:12Z</time></trkpt><trkpt lat="40.37891782301732" lon="18.26396818885994"><ele>19.0</ele><time>2026-04-06T06:19:13Z</time></trkpt><trkpt lat="40.37884353127749" lon="18.26370250887569"><ele>20.0</ele><time>2026-04-06T06:19:14.001Z</time></trkpt><trkpt lat="40.37877448762817" lon="18.263438617273792"><ele>21.0</ele><time>2026-04-06T06:19:15.001Z</time></trkpt><trkpt lat="40.378700302535925" lon="18.263174301368664"><ele>22.0</ele><time>2026-04-06T06:19:16.001Z</time></trkpt><trkpt lat="40.37863509050587" lon="18.26291133911093"><ele>22.333333333333332</ele><time>2026-04-06T06:19:17.001Z</time></trkpt><trkpt lat="40.378561405773326" lon="18.262649526839432"><ele>22.666666666666668</ele><time>2026-04-06T06:19:18.001Z</time></trkpt><trkpt lat="40.3784900454027" lon="18.262387421048032"><ele>23.0</ele><time>2026-04-06T06:19:19.001Z</time></trkpt><trkpt lat="40.378420547779335" lon="18.26212664498712"><ele>23.0</ele><time>2026-04-06T06:19:20.001Z</time></trkpt><trkpt lat="40.37834563066617" lon="18.26187108409474"><ele>23.0</ele><time>2026-04-06T06:19:21.001Z</time></trkpt><trkpt lat="40.37827064261126" lon="18.26161063980318"><ele>23.0</ele><time>2026-04-06T06:19:22.001Z</time></trkpt><trkpt lat="40.37819559808938" lon="18.261341940836967"><ele>22.5</ele><time>2026-04-06T06:19:23.001Z</time></trkpt><trkpt lat="40.37812027787402" lon="18.261068646678563"><ele>22.0</ele><time>2026-04-06T06:19:24.001Z</time></trkpt><trkpt lat="40.37804481053171" lon="18.26078409624079"><ele>22.5</ele><time>2026-04-06T06:19:25.001Z</time></trkpt><trkpt lat="40.3779717878775" lon="18.260491547607263"><ele>23.0</ele><time>2026-04-06T06:19:26.001Z</time></trkpt><trkpt lat="40.37789007917192" lon="18.260193069694566"><ele>23.0</ele><time>2026-04-06T06:19:27.001Z</time></trkpt><trkpt lat="40.3778066823286" lon="18.2598888943992"><ele>23.0</ele><time>2026-04-06T06:19:28.001Z</time></trkpt><trkpt lat="40.37772345944016" lon="18.259584874988125"><ele>23.5</ele><time>2026-04-06T06:19:29.001Z</time></trkpt><trkpt lat="40.37764772291855" lon="18.259282547346295"><ele>24.0</ele><time>2026-04-06T06:19:30.001Z</time></trkpt><trkpt lat="40.37756252290627" lon="18.258976863251675"><ele>23.5</ele><time>2026-04-06T06:19:31.001Z</time></trkpt><trkpt lat="40.37748592707277" lon="18.258669060819326"><ele>23.0</ele><time>2026-04-06T06:19:32.001Z</time></trkpt><trkpt lat="40.37741077511444" lon="18.258362222791682"><ele>23.5</ele><time>2026-04-06T06:19:33.001Z</time></trkpt><trkpt lat="40.37732943282362" lon="18.25806479082242"><ele>24.0</ele><time>2026-04-06T06:19:34.001Z</time></trkpt><trkpt lat="40.37724919573548" lon="18.257764035597063"><ele>24.0</ele><time>2026-04-06T06:19:35.001Z</time></trkpt><trkpt lat="40.37717145997838" lon="18.25747756178184"><ele>24.0</ele><time>2026-04-06T06:19:36.001Z</time></trkpt><trkpt lat="40.37709238204674" lon="18.25717597822491"><ele>24.0</ele><time>2026-04-06T06:19:37.001Z</time></trkpt><trkpt lat="40.37701425821046" lon="18.25687858341065"><ele>24.0</ele><time>2026-04-06T06:19:38.001Z</time></trkpt><trkpt lat="40.37693353765698" lon="18.256578235644273"><ele>24.0</ele><time>2026-04-06T06:19:39.001Z</time></trkpt><trkpt lat="40.37686126230649" lon="18.256283505312606"><ele>24.0</ele><time>2026-04-06T06:19:40.001Z</time></trkpt><trkpt lat="40.376779947424595" lon="18.255982205452774"><ele>24.0</ele><time>2026-04-06T06:19:41.001Z</time></trkpt><trkpt lat="40.3766997786569" lon="18.255682953290574"><ele>24.0</ele><time>2026-04-06T06:19:42.001Z</time></trkpt><trkpt lat="40.37662373239593" lon="18.255378297664258"><ele>24.0</ele><time>2026-04-06T06:19:43.001Z</time></trkpt><trkpt lat="40.376542935796934" lon="18.255076188306496"><ele>24.0</ele><time>2026-04-06T06:19:44.001Z</time></trkpt><trkpt lat="40.376464878666546" lon="18.254777352088972"><ele>24.0</ele><time>2026-04-06T06:19:45.001Z</time></trkpt><trkpt lat="40.376387641971476" lon="18.254474314015283"><ele>24.0</ele><time>2026-04-06T06:19:46.001Z</time></trkpt><trkpt lat="40.37631076214974" lon="18.25417025176913"><ele>24.0</ele><time>2026-04-06T06:19:47.001Z</time></trkpt><trkpt lat="40.37623217482488" lon="18.25386974664107"><ele>24.0</ele><time>2026-04-06T06:19:48.001Z</time></trkpt><trkpt lat="40.37615583078565" lon="18.25356867759481"><ele>24.0</ele><time>2026-04-06T06:19:49.001Z</time></trkpt><trkpt lat="40.37607688182953" lon="18.253265970438235"><ele>24.0</ele><time>2026-04-06T06:19:50.001Z</time></trkpt><trkpt lat="40.37599181798675" lon="18.25296311918687"><ele>24.5</ele><time>2026-04-06T06:19:51.001Z</time></trkpt><trkpt lat="40.375909225064454" lon="18.25265102225435"><ele>25.0</ele><time>2026-04-06T06:19:52.001Z</time></trkpt><trkpt lat="40.375823110189415" lon="18.252330637556152"><ele>25.5</ele><time>2026-04-06T06:19:53.001Z</time></trkpt><trkpt lat="40.375734903177985" lon="18.252012867094187"><ele>26.0</ele><time>2026-04-06T06:19:54.001Z</time></trkpt><trkpt lat="40.375640068888956" lon="18.251681346297524"><ele>27.5</ele><time>2026-04-06T06:19:55.001Z</time></trkpt><trkpt lat="40.37555878605744" lon="18.251367472115167"><ele>29.0</ele><time>2026-04-06T06:19:56.001Z</time></trkpt><trkpt lat="40.37547416983529" lon="18.2510567769081"><ele>29.0</ele><time>2026-04-06T06:19:57.001Z</time></trkpt><trkpt lat="40.375391616494475" lon="18.250744449758653"><ele>29.0</ele><time>2026-04-06T06:19:58.001Z</time></trkpt><trkpt lat="40.375310931990725" lon="18.250441686012103"><ele>30.0</ele><time>2026-04-06T06:19:59.001Z</time></trkpt><trkpt lat="40.37522905283865" lon="18.250137959117044"><ele>31.0</ele><time>2026-04-06T06:20:00.001Z</time></trkpt><trkpt lat="40.37514193640089" lon="18.249829116699498"><ele>30.5</ele><time>2026-04-06T06:20:01.001Z</time></trkpt><trkpt lat="40.37505540405788" lon="18.249518100170036"><ele>30.0</ele><time>2026-04-06T06:20:02.001Z</time></trkpt><trkpt lat="40.3749673900953" lon="18.24920333062741"><ele>31.0</ele><time>2026-04-06T06:20:03.001Z</time></trkpt><trkpt lat="40.374881181685616" lon="18.248884945973906"><ele>32.0</ele><time>2026-04-06T06:20:04.001Z</time></trkpt><trkpt lat="40.37479666497859" lon="18.248560995436215"><ele>32.0</ele><time>2026-04-06T06:20:05.001Z</time></trkpt><trkpt lat="40.374718655353966" lon="18.24824612259269"><ele>32.0</ele><time>2026-04-06T06:20:06.001Z</time></trkpt><trkpt lat="40.374635693030314" lon="18.247930461754926"><ele>31.5</ele><time>2026-04-06T06:20:07.001Z</time></trkpt><trkpt lat="40.3745512528157" lon="18.247618707952338"><ele>31.0</ele><time>2026-04-06T06:20:08.001Z</time></trkpt><trkpt lat="40.374470700973674" lon="18.247311910333988"><ele>31.0</ele><time>2026-04-06T06:20:09.001Z</time></trkpt><trkpt lat="40.37438753677917" lon="18.24700770645381"><ele>31.0</ele><time>2026-04-06T06:20:10.001Z</time></trkpt><trkpt lat="40.37430386668839" lon="18.246710017448024"><ele>31.0</ele><time>2026-04-06T06:20:11.001Z</time></trkpt><trkpt lat="40.374218429137" lon="18.246404745380442"><ele>31.0</ele><time>2026-04-06T06:20:12.001Z</time></trkpt><trkpt lat="40.37414016348406" lon="18.24609983222552"><ele>31.0</ele><time>2026-04-06T06:20:13.001Z</time></trkpt><trkpt lat="40.3740591299882" lon="18.245794290660942"><ele>31.0</ele><time>2026-04-06T06:20:14.001Z</time></trkpt><trkpt lat="40.37398594971307" lon="18.245484844938527"><ele>31.5</ele><time>2026-04-06T06:20:15.001Z</time></trkpt><trkpt lat="40.373915274740476" lon="18.245175552574302"><ele>32.0</ele><time>2026-04-06T06:20:16.001Z</time></trkpt><trkpt lat="40.37383850989252" lon="18.244873307026822"><ele>32.0</ele><time>2026-04-06T06:20:17.001Z</time></trkpt><trkpt lat="40.37375546073779" lon="18.24457029933577"><ele>32.0</ele><time>2026-04-06T06:20:18.001Z</time></trkpt><trkpt lat="40.3736746276257" lon="18.24427036235401"><ele>32.0</ele><time>2026-04-06T06:20:19.002Z</time></trkpt><trkpt lat="40.37359443507098" lon="18.243971756297526"><ele>32.0</ele><time>2026-04-06T06:20:20.002Z</time></trkpt><trkpt lat="40.373503783899686" lon="18.243678007934548"><ele>32.0</ele><time>2026-04-06T06:20:21.002Z</time></trkpt><trkpt lat="40.373421062795984" lon="18.243370369824177"><ele>32.0</ele><time>2026-04-06T06:20:22.002Z</time></trkpt><trkpt lat="40.373337233758456" lon="18.24306533739308"><ele>32.5</ele><time>2026-04-06T06:20:23.002Z</time></trkpt><trkpt lat="40.37324893220555" lon="18.242770115378637"><ele>33.0</ele><time>2026-04-06T06:20:24.002Z</time></trkpt><trkpt lat="40.37316322092517" lon="18.2424692152839"><ele>33.0</ele><time>2026-04-06T06:20:25.002Z</time></trkpt><trkpt lat="40.373077908084234" lon="18.242163956053496"><ele>33.0</ele><time>2026-04-06T06:20:26.002Z</time></trkpt><trkpt lat="40.37299482492714" lon="18.241858063261194"><ele>32.0</ele><time>2026-04-06T06:20:27.002Z</time></trkpt><trkpt lat="40.372910708624566" lon="18.24154593398713"><ele>31.0</ele><time>2026-04-06T06:20:28.002Z</time></trkpt><trkpt lat="40.372822207937176" lon="18.24123358380553"><ele>31.0</ele><time>2026-04-06T06:20:29.002Z</time></trkpt><trkpt lat="40.372732890462466" lon="18.24091886853061"><ele>31.0</ele><time>2026-04-06T06:20:30.002Z</time></trkpt><trkpt lat="40.37264223964878" lon="18.240605035181282"><ele>31.5</ele><time>2026-04-06T06:20:31.002Z</time></trkpt><trkpt lat="40.37255495503032" lon="18.240300346062092"><ele>32.0</ele><time>2026-04-06T06:20:32.002Z</time></trkpt><trkpt lat="40.372468351482105" lon="18.23999600472812"><ele>32.5</ele><time>2026-04-06T06:20:33.002Z</time></trkpt><trkpt lat="40.37238595132773" lon="18.239694149117813"><ele>33.0</ele><time>2026-04-06T06:20:34.002Z</time></trkpt><trkpt lat="40.37230110073372" lon="18.239400382748414"><ele>33.0</ele><time>2026-04-06T06:20:35.002Z</time></trkpt><trkpt lat="40.3722168655729" lon="18.23910484298871"><ele>33.0</ele><time>2026-04-06T06:20:36.002Z</time></trkpt><trkpt lat="40.37213453104903" lon="18.238809542141837"><ele>33.0</ele><time>2026-04-06T06:20:37Z</time></trkpt><trkpt lat="40.37207232652387" lon="18.238536021124737"><ele>33.0</ele><time>2026-04-06T06:20:38Z</time></trkpt><trkpt lat="40.371996334463766" lon="18.23828305341303"><ele>33.0</ele><time>2026-04-06T06:20:39Z</time></trkpt><trkpt lat="40.37193896792859" lon="18.23805921250826"><ele>33.0</ele><time>2026-04-06T06:20:40Z</time></trkpt><trkpt lat="40.3718765082824" lon="18.23784966021773"><ele>33.0</ele><time>2026-04-06T06:20:41Z</time></trkpt><trkpt lat="40.371820992054914" lon="18.237652034783"><ele>33.0</ele><time>2026-04-06T06:20:42Z</time></trkpt><trkpt lat="40.37176743996927" lon="18.23746051052109"><ele>32.75</ele><time>2026-04-06T06:20:43Z</time></trkpt><trkpt lat="40.37172007757313" lon="18.23727938896938"><ele>32.5</ele><time>2026-04-06T06:20:44Z</time></trkpt><trkpt lat="40.371671164153994" lon="18.237116393255654"><ele>32.25</ele><time>2026-04-06T06:20:45Z</time></trkpt><trkpt lat="40.371630313164104" lon="18.236974534676456"><ele>32.0</ele><time>2026-04-06T06:20:46Z</time></trkpt><trkpt lat="40.37159597594128" lon="18.236849553239118"><ele>32.0</ele><time>2026-04-06T06:20:47Z</time></trkpt><trkpt lat="40.37156414797561" lon="18.236732724048995"><ele>32.0</ele><time>2026-04-06T06:20:48Z</time></trkpt><trkpt lat="40.37153778957719" lon="18.23663728838693"><ele>32.0</ele><time>2026-04-06T06:20:49Z</time></trkpt><trkpt lat="40.371507526627035" lon="18.236514078087563"><ele>32.0</ele><time>2026-04-06T06:20:51Z</time></trkpt><trkpt lat="40.37148322683193" lon="18.23642711895291"><ele>32.0</ele><time>2026-04-06T06:20:54Z</time></trkpt><trkpt lat="40.3714418152559" lon="18.236281444828126"><ele>32.2</ele><time>2026-04-06T06:20:56Z</time></trkpt><trkpt lat="40.371419179041226" lon="18.23618751088056"><ele>32.400000000000006</ele><time>2026-04-06T06:20:57Z</time></trkpt><trkpt lat="40.37138839579332" lon="18.236079879770674"><ele>32.599999999999994</ele><time>2026-04-06T06:20:58Z</time></trkpt><trkpt lat="40.37134986759737" lon="18.235946347041253"><ele>32.8</ele><time>2026-04-06T06:20:59Z</time></trkpt><trkpt lat="40.3713063261423" lon="18.235800659501102"><ele>33.0</ele><time>2026-04-06T06:21:00Z</time></trkpt><trkpt lat="40.3712697368917" lon="18.2356479744034"><ele>33.25</ele><time>2026-04-06T06:21:01Z</time></trkpt><trkpt lat="40.371226050628366" lon="18.23548304937768"><ele>33.5</ele><time>2026-04-06T06:21:02Z</time></trkpt><trkpt lat="40.371178240939194" lon="18.235311579583588"><ele>33.75</ele><time>2026-04-06T06:21:03Z</time></trkpt><trkpt lat="40.37113070501665" lon="18.23513419220721"><ele>34.0</ele><time>2026-04-06T06:21:04Z</time></trkpt><trkpt lat="40.371077019605345" lon="18.2349428783681"><ele>34.0</ele><time>2026-04-06T06:21:05Z</time></trkpt><trkpt lat="40.371035228744184" lon="18.234752187389308"><ele>34.0</ele><time>2026-04-06T06:21:06Z</time></trkpt><trkpt lat="40.37097707903416" lon="18.234552006611906"><ele>34.0</ele><time>2026-04-06T06:21:07Z</time></trkpt><trkpt lat="40.37092879031336" lon="18.23434466466807"><ele>34.0</ele><time>2026-04-06T06:21:08Z</time></trkpt><trkpt lat="40.370848220195455" lon="18.23411933156852"><ele>34.0</ele><time>2026-04-06T06:21:09Z</time></trkpt><trkpt lat="40.370760514559976" lon="18.233898874926886"><ele>34.0</ele><time>2026-04-06T06:21:10Z</time></trkpt><trkpt lat="40.37069317691653" lon="18.23366140674436"><ele>33.333333333333336</ele><time>2026-04-06T06:21:11Z</time></trkpt><trkpt lat="40.3706187180677" lon="18.233395442937663"><ele>32.666666666666664</ele><time>2026-04-06T06:21:12Z</time></trkpt><trkpt lat="40.37054934065375" lon="18.23314762980027"><ele>32.0</ele><time>2026-04-06T06:21:13Z</time></trkpt><trkpt lat="40.37046751687482" lon="18.232855358785883"><ele>32.0</ele><time>2026-04-06T06:21:14Z</time></trkpt><trkpt lat="40.370386832290215" lon="18.232568540843054"><ele>32.0</ele><time>2026-04-06T06:21:15Z</time></trkpt><trkpt lat="40.37031619618969" lon="18.232318224432614"><ele>32.0</ele><time>2026-04-06T06:21:16Z</time></trkpt><trkpt lat="40.37024384914879" lon="18.23206165896106"><ele>32.33333333333333</ele><time>2026-04-06T06:21:17Z</time></trkpt><trkpt lat="40.370173176620064" lon="18.231811031841122"><ele>32.666666666666664</ele><time>2026-04-06T06:21:18Z</time></trkpt><trkpt lat="40.37009972074382" lon="18.231550534089212"><ele>33.0</ele><time>2026-04-06T06:21:19Z</time></trkpt><trkpt lat="40.37002473475307" lon="18.231284610068155"><ele>33.0</ele><time>2026-04-06T06:21:20Z</time></trkpt><trkpt lat="40.369962350248706" lon="18.231005409814475"><ele>33.0</ele><time>2026-04-06T06:21:21Z</time></trkpt><trkpt lat="40.369883887852346" lon="18.230728589578046"><ele>33.0</ele><time>2026-04-06T06:21:22Z</time></trkpt><trkpt lat="40.36980540196726" lon="18.23045797942014"><ele>33.0</ele><time>2026-04-06T06:21:23Z</time></trkpt><trkpt lat="40.36972956376516" lon="18.23017660425869"><ele>33.0</ele><time>2026-04-06T06:21:24Z</time></trkpt><trkpt lat="40.36964319257922" lon="18.229887324495145"><ele>32.5</ele><time>2026-04-06T06:21:25Z</time></trkpt><trkpt lat="40.36955909017488" lon="18.22959379279894"><ele>32.0</ele><time>2026-04-06T06:21:26Z</time></trkpt><trkpt lat="40.3694740722095" lon="18.229304306752695"><ele>32.0</ele><time>2026-04-06T06:21:27Z</time></trkpt><trkpt lat="40.36939307951053" lon="18.22901871303129"><ele>32.0</ele><time>2026-04-06T06:21:28.001Z</time></trkpt><trkpt lat="40.36931211458671" lon="18.228730030093967"><ele>32.0</ele><time>2026-04-06T06:21:29.001Z</time></trkpt><trkpt lat="40.369228947386745" lon="18.22844030791214"><ele>32.0</ele><time>2026-04-06T06:21:30.001Z</time></trkpt><trkpt lat="40.36914070640434" lon="18.228143891309298"><ele>31.5</ele><time>2026-04-06T06:21:31.001Z</time></trkpt><trkpt lat="40.3690600850457" lon="18.227853581273926"><ele>31.0</ele><time>2026-04-06T06:21:32.001Z</time></trkpt><trkpt lat="40.36897533293509" lon="18.227557406359416"><ele>31.0</ele><time>2026-04-06T06:21:33.001Z</time></trkpt><trkpt lat="40.36889488903976" lon="18.227266018667866"><ele>31.0</ele><time>2026-04-06T06:21:34.001Z</time></trkpt><trkpt lat="40.36881188572175" lon="18.226981892014344"><ele>30.5</ele><time>2026-04-06T06:21:35.001Z</time></trkpt><trkpt lat="40.36872581089075" lon="18.226698912790646"><ele>30.0</ele><time>2026-04-06T06:21:36.001Z</time></trkpt><trkpt lat="40.36864661427288" lon="18.226415219471487"><ele>29.5</ele><time>2026-04-06T06:21:37.001Z</time></trkpt><trkpt lat="40.36856301232555" lon="18.226131040278826"><ele>29.0</ele><time>2026-04-06T06:21:38.001Z</time></trkpt><trkpt lat="40.368481050920124" lon="18.225842453690223"><ele>30.0</ele><time>2026-04-06T06:21:39.001Z</time></trkpt><trkpt lat="40.36839901134452" lon="18.225557595860092"><ele>31.0</ele><time>2026-04-06T06:21:40.001Z</time></trkpt><trkpt lat="40.36831866590263" lon="18.22528742889433"><ele>31.0</ele><time>2026-04-06T06:21:41.001Z</time></trkpt><trkpt lat="40.368250080292945" lon="18.225038422240893"><ele>31.0</ele><time>2026-04-06T06:21:42.001Z</time></trkpt><trkpt lat="40.368179375830216" lon="18.224786046316996"><ele>31.0</ele><time>2026-04-06T06:21:43.001Z</time></trkpt><trkpt lat="40.3681012729897" lon="18.22453422526846"><ele>31.333333333333336</ele><time>2026-04-06T06:21:44.001Z</time></trkpt><trkpt lat="40.36802765415884" lon="18.224271938517873"><ele>31.666666666666664</ele><time>2026-04-06T06:21:45.001Z</time></trkpt><trkpt lat="40.367939020077834" lon="18.22399890609538"><ele>32.0</ele><time>2026-04-06T06:21:46.001Z</time></trkpt><trkpt lat="40.367862525275996" lon="18.22371508314542"><ele>32.0</ele><time>2026-04-06T06:21:47.001Z</time></trkpt><trkpt lat="40.36778479380134" lon="18.22342729318788"><ele>32.0</ele><time>2026-04-06T06:21:48.001Z</time></trkpt><trkpt lat="40.36770701934693" lon="18.223131419084492"><ele>32.5</ele><time>2026-04-06T06:21:49.001Z</time></trkpt><trkpt lat="40.36762722159183" lon="18.222841360311627"><ele>33.0</ele><time>2026-04-06T06:21:50.001Z</time></trkpt><trkpt lat="40.36754348007984" lon="18.222560700631135"><ele>33.5</ele><time>2026-04-06T06:21:51.001Z</time></trkpt><trkpt lat="40.3674702630728" lon="18.222275289000674"><ele>34.0</ele><time>2026-04-06T06:21:52.001Z</time></trkpt><trkpt lat="40.367400326175776" lon="18.2220001263089"><ele>34.0</ele><time>2026-04-06T06:21:53.001Z</time></trkpt><trkpt lat="40.36732606899113" lon="18.221761395325764"><ele>34.0</ele><time>2026-04-06T06:21:54.001Z</time></trkpt><trkpt lat="40.36726698044379" lon="18.221561846089546"><ele>34.0</ele><time>2026-04-06T06:21:55.001Z</time></trkpt><trkpt lat="40.36721510348838" lon="18.22137286224339"><ele>34.0</ele><time>2026-04-06T06:21:56.001Z</time></trkpt><trkpt lat="40.36717236929944" lon="18.221201529685345"><ele>34.0</ele><time>2026-04-06T06:21:57.001Z</time></trkpt><trkpt lat="40.367129561346225" lon="18.221047380094728"><ele>34.0</ele><time>2026-04-06T06:21:58.001Z</time></trkpt><trkpt lat="40.36709268730717" lon="18.220907172352966"><ele>34.0</ele><time>2026-04-06T06:21:59.001Z</time></trkpt><trkpt lat="40.367057423493094" lon="18.220792971324876"><ele>34.0</ele><time>2026-04-06T06:22:00.001Z</time></trkpt><trkpt lat="40.36702559948302" lon="18.220686380917005"><ele>34.0</ele><time>2026-04-06T06:22:01.001Z</time></trkpt><trkpt lat="40.36700137177867" lon="18.220600047944885"><ele>34.0</ele><time>2026-04-06T06:22:02.001Z</time></trkpt><trkpt lat="40.36698193191281" lon="18.220517443789724"><ele>34.0</ele><time>2026-04-06T06:22:03.001Z</time></trkpt><trkpt lat="40.36695314936141" lon="18.22041804144507"><ele>34.0</ele><time>2026-04-06T06:22:04.001Z</time></trkpt><trkpt lat="40.36691973625662" lon="18.220294178634692"><ele>34.0</ele><time>2026-04-06T06:22:05.001Z</time></trkpt><trkpt lat="40.3668797115202" lon="18.220154365230346"><ele>34.0</ele><time>2026-04-06T06:22:06.001Z</time></trkpt><trkpt lat="40.366829638258025" lon="18.21999398278379"><ele>34.0</ele><time>2026-04-06T06:22:07.001Z</time></trkpt><trkpt lat="40.36677716222592" lon="18.219839901469033"><ele>34.0</ele><time>2026-04-06T06:22:08.001Z</time></trkpt><trkpt lat="40.366727620934135" lon="18.219676610730744"><ele>34.0</ele><time>2026-04-06T06:22:09.001Z</time></trkpt><trkpt lat="40.36667044407105" lon="18.219506727410295"><ele>34.0</ele><time>2026-04-06T06:22:10.001Z</time></trkpt><trkpt lat="40.36661722471604" lon="18.219344608632255"><ele>34.0</ele><time>2026-04-06T06:22:11.001Z</time></trkpt><trkpt lat="40.366592286266055" lon="18.21907788296742"><ele>34.0</ele><time>2026-04-06T06:22:12.001Z</time></trkpt><trkpt lat="40.36654227288559" lon="18.218830281058153"><ele>34.0</ele><time>2026-04-06T06:22:13.001Z</time></trkpt><trkpt lat="40.366470819500364" lon="18.21862537959023"><ele>34.0</ele><time>2026-04-06T06:22:14.001Z</time></trkpt><trkpt lat="40.36640637648587" lon="18.218424203000165"><ele>34.0</ele><time>2026-04-06T06:22:15.001Z</time></trkpt><trkpt lat="40.36635388664292" lon="18.21825289610938"><ele>33.75</ele><time>2026-04-06T06:22:16.001Z</time></trkpt><trkpt lat="40.3663064216303" lon="18.218089867470095"><ele>33.5</ele><time>2026-04-06T06:22:17.001Z</time></trkpt><trkpt lat="40.366260446693666" lon="18.21793136885385"><ele>33.25</ele><time>2026-04-06T06:22:18.001Z</time></trkpt><trkpt lat="40.366216852119614" lon="18.217796122588556"><ele>33.0</ele><time>2026-04-06T06:22:19.001Z</time></trkpt><trkpt lat="40.36616541431865" lon="18.21768242065044"><ele>33.0</ele><time>2026-04-06T06:22:20.001Z</time></trkpt><trkpt lat="40.36612326071968" lon="18.217580603794637"><ele>33.0</ele><time>2026-04-06T06:22:21.001Z</time></trkpt><trkpt lat="40.36609843162514" lon="18.21747286182555"><ele>33.0</ele><time>2026-04-06T06:22:22.001Z</time></trkpt><trkpt lat="40.36608910454049" lon="18.217349591729683"><ele>33.0</ele><time>2026-04-06T06:22:23.001Z</time></trkpt><trkpt lat="40.36608086627621" lon="18.217226933914578"><ele>33.0</ele><time>2026-04-06T06:22:24.001Z</time></trkpt><trkpt lat="40.366042078744975" lon="18.2171027183801"><ele>33.0</ele><time>2026-04-06T06:22:25.001Z</time></trkpt><trkpt lat="40.36598405118954" lon="18.21698005427949"><ele>33.0</ele><time>2026-04-06T06:22:26.001Z</time></trkpt><trkpt lat="40.36591240629961" lon="18.216848924649966"><ele>33.0</ele><time>2026-04-06T06:22:27.001Z</time></trkpt><trkpt lat="40.365856908060714" lon="18.216685253381122"><ele>33.0</ele><time>2026-04-06T06:22:28.001Z</time></trkpt><trkpt lat="40.36582140361473" lon="18.21649245056659"><ele>32.666666666666664</ele><time>2026-04-06T06:22:29.001Z</time></trkpt><trkpt lat="40.36577730094432" lon="18.216281142113044"><ele>32.33333333333333</ele><time>2026-04-06T06:22:30.001Z</time></trkpt><trkpt lat="40.365722524332625" lon="18.2160676759859"><ele>32.0</ele><time>2026-04-06T06:22:31.001Z</time></trkpt><trkpt lat="40.36566876702037" lon="18.215840624119934"><ele>32.666666666666664</ele><time>2026-04-06T06:22:32.002Z</time></trkpt><trkpt lat="40.365600273298085" lon="18.215605015699996"><ele>33.333333333333336</ele><time>2026-04-06T06:22:33.002Z</time></trkpt><trkpt lat="40.36553534029589" lon="18.215369042019777"><ele>34.0</ele><time>2026-04-06T06:22:34.002Z</time></trkpt><trkpt lat="40.36545370617943" lon="18.215127996234184"><ele>34.333333333333336</ele><time>2026-04-06T06:22:35.002Z</time></trkpt><trkpt lat="40.365390481167296" lon="18.214882341086625"><ele>34.666666666666664</ele><time>2026-04-06T06:22:36.002Z</time></trkpt><trkpt lat="40.36531743043208" lon="18.214632003912993"><ele>35.0</ele><time>2026-04-06T06:22:37.002Z</time></trkpt><trkpt lat="40.36523856834354" lon="18.21437281938529"><ele>35.0</ele><time>2026-04-06T06:22:38.002Z</time></trkpt><trkpt lat="40.36516521300589" lon="18.214117999923975"><ele>35.0</ele><time>2026-04-06T06:22:39.002Z</time></trkpt><trkpt lat="40.36508967798632" lon="18.213848419912953"><ele>35.0</ele><time>2026-04-06T06:22:40.002Z</time></trkpt><trkpt lat="40.36501300313507" lon="18.21357493324484"><ele>35.0</ele><time>2026-04-06T06:22:41.002Z</time></trkpt><trkpt lat="40.36493519109618" lon="18.21329870306146"><ele>35.0</ele><time>2026-04-06T06:22:42.002Z</time></trkpt><trkpt lat="40.36485708305905" lon="18.213029461214852"><ele>35.0</ele><time>2026-04-06T06:22:42.999Z</time></trkpt><trkpt lat="40.364777346424866" lon="18.21276006269832"><ele>35.33333333333333</ele><time>2026-04-06T06:22:43.999Z</time></trkpt><trkpt lat="40.3647043030165" lon="18.212485131923195"><ele>35.666666666666664</ele><time>2026-04-06T06:22:44.999Z</time></trkpt><trkpt lat="40.364626807118796" lon="18.212222948696173"><ele>36.0</ele><time>2026-04-06T06:22:45.999Z</time></trkpt><trkpt lat="40.36455139770811" lon="18.211947940987518"><ele>35.333333333333336</ele><time>2026-04-06T06:22:46.999Z</time></trkpt><trkpt lat="40.3644719262422" lon="18.211678143901445"><ele>34.66666666666667</ele><time>2026-04-06T06:22:47.999Z</time></trkpt><trkpt lat="40.3643962342359" lon="18.211414508794675"><ele>34.0</ele><time>2026-04-06T06:22:48.999Z</time></trkpt><trkpt lat="40.36431978797233" lon="18.21114734728935"><ele>34.0</ele><time>2026-04-06T06:22:49.999Z</time></trkpt><trkpt lat="40.36424662721625" lon="18.210879287628114"><ele>34.0</ele><time>2026-04-06T06:22:50.999Z</time></trkpt><trkpt lat="40.3641676355551" lon="18.21061122581576"><ele>34.0</ele><time>2026-04-06T06:22:51.999Z</time></trkpt><trkpt lat="40.36409200329676" lon="18.210348687392365"><ele>34.66666666666667</ele><time>2026-04-06T06:22:52.999Z</time></trkpt><trkpt lat="40.36401598756882" lon="18.210080906890187"><ele>35.333333333333336</ele><time>2026-04-06T06:22:53.999Z</time></trkpt><trkpt lat="40.3639383853147" lon="18.209810080220457"><ele>36.0</ele><time>2026-04-06T06:22:54.999Z</time></trkpt><trkpt lat="40.36386508137659" lon="18.209538517589845"><ele>34.5</ele><time>2026-04-06T06:22:55.999Z</time></trkpt><trkpt lat="40.363786917750886" lon="18.209258375390945"><ele>33.0</ele><time>2026-04-06T06:22:56.999Z</time></trkpt><trkpt lat="40.363708613829026" lon="18.20897856321682"><ele>33.0</ele><time>2026-04-06T06:22:57.999Z</time></trkpt><trkpt lat="40.36363132623293" lon="18.20869622012792"><ele>33.0</ele><time>2026-04-06T06:22:58.999Z</time></trkpt><trkpt lat="40.363552780926035" lon="18.208415697483183"><ele>33.0</ele><time>2026-04-06T06:22:59.999Z</time></trkpt><trkpt lat="40.36347129443424" lon="18.208132586359234"><ele>33.0</ele><time>2026-04-06T06:23:00.999Z</time></trkpt><trkpt lat="40.363392949400854" lon="18.207853270578074"><ele>33.0</ele><time>2026-04-06T06:23:01.999Z</time></trkpt><trkpt lat="40.363317568122525" lon="18.207575922861395"><ele>33.0</ele><time>2026-04-06T06:23:02.999Z</time></trkpt><trkpt lat="40.36324501833891" lon="18.207311241636116"><ele>33.0</ele><time>2026-04-06T06:23:04Z</time></trkpt><trkpt lat="40.36317988520467" lon="18.20706448424879"><ele>33.0</ele><time>2026-04-06T06:23:05Z</time></trkpt><trkpt lat="40.36311664910812" lon="18.20683059300509"><ele>33.0</ele><time>2026-04-06T06:23:06Z</time></trkpt><trkpt lat="40.3630513717149" lon="18.206596697366493"><ele>33.0</ele><time>2026-04-06T06:23:07Z</time></trkpt><trkpt lat="40.36298483644458" lon="18.206362313056243"><ele>34.333333333333336</ele><time>2026-04-06T06:23:08Z</time></trkpt><trkpt lat="40.362919294400875" lon="18.206142848577166"><ele>35.66666666666667</ele><time>2026-04-06T06:23:09Z</time></trkpt><trkpt lat="40.362861343267234" lon="18.2059432465027"><ele>37.0</ele><time>2026-04-06T06:23:10Z</time></trkpt><trkpt lat="40.36280905096338" lon="18.20577210957195"><ele>36.4</ele><time>2026-04-06T06:23:11Z</time></trkpt><trkpt lat="40.362771783252434" lon="18.20563122976613"><ele>35.800000000000004</ele><time>2026-04-06T06:23:12Z</time></trkpt><trkpt lat="40.362736372194185" lon="18.205500341924665"><ele>35.2</ele><time>2026-04-06T06:23:13Z</time></trkpt><trkpt lat="40.3627246825636" lon="18.20539205108467"><ele>34.6</ele><time>2026-04-06T06:23:14Z</time></trkpt><trkpt lat="40.3627310462568" lon="18.205277273686676"><ele>34.0</ele><time>2026-04-06T06:23:15Z</time></trkpt><trkpt lat="40.36273946217574" lon="18.205158124402438"><ele>34.0</ele><time>2026-04-06T06:23:16Z</time></trkpt><trkpt lat="40.362741626780156" lon="18.205032986938487"><ele>34.0</ele><time>2026-04-06T06:23:17Z</time></trkpt><trkpt lat="40.362711318501546" lon="18.204916932112386"><ele>34.0</ele><time>2026-04-06T06:23:18Z</time></trkpt><trkpt lat="40.36265269327135" lon="18.20481485287604"><ele>34.0</ele><time>2026-04-06T06:23:19Z</time></trkpt><trkpt lat="40.36255934049412" lon="18.20476130759167"><ele>34.0</ele><time>2026-04-06T06:23:20Z</time></trkpt><trkpt lat="40.36248655013873" lon="18.204607956741363"><ele>34.25</ele><time>2026-04-06T06:23:21Z</time></trkpt><trkpt lat="40.362428786206486" lon="18.204448839894365"><ele>34.5</ele><time>2026-04-06T06:23:22Z</time></trkpt><trkpt lat="40.36237653177566" lon="18.20426585220272"><ele>34.75</ele><time>2026-04-06T06:23:23Z</time></trkpt><trkpt lat="40.3623270325128" lon="18.204073867640638"><ele>35.0</ele><time>2026-04-06T06:23:24Z</time></trkpt><trkpt lat="40.362266688454845" lon="18.203874833229342"><ele>35.0</ele><time>2026-04-06T06:23:25Z</time></trkpt><trkpt lat="40.36220814423313" lon="18.20367023150698"><ele>35.0</ele><time>2026-04-06T06:23:26Z</time></trkpt><trkpt lat="40.36214310443672" lon="18.20346483145125"><ele>35.0</ele><time>2026-04-06T06:23:27Z</time></trkpt><trkpt lat="40.36207473013682" lon="18.20325791407476"><ele>35.0</ele><time>2026-04-06T06:23:28Z</time></trkpt><trkpt lat="40.362005800096284" lon="18.203031739696527"><ele>35.0</ele><time>2026-04-06T06:23:29Z</time></trkpt><trkpt lat="40.36194797764728" lon="18.202795113705783"><ele>35.0</ele><time>2026-04-06T06:23:30Z</time></trkpt><trkpt lat="40.36189200196562" lon="18.202551635845637"><ele>35.0</ele><time>2026-04-06T06:23:31Z</time></trkpt><trkpt lat="40.3618299768507" lon="18.202308569537408"><ele>35.0</ele><time>2026-04-06T06:23:32Z</time></trkpt><trkpt lat="40.36176265137089" lon="18.202060381389387"><ele>35.0</ele><time>2026-04-06T06:23:33Z</time></trkpt><trkpt lat="40.36169340061181" lon="18.201813070018513"><ele>35.0</ele><time>2026-04-06T06:23:34Z</time></trkpt><trkpt lat="40.36161888956925" lon="18.20156459636152"><ele>35.0</ele><time>2026-04-06T06:23:35Z</time></trkpt><trkpt lat="40.361540068516575" lon="18.20131062964177"><ele>35.0</ele><time>2026-04-06T06:23:36Z</time></trkpt><trkpt lat="40.36146785541747" lon="18.20105231600224"><ele>36.33333333333333</ele><time>2026-04-06T06:23:37Z</time></trkpt><trkpt lat="40.36139582956105" lon="18.200794855381403"><ele>37.666666666666664</ele><time>2026-04-06T06:23:38Z</time></trkpt><trkpt lat="40.361325581515814" lon="18.2005411910289"><ele>39.0</ele><time>2026-04-06T06:23:39Z</time></trkpt><trkpt lat="40.36125891229975" lon="18.200301943105295"><ele>39.0</ele><time>2026-04-06T06:23:40Z</time></trkpt><trkpt lat="40.36119186643729" lon="18.200082336027343"><ele>39.0</ele><time>2026-04-06T06:23:41Z</time></trkpt><trkpt lat="40.361133281247696" lon="18.199870082748866"><ele>39.0</ele><time>2026-04-06T06:23:42Z</time></trkpt><trkpt lat="40.36107079365452" lon="18.199669416148424"><ele>39.0</ele><time>2026-04-06T06:23:43Z</time></trkpt><trkpt lat="40.36101998608035" lon="18.19948724712865"><ele>39.0</ele><time>2026-04-06T06:23:44Z</time></trkpt><trkpt lat="40.36097016296973" lon="18.19931147104459"><ele>39.0</ele><time>2026-04-06T06:23:45Z</time></trkpt><trkpt lat="40.360925193611536" lon="18.19914447372466"><ele>39.0</ele><time>2026-04-06T06:23:46Z</time></trkpt><trkpt lat="40.36088762104745" lon="18.199003515577225"><ele>39.333333333333336</ele><time>2026-04-06T06:23:47.001Z</time></trkpt><trkpt lat="40.36085802912717" lon="18.198890717582778"><ele>39.666666666666664</ele><time>2026-04-06T06:23:48.001Z</time></trkpt><trkpt lat="40.36083279823323" lon="18.19878467520223"><ele>40.0</ele><time>2026-04-06T06:23:49.001Z</time></trkpt><trkpt lat="40.36082495846713" lon="18.19868113001909"><ele>40.33333333333333</ele><time>2026-04-06T06:23:50.001Z</time></trkpt><trkpt lat="40.36082657707821" lon="18.198558751780112"><ele>40.666666666666664</ele><time>2026-04-06T06:23:51.001Z</time></trkpt><trkpt lat="40.36083293150205" lon="18.19843539544167"><ele>41.0</ele><time>2026-04-06T06:23:52.001Z</time></trkpt><trkpt lat="40.36077183795081" lon="18.198323879529543"><ele>41.0</ele><time>2026-04-06T06:23:53.001Z</time></trkpt><trkpt lat="40.360692169968125" lon="18.19822803536608"><ele>41.0</ele><time>2026-04-06T06:23:54.001Z</time></trkpt><trkpt lat="40.36063866552471" lon="18.198086729674497"><ele>41.0</ele><time>2026-04-06T06:23:55.001Z</time></trkpt><trkpt lat="40.36059282584185" lon="18.197921928408338"><ele>41.0</ele><time>2026-04-06T06:23:56.001Z</time></trkpt><trkpt lat="40.36054659503811" lon="18.197739203394104"><ele>40.33333333333333</ele><time>2026-04-06T06:23:57.001Z</time></trkpt><trkpt lat="40.360490293281146" lon="18.197536817195274"><ele>39.666666666666664</ele><time>2026-04-06T06:23:58.001Z</time></trkpt><trkpt lat="40.360434943478936" lon="18.19733697397225"><ele>39.0</ele><time>2026-04-06T06:23:59.001Z</time></trkpt><trkpt lat="40.36037816993056" lon="18.197135825549516"><ele>39.0</ele><time>2026-04-06T06:24:00.001Z</time></trkpt><trkpt lat="40.360318674200755" lon="18.196935673810437"><ele>39.0</ele><time>2026-04-06T06:24:01.001Z</time></trkpt><trkpt lat="40.36026162702266" lon="18.196744970116537"><ele>39.0</ele><time>2026-04-06T06:24:02.001Z</time></trkpt><trkpt lat="40.36021012548747" lon="18.196558114429585"><ele>39.0</ele><time>2026-04-06T06:24:03.001Z</time></trkpt><trkpt lat="40.360166780757844" lon="18.196386539619844"><ele>39.0</ele><time>2026-04-06T06:24:04.001Z</time></trkpt><trkpt lat="40.360118806926984" lon="18.196215238365365"><ele>39.0</ele><time>2026-04-06T06:24:05.001Z</time></trkpt><trkpt lat="40.36006406278668" lon="18.19604051618316"><ele>39.0</ele><time>2026-04-06T06:24:06.001Z</time></trkpt><trkpt lat="40.36001241185484" lon="18.19586724136308"><ele>39.0</ele><time>2026-04-06T06:24:07.001Z</time></trkpt><trkpt lat="40.3599604597265" lon="18.195693304443033"><ele>39.0</ele><time>2026-04-06T06:24:08.001Z</time></trkpt><trkpt lat="40.35991050725832" lon="18.195522474346326"><ele>39.0</ele><time>2026-04-06T06:24:09.001Z</time></trkpt><trkpt lat="40.35985983379472" lon="18.195346288970736"><ele>39.0</ele><time>2026-04-06T06:24:10.001Z</time></trkpt><trkpt lat="40.35981384815848" lon="18.195168712963355"><ele>39.0</ele><time>2026-04-06T06:24:11.001Z</time></trkpt><trkpt lat="40.35977735203188" lon="18.19500737771795"><ele>39.0</ele><time>2026-04-06T06:24:12.001Z</time></trkpt><trkpt lat="40.35974498835797" lon="18.1948497982666"><ele>39.0</ele><time>2026-04-06T06:24:13.001Z</time></trkpt><trkpt lat="40.359724361033464" lon="18.19471706413353"><ele>39.0</ele><time>2026-04-06T06:24:14.001Z</time></trkpt><trkpt lat="40.359719733245996" lon="18.194598535773007"><ele>39.0</ele><time>2026-04-06T06:24:15.001Z</time></trkpt><trkpt lat="40.35972554990395" lon="18.194482743485384"><ele>39.166666666666664</ele><time>2026-04-06T06:24:16.001Z</time></trkpt><trkpt lat="40.359742443728095" lon="18.194372085656802"><ele>39.333333333333336</ele><time>2026-04-06T06:24:17.001Z</time></trkpt><trkpt lat="40.359782626984696" lon="18.19426468948109"><ele>39.5</ele><time>2026-04-06T06:24:18.001Z</time></trkpt><trkpt lat="40.35982067377613" lon="18.194163680650938"><ele>39.66666666666667</ele><time>2026-04-06T06:24:19.001Z</time></trkpt><trkpt lat="40.359842475028024" lon="18.19407008313033"><ele>39.833333333333336</ele><time>2026-04-06T06:24:20.001Z</time></trkpt><trkpt lat="40.359841303348794" lon="18.193973309445134"><ele>40.0</ele><time>2026-04-06T06:24:21.001Z</time></trkpt><trkpt lat="40.359848392955826" lon="18.19388775116206"><ele>40.333333333333336</ele><time>2026-04-06T06:24:22.001Z</time></trkpt><trkpt lat="40.35978705711972" lon="18.193813343883885"><ele>40.66666666666667</ele><time>2026-04-06T06:24:23.001Z</time></trkpt><trkpt lat="40.35972639119562" lon="18.193753700468232"><ele>41.0</ele><time>2026-04-06T06:24:24.001Z</time></trkpt><trkpt lat="40.3596516814411" lon="18.19370860281579"><ele>41.333333333333336</ele><time>2026-04-06T06:24:25.001Z</time></trkpt><trkpt lat="40.35956631638422" lon="18.19371763906988"><ele>41.666666666666664</ele><time>2026-04-06T06:24:26.001Z</time></trkpt><trkpt lat="40.3594819663475" lon="18.193623000731684"><ele>42.0</ele><time>2026-04-06T06:24:27.001Z</time></trkpt><trkpt lat="40.359402049062226" lon="18.193562563572726"><ele>42.2</ele><time>2026-04-06T06:24:28.001Z</time></trkpt><trkpt lat="40.35932872141828" lon="18.193486510306208"><ele>42.400000000000006</ele><time>2026-04-06T06:24:29.001Z</time></trkpt><trkpt lat="40.35925263117453" lon="18.19340609543178"><ele>42.599999999999994</ele><time>2026-04-06T06:24:30.001Z</time></trkpt><trkpt lat="40.35921300495999" lon="18.193296111904132"><ele>42.8</ele><time>2026-04-06T06:24:31.001Z</time></trkpt><trkpt lat="40.35918114424028" lon="18.19318726935056"><ele>43.0</ele><time>2026-04-06T06:24:32.001Z</time></trkpt><trkpt lat="40.35913884736959" lon="18.1930609186911"><ele>43.0</ele><time>2026-04-06T06:24:33.001Z</time></trkpt><trkpt lat="40.35910189542315" lon="18.192945414407617"><ele>43.0</ele><time>2026-04-06T06:24:34.001Z</time></trkpt><trkpt lat="40.35906144115415" lon="18.19281900820053"><ele>43.0</ele><time>2026-04-06T06:24:35.001Z</time></trkpt><trkpt lat="40.359017665450985" lon="18.192682127653335"><ele>43.0</ele><time>2026-04-06T06:24:36.001Z</time></trkpt><trkpt lat="40.35897194143776" lon="18.192526743822878"><ele>43.0</ele><time>2026-04-06T06:24:37.001Z</time></trkpt><trkpt lat="40.358922622774195" lon="18.192372835165123"><ele>43.0</ele><time>2026-04-06T06:24:38.001Z</time></trkpt><trkpt lat="40.358883556890795" lon="18.192218543057106"><ele>43.0</ele><time>2026-04-06T06:24:39.001Z</time></trkpt><trkpt lat="40.35884346519861" lon="18.192064104471754"><ele>43.0</ele><time>2026-04-06T06:24:40.001Z</time></trkpt><trkpt lat="40.358802613604134" lon="18.191919800821747"><ele>43.0</ele><time>2026-04-06T06:24:41.001Z</time></trkpt><trkpt lat="40.35875880366658" lon="18.191770341814408"><ele>43.0</ele><time>2026-04-06T06:24:42.002Z</time></trkpt><trkpt lat="40.358719403370664" lon="18.191616381073167"><ele>43.0</ele><time>2026-04-06T06:24:43.002Z</time></trkpt><trkpt lat="40.35867894068182" lon="18.19146348647799"><ele>43.0</ele><time>2026-04-06T06:24:44.002Z</time></trkpt><trkpt lat="40.3586350582999" lon="18.191304832739224"><ele>43.0</ele><time>2026-04-06T06:24:45.002Z</time></trkpt><trkpt lat="40.35858578750271" lon="18.191149300658576"><ele>43.25</ele><time>2026-04-06T06:24:46.002Z</time></trkpt><trkpt lat="40.3585495971136" lon="18.19100477948494"><ele>43.5</ele><time>2026-04-06T06:24:47.002Z</time></trkpt><trkpt lat="40.35850595415061" lon="18.190849209701398"><ele>43.75</ele><time>2026-04-06T06:24:48.002Z</time></trkpt><trkpt lat="40.358463517374894" lon="18.190698768188298"><ele>44.0</ele><time>2026-04-06T06:24:48.999Z</time></trkpt><trkpt lat="40.35841590881724" lon="18.190549530363754"><ele>44.0</ele><time>2026-04-06T06:24:49.999Z</time></trkpt><trkpt lat="40.358375101791495" lon="18.190410786526904"><ele>44.0</ele><time>2026-04-06T06:24:50.999Z</time></trkpt><trkpt lat="40.358335850040405" lon="18.19027170619641"><ele>44.0</ele><time>2026-04-06T06:24:51.999Z</time></trkpt><trkpt lat="40.35829542923528" lon="18.190125778057546"><ele>44.0</ele><time>2026-04-06T06:24:52.999Z</time></trkpt><trkpt lat="40.35825231056639" lon="18.189982731369646"><ele>44.0</ele><time>2026-04-06T06:24:53.999Z</time></trkpt><trkpt lat="40.35821246920011" lon="18.189830937014335"><ele>44.0</ele><time>2026-04-06T06:24:54.999Z</time></trkpt><trkpt lat="40.35816678042241" lon="18.189683163294987"><ele>44.0</ele><time>2026-04-06T06:24:55.999Z</time></trkpt><trkpt lat="40.35814041565847" lon="18.189528398908692"><ele>44.0</ele><time>2026-04-06T06:24:56.999Z</time></trkpt><trkpt lat="40.358099435482565" lon="18.189377547478152"><ele>44.0</ele><time>2026-04-06T06:24:57.999Z</time></trkpt><trkpt lat="40.358079122421984" lon="18.189241036899723"><ele>44.0</ele><time>2026-04-06T06:24:58.999Z</time></trkpt><trkpt lat="40.35803513254806" lon="18.189089304920625"><ele>44.0</ele><time>2026-04-06T06:24:59.999Z</time></trkpt><trkpt lat="40.3579911026086" lon="18.188950255982483"><ele>44.0</ele><time>2026-04-06T06:25:00.999Z</time></trkpt><trkpt lat="40.357946516312225" lon="18.188798763609984"><ele>44.0</ele><time>2026-04-06T06:25:01.999Z</time></trkpt><trkpt lat="40.35790174193125" lon="18.188659092598733"><ele>44.0</ele><time>2026-04-06T06:25:02.999Z</time></trkpt><trkpt lat="40.357864125252796" lon="18.188519230893274"><ele>44.0</ele><time>2026-04-06T06:25:03.999Z</time></trkpt><trkpt lat="40.357829725588786" lon="18.18837500472273"><ele>44.0</ele><time>2026-04-06T06:25:04.999Z</time></trkpt><trkpt lat="40.35777934774165" lon="18.18822088205377"><ele>44.5</ele><time>2026-04-06T06:25:05.999Z</time></trkpt><trkpt lat="40.35774206633645" lon="18.188072228292828"><ele>45.0</ele><time>2026-04-06T06:25:06.999Z</time></trkpt><trkpt lat="40.357701742267096" lon="18.187929255689607"><ele>45.5</ele><time>2026-04-06T06:25:07.999Z</time></trkpt><trkpt lat="40.35764885457169" lon="18.18778436029849"><ele>46.0</ele><time>2026-04-06T06:25:08.999Z</time></trkpt><trkpt lat="40.357607770788384" lon="18.187634873260176"><ele>46.0</ele><time>2026-04-06T06:25:09.999Z</time></trkpt><trkpt lat="40.357563604346474" lon="18.187476940047937"><ele>46.0</ele><time>2026-04-06T06:25:10.999Z</time></trkpt><trkpt lat="40.357515216498776" lon="18.18731913040127"><ele>46.0</ele><time>2026-04-06T06:25:11.999Z</time></trkpt><trkpt lat="40.357471991474476" lon="18.18716667028462"><ele>46.0</ele><time>2026-04-06T06:25:12.999Z</time></trkpt><trkpt lat="40.35741665490258" lon="18.186996764378286"><ele>46.0</ele><time>2026-04-06T06:25:13.999Z</time></trkpt><trkpt lat="40.35737168158293" lon="18.186843491078104"><ele>46.0</ele><time>2026-04-06T06:25:14.999Z</time></trkpt><trkpt lat="40.35733718418892" lon="18.186709202233846"><ele>46.0</ele><time>2026-04-06T06:25:15.999Z</time></trkpt><trkpt lat="40.35730228412777" lon="18.18658132736633"><ele>46.0</ele><time>2026-04-06T06:25:17Z</time></trkpt><trkpt lat="40.357281642555186" lon="18.186482710176186"><ele>46.0</ele><time>2026-04-06T06:25:18Z</time></trkpt><trkpt lat="40.35725700846472" lon="18.186385394444358"><ele>45.833333333333336</ele><time>2026-04-06T06:25:19Z</time></trkpt><trkpt lat="40.357224393158354" lon="18.186290397458606"><ele>45.66666666666667</ele><time>2026-04-06T06:25:20Z</time></trkpt><trkpt lat="40.357178581388716" lon="18.186186243959924"><ele>45.5</ele><time>2026-04-06T06:25:22Z</time></trkpt><trkpt lat="40.3572584301901" lon="18.186263625743173"><ele>45.333333333333336</ele><time>2026-04-06T06:25:27Z</time></trkpt><trkpt lat="40.35723110955507" lon="18.18616864798571"><ele>45.166666666666664</ele><time>2026-04-06T06:25:38Z</time></trkpt><trkpt lat="40.35720213599733" lon="18.186067923938047"><ele>45.0</ele><time>2026-04-06T06:25:40Z</time></trkpt><trkpt lat="40.35716692366336" lon="18.185945511105267"><ele>45.0</ele><time>2026-04-06T06:25:42Z</time></trkpt><trkpt lat="40.357152211239864" lon="18.18585465548123"><ele>45.0</ele><time>2026-04-06T06:25:43Z</time></trkpt><trkpt lat="40.357112247519865" lon="18.185756161569763"><ele>45.0</ele><time>2026-04-06T06:25:44Z</time></trkpt><trkpt lat="40.35707439412357" lon="18.18564232585694"><ele>45.0</ele><time>2026-04-06T06:25:45Z</time></trkpt><trkpt lat="40.357044304850554" lon="18.185524266054838"><ele>45.0</ele><time>2026-04-06T06:25:46Z</time></trkpt><trkpt lat="40.35701718282723" lon="18.185433853053755"><ele>45.0</ele><time>2026-04-06T06:25:47Z</time></trkpt><trkpt lat="40.356995188255645" lon="18.185346398095216"><ele>44.833333333333336</ele><time>2026-04-06T06:25:48Z</time></trkpt><trkpt lat="40.356970149193856" lon="18.185261370663888"><ele>44.666666666666664</ele><time>2026-04-06T06:25:49Z</time></trkpt><trkpt lat="40.3569419047499" lon="18.185163948072653"><ele>44.5</ele><time>2026-04-06T06:25:50Z</time></trkpt><trkpt lat="40.35690660759508" lon="18.185073383383052"><ele>44.33333333333333</ele><time>2026-04-06T06:25:51Z</time></trkpt><trkpt lat="40.35689172488835" lon="18.184976141667995"><ele>44.166666666666664</ele><time>2026-04-06T06:25:52Z</time></trkpt><trkpt lat="40.35685790236037" lon="18.184868881800064"><ele>44.0</ele><time>2026-04-06T06:25:53Z</time></trkpt><trkpt lat="40.35681017192231" lon="18.184775419331686"><ele>44.0</ele><time>2026-04-06T06:25:54.001Z</time></trkpt><trkpt lat="40.3567782437505" lon="18.184678451899316"><ele>44.0</ele><time>2026-04-06T06:25:55.001Z</time></trkpt><trkpt lat="40.35674604101755" lon="18.18457387567075"><ele>44.0</ele><time>2026-04-06T06:25:56.001Z</time></trkpt><trkpt lat="40.35670964751112" lon="18.184464465434157"><ele>44.0</ele><time>2026-04-06T06:25:57.001Z</time></trkpt><trkpt lat="40.35667156271152" lon="18.184357783884142"><ele>44.0</ele><time>2026-04-06T06:25:58.001Z</time></trkpt><trkpt lat="40.356633354642796" lon="18.18424697950126"><ele>44.0</ele><time>2026-04-06T06:25:59.001Z</time></trkpt><trkpt lat="40.3566021834573" lon="18.184131930608295"><ele>44.0</ele><time>2026-04-06T06:26:00.001Z</time></trkpt><trkpt lat="40.35657150234911" lon="18.18403474945212"><ele>44.0</ele><time>2026-04-06T06:26:01.001Z</time></trkpt><trkpt lat="40.35655364285656" lon="18.18394368490232"><ele>44.0</ele><time>2026-04-06T06:26:02.001Z</time></trkpt><trkpt lat="40.35652564146119" lon="18.18384502072278"><ele>44.0</ele><time>2026-04-06T06:26:03.001Z</time></trkpt><trkpt lat="40.35649582662389" lon="18.183734609487743"><ele>44.0</ele><time>2026-04-06T06:26:04.001Z</time></trkpt><trkpt lat="40.35646508457474" lon="18.18361028510898"><ele>44.0</ele><time>2026-04-06T06:26:05.001Z</time></trkpt><trkpt lat="40.356435836759026" lon="18.183488348098894"><ele>44.0</ele><time>2026-04-06T06:26:06.001Z</time></trkpt><trkpt lat="40.356408119122634" lon="18.183359429829597"><ele>44.0</ele><time>2026-04-06T06:26:07.001Z</time></trkpt><trkpt lat="40.35637971135502" lon="18.183231389367666"><ele>44.0</ele><time>2026-04-06T06:26:08.001Z</time></trkpt><trkpt lat="40.35634363586385" lon="18.183111572974475"><ele>44.0</ele><time>2026-04-06T06:26:09.001Z</time></trkpt><trkpt lat="40.35631031996605" lon="18.182990816448026"><ele>44.0</ele><time>2026-04-06T06:26:10.001Z</time></trkpt><trkpt lat="40.356278029640826" lon="18.18286101210104"><ele>44.0</ele><time>2026-04-06T06:26:11.001Z</time></trkpt><trkpt lat="40.35623905503396" lon="18.182724476172677"><ele>44.0</ele><time>2026-04-06T06:26:12.001Z</time></trkpt><trkpt lat="40.356206787009214" lon="18.182581122240034"><ele>44.0</ele><time>2026-04-06T06:26:13.001Z</time></trkpt><trkpt lat="40.35617235012792" lon="18.18246870402913"><ele>44.0</ele><time>2026-04-06T06:26:14.001Z</time></trkpt><trkpt lat="40.35612871542121" lon="18.18235787941791"><ele>44.0</ele><time>2026-04-06T06:26:15.001Z</time></trkpt><trkpt lat="40.35609350482941" lon="18.182213468786774"><ele>44.0</ele><time>2026-04-06T06:26:16.001Z</time></trkpt><trkpt lat="40.356059090206614" lon="18.18207828088928"><ele>44.0</ele><time>2026-04-06T06:26:17.001Z</time></trkpt><trkpt lat="40.35601928737744" lon="18.18194322513406"><ele>44.0</ele><time>2026-04-06T06:26:18.001Z</time></trkpt><trkpt lat="40.35598510120839" lon="18.181814103806825"><ele>44.0</ele><time>2026-04-06T06:26:19.001Z</time></trkpt><trkpt lat="40.355950928603185" lon="18.181687853189906"><ele>44.0</ele><time>2026-04-06T06:26:20.001Z</time></trkpt><trkpt lat="40.35591112683016" lon="18.181562151188245"><ele>44.75</ele><time>2026-04-06T06:26:21.001Z</time></trkpt><trkpt lat="40.35587291277449" lon="18.18144159145922"><ele>45.5</ele><time>2026-04-06T06:26:22.001Z</time></trkpt><trkpt lat="40.35580936815845" lon="18.181287559205646"><ele>46.25</ele><time>2026-04-06T06:26:23.001Z</time></trkpt><trkpt lat="40.35576211580797" lon="18.18114279941091"><ele>47.0</ele><time>2026-04-06T06:26:24.001Z</time></trkpt><trkpt lat="40.355707608615695" lon="18.18101348752541"><ele>47.0</ele><time>2026-04-06T06:26:25.001Z</time></trkpt><trkpt lat="40.35567025081515" lon="18.18089786059244"><ele>47.0</ele><time>2026-04-06T06:26:26.001Z</time></trkpt><trkpt lat="40.35563519165066" lon="18.180806896243737"><ele>47.0</ele><time>2026-04-06T06:26:27.001Z</time></trkpt><trkpt lat="40.35562445870394" lon="18.18069898379653"><ele>47.0</ele><time>2026-04-06T06:26:28.001Z</time></trkpt><trkpt lat="40.35560125139425" lon="18.180591292513622"><ele>47.0</ele><time>2026-04-06T06:26:29.001Z</time></trkpt><trkpt lat="40.35557667861017" lon="18.180474578447456"><ele>47.0</ele><time>2026-04-06T06:26:30.001Z</time></trkpt><trkpt lat="40.35558061210588" lon="18.180366594293478"><ele>47.33333333333333</ele><time>2026-04-06T06:26:31.001Z</time></trkpt><trkpt lat="40.355574648579825" lon="18.18026304196877"><ele>47.666666666666664</ele><time>2026-04-06T06:26:32.001Z</time></trkpt><trkpt lat="40.35556672786437" lon="18.18015515448406"><ele>48.0</ele><time>2026-04-06T06:26:33.001Z</time></trkpt><trkpt lat="40.355567184964606" lon="18.180047077513624"><ele>48.33333333333333</ele><time>2026-04-06T06:26:34.001Z</time></trkpt><trkpt lat="40.35555883872374" lon="18.179947564258534"><ele>48.666666666666664</ele><time>2026-04-06T06:26:35.001Z</time></trkpt><trkpt lat="40.35555316263684" lon="18.179845772845916"><ele>49.0</ele><time>2026-04-06T06:26:36.001Z</time></trkpt><trkpt lat="40.35554670521472" lon="18.179746293298148"><ele>48.99999999999999</ele><time>2026-04-06T06:26:37.001Z</time></trkpt><trkpt lat="40.35554030470867" lon="18.179649682547492"><ele>49.0</ele><time>2026-04-06T06:26:38.001Z</time></trkpt><trkpt lat="40.3555395460119" lon="18.17954847663233"><ele>49.0</ele><time>2026-04-06T06:26:39.002Z</time></trkpt><trkpt lat="40.35553653606507" lon="18.17944483702061"><ele>49.0</ele><time>2026-04-06T06:26:40.002Z</time></trkpt><trkpt lat="40.35553381299202" lon="18.179326573350163"><ele>48.99999999999999</ele><time>2026-04-06T06:26:41.002Z</time></trkpt><trkpt lat="40.35553074510612" lon="18.17920564707451"><ele>49.0</ele><time>2026-04-06T06:26:42.002Z</time></trkpt><trkpt lat="40.355529247565464" lon="18.179073965788074"><ele>49.6</ele><time>2026-04-06T06:26:43.002Z</time></trkpt><trkpt lat="40.35551604338659" lon="18.178946800102796"><ele>50.2</ele><time>2026-04-06T06:26:44.002Z</time></trkpt><trkpt lat="40.35548246896457" lon="18.178799538248395"><ele>50.800000000000004</ele><time>2026-04-06T06:26:45.002Z</time></trkpt><trkpt lat="40.35546994292038" lon="18.178667386578603"><ele>51.400000000000006</ele><time>2026-04-06T06:26:46.002Z</time></trkpt><trkpt lat="40.35545682697041" lon="18.178531226353563"><ele>52.0</ele><time>2026-04-06T06:26:47.002Z</time></trkpt><trkpt lat="40.355453003272004" lon="18.178396244836346"><ele>52.0</ele><time>2026-04-06T06:26:48.002Z</time></trkpt><trkpt lat="40.35543965903241" lon="18.178271543164243"><ele>52.0</ele><time>2026-04-06T06:26:49.002Z</time></trkpt><trkpt lat="40.35542576842248" lon="18.178155550399985"><ele>52.0</ele><time>2026-04-06T06:26:50.002Z</time></trkpt><trkpt lat="40.35541967617153" lon="18.178036921146415"><ele>52.0</ele><time>2026-04-06T06:26:51.002Z</time></trkpt><trkpt lat="40.355406359129375" lon="18.177911987438467"><ele>52.0</ele><time>2026-04-06T06:26:52.002Z</time></trkpt><trkpt lat="40.355415856179874" lon="18.177779682034"><ele>52.0</ele><time>2026-04-06T06:26:53.002Z</time></trkpt><trkpt lat="40.35541913998646" lon="18.17765240160907"><ele>52.0</ele><time>2026-04-06T06:26:54.002Z</time></trkpt><trkpt lat="40.3554070341049" lon="18.177518662065953"><ele>52.0</ele><time>2026-04-06T06:26:54.999Z</time></trkpt><trkpt lat="40.35538874949133" lon="18.177392565175573"><ele>52.0</ele><time>2026-04-06T06:26:55.999Z</time></trkpt><trkpt lat="40.3553825255345" lon="18.17728402535561"><ele>52.0</ele><time>2026-04-06T06:26:56.999Z</time></trkpt><trkpt lat="40.35537692554859" lon="18.177192087879664"><ele>51.99999999999999</ele><time>2026-04-06T06:26:57.999Z</time></trkpt><trkpt lat="40.35534898512149" lon="18.177084124862482"><ele>52.0</ele><time>2026-04-06T06:26:59.999Z</time></trkpt><trkpt lat="40.3553207389363" lon="18.176961954462854"><ele>52.0</ele><time>2026-04-06T06:27:03.999Z</time></trkpt><trkpt lat="40.35532203839571" lon="18.176861312160725"><ele>52.0</ele><time>2026-04-06T06:27:05.999Z</time></trkpt><trkpt lat="40.35533432636994" lon="18.17676778486699"><ele>51.99999999999999</ele><time>2026-04-06T06:27:07.999Z</time></trkpt><trkpt lat="40.35532493900859" lon="18.176673069564025"><ele>52.0</ele><time>2026-04-06T06:27:09.999Z</time></trkpt><trkpt lat="40.35531290525946" lon="18.176559365361825"><ele>51.714285714285715</ele><time>2026-04-06T06:27:11.999Z</time></trkpt><trkpt lat="40.355329186504676" lon="18.17645608063479"><ele>51.42857142857143</ele><time>2026-04-06T06:27:13.999Z</time></trkpt><trkpt lat="40.355329100172064" lon="18.17636002259157"><ele>51.142857142857146</ele><time>2026-04-06T06:27:19Z</time></trkpt><trkpt lat="40.35539721880894" lon="18.17631700570224"><ele>50.85714285714286</ele><time>2026-04-06T06:27:20Z</time></trkpt><trkpt lat="40.355470879820956" lon="18.17630883008311"><ele>50.57142857142857</ele><time>2026-04-06T06:27:21Z</time></trkpt><trkpt lat="40.35553815333087" lon="18.17630660705476"><ele>50.28571428571429</ele><time>2026-04-06T06:27:22Z</time></trkpt><trkpt lat="40.3556163199271" lon="18.17630127697654"><ele>50.0</ele><time>2026-04-06T06:27:23Z</time></trkpt><trkpt lat="40.35570073009077" lon="18.176292756291726"><ele>49.833333333333336</ele><time>2026-04-06T06:27:24Z</time></trkpt><trkpt lat="40.35577001284532" lon="18.176276128038513"><ele>49.66666666666667</ele><time>2026-04-06T06:27:25Z</time></trkpt><trkpt lat="40.35582723027213" lon="18.176238599371867"><ele>49.5</ele><time>2026-04-06T06:27:26Z</time></trkpt><trkpt lat="40.35587696254807" lon="18.176164784448815"><ele>49.33333333333333</ele><time>2026-04-06T06:27:27Z</time></trkpt><trkpt lat="40.355923553934915" lon="18.17608039514192"><ele>49.166666666666664</ele><time>2026-04-06T06:27:28Z</time></trkpt><trkpt lat="40.355957602327344" lon="18.175991003255405"><ele>49.0</ele><time>2026-04-06T06:27:29Z</time></trkpt><trkpt lat="40.35600540622909" lon="18.175892334172136"><ele>48.99999999999999</ele><time>2026-04-06T06:27:30Z</time></trkpt><trkpt lat="40.356040332927996" lon="18.175790696866386"><ele>49.0</ele><time>2026-04-06T06:27:31Z</time></trkpt><trkpt lat="40.35607251182245" lon="18.17569877166141"><ele>49.0</ele><time>2026-04-06T06:27:32Z</time></trkpt><trkpt lat="40.356094136234795" lon="18.175597045915797"><ele>49.0</ele><time>2026-04-06T06:27:33Z</time></trkpt><trkpt lat="40.35610069240867" lon="18.17548362985797"><ele>48.99999999999999</ele><time>2026-04-06T06:27:34Z</time></trkpt><trkpt lat="40.356115869158415" lon="18.175372709388203"><ele>49.0</ele><time>2026-04-06T06:27:35Z</time></trkpt><trkpt lat="40.35612571745016" lon="18.175255029102622"><ele>49.166666666666664</ele><time>2026-04-06T06:27:36Z</time></trkpt><trkpt lat="40.356141969100165" lon="18.175147049119268"><ele>49.33333333333333</ele><time>2026-04-06T06:27:37Z</time></trkpt><trkpt lat="40.35615357267916" lon="18.175036963840064"><ele>49.5</ele><time>2026-04-06T06:27:38Z</time></trkpt><trkpt lat="40.35616744795344" lon="18.174936810231973"><ele>49.66666666666667</ele><time>2026-04-06T06:27:39Z</time></trkpt><trkpt lat="40.3561827083437" lon="18.174841680129624"><ele>49.833333333333336</ele><time>2026-04-06T06:27:40Z</time></trkpt><trkpt lat="40.35619485612159" lon="18.174748362969314"><ele>50.0</ele><time>2026-04-06T06:27:41Z</time></trkpt><trkpt lat="40.356206218633595" lon="18.17466521632442"><ele>50.2</ele><time>2026-04-06T06:27:42Z</time></trkpt><trkpt lat="40.35618693827359" lon="18.174509946688943"><ele>50.4</ele><time>2026-04-06T06:27:44Z</time></trkpt><trkpt lat="40.35609915742738" lon="18.17443934089945"><ele>50.599999999999994</ele><time>2026-04-06T06:27:45Z</time></trkpt><trkpt lat="40.35603541279415" lon="18.174346806730302"><ele>50.8</ele><time>2026-04-06T06:27:46Z</time></trkpt><trkpt lat="40.35597954692352" lon="18.174230870724756"><ele>51.0</ele><time>2026-04-06T06:27:47Z</time></trkpt><trkpt lat="40.3559346516199" lon="18.174104223370016"><ele>51.4</ele><time>2026-04-06T06:27:48Z</time></trkpt><trkpt lat="40.35587658266691" lon="18.173992554903226"><ele>51.8</ele><time>2026-04-06T06:27:49.001Z</time></trkpt><trkpt lat="40.355815505748794" lon="18.17389597779508"><ele>52.199999999999996</ele><time>2026-04-06T06:27:50.001Z</time></trkpt><trkpt lat="40.355771524767334" lon="18.173806177297696"><ele>52.599999999999994</ele><time>2026-04-06T06:27:51.001Z</time></trkpt><trkpt lat="40.35569814656781" lon="18.173741688522643"><ele>53.0</ele><time>2026-04-06T06:27:52.001Z</time></trkpt><trkpt lat="40.35561168663511" lon="18.17369593374657"><ele>53.0</ele><time>2026-04-06T06:27:53.001Z</time></trkpt><trkpt lat="40.3555233995313" lon="18.17374770386966"><ele>53.0</ele><time>2026-04-06T06:27:54.001Z</time></trkpt><trkpt lat="40.35542172523531" lon="18.17377200230253"><ele>53.0</ele><time>2026-04-06T06:27:55.001Z</time></trkpt><trkpt lat="40.355301065582196" lon="18.173795582307285"><ele>53.0</ele><time>2026-04-06T06:27:56.001Z</time></trkpt><trkpt lat="40.355200950509754" lon="18.173820154190036"><ele>53.0</ele><time>2026-04-06T06:27:57.001Z</time></trkpt><trkpt lat="40.35508757045918" lon="18.17383906652976"><ele>53.0</ele><time>2026-04-06T06:27:58.001Z</time></trkpt><trkpt lat="40.35497732275356" lon="18.17385625609695"><ele>53.0</ele><time>2026-04-06T06:27:59.001Z</time></trkpt><trkpt lat="40.354867271225416" lon="18.173867438277775"><ele>53.0</ele><time>2026-04-06T06:28:00.001Z</time></trkpt><trkpt lat="40.35475843778315" lon="18.173878468725206"><ele>53.0</ele><time>2026-04-06T06:28:01.001Z</time></trkpt><trkpt lat="40.35464569518618" lon="18.173885089850685"><ele>53.0</ele><time>2026-04-06T06:28:02.001Z</time></trkpt><trkpt lat="40.354549457911624" lon="18.1738948810257"><ele>53.16666666666667</ele><time>2026-04-06T06:28:03.001Z</time></trkpt><trkpt lat="40.354448274564064" lon="18.173905051737492"><ele>53.333333333333336</ele><time>2026-04-06T06:28:04.001Z</time></trkpt><trkpt lat="40.354360672019794" lon="18.17391367217739"><ele>53.5</ele><time>2026-04-06T06:28:05.001Z</time></trkpt><trkpt lat="40.354278588377085" lon="18.173920595454845"><ele>53.66666666666667</ele><time>2026-04-06T06:28:06.001Z</time></trkpt><trkpt lat="40.354201811402696" lon="18.17392807815632"><ele>53.833333333333336</ele><time>2026-04-06T06:28:07.001Z</time></trkpt><trkpt lat="40.35412782968614" lon="18.173940261366585"><ele>54.0</ele><time>2026-04-06T06:28:08.001Z</time></trkpt><trkpt lat="40.35400783975366" lon="18.173957740032627"><ele>54.0</ele><time>2026-04-06T06:28:10.001Z</time></trkpt><trkpt lat="40.353903086600035" lon="18.173961647106072"><ele>54.0</ele><time>2026-04-06T06:28:12.001Z</time></trkpt><trkpt lat="40.35377798925344" lon="18.17397608184031"><ele>54.0</ele><time>2026-04-06T06:28:14.001Z</time></trkpt><trkpt lat="40.353702298020515" lon="18.17397700985748"><ele>54.0</ele><time>2026-04-06T06:28:15.001Z</time></trkpt><trkpt lat="40.35363617807052" lon="18.173992104758806"><ele>54.0</ele><time>2026-04-06T06:28:16.001Z</time></trkpt><trkpt lat="40.353562603631055" lon="18.174002337834814"><ele>54.0</ele><time>2026-04-06T06:28:17.001Z</time></trkpt><trkpt lat="40.35348334561721" lon="18.174020307449794"><ele>53.5</ele><time>2026-04-06T06:28:18.001Z</time></trkpt><trkpt lat="40.35335792821518" lon="18.17402631271283"><ele>53.0</ele><time>2026-04-06T06:28:20.001Z</time></trkpt><trkpt lat="40.35327948901035" lon="18.17404250814952"><ele>52.5</ele><time>2026-04-06T06:28:21.001Z</time></trkpt><trkpt lat="40.353197285260094" lon="18.174047138022257"><ele>52.0</ele><time>2026-04-06T06:28:22.001Z</time></trkpt><trkpt lat="40.35311740365204" lon="18.17406463551503"><ele>51.5</ele><time>2026-04-06T06:28:23.001Z</time></trkpt><trkpt lat="40.35305301977532" lon="18.174090273318107"><ele>51.0</ele><time>2026-04-06T06:28:24.001Z</time></trkpt><trkpt lat="40.35298135856201" lon="18.174099299780796"><ele>51.0</ele><time>2026-04-06T06:28:25.001Z</time></trkpt><trkpt lat="40.35290019297343" lon="18.17411250805144"><ele>51.0</ele><time>2026-04-06T06:28:26.001Z</time></trkpt><trkpt lat="40.352819424265185" lon="18.174122272200066"><ele>51.0</ele><time>2026-04-06T06:28:27.002Z</time></trkpt><trkpt lat="40.35273795672347" lon="18.174118556990873"><ele>51.0</ele><time>2026-04-06T06:28:28.002Z</time></trkpt><trkpt lat="40.35265715623341" lon="18.17411563052211"><ele>51.0</ele><time>2026-04-06T06:28:29.002Z</time></trkpt><trkpt lat="40.35257443128091" lon="18.17410796720055"><ele>51.0</ele><time>2026-04-06T06:28:30.002Z</time></trkpt><trkpt lat="40.35245714593463" lon="18.174084969714688"><ele>51.0</ele><time>2026-04-06T06:28:32.002Z</time></trkpt><trkpt lat="40.352351113637276" lon="18.174078803064546"><ele>51.0</ele><time>2026-04-06T06:28:34.002Z</time></trkpt><trkpt lat="40.35227517532706" lon="18.174055509130774"><ele>51.0</ele><time>2026-04-06T06:28:35.002Z</time></trkpt><trkpt lat="40.352199067653615" lon="18.174025775247184"><ele>51.0</ele><time>2026-04-06T06:28:36.002Z</time></trkpt><trkpt lat="40.352113823764945" lon="18.173988523714808"><ele>51.0</ele><time>2026-04-06T06:28:37.002Z</time></trkpt><trkpt lat="40.35204366037047" lon="18.173967597886136"><ele>51.0</ele><time>2026-04-06T06:28:38.002Z</time></trkpt><trkpt lat="40.351921659016575" lon="18.17397877945856"><ele>51.166666666666664</ele><time>2026-04-06T06:28:40.002Z</time></trkpt><trkpt lat="40.35185632054099" lon="18.174018422435907"><ele>51.33333333333333</ele><time>2026-04-06T06:28:41.002Z</time></trkpt><trkpt lat="40.35179827060796" lon="18.174075628200328"><ele>51.5</ele><time>2026-04-06T06:28:42.002Z</time></trkpt><trkpt lat="40.35177005004865" lon="18.17415167122653"><ele>51.666666666666664</ele><time>2026-04-06T06:28:43.002Z</time></trkpt><trkpt lat="40.351715157557614" lon="18.17428646207603"><ele>51.83333333333333</ele><time>2026-04-06T06:28:45.002Z</time></trkpt><trkpt lat="40.35167667551247" lon="18.174405508007116"><ele>52.0</ele><time>2026-04-06T06:28:48.002Z</time></trkpt><trkpt lat="40.35164992947712" lon="18.17450603886633"><ele>51.99999999999999</ele><time>2026-04-06T06:28:50.002Z</time></trkpt><trkpt lat="40.35162666553042" lon="18.17460922066476"><ele>52.0</ele><time>2026-04-06T06:28:52.002Z</time></trkpt><trkpt lat="40.3516068056593" lon="18.174693088566144"><ele>52.0</ele><time>2026-04-06T06:28:54.002Z</time></trkpt><trkpt lat="40.35158013552354" lon="18.17478572628554"><ele>52.0</ele><time>2026-04-06T06:28:57.002Z</time></trkpt><trkpt lat="40.35146618788879" lon="18.174813816111392"><ele>51.99999999999999</ele><time>2026-04-06T06:28:58.002Z</time></trkpt><trkpt lat="40.351406054628654" lon="18.174766764526886"><ele>52.0</ele><time>2026-04-06T06:29:00.002Z</time></trkpt><trkpt lat="40.351329578725995" lon="18.17471325706795"><ele>51.666666666666664</ele><time>2026-04-06T06:29:02.999Z</time></trkpt><trkpt lat="40.35124547598888" lon="18.174667956157343"><ele>51.33333333333333</ele><time>2026-04-06T06:29:04.999Z</time></trkpt><trkpt lat="40.35115297630586" lon="18.17459755556819"><ele>51.0</ele><time>2026-04-06T06:29:06.999Z</time></trkpt><trkpt lat="40.35109095208089" lon="18.174551822869986"><ele>50.66666666666667</ele><time>2026-04-06T06:29:07.999Z</time></trkpt><trkpt lat="40.35103075157286" lon="18.174501287092337"><ele>50.333333333333336</ele><time>2026-04-06T06:29:08.999Z</time></trkpt><trkpt lat="40.35095464587605" lon="18.174456109026178"><ele>50.0</ele><time>2026-04-06T06:29:09.999Z</time></trkpt><trkpt lat="40.35088751027412" lon="18.174408551578132"><ele>50.0</ele><time>2026-04-06T06:29:10.999Z</time></trkpt><trkpt lat="40.3508352681111" lon="18.174328646346687"><ele>50.0</ele><time>2026-04-06T06:29:11.999Z</time></trkpt><trkpt lat="40.35076536274096" lon="18.174269593067308"><ele>50.0</ele><time>2026-04-06T06:29:12.999Z</time></trkpt><trkpt lat="40.350687867547045" lon="18.17420412819949"><ele>50.0</ele><time>2026-04-06T06:29:13.999Z</time></trkpt><trkpt lat="40.350568753424284" lon="18.174125598912077"><ele>50.0</ele><time>2026-04-06T06:29:15.999Z</time></trkpt><trkpt lat="40.350456114214914" lon="18.174009124429123"><ele>50.42857142857143</ele><time>2026-04-06T06:29:17.999Z</time></trkpt><trkpt lat="40.35039045194985" lon="18.173952660091626"><ele>50.85714285714286</ele><time>2026-04-06T06:29:18.999Z</time></trkpt><trkpt lat="40.35032540484907" lon="18.173898547799777"><ele>51.28571428571429</ele><time>2026-04-06T06:29:20Z</time></trkpt><trkpt lat="40.35026269545848" lon="18.17384209667445"><ele>51.714285714285715</ele><time>2026-04-06T06:29:21Z</time></trkpt><trkpt lat="40.35020026386063" lon="18.17379637146907"><ele>52.14285714285714</ele><time>2026-04-06T06:29:22Z</time></trkpt><trkpt lat="40.350146893134074" lon="18.173741024626093"><ele>52.57142857142858</ele><time>2026-04-06T06:29:23Z</time></trkpt><trkpt lat="40.35009112741505" lon="18.17369578257975"><ele>53.0</ele><time>2026-04-06T06:29:24Z</time></trkpt><trkpt lat="40.350034967808014" lon="18.173633187200487"><ele>53.00000000000001</ele><time>2026-04-06T06:29:25Z</time></trkpt><trkpt lat="40.34997383186589" lon="18.173577054929925"><ele>53.0</ele><time>2026-04-06T06:29:26Z</time></trkpt><trkpt lat="40.349902600523144" lon="18.17353087161237"><ele>53.0</ele><time>2026-04-06T06:29:27Z</time></trkpt><trkpt lat="40.34983116302688" lon="18.17347939623933"><ele>53.0</ele><time>2026-04-06T06:29:28Z</time></trkpt><trkpt lat="40.349760615552555" lon="18.17343465759201"><ele>53.00000000000001</ele><time>2026-04-06T06:29:29Z</time></trkpt><trkpt lat="40.34971442284718" lon="18.17336166724211"><ele>53.0</ele><time>2026-04-06T06:29:30Z</time></trkpt><trkpt lat="40.349653447249445" lon="18.173311359931272"><ele>53.2</ele><time>2026-04-06T06:29:31Z</time></trkpt><trkpt lat="40.34955725530252" lon="18.173235362627338"><ele>53.4</ele><time>2026-04-06T06:29:33Z</time></trkpt><trkpt lat="40.34948375468121" lon="18.17317147989274"><ele>53.60000000000001</ele><time>2026-04-06T06:29:35Z</time></trkpt><trkpt lat="40.34939862635594" lon="18.1731086913644"><ele>53.800000000000004</ele><time>2026-04-06T06:29:38Z</time></trkpt><trkpt lat="40.34933678817347" lon="18.17324203064457"><ele>54.0</ele><time>2026-04-06T06:29:39Z</time></trkpt><trkpt lat="40.34929660642343" lon="18.17336464526168"><ele>54.0</ele><time>2026-04-06T06:29:41Z</time></trkpt><trkpt lat="40.34923152401986" lon="18.17348450975157"><ele>54.0</ele><time>2026-04-06T06:29:44Z</time></trkpt><trkpt lat="40.349204630190336" lon="18.17358608219476"><ele>54.0</ele><time>2026-04-06T06:29:46Z</time></trkpt><trkpt lat="40.3491435076816" lon="18.17368881660515"><ele>54.0</ele><time>2026-04-06T06:29:49.001Z</time></trkpt><trkpt lat="40.34912799138723" lon="18.173777393704498"><ele>54.0</ele><time>2026-04-06T06:29:50.001Z</time></trkpt><trkpt lat="40.34911470580605" lon="18.173863359758805"><ele>54.0</ele><time>2026-04-06T06:29:52.001Z</time></trkpt><trkpt lat="40.349087326068975" lon="18.17396701926639"><ele>54.166666666666664</ele><time>2026-04-06T06:30:24.002Z</time></trkpt><trkpt lat="40.34905591397447" lon="18.17404065622285"><ele>54.33333333333333</ele><time>2026-04-06T06:30:25.002Z</time></trkpt><trkpt lat="40.349027835902106" lon="18.17411937414201"><ele>54.5</ele><time>2026-04-06T06:30:26.002Z</time></trkpt><trkpt lat="40.34900174109458" lon="18.174216811354224"><ele>54.666666666666664</ele><time>2026-04-06T06:30:27.002Z</time></trkpt><trkpt lat="40.34893134923787" lon="18.174330941667854"><ele>54.83333333333333</ele><time>2026-04-06T06:30:28.002Z</time></trkpt><trkpt lat="40.3488833531547" lon="18.17444918761193"><ele>55.0</ele><time>2026-04-06T06:30:29.002Z</time></trkpt><trkpt lat="40.34882887518144" lon="18.17458946684332"><ele>54.0</ele><time>2026-04-06T06:30:30.002Z</time></trkpt><trkpt lat="40.348775893972785" lon="18.174740875483028"><ele>53.0</ele><time>2026-04-06T06:30:31.002Z</time></trkpt><trkpt lat="40.34871974517107" lon="18.17491235780173"><ele>52.0</ele><time>2026-04-06T06:30:32.002Z</time></trkpt><trkpt lat="40.34866378956061" lon="18.175065209605773"><ele>51.0</ele><time>2026-04-06T06:30:33.002Z</time></trkpt><trkpt lat="40.34860895089919" lon="18.175210168971507"><ele>50.25</ele><time>2026-04-06T06:30:34.002Z</time></trkpt><trkpt lat="40.34859196864153" lon="18.17537091612756"><ele>49.5</ele><time>2026-04-06T06:30:35.002Z</time></trkpt><trkpt lat="40.34854495810898" lon="18.17551617705508"><ele>48.75</ele><time>2026-04-06T06:30:36.002Z</time></trkpt><trkpt lat="40.34849916018311" lon="18.17565108830998"><ele>48.0</ele><time>2026-04-06T06:30:37.002Z</time></trkpt><trkpt lat="40.34846207203727" lon="18.175763139222763"><ele>48.0</ele><time>2026-04-06T06:30:38.002Z</time></trkpt><trkpt lat="40.34842755468608" lon="18.1758714942786"><ele>48.0</ele><time>2026-04-06T06:30:39.002Z</time></trkpt><trkpt lat="40.3483955974883" lon="18.175971731406385"><ele>48.0</ele><time>2026-04-06T06:30:40.002Z</time></trkpt><trkpt lat="40.34837054410569" lon="18.17606699928441"><ele>48.0</ele><time>2026-04-06T06:30:41.002Z</time></trkpt><trkpt lat="40.34834048621015" lon="18.17619069524188"><ele>48.0</ele><time>2026-04-06T06:30:42.002Z</time></trkpt><trkpt lat="40.34831247908586" lon="18.176298809064235"><ele>48.0</ele><time>2026-04-06T06:30:43.002Z</time></trkpt><trkpt lat="40.34832836521783" lon="18.17613984373043"><ele>48.0</ele><time>2026-04-06T06:30:44.002Z</time></trkpt><trkpt lat="40.34826908082476" lon="18.176301718229585"><ele>48.0</ele><time>2026-04-06T06:30:45.002Z</time></trkpt><trkpt lat="40.34824035740581" lon="18.176381101340397"><ele>48.0</ele><time>2026-04-06T06:30:46.002Z</time></trkpt><trkpt lat="40.34820051630411" lon="18.176489907007618"><ele>48.0</ele><time>2026-04-06T06:30:47.002Z</time></trkpt><trkpt lat="40.3480488978055" lon="18.176961189138723"><ele>48.0</ele><time>2026-04-06T06:30:48.002Z</time></trkpt><trkpt lat="40.34799538572462" lon="18.177124806100228"><ele>48.0</ele><time>2026-04-06T06:30:49.002Z</time></trkpt><trkpt lat="40.34795266885189" lon="18.1772442362405"><ele>48.0</ele><time>2026-04-06T06:30:50.002Z</time></trkpt><trkpt lat="40.347928022773274" lon="18.177454835535663"><ele>48.0</ele><time>2026-04-06T06:30:51.002Z</time></trkpt><trkpt lat="40.34784265051347" lon="18.177649573285304"><ele>48.25</ele><time>2026-04-06T06:30:52.002Z</time></trkpt><trkpt lat="40.34777956916015" lon="18.17783944709783"><ele>48.5</ele><time>2026-04-06T06:30:53.002Z</time></trkpt><trkpt lat="40.34771934103398" lon="18.178029967952877"><ele>48.75</ele><time>2026-04-06T06:30:54.002Z</time></trkpt><trkpt lat="40.34766645604443" lon="18.178169737770133"><ele>49.0</ele><time>2026-04-06T06:30:55.002Z</time></trkpt><trkpt lat="40.34761372965723" lon="18.178324982573887"><ele>49.5</ele><time>2026-04-06T06:30:56.002Z</time></trkpt><trkpt lat="40.34755627762603" lon="18.17848390419967"><ele>50.0</ele><time>2026-04-06T06:30:57.002Z</time></trkpt><trkpt lat="40.347482879685984" lon="18.178665706135966"><ele>50.5</ele><time>2026-04-06T06:30:58.002Z</time></trkpt><trkpt lat="40.3474372157293" lon="18.178766913031847"><ele>51.0</ele><time>2026-04-06T06:30:59.002Z</time></trkpt><trkpt lat="40.34733374721698" lon="18.178903598121796"><ele>51.199999999999996</ele><time>2026-04-06T06:31:01.003Z</time></trkpt><trkpt lat="40.347263395924934" lon="18.17903781234924"><ele>51.4</ele><time>2026-04-06T06:31:03.003Z</time></trkpt><trkpt lat="40.34723615296053" lon="18.179129785564758"><ele>51.6</ele><time>2026-04-06T06:31:04.003Z</time></trkpt><trkpt lat="40.347198659344876" lon="18.179247470613216"><ele>51.8</ele><time>2026-04-06T06:31:05.003Z</time></trkpt><trkpt lat="40.34725382773147" lon="18.17937775866987"><ele>52.0</ele><time>2026-04-06T06:31:06.003Z</time></trkpt><trkpt lat="40.347204243212985" lon="18.17953155550744"><ele>52.0</ele><time>2026-04-06T06:31:06.999Z</time></trkpt><trkpt lat="40.34717165818911" lon="18.179628821264917"><ele>52.0</ele><time>2026-04-06T06:31:07.999Z</time></trkpt><trkpt lat="40.34712156464281" lon="18.179730142145054"><ele>52.0</ele><time>2026-04-06T06:31:08.999Z</time></trkpt><trkpt lat="40.34707493180561" lon="18.1798729543276"><ele>52.0</ele><time>2026-04-06T06:31:09.999Z</time></trkpt><trkpt lat="40.347018231675264" lon="18.18000726836697"><ele>52.0</ele><time>2026-04-06T06:31:10.999Z</time></trkpt><trkpt lat="40.3469767446733" lon="18.180141644453727"><ele>52.0</ele><time>2026-04-06T06:31:11.999Z</time></trkpt><trkpt lat="40.34693489024245" lon="18.18027443116897"><ele>52.0</ele><time>2026-04-06T06:31:12.999Z</time></trkpt><trkpt lat="40.346898681158024" lon="18.18039777940858"><ele>52.0</ele><time>2026-04-06T06:31:13.999Z</time></trkpt><trkpt lat="40.34686187390279" lon="18.1805956289768"><ele>52.0</ele><time>2026-04-06T06:31:14.999Z</time></trkpt><trkpt lat="40.346806893909296" lon="18.180802238743965"><ele>51.0</ele><time>2026-04-06T06:31:15.999Z</time></trkpt><trkpt lat="40.34671349860022" lon="18.180987556249963"><ele>50.0</ele><time>2026-04-06T06:31:16.999Z</time></trkpt><trkpt lat="40.346686916275296" lon="18.18120841316446"><ele>49.0</ele><time>2026-04-06T06:31:17.999Z</time></trkpt><trkpt lat="40.34661916361744" lon="18.181382131036013"><ele>48.5</ele><time>2026-04-06T06:31:18.999Z</time></trkpt><trkpt lat="40.34654034481183" lon="18.18152577765598"><ele>48.0</ele><time>2026-04-06T06:31:19.999Z</time></trkpt><trkpt lat="40.346474800552585" lon="18.181684147357085"><ele>47.5</ele><time>2026-04-06T06:31:21Z</time></trkpt><trkpt lat="40.346440716667765" lon="18.181808524600473"><ele>47.0</ele><time>2026-04-06T06:31:22Z</time></trkpt><trkpt lat="40.346384678487176" lon="18.181941466497577"><ele>47.0</ele><time>2026-04-06T06:31:23Z</time></trkpt><trkpt lat="40.34632957642395" lon="18.182095831502423"><ele>47.0</ele><time>2026-04-06T06:31:24Z</time></trkpt><trkpt lat="40.34627471056305" lon="18.182243388275722"><ele>47.0</ele><time>2026-04-06T06:31:25Z</time></trkpt><trkpt lat="40.34622588417754" lon="18.18236632905529"><ele>47.0</ele><time>2026-04-06T06:31:26Z</time></trkpt><trkpt lat="40.34617228002958" lon="18.18252925203903"><ele>47.25</ele><time>2026-04-06T06:31:27Z</time></trkpt><trkpt lat="40.34611841795574" lon="18.18269058045444"><ele>47.5</ele><time>2026-04-06T06:31:28Z</time></trkpt><trkpt lat="40.34607725573118" lon="18.182827087054942"><ele>47.75</ele><time>2026-04-06T06:31:29Z</time></trkpt><trkpt lat="40.34603214238379" lon="18.18297374498532"><ele>48.0</ele><time>2026-04-06T06:31:30Z</time></trkpt><trkpt lat="40.34598152308712" lon="18.183082509482983"><ele>48.0</ele><time>2026-04-06T06:31:31Z</time></trkpt><trkpt lat="40.34598231708947" lon="18.183197885260395"><ele>48.0</ele><time>2026-04-06T06:31:32Z</time></trkpt><trkpt lat="40.345935968266005" lon="18.18295549426871"><ele>48.0</ele><time>2026-04-06T06:31:33Z</time></trkpt><trkpt lat="40.3458495790351" lon="18.183031109797334"><ele>48.0</ele><time>2026-04-06T06:31:34Z</time></trkpt><trkpt lat="40.345736249428306" lon="18.183122173329643"><ele>47.5</ele><time>2026-04-06T06:31:36Z</time></trkpt><trkpt lat="40.34567809309883" lon="18.18320059262281"><ele>47.0</ele><time>2026-04-06T06:31:37Z</time></trkpt><trkpt lat="40.34560201780227" lon="18.18330700310895"><ele>46.5</ele><time>2026-04-06T06:31:38Z</time></trkpt><trkpt lat="40.345509099252936" lon="18.18342121187597"><ele>46.0</ele><time>2026-04-06T06:31:39Z</time></trkpt><trkpt lat="40.34534506752684" lon="18.1836070620083"><ele>45.66666666666667</ele><time>2026-04-06T06:31:40Z</time></trkpt><trkpt lat="40.345193313477445" lon="18.183711863884785"><ele>45.333333333333336</ele><time>2026-04-06T06:31:41Z</time></trkpt><trkpt lat="40.34500300783215" lon="18.183801895590072"><ele>45.0</ele><time>2026-04-06T06:31:42Z</time></trkpt><trkpt lat="40.34483001257026" lon="18.183961039142023"><ele>45.333333333333336</ele><time>2026-04-06T06:31:43Z</time></trkpt><trkpt lat="40.34466053595603" lon="18.184120148546324"><ele>45.66666666666667</ele><time>2026-04-06T06:31:44Z</time></trkpt><trkpt lat="40.34450589186787" lon="18.184292341831412"><ele>46.0</ele><time>2026-04-06T06:31:45Z</time></trkpt><trkpt lat="40.34434647828855" lon="18.18449200843199"><ele>46.0</ele><time>2026-04-06T06:31:46Z</time></trkpt><trkpt lat="40.34419591817673" lon="18.184703856160873"><ele>46.0</ele><time>2026-04-06T06:31:47.001Z</time></trkpt><trkpt lat="40.344024351495555" lon="18.184951677103985"><ele>46.5</ele><time>2026-04-06T06:31:48.001Z</time></trkpt><trkpt lat="40.34384571984264" lon="18.185225583497214"><ele>47.0</ele><time>2026-04-06T06:31:49.001Z</time></trkpt><trkpt lat="40.343674563660386" lon="18.185536410948483"><ele>47.5</ele><time>2026-04-06T06:31:50.001Z</time></trkpt><trkpt lat="40.34350516208236" lon="18.185837865201588"><ele>48.0</ele><time>2026-04-06T06:31:51.001Z</time></trkpt><trkpt lat="40.343345677789024" lon="18.186114053469446"><ele>48.0</ele><time>2026-04-06T06:31:52.001Z</time></trkpt><trkpt lat="40.34317376650373" lon="18.186381854612897"><ele>48.0</ele><time>2026-04-06T06:31:53.001Z</time></trkpt><trkpt lat="40.34303831254446" lon="18.186650659083238"><ele>47.0</ele><time>2026-04-06T06:31:54.001Z</time></trkpt><trkpt lat="40.342867176385994" lon="18.186925392616264"><ele>46.0</ele><time>2026-04-06T06:31:55.001Z</time></trkpt><trkpt lat="40.342635222106296" lon="18.187187018972075"><ele>46.0</ele><time>2026-04-06T06:31:56.001Z</time></trkpt><trkpt lat="40.342312479832586" lon="18.187483026945486"><ele>46.0</ele><time>2026-04-06T06:31:57.001Z</time></trkpt><trkpt lat="40.342062617268404" lon="18.18774529709445"><ele>46.0</ele><time>2026-04-06T06:31:58.001Z</time></trkpt><trkpt lat="40.341792036110235" lon="18.18800054715357"><ele>46.0</ele><time>2026-04-06T06:31:59.001Z</time></trkpt><trkpt lat="40.341511891416566" lon="18.188191963535434"><ele>43.0</ele><time>2026-04-06T06:32:00.001Z</time></trkpt><trkpt lat="40.34126142586266" lon="18.188406449239242"><ele>40.0</ele><time>2026-04-06T06:32:01.001Z</time></trkpt><trkpt lat="40.340976656294096" lon="18.188598999490466"><ele>40.0</ele><time>2026-04-06T06:32:02.001Z</time></trkpt><trkpt lat="40.3407025294072" lon="18.1887709740739"><ele>40.0</ele><time>2026-04-06T06:32:03.001Z</time></trkpt><trkpt lat="40.3404244214924" lon="18.188930090967123"><ele>41.0</ele><time>2026-04-06T06:32:04.001Z</time></trkpt><trkpt lat="40.340145218040554" lon="18.18908735466921"><ele>42.0</ele><time>2026-04-06T06:32:05.001Z</time></trkpt><trkpt lat="40.33986104201352" lon="18.189232798566533"><ele>41.5</ele><time>2026-04-06T06:32:06.001Z</time></trkpt><trkpt lat="40.33957189268219" lon="18.189362430429583"><ele>41.0</ele><time>2026-04-06T06:32:07.001Z</time></trkpt><trkpt lat="40.33927664323812" lon="18.189480283977886"><ele>41.0</ele><time>2026-04-06T06:32:08.001Z</time></trkpt><trkpt lat="40.33897164089666" lon="18.18959818780649"><ele>41.0</ele><time>2026-04-06T06:32:09.001Z</time></trkpt><trkpt lat="40.33866593859295" lon="18.18969298029008"><ele>41.0</ele><time>2026-04-06T06:32:10.001Z</time></trkpt><trkpt lat="40.33835633247209" lon="18.189764453850085"><ele>41.0</ele><time>2026-04-06T06:32:11.001Z</time></trkpt><trkpt lat="40.338047254585874" lon="18.189824431161952"><ele>40.0</ele><time>2026-04-06T06:32:12.001Z</time></trkpt><trkpt lat="40.337732396344805" lon="18.18987834331178"><ele>39.0</ele><time>2026-04-06T06:32:13.001Z</time></trkpt><trkpt lat="40.337421398442494" lon="18.189916581290817"><ele>39.5</ele><time>2026-04-06T06:32:14.001Z</time></trkpt><trkpt lat="40.33711203572995" lon="18.18993832884749"><ele>40.0</ele><time>2026-04-06T06:32:15.001Z</time></trkpt><trkpt lat="40.33678795676602" lon="18.189949076683153"><ele>40.0</ele><time>2026-04-06T06:32:16.001Z</time></trkpt><trkpt lat="40.33646079360633" lon="18.189950326813502"><ele>40.0</ele><time>2026-04-06T06:32:17.001Z</time></trkpt><trkpt lat="40.33613936166714" lon="18.189947525067282"><ele>39.5</ele><time>2026-04-06T06:32:18.001Z</time></trkpt><trkpt lat="40.33580917380143" lon="18.189911106447173"><ele>39.0</ele><time>2026-04-06T06:32:19.002Z</time></trkpt><trkpt lat="40.33548346712661" lon="18.18987229631025"><ele>39.5</ele><time>2026-04-06T06:32:20.002Z</time></trkpt><trkpt lat="40.335163232783636" lon="18.189794665314366"><ele>40.0</ele><time>2026-04-06T06:32:21.002Z</time></trkpt><trkpt lat="40.33484334337376" lon="18.189703531785415"><ele>41.5</ele><time>2026-04-06T06:32:22.002Z</time></trkpt><trkpt lat="40.33452972691021" lon="18.189597612822652"><ele>43.0</ele><time>2026-04-06T06:32:23.002Z</time></trkpt><trkpt lat="40.3342289343067" lon="18.189471068929684"><ele>43.0</ele><time>2026-04-06T06:32:24.002Z</time></trkpt><trkpt lat="40.33392538835297" lon="18.189340920121268"><ele>43.0</ele><time>2026-04-06T06:32:25.002Z</time></trkpt><trkpt lat="40.33361916107102" lon="18.189195901193436"><ele>42.5</ele><time>2026-04-06T06:32:26.002Z</time></trkpt><trkpt lat="40.33331742466186" lon="18.1890349712499"><ele>42.0</ele><time>2026-04-06T06:32:27.002Z</time></trkpt><trkpt lat="40.333013266767274" lon="18.18886027484456"><ele>40.5</ele><time>2026-04-06T06:32:28.002Z</time></trkpt><trkpt lat="40.332709168363074" lon="18.18867971539841"><ele>39.0</ele><time>2026-04-06T06:32:29.002Z</time></trkpt><trkpt lat="40.33241405316789" lon="18.188502257389793"><ele>39.5</ele><time>2026-04-06T06:32:30.002Z</time></trkpt><trkpt lat="40.332119417250205" lon="18.18832008851658"><ele>40.0</ele><time>2026-04-06T06:32:31.002Z</time></trkpt><trkpt lat="40.33181984927485" lon="18.188140725865814"><ele>40.0</ele><time>2026-04-06T06:32:32.002Z</time></trkpt><trkpt lat="40.331530435662536" lon="18.187959474987338"><ele>40.0</ele><time>2026-04-06T06:32:33.002Z</time></trkpt><trkpt lat="40.33124026815361" lon="18.187779463341425"><ele>41.0</ele><time>2026-04-06T06:32:34.002Z</time></trkpt><trkpt lat="40.330951459269606" lon="18.18759743316239"><ele>42.0</ele><time>2026-04-06T06:32:35.002Z</time></trkpt><trkpt lat="40.33067197627349" lon="18.18742735493305"><ele>42.0</ele><time>2026-04-06T06:32:36.002Z</time></trkpt><trkpt lat="40.33038911165885" lon="18.18725427537409"><ele>42.0</ele><time>2026-04-06T06:32:37.002Z</time></trkpt><trkpt lat="40.33011110396594" lon="18.187085854311803"><ele>42.0</ele><time>2026-04-06T06:32:38.002Z</time></trkpt><trkpt lat="40.32983160453134" lon="18.186918948696924"><ele>42.0</ele><time>2026-04-06T06:32:39.002Z</time></trkpt><trkpt lat="40.32955458687851" lon="18.18675213170509"><ele>42.5</ele><time>2026-04-06T06:32:40.002Z</time></trkpt><trkpt lat="40.32927451650009" lon="18.186584694672387"><ele>43.0</ele><time>2026-04-06T06:32:41.002Z</time></trkpt><trkpt lat="40.32900051089684" lon="18.18641699929848"><ele>43.5</ele><time>2026-04-06T06:32:42.002Z</time></trkpt><trkpt lat="40.32872859574014" lon="18.186249940485673"><ele>44.0</ele><time>2026-04-06T06:32:43.002Z</time></trkpt><trkpt lat="40.328453188177065" lon="18.18608695807318"><ele>44.0</ele><time>2026-04-06T06:32:44.002Z</time></trkpt><trkpt lat="40.32818153225205" lon="18.18593673056154"><ele>44.0</ele><time>2026-04-06T06:32:45.002Z</time></trkpt><trkpt lat="40.32791111289943" lon="18.185806894882223"><ele>43.5</ele><time>2026-04-06T06:32:46.002Z</time></trkpt><trkpt lat="40.32763539429643" lon="18.18567768520667"><ele>43.0</ele><time>2026-04-06T06:32:47.002Z</time></trkpt><trkpt lat="40.3273627023493" lon="18.185575463438695"><ele>43.0</ele><time>2026-04-06T06:32:48.002Z</time></trkpt><trkpt lat="40.3270858080706" lon="18.185492016610134"><ele>43.0</ele><time>2026-04-06T06:32:49.002Z</time></trkpt><trkpt lat="40.32680687263574" lon="18.1854236591343"><ele>43.0</ele><time>2026-04-06T06:32:50.002Z</time></trkpt><trkpt lat="40.32652631351327" lon="18.185365243714575"><ele>43.0</ele><time>2026-04-06T06:32:51.002Z</time></trkpt><trkpt lat="40.32624993923776" lon="18.185319705410855"><ele>45.0</ele><time>2026-04-06T06:32:52.002Z</time></trkpt><trkpt lat="40.32597984490458" lon="18.185290553074843"><ele>47.0</ele><time>2026-04-06T06:32:53.003Z</time></trkpt><trkpt lat="40.325720558157705" lon="18.185277424387678"><ele>46.5</ele><time>2026-04-06T06:32:54.003Z</time></trkpt><trkpt lat="40.32545741349405" lon="18.185273470453907"><ele>46.0</ele><time>2026-04-06T06:32:55.003Z</time></trkpt><trkpt lat="40.32518202566314" lon="18.185294644510613"><ele>46.0</ele><time>2026-04-06T06:32:56.003Z</time></trkpt><trkpt lat="40.32491606380724" lon="18.185333790866647"><ele>46.0</ele><time>2026-04-06T06:32:57.003Z</time></trkpt><trkpt lat="40.3246517362036" lon="18.18538585737799"><ele>44.5</ele><time>2026-04-06T06:32:58.003Z</time></trkpt><trkpt lat="40.32438321265916" lon="18.18544730326202"><ele>43.0</ele><time>2026-04-06T06:32:59.003Z</time></trkpt><trkpt lat="40.32410745966545" lon="18.185517472159077"><ele>42.0</ele><time>2026-04-06T06:33:00.003Z</time></trkpt><trkpt lat="40.32383247612254" lon="18.185596420202277"><ele>41.0</ele><time>2026-04-06T06:33:01.003Z</time></trkpt><trkpt lat="40.32355205506369" lon="18.185701425375623"><ele>41.0</ele><time>2026-04-06T06:33:02.003Z</time></trkpt><trkpt lat="40.32326653588497" lon="18.185824824640388"><ele>41.0</ele><time>2026-04-06T06:33:03.003Z</time></trkpt><trkpt lat="40.32297509151313" lon="18.185952345255657"><ele>42.5</ele><time>2026-04-06T06:33:04.003Z</time></trkpt><trkpt lat="40.32267668480313" lon="18.186088880181025"><ele>44.0</ele><time>2026-04-06T06:33:05.003Z</time></trkpt><trkpt lat="40.32236562390714" lon="18.186247582862006"><ele>44.0</ele><time>2026-04-06T06:33:06.003Z</time></trkpt><trkpt lat="40.32205484636527" lon="18.18637903156611"><ele>44.0</ele><time>2026-04-06T06:33:07.003Z</time></trkpt><trkpt lat="40.32173542243842" lon="18.18650312880742"><ele>43.5</ele><time>2026-04-06T06:33:08.003Z</time></trkpt><trkpt lat="40.32141013945333" lon="18.186629578196683"><ele>43.0</ele><time>2026-04-06T06:33:09.003Z</time></trkpt><trkpt lat="40.32107801042203" lon="18.18675600161654"><ele>43.0</ele><time>2026-04-06T06:33:10.003Z</time></trkpt><trkpt lat="40.32074714872616" lon="18.186891150787943"><ele>43.0</ele><time>2026-04-06T06:33:11.003Z</time></trkpt><trkpt lat="40.32040614314919" lon="18.187020912534333"><ele>42.5</ele><time>2026-04-06T06:33:12.003Z</time></trkpt><trkpt lat="40.320072400682115" lon="18.187159717304052"><ele>42.0</ele><time>2026-04-06T06:33:13Z</time></trkpt><trkpt lat="40.31973404228712" lon="18.187299670050702"><ele>44.0</ele><time>2026-04-06T06:33:14Z</time></trkpt><trkpt lat="40.319394210733584" lon="18.187451459696245"><ele>46.0</ele><time>2026-04-06T06:33:15Z</time></trkpt><trkpt lat="40.31905511957623" lon="18.187591765446044"><ele>44.5</ele><time>2026-04-06T06:33:16Z</time></trkpt><trkpt lat="40.31870655012149" lon="18.187748326782515"><ele>43.0</ele><time>2026-04-06T06:33:17Z</time></trkpt><trkpt lat="40.31835782762945" lon="18.187898874637103"><ele>42.5</ele><time>2026-04-06T06:33:18Z</time></trkpt><trkpt lat="40.31801479920104" lon="18.188045075997234"><ele>42.0</ele><time>2026-04-06T06:33:19Z</time></trkpt><trkpt lat="40.31768650923755" lon="18.1881780499757"><ele>42.0</ele><time>2026-04-06T06:33:20Z</time></trkpt><trkpt lat="40.3173743229583" lon="18.18831008133896"><ele>42.0</ele><time>2026-04-06T06:33:21Z</time></trkpt><trkpt lat="40.317071626695814" lon="18.188439058232614"><ele>42.0</ele><time>2026-04-06T06:33:22Z</time></trkpt><trkpt lat="40.31677660538044" lon="18.18856325478647"><ele>42.0</ele><time>2026-04-06T06:33:23Z</time></trkpt><trkpt lat="40.31649269582991" lon="18.188684823020754"><ele>39.5</ele><time>2026-04-06T06:33:24Z</time></trkpt><trkpt lat="40.316225278786135" lon="18.18879464983196"><ele>37.0</ele><time>2026-04-06T06:33:25Z</time></trkpt><trkpt lat="40.315964636127546" lon="18.188910929245814"><ele>38.0</ele><time>2026-04-06T06:33:26Z</time></trkpt><trkpt lat="40.315708677447255" lon="18.189019059082483"><ele>39.0</ele><time>2026-04-06T06:33:27Z</time></trkpt><trkpt lat="40.31545277202578" lon="18.189121779459683"><ele>40.5</ele><time>2026-04-06T06:33:28Z</time></trkpt><trkpt lat="40.31521186655607" lon="18.189229430037127"><ele>42.0</ele><time>2026-04-06T06:33:29Z</time></trkpt><trkpt lat="40.314967089230024" lon="18.189327500000715"><ele>42.0</ele><time>2026-04-06T06:33:30Z</time></trkpt><trkpt lat="40.31473641866201" lon="18.189428389509857"><ele>42.0</ele><time>2026-04-06T06:33:31Z</time></trkpt><trkpt lat="40.31450177693614" lon="18.18951913714766"><ele>42.0</ele><time>2026-04-06T06:33:32Z</time></trkpt><trkpt lat="40.3142692619723" lon="18.18961199368242"><ele>42.0</ele><time>2026-04-06T06:33:33Z</time></trkpt><trkpt lat="40.314030752644186" lon="18.189690766597014"><ele>42.0</ele><time>2026-04-06T06:33:34Z</time></trkpt><trkpt lat="40.31378530104438" lon="18.189753141128453"><ele>42.0</ele><time>2026-04-06T06:33:35Z</time></trkpt><trkpt lat="40.313539112569586" lon="18.18980027226735"><ele>42.0</ele><time>2026-04-06T06:33:36Z</time></trkpt><trkpt lat="40.313285062527" lon="18.18982864731625"><ele>42.0</ele><time>2026-04-06T06:33:37Z</time></trkpt><trkpt lat="40.31303278912206" lon="18.189838597630626"><ele>41.0</ele><time>2026-04-06T06:33:38Z</time></trkpt><trkpt lat="40.31278306052491" lon="18.18981265730701"><ele>40.0</ele><time>2026-04-06T06:33:39Z</time></trkpt><trkpt lat="40.31253573993399" lon="18.18976855370129"><ele>40.0</ele><time>2026-04-06T06:33:40Z</time></trkpt><trkpt lat="40.31227124577938" lon="18.189710837506954"><ele>40.0</ele><time>2026-04-06T06:33:41Z</time></trkpt><trkpt lat="40.31201134904647" lon="18.189648948758624"><ele>38.5</ele><time>2026-04-06T06:33:42Z</time></trkpt><trkpt lat="40.31175828850961" lon="18.189577187743417"><ele>37.0</ele><time>2026-04-06T06:33:43Z</time></trkpt><trkpt lat="40.311515584230364" lon="18.189518177959403"><ele>37.5</ele><time>2026-04-06T06:33:44Z</time></trkpt><trkpt lat="40.311273970150054" lon="18.18948133426636"><ele>38.0</ele><time>2026-04-06T06:33:45Z</time></trkpt><trkpt lat="40.31102546331453" lon="18.18945413293684"><ele>38.0</ele><time>2026-04-06T06:33:46Z</time></trkpt><trkpt lat="40.310775370163775" lon="18.189443603133334"><ele>38.0</ele><time>2026-04-06T06:33:47Z</time></trkpt><trkpt lat="40.310513517996164" lon="18.189445871500578"><ele>38.5</ele><time>2026-04-06T06:33:48Z</time></trkpt><trkpt lat="40.31025576833572" lon="18.18946323439523"><ele>39.0</ele><time>2026-04-06T06:33:49Z</time></trkpt><trkpt lat="40.30999412606055" lon="18.189502871328546"><ele>40.5</ele><time>2026-04-06T06:33:50Z</time></trkpt><trkpt lat="40.3097329962423" lon="18.189557011661055"><ele>42.0</ele><time>2026-04-06T06:33:51Z</time></trkpt><trkpt lat="40.30947099430182" lon="18.189634091211023"><ele>42.0</ele><time>2026-04-06T06:33:52.001Z</time></trkpt><trkpt lat="40.309202793836576" lon="18.18972738434108"><ele>42.0</ele><time>2026-04-06T06:33:53.001Z</time></trkpt><trkpt lat="40.30892800167496" lon="18.189833363147144"><ele>42.5</ele><time>2026-04-06T06:33:54.001Z</time></trkpt><trkpt lat="40.30864816306963" lon="18.18994560720968"><ele>43.0</ele><time>2026-04-06T06:33:55.001Z</time></trkpt><trkpt lat="40.30836479982427" lon="18.19006905172291"><ele>43.0</ele><time>2026-04-06T06:33:56.001Z</time></trkpt><trkpt lat="40.30807422438918" lon="18.190194609878088"><ele>43.0</ele><time>2026-04-06T06:33:57.001Z</time></trkpt><trkpt lat="40.30777984432297" lon="18.190314744784267"><ele>43.0</ele><time>2026-04-06T06:33:58.001Z</time></trkpt><trkpt lat="40.307481928430754" lon="18.19044513196183"><ele>43.0</ele><time>2026-04-06T06:33:59.001Z</time></trkpt><trkpt lat="40.3071740229495" lon="18.190574301632488"><ele>42.0</ele><time>2026-04-06T06:34:00.001Z</time></trkpt><trkpt lat="40.30686405566786" lon="18.190718977205858"><ele>41.0</ele><time>2026-04-06T06:34:01.001Z</time></trkpt><trkpt lat="40.306533665913214" lon="18.19085752709565"><ele>42.5</ele><time>2026-04-06T06:34:02.001Z</time></trkpt><trkpt lat="40.30621143006914" lon="18.190993983685104"><ele>44.0</ele><time>2026-04-06T06:34:03.001Z</time></trkpt><trkpt lat="40.30588309364178" lon="18.191124237801027"><ele>44.0</ele><time>2026-04-06T06:34:04.001Z</time></trkpt><trkpt lat="40.30553345716745" lon="18.19126457348211"><ele>44.0</ele><time>2026-04-06T06:34:05.001Z</time></trkpt><trkpt lat="40.30520205807078" lon="18.19142338947357"><ele>43.0</ele><time>2026-04-06T06:34:06.001Z</time></trkpt><trkpt lat="40.30485388760781" lon="18.191568393182987"><ele>42.0</ele><time>2026-04-06T06:34:07.001Z</time></trkpt><trkpt lat="40.304508771053534" lon="18.191713452357348"><ele>41.5</ele><time>2026-04-06T06:34:08.001Z</time></trkpt><trkpt lat="40.304155074383715" lon="18.19186172216856"><ele>41.0</ele><time>2026-04-06T06:34:09.001Z</time></trkpt><trkpt lat="40.30380835649498" lon="18.192009669522598"><ele>41.0</ele><time>2026-04-06T06:34:10.001Z</time></trkpt><trkpt lat="40.30345405894727" lon="18.192154881421768"><ele>41.0</ele><time>2026-04-06T06:34:11.001Z</time></trkpt><trkpt lat="40.30310549497138" lon="18.192293749952615"><ele>41.0</ele><time>2026-04-06T06:34:12.001Z</time></trkpt><trkpt lat="40.30275142836903" lon="18.192439945799823"><ele>41.0</ele><time>2026-04-06T06:34:13.001Z</time></trkpt><trkpt lat="40.30239932001411" lon="18.192588141803775"><ele>41.0</ele><time>2026-04-06T06:34:14.001Z</time></trkpt><trkpt lat="40.30204858378039" lon="18.192743101786814"><ele>41.0</ele><time>2026-04-06T06:34:15.001Z</time></trkpt><trkpt lat="40.30169385287903" lon="18.192893611477324"><ele>40.5</ele><time>2026-04-06T06:34:16.001Z</time></trkpt><trkpt lat="40.301337680717005" lon="18.193043311499718"><ele>40.0</ele><time>2026-04-06T06:34:17.001Z</time></trkpt><trkpt lat="40.3009963836445" lon="18.19318197647826"><ele>40.5</ele><time>2026-04-06T06:34:18.001Z</time></trkpt><trkpt lat="40.30064490021561" lon="18.193327035797896"><ele>41.0</ele><time>2026-04-06T06:34:19.001Z</time></trkpt><trkpt lat="40.300291423564" lon="18.19347682686594"><ele>41.0</ele><time>2026-04-06T06:34:20.001Z</time></trkpt><trkpt lat="40.29993757873345" lon="18.19362518342468"><ele>41.0</ele><time>2026-04-06T06:34:21.001Z</time></trkpt><trkpt lat="40.299585059904466" lon="18.193770880956563"><ele>41.0</ele><time>2026-04-06T06:34:22.001Z</time></trkpt><trkpt lat="40.29922628308868" lon="18.1939156405164"><ele>41.0</ele><time>2026-04-06T06:34:23.001Z</time></trkpt><trkpt lat="40.29886763670697" lon="18.194063922001565"><ele>41.0</ele><time>2026-04-06T06:34:24.001Z</time></trkpt><trkpt lat="40.29851319133086" lon="18.194221090593643"><ele>41.0</ele><time>2026-04-06T06:34:25.002Z</time></trkpt><trkpt lat="40.2981572928509" lon="18.194370672747358"><ele>41.0</ele><time>2026-04-06T06:34:26.002Z</time></trkpt><trkpt lat="40.297800255832" lon="18.194516965405313"><ele>41.0</ele><time>2026-04-06T06:34:27.002Z</time></trkpt><trkpt lat="40.29744296941594" lon="18.194663365904525"><ele>41.0</ele><time>2026-04-06T06:34:28.002Z</time></trkpt><trkpt lat="40.29708447238937" lon="18.194815580072746"><ele>41.0</ele><time>2026-04-06T06:34:29.002Z</time></trkpt><trkpt lat="40.29672865592412" lon="18.19496532608355"><ele>41.0</ele><time>2026-04-06T06:34:30.002Z</time></trkpt><trkpt lat="40.29637148676398" lon="18.19511501141575"><ele>41.0</ele><time>2026-04-06T06:34:31.002Z</time></trkpt><trkpt lat="40.29601515435462" lon="18.195267281354464"><ele>41.0</ele><time>2026-04-06T06:34:32.002Z</time></trkpt><trkpt lat="40.29565633407438" lon="18.195421377462335"><ele>41.0</ele><time>2026-04-06T06:34:33.002Z</time></trkpt><trkpt lat="40.29529886118828" lon="18.195572052733787"><ele>41.5</ele><time>2026-04-06T06:34:34.002Z</time></trkpt><trkpt lat="40.29493968051929" lon="18.19572380976397"><ele>42.0</ele><time>2026-04-06T06:34:35.002Z</time></trkpt><trkpt lat="40.29458259336751" lon="18.19587624213204"><ele>42.0</ele><time>2026-04-06T06:34:36.002Z</time></trkpt><trkpt lat="40.29422620743072" lon="18.19602750452115"><ele>42.0</ele><time>2026-04-06T06:34:37.002Z</time></trkpt><trkpt lat="40.293867405719475" lon="18.19617555059689"><ele>41.5</ele><time>2026-04-06T06:34:38.002Z</time></trkpt><trkpt lat="40.29351031979662" lon="18.19632483782569"><ele>41.0</ele><time>2026-04-06T06:34:39.002Z</time></trkpt><trkpt lat="40.293149896222864" lon="18.19647381713095"><ele>41.5</ele><time>2026-04-06T06:34:40.002Z</time></trkpt><trkpt lat="40.29279489067331" lon="18.196627239141744"><ele>42.0</ele><time>2026-04-06T06:34:41.002Z</time></trkpt><trkpt lat="40.29244388623405" lon="18.19677277762286"><ele>40.5</ele><time>2026-04-06T06:34:42.002Z</time></trkpt><trkpt lat="40.292105171615226" lon="18.19691628079331"><ele>39.0</ele><time>2026-04-06T06:34:43.002Z</time></trkpt><trkpt lat="40.291768984356445" lon="18.197053324738793"><ele>39.0</ele><time>2026-04-06T06:34:44.002Z</time></trkpt><trkpt lat="40.29143820644661" lon="18.197187973653485"><ele>39.0</ele><time>2026-04-06T06:34:45.002Z</time></trkpt><trkpt lat="40.2911110131381" lon="18.197328324249273"><ele>39.5</ele><time>2026-04-06T06:34:46.002Z</time></trkpt><trkpt lat="40.29078881273178" lon="18.197462782119054"><ele>40.0</ele><time>2026-04-06T06:34:47.002Z</time></trkpt><trkpt lat="40.29046291842866" lon="18.197595953644228"><ele>40.0</ele><time>2026-04-06T06:34:48.002Z</time></trkpt><trkpt lat="40.290144714530804" lon="18.197732163842296"><ele>40.0</ele><time>2026-04-06T06:34:49.002Z</time></trkpt><trkpt lat="40.28982829446243" lon="18.197875668647598"><ele>40.5</ele><time>2026-04-06T06:34:50.002Z</time></trkpt><trkpt lat="40.28951207832819" lon="18.19801568421143"><ele>41.0</ele><time>2026-04-06T06:34:51.002Z</time></trkpt><trkpt lat="40.28919472346928" lon="18.198150168110367"><ele>41.5</ele><time>2026-04-06T06:34:52.002Z</time></trkpt><trkpt lat="40.2888732587901" lon="18.19828241643061"><ele>42.0</ele><time>2026-04-06T06:34:53.002Z</time></trkpt><trkpt lat="40.288549914018326" lon="18.19841653553646"><ele>42.0</ele><time>2026-04-06T06:34:54.002Z</time></trkpt><trkpt lat="40.28822903379962" lon="18.198552913825342"><ele>42.0</ele><time>2026-04-06T06:34:55.002Z</time></trkpt><trkpt lat="40.28790379567799" lon="18.19869218655237"><ele>44.5</ele><time>2026-04-06T06:34:56.002Z</time></trkpt><trkpt lat="40.28757718130081" lon="18.198826014598495"><ele>47.0</ele><time>2026-04-06T06:34:57.002Z</time></trkpt><trkpt lat="40.28725034699137" lon="18.198966394527307"><ele>47.0</ele><time>2026-04-06T06:34:58.003Z</time></trkpt><trkpt lat="40.28692391000408" lon="18.199104860210642"><ele>47.0</ele><time>2026-04-06T06:34:59.003Z</time></trkpt><trkpt lat="40.286599594065144" lon="18.199244274455463"><ele>45.5</ele><time>2026-04-06T06:35:00.003Z</time></trkpt><trkpt lat="40.28627897940167" lon="18.199379156875132"><ele>44.0</ele><time>2026-04-06T06:35:01.003Z</time></trkpt><trkpt lat="40.285963452635045" lon="18.19951285269131"><ele>44.0</ele><time>2026-04-06T06:35:02.003Z</time></trkpt><trkpt lat="40.285659757896354" lon="18.199640632360865"><ele>44.0</ele><time>2026-04-06T06:35:03.003Z</time></trkpt><trkpt lat="40.28535475571467" lon="18.19976336250588"><ele>43.5</ele><time>2026-04-06T06:35:04.003Z</time></trkpt><trkpt lat="40.28504425206102" lon="18.199891458258072"><ele>43.0</ele><time>2026-04-06T06:35:05.003Z</time></trkpt><trkpt lat="40.284736746362285" lon="18.20002354619314"><ele>44.0</ele><time>2026-04-06T06:35:06.003Z</time></trkpt><trkpt lat="40.284433418723104" lon="18.200155251452372"><ele>45.0</ele><time>2026-04-06T06:35:07.003Z</time></trkpt><trkpt lat="40.28413762291297" lon="18.200282625927606"><ele>45.5</ele><time>2026-04-06T06:35:08.003Z</time></trkpt><trkpt lat="40.283841073506544" lon="18.200402344619047"><ele>46.0</ele><time>2026-04-06T06:35:09.003Z</time></trkpt><trkpt lat="40.28354819988794" lon="18.200528038734618"><ele>46.0</ele><time>2026-04-06T06:35:10.003Z</time></trkpt><trkpt lat="40.283255698687725" lon="18.20065395760461"><ele>46.0</ele><time>2026-04-06T06:35:11.003Z</time></trkpt><trkpt lat="40.28296863081288" lon="18.20077409290358"><ele>45.0</ele><time>2026-04-06T06:35:12.003Z</time></trkpt><trkpt lat="40.28269684943087" lon="18.200895169849467"><ele>44.0</ele><time>2026-04-06T06:35:13.003Z</time></trkpt><trkpt lat="40.28242417128635" lon="18.201009973525633"><ele>44.5</ele><time>2026-04-06T06:35:14.003Z</time></trkpt><trkpt lat="40.28214829187594" lon="18.20112373585861"><ele>45.0</ele><time>2026-04-06T06:35:15.003Z</time></trkpt><trkpt lat="40.2818763899697" lon="18.201238560509974"><ele>45.0</ele><time>2026-04-06T06:35:16.003Z</time></trkpt><trkpt lat="40.28160956391048" lon="18.20135167363539"><ele>45.0</ele><time>2026-04-06T06:35:17.003Z</time></trkpt><trkpt lat="40.281348331643116" lon="18.201456861572368"><ele>45.5</ele><time>2026-04-06T06:35:18.003Z</time></trkpt><trkpt lat="40.28109156088725" lon="18.201565851345237"><ele>46.0</ele><time>2026-04-06T06:35:19Z</time></trkpt><trkpt lat="40.28084018137282" lon="18.20167387205933"><ele>45.0</ele><time>2026-04-06T06:35:20Z</time></trkpt><trkpt lat="40.2805900679645" lon="18.20178544421991"><ele>44.0</ele><time>2026-04-06T06:35:21Z</time></trkpt><trkpt lat="40.28033555637187" lon="18.201892305771505"><ele>44.0</ele><time>2026-04-06T06:35:22Z</time></trkpt><trkpt lat="40.28007498189789" lon="18.202007148419117"><ele>44.0</ele><time>2026-04-06T06:35:23Z</time></trkpt><trkpt lat="40.279804730754265" lon="18.202136996313723"><ele>44.5</ele><time>2026-04-06T06:35:24Z</time></trkpt><trkpt lat="40.27952405111681" lon="18.202257041946133"><ele>45.0</ele><time>2026-04-06T06:35:25Z</time></trkpt><trkpt lat="40.27923322352051" lon="18.202360183630066"><ele>45.0</ele><time>2026-04-06T06:35:26Z</time></trkpt><trkpt lat="40.27894388386465" lon="18.202466578466908"><ele>45.0</ele><time>2026-04-06T06:35:27Z</time></trkpt><trkpt lat="40.2786677395508" lon="18.202579650011234"><ele>45.5</ele><time>2026-04-06T06:35:28Z</time></trkpt><trkpt lat="40.278390284863285" lon="18.20269465159449"><ele>46.0</ele><time>2026-04-06T06:35:29Z</time></trkpt><trkpt lat="40.2781154417904" lon="18.202813556777254"><ele>46.5</ele><time>2026-04-06T06:35:30Z</time></trkpt><trkpt lat="40.27784434390343" lon="18.202930548806442"><ele>47.0</ele><time>2026-04-06T06:35:31Z</time></trkpt><trkpt lat="40.27758960717349" lon="18.203037826214647"><ele>47.0</ele><time>2026-04-06T06:35:32Z</time></trkpt><trkpt lat="40.27735187036106" lon="18.203136497565826"><ele>47.0</ele><time>2026-04-06T06:35:33Z</time></trkpt><trkpt lat="40.27711835966076" lon="18.203229406564066"><ele>48.0</ele><time>2026-04-06T06:35:34Z</time></trkpt><trkpt lat="40.27690856640446" lon="18.20332820149667"><ele>49.0</ele><time>2026-04-06T06:35:35Z</time></trkpt><trkpt lat="40.276685492260285" lon="18.203414616337135"><ele>49.0</ele><time>2026-04-06T06:35:36Z</time></trkpt><trkpt lat="40.276447405064594" lon="18.203517673184734"><ele>49.0</ele><time>2026-04-06T06:35:37Z</time></trkpt><trkpt lat="40.27620700758579" lon="18.20361415245101"><ele>50.0</ele><time>2026-04-06T06:35:38Z</time></trkpt><trkpt lat="40.27597377544043" lon="18.203710229900494"><ele>51.0</ele><time>2026-04-06T06:35:39Z</time></trkpt><trkpt lat="40.275743962101544" lon="18.20380863979675"><ele>51.0</ele><time>2026-04-06T06:35:40Z</time></trkpt><trkpt lat="40.27551403103026" lon="18.203910679477314"><ele>51.0</ele><time>2026-04-06T06:35:41Z</time></trkpt><trkpt lat="40.27528829692585" lon="18.204017082142865"><ele>51.0</ele><time>2026-04-06T06:35:42Z</time></trkpt><trkpt lat="40.27506758355718" lon="18.20413628074258"><ele>51.0</ele><time>2026-04-06T06:35:43Z</time></trkpt><trkpt lat="40.27484586732757" lon="18.20426523188949"><ele>55.0</ele><time>2026-04-06T06:35:44Z</time></trkpt><trkpt lat="40.27462435870252" lon="18.20440386953959"><ele>59.0</ele><time>2026-04-06T06:35:45Z</time></trkpt><trkpt lat="40.274403607188106" lon="18.20455203739625"><ele>59.0</ele><time>2026-04-06T06:35:46.001Z</time></trkpt><trkpt lat="40.27418423585181" lon="18.204708064379286"><ele>59.0</ele><time>2026-04-06T06:35:47.001Z</time></trkpt><trkpt lat="40.27396772509694" lon="18.20487496120105"><ele>58.0</ele><time>2026-04-06T06:35:48.001Z</time></trkpt><trkpt lat="40.2737502342463" lon="18.205052555420718"><ele>57.0</ele><time>2026-04-06T06:35:49.001Z</time></trkpt><trkpt lat="40.27353467516771" lon="18.20524181070998"><ele>57.0</ele><time>2026-04-06T06:35:50.001Z</time></trkpt><trkpt lat="40.27332245606903" lon="18.2054412545648"><ele>57.0</ele><time>2026-04-06T06:35:51.001Z</time></trkpt><trkpt lat="40.273100434744485" lon="18.205654524079225"><ele>58.5</ele><time>2026-04-06T06:35:52.001Z</time></trkpt><trkpt lat="40.272885380899" lon="18.20586889376643"><ele>60.0</ele><time>2026-04-06T06:35:53.001Z</time></trkpt><trkpt lat="40.27267222973072" lon="18.206082725384743"><ele>60.0</ele><time>2026-04-06T06:35:54.001Z</time></trkpt><trkpt lat="40.27246535942215" lon="18.206311006312745"><ele>60.0</ele><time>2026-04-06T06:35:55.001Z</time></trkpt><trkpt lat="40.2722580119494" lon="18.20654221089629"><ele>62.0</ele><time>2026-04-06T06:35:56.001Z</time></trkpt><trkpt lat="40.272049763318854" lon="18.206770241083447"><ele>64.0</ele><time>2026-04-06T06:35:57.001Z</time></trkpt><trkpt lat="40.27184402005126" lon="18.206997387092063"><ele>64.0</ele><time>2026-04-06T06:35:58.001Z</time></trkpt><trkpt lat="40.27163916971126" lon="18.207219041478172"><ele>64.0</ele><time>2026-04-06T06:35:59.001Z</time></trkpt><trkpt lat="40.27143130371874" lon="18.2074438084668"><ele>64.0</ele><time>2026-04-06T06:36:00.001Z</time></trkpt><trkpt lat="40.27122484206813" lon="18.207665486055824"><ele>64.0</ele><time>2026-04-06T06:36:01.001Z</time></trkpt><trkpt lat="40.2710154990876" lon="18.207889167474857"><ele>64.0</ele><time>2026-04-06T06:36:02.001Z</time></trkpt><trkpt lat="40.27081036729196" lon="18.208111926058173"><ele>64.0</ele><time>2026-04-06T06:36:03.001Z</time></trkpt><trkpt lat="40.27060082663644" lon="18.208335011956226"><ele>63.0</ele><time>2026-04-06T06:36:04.001Z</time></trkpt><trkpt lat="40.27038981647808" lon="18.208543615552106"><ele>62.0</ele><time>2026-04-06T06:36:05.001Z</time></trkpt><trkpt lat="40.27016935414901" lon="18.208733221117534"><ele>62.0</ele><time>2026-04-06T06:36:06.001Z</time></trkpt><trkpt lat="40.26994546998621" lon="18.208909247456333"><ele>62.0</ele><time>2026-04-06T06:36:07.001Z</time></trkpt><trkpt lat="40.26971793096672" lon="18.209071532759257"><ele>64.5</ele><time>2026-04-06T06:36:08.001Z</time></trkpt><trkpt lat="40.26948722967933" lon="18.209224080704626"><ele>67.0</ele><time>2026-04-06T06:36:09.001Z</time></trkpt><trkpt lat="40.269250135459785" lon="18.20936405817101"><ele>67.0</ele><time>2026-04-06T06:36:10.001Z</time></trkpt><trkpt lat="40.26900444318188" lon="18.209493125780625"><ele>67.0</ele><time>2026-04-06T06:36:11.001Z</time></trkpt><trkpt lat="40.268755805828675" lon="18.209619915860785"><ele>71.5</ele><time>2026-04-06T06:36:12.001Z</time></trkpt><trkpt lat="40.268500391553786" lon="18.20972676448277"><ele>76.0</ele><time>2026-04-06T06:36:13.001Z</time></trkpt><trkpt lat="40.2682394476812" lon="18.20982358945636"><ele>76.5</ele><time>2026-04-06T06:36:14.001Z</time></trkpt><trkpt lat="40.26797653999853" lon="18.20991858344921"><ele>77.0</ele><time>2026-04-06T06:36:15.001Z</time></trkpt><trkpt lat="40.26770370053058" lon="18.21000794337409"><ele>77.0</ele><time>2026-04-06T06:36:16.001Z</time></trkpt><trkpt lat="40.26742282437702" lon="18.21010444691536"><ele>77.0</ele><time>2026-04-06T06:36:17.001Z</time></trkpt><trkpt lat="40.267146503637996" lon="18.21020111892885"><ele>77.5</ele><time>2026-04-06T06:36:18.002Z</time></trkpt><trkpt lat="40.26687045954546" lon="18.210298431812873"><ele>78.0</ele><time>2026-04-06T06:36:19.002Z</time></trkpt><trkpt lat="40.266601655716144" lon="18.21039173557947"><ele>77.5</ele><time>2026-04-06T06:36:20.002Z</time></trkpt><trkpt lat="40.266347198936295" lon="18.210485228914063"><ele>77.0</ele><time>2026-04-06T06:36:21.002Z</time></trkpt><trkpt lat="40.266106267313816" lon="18.210580273415363"><ele>78.0</ele><time>2026-04-06T06:36:22.002Z</time></trkpt><trkpt lat="40.26586982934277" lon="18.2106867134969"><ele>79.0</ele><time>2026-04-06T06:36:23.002Z</time></trkpt><trkpt lat="40.26563911101931" lon="18.210813933634352"><ele>80.0</ele><time>2026-04-06T06:36:24.002Z</time></trkpt><trkpt lat="40.265403145303516" lon="18.210948943484297"><ele>81.0</ele><time>2026-04-06T06:36:25.002Z</time></trkpt><trkpt lat="40.26516842639625" lon="18.21109122416261"><ele>81.0</ele><time>2026-04-06T06:36:26.002Z</time></trkpt><trkpt lat="40.264937011827556" lon="18.21124411779538"><ele>81.0</ele><time>2026-04-06T06:36:27.002Z</time></trkpt><trkpt lat="40.264710862830015" lon="18.211410941863672"><ele>81.5</ele><time>2026-04-06T06:36:28.002Z</time></trkpt><trkpt lat="40.26448656123759" lon="18.211578806070158"><ele>82.0</ele><time>2026-04-06T06:36:29.002Z</time></trkpt><trkpt lat="40.26426732360371" lon="18.21175920487189"><ele>82.0</ele><time>2026-04-06T06:36:30.002Z</time></trkpt><trkpt lat="40.264047015933016" lon="18.211948498229294"><ele>82.0</ele><time>2026-04-06T06:36:31.002Z</time></trkpt><trkpt lat="40.26383242607324" lon="18.212150245744766"><ele>82.5</ele><time>2026-04-06T06:36:32.002Z</time></trkpt><trkpt lat="40.26362132317153" lon="18.212354392765533"><ele>83.0</ele><time>2026-04-06T06:36:33.002Z</time></trkpt><trkpt lat="40.26341800786529" lon="18.21257471544004"><ele>83.0</ele><time>2026-04-06T06:36:34.002Z</time></trkpt><trkpt lat="40.263214555475365" lon="18.21279655490662"><ele>83.0</ele><time>2026-04-06T06:36:35.002Z</time></trkpt><trkpt lat="40.26301184120704" lon="18.213040602653596"><ele>83.5</ele><time>2026-04-06T06:36:36.002Z</time></trkpt><trkpt lat="40.262812388979" lon="18.213287956388832"><ele>84.0</ele><time>2026-04-06T06:36:37.002Z</time></trkpt><trkpt lat="40.26261954574947" lon="18.213555221511047"><ele>84.0</ele><time>2026-04-06T06:36:38.002Z</time></trkpt><trkpt lat="40.262427553664104" lon="18.213812988300553"><ele>84.0</ele><time>2026-04-06T06:36:39.002Z</time></trkpt><trkpt lat="40.26223577271611" lon="18.214072442028066"><ele>84.5</ele><time>2026-04-06T06:36:40.002Z</time></trkpt><trkpt lat="40.262041239406535" lon="18.214337440149855"><ele>85.0</ele><time>2026-04-06T06:36:41.002Z</time></trkpt><trkpt lat="40.26184213492464" lon="18.21460008368088"><ele>84.5</ele><time>2026-04-06T06:36:42.002Z</time></trkpt><trkpt lat="40.261634291303736" lon="18.214862923576362"><ele>84.0</ele><time>2026-04-06T06:36:43.002Z</time></trkpt><trkpt lat="40.26142662606067" lon="18.215123585038175"><ele>85.0</ele><time>2026-04-06T06:36:44.002Z</time></trkpt><trkpt lat="40.261213890504905" lon="18.21538321000084"><ele>86.0</ele><time>2026-04-06T06:36:45.002Z</time></trkpt><trkpt lat="40.26099950072317" lon="18.21563910686907"><ele>86.0</ele><time>2026-04-06T06:36:46.002Z</time></trkpt><trkpt lat="40.260774796865654" lon="18.2158859965847"><ele>86.0</ele><time>2026-04-06T06:36:47.002Z</time></trkpt><trkpt lat="40.26054117485892" lon="18.216124546108936"><ele>85.5</ele><time>2026-04-06T06:36:48.002Z</time></trkpt><trkpt lat="40.26029771692488" lon="18.216351576500507"><ele>85.0</ele><time>2026-04-06T06:36:49.002Z</time></trkpt><trkpt lat="40.26004685390499" lon="18.216571592568965"><ele>85.0</ele><time>2026-04-06T06:36:50.002Z</time></trkpt><trkpt lat="40.25979495949887" lon="18.216778226574878"><ele>85.0</ele><time>2026-04-06T06:36:51.003Z</time></trkpt><trkpt lat="40.25953820818509" lon="18.216981824796846"><ele>86.0</ele><time>2026-04-06T06:36:52.018Z</time></trkpt><trkpt lat="40.259280210837154" lon="18.217171883748584"><ele>87.0</ele><time>2026-04-06T06:36:53.025Z</time></trkpt><trkpt lat="40.25902559145595" lon="18.217348489303216"><ele>86.5</ele><time>2026-04-06T06:36:54.003Z</time></trkpt><trkpt lat="40.2587595367186" lon="18.21750815329387"><ele>86.0</ele><time>2026-04-06T06:36:55.003Z</time></trkpt><trkpt lat="40.25848212012985" lon="18.21765579396084"><ele>86.0</ele><time>2026-04-06T06:36:56.003Z</time></trkpt><trkpt lat="40.258200466595284" lon="18.21778688498044"><ele>86.0</ele><time>2026-04-06T06:36:57.003Z</time></trkpt><trkpt lat="40.25791120295008" lon="18.217910701238324"><ele>85.5</ele><time>2026-04-06T06:36:58.003Z</time></trkpt><trkpt lat="40.25762305810977" lon="18.218032073764956"><ele>85.0</ele><time>2026-04-06T06:36:59.003Z</time></trkpt><trkpt lat="40.25733502628686" lon="18.218138804940093"><ele>86.0</ele><time>2026-04-06T06:37:00.003Z</time></trkpt><trkpt lat="40.25703988012324" lon="18.218228191722183"><ele>87.0</ele><time>2026-04-06T06:37:01.003Z</time></trkpt><trkpt lat="40.25673411277466" lon="18.218297536353028"><ele>87.0</ele><time>2026-04-06T06:37:02.003Z</time></trkpt><trkpt lat="40.25642605053215" lon="18.21836198163301"><ele>87.0</ele><time>2026-04-06T06:37:03.003Z</time></trkpt><trkpt lat="40.25611382841137" lon="18.218414973579208"><ele>87.0</ele><time>2026-04-06T06:37:04.003Z</time></trkpt><trkpt lat="40.25580043629704" lon="18.218449168463792"><ele>87.0</ele><time>2026-04-06T06:37:05.003Z</time></trkpt><trkpt lat="40.25548357129357" lon="18.218472620008175"><ele>87.0</ele><time>2026-04-06T06:37:06.003Z</time></trkpt><trkpt lat="40.25516077805518" lon="18.21848976927314"><ele>87.0</ele><time>2026-04-06T06:37:07.003Z</time></trkpt><trkpt lat="40.25483011777846" lon="18.218505654765497"><ele>87.5</ele><time>2026-04-06T06:37:08.003Z</time></trkpt><trkpt lat="40.254495737631714" lon="18.218520319772527"><ele>88.0</ele><time>2026-04-06T06:37:09.003Z</time></trkpt><trkpt lat="40.25415822490622" lon="18.21853342091749"><ele>88.0</ele><time>2026-04-06T06:37:10.003Z</time></trkpt><trkpt lat="40.2538196180583" lon="18.218551506484864"><ele>88.0</ele><time>2026-04-06T06:37:11.003Z</time></trkpt><trkpt lat="40.25348175888943" lon="18.218561666355868"><ele>88.0</ele><time>2026-04-06T06:37:12.003Z</time></trkpt><trkpt lat="40.25313972561651" lon="18.21858183647103"><ele>88.0</ele><time>2026-04-06T06:37:13.003Z</time></trkpt><trkpt lat="40.25280208304962" lon="18.218606767877716"><ele>88.0</ele><time>2026-04-06T06:37:14.003Z</time></trkpt><trkpt lat="40.25246894261336" lon="18.218638258270122"><ele>88.0</ele><time>2026-04-06T06:37:15.003Z</time></trkpt><trkpt lat="40.25213864068919" lon="18.218684613434135"><ele>88.0</ele><time>2026-04-06T06:37:16.003Z</time></trkpt><trkpt lat="40.251812517438694" lon="18.21874475492583"><ele>88.0</ele><time>2026-04-06T06:37:17.003Z</time></trkpt><trkpt lat="40.25148811427818" lon="18.218823597558465"><ele>88.0</ele><time>2026-04-06T06:37:18.003Z</time></trkpt><trkpt lat="40.251168039897756" lon="18.21891672279323"><ele>88.0</ele><time>2026-04-06T06:37:19.003Z</time></trkpt><trkpt lat="40.25084977844957" lon="18.219024291337853"><ele>88.5</ele><time>2026-04-06T06:37:20.003Z</time></trkpt><trkpt lat="40.25053454229212" lon="18.219137427182208"><ele>89.0</ele><time>2026-04-06T06:37:21.003Z</time></trkpt><trkpt lat="40.25022190395324" lon="18.219266234432997"><ele>89.0</ele><time>2026-04-06T06:37:22.003Z</time></trkpt><trkpt lat="40.24991088163948" lon="18.219411348459367"><ele>89.0</ele><time>2026-04-06T06:37:23.003Z</time></trkpt><trkpt lat="40.249602507166195" lon="18.219576961989446"><ele>89.0</ele><time>2026-04-06T06:37:24.004Z</time></trkpt><trkpt lat="40.249301645016835" lon="18.219755919958818"><ele>89.0</ele><time>2026-04-06T06:37:25.001Z</time></trkpt><trkpt lat="40.24899999324928" lon="18.219944247701736"><ele>91.0</ele><time>2026-04-06T06:37:26.001Z</time></trkpt><trkpt lat="40.248696918455025" lon="18.220140883623177"><ele>93.0</ele><time>2026-04-06T06:37:27.001Z</time></trkpt><trkpt lat="40.24838969018327" lon="18.220340630824108"><ele>93.0</ele><time>2026-04-06T06:37:28.001Z</time></trkpt><trkpt lat="40.2480789868627" lon="18.22053634384394"><ele>93.0</ele><time>2026-04-06T06:37:29.001Z</time></trkpt><trkpt lat="40.24776619853367" lon="18.220730393286413"><ele>93.0</ele><time>2026-04-06T06:37:30.001Z</time></trkpt><trkpt lat="40.24744792382604" lon="18.22092845943495"><ele>93.0</ele><time>2026-04-06T06:37:31Z</time></trkpt><trkpt lat="40.24712813204479" lon="18.221128446143965"><ele>93.0</ele><time>2026-04-06T06:37:32Z</time></trkpt><trkpt lat="40.24681356216393" lon="18.221327292018113"><ele>93.0</ele><time>2026-04-06T06:37:33Z</time></trkpt><trkpt lat="40.24649276501965" lon="18.22152018242131"><ele>92.5</ele><time>2026-04-06T06:37:34Z</time></trkpt><trkpt lat="40.24617427163911" lon="18.221714239318228"><ele>92.0</ele><time>2026-04-06T06:37:35Z</time></trkpt><trkpt lat="40.24585602570675" lon="18.221915573622585"><ele>87.0</ele><time>2026-04-06T06:37:36Z</time></trkpt><trkpt lat="40.2455270196592" lon="18.222105398086093"><ele>82.0</ele><time>2026-04-06T06:37:37Z</time></trkpt><trkpt lat="40.24519870842307" lon="18.22230508319243"><ele>83.5</ele><time>2026-04-06T06:37:38Z</time></trkpt><trkpt lat="40.24486881569377" lon="18.222506551361747"><ele>85.0</ele><time>2026-04-06T06:37:39Z</time></trkpt><trkpt lat="40.24453582026403" lon="18.22271121950611"><ele>85.0</ele><time>2026-04-06T06:37:40Z</time></trkpt><trkpt lat="40.24419836820873" lon="18.22291569560259"><ele>85.0</ele><time>2026-04-06T06:37:41Z</time></trkpt><trkpt lat="40.24386245015882" lon="18.223120931895956"><ele>88.0</ele><time>2026-04-06T06:37:42Z</time></trkpt><trkpt lat="40.24352482914313" lon="18.223331595427943"><ele>91.0</ele><time>2026-04-06T06:37:43Z</time></trkpt><trkpt lat="40.243185003463516" lon="18.223537492228854"><ele>89.0</ele><time>2026-04-06T06:37:44Z</time></trkpt><trkpt lat="40.242843589327165" lon="18.223747000240444"><ele>87.0</ele><time>2026-04-06T06:37:45Z</time></trkpt><trkpt lat="40.242500921470985" lon="18.223957237480718"><ele>86.5</ele><time>2026-04-06T06:37:46Z</time></trkpt><trkpt lat="40.24216202469547" lon="18.224172100564285"><ele>86.0</ele><time>2026-04-06T06:37:47Z</time></trkpt><trkpt lat="40.24182034848146" lon="18.224385199947154"><ele>86.0</ele><time>2026-04-06T06:37:48Z</time></trkpt><trkpt lat="40.24147647817707" lon="18.224594567362704"><ele>86.0</ele><time>2026-04-06T06:37:49Z</time></trkpt><trkpt lat="40.24113283153456" lon="18.22480558625971"><ele>84.5</ele><time>2026-04-06T06:37:50Z</time></trkpt><trkpt lat="40.24079028482415" lon="18.22501606953231"><ele>83.0</ele><time>2026-04-06T06:37:51Z</time></trkpt><trkpt lat="40.24044431008596" lon="18.225226679524976"><ele>83.0</ele><time>2026-04-06T06:37:52Z</time></trkpt><trkpt lat="40.2400958703145" lon="18.225436167561128"><ele>83.0</ele><time>2026-04-06T06:37:53Z</time></trkpt><trkpt lat="40.239748108188294" lon="18.225647361450648"><ele>84.5</ele><time>2026-04-06T06:37:54Z</time></trkpt><trkpt lat="40.239401271598844" lon="18.22585692657656"><ele>86.0</ele><time>2026-04-06T06:37:55.001Z</time></trkpt><trkpt lat="40.23905241622789" lon="18.226067756087026"><ele>85.5</ele><time>2026-04-06T06:37:56.001Z</time></trkpt><trkpt lat="40.23870247447245" lon="18.226275890371056"><ele>85.0</ele><time>2026-04-06T06:37:57.001Z</time></trkpt><trkpt lat="40.23835346806287" lon="18.226482278350858"><ele>87.0</ele><time>2026-04-06T06:37:58.001Z</time></trkpt><trkpt lat="40.238000701700194" lon="18.226690845722302"><ele>89.0</ele><time>2026-04-06T06:37:59.001Z</time></trkpt><trkpt lat="40.23765099827729" lon="18.22689975981834"><ele>89.5</ele><time>2026-04-06T06:38:00.001Z</time></trkpt><trkpt lat="40.237299738860926" lon="18.227109010415962"><ele>90.0</ele><time>2026-04-06T06:38:01.001Z</time></trkpt><trkpt lat="40.23695141496068" lon="18.22731403027837"><ele>90.0</ele><time>2026-04-06T06:38:02.001Z</time></trkpt><trkpt lat="40.236600881836324" lon="18.22752665319787"><ele>90.0</ele><time>2026-04-06T06:38:03.001Z</time></trkpt><trkpt lat="40.2362511330116" lon="18.227738460944384"><ele>88.0</ele><time>2026-04-06T06:38:04.001Z</time></trkpt><trkpt lat="40.235900216193095" lon="18.227953115109976"><ele>86.0</ele><time>2026-04-06T06:38:05.001Z</time></trkpt><trkpt lat="40.23555172351942" lon="18.228167907950883"><ele>85.5</ele><time>2026-04-06T06:38:06.001Z</time></trkpt><trkpt lat="40.235201402543744" lon="18.228380480796094"><ele>85.0</ele><time>2026-04-06T06:38:07.001Z</time></trkpt><trkpt lat="40.23485270013176" lon="18.228595044164134"><ele>83.5</ele><time>2026-04-06T06:38:08.001Z</time></trkpt><trkpt lat="40.23450062780432" lon="18.22880788433208"><ele>82.0</ele><time>2026-04-06T06:38:09.001Z</time></trkpt><trkpt lat="40.23414857363945" lon="18.229020921542702"><ele>81.0</ele><time>2026-04-06T06:38:10.001Z</time></trkpt><trkpt lat="40.23379677975718" lon="18.229231223722383"><ele>80.0</ele><time>2026-04-06T06:38:11.001Z</time></trkpt><trkpt lat="40.23344799586661" lon="18.22944951862302"><ele>80.5</ele><time>2026-04-06T06:38:12.001Z</time></trkpt><trkpt lat="40.23310819229941" lon="18.229656935269833"><ele>81.0</ele><time>2026-04-06T06:38:13.001Z</time></trkpt><trkpt lat="40.232772544988975" lon="18.22985308797799"><ele>81.0</ele><time>2026-04-06T06:38:14.001Z</time></trkpt><trkpt lat="40.2324419658785" lon="18.230054684084955"><ele>81.0</ele><time>2026-04-06T06:38:15.001Z</time></trkpt><trkpt lat="40.232108933609766" lon="18.230258248011122"><ele>81.0</ele><time>2026-04-06T06:38:16.001Z</time></trkpt><trkpt lat="40.23177908575336" lon="18.230458721002073"><ele>81.0</ele><time>2026-04-06T06:38:17.001Z</time></trkpt><trkpt lat="40.23145165172543" lon="18.230662724469436"><ele>81.0</ele><time>2026-04-06T06:38:18.001Z</time></trkpt><trkpt lat="40.23112726923176" lon="18.230864601774684"><ele>81.0</ele><time>2026-04-06T06:38:19.001Z</time></trkpt><trkpt lat="40.23080379635369" lon="18.231066677345055"><ele>80.0</ele><time>2026-04-06T06:38:20.001Z</time></trkpt><trkpt lat="40.23047988474993" lon="18.231268398027584"><ele>79.0</ele><time>2026-04-06T06:38:21.001Z</time></trkpt><trkpt lat="40.23015943518774" lon="18.231465480744685"><ele>80.0</ele><time>2026-04-06T06:38:22.001Z</time></trkpt><trkpt lat="40.2298393798165" lon="18.231664407163606"><ele>81.0</ele><time>2026-04-06T06:38:23.001Z</time></trkpt><trkpt lat="40.22951743537715" lon="18.23186287786858"><ele>81.0</ele><time>2026-04-06T06:38:24.001Z</time></trkpt><trkpt lat="40.22919514642045" lon="18.232059711543663"><ele>81.0</ele><time>2026-04-06T06:38:25.001Z</time></trkpt><trkpt lat="40.22887298342436" lon="18.23225286544018"><ele>82.0</ele><time>2026-04-06T06:38:26.001Z</time></trkpt><trkpt lat="40.22855430905839" lon="18.232452964167393"><ele>83.0</ele><time>2026-04-06T06:38:27.001Z</time></trkpt><trkpt lat="40.228236238830945" lon="18.232652055176573"><ele>82.5</ele><time>2026-04-06T06:38:28.001Z</time></trkpt><trkpt lat="40.22792227621647" lon="18.23284825983453"><ele>82.0</ele><time>2026-04-06T06:38:29.001Z</time></trkpt><trkpt lat="40.227606526217684" lon="18.23304606713923"><ele>82.5</ele><time>2026-04-06T06:38:30.001Z</time></trkpt><trkpt lat="40.22729201312725" lon="18.233243836999083"><ele>83.0</ele><time>2026-04-06T06:38:31.001Z</time></trkpt><trkpt lat="40.226976818630085" lon="18.23343437962023"><ele>83.0</ele><time>2026-04-06T06:38:32.001Z</time></trkpt><trkpt lat="40.22666042655015" lon="18.233627054269785"><ele>83.0</ele><time>2026-04-06T06:38:33.001Z</time></trkpt><trkpt lat="40.22634691544273" lon="18.233821460321074"><ele>81.5</ele><time>2026-04-06T06:38:34.001Z</time></trkpt><trkpt lat="40.226032513703146" lon="18.234015894304697"><ele>80.0</ele><time>2026-04-06T06:38:35.001Z</time></trkpt><trkpt lat="40.22571531681241" lon="18.23421249272448"><ele>80.5</ele><time>2026-04-06T06:38:36.001Z</time></trkpt><trkpt lat="40.22539419024452" lon="18.234409258233125"><ele>81.0</ele><time>2026-04-06T06:38:37.001Z</time></trkpt><trkpt lat="40.225076398495474" lon="18.23460188766383"><ele>80.0</ele><time>2026-04-06T06:38:38.001Z</time></trkpt><trkpt lat="40.22475578571111" lon="18.234795669986887"><ele>79.0</ele><time>2026-04-06T06:38:39.002Z</time></trkpt><trkpt lat="40.2244366405721" lon="18.23498884858097"><ele>79.0</ele><time>2026-04-06T06:38:40.002Z</time></trkpt><trkpt lat="40.2241164409846" lon="18.235180222899547"><ele>79.0</ele><time>2026-04-06T06:38:41.002Z</time></trkpt><trkpt lat="40.223795546502096" lon="18.235374078280735"><ele>78.5</ele><time>2026-04-06T06:38:42.002Z</time></trkpt><trkpt lat="40.223477346611766" lon="18.23556833701908"><ele>78.0</ele><time>2026-04-06T06:38:43.002Z</time></trkpt><trkpt lat="40.223155250840264" lon="18.235761023890795"><ele>78.0</ele><time>2026-04-06T06:38:44.002Z</time></trkpt><trkpt lat="40.22283652402056" lon="18.235956093840805"><ele>78.0</ele><time>2026-04-06T06:38:45.002Z</time></trkpt><trkpt lat="40.222518010583556" lon="18.2361494026786"><ele>78.0</ele><time>2026-04-06T06:38:46.002Z</time></trkpt><trkpt lat="40.2221994469787" lon="18.236343489539735"><ele>78.0</ele><time>2026-04-06T06:38:47.002Z</time></trkpt><trkpt lat="40.2218776411593" lon="18.236537118302923"><ele>78.0</ele><time>2026-04-06T06:38:48.002Z</time></trkpt><trkpt lat="40.22156144520853" lon="18.236730173836943"><ele>78.0</ele><time>2026-04-06T06:38:49.002Z</time></trkpt><trkpt lat="40.22124473383077" lon="18.23692059368071"><ele>78.0</ele><time>2026-04-06T06:38:50.002Z</time></trkpt><trkpt lat="40.22092716564957" lon="18.237113233902356"><ele>78.0</ele><time>2026-04-06T06:38:51.002Z</time></trkpt><trkpt lat="40.22061222157449" lon="18.23730548424862"><ele>78.5</ele><time>2026-04-06T06:38:52.002Z</time></trkpt><trkpt lat="40.22029607648705" lon="18.237501849040466"><ele>79.0</ele><time>2026-04-06T06:38:53.002Z</time></trkpt><trkpt lat="40.2199797731222" lon="18.237696003254612"><ele>78.0</ele><time>2026-04-06T06:38:54.002Z</time></trkpt><trkpt lat="40.21966134215997" lon="18.23788941147948"><ele>77.0</ele><time>2026-04-06T06:38:55.002Z</time></trkpt><trkpt lat="40.21934153578747" lon="18.238083035556834"><ele>77.0</ele><time>2026-04-06T06:38:56.002Z</time></trkpt><trkpt lat="40.21902455484976" lon="18.238277590707252"><ele>77.0</ele><time>2026-04-06T06:38:57.002Z</time></trkpt><trkpt lat="40.218706703348595" lon="18.238471691890606"><ele>77.0</ele><time>2026-04-06T06:38:58.002Z</time></trkpt><trkpt lat="40.21838787355855" lon="18.238665612035344"><ele>77.0</ele><time>2026-04-06T06:38:59.002Z</time></trkpt><trkpt lat="40.218067329469676" lon="18.23886132613051"><ele>77.0</ele><time>2026-04-06T06:39:00.002Z</time></trkpt><trkpt lat="40.21774115648723" lon="18.239056277826062"><ele>77.0</ele><time>2026-04-06T06:39:01.002Z</time></trkpt><trkpt lat="40.21741759448481" lon="18.239247981516392"><ele>77.0</ele><time>2026-04-06T06:39:02.002Z</time></trkpt><trkpt lat="40.217098895605844" lon="18.23943275003809"><ele>77.0</ele><time>2026-04-06T06:39:03.002Z</time></trkpt><trkpt lat="40.21678661696002" lon="18.23961836350857"><ele>76.5</ele><time>2026-04-06T06:39:04.002Z</time></trkpt><trkpt lat="40.21647977408663" lon="18.23980878873162"><ele>76.0</ele><time>2026-04-06T06:39:05.002Z</time></trkpt><trkpt lat="40.21618333679106" lon="18.239992733667428"><ele>76.0</ele><time>2026-04-06T06:39:06.002Z</time></trkpt><trkpt lat="40.21589130199957" lon="18.240175697558143"><ele>76.0</ele><time>2026-04-06T06:39:07.002Z</time></trkpt><trkpt lat="40.215601359291746" lon="18.240354018466746"><ele>76.0</ele><time>2026-04-06T06:39:08.002Z</time></trkpt><trkpt lat="40.21531433014824" lon="18.240525985251196"><ele>76.0</ele><time>2026-04-06T06:39:09.002Z</time></trkpt><trkpt lat="40.21503068377077" lon="18.24069009054564"><ele>75.0</ele><time>2026-04-06T06:39:10.002Z</time></trkpt><trkpt lat="40.214741825626184" lon="18.240846244855437"><ele>74.0</ele><time>2026-04-06T06:39:11.002Z</time></trkpt><trkpt lat="40.214450235767906" lon="18.240999367721326"><ele>74.0</ele><time>2026-04-06T06:39:12.002Z</time></trkpt><trkpt lat="40.2141535861635" lon="18.24114774637603"><ele>74.0</ele><time>2026-04-06T06:39:13.002Z</time></trkpt><trkpt lat="40.213851622318025" lon="18.241278959621237"><ele>74.0</ele><time>2026-04-06T06:39:14.002Z</time></trkpt><trkpt lat="40.21355037924089" lon="18.241409417710322"><ele>74.0</ele><time>2026-04-06T06:39:15.002Z</time></trkpt><trkpt lat="40.2132492332934" lon="18.241535344867767"><ele>75.0</ele><time>2026-04-06T06:39:16.002Z</time></trkpt><trkpt lat="40.21294381391867" lon="18.24165833765019"><ele>76.0</ele><time>2026-04-06T06:39:17.002Z</time></trkpt><trkpt lat="40.212637130109265" lon="18.24176762813792"><ele>76.0</ele><time>2026-04-06T06:39:18.002Z</time></trkpt><trkpt lat="40.21232787048347" lon="18.241869345223204"><ele>76.0</ele><time>2026-04-06T06:39:19.003Z</time></trkpt><trkpt lat="40.212013484675985" lon="18.241962082385644"><ele>76.0</ele><time>2026-04-06T06:39:20.003Z</time></trkpt><trkpt lat="40.2116969479666" lon="18.242046806701456"><ele>76.0</ele><time>2026-04-06T06:39:21.003Z</time></trkpt><trkpt lat="40.211380816107834" lon="18.242121095725263"><ele>76.0</ele><time>2026-04-06T06:39:22.003Z</time></trkpt><trkpt lat="40.21106544450715" lon="18.242193068175045"><ele>76.0</ele><time>2026-04-06T06:39:23.003Z</time></trkpt><trkpt lat="40.210756121551725" lon="18.242260793713154"><ele>76.0</ele><time>2026-04-06T06:39:24.003Z</time></trkpt><trkpt lat="40.210438035370615" lon="18.242323003831537"><ele>76.0</ele><time>2026-04-06T06:39:25.003Z</time></trkpt><trkpt lat="40.21012849995764" lon="18.242380157383717"><ele>76.5</ele><time>2026-04-06T06:39:26.003Z</time></trkpt><trkpt lat="40.209812002918994" lon="18.24243785104071"><ele>77.0</ele><time>2026-04-06T06:39:27.003Z</time></trkpt><trkpt lat="40.20949659332638" lon="18.242499182261692"><ele>77.0</ele><time>2026-04-06T06:39:28.003Z</time></trkpt><trkpt lat="40.20918000155701" lon="18.242556325395864"><ele>77.0</ele><time>2026-04-06T06:39:29.003Z</time></trkpt><trkpt lat="40.20886393269399" lon="18.24262052784476"><ele>78.0</ele><time>2026-04-06T06:39:30.003Z</time></trkpt><trkpt lat="40.208547360874675" lon="18.242688769553602"><ele>79.0</ele><time>2026-04-06T06:39:31Z</time></trkpt><trkpt lat="40.20822690913295" lon="18.242751153480256"><ele>78.0</ele><time>2026-04-06T06:39:32Z</time></trkpt><trkpt lat="40.20790198359444" lon="18.24281017644716"><ele>77.0</ele><time>2026-04-06T06:39:33Z</time></trkpt><trkpt lat="40.20757983428663" lon="18.2428633926337"><ele>77.0</ele><time>2026-04-06T06:39:34Z</time></trkpt><trkpt lat="40.20726406260283" lon="18.24291166442891"><ele>77.0</ele><time>2026-04-06T06:39:35Z</time></trkpt><trkpt lat="40.20696313219219" lon="18.24295892739679"><ele>77.0</ele><time>2026-04-06T06:39:36Z</time></trkpt><trkpt lat="40.206683369191026" lon="18.24300463912532"><ele>77.0</ele><time>2026-04-06T06:39:37Z</time></trkpt><trkpt lat="40.206407113455974" lon="18.243057100610656"><ele>77.0</ele><time>2026-04-06T06:39:38Z</time></trkpt><trkpt lat="40.20612805803438" lon="18.243118832571753"><ele>77.0</ele><time>2026-04-06T06:39:39Z</time></trkpt><trkpt lat="40.2058540143002" lon="18.24319780522057"><ele>76.5</ele><time>2026-04-06T06:39:40Z</time></trkpt><trkpt lat="40.205581578587896" lon="18.24328777572671"><ele>76.0</ele><time>2026-04-06T06:39:41Z</time></trkpt><trkpt lat="40.20531123896749" lon="18.243388126756066"><ele>76.0</ele><time>2026-04-06T06:39:42Z</time></trkpt><trkpt lat="40.20503969987997" lon="18.24349571191138"><ele>76.0</ele><time>2026-04-06T06:39:43Z</time></trkpt><trkpt lat="40.20477236148782" lon="18.243620551874923"><ele>76.0</ele><time>2026-04-06T06:39:44Z</time></trkpt><trkpt lat="40.204504325574376" lon="18.24375687575975"><ele>76.0</ele><time>2026-04-06T06:39:45Z</time></trkpt><trkpt lat="40.20423866360213" lon="18.243910036058182"><ele>77.0</ele><time>2026-04-06T06:39:46Z</time></trkpt><trkpt lat="40.20397124918982" lon="18.24406942271443"><ele>78.0</ele><time>2026-04-06T06:39:47Z</time></trkpt><trkpt lat="40.203702180069605" lon="18.244237122659353"><ele>78.0</ele><time>2026-04-06T06:39:48Z</time></trkpt><trkpt lat="40.20343677495845" lon="18.244418510731116"><ele>78.0</ele><time>2026-04-06T06:39:49Z</time></trkpt><trkpt lat="40.20317896044793" lon="18.244622159297066"><ele>77.5</ele><time>2026-04-06T06:39:50Z</time></trkpt><trkpt lat="40.2029200629885" lon="18.24483107189704"><ele>77.0</ele><time>2026-04-06T06:39:51Z</time></trkpt><trkpt lat="40.202668112493136" lon="18.2450500983985"><ele>77.0</ele><time>2026-04-06T06:39:52Z</time></trkpt><trkpt lat="40.20242571636221" lon="18.24528659761114"><ele>77.0</ele><time>2026-04-06T06:39:53Z</time></trkpt><trkpt lat="40.20218592303927" lon="18.245526755294975"><ele>77.5</ele><time>2026-04-06T06:39:54Z</time></trkpt><trkpt lat="40.201955574852526" lon="18.24577843782572"><ele>78.0</ele><time>2026-04-06T06:39:55Z</time></trkpt><trkpt lat="40.20172965408607" lon="18.246040216787478"><ele>78.0</ele><time>2026-04-06T06:39:56Z</time></trkpt><trkpt lat="40.20151057443468" lon="18.246311421212386"><ele>78.0</ele><time>2026-04-06T06:39:57Z</time></trkpt><trkpt lat="40.201306686789955" lon="18.246597256162897"><ele>77.5</ele><time>2026-04-06T06:39:58Z</time></trkpt><trkpt lat="40.20111287335004" lon="18.24689222663514"><ele>77.0</ele><time>2026-04-06T06:39:59Z</time></trkpt><trkpt lat="40.20092074278935" lon="18.247190359354704"><ele>76.5</ele><time>2026-04-06T06:40:00Z</time></trkpt><trkpt lat="40.20072334965954" lon="18.247493667939892"><ele>76.0</ele><time>2026-04-06T06:40:01Z</time></trkpt><trkpt lat="40.200523916759174" lon="18.247810255643657"><ele>77.0</ele><time>2026-04-06T06:40:02.001Z</time></trkpt><trkpt lat="40.200321135119886" lon="18.248131570250816"><ele>78.0</ele><time>2026-04-06T06:40:03.001Z</time></trkpt><trkpt lat="40.20011617348907" lon="18.248454605934818"><ele>78.0</ele><time>2026-04-06T06:40:04.001Z</time></trkpt><trkpt lat="40.19991158515555" lon="18.248763271955433"><ele>78.0</ele><time>2026-04-06T06:40:05.001Z</time></trkpt><trkpt lat="40.19971596621928" lon="18.249064981944326"><ele>78.5</ele><time>2026-04-06T06:40:06.001Z</time></trkpt><trkpt lat="40.19951927571597" lon="18.249359364715744"><ele>79.0</ele><time>2026-04-06T06:40:07.001Z</time></trkpt><trkpt lat="40.19931369818413" lon="18.24963478835962"><ele>79.5</ele><time>2026-04-06T06:40:08.001Z</time></trkpt><trkpt lat="40.19909904186103" lon="18.249887401676325"><ele>80.0</ele><time>2026-04-06T06:40:09.001Z</time></trkpt><trkpt lat="40.19888125622416" lon="18.25013057515793"><ele>80.0</ele><time>2026-04-06T06:40:10.001Z</time></trkpt><trkpt lat="40.198656868467125" lon="18.25037401969345"><ele>80.0</ele><time>2026-04-06T06:40:11.001Z</time></trkpt><trkpt lat="40.198420711215974" lon="18.25061091858773"><ele>80.0</ele><time>2026-04-06T06:40:12.001Z</time></trkpt><trkpt lat="40.198179181387054" lon="18.25083885218205"><ele>80.0</ele><time>2026-04-06T06:40:13.001Z</time></trkpt><trkpt lat="40.19793282528023" lon="18.251050333465706"><ele>80.0</ele><time>2026-04-06T06:40:14.001Z</time></trkpt><trkpt lat="40.19768431036556" lon="18.25124825837454"><ele>80.0</ele><time>2026-04-06T06:40:15.001Z</time></trkpt><trkpt lat="40.19742550753111" lon="18.251436671269662"><ele>80.5</ele><time>2026-04-06T06:40:16.001Z</time></trkpt><trkpt lat="40.19716090581296" lon="18.251625484885256"><ele>81.0</ele><time>2026-04-06T06:40:17.001Z</time></trkpt><trkpt lat="40.196899060891745" lon="18.251805256694453"><ele>81.0</ele><time>2026-04-06T06:40:18.001Z</time></trkpt><trkpt lat="40.1966336281245" lon="18.251970228836303"><ele>81.0</ele><time>2026-04-06T06:40:19.001Z</time></trkpt><trkpt lat="40.19638047577792" lon="18.25212416482869"><ele>81.0</ele><time>2026-04-06T06:40:20.001Z</time></trkpt><trkpt lat="40.1961482234886" lon="18.25225924128908"><ele>81.0</ele><time>2026-04-06T06:40:21.001Z</time></trkpt><trkpt lat="40.19592863055588" lon="18.252398297922902"><ele>81.0</ele><time>2026-04-06T06:40:22.001Z</time></trkpt><trkpt lat="40.19569921921781" lon="18.25253640753542"><ele>81.0</ele><time>2026-04-06T06:40:23.001Z</time></trkpt><trkpt lat="40.195459280941954" lon="18.25267621962414"><ele>81.5</ele><time>2026-04-06T06:40:24.001Z</time></trkpt><trkpt lat="40.1952238845123" lon="18.25281193281436"><ele>82.0</ele><time>2026-04-06T06:40:25.001Z</time></trkpt><trkpt lat="40.194997199924664" lon="18.252947617802942"><ele>82.0</ele><time>2026-04-06T06:40:26.001Z</time></trkpt><trkpt lat="40.194778532347954" lon="18.253078691551966"><ele>82.0</ele><time>2026-04-06T06:40:27.001Z</time></trkpt><trkpt lat="40.19457330849087" lon="18.253196140125624"><ele>82.0</ele><time>2026-04-06T06:40:28.001Z</time></trkpt><trkpt lat="40.1943844740162" lon="18.25330233512055"><ele>82.0</ele><time>2026-04-06T06:40:29.001Z</time></trkpt><trkpt lat="40.19420867029954" lon="18.253398368850114"><ele>82.0</ele><time>2026-04-06T06:40:30.001Z</time></trkpt><trkpt lat="40.19403589533294" lon="18.253485028532356"><ele>82.5</ele><time>2026-04-06T06:40:31.001Z</time></trkpt><trkpt lat="40.19390749525024" lon="18.25356711050532"><ele>83.0</ele><time>2026-04-06T06:40:32.001Z</time></trkpt><trkpt lat="40.19377774489851" lon="18.253642390356905"><ele>83.5</ele><time>2026-04-06T06:40:33.001Z</time></trkpt><trkpt lat="40.19367064126299" lon="18.253690840289824"><ele>84.0</ele><time>2026-04-06T06:40:34.001Z</time></trkpt><trkpt lat="40.19356909959532" lon="18.25373001551728"><ele>84.0</ele><time>2026-04-06T06:40:35.001Z</time></trkpt><trkpt lat="40.19348958954349" lon="18.253768903182046"><ele>84.0</ele><time>2026-04-06T06:40:36.001Z</time></trkpt><trkpt lat="40.19341104790884" lon="18.25379788770828"><ele>84.0</ele><time>2026-04-06T06:40:37.001Z</time></trkpt><trkpt lat="40.19334948431837" lon="18.253818337583557"><ele>84.0</ele><time>2026-04-06T06:40:38.001Z</time></trkpt><trkpt lat="40.193279402725615" lon="18.253882561426952"><ele>84.0</ele><time>2026-04-06T06:40:40.001Z</time></trkpt><trkpt lat="40.1932080646503" lon="18.25359475445372"><ele>84.0</ele><time>2026-04-06T06:40:42.002Z</time></trkpt><trkpt lat="40.19321441086539" lon="18.253477868338823"><ele>84.0</ele><time>2026-04-06T06:40:43.002Z</time></trkpt><trkpt lat="40.193218767625375" lon="18.25333263678847"><ele>84.0</ele><time>2026-04-06T06:40:44.002Z</time></trkpt><trkpt lat="40.19330758128222" lon="18.25317658223502"><ele>84.0</ele><time>2026-04-06T06:40:45.002Z</time></trkpt><trkpt lat="40.193432828163246" lon="18.252994028741828"><ele>83.33333333333333</ele><time>2026-04-06T06:40:46.002Z</time></trkpt><trkpt lat="40.19353788130264" lon="18.252798440481197"><ele>82.66666666666666</ele><time>2026-04-06T06:40:47.002Z</time></trkpt><trkpt lat="40.19363532680837" lon="18.25259768477445"><ele>82.0</ele><time>2026-04-06T06:40:48.002Z</time></trkpt><trkpt lat="40.19372430776095" lon="18.25241171154861"><ele>81.75</ele><time>2026-04-06T06:40:49.002Z</time></trkpt><trkpt lat="40.19380427108977" lon="18.252243699414855"><ele>81.5</ele><time>2026-04-06T06:40:50.002Z</time></trkpt><trkpt lat="40.19388205666822" lon="18.252086858125367"><ele>81.25</ele><time>2026-04-06T06:40:51.002Z</time></trkpt><trkpt lat="40.19396920913776" lon="18.25195121309764"><ele>81.0</ele><time>2026-04-06T06:40:52.002Z</time></trkpt><trkpt lat="40.194054933699746" lon="18.2518522546585"><ele>81.0</ele><time>2026-04-06T06:40:53.002Z</time></trkpt><trkpt lat="40.19413088126348" lon="18.251787310657512"><ele>81.0</ele><time>2026-04-06T06:40:54.002Z</time></trkpt><trkpt lat="40.19419165724385" lon="18.251707795142185"><ele>81.0</ele><time>2026-04-06T06:40:55.002Z</time></trkpt><trkpt lat="40.19424949901062" lon="18.251670393430583"><ele>81.0</ele><time>2026-04-06T06:40:56.002Z</time></trkpt><trkpt lat="40.194313221420764" lon="18.251632332179646"><ele>81.0</ele><time>2026-04-06T06:40:58.002Z</time></trkpt><trkpt lat="40.19436951235669" lon="18.251476017263816"><ele>81.0</ele><time>2026-04-06T06:41:04.002Z</time></trkpt><trkpt lat="40.1943471466699" lon="18.251341249510844"><ele>80.75</ele><time>2026-04-06T06:41:05.002Z</time></trkpt><trkpt lat="40.194322156887225" lon="18.251187997160034"><ele>80.5</ele><time>2026-04-06T06:41:06.002Z</time></trkpt><trkpt lat="40.19429428176193" lon="18.25100655628324"><ele>80.25</ele><time>2026-04-06T06:41:07.002Z</time></trkpt><trkpt lat="40.194262101279406" lon="18.25081689042724"><ele>80.0</ele><time>2026-04-06T06:41:08.002Z</time></trkpt><trkpt lat="40.194224862823596" lon="18.25060973231956"><ele>79.66666666666667</ele><time>2026-04-06T06:41:09.002Z</time></trkpt><trkpt lat="40.19419291575022" lon="18.25038206377889"><ele>79.33333333333333</ele><time>2026-04-06T06:41:10.002Z</time></trkpt><trkpt lat="40.19415661774907" lon="18.250129074942738"><ele>79.0</ele><time>2026-04-06T06:41:11.002Z</time></trkpt><trkpt lat="40.19410558556142" lon="18.249854359361127"><ele>78.66666666666666</ele><time>2026-04-06T06:41:12.002Z</time></trkpt><trkpt lat="40.194066425788236" lon="18.24959409168421"><ele>78.33333333333333</ele><time>2026-04-06T06:41:13.002Z</time></trkpt><trkpt lat="40.194023332952895" lon="18.249325372161383"><ele>78.0</ele><time>2026-04-06T06:41:14.002Z</time></trkpt><trkpt lat="40.193984016026505" lon="18.24905485457133"><ele>77.66666666666667</ele><time>2026-04-06T06:41:15.002Z</time></trkpt><trkpt lat="40.19394254545087" lon="18.24877200047464"><ele>77.33333333333334</ele><time>2026-04-06T06:41:16.002Z</time></trkpt><trkpt lat="40.19390012641516" lon="18.24849362697333"><ele>77.0</ele><time>2026-04-06T06:41:17.002Z</time></trkpt><trkpt lat="40.19385851444707" lon="18.248218949926468"><ele>76.66666666666667</ele><time>2026-04-06T06:41:18.002Z</time></trkpt><trkpt lat="40.193815518285355" lon="18.247936540880662"><ele>76.33333333333333</ele><time>2026-04-06T06:41:19.002Z</time></trkpt><trkpt lat="40.19376929448331" lon="18.24764597149173"><ele>76.0</ele><time>2026-04-06T06:41:20.002Z</time></trkpt><trkpt lat="40.19372716925276" lon="18.247364540485318"><ele>76.0</ele><time>2026-04-06T06:41:21.003Z</time></trkpt><trkpt lat="40.193684201786866" lon="18.247090531458696"><ele>76.0</ele><time>2026-04-06T06:41:22.003Z</time></trkpt><trkpt lat="40.19364445591504" lon="18.24683098846747"><ele>76.0</ele><time>2026-04-06T06:41:23.003Z</time></trkpt><trkpt lat="40.19360367951887" lon="18.246576089591947"><ele>77.0</ele><time>2026-04-06T06:41:24.003Z</time></trkpt><trkpt lat="40.19356438750844" lon="18.246326033720063"><ele>78.0</ele><time>2026-04-06T06:41:25.003Z</time></trkpt><trkpt lat="40.193526146655834" lon="18.246079049239615"><ele>79.0</ele><time>2026-04-06T06:41:26.003Z</time></trkpt><trkpt lat="40.19348448863212" lon="18.24581761975143"><ele>78.66666666666666</ele><time>2026-04-06T06:41:27.003Z</time></trkpt><trkpt lat="40.193445423916536" lon="18.24553980746393"><ele>78.33333333333333</ele><time>2026-04-06T06:41:28.003Z</time></trkpt><trkpt lat="40.193403180503765" lon="18.24525790713919"><ele>78.0</ele><time>2026-04-06T06:41:29.003Z</time></trkpt><trkpt lat="40.19335113554752" lon="18.244967312809372"><ele>77.5</ele><time>2026-04-06T06:41:30.003Z</time></trkpt><trkpt lat="40.19329821668617" lon="18.244661693156928"><ele>77.0</ele><time>2026-04-06T06:41:31.003Z</time></trkpt><trkpt lat="40.19324948487067" lon="18.244352639965378"><ele>77.0</ele><time>2026-04-06T06:41:32.003Z</time></trkpt><trkpt lat="40.193204840803546" lon="18.244038177555996"><ele>77.0</ele><time>2026-04-06T06:41:33.003Z</time></trkpt><trkpt lat="40.19315808239984" lon="18.24371783221737"><ele>77.0</ele><time>2026-04-06T06:41:34.003Z</time></trkpt><trkpt lat="40.19310510960907" lon="18.243396660741652"><ele>77.0</ele><time>2026-04-06T06:41:35.003Z</time></trkpt><trkpt lat="40.19305272101102" lon="18.243062250825762"><ele>77.0</ele><time>2026-04-06T06:41:36.003Z</time></trkpt><trkpt lat="40.19300209123249" lon="18.242728977111987"><ele>77.0</ele><time>2026-04-06T06:41:37Z</time></trkpt><trkpt lat="40.192952888315666" lon="18.242392291640922"><ele>76.5</ele><time>2026-04-06T06:41:38Z</time></trkpt><trkpt lat="40.192897627605575" lon="18.242054707408435"><ele>76.0</ele><time>2026-04-06T06:41:39Z</time></trkpt><trkpt lat="40.19283210490468" lon="18.241718013026414"><ele>76.5</ele><time>2026-04-06T06:41:40Z</time></trkpt><trkpt lat="40.19276238387867" lon="18.241382725681227"><ele>77.0</ele><time>2026-04-06T06:41:41Z</time></trkpt><trkpt lat="40.19268315150694" lon="18.241052732522416"><ele>77.0</ele><time>2026-04-06T06:41:42Z</time></trkpt><trkpt lat="40.19260255456285" lon="18.24071982047526"><ele>77.0</ele><time>2026-04-06T06:41:43Z</time></trkpt><trkpt lat="40.19252488386831" lon="18.240407956365146"><ele>77.0</ele><time>2026-04-06T06:41:44Z</time></trkpt><trkpt lat="40.19244611788282" lon="18.240114479473785"><ele>77.0</ele><time>2026-04-06T06:41:45Z</time></trkpt><trkpt lat="40.192415423358554" lon="18.23988570183823"><ele>77.0</ele><time>2026-04-06T06:41:46Z</time></trkpt><trkpt lat="40.19233556518954" lon="18.239607861490533"><ele>77.5</ele><time>2026-04-06T06:41:47Z</time></trkpt><trkpt lat="40.19226780038949" lon="18.23932729025216"><ele>78.0</ele><time>2026-04-06T06:41:48Z</time></trkpt><trkpt lat="40.19220813673043" lon="18.239039770843686"><ele>77.0</ele><time>2026-04-06T06:41:49Z</time></trkpt><trkpt lat="40.192153954693886" lon="18.238736395760846"><ele>76.0</ele><time>2026-04-06T06:41:50Z</time></trkpt><trkpt lat="40.19212093011299" lon="18.238421971682154"><ele>76.0</ele><time>2026-04-06T06:41:51Z</time></trkpt><trkpt lat="40.19207941329422" lon="18.23809620318031"><ele>76.0</ele><time>2026-04-06T06:41:52Z</time></trkpt><trkpt lat="40.19204487189878" lon="18.237759007120292"><ele>76.0</ele><time>2026-04-06T06:41:53Z</time></trkpt><trkpt lat="40.19201584745946" lon="18.23742648227745"><ele>76.0</ele><time>2026-04-06T06:41:54Z</time></trkpt><trkpt lat="40.191987335820734" lon="18.237086077878335"><ele>76.0</ele><time>2026-04-06T06:41:55Z</time></trkpt><trkpt lat="40.19195888684054" lon="18.236746420991675"><ele>76.0</ele><time>2026-04-06T06:41:56Z</time></trkpt><trkpt lat="40.19191668903765" lon="18.23640913934842"><ele>76.5</ele><time>2026-04-06T06:41:57Z</time></trkpt><trkpt lat="40.19189998230869" lon="18.23606556634334"><ele>77.0</ele><time>2026-04-06T06:41:58Z</time></trkpt><trkpt lat="40.19185628286272" lon="18.23573293120622"><ele>76.0</ele><time>2026-04-06T06:41:59Z</time></trkpt><trkpt lat="40.191827996022816" lon="18.235392477370482"><ele>75.0</ele><time>2026-04-06T06:42:00Z</time></trkpt><trkpt lat="40.1917965688626" lon="18.235044189523975"><ele>76.0</ele><time>2026-04-06T06:42:01Z</time></trkpt><trkpt lat="40.19175984597441" lon="18.234693979287645"><ele>77.0</ele><time>2026-04-06T06:42:02Z</time></trkpt><trkpt lat="40.191707123372886" lon="18.234341071955008"><ele>77.0</ele><time>2026-04-06T06:42:03Z</time></trkpt><trkpt lat="40.191649572171585" lon="18.23398219284358"><ele>77.0</ele><time>2026-04-06T06:42:04Z</time></trkpt><trkpt lat="40.19159583648892" lon="18.233626771030078"><ele>77.0</ele><time>2026-04-06T06:42:05Z</time></trkpt><trkpt lat="40.19154409096805" lon="18.233263370693567"><ele>77.0</ele><time>2026-04-06T06:42:06Z</time></trkpt><trkpt lat="40.19148975197972" lon="18.232909249413833"><ele>77.0</ele><time>2026-04-06T06:42:07.001Z</time></trkpt><trkpt lat="40.191434576506474" lon="18.232558830586136"><ele>77.0</ele><time>2026-04-06T06:42:08.001Z</time></trkpt><trkpt lat="40.1913810771858" lon="18.232204732968253"><ele>79.0</ele><time>2026-04-06T06:42:09.001Z</time></trkpt><trkpt lat="40.19132929196356" lon="18.23185338934998"><ele>81.0</ele><time>2026-04-06T06:42:10.001Z</time></trkpt><trkpt lat="40.191279056702086" lon="18.231510928748797"><ele>82.0</ele><time>2026-04-06T06:42:11.001Z</time></trkpt><trkpt lat="40.19122324871392" lon="18.23116470227619"><ele>83.0</ele><time>2026-04-06T06:42:12.001Z</time></trkpt><trkpt lat="40.19116925837703" lon="18.23082752548808"><ele>82.5</ele><time>2026-04-06T06:42:13.001Z</time></trkpt><trkpt lat="40.191119963317895" lon="18.23048834872563"><ele>82.0</ele><time>2026-04-06T06:42:14.001Z</time></trkpt><trkpt lat="40.191069687312535" lon="18.230154306742985"><ele>82.0</ele><time>2026-04-06T06:42:15.001Z</time></trkpt><trkpt lat="40.19100366403098" lon="18.229821698499403"><ele>82.0</ele><time>2026-04-06T06:42:16.001Z</time></trkpt><trkpt lat="40.19095966088765" lon="18.229481237225333"><ele>82.0</ele><time>2026-04-06T06:42:17.001Z</time></trkpt><trkpt lat="40.190910309701216" lon="18.229141981824647"><ele>82.0</ele><time>2026-04-06T06:42:18.001Z</time></trkpt><trkpt lat="40.19085927400056" lon="18.22880006912031"><ele>82.5</ele><time>2026-04-06T06:42:19.001Z</time></trkpt><trkpt lat="40.19080827909868" lon="18.22846839224946"><ele>83.0</ele><time>2026-04-06T06:42:20.001Z</time></trkpt><trkpt lat="40.19076696399784" lon="18.228148983468316"><ele>83.0</ele><time>2026-04-06T06:42:21.001Z</time></trkpt><trkpt lat="40.190717357843575" lon="18.22784489133922"><ele>83.0</ele><time>2026-04-06T06:42:22.001Z</time></trkpt><trkpt lat="40.19067665296633" lon="18.227567447490134"><ele>82.66666666666667</ele><time>2026-04-06T06:42:23.001Z</time></trkpt><trkpt lat="40.19063782526475" lon="18.227283224370908"><ele>82.33333333333333</ele><time>2026-04-06T06:42:24.001Z</time></trkpt><trkpt lat="40.19059120313375" lon="18.226992652653532"><ele>82.0</ele><time>2026-04-06T06:42:25.001Z</time></trkpt><trkpt lat="40.19054677943018" lon="18.22670780338512"><ele>82.66666666666666</ele><time>2026-04-06T06:42:26.001Z</time></trkpt><trkpt lat="40.19049856529446" lon="18.226419204348527"><ele>83.33333333333333</ele><time>2026-04-06T06:42:27.001Z</time></trkpt><trkpt lat="40.19045782655927" lon="18.226148658380115"><ele>84.0</ele><time>2026-04-06T06:42:28.001Z</time></trkpt><trkpt lat="40.19041823454642" lon="18.225889475350204"><ele>84.33333333333333</ele><time>2026-04-06T06:42:29.001Z</time></trkpt><trkpt lat="40.1903789488041" lon="18.22564329097097"><ele>84.66666666666666</ele><time>2026-04-06T06:42:30.001Z</time></trkpt><trkpt lat="40.19034126572981" lon="18.22540843100131"><ele>85.0</ele><time>2026-04-06T06:42:31.001Z</time></trkpt><trkpt lat="40.190307930124334" lon="18.225174267078593"><ele>85.0</ele><time>2026-04-06T06:42:32.001Z</time></trkpt><trkpt lat="40.19027019350026" lon="18.22493859041509"><ele>85.0</ele><time>2026-04-06T06:42:33.001Z</time></trkpt><trkpt lat="40.19023226283993" lon="18.224695923075657"><ele>85.0</ele><time>2026-04-06T06:42:34.001Z</time></trkpt><trkpt lat="40.19018975926714" lon="18.224448164422487"><ele>85.0</ele><time>2026-04-06T06:42:35.001Z</time></trkpt><trkpt lat="40.19015240281084" lon="18.224189281755148"><ele>85.0</ele><time>2026-04-06T06:42:36.001Z</time></trkpt><trkpt lat="40.19011061274614" lon="18.223923199471283"><ele>85.0</ele><time>2026-04-06T06:42:37.001Z</time></trkpt><trkpt lat="40.19007122230744" lon="18.223648012133058"><ele>84.66666666666666</ele><time>2026-04-06T06:42:38.001Z</time></trkpt><trkpt lat="40.19002637842311" lon="18.223377689664204"><ele>84.33333333333333</ele><time>2026-04-06T06:42:39.001Z</time></trkpt><trkpt lat="40.18998307901228" lon="18.223113710140172"><ele>84.0</ele><time>2026-04-06T06:42:40.001Z</time></trkpt><trkpt lat="40.18994025539762" lon="18.222851429411616"><ele>84.66666666666667</ele><time>2026-04-06T06:42:41.001Z</time></trkpt><trkpt lat="40.189898612764324" lon="18.22259013060558"><ele>85.33333333333334</ele><time>2026-04-06T06:42:42.001Z</time></trkpt><trkpt lat="40.18985770644446" lon="18.222333320606005"><ele>86.0</ele><time>2026-04-06T06:42:43.001Z</time></trkpt><trkpt lat="40.18981913944082" lon="18.222074789574695"><ele>86.0</ele><time>2026-04-06T06:42:44.001Z</time></trkpt><trkpt lat="40.189778478359315" lon="18.22181193784275"><ele>86.0</ele><time>2026-04-06T06:42:45.001Z</time></trkpt><trkpt lat="40.189736693422624" lon="18.221543711434673"><ele>86.0</ele><time>2026-04-06T06:42:46.001Z</time></trkpt><trkpt lat="40.18969546488537" lon="18.22126364497339"><ele>86.0</ele><time>2026-04-06T06:42:47.001Z</time></trkpt><trkpt lat="40.189651131973584" lon="18.220978104485912"><ele>86.0</ele><time>2026-04-06T06:42:48.001Z</time></trkpt><trkpt lat="40.1896046905975" lon="18.22069518701334"><ele>86.0</ele><time>2026-04-06T06:42:49.002Z</time></trkpt><trkpt lat="40.18955803978074" lon="18.22041064497796"><ele>85.66666666666667</ele><time>2026-04-06T06:42:50.002Z</time></trkpt><trkpt lat="40.18951316527926" lon="18.220123070530136"><ele>85.33333333333333</ele><time>2026-04-06T06:42:51.002Z</time></trkpt><trkpt lat="40.189467502506155" lon="18.21983620484396"><ele>85.0</ele><time>2026-04-06T06:42:52.002Z</time></trkpt><trkpt lat="40.18944594245621" lon="18.219542208010907"><ele>85.0</ele><time>2026-04-06T06:42:53.002Z</time></trkpt><trkpt lat="40.18940183526674" lon="18.219252983694215"><ele>85.0</ele><time>2026-04-06T06:42:54.002Z</time></trkpt><trkpt lat="40.18935648644705" lon="18.218961101890766"><ele>85.5</ele><time>2026-04-06T06:42:55.002Z</time></trkpt><trkpt lat="40.18931026034314" lon="18.21866516831989"><ele>86.0</ele><time>2026-04-06T06:42:56.002Z</time></trkpt><trkpt lat="40.189265193376784" lon="18.218370576363057"><ele>86.66666666666667</ele><time>2026-04-06T06:42:57.002Z</time></trkpt><trkpt lat="40.18922028815538" lon="18.218077041743136"><ele>87.33333333333333</ele><time>2026-04-06T06:42:58.002Z</time></trkpt><trkpt lat="40.189162955319645" lon="18.217801342211548"><ele>88.0</ele><time>2026-04-06T06:42:59.002Z</time></trkpt><trkpt lat="40.189121697377786" lon="18.21752496018759"><ele>87.66666666666666</ele><time>2026-04-06T06:43:00.002Z</time></trkpt><trkpt lat="40.189095798246846" lon="18.21724871185989"><ele>87.33333333333333</ele><time>2026-04-06T06:43:01.002Z</time></trkpt><trkpt lat="40.189052574450734" lon="18.2169709308827"><ele>87.0</ele><time>2026-04-06T06:43:02.002Z</time></trkpt><trkpt lat="40.189009398741014" lon="18.21668891386841"><ele>87.33333333333333</ele><time>2026-04-06T06:43:03.002Z</time></trkpt><trkpt lat="40.18896596410962" lon="18.216400877236207"><ele>87.66666666666666</ele><time>2026-04-06T06:43:04.002Z</time></trkpt><trkpt lat="40.18892472341009" lon="18.216129905801775"><ele>88.0</ele><time>2026-04-06T06:43:05.002Z</time></trkpt><trkpt lat="40.18888752080381" lon="18.215885466456715"><ele>88.0</ele><time>2026-04-06T06:43:06.002Z</time></trkpt><trkpt lat="40.18883768174911" lon="18.21566230342765"><ele>88.0</ele><time>2026-04-06T06:43:07.002Z</time></trkpt><trkpt lat="40.18881132316212" lon="18.215458159418706"><ele>88.0</ele><time>2026-04-06T06:43:08.002Z</time></trkpt><trkpt lat="40.188782409636396" lon="18.215260560790355"><ele>88.0</ele><time>2026-04-06T06:43:09.002Z</time></trkpt><trkpt lat="40.188753437647385" lon="18.215058894628363"><ele>88.0</ele><time>2026-04-06T06:43:10.002Z</time></trkpt><trkpt lat="40.18872086127092" lon="18.21485916440763"><ele>88.0</ele><time>2026-04-06T06:43:11.002Z</time></trkpt><trkpt lat="40.188696346770286" lon="18.21464633439637"><ele>88.5</ele><time>2026-04-06T06:43:12.002Z</time></trkpt><trkpt lat="40.18866936455979" lon="18.21444499950666"><ele>89.0</ele><time>2026-04-06T06:43:13.002Z</time></trkpt><trkpt lat="40.18864525443238" lon="18.214249830993854"><ele>89.5</ele><time>2026-04-06T06:43:14.002Z</time></trkpt><trkpt lat="40.18861559712844" lon="18.214073122771662"><ele>90.0</ele><time>2026-04-06T06:43:15.002Z</time></trkpt><trkpt lat="40.18857756441557" lon="18.213917349196873"><ele>90.4</ele><time>2026-04-06T06:43:16.002Z</time></trkpt><trkpt lat="40.188546962600086" lon="18.21377245376124"><ele>90.8</ele><time>2026-04-06T06:43:17.002Z</time></trkpt><trkpt lat="40.18852439516664" lon="18.21363361325991"><ele>91.19999999999999</ele><time>2026-04-06T06:43:18.002Z</time></trkpt><trkpt lat="40.18850997212835" lon="18.213514049937707"><ele>91.6</ele><time>2026-04-06T06:43:19.002Z</time></trkpt><trkpt lat="40.188498544497904" lon="18.213398825025852"><ele>92.0</ele><time>2026-04-06T06:43:20.002Z</time></trkpt><trkpt lat="40.188486791945245" lon="18.213299208383546"><ele>92.0</ele><time>2026-04-06T06:43:21.002Z</time></trkpt><trkpt lat="40.18847242336034" lon="18.213161799253303"><ele>92.0</ele><time>2026-04-06T06:43:23.002Z</time></trkpt><trkpt lat="40.18846834152624" lon="18.21303183310348"><ele>92.0</ele><time>2026-04-06T06:43:53Z</time></trkpt><trkpt lat="40.18842485106344" lon="18.212879862759994"><ele>92.0</ele><time>2026-04-06T06:43:55Z</time></trkpt><trkpt lat="40.188398195320495" lon="18.212775731542944"><ele>92.0</ele><time>2026-04-06T06:43:56Z</time></trkpt><trkpt lat="40.18838190990573" lon="18.21266460437149"><ele>91.75</ele><time>2026-04-06T06:43:57Z</time></trkpt><trkpt lat="40.188361483632605" lon="18.212524317801297"><ele>91.5</ele><time>2026-04-06T06:43:58Z</time></trkpt><trkpt lat="40.188340621775005" lon="18.212379382300455"><ele>91.25</ele><time>2026-04-06T06:43:59Z</time></trkpt><trkpt lat="40.188315980064175" lon="18.212237183557118"><ele>91.0</ele><time>2026-04-06T06:44:00Z</time></trkpt><trkpt lat="40.18829387872137" lon="18.21208644603904"><ele>91.0</ele><time>2026-04-06T06:44:01Z</time></trkpt><trkpt lat="40.188275061056125" lon="18.211933089328866"><ele>91.0</ele><time>2026-04-06T06:44:02Z</time></trkpt><trkpt lat="40.188249119069" lon="18.2118131325935"><ele>91.0</ele><time>2026-04-06T06:44:03Z</time></trkpt><trkpt lat="40.18822206411513" lon="18.211682849919054"><ele>91.0</ele><time>2026-04-06T06:44:05Z</time></trkpt><trkpt lat="40.18816530032011" lon="18.21162961128836"><ele>91.0</ele><time>2026-04-06T06:44:07Z</time></trkpt><trkpt lat="40.188078140686606" lon="18.21165728843393"><ele>91.0</ele><time>2026-04-06T06:44:09Z</time></trkpt><trkpt lat="40.18795944058463" lon="18.21171444826671"><ele>91.0</ele><time>2026-04-06T06:44:10Z</time></trkpt><trkpt lat="40.18786862242841" lon="18.211781090895347"><ele>91.0</ele><time>2026-04-06T06:44:11Z</time></trkpt><trkpt lat="40.18776882155189" lon="18.211803243445182"><ele>91.0</ele><time>2026-04-06T06:44:12Z</time></trkpt><trkpt lat="40.187669453091694" lon="18.211843611993796"><ele>91.0</ele><time>2026-04-06T06:44:13Z</time></trkpt><trkpt lat="40.18755578377082" lon="18.211899971939378"><ele>91.0</ele><time>2026-04-06T06:44:14Z</time></trkpt><trkpt lat="40.187445704320716" lon="18.211941335428907"><ele>91.0</ele><time>2026-04-06T06:44:15Z</time></trkpt><trkpt lat="40.18735859734238" lon="18.21196220468513"><ele>91.0</ele><time>2026-04-06T06:44:16Z</time></trkpt><trkpt lat="40.187294001218625" lon="18.211983364720968"><ele>91.0</ele><time>2026-04-06T06:44:17Z</time></trkpt><trkpt lat="40.18721319418654" lon="18.211987480284254"><ele>91.0</ele><time>2026-04-06T06:44:20.001Z</time></trkpt><trkpt lat="40.18717298346601" lon="18.211758698278864"><ele>91.19999999999999</ele><time>2026-04-06T06:44:23.001Z</time></trkpt><trkpt lat="40.18714563547971" lon="18.21165464719695"><ele>91.39999999999999</ele><time>2026-04-06T06:44:24.001Z</time></trkpt><trkpt lat="40.18713180163508" lon="18.211536861282678"><ele>91.6</ele><time>2026-04-06T06:44:25.001Z</time></trkpt><trkpt lat="40.18707782844289" lon="18.21143000804873"><ele>91.8</ele><time>2026-04-06T06:44:26.001Z</time></trkpt><trkpt lat="40.18702263978771" lon="18.21133082664904"><ele>92.0</ele><time>2026-04-06T06:44:27.001Z</time></trkpt><trkpt lat="40.186940350364786" lon="18.21121769083815"><ele>92.19999999999999</ele><time>2026-04-06T06:44:28.001Z</time></trkpt><trkpt lat="40.186855726167686" lon="18.211108628557337"><ele>92.4</ele><time>2026-04-06T06:44:29.001Z</time></trkpt><trkpt lat="40.18676779425661" lon="18.211017191867324"><ele>92.6</ele><time>2026-04-06T06:44:30.001Z</time></trkpt><trkpt lat="40.18669644994066" lon="18.210920185527876"><ele>92.80000000000001</ele><time>2026-04-06T06:44:31.001Z</time></trkpt><trkpt lat="40.186614319196444" lon="18.210824273865175"><ele>93.0</ele><time>2026-04-06T06:44:32.001Z</time></trkpt><trkpt lat="40.1865427388595" lon="18.210713269239495"><ele>93.0</ele><time>2026-04-06T06:44:33.001Z</time></trkpt><trkpt lat="40.186473768087694" lon="18.210614097351677"><ele>93.0</ele><time>2026-04-06T06:44:34.001Z</time></trkpt><trkpt lat="40.186422105472325" lon="18.210545785148714"><ele>93.0</ele><time>2026-04-06T06:44:35.001Z</time></trkpt><trkpt lat="40.18638752667585" lon="18.210475430611208"><ele>93.0</ele><time>2026-04-06T06:44:37.001Z</time></trkpt><trkpt lat="40.18635463513439" lon="18.210385039677686"><ele>93.0</ele><time>2026-04-06T06:44:40.001Z</time></trkpt><trkpt lat="40.186323459863424" lon="18.210310376183095"><ele>93.0</ele><time>2026-04-06T06:44:41.001Z</time></trkpt><trkpt lat="40.186288062330355" lon="18.210225600598427"><ele>93.0</ele><time>2026-04-06T06:44:42.001Z</time></trkpt><trkpt lat="40.186247474376145" lon="18.210129841504543"><ele>93.0</ele><time>2026-04-06T06:44:43.001Z</time></trkpt><trkpt lat="40.186203709772" lon="18.210027263095565"><ele>93.0</ele><time>2026-04-06T06:44:44.001Z</time></trkpt><trkpt lat="40.186161977642335" lon="18.20992944828898"><ele>93.0</ele><time>2026-04-06T06:44:45.001Z</time></trkpt><trkpt lat="40.18611650697551" lon="18.209826586026903"><ele>93.0</ele><time>2026-04-06T06:44:46.001Z</time></trkpt><trkpt lat="40.18606850206818" lon="18.209717821975484"><ele>93.0</ele><time>2026-04-06T06:44:47.001Z</time></trkpt><trkpt lat="40.186023369823225" lon="18.209620986251704"><ele>93.0</ele><time>2026-04-06T06:44:48.001Z</time></trkpt><trkpt lat="40.18597659548141" lon="18.20951576681345"><ele>93.0</ele><time>2026-04-06T06:44:49.001Z</time></trkpt><trkpt lat="40.18592674875174" lon="18.209400404710085"><ele>93.0</ele><time>2026-04-06T06:44:50.001Z</time></trkpt><trkpt lat="40.185874982511244" lon="18.209279916332203"><ele>93.0</ele><time>2026-04-06T06:44:51.001Z</time></trkpt><trkpt lat="40.18582096951064" lon="18.20915761650486"><ele>93.0</ele><time>2026-04-06T06:44:52.001Z</time></trkpt><trkpt lat="40.1857694650747" lon="18.209042042169088"><ele>92.80000000000001</ele><time>2026-04-06T06:44:53.001Z</time></trkpt><trkpt lat="40.185724146312424" lon="18.208940348282106"><ele>92.6</ele><time>2026-04-06T06:44:54.001Z</time></trkpt><trkpt lat="40.18568645377942" lon="18.208855767505632"><ele>92.4</ele><time>2026-04-06T06:44:55.001Z</time></trkpt><trkpt lat="40.18564712707632" lon="18.20873805584108"><ele>92.19999999999999</ele><time>2026-04-06T06:44:57.002Z</time></trkpt><trkpt lat="40.18559228610027" lon="18.208593075748688"><ele>92.0</ele><time>2026-04-06T06:44:59.002Z</time></trkpt><trkpt lat="40.18557734024431" lon="18.20847085245767"><ele>91.39999999999999</ele><time>2026-04-06T06:45:00.002Z</time></trkpt><trkpt lat="40.185547890437576" lon="18.208332548926702"><ele>90.8</ele><time>2026-04-06T06:45:01.002Z</time></trkpt><trkpt lat="40.18552265289086" lon="18.208185176182646"><ele>90.2</ele><time>2026-04-06T06:45:02.002Z</time></trkpt><trkpt lat="40.18550193862698" lon="18.208059308744662"><ele>89.6</ele><time>2026-04-06T06:45:03.002Z</time></trkpt><trkpt lat="40.18548991417172" lon="18.20795175420812"><ele>89.0</ele><time>2026-04-06T06:45:04.002Z</time></trkpt><trkpt lat="40.18547324681341" lon="18.207847868460412"><ele>89.0</ele><time>2026-04-06T06:45:05.002Z</time></trkpt><trkpt lat="40.18544450259055" lon="18.207757734444712"><ele>89.0</ele><time>2026-04-06T06:45:06.002Z</time></trkpt><trkpt lat="40.185434759142545" lon="18.20767155700193"><ele>89.0</ele><time>2026-04-06T06:45:07.002Z</time></trkpt><trkpt lat="40.18542404477123" lon="18.20756809755825"><ele>89.0</ele><time>2026-04-06T06:45:09.002Z</time></trkpt><trkpt lat="40.185417012886155" lon="18.207483364762982"><ele>89.0</ele><time>2026-04-06T06:45:13.002Z</time></trkpt><trkpt lat="40.18540278129446" lon="18.20735896079247"><ele>89.0</ele><time>2026-04-06T06:45:16.002Z</time></trkpt><trkpt lat="40.18540019686602" lon="18.20721181703061"><ele>89.0</ele><time>2026-04-06T06:45:18.002Z</time></trkpt><trkpt lat="40.18538684082413" lon="18.207127350168175"><ele>89.0</ele><time>2026-04-06T06:45:19.002Z</time></trkpt><trkpt lat="40.18539593962514" lon="18.207041650312224"><ele>89.0</ele><time>2026-04-06T06:45:20.002Z</time></trkpt><trkpt lat="40.1853860842237" lon="18.206909451973967"><ele>89.0</ele><time>2026-04-06T06:45:22.002Z</time></trkpt><trkpt lat="40.18537819937515" lon="18.20679664757857"><ele>89.0</ele><time>2026-04-06T06:45:24.002Z</time></trkpt><trkpt lat="40.18537263347785" lon="18.206691977735794"><ele>89.0</ele><time>2026-04-06T06:45:26.002Z</time></trkpt><trkpt lat="40.18535538104396" lon="18.206608817737667"><ele>89.0</ele><time>2026-04-06T06:45:28.002Z</time></trkpt><trkpt lat="40.185363123077835" lon="18.206522668723856"><ele>89.0</ele><time>2026-04-06T06:45:30.002Z</time></trkpt><trkpt lat="40.18538612375017" lon="18.206419396017775"><ele>89.0</ele><time>2026-04-06T06:45:34.002Z</time></trkpt><trkpt lat="40.18539493542541" lon="18.206329459462363"><ele>89.0</ele><time>2026-04-06T06:45:37.003Z</time></trkpt><trkpt lat="40.1854056261761" lon="18.20623707049089"><ele>89.0</ele><time>2026-04-06T06:45:40.003Z</time></trkpt><trkpt lat="40.18541439065037" lon="18.206119551992973"><ele>89.0</ele><time>2026-04-06T06:45:45.003Z</time></trkpt><trkpt lat="40.185244906666306" lon="18.206034999073296"><ele>88.83333333333334</ele><time>2026-04-06T06:45:48.003Z</time></trkpt><trkpt lat="40.185171538296295" lon="18.206015287354532"><ele>88.66666666666667</ele><time>2026-04-06T06:45:50Z</time></trkpt><trkpt lat="40.185100106676416" lon="18.20601427654749"><ele>88.5</ele><time>2026-04-06T06:45:51Z</time></trkpt><trkpt lat="40.184983774811634" lon="18.206012803302357"><ele>88.33333333333333</ele><time>2026-04-06T06:45:53Z</time></trkpt><trkpt lat="40.184910903684866" lon="18.205997705155955"><ele>88.16666666666666</ele><time>2026-04-06T06:45:55Z</time></trkpt><trkpt lat="40.18484475553529" lon="18.205973801179777"><ele>88.0</ele><time>2026-04-06T06:45:58Z</time></trkpt><trkpt lat="40.1847709311973" lon="18.20593769573293"><ele>88.0</ele><time>2026-04-06T06:46:02Z</time></trkpt><trkpt lat="40.18469951871324" lon="18.20588573093948"><ele>88.0</ele><time>2026-04-06T06:46:04Z</time></trkpt><trkpt lat="40.18464467800658" lon="18.205835709996766"><ele>88.0</ele><time>2026-04-06T06:46:05Z</time></trkpt><trkpt lat="40.18455251901318" lon="18.20571638384549"><ele>88.0</ele><time>2026-04-06T06:46:07Z</time></trkpt><trkpt lat="40.18449214614571" lon="18.205653171747702"><ele>88.0</ele><time>2026-04-06T06:46:08Z</time></trkpt><trkpt lat="40.18442103269556" lon="18.20558495891061"><ele>88.0</ele><time>2026-04-06T06:46:09Z</time></trkpt><trkpt lat="40.18434189614702" lon="18.205521642303715"><ele>87.60000000000001</ele><time>2026-04-06T06:46:10Z</time></trkpt><trkpt lat="40.18424597470509" lon="18.20546508474752"><ele>87.2</ele><time>2026-04-06T06:46:11Z</time></trkpt><trkpt lat="40.1841476089439" lon="18.205416336868385"><ele>86.8</ele><time>2026-04-06T06:46:12Z</time></trkpt><trkpt lat="40.18403333320403" lon="18.205380951120418"><ele>86.4</ele><time>2026-04-06T06:46:13Z</time></trkpt><trkpt lat="40.183921408289336" lon="18.205351818221118"><ele>86.0</ele><time>2026-04-06T06:46:14Z</time></trkpt><trkpt lat="40.18380171696003" lon="18.20532983706124"><ele>86.0</ele><time>2026-04-06T06:46:15Z</time></trkpt><trkpt lat="40.18369341584463" lon="18.205311170300565"><ele>86.0</ele><time>2026-04-06T06:46:16Z</time></trkpt><trkpt lat="40.18358983920439" lon="18.205302535454262"><ele>86.0</ele><time>2026-04-06T06:46:17Z</time></trkpt><trkpt lat="40.18349318694197" lon="18.205294804445746"><ele>86.0</ele><time>2026-04-06T06:46:18Z</time></trkpt><trkpt lat="40.18341512170444" lon="18.205287264622893"><ele>86.0</ele><time>2026-04-06T06:46:19Z</time></trkpt><trkpt lat="40.18333161476372" lon="18.205287985458373"><ele>86.0</ele><time>2026-04-06T06:46:21.001Z</time></trkpt><trkpt lat="40.18323841736946" lon="18.2053080408104"><ele>86.0</ele><time>2026-04-06T06:46:23.001Z</time></trkpt><trkpt lat="40.18314605511661" lon="18.20534000587026"><ele>86.0</ele><time>2026-04-06T06:46:24.001Z</time></trkpt><trkpt lat="40.18303071111194" lon="18.20537333645414"><ele>86.0</ele><time>2026-04-06T06:46:25.001Z</time></trkpt><trkpt lat="40.18290498331947" lon="18.205400881499717"><ele>86.0</ele><time>2026-04-06T06:46:26.001Z</time></trkpt><trkpt lat="40.1827859992868" lon="18.20545028982975"><ele>85.75</ele><time>2026-04-06T06:46:27.001Z</time></trkpt><trkpt lat="40.182648050318264" lon="18.20548832527647"><ele>85.5</ele><time>2026-04-06T06:46:28.001Z</time></trkpt><trkpt lat="40.18250412948763" lon="18.20551758698034"><ele>85.25</ele><time>2026-04-06T06:46:29.001Z</time></trkpt><trkpt lat="40.18236654210852" lon="18.20555259137157"><ele>85.0</ele><time>2026-04-06T06:46:30.001Z</time></trkpt><trkpt lat="40.18223999172459" lon="18.205573412852775"><ele>85.0</ele><time>2026-04-06T06:46:31.001Z</time></trkpt><trkpt lat="40.182119987411944" lon="18.205587144714777"><ele>85.0</ele><time>2026-04-06T06:46:32.001Z</time></trkpt><trkpt lat="40.1820080548373" lon="18.205631980151722"><ele>85.0</ele><time>2026-04-06T06:46:33.001Z</time></trkpt><trkpt lat="40.181909522635586" lon="18.20565436276501"><ele>85.0</ele><time>2026-04-06T06:46:34.001Z</time></trkpt><trkpt lat="40.181822785110384" lon="18.205671849115767"><ele>85.0</ele><time>2026-04-06T06:46:36.001Z</time></trkpt><trkpt lat="40.18175610652161" lon="18.205695130353526"><ele>85.5</ele><time>2026-04-06T06:46:37.001Z</time></trkpt><trkpt lat="40.18168116646739" lon="18.205720017927952"><ele>86.0</ele><time>2026-04-06T06:46:38.001Z</time></trkpt><trkpt lat="40.18155205440302" lon="18.205745462418346"><ele>86.5</ele><time>2026-04-06T06:46:39.001Z</time></trkpt><trkpt lat="40.181445056752175" lon="18.20578569087756"><ele>87.0</ele><time>2026-04-06T06:46:40.001Z</time></trkpt><trkpt lat="40.18131960031633" lon="18.205833723019296"><ele>87.0</ele><time>2026-04-06T06:46:41.001Z</time></trkpt><trkpt lat="40.1811778067584" lon="18.205850317676596"><ele>87.0</ele><time>2026-04-06T06:46:42.001Z</time></trkpt><trkpt lat="40.1810151439753" lon="18.20589207556118"><ele>87.0</ele><time>2026-04-06T06:46:43.001Z</time></trkpt><trkpt lat="40.18085164858841" lon="18.20590505572444"><ele>87.0</ele><time>2026-04-06T06:46:44.001Z</time></trkpt><trkpt lat="40.1806822851049" lon="18.205931756045253"><ele>87.0</ele><time>2026-04-06T06:46:45.001Z</time></trkpt><trkpt lat="40.180505085185565" lon="18.205973008577885"><ele>87.0</ele><time>2026-04-06T06:46:46.001Z</time></trkpt><trkpt lat="40.18033301466371" lon="18.20602463359039"><ele>87.0</ele><time>2026-04-06T06:46:47.001Z</time></trkpt><trkpt lat="40.18014471802386" lon="18.206068983132965"><ele>87.0</ele><time>2026-04-06T06:46:48.001Z</time></trkpt><trkpt lat="40.1799458029989" lon="18.206115664860086"><ele>87.0</ele><time>2026-04-06T06:46:49.001Z</time></trkpt><trkpt lat="40.17973838430033" lon="18.20616841043777"><ele>86.0</ele><time>2026-04-06T06:46:50.001Z</time></trkpt><trkpt lat="40.17951417357402" lon="18.2062259390936"><ele>85.0</ele><time>2026-04-06T06:46:51.001Z</time></trkpt><trkpt lat="40.179291981257755" lon="18.206276806515593"><ele>85.0</ele><time>2026-04-06T06:46:52.001Z</time></trkpt><trkpt lat="40.17906852121265" lon="18.206320777674335"><ele>85.0</ele><time>2026-04-06T06:46:53.001Z</time></trkpt><trkpt lat="40.17885318402769" lon="18.206367863547694"><ele>85.0</ele><time>2026-04-06T06:46:54.001Z</time></trkpt><trkpt lat="40.178640454945985" lon="18.206392377463967"><ele>85.0</ele><time>2026-04-06T06:46:55.001Z</time></trkpt><trkpt lat="40.17842045304928" lon="18.206375062762707"><ele>85.0</ele><time>2026-04-06T06:46:56.001Z</time></trkpt><trkpt lat="40.17817960449183" lon="18.20635131709058"><ele>85.5</ele><time>2026-04-06T06:46:57.001Z</time></trkpt><trkpt lat="40.17793882216215" lon="18.2063475625607"><ele>86.0</ele><time>2026-04-06T06:46:58.001Z</time></trkpt><trkpt lat="40.17770606597162" lon="18.20629725438007"><ele>86.0</ele><time>2026-04-06T06:46:59.002Z</time></trkpt><trkpt lat="40.17747455211186" lon="18.206270684692534"><ele>86.0</ele><time>2026-04-06T06:47:00.002Z</time></trkpt><trkpt lat="40.177240074672795" lon="18.206240313983155"><ele>85.5</ele><time>2026-04-06T06:47:01.002Z</time></trkpt><trkpt lat="40.17700304446822" lon="18.2062172507323"><ele>85.0</ele><time>2026-04-06T06:47:02.002Z</time></trkpt><trkpt lat="40.17676099194962" lon="18.20620015334738"><ele>85.0</ele><time>2026-04-06T06:47:03.002Z</time></trkpt><trkpt lat="40.17652090682474" lon="18.20617537685623"><ele>85.0</ele><time>2026-04-06T06:47:04.002Z</time></trkpt><trkpt lat="40.17628734464615" lon="18.206162550094966"><ele>85.0</ele><time>2026-04-06T06:47:05.002Z</time></trkpt><trkpt lat="40.176059109239844" lon="18.206141532176357"><ele>85.0</ele><time>2026-04-06T06:47:06.002Z</time></trkpt><trkpt lat="40.175835503582775" lon="18.206114816820314"><ele>84.66666666666666</ele><time>2026-04-06T06:47:07.002Z</time></trkpt><trkpt lat="40.175612022682806" lon="18.206088431836683"><ele>84.33333333333333</ele><time>2026-04-06T06:47:08.002Z</time></trkpt><trkpt lat="40.17540691986759" lon="18.206070694603117"><ele>84.0</ele><time>2026-04-06T06:47:09.002Z</time></trkpt><trkpt lat="40.17520620999221" lon="18.20605442375342"><ele>84.0</ele><time>2026-04-06T06:47:10.002Z</time></trkpt><trkpt lat="40.17500784953498" lon="18.206064986101413"><ele>84.0</ele><time>2026-04-06T06:47:11.002Z</time></trkpt><trkpt lat="40.17480254137582" lon="18.20610970506178"><ele>84.0</ele><time>2026-04-06T06:47:12.002Z</time></trkpt><trkpt lat="40.17460820934386" lon="18.20617276276354"><ele>84.5</ele><time>2026-04-06T06:47:13.002Z</time></trkpt><trkpt lat="40.17438966649645" lon="18.20624279586999"><ele>85.0</ele><time>2026-04-06T06:47:14.002Z</time></trkpt><trkpt lat="40.174175600979055" lon="18.20634098600694"><ele>85.0</ele><time>2026-04-06T06:47:15.002Z</time></trkpt><trkpt lat="40.17396432177253" lon="18.20642514707139"><ele>85.0</ele><time>2026-04-06T06:47:16.002Z</time></trkpt><trkpt lat="40.17374832459295" lon="18.20651851242339"><ele>85.0</ele><time>2026-04-06T06:47:17.002Z</time></trkpt><trkpt lat="40.17354966533254" lon="18.206592800020722"><ele>85.33333333333333</ele><time>2026-04-06T06:47:18.002Z</time></trkpt><trkpt lat="40.17336260055943" lon="18.2066412843131"><ele>85.66666666666667</ele><time>2026-04-06T06:47:19.002Z</time></trkpt><trkpt lat="40.173180792920064" lon="18.206641827234144"><ele>86.0</ele><time>2026-04-06T06:47:20.002Z</time></trkpt><trkpt lat="40.173011290732134" lon="18.20663125829964"><ele>85.0</ele><time>2026-04-06T06:47:21.002Z</time></trkpt><trkpt lat="40.17285035448703" lon="18.2066095277821"><ele>84.0</ele><time>2026-04-06T06:47:22.002Z</time></trkpt><trkpt lat="40.17265196277796" lon="18.206579823814252"><ele>83.0</ele><time>2026-04-06T06:47:23.002Z</time></trkpt><trkpt lat="40.172480467288885" lon="18.206504490512387"><ele>82.33333333333334</ele><time>2026-04-06T06:47:24.002Z</time></trkpt><trkpt lat="40.1723181136736" lon="18.20638030487995"><ele>81.66666666666667</ele><time>2026-04-06T06:47:25.002Z</time></trkpt><trkpt lat="40.17214969270073" lon="18.206243370268076"><ele>81.0</ele><time>2026-04-06T06:47:26.002Z</time></trkpt><trkpt lat="40.17198392340344" lon="18.206089249638207"><ele>81.0</ele><time>2026-04-06T06:47:27.002Z</time></trkpt><trkpt lat="40.171825273750564" lon="18.205916914478664"><ele>81.0</ele><time>2026-04-06T06:47:28.002Z</time></trkpt><trkpt lat="40.171667426956525" lon="18.2057297002126"><ele>81.0</ele><time>2026-04-06T06:47:29.002Z</time></trkpt><trkpt lat="40.17149941413552" lon="18.205530428308514"><ele>80.0</ele><time>2026-04-06T06:47:30.002Z</time></trkpt><trkpt lat="40.17134224563563" lon="18.205320071818516"><ele>79.0</ele><time>2026-04-06T06:47:31.002Z</time></trkpt><trkpt lat="40.17118791937523" lon="18.20511283380606"><ele>78.0</ele><time>2026-04-06T06:47:32.002Z</time></trkpt><trkpt lat="40.17105384825224" lon="18.204930780412255"><ele>77.33333333333333</ele><time>2026-04-06T06:47:33.002Z</time></trkpt><trkpt lat="40.1709072097255" lon="18.204743829570514"><ele>76.66666666666666</ele><time>2026-04-06T06:47:34.002Z</time></trkpt><trkpt lat="40.17076446384575" lon="18.204555649672027"><ele>76.0</ele><time>2026-04-06T06:47:35.002Z</time></trkpt><trkpt lat="40.17061556390891" lon="18.20438379389546"><ele>75.33333333333333</ele><time>2026-04-06T06:47:36.002Z</time></trkpt><trkpt lat="40.17044298705163" lon="18.2042234875736"><ele>74.66666666666667</ele><time>2026-04-06T06:47:37.002Z</time></trkpt><trkpt lat="40.17026128133858" lon="18.204085004469647"><ele>74.0</ele><time>2026-04-06T06:47:38.002Z</time></trkpt><trkpt lat="40.170068931702076" lon="18.20396568000795"><ele>74.0</ele><time>2026-04-06T06:47:39.003Z</time></trkpt><trkpt lat="40.169873192401205" lon="18.20388485756537"><ele>74.0</ele><time>2026-04-06T06:47:40.003Z</time></trkpt><trkpt lat="40.16967299190253" lon="18.203821475830832"><ele>74.0</ele><time>2026-04-06T06:47:41.003Z</time></trkpt><trkpt lat="40.16944800015688" lon="18.203769626275893"><ele>73.66666666666667</ele><time>2026-04-06T06:47:42.003Z</time></trkpt><trkpt lat="40.16923842089738" lon="18.203727190134323"><ele>73.33333333333333</ele><time>2026-04-06T06:47:43.003Z</time></trkpt><trkpt lat="40.16903787200504" lon="18.203672713228826"><ele>73.0</ele><time>2026-04-06T06:47:44.003Z</time></trkpt><trkpt lat="40.168843272048306" lon="18.20362583731563"><ele>73.0</ele><time>2026-04-06T06:47:45.003Z</time></trkpt><trkpt lat="40.16867955224758" lon="18.203596511880054"><ele>73.0</ele><time>2026-04-06T06:47:46.003Z</time></trkpt><trkpt lat="40.1685403117998" lon="18.203554009620305"><ele>73.0</ele><time>2026-04-06T06:47:47.003Z</time></trkpt><trkpt lat="40.168420935051195" lon="18.20350299445414"><ele>73.0</ele><time>2026-04-06T06:47:48.003Z</time></trkpt><trkpt lat="40.168319825016845" lon="18.203457076971908"><ele>73.0</ele><time>2026-04-06T06:47:49.003Z</time></trkpt><trkpt lat="40.16822989286273" lon="18.203411051597598"><ele>73.0</ele><time>2026-04-06T06:47:50.003Z</time></trkpt><trkpt lat="40.16813905164369" lon="18.203354048349908"><ele>73.0</ele><time>2026-04-06T06:47:51.003Z</time></trkpt><trkpt lat="40.168054924416445" lon="18.20328375977434"><ele>73.0</ele><time>2026-04-06T06:47:52.003Z</time></trkpt><trkpt lat="40.16794878219073" lon="18.203226878647964"><ele>73.0</ele><time>2026-04-06T06:47:53.003Z</time></trkpt><trkpt lat="40.16782550857018" lon="18.203193557611087"><ele>73.0</ele><time>2026-04-06T06:47:54.003Z</time></trkpt><trkpt lat="40.167671612114546" lon="18.20317419438769"><ele>73.0</ele><time>2026-04-06T06:47:55Z</time></trkpt><trkpt lat="40.167498818023915" lon="18.203166578243618"><ele>73.0</ele><time>2026-04-06T06:47:56Z</time></trkpt><trkpt lat="40.167319419974035" lon="18.203149068185287"><ele>74.0</ele><time>2026-04-06T06:47:57Z</time></trkpt><trkpt lat="40.16712473250503" lon="18.203103369709172"><ele>75.0</ele><time>2026-04-06T06:47:58Z</time></trkpt><trkpt lat="40.16692888425472" lon="18.20304397771003"><ele>76.0</ele><time>2026-04-06T06:47:59Z</time></trkpt><trkpt lat="40.166718886500526" lon="18.20295382174567"><ele>76.0</ele><time>2026-04-06T06:48:00Z</time></trkpt><trkpt lat="40.16649992995172" lon="18.20284873474852"><ele>76.0</ele><time>2026-04-06T06:48:01Z</time></trkpt><trkpt lat="40.16628755675178" lon="18.202764693234805"><ele>76.0</ele><time>2026-04-06T06:48:02Z</time></trkpt><trkpt lat="40.166075807679604" lon="18.202683343240107"><ele>76.0</ele><time>2026-04-06T06:48:03Z</time></trkpt><trkpt lat="40.16586659733151" lon="18.202598104928683"><ele>76.0</ele><time>2026-04-06T06:48:04Z</time></trkpt><trkpt lat="40.16566306599603" lon="18.202525869259976"><ele>76.0</ele><time>2026-04-06T06:48:05Z</time></trkpt><trkpt lat="40.16544808549597" lon="18.20247009354406"><ele>76.0</ele><time>2026-04-06T06:48:06Z</time></trkpt><trkpt lat="40.165222902445485" lon="18.202422636757642"><ele>76.0</ele><time>2026-04-06T06:48:07Z</time></trkpt><trkpt lat="40.16501558542303" lon="18.202391391825728"><ele>76.33333333333333</ele><time>2026-04-06T06:48:08Z</time></trkpt><trkpt lat="40.16480424997726" lon="18.202334258125205"><ele>76.66666666666667</ele><time>2026-04-06T06:48:09Z</time></trkpt><trkpt lat="40.16459398902358" lon="18.202271730530075"><ele>77.0</ele><time>2026-04-06T06:48:10Z</time></trkpt><trkpt lat="40.164394129252614" lon="18.202203706077103"><ele>76.0</ele><time>2026-04-06T06:48:11Z</time></trkpt><trkpt lat="40.164199828071304" lon="18.202154295430827"><ele>75.0</ele><time>2026-04-06T06:48:12Z</time></trkpt><trkpt lat="40.163999662008486" lon="18.202070711433134"><ele>74.0</ele><time>2026-04-06T06:48:13Z</time></trkpt><trkpt lat="40.163794837813604" lon="18.201985522787336"><ele>74.0</ele><time>2026-04-06T06:48:14Z</time></trkpt><trkpt lat="40.163592161187296" lon="18.20188620266425"><ele>74.0</ele><time>2026-04-06T06:48:15Z</time></trkpt><trkpt lat="40.16338960405359" lon="18.201772493876014"><ele>74.0</ele><time>2026-04-06T06:48:16Z</time></trkpt><trkpt lat="40.163194243798856" lon="18.201669111555677"><ele>74.0</ele><time>2026-04-06T06:48:17Z</time></trkpt><trkpt lat="40.16300383778761" lon="18.201575840871648"><ele>74.0</ele><time>2026-04-06T06:48:18Z</time></trkpt><trkpt lat="40.16281646433296" lon="18.201466632807886"><ele>74.0</ele><time>2026-04-06T06:48:19Z</time></trkpt><trkpt lat="40.162631536129005" lon="18.201380896918632"><ele>74.0</ele><time>2026-04-06T06:48:20Z</time></trkpt><trkpt lat="40.16243405727341" lon="18.201293859144652"><ele>74.0</ele><time>2026-04-06T06:48:21Z</time></trkpt><trkpt lat="40.162232805052916" lon="18.201209359980027"><ele>74.0</ele><time>2026-04-06T06:48:22Z</time></trkpt><trkpt lat="40.16202510584026" lon="18.201124000166697"><ele>73.33333333333334</ele><time>2026-04-06T06:48:23Z</time></trkpt><trkpt lat="40.161816344001956" lon="18.201035703656476"><ele>72.66666666666667</ele><time>2026-04-06T06:48:24Z</time></trkpt><trkpt lat="40.161602247704856" lon="18.20095768663001"><ele>72.0</ele><time>2026-04-06T06:48:25Z</time></trkpt><trkpt lat="40.16137974827238" lon="18.200873367841314"><ele>70.5</ele><time>2026-04-06T06:48:26Z</time></trkpt><trkpt lat="40.161159000330464" lon="18.200802497748896"><ele>69.0</ele><time>2026-04-06T06:48:27.001Z</time></trkpt><trkpt lat="40.160935571555704" lon="18.20074641169356"><ele>69.5</ele><time>2026-04-06T06:48:28.001Z</time></trkpt><trkpt lat="40.160694853296086" lon="18.200680294067485"><ele>70.0</ele><time>2026-04-06T06:48:29.001Z</time></trkpt><trkpt lat="40.16045132301047" lon="18.200627716177017"><ele>70.0</ele><time>2026-04-06T06:48:30.001Z</time></trkpt><trkpt lat="40.16020524871339" lon="18.20056661587055"><ele>70.0</ele><time>2026-04-06T06:48:31.001Z</time></trkpt><trkpt lat="40.1599584244021" lon="18.200506683631055"><ele>70.0</ele><time>2026-04-06T06:48:32.001Z</time></trkpt><trkpt lat="40.15971045566877" lon="18.200448330631527"><ele>70.0</ele><time>2026-04-06T06:48:33.001Z</time></trkpt><trkpt lat="40.15947099281882" lon="18.200396295983296"><ele>70.0</ele><time>2026-04-06T06:48:34.001Z</time></trkpt><trkpt lat="40.15921686810119" lon="18.200337359814352"><ele>70.0</ele><time>2026-04-06T06:48:35.001Z</time></trkpt><trkpt lat="40.15895427581215" lon="18.20027787937884"><ele>70.0</ele><time>2026-04-06T06:48:36.001Z</time></trkpt><trkpt lat="40.158689838931465" lon="18.200222088313758"><ele>70.0</ele><time>2026-04-06T06:48:37.001Z</time></trkpt><trkpt lat="40.15842926218082" lon="18.200157779960428"><ele>68.5</ele><time>2026-04-06T06:48:38.001Z</time></trkpt><trkpt lat="40.15817708735838" lon="18.200095875819883"><ele>67.0</ele><time>2026-04-06T06:48:39.001Z</time></trkpt><trkpt lat="40.157926453333104" lon="18.20002441181636"><ele>67.0</ele><time>2026-04-06T06:48:40.001Z</time></trkpt><trkpt lat="40.1576770064619" lon="18.19996753237606"><ele>67.0</ele><time>2026-04-06T06:48:41.001Z</time></trkpt><trkpt lat="40.157429080527805" lon="18.19989650126555"><ele>68.5</ele><time>2026-04-06T06:48:42.001Z</time></trkpt><trkpt lat="40.15718492301726" lon="18.19982174088764"><ele>70.0</ele><time>2026-04-06T06:48:43.001Z</time></trkpt><trkpt lat="40.15694417785184" lon="18.199725189793472"><ele>70.0</ele><time>2026-04-06T06:48:44.001Z</time></trkpt><trkpt lat="40.15669636053171" lon="18.199633573831264"><ele>70.0</ele><time>2026-04-06T06:48:45.001Z</time></trkpt><trkpt lat="40.15644114609179" lon="18.199543667675965"><ele>70.0</ele><time>2026-04-06T06:48:46.001Z</time></trkpt><trkpt lat="40.15618731652145" lon="18.19946025826198"><ele>70.0</ele><time>2026-04-06T06:48:47.001Z</time></trkpt><trkpt lat="40.155934967987584" lon="18.199362451168206"><ele>70.5</ele><time>2026-04-06T06:48:48.001Z</time></trkpt><trkpt lat="40.15569061117046" lon="18.19926731609754"><ele>71.0</ele><time>2026-04-06T06:48:49.001Z</time></trkpt><trkpt lat="40.15545980826219" lon="18.199186620779994"><ele>71.0</ele><time>2026-04-06T06:48:50.001Z</time></trkpt><trkpt lat="40.15525823716448" lon="18.199104577992742"><ele>71.0</ele><time>2026-04-06T06:48:51.001Z</time></trkpt><trkpt lat="40.15506579169245" lon="18.199039986897482"><ele>71.0</ele><time>2026-04-06T06:48:52.001Z</time></trkpt><trkpt lat="40.154882824215704" lon="18.198964785666558"><ele>71.0</ele><time>2026-04-06T06:48:53.001Z</time></trkpt><trkpt lat="40.15470915690103" lon="18.198909757704232"><ele>71.0</ele><time>2026-04-06T06:48:54.001Z</time></trkpt><trkpt lat="40.1545456956719" lon="18.198869649677334"><ele>71.0</ele><time>2026-04-06T06:48:55.001Z</time></trkpt><trkpt lat="40.154399906972145" lon="18.198838024718835"><ele>71.0</ele><time>2026-04-06T06:48:56.001Z</time></trkpt><trkpt lat="40.15425395395481" lon="18.19880625700272"><ele>71.0</ele><time>2026-04-06T06:48:57.001Z</time></trkpt><trkpt lat="40.15410140743241" lon="18.198758169191898"><ele>71.0</ele><time>2026-04-06T06:48:58.001Z</time></trkpt><trkpt lat="40.15393732402606" lon="18.198713238512127"><ele>71.33333333333334</ele><time>2026-04-06T06:48:59.001Z</time></trkpt><trkpt lat="40.15378161637923" lon="18.1986823510437"><ele>71.66666666666667</ele><time>2026-04-06T06:49:00.001Z</time></trkpt><trkpt lat="40.15363063908573" lon="18.198651695331705"><ele>72.0</ele><time>2026-04-06T06:49:01.001Z</time></trkpt><trkpt lat="40.15347201970974" lon="18.19860449705137"><ele>72.0</ele><time>2026-04-06T06:49:02.001Z</time></trkpt><trkpt lat="40.15331496088631" lon="18.198567153125293"><ele>72.0</ele><time>2026-04-06T06:49:03.001Z</time></trkpt><trkpt lat="40.153152898321565" lon="18.198529489729527"><ele>72.0</ele><time>2026-04-06T06:49:04.001Z</time></trkpt><trkpt lat="40.15298198934896" lon="18.19849551824317"><ele>72.33333333333333</ele><time>2026-04-06T06:49:05.001Z</time></trkpt><trkpt lat="40.15281902540021" lon="18.19846698392509"><ele>72.66666666666666</ele><time>2026-04-06T06:49:06.002Z</time></trkpt><trkpt lat="40.152654517113305" lon="18.198450004273788"><ele>73.0</ele><time>2026-04-06T06:49:07.002Z</time></trkpt><trkpt lat="40.1524796228965" lon="18.198397323467333"><ele>72.66666666666666</ele><time>2026-04-06T06:49:08.002Z</time></trkpt><trkpt lat="40.152310252950365" lon="18.198356789360083"><ele>72.33333333333333</ele><time>2026-04-06T06:49:09.002Z</time></trkpt><trkpt lat="40.15213930282225" lon="18.198317759414312"><ele>72.0</ele><time>2026-04-06T06:49:10.002Z</time></trkpt><trkpt lat="40.1519747012518" lon="18.198275749236547"><ele>72.0</ele><time>2026-04-06T06:49:11.002Z</time></trkpt><trkpt lat="40.15182135704359" lon="18.19824049204495"><ele>72.0</ele><time>2026-04-06T06:49:12.002Z</time></trkpt><trkpt lat="40.15168537052055" lon="18.198212109315175"><ele>72.0</ele><time>2026-04-06T06:49:13.002Z</time></trkpt><trkpt lat="40.151572242713314" lon="18.198193232123273"><ele>72.0</ele><time>2026-04-06T06:49:14.002Z</time></trkpt><trkpt lat="40.15149430140542" lon="18.198177442907266"><ele>72.4</ele><time>2026-04-06T06:49:15.002Z</time></trkpt><trkpt lat="40.15138246621774" lon="18.19817238227775"><ele>72.80000000000001</ele><time>2026-04-06T06:49:17.002Z</time></trkpt><trkpt lat="40.151276689904385" lon="18.19815236446107"><ele>73.2</ele><time>2026-04-06T06:49:20.002Z</time></trkpt><trkpt lat="40.151206077074086" lon="18.19815251659761"><ele>73.60000000000001</ele><time>2026-04-06T06:49:21.002Z</time></trkpt><trkpt lat="40.15111093674481" lon="18.198151720519146"><ele>74.0</ele><time>2026-04-06T06:49:22.002Z</time></trkpt><trkpt lat="40.1510241355591" lon="18.19815179666924"><ele>74.4</ele><time>2026-04-06T06:49:23.002Z</time></trkpt><trkpt lat="40.150932768142766" lon="18.198152310297058"><ele>74.80000000000001</ele><time>2026-04-06T06:49:24.002Z</time></trkpt><trkpt lat="40.15083340531252" lon="18.19814595135058"><ele>75.19999999999999</ele><time>2026-04-06T06:49:25.002Z</time></trkpt><trkpt lat="40.15073514413183" lon="18.198147802904078"><ele>75.6</ele><time>2026-04-06T06:49:26.002Z</time></trkpt><trkpt lat="40.15064186236494" lon="18.198152202854505"><ele>76.0</ele><time>2026-04-06T06:49:27.002Z</time></trkpt><trkpt lat="40.15055331429538" lon="18.198140779360237"><ele>76.0</ele><time>2026-04-06T06:49:28.002Z</time></trkpt><trkpt lat="40.15046257879671" lon="18.198136382016713"><ele>76.0</ele><time>2026-04-06T06:49:29.002Z</time></trkpt><trkpt lat="40.15038059511929" lon="18.19812460118677"><ele>76.0</ele><time>2026-04-06T06:49:30.002Z</time></trkpt><trkpt lat="40.15028832351773" lon="18.19810291477096"><ele>76.0</ele><time>2026-04-06T06:49:32.002Z</time></trkpt><trkpt lat="40.150232782830855" lon="18.19798902481577"><ele>76.0</ele><time>2026-04-06T06:49:34.002Z</time></trkpt><trkpt lat="40.15019142383845" lon="18.19791666301071"><ele>76.0</ele><time>2026-04-06T06:49:36.002Z</time></trkpt><trkpt lat="40.150113927051876" lon="18.197946805747097"><ele>76.0</ele><time>2026-04-06T06:49:39.002Z</time></trkpt><trkpt lat="40.15002340737141" lon="18.1980365587081"><ele>76.0</ele><time>2026-04-06T06:49:42.002Z</time></trkpt><trkpt lat="40.14992531288508" lon="18.198065812407112"><ele>76.0</ele><time>2026-04-06T06:49:43.002Z</time></trkpt><trkpt lat="40.149844596661346" lon="18.198098004302132"><ele>76.0</ele><time>2026-04-06T06:49:44.002Z</time></trkpt><trkpt lat="40.149763943327144" lon="18.198128406686582"><ele>76.0</ele><time>2026-04-06T06:49:45.003Z</time></trkpt><trkpt lat="40.14969501020863" lon="18.19821382246507"><ele>75.75</ele><time>2026-04-06T06:49:46.003Z</time></trkpt><trkpt lat="40.14961636241211" lon="18.198294062450255"><ele>75.5</ele><time>2026-04-06T06:49:47.003Z</time></trkpt><trkpt lat="40.14951900731353" lon="18.198393389381486"><ele>75.25</ele><time>2026-04-06T06:49:48.003Z</time></trkpt><trkpt lat="40.14940235395397" lon="18.19846284170566"><ele>75.0</ele><time>2026-04-06T06:49:49.003Z</time></trkpt><trkpt lat="40.149280013777506" lon="18.198558122285256"><ele>75.0</ele><time>2026-04-06T06:49:50.003Z</time></trkpt><trkpt lat="40.14916494060283" lon="18.198647740034914"><ele>75.0</ele><time>2026-04-06T06:49:51.003Z</time></trkpt><trkpt lat="40.149051604523024" lon="18.198739118178224"><ele>75.0</ele><time>2026-04-06T06:49:52.003Z</time></trkpt><trkpt lat="40.14894368274883" lon="18.19883033460258"><ele>75.0</ele><time>2026-04-06T06:49:53.003Z</time></trkpt><trkpt lat="40.14884100983954" lon="18.19890604298733"><ele>75.16666666666667</ele><time>2026-04-06T06:49:54.003Z</time></trkpt><trkpt lat="40.14874868480391" lon="18.198977731465533"><ele>75.33333333333333</ele><time>2026-04-06T06:49:55.003Z</time></trkpt><trkpt lat="40.148670453185304" lon="18.19904442363974"><ele>75.5</ele><time>2026-04-06T06:49:56.003Z</time></trkpt><trkpt lat="40.148603181732234" lon="18.199097313188975"><ele>75.66666666666666</ele><time>2026-04-06T06:49:57.003Z</time></trkpt><trkpt lat="40.148541122858816" lon="18.19913361590347"><ele>75.83333333333333</ele><time>2026-04-06T06:49:58.003Z</time></trkpt><trkpt lat="40.148478030541725" lon="18.199186625675132"><ele>76.0</ele><time>2026-04-06T06:50:00.003Z</time></trkpt><trkpt lat="40.14842496563355" lon="18.199241518545428"><ele>76.0</ele><time>2026-04-06T06:50:02Z</time></trkpt><trkpt lat="40.1483112460906" lon="18.199323403536653"><ele>76.0</ele><time>2026-04-06T06:50:04Z</time></trkpt><trkpt lat="40.148250375513406" lon="18.19938786221257"><ele>76.0</ele><time>2026-04-06T06:50:05Z</time></trkpt><trkpt lat="40.148171429259335" lon="18.199441048262944"><ele>76.0</ele><time>2026-04-06T06:50:06Z</time></trkpt><trkpt lat="40.14809193864057" lon="18.199496238765015"><ele>76.0</ele><time>2026-04-06T06:50:07Z</time></trkpt><trkpt lat="40.148017316765205" lon="18.19954949811944"><ele>76.0</ele><time>2026-04-06T06:50:08Z</time></trkpt><trkpt lat="40.14794243509253" lon="18.199598396480962"><ele>76.0</ele><time>2026-04-06T06:50:09Z</time></trkpt><trkpt lat="40.14787873212795" lon="18.199649102177766"><ele>76.0</ele><time>2026-04-06T06:50:10Z</time></trkpt><trkpt lat="40.1478086833794" lon="18.199697896912785"><ele>76.0</ele><time>2026-04-06T06:50:11Z</time></trkpt><trkpt lat="40.147727489209295" lon="18.19974640128451"><ele>76.0</ele><time>2026-04-06T06:50:12Z</time></trkpt><trkpt lat="40.147652520641465" lon="18.19979496704419"><ele>76.0</ele><time>2026-04-06T06:50:13Z</time></trkpt><trkpt lat="40.14758910692426" lon="18.19984642954524"><ele>76.0</ele><time>2026-04-06T06:50:14Z</time></trkpt><trkpt lat="40.14750482857484" lon="18.199890936984488"><ele>76.0</ele><time>2026-04-06T06:50:15Z</time></trkpt><trkpt lat="40.147423459317395" lon="18.199945213530054"><ele>76.0</ele><time>2026-04-06T06:50:16Z</time></trkpt><trkpt lat="40.147360061749296" lon="18.199991343144667"><ele>76.0</ele><time>2026-04-06T06:50:17Z</time></trkpt><trkpt lat="40.147271932839395" lon="18.200023774753486"><ele>76.0</ele><time>2026-04-06T06:50:18Z</time></trkpt><trkpt lat="40.14717643766054" lon="18.20006807487951"><ele>76.0</ele><time>2026-04-06T06:50:19Z</time></trkpt><trkpt lat="40.1470868382457" lon="18.200107619400555"><ele>76.0</ele><time>2026-04-06T06:50:20Z</time></trkpt><trkpt lat="40.14698577849088" lon="18.200150047218802"><ele>76.0</ele><time>2026-04-06T06:50:21Z</time></trkpt><trkpt lat="40.146915383462584" lon="18.200202986608844"><ele>76.0</ele><time>2026-04-06T06:50:22Z</time></trkpt><trkpt lat="40.14682166167058" lon="18.200250230695858"><ele>76.0</ele><time>2026-04-06T06:50:23Z</time></trkpt><trkpt lat="40.14674117267431" lon="18.200299793627433"><ele>76.0</ele><time>2026-04-06T06:50:24Z</time></trkpt><trkpt lat="40.146665400872664" lon="18.200367722236887"><ele>76.0</ele><time>2026-04-06T06:50:25Z</time></trkpt><trkpt lat="40.14656379206582" lon="18.200416114626023"><ele>76.0</ele><time>2026-04-06T06:50:26Z</time></trkpt><trkpt lat="40.14647073114497" lon="18.20047449483547"><ele>76.0</ele><time>2026-04-06T06:50:27Z</time></trkpt><trkpt lat="40.14640252563266" lon="18.200533873843224"><ele>76.0</ele><time>2026-04-06T06:50:28Z</time></trkpt><trkpt lat="40.14632143408013" lon="18.200593704174523"><ele>76.0</ele><time>2026-04-06T06:50:29Z</time></trkpt><trkpt lat="40.14623247688697" lon="18.200644464382304"><ele>75.83333333333333</ele><time>2026-04-06T06:50:30Z</time></trkpt><trkpt lat="40.14614699698583" lon="18.200702283662945"><ele>75.66666666666666</ele><time>2026-04-06T06:50:31Z</time></trkpt><trkpt lat="40.14607457266174" lon="18.200748796244955"><ele>75.5</ele><time>2026-04-06T06:50:32Z</time></trkpt><trkpt lat="40.145999376426715" lon="18.200796646803823"><ele>75.33333333333333</ele><time>2026-04-06T06:50:33Z</time></trkpt><trkpt lat="40.14591711722172" lon="18.200830952054535"><ele>75.16666666666667</ele><time>2026-04-06T06:50:34Z</time></trkpt><trkpt lat="40.14583701688297" lon="18.200870856972536"><ele>75.0</ele><time>2026-04-06T06:50:35Z</time></trkpt><trkpt lat="40.14577079275682" lon="18.200905141241936"><ele>74.2</ele><time>2026-04-06T06:50:36Z</time></trkpt><trkpt lat="40.1456843289764" lon="18.20097041595508"><ele>73.4</ele><time>2026-04-06T06:50:38Z</time></trkpt><trkpt lat="40.14559402753057" lon="18.2009755811826"><ele>72.6</ele><time>2026-04-06T06:50:41.001Z</time></trkpt><trkpt lat="40.14549737909949" lon="18.201018921961175"><ele>71.8</ele><time>2026-04-06T06:50:44.001Z</time></trkpt><trkpt lat="40.145377192901606" lon="18.20104313608502"><ele>71.0</ele><time>2026-04-06T06:50:46.001Z</time></trkpt><trkpt lat="40.14529547168268" lon="18.201054623129913"><ele>71.0</ele><time>2026-04-06T06:50:47.001Z</time></trkpt><trkpt lat="40.1452050626794" lon="18.201042566224064"><ele>71.0</ele><time>2026-04-06T06:50:48.001Z</time></trkpt><trkpt lat="40.14510795921664" lon="18.201044515059074"><ele>71.0</ele><time>2026-04-06T06:50:49.001Z</time></trkpt><trkpt lat="40.1450138615683" lon="18.20103360633728"><ele>71.0</ele><time>2026-04-06T06:50:50.001Z</time></trkpt><trkpt lat="40.14492306371013" lon="18.20102274102495"><ele>71.0</ele><time>2026-04-06T06:50:51.001Z</time></trkpt><trkpt lat="40.144831305758046" lon="18.20099494381386"><ele>71.0</ele><time>2026-04-06T06:50:52.001Z</time></trkpt><trkpt lat="40.14472596224605" lon="18.200960093297986"><ele>71.0</ele><time>2026-04-06T06:50:53.001Z</time></trkpt><trkpt lat="40.144627022381044" lon="18.2009264548655"><ele>71.0</ele><time>2026-04-06T06:50:54.001Z</time></trkpt><trkpt lat="40.144524050509794" lon="18.20087939480942"><ele>71.0</ele><time>2026-04-06T06:50:55.001Z</time></trkpt><trkpt lat="40.14441978685388" lon="18.2008279444676"><ele>71.0</ele><time>2026-04-06T06:50:56.001Z</time></trkpt><trkpt lat="40.14431079383293" lon="18.200769379398796"><ele>71.0</ele><time>2026-04-06T06:50:57.001Z</time></trkpt><trkpt lat="40.144203415866855" lon="18.200694310997577"><ele>71.0</ele><time>2026-04-06T06:50:58.001Z</time></trkpt><trkpt lat="40.14410762774927" lon="18.200609464609684"><ele>71.0</ele><time>2026-04-06T06:50:59.001Z</time></trkpt><trkpt lat="40.14401348859257" lon="18.200517597962797"><ele>71.0</ele><time>2026-04-06T06:51:00.001Z</time></trkpt><trkpt lat="40.14393081785134" lon="18.200420473530308"><ele>71.0</ele><time>2026-04-06T06:51:01.001Z</time></trkpt><trkpt lat="40.14385844356488" lon="18.200331011402646"><ele>71.0</ele><time>2026-04-06T06:51:02.001Z</time></trkpt><trkpt lat="40.14379462370859" lon="18.200236614431155"><ele>71.0</ele><time>2026-04-06T06:51:03.001Z</time></trkpt><trkpt lat="40.143734696921896" lon="18.200146411425546"><ele>71.0</ele><time>2026-04-06T06:51:04.001Z</time></trkpt><trkpt lat="40.143684535288685" lon="18.200063933246458"><ele>71.0</ele><time>2026-04-06T06:51:05.001Z</time></trkpt><trkpt lat="40.14364058474942" lon="18.19998250617321"><ele>71.0</ele><time>2026-04-06T06:51:06.001Z</time></trkpt><trkpt lat="40.143598183787425" lon="18.199904837750413"><ele>71.0</ele><time>2026-04-06T06:51:07.001Z</time></trkpt><trkpt lat="40.14355181714328" lon="18.199833822260018"><ele>71.0</ele><time>2026-04-06T06:51:08.001Z</time></trkpt><trkpt lat="40.143490160847605" lon="18.19975975999075"><ele>71.0</ele><time>2026-04-06T06:51:09.001Z</time></trkpt><trkpt lat="40.14342356972465" lon="18.199671844413782"><ele>71.0</ele><time>2026-04-06T06:51:10.001Z</time></trkpt><trkpt lat="40.14334190212487" lon="18.19956227952693"><ele>71.0</ele><time>2026-04-06T06:51:11.001Z</time></trkpt><trkpt lat="40.14325734994806" lon="18.199436809402034"><ele>71.33333333333334</ele><time>2026-04-06T06:51:12.001Z</time></trkpt><trkpt lat="40.1431578515135" lon="18.19928115107745"><ele>71.66666666666667</ele><time>2026-04-06T06:51:13.001Z</time></trkpt><trkpt lat="40.143052468449504" lon="18.199111720997134"><ele>72.0</ele><time>2026-04-06T06:51:14.001Z</time></trkpt><trkpt lat="40.142933168951906" lon="18.198943699126044"><ele>72.0</ele><time>2026-04-06T06:51:15.001Z</time></trkpt><trkpt lat="40.14281589837664" lon="18.19875073647948"><ele>72.0</ele><time>2026-04-06T06:51:16.001Z</time></trkpt><trkpt lat="40.14268083108844" lon="18.198576015601503"><ele>72.0</ele><time>2026-04-06T06:51:17.002Z</time></trkpt><trkpt lat="40.14255753010018" lon="18.1983863464022"><ele>72.0</ele><time>2026-04-06T06:51:18.002Z</time></trkpt><trkpt lat="40.14242834820209" lon="18.198215085959482"><ele>72.0</ele><time>2026-04-06T06:51:19.002Z</time></trkpt><trkpt lat="40.14229545659895" lon="18.19806247191475"><ele>72.0</ele><time>2026-04-06T06:51:20.002Z</time></trkpt><trkpt lat="40.142160651532954" lon="18.197928542285812"><ele>71.0</ele><time>2026-04-06T06:51:21.002Z</time></trkpt><trkpt lat="40.14200967481236" lon="18.197808358983146"><ele>70.0</ele><time>2026-04-06T06:51:22.002Z</time></trkpt><trkpt lat="40.141843917084856" lon="18.1977107573382"><ele>69.0</ele><time>2026-04-06T06:51:23.002Z</time></trkpt><trkpt lat="40.141669517428305" lon="18.19763548865121"><ele>69.66666666666667</ele><time>2026-04-06T06:51:24.002Z</time></trkpt><trkpt lat="40.14148931769848" lon="18.19757927220806"><ele>70.33333333333334</ele><time>2026-04-06T06:51:25.002Z</time></trkpt><trkpt lat="40.14129540286025" lon="18.197561580640237"><ele>71.0</ele><time>2026-04-06T06:51:26.002Z</time></trkpt><trkpt lat="40.141100326478494" lon="18.197559802939868"><ele>71.0</ele><time>2026-04-06T06:51:27.002Z</time></trkpt><trkpt lat="40.14090157609142" lon="18.197575616151592"><ele>71.0</ele><time>2026-04-06T06:51:28.002Z</time></trkpt><trkpt lat="40.14070338181032" lon="18.19761126647303"><ele>71.0</ele><time>2026-04-06T06:51:29.002Z</time></trkpt><trkpt lat="40.140498633601126" lon="18.197666259963032"><ele>72.0</ele><time>2026-04-06T06:51:30.002Z</time></trkpt><trkpt lat="40.1402827461198" lon="18.19773591789556"><ele>73.0</ele><time>2026-04-06T06:51:31.002Z</time></trkpt><trkpt lat="40.14004887382672" lon="18.197817647077297"><ele>72.0</ele><time>2026-04-06T06:51:32.002Z</time></trkpt><trkpt lat="40.13979253056719" lon="18.19788211594037"><ele>71.0</ele><time>2026-04-06T06:51:33.002Z</time></trkpt><trkpt lat="40.13951894631588" lon="18.197951747429418"><ele>71.0</ele><time>2026-04-06T06:51:34.002Z</time></trkpt><trkpt lat="40.139251353337826" lon="18.19801328298594"><ele>71.0</ele><time>2026-04-06T06:51:35.002Z</time></trkpt><trkpt lat="40.13898073454607" lon="18.198080534726518"><ele>71.5</ele><time>2026-04-06T06:51:36.002Z</time></trkpt><trkpt lat="40.13871496454697" lon="18.198140207267194"><ele>72.0</ele><time>2026-04-06T06:51:37.002Z</time></trkpt><trkpt lat="40.138456740293314" lon="18.198208414978062"><ele>72.0</ele><time>2026-04-06T06:51:38.002Z</time></trkpt><trkpt lat="40.13820205571389" lon="18.198270784163412"><ele>72.0</ele><time>2026-04-06T06:51:39.002Z</time></trkpt><trkpt lat="40.13796058709882" lon="18.19832809382332"><ele>72.0</ele><time>2026-04-06T06:51:40.002Z</time></trkpt><trkpt lat="40.13772649187614" lon="18.198387735608417"><ele>72.0</ele><time>2026-04-06T06:51:41.002Z</time></trkpt><trkpt lat="40.13748083920023" lon="18.198441752700845"><ele>72.5</ele><time>2026-04-06T06:51:42.002Z</time></trkpt><trkpt lat="40.13725080036396" lon="18.198501060450262"><ele>73.0</ele><time>2026-04-06T06:51:43.002Z</time></trkpt><trkpt lat="40.13701739849093" lon="18.198557418276955"><ele>73.0</ele><time>2026-04-06T06:51:44.002Z</time></trkpt><trkpt lat="40.136808162441916" lon="18.198610393468826"><ele>73.0</ele><time>2026-04-06T06:51:45.002Z</time></trkpt><trkpt lat="40.13660217730258" lon="18.198663971042993"><ele>73.0</ele><time>2026-04-06T06:51:46.002Z</time></trkpt><trkpt lat="40.136430310067404" lon="18.198707333621662"><ele>73.0</ele><time>2026-04-06T06:51:47.002Z</time></trkpt><trkpt lat="40.13624245830051" lon="18.198741665007443"><ele>73.0</ele><time>2026-04-06T06:51:48.002Z</time></trkpt><trkpt lat="40.136073596585724" lon="18.198785720023572"><ele>73.0</ele><time>2026-04-06T06:51:49.002Z</time></trkpt><trkpt lat="40.13591611135393" lon="18.19882866358954"><ele>73.0</ele><time>2026-04-06T06:51:50.002Z</time></trkpt><trkpt lat="40.13581942355786" lon="18.19888395612726"><ele>73.0</ele><time>2026-04-06T06:51:51.002Z</time></trkpt><trkpt lat="40.13570343388199" lon="18.198900618815333"><ele>73.0</ele><time>2026-04-06T06:51:52.002Z</time></trkpt><trkpt lat="40.135591832477225" lon="18.1989242865021"><ele>73.0</ele><time>2026-04-06T06:51:53.002Z</time></trkpt><trkpt lat="40.135493735679994" lon="18.19896006187056"><ele>73.0</ele><time>2026-04-06T06:51:54.003Z</time></trkpt><trkpt lat="40.13538437196763" lon="18.199007587280985"><ele>73.0</ele><time>2026-04-06T06:51:55.003Z</time></trkpt><trkpt lat="40.13527497784292" lon="18.19907113600749"><ele>73.0</ele><time>2026-04-06T06:51:56.003Z</time></trkpt><trkpt lat="40.13516241098533" lon="18.199134245235115"><ele>73.0</ele><time>2026-04-06T06:51:57.003Z</time></trkpt><trkpt lat="40.13506335128373" lon="18.199194688181702"><ele>73.0</ele><time>2026-04-06T06:51:58.003Z</time></trkpt><trkpt lat="40.13496796968043" lon="18.199236899272996"><ele>73.0</ele><time>2026-04-06T06:51:59.003Z</time></trkpt><trkpt lat="40.134871821565554" lon="18.199236334481125"><ele>73.0</ele><time>2026-04-06T06:52:00.003Z</time></trkpt><trkpt lat="40.13476765125124" lon="18.19921863540784"><ele>73.0</ele><time>2026-04-06T06:52:01.003Z</time></trkpt><trkpt lat="40.134647454587935" lon="18.199189291321584"><ele>73.0</ele><time>2026-04-06T06:52:02.003Z</time></trkpt><trkpt lat="40.13451452883035" lon="18.199190013799036"><ele>73.0</ele><time>2026-04-06T06:52:03.003Z</time></trkpt><trkpt lat="40.134349077020204" lon="18.199219278416845"><ele>73.0</ele><time>2026-04-06T06:52:04.003Z</time></trkpt><trkpt lat="40.134175461844784" lon="18.199267704943612"><ele>73.0</ele><time>2026-04-06T06:52:05.003Z</time></trkpt><trkpt lat="40.133996716641335" lon="18.19931231856173"><ele>73.0</ele><time>2026-04-06T06:52:06.003Z</time></trkpt><trkpt lat="40.133819181161144" lon="18.199360180208764"><ele>73.0</ele><time>2026-04-06T06:52:06.999Z</time></trkpt><trkpt lat="40.13363844583002" lon="18.199407357957135"><ele>73.0</ele><time>2026-04-06T06:52:07.999Z</time></trkpt><trkpt lat="40.1334521027024" lon="18.19945538999915"><ele>73.0</ele><time>2026-04-06T06:52:08.999Z</time></trkpt><trkpt lat="40.133260411157906" lon="18.199499128967243"><ele>73.0</ele><time>2026-04-06T06:52:09.999Z</time></trkpt><trkpt lat="40.133079218689986" lon="18.199558846745735"><ele>73.0</ele><time>2026-04-06T06:52:10.999Z</time></trkpt><trkpt lat="40.13289252623056" lon="18.199596821652563"><ele>73.33333333333333</ele><time>2026-04-06T06:52:11.999Z</time></trkpt><trkpt lat="40.13270216619548" lon="18.199636646230395"><ele>73.66666666666667</ele><time>2026-04-06T06:52:12.999Z</time></trkpt><trkpt lat="40.132511584835235" lon="18.199682994374363"><ele>74.0</ele><time>2026-04-06T06:52:13.999Z</time></trkpt><trkpt lat="40.13231091197537" lon="18.19973548917641"><ele>74.0</ele><time>2026-04-06T06:52:14.999Z</time></trkpt><trkpt lat="40.13212952770061" lon="18.199782448464134"><ele>74.0</ele><time>2026-04-06T06:52:15.999Z</time></trkpt><trkpt lat="40.13194660386912" lon="18.19982090341828"><ele>74.0</ele><time>2026-04-06T06:52:16.999Z</time></trkpt><trkpt lat="40.13177881012844" lon="18.19987188061283"><ele>74.33333333333334</ele><time>2026-04-06T06:52:18Z</time></trkpt><trkpt lat="40.13161509459368" lon="18.199921437413654"><ele>74.66666666666667</ele><time>2026-04-06T06:52:19Z</time></trkpt><trkpt lat="40.13144594272344" lon="18.19995779765026"><ele>75.0</ele><time>2026-04-06T06:52:20Z</time></trkpt><trkpt lat="40.13129399449347" lon="18.199991658757764"><ele>75.25</ele><time>2026-04-06T06:52:21Z</time></trkpt><trkpt lat="40.1311379579949" lon="18.200018727011926"><ele>75.5</ele><time>2026-04-06T06:52:22Z</time></trkpt><trkpt lat="40.1309921842144" lon="18.200047312657542"><ele>75.75</ele><time>2026-04-06T06:52:23Z</time></trkpt><trkpt lat="40.13087440314741" lon="18.20008739444101"><ele>76.0</ele><time>2026-04-06T06:52:24Z</time></trkpt><trkpt lat="40.13074925947668" lon="18.200115188690354"><ele>76.33333333333333</ele><time>2026-04-06T06:52:25Z</time></trkpt><trkpt lat="40.130641731652226" lon="18.20012644502955"><ele>76.66666666666666</ele><time>2026-04-06T06:52:26Z</time></trkpt><trkpt lat="40.13055923623862" lon="18.200146943777685"><ele>77.0</ele><time>2026-04-06T06:52:27Z</time></trkpt><trkpt lat="40.13048524666524" lon="18.200169938372678"><ele>77.33333333333333</ele><time>2026-04-06T06:52:28Z</time></trkpt><trkpt lat="40.130409569023456" lon="18.200186694090693"><ele>77.66666666666667</ele><time>2026-04-06T06:52:29Z</time></trkpt><trkpt lat="40.130319958516644" lon="18.20020180264381"><ele>78.0</ele><time>2026-04-06T06:52:31Z</time></trkpt><trkpt lat="40.1301784803867" lon="18.200246119561953"><ele>78.0</ele><time>2026-04-06T06:52:33Z</time></trkpt><trkpt lat="40.130081241943266" lon="18.20028876803021"><ele>78.0</ele><time>2026-04-06T06:52:34Z</time></trkpt><trkpt lat="40.12995418973638" lon="18.20033780508733"><ele>78.0</ele><time>2026-04-06T06:52:35Z</time></trkpt><trkpt lat="40.1297926928586" lon="18.200372485236414"><ele>78.0</ele><time>2026-04-06T06:52:36Z</time></trkpt><trkpt lat="40.12965171078114" lon="18.200412417180615"><ele>78.75</ele><time>2026-04-06T06:52:37Z</time></trkpt><trkpt lat="40.12950954298363" lon="18.200451919594766"><ele>79.5</ele><time>2026-04-06T06:52:38Z</time></trkpt><trkpt lat="40.12937514305075" lon="18.200495602965574"><ele>80.25</ele><time>2026-04-06T06:52:39Z</time></trkpt><trkpt lat="40.12924470889175" lon="18.200533032775123"><ele>81.0</ele><time>2026-04-06T06:52:40Z</time></trkpt><trkpt lat="40.12911525099168" lon="18.20057030338225"><ele>82.25</ele><time>2026-04-06T06:52:41Z</time></trkpt><trkpt lat="40.1289815948981" lon="18.200602888925463"><ele>83.5</ele><time>2026-04-06T06:52:42Z</time></trkpt><trkpt lat="40.12885337091884" lon="18.20063259119964"><ele>84.75</ele><time>2026-04-06T06:52:43Z</time></trkpt><trkpt lat="40.12873732507029" lon="18.20065880214448"><ele>86.0</ele><time>2026-04-06T06:52:44Z</time></trkpt><trkpt lat="40.1286451294068" lon="18.20066791421204"><ele>86.0</ele><time>2026-04-06T06:52:45Z</time></trkpt><trkpt lat="40.12855386711104" lon="18.200698317102525"><ele>86.0</ele><time>2026-04-06T06:52:46Z</time></trkpt><trkpt lat="40.128474371029874" lon="18.20071967968002"><ele>86.0</ele><time>2026-04-06T06:52:48Z</time></trkpt><trkpt lat="40.128391993326325" lon="18.200688038652654"><ele>86.0</ele><time>2026-04-06T06:52:50.001Z</time></trkpt><trkpt lat="40.12833155021536" lon="18.200619785599713"><ele>86.0</ele><time>2026-04-06T06:52:51.001Z</time></trkpt><trkpt lat="40.12833642797374" lon="18.20039070587281"><ele>86.4</ele><time>2026-04-06T06:52:52.001Z</time></trkpt><trkpt lat="40.12826656308632" lon="18.200299986656866"><ele>86.8</ele><time>2026-04-06T06:52:53.001Z</time></trkpt><trkpt lat="40.128227142112834" lon="18.20022862625159"><ele>87.2</ele><time>2026-04-06T06:52:54.001Z</time></trkpt><trkpt lat="40.12814563184939" lon="18.20015828800369"><ele>87.60000000000001</ele><time>2026-04-06T06:52:56.001Z</time></trkpt><trkpt lat="40.12806670990077" lon="18.200154741566653"><ele>88.0</ele><time>2026-04-06T06:52:57.001Z</time></trkpt><trkpt lat="40.1279406575862" lon="18.20018093305029"><ele>88.0</ele><time>2026-04-06T06:52:59.001Z</time></trkpt><trkpt lat="40.1278723982097" lon="18.20022300286111"><ele>88.0</ele><time>2026-04-06T06:53:00.001Z</time></trkpt><trkpt lat="40.12779270046199" lon="18.20031190211225"><ele>88.0</ele><time>2026-04-06T06:53:01.001Z</time></trkpt><trkpt lat="40.12773254048593" lon="18.200360695602974"><ele>88.0</ele><time>2026-04-06T06:53:02.001Z</time></trkpt><trkpt lat="40.127719770657265" lon="18.200467237086755"><ele>88.0</ele><time>2026-04-06T06:53:03.001Z</time></trkpt><trkpt lat="40.127702617554796" lon="18.200563578440388"><ele>88.0</ele><time>2026-04-06T06:53:04.001Z</time></trkpt><trkpt lat="40.12767578176926" lon="18.20068885425336"><ele>88.0</ele><time>2026-04-06T06:53:05.001Z</time></trkpt><trkpt lat="40.127597435744704" lon="18.200767902128803"><ele>88.0</ele><time>2026-04-06T06:53:06.001Z</time></trkpt><trkpt lat="40.12754369273403" lon="18.20081839044845"><ele>88.0</ele><time>2026-04-06T06:53:07.001Z</time></trkpt><trkpt lat="40.12751445354026" lon="18.20089979244274"><ele>88.0</ele><time>2026-04-06T06:53:08.001Z</time></trkpt><trkpt lat="40.127448373695024" lon="18.200945844312795"><ele>88.0</ele><time>2026-04-06T06:53:09.001Z</time></trkpt><trkpt lat="40.12737178690978" lon="18.200979983727066"><ele>88.0</ele><time>2026-04-06T06:53:10.001Z</time></trkpt><trkpt lat="40.12731580647675" lon="18.20105221698525"><ele>88.4</ele><time>2026-04-06T06:53:11.001Z</time></trkpt><trkpt lat="40.127227938211995" lon="18.201008386849757"><ele>88.80000000000001</ele><time>2026-04-06T06:53:12.001Z</time></trkpt><trkpt lat="40.12714260936348" lon="18.201049116256435"><ele>89.2</ele><time>2026-04-06T06:53:13.001Z</time></trkpt><trkpt lat="40.12707757971423" lon="18.20109913909857"><ele>89.6</ele><time>2026-04-06T06:53:14.001Z</time></trkpt><trkpt lat="40.12698326079891" lon="18.20118457375344"><ele>90.0</ele><time>2026-04-06T06:53:15.001Z</time></trkpt><trkpt lat="40.126899033460084" lon="18.20123843179443"><ele>90.0</ele><time>2026-04-06T06:53:16.001Z</time></trkpt><trkpt lat="40.12683743188432" lon="18.20132896671501"><ele>90.0</ele><time>2026-04-06T06:53:17.001Z</time></trkpt><trkpt lat="40.12678687814645" lon="18.20139154629843"><ele>90.0</ele><time>2026-04-06T06:53:18.001Z</time></trkpt><trkpt lat="40.12668204254003" lon="18.201422278763843"><ele>90.0</ele><time>2026-04-06T06:53:20.001Z</time></trkpt><trkpt lat="40.126613499425936" lon="18.201455852424175"><ele>90.0</ele><time>2026-04-06T06:53:23.001Z</time></trkpt><trkpt lat="40.126582643065575" lon="18.201216111731842"><ele>90.4</ele><time>2026-04-06T06:53:24.001Z</time></trkpt><trkpt lat="40.12653841536213" lon="18.201126638793784"><ele>90.8</ele><time>2026-04-06T06:53:25.002Z</time></trkpt><trkpt lat="40.126485793299075" lon="18.201022440219962"><ele>91.19999999999999</ele><time>2026-04-06T06:53:26.002Z</time></trkpt><trkpt lat="40.126427251222076" lon="18.200908807155006"><ele>91.6</ele><time>2026-04-06T06:53:27.002Z</time></trkpt><trkpt lat="40.126376911485444" lon="18.200794870211926"><ele>92.0</ele><time>2026-04-06T06:53:28.002Z</time></trkpt><trkpt lat="40.12633944580343" lon="18.200695937774423"><ele>92.0</ele><time>2026-04-06T06:53:29.002Z</time></trkpt><trkpt lat="40.126311133286286" lon="18.200580288740834"><ele>92.0</ele><time>2026-04-06T06:53:31.002Z</time></trkpt><trkpt lat="40.126142283800775" lon="18.200742366472483"><ele>92.0</ele><time>2026-04-06T06:53:33.002Z</time></trkpt><trkpt lat="40.126045286633186" lon="18.20075036960675"><ele>92.0</ele><time>2026-04-06T06:53:35.002Z</time></trkpt><trkpt lat="40.125967896033536" lon="18.200757244139723"><ele>92.0</ele><time>2026-04-06T06:53:37.002Z</time></trkpt><trkpt lat="40.125853457809875" lon="18.20076740859429"><ele>92.0</ele><time>2026-04-06T06:53:38.002Z</time></trkpt><trkpt lat="40.12577215050022" lon="18.20077463023521"><ele>92.0</ele><time>2026-04-06T06:53:39.002Z</time></trkpt><trkpt lat="40.1258825734689" lon="18.200786576874727"><ele>92.0</ele><time>2026-04-06T06:53:41.002Z</time></trkpt><trkpt lat="40.125927874114645" lon="18.201023132797594"><ele>92.0</ele><time>2026-04-06T06:53:42.002Z</time></trkpt><trkpt lat="40.12592922892317" lon="18.20110972885843"><ele>92.0</ele><time>2026-04-06T06:53:43.002Z</time></trkpt><trkpt lat="40.12596393192653" lon="18.20126368491909"><ele>92.0</ele><time>2026-04-06T06:53:44.002Z</time></trkpt><trkpt lat="40.12597435461327" lon="18.201355897427877"><ele>92.0</ele><time>2026-04-06T06:53:45.002Z</time></trkpt><trkpt lat="40.12598123994019" lon="18.201452691294495"><ele>92.0</ele><time>2026-04-06T06:53:46.002Z</time></trkpt><trkpt lat="40.125990952423344" lon="18.201559270447433"><ele>92.0</ele><time>2026-04-06T06:53:47.002Z</time></trkpt><trkpt lat="40.125997006302256" lon="18.20164981295311"><ele>91.66666666666667</ele><time>2026-04-06T06:53:48.002Z</time></trkpt><trkpt lat="40.126009879721444" lon="18.201745773423994"><ele>91.33333333333334</ele><time>2026-04-06T06:53:49.002Z</time></trkpt><trkpt lat="40.126014424818436" lon="18.201835386124493"><ele>91.0</ele><time>2026-04-06T06:53:50.002Z</time></trkpt><trkpt lat="40.12603121961308" lon="18.201951039092208"><ele>90.66666666666667</ele><time>2026-04-06T06:53:52.002Z</time></trkpt><trkpt lat="40.12604029413882" lon="18.202120229929953"><ele>90.33333333333333</ele><time>2026-04-06T06:53:54.002Z</time></trkpt><trkpt lat="40.126042704788034" lon="18.20222544775082"><ele>90.0</ele><time>2026-04-06T06:53:56.002Z</time></trkpt><trkpt lat="40.126032616545594" lon="18.202321642406787"><ele>90.0</ele><time>2026-04-06T06:54:00.003Z</time></trkpt><trkpt lat="40.12608039892598" lon="18.202417342705367"><ele>90.0</ele><time>2026-04-06T06:54:03.003Z</time></trkpt><trkpt lat="40.12620204658544" lon="18.20223192413115"><ele>90.0</ele><time>2026-04-06T06:54:07.003Z</time></trkpt><trkpt lat="40.126258773835744" lon="18.202188912560505"><ele>90.0</ele><time>2026-04-06T06:54:09.003Z</time></trkpt><trkpt lat="40.126407779790746" lon="18.202342428283952"><ele>90.0</ele><time>2026-04-06T06:59:02.001Z</time></trkpt><trkpt lat="40.12625036870048" lon="18.20213750497289"><ele>90.0</ele><time>2026-04-06T06:59:08.001Z</time></trkpt><trkpt lat="40.12643620815535" lon="18.20210487388659"><ele>90.0</ele><time>2026-04-06T07:00:53.019Z</time></trkpt><trkpt lat="40.12653620599677" lon="18.20200179145718"><ele>89.66666666666667</ele><time>2026-04-06T07:00:54.02Z</time></trkpt><trkpt lat="40.12659068313915" lon="18.201919428012843"><ele>89.33333333333333</ele><time>2026-04-06T07:00:55.022Z</time></trkpt><trkpt lat="40.12662797368643" lon="18.20183725963393"><ele>89.0</ele><time>2026-04-06T07:00:56.014Z</time></trkpt><trkpt lat="40.12668629469733" lon="18.201759739848168"><ele>88.66666666666666</ele><time>2026-04-06T07:00:57.016Z</time></trkpt><trkpt lat="40.12672518384745" lon="18.201652970607874"><ele>88.33333333333333</ele><time>2026-04-06T07:00:58.013Z</time></trkpt><trkpt lat="40.126771876518184" lon="18.20154170477015"><ele>88.0</ele><time>2026-04-06T07:00:59Z</time></trkpt><trkpt lat="40.1268343109891" lon="18.201513916058822"><ele>88.0</ele><time>2026-04-06T07:01:00Z</time></trkpt><trkpt lat="40.126763073734004" lon="18.201575199534293"><ele>88.0</ele><time>2026-04-06T07:01:01Z</time></trkpt><trkpt lat="40.12683467407323" lon="18.201462960941473"><ele>88.0</ele><time>2026-04-06T07:01:03Z</time></trkpt><trkpt lat="40.12686412911035" lon="18.20137942401072"><ele>88.0</ele><time>2026-04-06T07:01:04Z</time></trkpt><trkpt lat="40.126966275165366" lon="18.201309359298047"><ele>88.0</ele><time>2026-04-06T07:01:06.001Z</time></trkpt><trkpt lat="40.12693597899666" lon="18.20112347601776"><ele>88.0</ele><time>2026-04-06T07:01:07.001Z</time></trkpt><trkpt lat="40.12700241246011" lon="18.20106376187497"><ele>88.0</ele><time>2026-04-06T07:01:08.001Z</time></trkpt><trkpt lat="40.12704290938002" lon="18.200978329966212"><ele>88.0</ele><time>2026-04-06T07:01:09.001Z</time></trkpt><trkpt lat="40.12707846389126" lon="18.200900067193306"><ele>88.0</ele><time>2026-04-06T07:01:10.001Z</time></trkpt><trkpt lat="40.12710651595006" lon="18.200823793379833"><ele>88.0</ele><time>2026-04-06T07:01:11.001Z</time></trkpt><trkpt lat="40.12718217353224" lon="18.200694237705058"><ele>88.0</ele><time>2026-04-06T07:01:12.001Z</time></trkpt><trkpt lat="40.12754278369815" lon="18.2007983180872"><ele>88.0</ele><time>2026-04-06T07:01:13.001Z</time></trkpt><trkpt lat="40.127652209810364" lon="18.200750802189308"><ele>88.0</ele><time>2026-04-06T07:01:14.001Z</time></trkpt><trkpt lat="40.12779807224721" lon="18.200710014768358"><ele>88.0</ele><time>2026-04-06T07:01:15.001Z</time></trkpt><trkpt lat="40.12804821114992" lon="18.200825631186255"><ele>88.0</ele><time>2026-04-06T07:01:17.001Z</time></trkpt><trkpt lat="40.1281225068163" lon="18.20080732973226"><ele>88.0</ele><time>2026-04-06T07:01:18.001Z</time></trkpt><trkpt lat="40.12821764696073" lon="18.20078256907371"><ele>88.0</ele><time>2026-04-06T07:01:19.001Z</time></trkpt><trkpt lat="40.12831212687518" lon="18.200761179810097"><ele>88.0</ele><time>2026-04-06T07:01:20.001Z</time></trkpt><trkpt lat="40.12838047819581" lon="18.20074532098926"><ele>88.0</ele><time>2026-04-06T07:01:21.001Z</time></trkpt><trkpt lat="40.12848136602967" lon="18.200721913019894"><ele>88.0</ele><time>2026-04-06T07:01:23.001Z</time></trkpt><trkpt lat="40.128554904873404" lon="18.20070420787749"><ele>88.0</ele><time>2026-04-06T07:01:26.001Z</time></trkpt><trkpt lat="40.12866148398108" lon="18.200719879286076"><ele>88.0</ele><time>2026-04-06T07:01:28.001Z</time></trkpt><trkpt lat="40.12873335836652" lon="18.200700986258887"><ele>88.0</ele><time>2026-04-06T07:01:29.001Z</time></trkpt><trkpt lat="40.128797663585736" lon="18.200684082935112"><ele>88.0</ele><time>2026-04-06T07:01:30.001Z</time></trkpt><trkpt lat="40.128877166550154" lon="18.20066318468272"><ele>88.0</ele><time>2026-04-06T07:01:32.001Z</time></trkpt><trkpt lat="40.12895937378717" lon="18.200641991055214"><ele>88.0</ele><time>2026-04-06T07:01:33.001Z</time></trkpt><trkpt lat="40.12906835735246" lon="18.200615856835427"><ele>86.25</ele><time>2026-04-06T07:01:34.001Z</time></trkpt><trkpt lat="40.1292298154469" lon="18.20056467385522"><ele>84.5</ele><time>2026-04-06T07:01:35.001Z</time></trkpt><trkpt lat="40.12936126829746" lon="18.200554538031117"><ele>82.75</ele><time>2026-04-06T07:01:36.001Z</time></trkpt><trkpt lat="40.12949871486595" lon="18.200509746166723"><ele>81.0</ele><time>2026-04-06T07:01:37.001Z</time></trkpt><trkpt lat="40.129647499021935" lon="18.200468772770492"><ele>81.0</ele><time>2026-04-06T07:01:38.001Z</time></trkpt><trkpt lat="40.12977236460795" lon="18.200423945547474"><ele>81.0</ele><time>2026-04-06T07:01:39.001Z</time></trkpt><trkpt lat="40.12990817022861" lon="18.20039109423276"><ele>81.0</ele><time>2026-04-06T07:01:40.001Z</time></trkpt><trkpt lat="40.130061224110534" lon="18.20034972658925"><ele>81.0</ele><time>2026-04-06T07:01:41.001Z</time></trkpt><trkpt lat="40.13023967470824" lon="18.20032092446085"><ele>80.0</ele><time>2026-04-06T07:01:42.001Z</time></trkpt><trkpt lat="40.13040944979298" lon="18.20027803610895"><ele>79.0</ele><time>2026-04-06T07:01:43.001Z</time></trkpt><trkpt lat="40.13055386344905" lon="18.200223022058253"><ele>78.0</ele><time>2026-04-06T07:01:44.001Z</time></trkpt><trkpt lat="40.13071214967648" lon="18.200189389576273"><ele>77.5</ele><time>2026-04-06T07:01:45.001Z</time></trkpt><trkpt lat="40.130842651374316" lon="18.200160740227762"><ele>77.0</ele><time>2026-04-06T07:01:46.001Z</time></trkpt><trkpt lat="40.13095712314713" lon="18.200124189417654"><ele>76.5</ele><time>2026-04-06T07:01:47.001Z</time></trkpt><trkpt lat="40.13104742332986" lon="18.20010883186383"><ele>76.0</ele><time>2026-04-06T07:01:48.001Z</time></trkpt><trkpt lat="40.13116508205578" lon="18.200090773189512"><ele>76.0</ele><time>2026-04-06T07:01:49.002Z</time></trkpt><trkpt lat="40.131290402910714" lon="18.200057656175012"><ele>76.0</ele><time>2026-04-06T07:01:50.002Z</time></trkpt><trkpt lat="40.131451127704615" lon="18.200011242143518"><ele>76.0</ele><time>2026-04-06T07:01:51.002Z</time></trkpt><trkpt lat="40.131594043655625" lon="18.199964991261457"><ele>76.0</ele><time>2026-04-06T07:01:52.002Z</time></trkpt><trkpt lat="40.13178482585609" lon="18.19991617094145"><ele>75.66666666666666</ele><time>2026-04-06T07:01:53.002Z</time></trkpt><trkpt lat="40.13197590895147" lon="18.199887000443784"><ele>75.33333333333333</ele><time>2026-04-06T07:01:54.002Z</time></trkpt><trkpt lat="40.13217279345435" lon="18.199797958426743"><ele>75.0</ele><time>2026-04-06T07:01:55.002Z</time></trkpt><trkpt lat="40.13240739554234" lon="18.199737665285465"><ele>74.66666666666667</ele><time>2026-04-06T07:01:56.002Z</time></trkpt><trkpt lat="40.1326081269588" lon="18.199685751917634"><ele>74.33333333333334</ele><time>2026-04-06T07:01:57.002Z</time></trkpt><trkpt lat="40.13282682106943" lon="18.199636767005874"><ele>74.0</ele><time>2026-04-06T07:01:58.002Z</time></trkpt><trkpt lat="40.13303210458458" lon="18.19958060457084"><ele>73.5</ele><time>2026-04-06T07:01:59.002Z</time></trkpt><trkpt lat="40.133279695718215" lon="18.19954718843446"><ele>73.0</ele><time>2026-04-06T07:02:00.002Z</time></trkpt><trkpt lat="40.13351532935928" lon="18.199494766560523"><ele>73.0</ele><time>2026-04-06T07:02:01.002Z</time></trkpt><trkpt lat="40.13375459278767" lon="18.199438189228623"><ele>73.0</ele><time>2026-04-06T07:02:02.002Z</time></trkpt><trkpt lat="40.133977169373914" lon="18.199384825722163"><ele>73.0</ele><time>2026-04-06T07:02:03.002Z</time></trkpt><trkpt lat="40.13416983725396" lon="18.199336359852953"><ele>73.0</ele><time>2026-04-06T07:02:04.002Z</time></trkpt><trkpt lat="40.13434268374964" lon="18.199297930271875"><ele>73.0</ele><time>2026-04-06T07:02:05.002Z</time></trkpt><trkpt lat="40.13449298059994" lon="18.19926745590307"><ele>73.0</ele><time>2026-04-06T07:02:06.002Z</time></trkpt><trkpt lat="40.134596171749536" lon="18.199258270388206"><ele>73.0</ele><time>2026-04-06T07:02:07.002Z</time></trkpt><trkpt lat="40.13471717308644" lon="18.19923521198663"><ele>73.0</ele><time>2026-04-06T07:02:08.002Z</time></trkpt><trkpt lat="40.13484505907675" lon="18.19923454884085"><ele>73.0</ele><time>2026-04-06T07:02:09.002Z</time></trkpt><trkpt lat="40.13491479684133" lon="18.199261330056984"><ele>73.0</ele><time>2026-04-06T07:02:10.002Z</time></trkpt><trkpt lat="40.13499487303087" lon="18.199292115909888"><ele>73.0</ele><time>2026-04-06T07:02:11.002Z</time></trkpt><trkpt lat="40.13506418476282" lon="18.19933692269039"><ele>73.0</ele><time>2026-04-06T07:02:12.002Z</time></trkpt><trkpt lat="40.13511639616122" lon="18.19938460718633"><ele>73.0</ele><time>2026-04-06T07:02:13.002Z</time></trkpt><trkpt lat="40.13516364721559" lon="18.19944698722349"><ele>73.0</ele><time>2026-04-06T07:02:14.002Z</time></trkpt><trkpt lat="40.135215671395905" lon="18.19949825809202"><ele>73.0</ele><time>2026-04-06T07:02:15.002Z</time></trkpt><trkpt lat="40.1353444167324" lon="18.199541600875357"><ele>73.0</ele><time>2026-04-06T07:02:17.002Z</time></trkpt><trkpt lat="40.135424884045186" lon="18.199555792963892"><ele>73.0</ele><time>2026-04-06T07:02:19.002Z</time></trkpt><trkpt lat="40.13544213878697" lon="18.19934449867194"><ele>73.0</ele><time>2026-04-06T07:02:20.002Z</time></trkpt><trkpt lat="40.13545841432062" lon="18.199248502552816"><ele>73.0</ele><time>2026-04-06T07:02:21.002Z</time></trkpt><trkpt lat="40.13545463860099" lon="18.19915396004163"><ele>73.0</ele><time>2026-04-06T07:02:22.002Z</time></trkpt><trkpt lat="40.13552826803613" lon="18.199074209297596"><ele>73.0</ele><time>2026-04-06T07:02:23.002Z</time></trkpt><trkpt lat="40.13570697956116" lon="18.19899148241776"><ele>73.0</ele><time>2026-04-06T07:02:25.002Z</time></trkpt><trkpt lat="40.13581041805787" lon="18.19898972296684"><ele>73.0</ele><time>2026-04-06T07:02:26.002Z</time></trkpt><trkpt lat="40.135931154518836" lon="18.198952101814783"><ele>73.0</ele><time>2026-04-06T07:02:27.002Z</time></trkpt><trkpt lat="40.13606744097034" lon="18.19891437064516"><ele>73.0</ele><time>2026-04-06T07:02:28.002Z</time></trkpt><trkpt lat="40.13620739834188" lon="18.19883854426177"><ele>73.0</ele><time>2026-04-06T07:02:29.002Z</time></trkpt><trkpt lat="40.13638095572808" lon="18.198783125212827"><ele>73.0</ele><time>2026-04-06T07:02:30.002Z</time></trkpt><trkpt lat="40.1365824019343" lon="18.198704622207504"><ele>73.0</ele><time>2026-04-06T07:02:31.003Z</time></trkpt><trkpt lat="40.136774493591176" lon="18.1986505527247"><ele>73.0</ele><time>2026-04-06T07:02:32.003Z</time></trkpt><trkpt lat="40.136958159341376" lon="18.19862361356266"><ele>73.0</ele><time>2026-04-06T07:02:33.003Z</time></trkpt><trkpt lat="40.13717043568073" lon="18.19856859349319"><ele>73.0</ele><time>2026-04-06T07:02:34.003Z</time></trkpt><trkpt lat="40.137377060564226" lon="18.19853679560979"><ele>72.66666666666666</ele><time>2026-04-06T07:02:35.003Z</time></trkpt><trkpt lat="40.13757284192486" lon="18.19848767907221"><ele>72.33333333333333</ele><time>2026-04-06T07:02:36.003Z</time></trkpt><trkpt lat="40.13778110934923" lon="18.198435430141917"><ele>72.0</ele><time>2026-04-06T07:02:36.999Z</time></trkpt><trkpt lat="40.137990786600255" lon="18.19838240204805"><ele>72.0</ele><time>2026-04-06T07:02:37.999Z</time></trkpt><trkpt lat="40.13816364710854" lon="18.198339444385866"><ele>72.0</ele><time>2026-04-06T07:02:38.999Z</time></trkpt><trkpt lat="40.138356031295196" lon="18.198292153550387"><ele>72.0</ele><time>2026-04-06T07:02:39.999Z</time></trkpt><trkpt lat="40.13854698246637" lon="18.198216203176308"><ele>72.0</ele><time>2026-04-06T07:02:40.999Z</time></trkpt><trkpt lat="40.138712893309076" lon="18.19818514713602"><ele>72.0</ele><time>2026-04-06T07:02:41.999Z</time></trkpt><trkpt lat="40.138881181585816" lon="18.198137888874207"><ele>72.0</ele><time>2026-04-06T07:02:42.999Z</time></trkpt><trkpt lat="40.13905749102699" lon="18.198099159748658"><ele>71.66666666666667</ele><time>2026-04-06T07:02:43.999Z</time></trkpt><trkpt lat="40.13924120517068" lon="18.198069698899918"><ele>71.33333333333334</ele><time>2026-04-06T07:02:44.999Z</time></trkpt><trkpt lat="40.139405576794935" lon="18.198029702665163"><ele>71.0</ele><time>2026-04-06T07:02:45.999Z</time></trkpt><trkpt lat="40.13958034662576" lon="18.19797946866131"><ele>71.0</ele><time>2026-04-06T07:02:46.999Z</time></trkpt><trkpt lat="40.13976576397547" lon="18.197930422247186"><ele>71.0</ele><time>2026-04-06T07:02:47.999Z</time></trkpt><trkpt lat="40.13994603909636" lon="18.19788080980197"><ele>71.0</ele><time>2026-04-06T07:02:48.999Z</time></trkpt><trkpt lat="40.14013118652417" lon="18.197829768568802"><ele>71.66666666666667</ele><time>2026-04-06T07:02:49.999Z</time></trkpt><trkpt lat="40.14032660561309" lon="18.197781952808988"><ele>72.33333333333333</ele><time>2026-04-06T07:02:50.999Z</time></trkpt><trkpt lat="40.14050225673553" lon="18.197746941631053"><ele>73.0</ele><time>2026-04-06T07:02:51.999Z</time></trkpt><trkpt lat="40.14066453595054" lon="18.197722364887948"><ele>72.33333333333333</ele><time>2026-04-06T07:02:52.999Z</time></trkpt><trkpt lat="40.14082075156005" lon="18.197680300935044"><ele>71.66666666666667</ele><time>2026-04-06T07:02:53.999Z</time></trkpt><trkpt lat="40.14097864044657" lon="18.197646033832655"><ele>71.0</ele><time>2026-04-06T07:02:54.999Z</time></trkpt><trkpt lat="40.141138528764635" lon="18.197620060503677"><ele>71.0</ele><time>2026-04-06T07:02:56Z</time></trkpt><trkpt lat="40.14130613956511" lon="18.197604808828498"><ele>71.0</ele><time>2026-04-06T07:02:57Z</time></trkpt><trkpt lat="40.14147667478948" lon="18.19762693893118"><ele>71.0</ele><time>2026-04-06T07:02:58Z</time></trkpt><trkpt lat="40.14162892391612" lon="18.197690725981428"><ele>70.33333333333334</ele><time>2026-04-06T07:02:59Z</time></trkpt><trkpt lat="40.14178623863668" lon="18.19775458786295"><ele>69.66666666666667</ele><time>2026-04-06T07:03:00Z</time></trkpt><trkpt lat="40.14194355074012" lon="18.19783784420727"><ele>69.0</ele><time>2026-04-06T07:03:01Z</time></trkpt><trkpt lat="40.142084618393326" lon="18.197931170445447"><ele>69.0</ele><time>2026-04-06T07:03:02Z</time></trkpt><trkpt lat="40.14220683483795" lon="18.198031316795355"><ele>69.0</ele><time>2026-04-06T07:03:03Z</time></trkpt><trkpt lat="40.14231267707681" lon="18.19813053157422"><ele>69.0</ele><time>2026-04-06T07:03:04Z</time></trkpt><trkpt lat="40.142421688074776" lon="18.19824332830736"><ele>69.0</ele><time>2026-04-06T07:03:05Z</time></trkpt><trkpt lat="40.14251827529912" lon="18.198368083516247"><ele>69.75</ele><time>2026-04-06T07:03:06Z</time></trkpt><trkpt lat="40.14261375831515" lon="18.19850965492049"><ele>70.5</ele><time>2026-04-06T07:03:07Z</time></trkpt><trkpt lat="40.142706645840896" lon="18.198651418819843"><ele>71.25</ele><time>2026-04-06T07:03:08Z</time></trkpt><trkpt lat="40.142800467056134" lon="18.19880087900959"><ele>72.0</ele><time>2026-04-06T07:03:09Z</time></trkpt><trkpt lat="40.142913629774476" lon="18.19894958764996"><ele>72.0</ele><time>2026-04-06T07:03:10Z</time></trkpt><trkpt lat="40.14300578145182" lon="18.199111127500384"><ele>72.0</ele><time>2026-04-06T07:03:11Z</time></trkpt><trkpt lat="40.14310600224313" lon="18.199236347210817"><ele>72.0</ele><time>2026-04-06T07:03:12Z</time></trkpt><trkpt lat="40.14318666579213" lon="18.199390319184374"><ele>72.0</ele><time>2026-04-06T07:03:13Z</time></trkpt><trkpt lat="40.14328631609258" lon="18.199506266004903"><ele>72.0</ele><time>2026-04-06T07:03:14Z</time></trkpt><trkpt lat="40.143360142571105" lon="18.19961426425191"><ele>72.0</ele><time>2026-04-06T07:03:15Z</time></trkpt><trkpt lat="40.14342276239101" lon="18.199732273093545"><ele>72.0</ele><time>2026-04-06T07:03:16Z</time></trkpt><trkpt lat="40.14348576453951" lon="18.199826486665103"><ele>72.0</ele><time>2026-04-06T07:03:17Z</time></trkpt><trkpt lat="40.14357009002816" lon="18.19991249098073"><ele>72.0</ele><time>2026-04-06T07:03:18Z</time></trkpt><trkpt lat="40.14364664968223" lon="18.200028372323963"><ele>71.75</ele><time>2026-04-06T07:03:19Z</time></trkpt><trkpt lat="40.14371002633044" lon="18.200178338035677"><ele>71.5</ele><time>2026-04-06T07:03:20Z</time></trkpt><trkpt lat="40.14382635154477" lon="18.20031675924901"><ele>71.25</ele><time>2026-04-06T07:03:21Z</time></trkpt><trkpt lat="40.14393208907174" lon="18.200463640093265"><ele>71.0</ele><time>2026-04-06T07:03:22Z</time></trkpt><trkpt lat="40.14403064683931" lon="18.20061984059062"><ele>71.0</ele><time>2026-04-06T07:03:23Z</time></trkpt><trkpt lat="40.14415304071183" lon="18.200759495150923"><ele>71.0</ele><time>2026-04-06T07:03:24Z</time></trkpt><trkpt lat="40.14430571561077" lon="18.200858661100373"><ele>71.0</ele><time>2026-04-06T07:03:25.001Z</time></trkpt><trkpt lat="40.144466102022776" lon="18.200924802986677"><ele>71.0</ele><time>2026-04-06T07:03:26.001Z</time></trkpt><trkpt lat="40.14460641506476" lon="18.201005036056426"><ele>71.0</ele><time>2026-04-06T07:03:27.001Z</time></trkpt><trkpt lat="40.14475405143682" lon="18.201063784385845"><ele>71.0</ele><time>2026-04-06T07:03:28.001Z</time></trkpt><trkpt lat="40.14490468515909" lon="18.201099651036472"><ele>71.0</ele><time>2026-04-06T07:03:29.001Z</time></trkpt><trkpt lat="40.14503863489029" lon="18.20112204649211"><ele>71.0</ele><time>2026-04-06T07:03:30.001Z</time></trkpt><trkpt lat="40.14514862149285" lon="18.20112821011675"><ele>71.0</ele><time>2026-04-06T07:03:31.001Z</time></trkpt><trkpt lat="40.145247792563545" lon="18.201123453404026"><ele>71.0</ele><time>2026-04-06T07:03:32.001Z</time></trkpt><trkpt lat="40.14532616313485" lon="18.201112389522134"><ele>71.0</ele><time>2026-04-06T07:03:33.001Z</time></trkpt><trkpt lat="40.14541027265077" lon="18.201101888737128"><ele>71.0</ele><time>2026-04-06T07:03:35.001Z</time></trkpt><trkpt lat="40.14549429551966" lon="18.20109627675345"><ele>71.0</ele><time>2026-04-06T07:03:38.001Z</time></trkpt><trkpt lat="40.14557685809051" lon="18.2010837244329"><ele>71.0</ele><time>2026-04-06T07:03:40.001Z</time></trkpt><trkpt lat="40.14565195837378" lon="18.201064100015014"><ele>71.0</ele><time>2026-04-06T07:03:41.001Z</time></trkpt><trkpt lat="40.14572607092982" lon="18.201018336265786"><ele>71.0</ele><time>2026-04-06T07:03:42.001Z</time></trkpt><trkpt lat="40.14581314437043" lon="18.20096936851908"><ele>71.0</ele><time>2026-04-06T07:03:43.001Z</time></trkpt><trkpt lat="40.14591015792836" lon="18.20090915691891"><ele>71.8</ele><time>2026-04-06T07:03:44.001Z</time></trkpt><trkpt lat="40.14599478486127" lon="18.20085286181743"><ele>72.6</ele><time>2026-04-06T07:03:45.001Z</time></trkpt><trkpt lat="40.14610305392754" lon="18.20080629704346"><ele>73.4</ele><time>2026-04-06T07:03:46.001Z</time></trkpt><trkpt lat="40.14621067962277" lon="18.200737608012336"><ele>74.2</ele><time>2026-04-06T07:03:47.001Z</time></trkpt><trkpt lat="40.14630747457736" lon="18.200676920623614"><ele>75.0</ele><time>2026-04-06T07:03:48.001Z</time></trkpt><trkpt lat="40.14642474608779" lon="18.200607235862222"><ele>75.25</ele><time>2026-04-06T07:03:49.001Z</time></trkpt><trkpt lat="40.14653239585791" lon="18.200523707658565"><ele>75.5</ele><time>2026-04-06T07:03:50.001Z</time></trkpt><trkpt lat="40.146652072067674" lon="18.200489796523726"><ele>75.75</ele><time>2026-04-06T07:03:51.001Z</time></trkpt><trkpt lat="40.146776903905966" lon="18.20042006982688"><ele>76.0</ele><time>2026-04-06T07:03:52.001Z</time></trkpt><trkpt lat="40.14688616200444" lon="18.20035768936914"><ele>76.0</ele><time>2026-04-06T07:03:53.001Z</time></trkpt><trkpt lat="40.14699706687981" lon="18.200293086804898"><ele>76.0</ele><time>2026-04-06T07:03:54.001Z</time></trkpt><trkpt lat="40.14711782800968" lon="18.200225458196634"><ele>76.0</ele><time>2026-04-06T07:03:55.001Z</time></trkpt><trkpt lat="40.14723827012079" lon="18.200156274553542"><ele>76.0</ele><time>2026-04-06T07:03:56.001Z</time></trkpt><trkpt lat="40.147350991565126" lon="18.20008547377221"><ele>76.0</ele><time>2026-04-06T07:03:57.001Z</time></trkpt><trkpt lat="40.14745850815215" lon="18.200012668307206"><ele>76.0</ele><time>2026-04-06T07:03:58.001Z</time></trkpt><trkpt lat="40.14755509450028" lon="18.199941118227773"><ele>76.0</ele><time>2026-04-06T07:03:59.001Z</time></trkpt><trkpt lat="40.14766201297888" lon="18.199859838299396"><ele>76.0</ele><time>2026-04-06T07:04:00.001Z</time></trkpt><trkpt lat="40.14777657618836" lon="18.199789397705825"><ele>76.0</ele><time>2026-04-06T07:04:01.001Z</time></trkpt><trkpt lat="40.14786614000672" lon="18.19972485661453"><ele>76.0</ele><time>2026-04-06T07:04:02.002Z</time></trkpt><trkpt lat="40.14797335086167" lon="18.199662851253198"><ele>76.0</ele><time>2026-04-06T07:04:03.002Z</time></trkpt><trkpt lat="40.148069568879805" lon="18.19959709566583"><ele>76.0</ele><time>2026-04-06T07:04:04.002Z</time></trkpt><trkpt lat="40.148153767084885" lon="18.19952420253311"><ele>76.0</ele><time>2026-04-06T07:04:05.002Z</time></trkpt><trkpt lat="40.14823976611772" lon="18.199456298353084"><ele>75.6</ele><time>2026-04-06T07:04:06.002Z</time></trkpt><trkpt lat="40.14830843032538" lon="18.199404482890554"><ele>75.19999999999999</ele><time>2026-04-06T07:04:07.002Z</time></trkpt><trkpt lat="40.14837938880875" lon="18.199344543472183"><ele>74.80000000000001</ele><time>2026-04-06T07:04:09.002Z</time></trkpt><trkpt lat="40.148461058036546" lon="18.199285322069386"><ele>74.4</ele><time>2026-04-06T07:04:11.002Z</time></trkpt><trkpt lat="40.14858931081175" lon="18.19919280772629"><ele>74.0</ele><time>2026-04-06T07:04:13.002Z</time></trkpt><trkpt lat="40.148665259931086" lon="18.199118884333046"><ele>74.0</ele><time>2026-04-06T07:04:14.002Z</time></trkpt><trkpt lat="40.14875210204876" lon="18.199047520607305"><ele>74.0</ele><time>2026-04-06T07:04:15.002Z</time></trkpt><trkpt lat="40.14885033941057" lon="18.198977150358687"><ele>74.0</ele><time>2026-04-06T07:04:16.002Z</time></trkpt><trkpt lat="40.14893692118093" lon="18.198906296163482"><ele>74.0</ele><time>2026-04-06T07:04:17.002Z</time></trkpt><trkpt lat="40.14905930085986" lon="18.19885985515208"><ele>74.0</ele><time>2026-04-06T07:04:18.002Z</time></trkpt><trkpt lat="40.14916427165765" lon="18.19878232402175"><ele>74.25</ele><time>2026-04-06T07:04:19.002Z</time></trkpt><trkpt lat="40.149268235856" lon="18.19869030964492"><ele>74.5</ele><time>2026-04-06T07:04:20.002Z</time></trkpt><trkpt lat="40.149375308450104" lon="18.198608159704396"><ele>74.75</ele><time>2026-04-06T07:04:21.002Z</time></trkpt><trkpt lat="40.149458581186565" lon="18.198526082814382"><ele>75.0</ele><time>2026-04-06T07:04:22.002Z</time></trkpt><trkpt lat="40.14954113309468" lon="18.198459839797582"><ele>75.0</ele><time>2026-04-06T07:04:23.002Z</time></trkpt><trkpt lat="40.14961611958755" lon="18.19838820572251"><ele>75.0</ele><time>2026-04-06T07:04:24.002Z</time></trkpt><trkpt lat="40.14969012005468" lon="18.198317371614202"><ele>75.0</ele><time>2026-04-06T07:04:25.002Z</time></trkpt><trkpt lat="40.14975658684315" lon="18.19824190223088"><ele>75.0</ele><time>2026-04-06T07:04:26.002Z</time></trkpt><trkpt lat="40.14982388675194" lon="18.19819004400086"><ele>75.0</ele><time>2026-04-06T07:04:27.002Z</time></trkpt><trkpt lat="40.149949499551795" lon="18.198145616054465"><ele>75.2</ele><time>2026-04-06T07:04:29.002Z</time></trkpt><trkpt lat="40.1500269834775" lon="18.19816570360374"><ele>75.4</ele><time>2026-04-06T07:04:30.002Z</time></trkpt><trkpt lat="40.15011500098659" lon="18.198157461572386"><ele>75.6</ele><time>2026-04-06T07:04:31.002Z</time></trkpt><trkpt lat="40.15020412039776" lon="18.198152572824252"><ele>75.8</ele><time>2026-04-06T07:04:32.002Z</time></trkpt><trkpt lat="40.15030287341216" lon="18.198157352892167"><ele>76.0</ele><time>2026-04-06T07:04:33.002Z</time></trkpt><trkpt lat="40.1503997614757" lon="18.198166088244413"><ele>75.5</ele><time>2026-04-06T07:04:34.002Z</time></trkpt><trkpt lat="40.15052436792871" lon="18.198202372533657"><ele>75.0</ele><time>2026-04-06T07:04:35.002Z</time></trkpt><trkpt lat="40.15063426275017" lon="18.19821517120917"><ele>74.5</ele><time>2026-04-06T07:04:36.002Z</time></trkpt><trkpt lat="40.15074609700176" lon="18.19821749035267"><ele>74.0</ele><time>2026-04-06T07:04:37.002Z</time></trkpt><trkpt lat="40.15084919651414" lon="18.198215515782834"><ele>74.0</ele><time>2026-04-06T07:04:38.002Z</time></trkpt><trkpt lat="40.15101628095255" lon="18.19821153404948"><ele>74.0</ele><time>2026-04-06T07:04:39.002Z</time></trkpt><trkpt lat="40.15113392596061" lon="18.198191025119492"><ele>74.0</ele><time>2026-04-06T07:04:40.003Z</time></trkpt><trkpt lat="40.15120404297029" lon="18.19819391060706"><ele>74.0</ele><time>2026-04-06T07:04:41.003Z</time></trkpt><trkpt lat="40.15126717364759" lon="18.19821450543794"><ele>74.0</ele><time>2026-04-06T07:04:42.003Z</time></trkpt><trkpt lat="40.151344170694806" lon="18.198203625930788"><ele>74.0</ele><time>2026-04-06T07:04:43.999Z</time></trkpt><trkpt lat="40.15141019097423" lon="18.198202487734612"><ele>74.0</ele><time>2026-04-06T07:04:45.999Z</time></trkpt><trkpt lat="40.15152630956056" lon="18.198222044639476"><ele>74.0</ele><time>2026-04-06T07:04:47.999Z</time></trkpt><trkpt lat="40.15160445509806" lon="18.198240747385665"><ele>74.0</ele><time>2026-04-06T07:04:48.999Z</time></trkpt><trkpt lat="40.15170685665241" lon="18.198254358902712"><ele>74.0</ele><time>2026-04-06T07:04:49.999Z</time></trkpt><trkpt lat="40.15180700074419" lon="18.19826892173414"><ele>73.5</ele><time>2026-04-06T07:04:50.999Z</time></trkpt><trkpt lat="40.151918503021" lon="18.198325200477942"><ele>73.0</ele><time>2026-04-06T07:04:51.999Z</time></trkpt><trkpt lat="40.15205271558709" lon="18.198342472273467"><ele>72.5</ele><time>2026-04-06T07:04:52.999Z</time></trkpt><trkpt lat="40.15218402105997" lon="18.198375949453894"><ele>72.0</ele><time>2026-04-06T07:04:53.999Z</time></trkpt><trkpt lat="40.15235081465693" lon="18.19840679809606"><ele>72.33333333333333</ele><time>2026-04-06T07:04:54.999Z</time></trkpt><trkpt lat="40.152501640181406" lon="18.198442711838766"><ele>72.66666666666666</ele><time>2026-04-06T07:04:55.999Z</time></trkpt><trkpt lat="40.15272192470286" lon="18.198493988292817"><ele>73.0</ele><time>2026-04-06T07:04:56.999Z</time></trkpt><trkpt lat="40.152902362814054" lon="18.198535201386257"><ele>72.0</ele><time>2026-04-06T07:04:57.999Z</time></trkpt><trkpt lat="40.153420018400496" lon="18.19863842483256"><ele>72.0</ele><time>2026-04-06T07:04:58.999Z</time></trkpt><trkpt lat="40.1537291917999" lon="18.198707093788833"><ele>72.0</ele><time>2026-04-06T07:04:59.999Z</time></trkpt><trkpt lat="40.15397506364151" lon="18.19876907912131"><ele>71.5</ele><time>2026-04-06T07:05:00.999Z</time></trkpt><trkpt lat="40.15424720447387" lon="18.19882512099602"><ele>71.0</ele><time>2026-04-06T07:05:01.999Z</time></trkpt><trkpt lat="40.15449075677543" lon="18.198884884860398"><ele>71.0</ele><time>2026-04-06T07:05:02.999Z</time></trkpt><trkpt lat="40.15473560474639" lon="18.198973356586162"><ele>71.0</ele><time>2026-04-06T07:05:03.999Z</time></trkpt><trkpt lat="40.154976391361586" lon="18.19905472720336"><ele>71.0</ele><time>2026-04-06T07:05:04.999Z</time></trkpt><trkpt lat="40.15523637028917" lon="18.199150021181417"><ele>71.0</ele><time>2026-04-06T07:05:05.999Z</time></trkpt><trkpt lat="40.15548879162593" lon="18.199243932997295"><ele>70.5</ele><time>2026-04-06T07:05:06.999Z</time></trkpt><trkpt lat="40.15574664374752" lon="18.19934085161879"><ele>70.0</ele><time>2026-04-06T07:05:07.999Z</time></trkpt><trkpt lat="40.156002243209585" lon="18.19943692354358"><ele>70.0</ele><time>2026-04-06T07:05:09Z</time></trkpt><trkpt lat="40.15624191106666" lon="18.199527007257412"><ele>70.0</ele><time>2026-04-06T07:05:10Z</time></trkpt><trkpt lat="40.15645974787201" lon="18.19960888539302"><ele>70.0</ele><time>2026-04-06T07:05:11Z</time></trkpt><trkpt lat="40.15670531587081" lon="18.199701186807324"><ele>70.0</ele><time>2026-04-06T07:05:12Z</time></trkpt><trkpt lat="40.15695040610034" lon="18.199792978901918"><ele>68.5</ele><time>2026-04-06T07:05:13Z</time></trkpt><trkpt lat="40.1571985587157" lon="18.19988520762772"><ele>67.0</ele><time>2026-04-06T07:05:14Z</time></trkpt><trkpt lat="40.157431412316136" lon="18.19996639697516"><ele>67.0</ele><time>2026-04-06T07:05:15Z</time></trkpt><trkpt lat="40.157683339562986" lon="18.20004372974671"><ele>67.0</ele><time>2026-04-06T07:05:16Z</time></trkpt><trkpt lat="40.15795070906287" lon="18.200112575543873"><ele>68.5</ele><time>2026-04-06T07:05:17Z</time></trkpt><trkpt lat="40.15820252203496" lon="18.200168199283375"><ele>70.0</ele><time>2026-04-06T07:05:18Z</time></trkpt><trkpt lat="40.15844430375369" lon="18.20022472545399"><ele>70.0</ele><time>2026-04-06T07:05:19Z</time></trkpt><trkpt lat="40.15871261186454" lon="18.20028903887076"><ele>70.0</ele><time>2026-04-06T07:05:20Z</time></trkpt><trkpt lat="40.15897107532595" lon="18.2003509924835"><ele>70.0</ele><time>2026-04-06T07:05:21Z</time></trkpt><trkpt lat="40.15922467745674" lon="18.200410760491057"><ele>70.0</ele><time>2026-04-06T07:05:22Z</time></trkpt><trkpt lat="40.15946129599869" lon="18.20046634728038"><ele>70.0</ele><time>2026-04-06T07:05:23Z</time></trkpt><trkpt lat="40.15970416939913" lon="18.200523401897694"><ele>70.0</ele><time>2026-04-06T07:05:24Z</time></trkpt><trkpt lat="40.159943060144336" lon="18.200579520931424"><ele>70.0</ele><time>2026-04-06T07:05:25Z</time></trkpt><trkpt lat="40.160180216690165" lon="18.20063523260874"><ele>70.0</ele><time>2026-04-06T07:05:26Z</time></trkpt><trkpt lat="40.16043967851652" lon="18.200695905756973"><ele>69.5</ele><time>2026-04-06T07:05:27Z</time></trkpt><trkpt lat="40.160733797222385" lon="18.200764247774583"><ele>69.0</ele><time>2026-04-06T07:05:28Z</time></trkpt><trkpt lat="40.16096822875163" lon="18.200818720734606"><ele>69.0</ele><time>2026-04-06T07:05:29Z</time></trkpt><trkpt lat="40.16119217358096" lon="18.200872703588256"><ele>69.0</ele><time>2026-04-06T07:05:30Z</time></trkpt><trkpt lat="40.161439696710985" lon="18.20094518469479"><ele>70.5</ele><time>2026-04-06T07:05:31Z</time></trkpt><trkpt lat="40.16170161846373" lon="18.20104370080188"><ele>72.0</ele><time>2026-04-06T07:05:32Z</time></trkpt><trkpt lat="40.16195076571122" lon="18.201138866389478"><ele>72.0</ele><time>2026-04-06T07:05:33Z</time></trkpt><trkpt lat="40.162194206182626" lon="18.20123267030876"><ele>72.0</ele><time>2026-04-06T07:05:34Z</time></trkpt><trkpt lat="40.16238124970876" lon="18.201305438965267"><ele>72.0</ele><time>2026-04-06T07:05:35Z</time></trkpt><trkpt lat="40.16262726383748" lon="18.201404544202763"><ele>73.0</ele><time>2026-04-06T07:05:36.001Z</time></trkpt><trkpt lat="40.16285524007831" lon="18.20151094538151"><ele>74.0</ele><time>2026-04-06T07:05:37.001Z</time></trkpt><trkpt lat="40.163098170830956" lon="18.20163290339318"><ele>74.0</ele><time>2026-04-06T07:05:38.001Z</time></trkpt><trkpt lat="40.16332458722771" lon="18.201752724372398"><ele>74.0</ele><time>2026-04-06T07:05:39.001Z</time></trkpt><trkpt lat="40.16353139877791" lon="18.201859925406985"><ele>74.0</ele><time>2026-04-06T07:05:40.001Z</time></trkpt><trkpt lat="40.16375898162686" lon="18.201977060815786"><ele>74.0</ele><time>2026-04-06T07:05:41.001Z</time></trkpt><trkpt lat="40.16395070370412" lon="18.202075266178344"><ele>74.0</ele><time>2026-04-06T07:05:42.001Z</time></trkpt><trkpt lat="40.16414696155551" lon="18.20215898932473"><ele>74.0</ele><time>2026-04-06T07:05:43.001Z</time></trkpt><trkpt lat="40.164333691802106" lon="18.202283704943355"><ele>74.0</ele><time>2026-04-06T07:05:44.001Z</time></trkpt><trkpt lat="40.164547927692865" lon="18.202360224959822"><ele>75.0</ele><time>2026-04-06T07:05:45.001Z</time></trkpt><trkpt lat="40.164823675134095" lon="18.202382893921254"><ele>76.0</ele><time>2026-04-06T07:05:46.001Z</time></trkpt><trkpt lat="40.16508654167986" lon="18.202446003026047"><ele>76.0</ele><time>2026-04-06T07:05:47.001Z</time></trkpt><trkpt lat="40.16530382361311" lon="18.202507432235855"><ele>76.0</ele><time>2026-04-06T07:05:48.001Z</time></trkpt><trkpt lat="40.16555600144613" lon="18.202558063003746"><ele>76.0</ele><time>2026-04-06T07:05:49.001Z</time></trkpt><trkpt lat="40.16577194477603" lon="18.202632970037023"><ele>76.0</ele><time>2026-04-06T07:05:50.001Z</time></trkpt><trkpt lat="40.166010450361476" lon="18.202708000852063"><ele>76.0</ele><time>2026-04-06T07:05:51.001Z</time></trkpt><trkpt lat="40.16625008959115" lon="18.20279661429355"><ele>76.0</ele><time>2026-04-06T07:05:52.001Z</time></trkpt><trkpt lat="40.16647528215507" lon="18.20288251044978"><ele>76.0</ele><time>2026-04-06T07:05:53.001Z</time></trkpt><trkpt lat="40.166708207320916" lon="18.20297352411638"><ele>76.0</ele><time>2026-04-06T07:05:54.001Z</time></trkpt><trkpt lat="40.16696257328542" lon="18.203072051093656"><ele>76.0</ele><time>2026-04-06T07:05:55.001Z</time></trkpt><trkpt lat="40.167179453190826" lon="18.203151223692295"><ele>76.0</ele><time>2026-04-06T07:05:56.001Z</time></trkpt><trkpt lat="40.16736370277091" lon="18.20322019887328"><ele>76.0</ele><time>2026-04-06T07:05:57.001Z</time></trkpt><trkpt lat="40.16750617463356" lon="18.20326777135963"><ele>75.25</ele><time>2026-04-06T07:05:58.001Z</time></trkpt><trkpt lat="40.16764174923326" lon="18.20336706553642"><ele>74.5</ele><time>2026-04-06T07:05:59.001Z</time></trkpt><trkpt lat="40.167751884271986" lon="18.203426428837663"><ele>73.75</ele><time>2026-04-06T07:06:00.001Z</time></trkpt><trkpt lat="40.16785554779148" lon="18.203512783348497"><ele>73.0</ele><time>2026-04-06T07:06:01.001Z</time></trkpt><trkpt lat="40.16794692696809" lon="18.203548813566922"><ele>73.0</ele><time>2026-04-06T07:06:02.001Z</time></trkpt><trkpt lat="40.16802119962064" lon="18.203645015968522"><ele>73.0</ele><time>2026-04-06T07:06:03.001Z</time></trkpt><trkpt lat="40.16809457121297" lon="18.203666089150527"><ele>73.0</ele><time>2026-04-06T07:06:04.001Z</time></trkpt><trkpt lat="40.168201467753306" lon="18.20364610952078"><ele>73.0</ele><time>2026-04-06T07:06:05.001Z</time></trkpt><trkpt lat="40.16829889160728" lon="18.20362176468521"><ele>73.0</ele><time>2026-04-06T07:06:06.001Z</time></trkpt><trkpt lat="40.168431134439395" lon="18.20360038835223"><ele>73.0</ele><time>2026-04-06T07:06:07.001Z</time></trkpt><trkpt lat="40.168598126514134" lon="18.203691321039972"><ele>73.0</ele><time>2026-04-06T07:06:08.001Z</time></trkpt><trkpt lat="40.16875809830669" lon="18.203710973301117"><ele>73.0</ele><time>2026-04-06T07:06:09.001Z</time></trkpt><trkpt lat="40.16893788792901" lon="18.203722369331977"><ele>74.0</ele><time>2026-04-06T07:06:10.002Z</time></trkpt><trkpt lat="40.16910130936274" lon="18.203761004033655"><ele>75.0</ele><time>2026-04-06T07:06:11.002Z</time></trkpt><trkpt lat="40.16931828479241" lon="18.203807103036826"><ele>76.0</ele><time>2026-04-06T07:06:12.002Z</time></trkpt><trkpt lat="40.16956448429258" lon="18.203892109913003"><ele>76.0</ele><time>2026-04-06T07:06:13.002Z</time></trkpt><trkpt lat="40.16979109134461" lon="18.203961711725817"><ele>76.0</ele><time>2026-04-06T07:06:14.002Z</time></trkpt><trkpt lat="40.169989873198865" lon="18.204019986153373"><ele>76.0</ele><time>2026-04-06T07:06:15.002Z</time></trkpt><trkpt lat="40.17016665221693" lon="18.20414027384063"><ele>75.0</ele><time>2026-04-06T07:06:16.002Z</time></trkpt><trkpt lat="40.17036552813711" lon="18.20426349795686"><ele>74.0</ele><time>2026-04-06T07:06:17.002Z</time></trkpt><trkpt lat="40.170567965147576" lon="18.204427369128293"><ele>75.0</ele><time>2026-04-06T07:06:18.002Z</time></trkpt><trkpt lat="40.1707671429428" lon="18.20460219212247"><ele>76.0</ele><time>2026-04-06T07:06:19.002Z</time></trkpt><trkpt lat="40.170941408920086" lon="18.204834338319955"><ele>77.0</ele><time>2026-04-06T07:06:20.002Z</time></trkpt><trkpt lat="40.17111760673453" lon="18.20506162795894"><ele>78.0</ele><time>2026-04-06T07:06:21.002Z</time></trkpt><trkpt lat="40.17130086749885" lon="18.205300481410855"><ele>78.0</ele><time>2026-04-06T07:06:22.002Z</time></trkpt><trkpt lat="40.1714903149846" lon="18.205547398337266"><ele>78.0</ele><time>2026-04-06T07:06:23.002Z</time></trkpt><trkpt lat="40.17165030559423" lon="18.20575579253558"><ele>79.5</ele><time>2026-04-06T07:06:24.002Z</time></trkpt><trkpt lat="40.171823403261364" lon="18.205973420774015"><ele>81.0</ele><time>2026-04-06T07:06:25.002Z</time></trkpt><trkpt lat="40.17199387861042" lon="18.20615395088872"><ele>81.0</ele><time>2026-04-06T07:06:26.002Z</time></trkpt><trkpt lat="40.17216941517158" lon="18.20631127725319"><ele>81.0</ele><time>2026-04-06T07:06:27.002Z</time></trkpt><trkpt lat="40.172284744811996" lon="18.20642658164172"><ele>81.0</ele><time>2026-04-06T07:06:28.002Z</time></trkpt><trkpt lat="40.17244997386859" lon="18.206518974848805"><ele>81.66666666666667</ele><time>2026-04-06T07:06:29.002Z</time></trkpt><trkpt lat="40.172617257328106" lon="18.206648102471004"><ele>82.33333333333334</ele><time>2026-04-06T07:06:30.002Z</time></trkpt><trkpt lat="40.17275693016645" lon="18.206696159331106"><ele>83.0</ele><time>2026-04-06T07:06:31.002Z</time></trkpt><trkpt lat="40.172995852715594" lon="18.20670313622315"><ele>84.0</ele><time>2026-04-06T07:06:32.002Z</time></trkpt><trkpt lat="40.17320700407313" lon="18.206675380607944"><ele>85.0</ele><time>2026-04-06T07:06:33.002Z</time></trkpt><trkpt lat="40.17343494273751" lon="18.20665223532952"><ele>86.0</ele><time>2026-04-06T07:06:34.002Z</time></trkpt><trkpt lat="40.17363976412871" lon="18.20661090959205"><ele>86.0</ele><time>2026-04-06T07:06:35.002Z</time></trkpt><trkpt lat="40.17384475789224" lon="18.206531265771805"><ele>86.0</ele><time>2026-04-06T07:06:36.002Z</time></trkpt><trkpt lat="40.17408167249572" lon="18.206446655536805"><ele>85.66666666666667</ele><time>2026-04-06T07:06:37.002Z</time></trkpt><trkpt lat="40.174297574873805" lon="18.206368457544706"><ele>85.33333333333333</ele><time>2026-04-06T07:06:38.002Z</time></trkpt><trkpt lat="40.174492555141725" lon="18.206312685742958"><ele>85.0</ele><time>2026-04-06T07:06:39.002Z</time></trkpt><trkpt lat="40.174736528165134" lon="18.206260747514136"><ele>84.66666666666666</ele><time>2026-04-06T07:06:40.002Z</time></trkpt><trkpt lat="40.174906904494996" lon="18.206172854902473"><ele>84.33333333333333</ele><time>2026-04-06T07:06:41.002Z</time></trkpt><trkpt lat="40.17512300863505" lon="18.20611041350562"><ele>84.0</ele><time>2026-04-06T07:06:42.002Z</time></trkpt><trkpt lat="40.17530148882566" lon="18.20608976974043"><ele>84.0</ele><time>2026-04-06T07:06:43.002Z</time></trkpt><trkpt lat="40.17551258256524" lon="18.206118772481762"><ele>84.0</ele><time>2026-04-06T07:06:44.003Z</time></trkpt><trkpt lat="40.175738718219954" lon="18.206141592989063"><ele>84.0</ele><time>2026-04-06T07:06:45.003Z</time></trkpt><trkpt lat="40.17596620507997" lon="18.20616523283771"><ele>84.5</ele><time>2026-04-06T07:06:46.003Z</time></trkpt><trkpt lat="40.17620584824214" lon="18.206190161824917"><ele>85.0</ele><time>2026-04-06T07:06:47.003Z</time></trkpt><trkpt lat="40.176504658336086" lon="18.20622125618307"><ele>85.0</ele><time>2026-04-06T07:06:48.003Z</time></trkpt><trkpt lat="40.17674892670507" lon="18.206246674892977"><ele>85.0</ele><time>2026-04-06T07:06:48.998Z</time></trkpt><trkpt lat="40.17698666361475" lon="18.206271413942964"><ele>85.0</ele><time>2026-04-06T07:06:49.998Z</time></trkpt><trkpt lat="40.177210495784735" lon="18.206284049555954"><ele>85.0</ele><time>2026-04-06T07:06:50.998Z</time></trkpt><trkpt lat="40.177444310110566" lon="18.20631939538617"><ele>85.5</ele><time>2026-04-06T07:06:51.998Z</time></trkpt><trkpt lat="40.17773276567199" lon="18.206327481920674"><ele>86.0</ele><time>2026-04-06T07:06:52.998Z</time></trkpt><trkpt lat="40.17792205685103" lon="18.206358059336313"><ele>86.0</ele><time>2026-04-06T07:06:53.998Z</time></trkpt><trkpt lat="40.178134499462345" lon="18.206370590215197"><ele>86.0</ele><time>2026-04-06T07:06:54.998Z</time></trkpt><trkpt lat="40.17835851917206" lon="18.20641924817756"><ele>86.0</ele><time>2026-04-06T07:06:55.998Z</time></trkpt><trkpt lat="40.178548714867894" lon="18.206432365996214"><ele>85.66666666666667</ele><time>2026-04-06T07:06:56.999Z</time></trkpt><trkpt lat="40.178737885587275" lon="18.20644515167344"><ele>85.33333333333333</ele><time>2026-04-06T07:06:57.999Z</time></trkpt><trkpt lat="40.17895953688529" lon="18.206443998500216"><ele>85.0</ele><time>2026-04-06T07:06:58.999Z</time></trkpt><trkpt lat="40.179182329241364" lon="18.206410042741382"><ele>85.0</ele><time>2026-04-06T07:06:59.999Z</time></trkpt><trkpt lat="40.17939273568837" lon="18.206365397378033"><ele>85.0</ele><time>2026-04-06T07:07:00.999Z</time></trkpt><trkpt lat="40.17955507675834" lon="18.20632383373068"><ele>85.0</ele><time>2026-04-06T07:07:01.999Z</time></trkpt><trkpt lat="40.17978848568519" lon="18.206246229455235"><ele>85.66666666666666</ele><time>2026-04-06T07:07:02.999Z</time></trkpt><trkpt lat="40.17999084688373" lon="18.206196559413954"><ele>86.33333333333333</ele><time>2026-04-06T07:07:03.999Z</time></trkpt><trkpt lat="40.180191850882935" lon="18.206136987939907"><ele>87.0</ele><time>2026-04-06T07:07:04.999Z</time></trkpt><trkpt lat="40.18037147533707" lon="18.20607687370134"><ele>87.0</ele><time>2026-04-06T07:07:05.999Z</time></trkpt><trkpt lat="40.1805445917799" lon="18.206041295032684"><ele>87.0</ele><time>2026-04-06T07:07:06.999Z</time></trkpt><trkpt lat="40.18073540655927" lon="18.206001801048618"><ele>87.0</ele><time>2026-04-06T07:07:07.999Z</time></trkpt><trkpt lat="40.180885479396345" lon="18.205959668070058"><ele>87.0</ele><time>2026-04-06T07:07:08.999Z</time></trkpt><trkpt lat="40.181035837922416" lon="18.205922444021176"><ele>87.0</ele><time>2026-04-06T07:07:09.999Z</time></trkpt><trkpt lat="40.18116201639824" lon="18.20589412291783"><ele>87.0</ele><time>2026-04-06T07:07:10.999Z</time></trkpt><trkpt lat="40.18127169060646" lon="18.205878981612752"><ele>87.0</ele><time>2026-04-06T07:07:11.999Z</time></trkpt><trkpt lat="40.18139906816338" lon="18.20584841764516"><ele>87.0</ele><time>2026-04-06T07:07:12.999Z</time></trkpt><trkpt lat="40.181509781866325" lon="18.205824399733995"><ele>87.0</ele><time>2026-04-06T07:07:13.999Z</time></trkpt><trkpt lat="40.18159835647221" lon="18.20578823415659"><ele>87.0</ele><time>2026-04-06T07:07:14.999Z</time></trkpt><trkpt lat="40.18169438999946" lon="18.205772479654453"><ele>87.0</ele><time>2026-04-06T07:07:16Z</time></trkpt><trkpt lat="40.18178375974016" lon="18.205751213092437"><ele>87.0</ele><time>2026-04-06T07:07:17Z</time></trkpt><trkpt lat="40.181868487601434" lon="18.20572629924058"><ele>87.0</ele><time>2026-04-06T07:07:18Z</time></trkpt><trkpt lat="40.1819531634878" lon="18.20572229124434"><ele>87.0</ele><time>2026-04-06T07:07:19Z</time></trkpt><trkpt lat="40.18208934507704" lon="18.205687638902607"><ele>87.0</ele><time>2026-04-06T07:07:21Z</time></trkpt><trkpt lat="40.182177758457684" lon="18.205667285103313"><ele>87.0</ele><time>2026-04-06T07:07:22Z</time></trkpt><trkpt lat="40.18228933356717" lon="18.20564109098374"><ele>87.0</ele><time>2026-04-06T07:07:23Z</time></trkpt><trkpt lat="40.18242451160529" lon="18.20560692371362"><ele>86.33333333333333</ele><time>2026-04-06T07:07:24Z</time></trkpt><trkpt lat="40.18258288310939" lon="18.205564645014455"><ele>85.66666666666666</ele><time>2026-04-06T07:07:25Z</time></trkpt><trkpt lat="40.182756772329036" lon="18.205506920009295"><ele>85.0</ele><time>2026-04-06T07:07:26Z</time></trkpt><trkpt lat="40.18287315805429" lon="18.205477150001236"><ele>85.0</ele><time>2026-04-06T07:07:27Z</time></trkpt><trkpt lat="40.183011823878495" lon="18.205431602240225"><ele>85.0</ele><time>2026-04-06T07:07:28Z</time></trkpt><trkpt lat="40.183136352988086" lon="18.20541315986541"><ele>85.0</ele><time>2026-04-06T07:07:29Z</time></trkpt><trkpt lat="40.183218617031415" lon="18.20538213797015"><ele>85.0</ele><time>2026-04-06T07:07:30Z</time></trkpt><trkpt lat="40.183305020269216" lon="18.20536944971135"><ele>85.0</ele><time>2026-04-06T07:07:31Z</time></trkpt><trkpt lat="40.183418499008354" lon="18.205368408054493"><ele>85.2</ele><time>2026-04-06T07:07:33Z</time></trkpt><trkpt lat="40.1835040402386" lon="18.205362068809798"><ele>85.4</ele><time>2026-04-06T07:07:34Z</time></trkpt><trkpt lat="40.18360417378116" lon="18.20535843261087"><ele>85.6</ele><time>2026-04-06T07:07:35Z</time></trkpt><trkpt lat="40.183713479438566" lon="18.205364886464803"><ele>85.8</ele><time>2026-04-06T07:07:36Z</time></trkpt><trkpt lat="40.18381525874789" lon="18.205377589520154"><ele>86.0</ele><time>2026-04-06T07:07:37Z</time></trkpt><trkpt lat="40.183919215559975" lon="18.20540405482624"><ele>86.0</ele><time>2026-04-06T07:07:38Z</time></trkpt><trkpt lat="40.18406774675151" lon="18.205456447149334"><ele>86.0</ele><time>2026-04-06T07:07:39Z</time></trkpt><trkpt lat="40.18420313025225" lon="18.205512830120718"><ele>86.0</ele><time>2026-04-06T07:07:40Z</time></trkpt><trkpt lat="40.18431392622058" lon="18.205574320655696"><ele>86.0</ele><time>2026-04-06T07:07:41.001Z</time></trkpt><trkpt lat="40.18443006907558" lon="18.2056555256591"><ele>86.4</ele><time>2026-04-06T07:07:42.001Z</time></trkpt><trkpt lat="40.18451604914652" lon="18.20573665239495"><ele>86.8</ele><time>2026-04-06T07:07:43.001Z</time></trkpt><trkpt lat="40.18460509955093" lon="18.20582617530938"><ele>87.2</ele><time>2026-04-06T07:07:44.001Z</time></trkpt><trkpt lat="40.18471419894681" lon="18.20592469410451"><ele>87.60000000000001</ele><time>2026-04-06T07:07:45.001Z</time></trkpt><trkpt lat="40.184782737201125" lon="18.20597482365826"><ele>88.0</ele><time>2026-04-06T07:07:46.001Z</time></trkpt><trkpt lat="40.18486322615918" lon="18.206020214688046"><ele>88.0</ele><time>2026-04-06T07:07:47.001Z</time></trkpt><trkpt lat="40.18493428035299" lon="18.2060484482319"><ele>88.0</ele><time>2026-04-06T07:07:48.001Z</time></trkpt><trkpt lat="40.185011207500416" lon="18.206070922855243"><ele>88.0</ele><time>2026-04-06T07:07:49.001Z</time></trkpt><trkpt lat="40.18507463158627" lon="18.206119752241186"><ele>88.0</ele><time>2026-04-06T07:07:50.001Z</time></trkpt><trkpt lat="40.1851695445005" lon="18.206120189399876"><ele>88.0</ele><time>2026-04-06T07:07:51.001Z</time></trkpt><trkpt lat="40.1852598445339" lon="18.206136202964103"><ele>88.0</ele><time>2026-04-06T07:07:52.001Z</time></trkpt><trkpt lat="40.18534897908318" lon="18.206153127218794"><ele>88.0</ele><time>2026-04-06T07:07:53.001Z</time></trkpt><trkpt lat="40.185421700921" lon="18.206186037801125"><ele>88.0</ele><time>2026-04-06T07:07:54.001Z</time></trkpt><trkpt lat="40.185498105402786" lon="18.20617984361863"><ele>88.0</ele><time>2026-04-06T07:07:55.001Z</time></trkpt><trkpt lat="40.18556461301228" lon="18.20616153054852"><ele>88.0</ele><time>2026-04-06T07:07:56.001Z</time></trkpt><trkpt lat="40.185630654913105" lon="18.206187366854312"><ele>88.0</ele><time>2026-04-06T07:07:58.001Z</time></trkpt><trkpt lat="40.185629159478" lon="18.205925265950835"><ele>88.0</ele><time>2026-04-06T07:07:59.001Z</time></trkpt><trkpt lat="40.18561151068422" lon="18.205780881165808"><ele>88.0</ele><time>2026-04-06T07:08:00.001Z</time></trkpt><trkpt lat="40.18559228767593" lon="18.205629218253723"><ele>88.0</ele><time>2026-04-06T07:08:01.001Z</time></trkpt><trkpt lat="40.18560030889826" lon="18.20550550345874"><ele>88.0</ele><time>2026-04-06T07:08:02.001Z</time></trkpt><trkpt lat="40.18549482603661" lon="18.20535631683772"><ele>87.80000000000001</ele><time>2026-04-06T07:08:03.001Z</time></trkpt><trkpt lat="40.1855003303535" lon="18.205272355142817"><ele>87.6</ele><time>2026-04-06T07:08:04.001Z</time></trkpt><trkpt lat="40.18548941301856" lon="18.205189968526074"><ele>87.4</ele><time>2026-04-06T07:08:05.001Z</time></trkpt><trkpt lat="40.18545324877473" lon="18.205065237030876"><ele>87.19999999999999</ele><time>2026-04-06T07:08:06.001Z</time></trkpt><trkpt lat="40.18540810724533" lon="18.204929308008463"><ele>87.0</ele><time>2026-04-06T07:08:07.001Z</time></trkpt><trkpt lat="40.18536350495868" lon="18.204794558435566"><ele>87.0</ele><time>2026-04-06T07:08:08.001Z</time></trkpt><trkpt lat="40.18531137944213" lon="18.204636826966578"><ele>87.0</ele><time>2026-04-06T07:08:09.001Z</time></trkpt><trkpt lat="40.18527271131333" lon="18.20451981743864"><ele>87.0</ele><time>2026-04-06T07:08:10.001Z</time></trkpt><trkpt lat="40.18524318556803" lon="18.20438254099755"><ele>87.0</ele><time>2026-04-06T07:08:11.001Z</time></trkpt><trkpt lat="40.185164976514976" lon="18.204276402529253"><ele>87.0</ele><time>2026-04-06T07:08:12.002Z</time></trkpt><trkpt lat="40.18511413874178" lon="18.204143046245736"><ele>87.0</ele><time>2026-04-06T07:08:13.002Z</time></trkpt><trkpt lat="40.185072519298856" lon="18.204026698590944"><ele>87.0</ele><time>2026-04-06T07:08:14.002Z</time></trkpt><trkpt lat="40.185048771508306" lon="18.203908970247515"><ele>87.0</ele><time>2026-04-06T07:08:15.002Z</time></trkpt><trkpt lat="40.18503246570783" lon="18.2038201591989"><ele>87.0</ele><time>2026-04-06T07:08:16.002Z</time></trkpt><trkpt lat="40.185001622370436" lon="18.203725064947594"><ele>87.0</ele><time>2026-04-06T07:08:18.002Z</time></trkpt><trkpt lat="40.18495086424976" lon="18.20363784634586"><ele>87.0</ele><time>2026-04-06T07:08:19.002Z</time></trkpt><trkpt lat="40.18492748375109" lon="18.203525309828088"><ele>87.0</ele><time>2026-04-06T07:08:20.002Z</time></trkpt><trkpt lat="40.18490456033131" lon="18.203402288178008"><ele>87.0</ele><time>2026-04-06T07:08:21.002Z</time></trkpt><trkpt lat="40.1848612436828" lon="18.203265743885506"><ele>87.0</ele><time>2026-04-06T07:08:22.002Z</time></trkpt><trkpt lat="40.18481096774582" lon="18.203180698216855"><ele>86.8</ele><time>2026-04-06T07:08:23.002Z</time></trkpt><trkpt lat="40.18479105617994" lon="18.20307371082133"><ele>86.6</ele><time>2026-04-06T07:08:24.002Z</time></trkpt><trkpt lat="40.18476154443025" lon="18.203000566457703"><ele>86.39999999999999</ele><time>2026-04-06T07:08:25.002Z</time></trkpt><trkpt lat="40.1847246857624" lon="18.20287833038026"><ele>86.19999999999999</ele><time>2026-04-06T07:08:27.002Z</time></trkpt><trkpt lat="40.1846875870035" lon="18.202788383577648"><ele>86.0</ele><time>2026-04-06T07:08:29.002Z</time></trkpt><trkpt lat="40.18492349287932" lon="18.202667586885347"><ele>86.0</ele><time>2026-04-06T07:08:32.002Z</time></trkpt><trkpt lat="40.18502156382303" lon="18.20261182187764"><ele>86.0</ele><time>2026-04-06T07:08:33.002Z</time></trkpt><trkpt lat="40.18516529500578" lon="18.202531877138668"><ele>86.0</ele><time>2026-04-06T07:08:34.002Z</time></trkpt><trkpt lat="40.18527268152181" lon="18.20245133427267"><ele>86.0</ele><time>2026-04-06T07:08:35.002Z</time></trkpt><trkpt lat="40.18535620086367" lon="18.202425693262423"><ele>86.0</ele><time>2026-04-06T07:08:36.002Z</time></trkpt><trkpt lat="40.18542937685545" lon="18.202368181460997"><ele>86.0</ele><time>2026-04-06T07:08:38.002Z</time></trkpt><trkpt lat="40.18550783881776" lon="18.20233421839354"><ele>86.0</ele><time>2026-04-06T07:08:40.002Z</time></trkpt><trkpt lat="40.18558917771915" lon="18.20230882106268"><ele>86.0</ele><time>2026-04-06T07:08:42.002Z</time></trkpt><trkpt lat="40.18566023506179" lon="18.202253231311104"><ele>86.0</ele><time>2026-04-06T07:08:44.002Z</time></trkpt><trkpt lat="40.18578921121936" lon="18.202155262931356"><ele>86.0</ele><time>2026-04-06T07:08:46.003Z</time></trkpt><trkpt lat="40.18585685103576" lon="18.20212053135663"><ele>86.0</ele><time>2026-04-06T07:08:47.003Z</time></trkpt><trkpt lat="40.18592923017682" lon="18.202071546830773"><ele>86.0</ele><time>2026-04-06T07:08:48.003Z</time></trkpt><trkpt lat="40.18601259057007" lon="18.20204226929627"><ele>86.0</ele><time>2026-04-06T07:08:49.003Z</time></trkpt><trkpt lat="40.18608920927196" lon="18.201999607241955"><ele>86.0</ele><time>2026-04-06T07:08:50.003Z</time></trkpt><trkpt lat="40.18616504692677" lon="18.201957380086554"><ele>86.0</ele><time>2026-04-06T07:08:51.003Z</time></trkpt><trkpt lat="40.18624905476404" lon="18.201910104343785"><ele>86.0</ele><time>2026-04-06T07:08:52.003Z</time></trkpt><trkpt lat="40.186329363675604" lon="18.201839907087027"><ele>86.0</ele><time>2026-04-06T07:08:53.003Z</time></trkpt><trkpt lat="40.18642059437334" lon="18.20178809307539"><ele>86.0</ele><time>2026-04-06T07:08:54.003Z</time></trkpt><trkpt lat="40.186505608733455" lon="18.201738439745387"><ele>86.0</ele><time>2026-04-06T07:08:54.998Z</time></trkpt><trkpt lat="40.18660493117234" lon="18.20168663406067"><ele>86.0</ele><time>2026-04-06T07:08:55.998Z</time></trkpt><trkpt lat="40.18669462548624" lon="18.201656289242983"><ele>85.8</ele><time>2026-04-06T07:08:56.998Z</time></trkpt><trkpt lat="40.18675839218472" lon="18.2016313542142"><ele>85.6</ele><time>2026-04-06T07:08:57.999Z</time></trkpt><trkpt lat="40.18686601546055" lon="18.201569624844613"><ele>85.4</ele><time>2026-04-06T07:08:59.999Z</time></trkpt><trkpt lat="40.18695444351157" lon="18.201522426422105"><ele>85.2</ele><time>2026-04-06T07:09:00.999Z</time></trkpt><trkpt lat="40.18705906825907" lon="18.20147621867908"><ele>85.0</ele><time>2026-04-06T07:09:01.999Z</time></trkpt><trkpt lat="40.18715319459283" lon="18.20138485232157"><ele>84.75</ele><time>2026-04-06T07:09:02.999Z</time></trkpt><trkpt lat="40.187292490299335" lon="18.201311489082613"><ele>84.5</ele><time>2026-04-06T07:09:03.999Z</time></trkpt><trkpt lat="40.18740750569348" lon="18.20121161095808"><ele>84.25</ele><time>2026-04-06T07:09:04.999Z</time></trkpt><trkpt lat="40.18754510203502" lon="18.20115279571563"><ele>84.0</ele><time>2026-04-06T07:09:05.999Z</time></trkpt><trkpt lat="40.18767181052767" lon="18.201082218453603"><ele>83.66666666666667</ele><time>2026-04-06T07:09:06.999Z</time></trkpt><trkpt lat="40.1878050164837" lon="18.200985261938825"><ele>83.33333333333334</ele><time>2026-04-06T07:09:07.999Z</time></trkpt><trkpt lat="40.18795141247957" lon="18.200918865872755"><ele>83.0</ele><time>2026-04-06T07:09:08.999Z</time></trkpt><trkpt lat="40.18808205547329" lon="18.200828099985532"><ele>83.33333333333334</ele><time>2026-04-06T07:09:09.999Z</time></trkpt><trkpt lat="40.188227241593324" lon="18.200774340478258"><ele>83.66666666666667</ele><time>2026-04-06T07:09:10.999Z</time></trkpt><trkpt lat="40.18836658244132" lon="18.2007001660489"><ele>84.0</ele><time>2026-04-06T07:09:11.999Z</time></trkpt><trkpt lat="40.18852607089525" lon="18.200627018008042"><ele>83.5</ele><time>2026-04-06T07:09:13Z</time></trkpt><trkpt lat="40.18865976718041" lon="18.20054064815873"><ele>83.0</ele><time>2026-04-06T07:09:14Z</time></trkpt><trkpt lat="40.18876926129794" lon="18.200450260710685"><ele>82.5</ele><time>2026-04-06T07:09:15Z</time></trkpt><trkpt lat="40.18888909542959" lon="18.200380616118295"><ele>82.0</ele><time>2026-04-06T07:09:16Z</time></trkpt><trkpt lat="40.18899619581841" lon="18.20031188420009"><ele>82.16666666666666</ele><time>2026-04-06T07:09:17Z</time></trkpt><trkpt lat="40.189082379517075" lon="18.20027851805851"><ele>82.33333333333333</ele><time>2026-04-06T07:09:18Z</time></trkpt><trkpt lat="40.189150677337224" lon="18.20023307332122"><ele>82.5</ele><time>2026-04-06T07:09:19Z</time></trkpt><trkpt lat="40.189225106918904" lon="18.200217360905782"><ele>82.66666666666667</ele><time>2026-04-06T07:09:22Z</time></trkpt><trkpt lat="40.189265983173016" lon="18.200314723693037"><ele>82.83333333333334</ele><time>2026-04-06T07:09:24Z</time></trkpt><trkpt lat="40.18930167758348" lon="18.200421164470807"><ele>83.0</ele><time>2026-04-06T07:09:25Z</time></trkpt><trkpt lat="40.18933911342075" lon="18.200532797348565"><ele>83.0</ele><time>2026-04-06T07:09:26Z</time></trkpt><trkpt lat="40.18937761414602" lon="18.200647606219363"><ele>83.0</ele><time>2026-04-06T07:09:27Z</time></trkpt><trkpt lat="40.18941523223847" lon="18.200759782979237"><ele>83.0</ele><time>2026-04-06T07:09:28Z</time></trkpt><trkpt lat="40.189452739484665" lon="18.200871629283792"><ele>83.0</ele><time>2026-04-06T07:09:29Z</time></trkpt><trkpt lat="40.18948039833088" lon="18.200954107722787"><ele>83.0</ele><time>2026-04-06T07:09:30Z</time></trkpt><trkpt lat="40.189510350040656" lon="18.201043423461872"><ele>83.0</ele><time>2026-04-06T07:09:32.001Z</time></trkpt><trkpt lat="40.18967160778856" lon="18.200985150774354"><ele>83.0</ele><time>2026-04-06T07:09:34.001Z</time></trkpt><trkpt lat="40.189748768088435" lon="18.20092214611905"><ele>83.0</ele><time>2026-04-06T07:09:35.001Z</time></trkpt><trkpt lat="40.18982588159136" lon="18.200835904236"><ele>83.0</ele><time>2026-04-06T07:09:36.001Z</time></trkpt><trkpt lat="40.1899319448083" lon="18.20072571317023"><ele>83.0</ele><time>2026-04-06T07:09:37.001Z</time></trkpt><trkpt lat="40.19000777870275" lon="18.20061900442082"><ele>83.0</ele><time>2026-04-06T07:09:38.001Z</time></trkpt><trkpt lat="40.190091577348014" lon="18.200497512882293"><ele>83.25</ele><time>2026-04-06T07:09:39.001Z</time></trkpt><trkpt lat="40.19019314227609" lon="18.20042917479885"><ele>83.5</ele><time>2026-04-06T07:09:40.001Z</time></trkpt><trkpt lat="40.190249990554605" lon="18.200381942598156"><ele>83.75</ele><time>2026-04-06T07:09:41.001Z</time></trkpt><trkpt lat="40.19031542569124" lon="18.200300536380208"><ele>84.0</ele><time>2026-04-06T07:09:43.001Z</time></trkpt><trkpt lat="40.19040207547663" lon="18.20050385404536"><ele>84.0</ele><time>2026-04-06T07:09:46.001Z</time></trkpt><trkpt lat="40.190457173203676" lon="18.200589688709815"><ele>84.0</ele><time>2026-04-06T07:09:47.001Z</time></trkpt><trkpt lat="40.19050068742574" lon="18.20065711841557"><ele>84.0</ele><time>2026-04-06T07:09:48.001Z</time></trkpt><trkpt lat="40.19054575709562" lon="18.20072451609952"><ele>84.0</ele><time>2026-04-06T07:09:50.001Z</time></trkpt><trkpt lat="40.19060744167027" lon="18.200816759857204"><ele>84.0</ele><time>2026-04-06T07:09:54.001Z</time></trkpt><trkpt lat="40.1907721198727" lon="18.200671291290384"><ele>84.0</ele><time>2026-04-06T07:10:03.002Z</time></trkpt></trkseg></trk></gpx>